<?xml version='1.0' encoding='UTF-8'?><gpx version="1.1" creator="JPX - https://github.com/jenetics/jpx" xmlns="http://www.topografix.com/GPX/1/1"><trk><trkseg><trkpt lat="43.69177122298728" lon="10.868775547260144"><ele>31.0</ele><time>2026-04-25T07:14:57.999Z</time></trkpt><trkpt lat="43.69177418799607" lon="10.868930786107121"><ele>31.0</ele><time>2026-04-25T07:14:59.999Z</time></trkpt><trkpt lat="43.69177493789012" lon="10.869039687610403"><ele>31.0</ele><time>2026-04-25T07:15:00.999Z</time></trkpt><trkpt lat="43.69176629511965" lon="10.869143195978747"><ele>31.0</ele><time>2026-04-25T07:15:01.999Z</time></trkpt><trkpt lat="43.691722454318956" lon="10.869271393501995"><ele>31.0</ele><time>2026-04-25T07:15:02.999Z</time></trkpt><trkpt lat="43.69171445761984" lon="10.86942031479106"><ele>31.0</ele><time>2026-04-25T07:15:03.999Z</time></trkpt><trkpt lat="43.69170550977103" lon="10.869582601941186"><ele>31.0</ele><time>2026-04-25T07:15:04.999Z</time></trkpt><trkpt lat="43.691696797818295" lon="10.869739498925352"><ele>31.0</ele><time>2026-04-25T07:15:05.999Z</time></trkpt><trkpt lat="43.69168756813458" lon="10.869902087497286"><ele>31.0</ele><time>2026-04-25T07:15:06.999Z</time></trkpt><trkpt lat="43.69167816526748" lon="10.870062276695027"><ele>30.75</ele><time>2026-04-25T07:15:07.999Z</time></trkpt><trkpt lat="43.691668106357184" lon="10.870233642440272"><ele>30.5</ele><time>2026-04-25T07:15:08.999Z</time></trkpt><trkpt lat="43.69165817906863" lon="10.87040276578888"><ele>30.25</ele><time>2026-04-25T07:15:09.999Z</time></trkpt><trkpt lat="43.69164757478575" lon="10.87057377544595"><ele>30.0</ele><time>2026-04-25T07:15:10.999Z</time></trkpt><trkpt lat="43.69163651766707" lon="10.870747646847542"><ele>30.0</ele><time>2026-04-25T07:15:11.999Z</time></trkpt><trkpt lat="43.69162550265507" lon="10.870915247327725"><ele>30.0</ele><time>2026-04-25T07:15:12.999Z</time></trkpt><trkpt lat="43.691614409761875" lon="10.871084032564443"><ele>30.0</ele><time>2026-04-25T07:15:13.999Z</time></trkpt><trkpt lat="43.691603810431026" lon="10.871249152482392"><ele>30.0</ele><time>2026-04-25T07:15:14.999Z</time></trkpt><trkpt lat="43.691594948525314" lon="10.871399479100168"><ele>30.0</ele><time>2026-04-25T07:15:15.999Z</time></trkpt><trkpt lat="43.69158673848897" lon="10.871559781763183"><ele>30.0</ele><time>2026-04-25T07:15:16.999Z</time></trkpt><trkpt lat="43.691578705310036" lon="10.87172592704533"><ele>30.0</ele><time>2026-04-25T07:15:17.999Z</time></trkpt><trkpt lat="43.69157157997874" lon="10.871921364664159"><ele>30.0</ele><time>2026-04-25T07:15:18.999Z</time></trkpt><trkpt lat="43.69156343170617" lon="10.872128673593464"><ele>30.0</ele><time>2026-04-25T07:15:19.999Z</time></trkpt><trkpt lat="43.69155496970372" lon="10.872334534222569"><ele>30.0</ele><time>2026-04-25T07:15:20.999Z</time></trkpt><trkpt lat="43.69154587820557" lon="10.872540676608422"><ele>30.0</ele><time>2026-04-25T07:15:21.999Z</time></trkpt><trkpt lat="43.691536715831596" lon="10.872748426034036"><ele>30.0</ele><time>2026-04-25T07:15:22.999Z</time></trkpt><trkpt lat="43.69152749509316" lon="10.872957498847562"><ele>30.333333333333336</ele><time>2026-04-25T07:15:23.999Z</time></trkpt><trkpt lat="43.69152993484607" lon="10.873173364515678"><ele>30.666666666666668</ele><time>2026-04-25T07:15:24.999Z</time></trkpt><trkpt lat="43.691504608397715" lon="10.873388939872415"><ele>31.0</ele><time>2026-04-25T07:15:25.999Z</time></trkpt><trkpt lat="43.69147494595558" lon="10.873604662040272"><ele>30.333333333333336</ele><time>2026-04-25T07:15:26.999Z</time></trkpt><trkpt lat="43.691448184121754" lon="10.873823841150294"><ele>29.666666666666664</ele><time>2026-04-25T07:15:27.998Z</time></trkpt><trkpt lat="43.69142817845703" lon="10.87404584520343"><ele>29.0</ele><time>2026-04-25T07:15:28.998Z</time></trkpt><trkpt lat="43.69141774293981" lon="10.874271373625293"><ele>28.666666666666664</ele><time>2026-04-25T07:15:29.998Z</time></trkpt><trkpt lat="43.6914099912874" lon="10.874493638008683"><ele>28.333333333333336</ele><time>2026-04-25T07:15:30.998Z</time></trkpt><trkpt lat="43.69140757393223" lon="10.874721143361999"><ele>28.0</ele><time>2026-04-25T07:15:31.998Z</time></trkpt><trkpt lat="43.69141099965251" lon="10.874942622573952"><ele>28.0</ele><time>2026-04-25T07:15:32.998Z</time></trkpt><trkpt lat="43.69143286079052" lon="10.8751697238894"><ele>28.0</ele><time>2026-04-25T07:15:33.998Z</time></trkpt><trkpt lat="43.69146649176565" lon="10.875392893355938"><ele>28.0</ele><time>2026-04-25T07:15:34.998Z</time></trkpt><trkpt lat="43.691508816831124" lon="10.875620487667282"><ele>28.0</ele><time>2026-04-25T07:15:35.998Z</time></trkpt><trkpt lat="43.691555012075" lon="10.875841594304124"><ele>28.0</ele><time>2026-04-25T07:15:36.998Z</time></trkpt><trkpt lat="43.691602938177276" lon="10.87607039322631"><ele>28.0</ele><time>2026-04-25T07:15:37.998Z</time></trkpt><trkpt lat="43.691649336770254" lon="10.876290513204589"><ele>28.333333333333336</ele><time>2026-04-25T07:15:38.998Z</time></trkpt><trkpt lat="43.691700738050095" lon="10.876510676024955"><ele>28.666666666666664</ele><time>2026-04-25T07:15:39.998Z</time></trkpt><trkpt lat="43.691756537496495" lon="10.876714786377478"><ele>29.0</ele><time>2026-04-25T07:15:40.998Z</time></trkpt><trkpt lat="43.69181553404443" lon="10.876920621418725"><ele>29.0</ele><time>2026-04-25T07:15:41.998Z</time></trkpt><trkpt lat="43.6918732244997" lon="10.877119641290859"><ele>29.0</ele><time>2026-04-25T07:15:42.998Z</time></trkpt><trkpt lat="43.69192639223104" lon="10.877316847520357"><ele>29.0</ele><time>2026-04-25T07:15:43.998Z</time></trkpt><trkpt lat="43.691976502631135" lon="10.877509587645624"><ele>28.75</ele><time>2026-04-25T07:15:44.998Z</time></trkpt><trkpt lat="43.692026809128734" lon="10.877692292247769"><ele>28.5</ele><time>2026-04-25T07:15:45.998Z</time></trkpt><trkpt lat="43.69206768550148" lon="10.877868602643195"><ele>28.25</ele><time>2026-04-25T07:15:46.998Z</time></trkpt><trkpt lat="43.69209429890487" lon="10.878052507644842"><ele>28.0</ele><time>2026-04-25T07:15:47.998Z</time></trkpt><trkpt lat="43.69209691897344" lon="10.878243681782013"><ele>28.0</ele><time>2026-04-25T07:15:48.998Z</time></trkpt><trkpt lat="43.69205562692115" lon="10.878433013397073"><ele>28.0</ele><time>2026-04-25T07:15:49.998Z</time></trkpt><trkpt lat="43.692029677954764" lon="10.87862395887668"><ele>28.0</ele><time>2026-04-25T07:15:50.998Z</time></trkpt><trkpt lat="43.69201319643366" lon="10.878817683820458"><ele>28.0</ele><time>2026-04-25T07:15:51.998Z</time></trkpt><trkpt lat="43.69198695937593" lon="10.879005612243857"><ele>28.0</ele><time>2026-04-25T07:15:52.998Z</time></trkpt><trkpt lat="43.69196339977792" lon="10.879190576355445"><ele>28.0</ele><time>2026-04-25T07:15:53.998Z</time></trkpt><trkpt lat="43.69193916538838" lon="10.879369765456683"><ele>28.0</ele><time>2026-04-25T07:15:54.998Z</time></trkpt><trkpt lat="43.69191471779421" lon="10.879547628538734"><ele>28.0</ele><time>2026-04-25T07:15:55.998Z</time></trkpt><trkpt lat="43.69189124456517" lon="10.879727352369747"><ele>28.5</ele><time>2026-04-25T07:15:56.998Z</time></trkpt><trkpt lat="43.69186954943553" lon="10.879906133601605"><ele>29.0</ele><time>2026-04-25T07:15:57.998Z</time></trkpt><trkpt lat="43.691847637950616" lon="10.880082219116927"><ele>29.5</ele><time>2026-04-25T07:15:58.998Z</time></trkpt><trkpt lat="43.69182489221596" lon="10.88026320517999"><ele>30.0</ele><time>2026-04-25T07:15:59.998Z</time></trkpt><trkpt lat="43.69178641294286" lon="10.880440055325302"><ele>30.0</ele><time>2026-04-25T07:16:00.998Z</time></trkpt><trkpt lat="43.691780126292585" lon="10.880625479065797"><ele>30.0</ele><time>2026-04-25T07:16:01.998Z</time></trkpt><trkpt lat="43.691756183065834" lon="10.880800073531955"><ele>30.0</ele><time>2026-04-25T07:16:02.998Z</time></trkpt><trkpt lat="43.691729522517846" lon="10.880976359699126"><ele>30.0</ele><time>2026-04-25T07:16:03.998Z</time></trkpt><trkpt lat="43.69170738085668" lon="10.881155983526444"><ele>29.75</ele><time>2026-04-25T07:16:04.998Z</time></trkpt><trkpt lat="43.691687600295026" lon="10.881332360350601"><ele>29.5</ele><time>2026-04-25T07:16:05.998Z</time></trkpt><trkpt lat="43.69166855442885" lon="10.881505876789417"><ele>29.25</ele><time>2026-04-25T07:16:06.998Z</time></trkpt><trkpt lat="43.69163077012647" lon="10.881675979441658"><ele>29.0</ele><time>2026-04-25T07:16:07.998Z</time></trkpt><trkpt lat="43.69162361234393" lon="10.881854747191912"><ele>29.75</ele><time>2026-04-25T07:16:08.998Z</time></trkpt><trkpt lat="43.69159907562369" lon="10.882025946647854"><ele>30.5</ele><time>2026-04-25T07:16:09.998Z</time></trkpt><trkpt lat="43.6915757597786" lon="10.882194794615058"><ele>31.25</ele><time>2026-04-25T07:16:10.998Z</time></trkpt><trkpt lat="43.69155533488203" lon="10.882367053021643"><ele>32.0</ele><time>2026-04-25T07:16:11.998Z</time></trkpt><trkpt lat="43.69153628558385" lon="10.882544383100049"><ele>31.75</ele><time>2026-04-25T07:16:12.998Z</time></trkpt><trkpt lat="43.69151965511763" lon="10.88272613319814"><ele>31.5</ele><time>2026-04-25T07:16:13.997Z</time></trkpt><trkpt lat="43.69150138994395" lon="10.882910345935825"><ele>31.25</ele><time>2026-04-25T07:16:14.997Z</time></trkpt><trkpt lat="43.69148045448071" lon="10.883095534892128"><ele>31.0</ele><time>2026-04-25T07:16:15.997Z</time></trkpt><trkpt lat="43.69145929761318" lon="10.883277546341954"><ele>30.5</ele><time>2026-04-25T07:16:16.997Z</time></trkpt><trkpt lat="43.69143968164374" lon="10.883454761181"><ele>30.0</ele><time>2026-04-25T07:16:17.997Z</time></trkpt><trkpt lat="43.691419222180926" lon="10.883630352393999"><ele>29.5</ele><time>2026-04-25T07:16:18.997Z</time></trkpt><trkpt lat="43.69139846076259" lon="10.883806727969151"><ele>29.0</ele><time>2026-04-25T07:16:19.997Z</time></trkpt><trkpt lat="43.691379036525255" lon="10.883987364235747"><ele>29.0</ele><time>2026-04-25T07:16:20.997Z</time></trkpt><trkpt lat="43.69136380698032" lon="10.884165750370759"><ele>29.0</ele><time>2026-04-25T07:16:21.997Z</time></trkpt><trkpt lat="43.69134520241561" lon="10.884342130843951"><ele>29.0</ele><time>2026-04-25T07:16:22.997Z</time></trkpt><trkpt lat="43.69132493470677" lon="10.884513269182017"><ele>29.0</ele><time>2026-04-25T07:16:23.997Z</time></trkpt><trkpt lat="43.69130146449892" lon="10.88468584956166"><ele>29.0</ele><time>2026-04-25T07:16:24.997Z</time></trkpt><trkpt lat="43.69126310106845" lon="10.884857570249782"><ele>29.0</ele><time>2026-04-25T07:16:26Z</time></trkpt><trkpt lat="43.69120815417536" lon="10.885019985264188"><ele>29.0</ele><time>2026-04-25T07:16:27Z</time></trkpt><trkpt lat="43.691139090597275" lon="10.885175931369783"><ele>29.0</ele><time>2026-04-25T07:16:28Z</time></trkpt><trkpt lat="43.691062142473896" lon="10.885328698549225"><ele>29.75</ele><time>2026-04-25T07:16:29Z</time></trkpt><trkpt lat="43.690986329740326" lon="10.885473898517745"><ele>30.5</ele><time>2026-04-25T07:16:30Z</time></trkpt><trkpt lat="43.690912570787276" lon="10.885613468205973"><ele>31.25</ele><time>2026-04-25T07:16:31Z</time></trkpt><trkpt lat="43.69084382545982" lon="10.885751713980277"><ele>32.0</ele><time>2026-04-25T07:16:32Z</time></trkpt><trkpt lat="43.69078260632283" lon="10.88589845265283"><ele>31.75</ele><time>2026-04-25T07:16:33Z</time></trkpt><trkpt lat="43.69073515008866" lon="10.886053522353397"><ele>31.5</ele><time>2026-04-25T07:16:34Z</time></trkpt><trkpt lat="43.69069843652827" lon="10.88621636940051"><ele>31.25</ele><time>2026-04-25T07:16:35Z</time></trkpt><trkpt lat="43.69066731465418" lon="10.886381861120913"><ele>31.0</ele><time>2026-04-25T07:16:36Z</time></trkpt><trkpt lat="43.690640934145755" lon="10.886550240288523"><ele>31.0</ele><time>2026-04-25T07:16:37Z</time></trkpt><trkpt lat="43.69061498373846" lon="10.886725233458776"><ele>31.0</ele><time>2026-04-25T07:16:38Z</time></trkpt><trkpt lat="43.6905916111355" lon="10.88690011584211"><ele>31.0</ele><time>2026-04-25T07:16:39Z</time></trkpt><trkpt lat="43.69056910292848" lon="10.887084783376466"><ele>31.0</ele><time>2026-04-25T07:16:40Z</time></trkpt><trkpt lat="43.69055077277248" lon="10.887269465983618"><ele>31.0</ele><time>2026-04-25T07:16:41Z</time></trkpt><trkpt lat="43.690543340769565" lon="10.887460623306652"><ele>31.0</ele><time>2026-04-25T07:16:42Z</time></trkpt><trkpt lat="43.690547285894645" lon="10.887654426742364"><ele>31.0</ele><time>2026-04-25T07:16:43Z</time></trkpt><trkpt lat="43.69056819095365" lon="10.887851189301871"><ele>31.0</ele><time>2026-04-25T07:16:44Z</time></trkpt><trkpt lat="43.69060247942766" lon="10.888046580304746"><ele>31.0</ele><time>2026-04-25T07:16:45Z</time></trkpt><trkpt lat="43.69064809327796" lon="10.888239945816697"><ele>31.0</ele><time>2026-04-25T07:16:46Z</time></trkpt><trkpt lat="43.69069567345733" lon="10.888426561478411"><ele>31.0</ele><time>2026-04-25T07:16:47Z</time></trkpt><trkpt lat="43.69074701087473" lon="10.888616084739311"><ele>31.0</ele><time>2026-04-25T07:16:48Z</time></trkpt><trkpt lat="43.69079807994392" lon="10.888803134443613"><ele>31.0</ele><time>2026-04-25T07:16:49Z</time></trkpt><trkpt lat="43.690848524736616" lon="10.888993287033133"><ele>31.0</ele><time>2026-04-25T07:16:50Z</time></trkpt><trkpt lat="43.69089881307952" lon="10.889185679216318"><ele>31.0</ele><time>2026-04-25T07:16:51Z</time></trkpt><trkpt lat="43.69094698641542" lon="10.88937359236144"><ele>31.0</ele><time>2026-04-25T07:16:52Z</time></trkpt><trkpt lat="43.690994748142884" lon="10.889566756053181"><ele>31.333333333333336</ele><time>2026-04-25T07:16:53Z</time></trkpt><trkpt lat="43.691046556130765" lon="10.889767031473184"><ele>31.666666666666664</ele><time>2026-04-25T07:16:53.999Z</time></trkpt><trkpt lat="43.69110521632169" lon="10.889972153449007"><ele>32.0</ele><time>2026-04-25T07:16:54.999Z</time></trkpt><trkpt lat="43.6911553447757" lon="10.890197301773986"><ele>31.333333333333332</ele><time>2026-04-25T07:16:55.999Z</time></trkpt><trkpt lat="43.69121737685867" lon="10.890432707243766"><ele>30.666666666666664</ele><time>2026-04-25T07:16:56.999Z</time></trkpt><trkpt lat="43.69128244720404" lon="10.890679891012825"><ele>30.0</ele><time>2026-04-25T07:16:57.999Z</time></trkpt><trkpt lat="43.691348997056835" lon="10.890934454581126"><ele>29.666666666666664</ele><time>2026-04-25T07:16:58.999Z</time></trkpt><trkpt lat="43.69141574323683" lon="10.891189769048719"><ele>29.333333333333332</ele><time>2026-04-25T07:16:59.999Z</time></trkpt><trkpt lat="43.691495254737255" lon="10.891439742092018"><ele>29.0</ele><time>2026-04-25T07:17:00.999Z</time></trkpt><trkpt lat="43.691555236324696" lon="10.89169325371381"><ele>29.333333333333332</ele><time>2026-04-25T07:17:01.999Z</time></trkpt><trkpt lat="43.69162131279456" lon="10.891948693709175"><ele>29.666666666666664</ele><time>2026-04-25T07:17:02.999Z</time></trkpt><trkpt lat="43.69168715315402" lon="10.892201079739309"><ele>30.0</ele><time>2026-04-25T07:17:03.999Z</time></trkpt><trkpt lat="43.69175354424287" lon="10.892452545503687"><ele>30.0</ele><time>2026-04-25T07:17:04.999Z</time></trkpt><trkpt lat="43.69181994005478" lon="10.892699850608375"><ele>30.0</ele><time>2026-04-25T07:17:05.999Z</time></trkpt><trkpt lat="43.691884917824645" lon="10.892943532151218"><ele>30.0</ele><time>2026-04-25T07:17:06.999Z</time></trkpt><trkpt lat="43.69195036890337" lon="10.89319024144671"><ele>28.333333333333336</ele><time>2026-04-25T07:17:07.999Z</time></trkpt><trkpt lat="43.692011164990255" lon="10.8934312817272"><ele>26.666666666666668</ele><time>2026-04-25T07:17:08.999Z</time></trkpt><trkpt lat="43.692068371090066" lon="10.89367617470156"><ele>25.0</ele><time>2026-04-25T07:17:09.999Z</time></trkpt><trkpt lat="43.69209441727853" lon="10.89392992098657"><ele>25.0</ele><time>2026-04-25T07:17:10.999Z</time></trkpt><trkpt lat="43.69209800894779" lon="10.894176934660532"><ele>25.0</ele><time>2026-04-25T07:17:11.999Z</time></trkpt><trkpt lat="43.692070552834146" lon="10.894419909956053"><ele>25.0</ele><time>2026-04-25T07:17:12.999Z</time></trkpt><trkpt lat="43.69202087335675" lon="10.894660715428975"><ele>25.333333333333336</ele><time>2026-04-25T07:17:13.999Z</time></trkpt><trkpt lat="43.691942114922476" lon="10.894889303492592"><ele>25.666666666666664</ele><time>2026-04-25T07:17:14.999Z</time></trkpt><trkpt lat="43.691851625418735" lon="10.89511279319315"><ele>26.0</ele><time>2026-04-25T07:17:15.999Z</time></trkpt><trkpt lat="43.69176572466048" lon="10.895343195555206"><ele>26.666666666666664</ele><time>2026-04-25T07:17:16.999Z</time></trkpt><trkpt lat="43.69166168331951" lon="10.895553362591484"><ele>27.333333333333336</ele><time>2026-04-25T07:17:17.999Z</time></trkpt><trkpt lat="43.69156918822198" lon="10.895764269682424"><ele>28.0</ele><time>2026-04-25T07:17:18.999Z</time></trkpt><trkpt lat="43.691480524808135" lon="10.89598105933213"><ele>28.666666666666668</ele><time>2026-04-25T07:17:19.999Z</time></trkpt><trkpt lat="43.69139244376155" lon="10.896187550399729"><ele>29.333333333333336</ele><time>2026-04-25T07:17:20.999Z</time></trkpt><trkpt lat="43.691304618756185" lon="10.89639337086285"><ele>30.0</ele><time>2026-04-25T07:17:21.999Z</time></trkpt><trkpt lat="43.691220269632645" lon="10.896593992541748"><ele>30.0</ele><time>2026-04-25T07:17:22.999Z</time></trkpt><trkpt lat="43.69114084036937" lon="10.89678926408615"><ele>30.0</ele><time>2026-04-25T07:17:23.999Z</time></trkpt><trkpt lat="43.691068901003014" lon="10.896982001322222"><ele>30.0</ele><time>2026-04-25T07:17:24.999Z</time></trkpt><trkpt lat="43.691016924504794" lon="10.897182802409173"><ele>30.0</ele><time>2026-04-25T07:17:25.999Z</time></trkpt><trkpt lat="43.69099167995985" lon="10.89738689539866"><ele>30.0</ele><time>2026-04-25T07:17:26.999Z</time></trkpt><trkpt lat="43.690985702110844" lon="10.897596741671803"><ele>30.0</ele><time>2026-04-25T07:17:27.999Z</time></trkpt><trkpt lat="43.69100796243746" lon="10.89780584570731"><ele>30.0</ele><time>2026-04-25T07:17:28.999Z</time></trkpt><trkpt lat="43.691037687087594" lon="10.898005395859304"><ele>30.0</ele><time>2026-04-25T07:17:29.999Z</time></trkpt><trkpt lat="43.691082692842606" lon="10.898187117475503"><ele>30.0</ele><time>2026-04-25T07:17:30.999Z</time></trkpt><trkpt lat="43.69114202850467" lon="10.898344816242107"><ele>30.0</ele><time>2026-04-25T07:17:31.999Z</time></trkpt><trkpt lat="43.69121289699645" lon="10.898480254916917"><ele>30.2</ele><time>2026-04-25T07:17:32.999Z</time></trkpt><trkpt lat="43.691287941328014" lon="10.898595705321725"><ele>30.4</ele><time>2026-04-25T07:17:33.999Z</time></trkpt><trkpt lat="43.69136603137805" lon="10.898700860316712"><ele>30.6</ele><time>2026-04-25T07:17:34.999Z</time></trkpt><trkpt lat="43.69143865737755" lon="10.898785955942706"><ele>30.8</ele><time>2026-04-25T07:17:35.999Z</time></trkpt><trkpt lat="43.69150339285163" lon="10.8988607286467"><ele>31.0</ele><time>2026-04-25T07:17:36.999Z</time></trkpt><trkpt lat="43.69156147866315" lon="10.898925030733931"><ele>31.0</ele><time>2026-04-25T07:17:37.999Z</time></trkpt><trkpt lat="43.69161721941638" lon="10.898988816547227"><ele>31.000000000000004</ele><time>2026-04-25T07:17:38.999Z</time></trkpt><trkpt lat="43.69167134414264" lon="10.899051383471733"><ele>31.0</ele><time>2026-04-25T07:17:39.999Z</time></trkpt><trkpt lat="43.69172451202033" lon="10.899107029757332"><ele>31.0</ele><time>2026-04-25T07:17:40.998Z</time></trkpt><trkpt lat="43.69178226282794" lon="10.899167104181261"><ele>31.000000000000004</ele><time>2026-04-25T07:17:41.998Z</time></trkpt><trkpt lat="43.69184050348312" lon="10.899225109579875"><ele>31.0</ele><time>2026-04-25T07:17:42.998Z</time></trkpt><trkpt lat="43.691898558868786" lon="10.899295469762288"><ele>31.0</ele><time>2026-04-25T07:17:43.998Z</time></trkpt><trkpt lat="43.69196443497122" lon="10.899376489753994"><ele>31.200000000000003</ele><time>2026-04-25T07:17:44.998Z</time></trkpt><trkpt lat="43.69203947649278" lon="10.899451593660139"><ele>31.400000000000002</ele><time>2026-04-25T07:17:45.998Z</time></trkpt><trkpt lat="43.69211026684593" lon="10.899525689822939"><ele>31.6</ele><time>2026-04-25T07:17:46.998Z</time></trkpt><trkpt lat="43.692157028236934" lon="10.899618498341482"><ele>31.8</ele><time>2026-04-25T07:17:47.998Z</time></trkpt><trkpt lat="43.69217964891361" lon="10.899716760838226"><ele>32.0</ele><time>2026-04-25T07:17:48.998Z</time></trkpt><trkpt lat="43.692164434572796" lon="10.89987522540151"><ele>32.0</ele><time>2026-04-25T07:17:50.998Z</time></trkpt><trkpt lat="43.692122766235315" lon="10.899956255602042"><ele>32.0</ele><time>2026-04-25T07:17:51.998Z</time></trkpt><trkpt lat="43.69207119237054" lon="10.900040186678197"><ele>32.0</ele><time>2026-04-25T07:17:52.998Z</time></trkpt><trkpt lat="43.69196999322704" lon="10.900088700979092"><ele>32.0</ele><time>2026-04-25T07:17:53.998Z</time></trkpt><trkpt lat="43.69187566657617" lon="10.900161177996543"><ele>32.0</ele><time>2026-04-25T07:17:54.998Z</time></trkpt><trkpt lat="43.691778136962576" lon="10.900232160897962"><ele>31.75</ele><time>2026-04-25T07:17:55.998Z</time></trkpt><trkpt lat="43.69167617909747" lon="10.900307585330431"><ele>31.5</ele><time>2026-04-25T07:17:56.998Z</time></trkpt><trkpt lat="43.69156497533816" lon="10.90040120542766"><ele>31.25</ele><time>2026-04-25T07:17:57.998Z</time></trkpt><trkpt lat="43.691449301532444" lon="10.900493238175072"><ele>31.0</ele><time>2026-04-25T07:17:58.998Z</time></trkpt><trkpt lat="43.69132447499078" lon="10.900586081345281"><ele>31.0</ele><time>2026-04-25T07:17:59.998Z</time></trkpt><trkpt lat="43.69119962868707" lon="10.900681046388303"><ele>31.0</ele><time>2026-04-25T07:18:00.998Z</time></trkpt><trkpt lat="43.69107896877971" lon="10.900774894755447"><ele>31.0</ele><time>2026-04-25T07:18:01.998Z</time></trkpt><trkpt lat="43.690954486166575" lon="10.900868928048608"><ele>31.0</ele><time>2026-04-25T07:18:02.998Z</time></trkpt><trkpt lat="43.690829164081386" lon="10.900961093332945"><ele>31.25</ele><time>2026-04-25T07:18:03.998Z</time></trkpt><trkpt lat="43.690703807000695" lon="10.901053206106537"><ele>31.5</ele><time>2026-04-25T07:18:04.998Z</time></trkpt><trkpt lat="43.69057670354606" lon="10.901147221907094"><ele>31.75</ele><time>2026-04-25T07:18:05.998Z</time></trkpt><trkpt lat="43.6904490447295" lon="10.901239756904362"><ele>32.0</ele><time>2026-04-25T07:18:06.998Z</time></trkpt><trkpt lat="43.6903228359123" lon="10.901335546383471"><ele>32.25</ele><time>2026-04-25T07:18:07.998Z</time></trkpt><trkpt lat="43.690197126914185" lon="10.901436540729"><ele>32.5</ele><time>2026-04-25T07:18:08.998Z</time></trkpt><trkpt lat="43.690068668318006" lon="10.901532641308266"><ele>32.75</ele><time>2026-04-25T07:18:09.998Z</time></trkpt><trkpt lat="43.68994072390216" lon="10.901629345068905"><ele>33.0</ele><time>2026-04-25T07:18:10.998Z</time></trkpt><trkpt lat="43.68981217655884" lon="10.901726613845248"><ele>32.75</ele><time>2026-04-25T07:18:11.998Z</time></trkpt><trkpt lat="43.68968155073534" lon="10.901820208410873"><ele>32.5</ele><time>2026-04-25T07:18:12.998Z</time></trkpt><trkpt lat="43.68955083903557" lon="10.901912584713413"><ele>32.25</ele><time>2026-04-25T07:18:13.998Z</time></trkpt><trkpt lat="43.689421073161654" lon="10.902014057181496"><ele>32.0</ele><time>2026-04-25T07:18:14.998Z</time></trkpt><trkpt lat="43.689289143428546" lon="10.902112896059215"><ele>32.0</ele><time>2026-04-25T07:18:15.998Z</time></trkpt><trkpt lat="43.689156635685265" lon="10.902211450962286"><ele>32.0</ele><time>2026-04-25T07:18:16.998Z</time></trkpt><trkpt lat="43.689021841341706" lon="10.902313334394321"><ele>32.0</ele><time>2026-04-25T07:18:17.998Z</time></trkpt><trkpt lat="43.688889013373625" lon="10.902424319444433"><ele>32.0</ele><time>2026-04-25T07:18:18.998Z</time></trkpt><trkpt lat="43.68876138456336" lon="10.902552573525801"><ele>32.0</ele><time>2026-04-25T07:18:19.998Z</time></trkpt><trkpt lat="43.68863921438497" lon="10.902688964977344"><ele>32.0</ele><time>2026-04-25T07:18:20.998Z</time></trkpt><trkpt lat="43.68852020618285" lon="10.9028355167284"><ele>31.666666666666664</ele><time>2026-04-25T07:18:21.998Z</time></trkpt><trkpt lat="43.688401036363246" lon="10.902986009958347"><ele>31.333333333333336</ele><time>2026-04-25T07:18:22.998Z</time></trkpt><trkpt lat="43.68828182832626" lon="10.903130252098986"><ele>31.0</ele><time>2026-04-25T07:18:23.998Z</time></trkpt><trkpt lat="43.688161768277176" lon="10.903274804033455"><ele>31.0</ele><time>2026-04-25T07:18:24.998Z</time></trkpt><trkpt lat="43.68803344396584" lon="10.903425113706598"><ele>31.0</ele><time>2026-04-25T07:18:25.998Z</time></trkpt><trkpt lat="43.68790812767579" lon="10.903578771005265"><ele>31.0</ele><time>2026-04-25T07:18:26.998Z</time></trkpt><trkpt lat="43.6877851555635" lon="10.903734352181147"><ele>31.333333333333336</ele><time>2026-04-25T07:18:27.997Z</time></trkpt><trkpt lat="43.68766875619272" lon="10.903898789315791"><ele>31.666666666666664</ele><time>2026-04-25T07:18:28.997Z</time></trkpt><trkpt lat="43.68755775277789" lon="10.904072571820768"><ele>32.0</ele><time>2026-04-25T07:18:29.997Z</time></trkpt><trkpt lat="43.687448566517425" lon="10.904248414177108"><ele>31.333333333333332</ele><time>2026-04-25T07:18:30.997Z</time></trkpt><trkpt lat="43.68733723981603" lon="10.904425333084754"><ele>30.666666666666664</ele><time>2026-04-25T07:18:32Z</time></trkpt><trkpt lat="43.68722474049279" lon="10.904599476996692"><ele>30.0</ele><time>2026-04-25T07:18:33Z</time></trkpt><trkpt lat="43.687109654652446" lon="10.904770951812297"><ele>30.0</ele><time>2026-04-25T07:18:34Z</time></trkpt><trkpt lat="43.6869932921442" lon="10.904941101517682"><ele>30.0</ele><time>2026-04-25T07:18:35Z</time></trkpt><trkpt lat="43.6868734086941" lon="10.905107834639029"><ele>30.0</ele><time>2026-04-25T07:18:36Z</time></trkpt><trkpt lat="43.686752468727505" lon="10.90527196314783"><ele>30.333333333333336</ele><time>2026-04-25T07:18:37Z</time></trkpt><trkpt lat="43.68663222938616" lon="10.905430582302724"><ele>30.666666666666668</ele><time>2026-04-25T07:18:38Z</time></trkpt><trkpt lat="43.686510665000576" lon="10.90558810528031"><ele>31.0</ele><time>2026-04-25T07:18:39Z</time></trkpt><trkpt lat="43.686388667866794" lon="10.905741061375897"><ele>31.0</ele><time>2026-04-25T07:18:40Z</time></trkpt><trkpt lat="43.68626384143789" lon="10.905889361385684"><ele>31.0</ele><time>2026-04-25T07:18:41Z</time></trkpt><trkpt lat="43.68613867646607" lon="10.906034152186525"><ele>31.0</ele><time>2026-04-25T07:18:42Z</time></trkpt><trkpt lat="43.68601535122076" lon="10.906179600698103"><ele>31.333333333333336</ele><time>2026-04-25T07:18:43Z</time></trkpt><trkpt lat="43.685897005080975" lon="10.906324128833704"><ele>31.666666666666664</ele><time>2026-04-25T07:18:44Z</time></trkpt><trkpt lat="43.68578300300621" lon="10.906477179293972"><ele>32.0</ele><time>2026-04-25T07:18:45Z</time></trkpt><trkpt lat="43.68567824007832" lon="10.906635980582879"><ele>31.666666666666664</ele><time>2026-04-25T07:18:46Z</time></trkpt><trkpt lat="43.6855817051363" lon="10.906806882270077"><ele>31.333333333333336</ele><time>2026-04-25T07:18:47Z</time></trkpt><trkpt lat="43.685498328183904" lon="10.906987928848386"><ele>31.0</ele><time>2026-04-25T07:18:48Z</time></trkpt><trkpt lat="43.685424375256865" lon="10.90717745260701"><ele>31.0</ele><time>2026-04-25T07:18:49Z</time></trkpt><trkpt lat="43.68535520337166" lon="10.907368288276382"><ele>31.0</ele><time>2026-04-25T07:18:50Z</time></trkpt><trkpt lat="43.685285526830164" lon="10.907551256997223"><ele>31.0</ele><time>2026-04-25T07:18:51Z</time></trkpt><trkpt lat="43.685219045225644" lon="10.907728352488471"><ele>31.0</ele><time>2026-04-25T07:18:52Z</time></trkpt><trkpt lat="43.685157927444045" lon="10.907893270712158"><ele>31.200000000000003</ele><time>2026-04-25T07:18:53Z</time></trkpt><trkpt lat="43.685100812459254" lon="10.908044887689499"><ele>31.400000000000002</ele><time>2026-04-25T07:18:54Z</time></trkpt><trkpt lat="43.68504499330751" lon="10.908188174670128"><ele>31.6</ele><time>2026-04-25T07:18:55Z</time></trkpt><trkpt lat="43.68499908865112" lon="10.908314433398493"><ele>31.8</ele><time>2026-04-25T07:18:56Z</time></trkpt><trkpt lat="43.684957522219044" lon="10.90842822706638"><ele>32.0</ele><time>2026-04-25T07:18:57Z</time></trkpt><trkpt lat="43.6849182471498" lon="10.908534129705227"><ele>31.999999999999996</ele><time>2026-04-25T07:18:58Z</time></trkpt><trkpt lat="43.68488012399297" lon="10.908636288783123"><ele>32.0</ele><time>2026-04-25T07:18:59Z</time></trkpt><trkpt lat="43.68484537661985" lon="10.908729809847209"><ele>32.0</ele><time>2026-04-25T07:19:00Z</time></trkpt><trkpt lat="43.684814699775174" lon="10.908808580077743"><ele>32.0</ele><time>2026-04-25T07:19:01Z</time></trkpt><trkpt lat="43.68479865572335" lon="10.90894428785049"><ele>31.999999999999996</ele><time>2026-04-25T07:19:03Z</time></trkpt><trkpt lat="43.68486094318653" lon="10.90907225185462"><ele>32.0</ele><time>2026-04-25T07:19:05Z</time></trkpt><trkpt lat="43.68493198688957" lon="10.909120713333508"><ele>32.0</ele><time>2026-04-25T07:19:05.999Z</time></trkpt><trkpt lat="43.685011883187926" lon="10.909185602036091"><ele>32.0</ele><time>2026-04-25T07:19:06.999Z</time></trkpt><trkpt lat="43.685103619694424" lon="10.909274335969698"><ele>32.0</ele><time>2026-04-25T07:19:07.999Z</time></trkpt><trkpt lat="43.685193523220384" lon="10.909374297529032"><ele>32.0</ele><time>2026-04-25T07:19:08.999Z</time></trkpt><trkpt lat="43.68526444038596" lon="10.909496610806931"><ele>32.0</ele><time>2026-04-25T07:19:09.999Z</time></trkpt><trkpt lat="43.685340286848074" lon="10.909608171180528"><ele>32.0</ele><time>2026-04-25T07:19:10.999Z</time></trkpt><trkpt lat="43.68542899834407" lon="10.909717956541694"><ele>32.0</ele><time>2026-04-25T07:19:11.999Z</time></trkpt><trkpt lat="43.685496667315945" lon="10.909867119539246"><ele>32.0</ele><time>2026-04-25T07:19:12.999Z</time></trkpt><trkpt lat="43.685578428723375" lon="10.910004799570984"><ele>32.0</ele><time>2026-04-25T07:19:13.999Z</time></trkpt><trkpt lat="43.68564731121988" lon="10.9101612429936"><ele>31.75</ele><time>2026-04-25T07:19:14.999Z</time></trkpt><trkpt lat="43.685718614802006" lon="10.910324238087513"><ele>31.5</ele><time>2026-04-25T07:19:15.999Z</time></trkpt><trkpt lat="43.685800833730084" lon="10.910473197332468"><ele>31.25</ele><time>2026-04-25T07:19:16.999Z</time></trkpt><trkpt lat="43.685891992416146" lon="10.91061203868442"><ele>31.0</ele><time>2026-04-25T07:19:17.999Z</time></trkpt><trkpt lat="43.68599902270856" lon="10.910718374746018"><ele>31.0</ele><time>2026-04-25T07:19:18.999Z</time></trkpt><trkpt lat="43.68612119082538" lon="10.910799311322071"><ele>31.0</ele><time>2026-04-25T07:19:19.999Z</time></trkpt><trkpt lat="43.68625048607467" lon="10.910870712946739"><ele>31.0</ele><time>2026-04-25T07:19:20.999Z</time></trkpt><trkpt lat="43.686395172899005" lon="10.91092806326308"><ele>31.0</ele><time>2026-04-25T07:19:21.999Z</time></trkpt><trkpt lat="43.686547886435434" lon="10.910989211799164"><ele>31.0</ele><time>2026-04-25T07:19:22.999Z</time></trkpt><trkpt lat="43.68669620211068" lon="10.9110523963419"><ele>31.0</ele><time>2026-04-25T07:19:23.999Z</time></trkpt><trkpt lat="43.68683450778626" lon="10.911122673005146"><ele>31.0</ele><time>2026-04-25T07:19:24.999Z</time></trkpt><trkpt lat="43.68696181237384" lon="10.91122069837485"><ele>31.0</ele><time>2026-04-25T07:19:25.999Z</time></trkpt><trkpt lat="43.687066442906655" lon="10.911359478531912"><ele>31.0</ele><time>2026-04-25T07:19:26.999Z</time></trkpt><trkpt lat="43.68714560304412" lon="10.911529478961414"><ele>31.0</ele><time>2026-04-25T07:19:27.999Z</time></trkpt><trkpt lat="43.68720279649253" lon="10.91171714448893"><ele>31.0</ele><time>2026-04-25T07:19:28.999Z</time></trkpt><trkpt lat="43.68724597686422" lon="10.911919011596128"><ele>31.0</ele><time>2026-04-25T07:19:29.999Z</time></trkpt><trkpt lat="43.68729120047828" lon="10.912114745360155"><ele>31.0</ele><time>2026-04-25T07:19:30.999Z</time></trkpt><trkpt lat="43.68733903895592" lon="10.91230097157097"><ele>31.0</ele><time>2026-04-25T07:19:31.999Z</time></trkpt><trkpt lat="43.68740360822661" lon="10.912479510153753"><ele>31.0</ele><time>2026-04-25T07:19:32.999Z</time></trkpt><trkpt lat="43.68748884951122" lon="10.91264737309638"><ele>31.0</ele><time>2026-04-25T07:19:33.999Z</time></trkpt><trkpt lat="43.68759481726522" lon="10.912789783122294"><ele>31.25</ele><time>2026-04-25T07:19:34.999Z</time></trkpt><trkpt lat="43.68771008730889" lon="10.912903970797736"><ele>31.5</ele><time>2026-04-25T07:19:35.999Z</time></trkpt><trkpt lat="43.68781921539747" lon="10.912991615211073"><ele>31.75</ele><time>2026-04-25T07:19:36.999Z</time></trkpt><trkpt lat="43.6879177751853" lon="10.913044854542367"><ele>32.0</ele><time>2026-04-25T07:19:37.999Z</time></trkpt><trkpt lat="43.68799720794082" lon="10.913086457566084"><ele>32.2</ele><time>2026-04-25T07:19:38.999Z</time></trkpt><trkpt lat="43.6880529052857" lon="10.913133080934449"><ele>32.400000000000006</ele><time>2026-04-25T07:19:39.999Z</time></trkpt><trkpt lat="43.68808972599035" lon="10.913204591667645"><ele>32.599999999999994</ele><time>2026-04-25T07:19:40.999Z</time></trkpt><trkpt lat="43.688008989837435" lon="10.913472911004739"><ele>32.8</ele><time>2026-04-25T07:19:43.999Z</time></trkpt><trkpt lat="43.687922831548974" lon="10.913542838918206"><ele>33.0</ele><time>2026-04-25T07:19:44.999Z</time></trkpt><trkpt lat="43.687816375247074" lon="10.913588905470629"><ele>32.75</ele><time>2026-04-25T07:19:45.999Z</time></trkpt><trkpt lat="43.68770995681903" lon="10.913593789681546"><ele>32.5</ele><time>2026-04-25T07:19:46.999Z</time></trkpt><trkpt lat="43.68759930765069" lon="10.913565037637706"><ele>32.25</ele><time>2026-04-25T07:19:47.999Z</time></trkpt><trkpt lat="43.687488358756305" lon="10.913482046519752"><ele>32.0</ele><time>2026-04-25T07:19:48.999Z</time></trkpt><trkpt lat="43.68738590210449" lon="10.91336092253266"><ele>32.0</ele><time>2026-04-25T07:19:49.999Z</time></trkpt><trkpt lat="43.687293024156716" lon="10.913204390529712"><ele>32.0</ele><time>2026-04-25T07:19:50.998Z</time></trkpt><trkpt lat="43.68719901785477" lon="10.913041740495716"><ele>32.0</ele><time>2026-04-25T07:19:51.998Z</time></trkpt><trkpt lat="43.687085620321824" lon="10.912890907981962"><ele>32.0</ele><time>2026-04-25T07:19:52.998Z</time></trkpt><trkpt lat="43.68695626464384" lon="10.912767743692358"><ele>32.0</ele><time>2026-04-25T07:19:53.998Z</time></trkpt><trkpt lat="43.686814861848646" lon="10.912676817247236"><ele>32.0</ele><time>2026-04-25T07:19:54.998Z</time></trkpt><trkpt lat="43.686658210680704" lon="10.912610566580737"><ele>31.666666666666664</ele><time>2026-04-25T07:19:55.998Z</time></trkpt><trkpt lat="43.68649429558702" lon="10.912568014360167"><ele>31.333333333333336</ele><time>2026-04-25T07:19:56.998Z</time></trkpt><trkpt lat="43.68632299473384" lon="10.912550249160205"><ele>31.0</ele><time>2026-04-25T07:19:57.998Z</time></trkpt><trkpt lat="43.68614611104447" lon="10.912548659034897"><ele>31.0</ele><time>2026-04-25T07:19:58.998Z</time></trkpt><trkpt lat="43.68596754161926" lon="10.91256243302159"><ele>31.0</ele><time>2026-04-25T07:19:59.998Z</time></trkpt><trkpt lat="43.68578717379578" lon="10.91259185343761"><ele>31.0</ele><time>2026-04-25T07:20:00.998Z</time></trkpt><trkpt lat="43.68560456167371" lon="10.912628170329926"><ele>31.0</ele><time>2026-04-25T07:20:01.998Z</time></trkpt><trkpt lat="43.685419223824" lon="10.912667418314111"><ele>31.0</ele><time>2026-04-25T07:20:02.998Z</time></trkpt><trkpt lat="43.68523555185792" lon="10.912709323877278"><ele>31.0</ele><time>2026-04-25T07:20:03.998Z</time></trkpt><trkpt lat="43.68505619806019" lon="10.912745791316969"><ele>31.333333333333336</ele><time>2026-04-25T07:20:04.998Z</time></trkpt><trkpt lat="43.684881706137745" lon="10.912783200219563"><ele>31.666666666666664</ele><time>2026-04-25T07:20:05.998Z</time></trkpt><trkpt lat="43.68470480704737" lon="10.912826244889967"><ele>32.0</ele><time>2026-04-25T07:20:06.998Z</time></trkpt><trkpt lat="43.68452595242617" lon="10.91287478528527"><ele>31.333333333333332</ele><time>2026-04-25T07:20:07.998Z</time></trkpt><trkpt lat="43.68435224930157" lon="10.912937267720629"><ele>30.666666666666664</ele><time>2026-04-25T07:20:08.998Z</time></trkpt><trkpt lat="43.68417735954315" lon="10.912999915751174"><ele>30.0</ele><time>2026-04-25T07:20:09.998Z</time></trkpt><trkpt lat="43.68400250495655" lon="10.913071650218612"><ele>30.0</ele><time>2026-04-25T07:20:10.998Z</time></trkpt><trkpt lat="43.68382994338094" lon="10.913144956687407"><ele>30.0</ele><time>2026-04-25T07:20:11.998Z</time></trkpt><trkpt lat="43.68365535283927" lon="10.913212116974867"><ele>30.0</ele><time>2026-04-25T07:20:12.998Z</time></trkpt><trkpt lat="43.68348055777479" lon="10.913281536802593"><ele>30.333333333333336</ele><time>2026-04-25T07:20:13.998Z</time></trkpt><trkpt lat="43.683308468889386" lon="10.913359735641986"><ele>30.666666666666668</ele><time>2026-04-25T07:20:14.998Z</time></trkpt><trkpt lat="43.683132065955846" lon="10.91343641712077"><ele>31.0</ele><time>2026-04-25T07:20:15.998Z</time></trkpt><trkpt lat="43.682957173970145" lon="10.913508006644678"><ele>31.0</ele><time>2026-04-25T07:20:16.998Z</time></trkpt><trkpt lat="43.682781872014665" lon="10.91358079703894"><ele>31.0</ele><time>2026-04-25T07:20:17.998Z</time></trkpt><trkpt lat="43.682606260598526" lon="10.913653384887649"><ele>31.0</ele><time>2026-04-25T07:20:18.998Z</time></trkpt><trkpt lat="43.68242968891558" lon="10.913721914087832"><ele>31.0</ele><time>2026-04-25T07:20:19.998Z</time></trkpt><trkpt lat="43.68225624005672" lon="10.913786033809979"><ele>31.0</ele><time>2026-04-25T07:20:20.998Z</time></trkpt><trkpt lat="43.68208159932522" lon="10.913854740626185"><ele>31.0</ele><time>2026-04-25T07:20:21.998Z</time></trkpt><trkpt lat="43.681906496672475" lon="10.913925199307833"><ele>32.0</ele><time>2026-04-25T07:20:22.998Z</time></trkpt><trkpt lat="43.68173165384473" lon="10.913991665617106"><ele>33.0</ele><time>2026-04-25T07:20:23.998Z</time></trkpt><trkpt lat="43.68156371060857" lon="10.914054355693429"><ele>34.0</ele><time>2026-04-25T07:20:24.998Z</time></trkpt><trkpt lat="43.68140556358157" lon="10.914117426200379"><ele>34.0</ele><time>2026-04-25T07:20:25.998Z</time></trkpt><trkpt lat="43.68124780332559" lon="10.914193992359701"><ele>34.0</ele><time>2026-04-25T07:20:26.998Z</time></trkpt><trkpt lat="43.68109580164704" lon="10.91429634231448"><ele>34.0</ele><time>2026-04-25T07:20:27.998Z</time></trkpt><trkpt lat="43.68094740679837" lon="10.914419180749858"><ele>34.0</ele><time>2026-04-25T07:20:28.998Z</time></trkpt><trkpt lat="43.68080008017414" lon="10.914556254858422"><ele>34.0</ele><time>2026-04-25T07:20:29.998Z</time></trkpt><trkpt lat="43.68065364797738" lon="10.914698840803085"><ele>34.0</ele><time>2026-04-25T07:20:30.998Z</time></trkpt><trkpt lat="43.680513162132065" lon="10.914850794799438"><ele>34.0</ele><time>2026-04-25T07:20:31.998Z</time></trkpt><trkpt lat="43.68037574826737" lon="10.915010274052658"><ele>34.0</ele><time>2026-04-25T07:20:32.998Z</time></trkpt><trkpt lat="43.68023738082765" lon="10.91516708590412"><ele>34.0</ele><time>2026-04-25T07:20:33.998Z</time></trkpt><trkpt lat="43.68009967915651" lon="10.915324336204469"><ele>34.0</ele><time>2026-04-25T07:20:34.998Z</time></trkpt><trkpt lat="43.679964741175745" lon="10.915484996660311"><ele>34.0</ele><time>2026-04-25T07:20:35.998Z</time></trkpt><trkpt lat="43.67983713252157" lon="10.915643324641335"><ele>34.0</ele><time>2026-04-25T07:20:36.998Z</time></trkpt><trkpt lat="43.679712938339826" lon="10.915801973608458"><ele>34.0</ele><time>2026-04-25T07:20:38Z</time></trkpt><trkpt lat="43.67959823641286" lon="10.915963626696602"><ele>34.0</ele><time>2026-04-25T07:20:39Z</time></trkpt><trkpt lat="43.67949348345158" lon="10.916120362832698"><ele>34.0</ele><time>2026-04-25T07:20:40Z</time></trkpt><trkpt lat="43.67939254086117" lon="10.916269626146047"><ele>34.0</ele><time>2026-04-25T07:20:41Z</time></trkpt><trkpt lat="43.67929376928756" lon="10.916404529575377"><ele>34.0</ele><time>2026-04-25T07:20:42Z</time></trkpt><trkpt lat="43.67919751618969" lon="10.916526337830222"><ele>34.0</ele><time>2026-04-25T07:20:43Z</time></trkpt><trkpt lat="43.67910439887728" lon="10.916631277692979"><ele>34.0</ele><time>2026-04-25T07:20:44Z</time></trkpt><trkpt lat="43.67902077445848" lon="10.916717534674364"><ele>34.0</ele><time>2026-04-25T07:20:45Z</time></trkpt><trkpt lat="43.67893764043489" lon="10.916775771276509"><ele>34.0</ele><time>2026-04-25T07:20:46Z</time></trkpt><trkpt lat="43.678872535205365" lon="10.916838638768699"><ele>34.0</ele><time>2026-04-25T07:20:47Z</time></trkpt><trkpt lat="43.67882280734593" lon="10.916910077439923"><ele>34.0</ele><time>2026-04-25T07:20:48Z</time></trkpt><trkpt lat="43.678706861195906" lon="10.916895053031352"><ele>34.0</ele><time>2026-04-25T07:20:50Z</time></trkpt><trkpt lat="43.67863989842962" lon="10.916765418374911"><ele>34.0</ele><time>2026-04-25T07:20:52Z</time></trkpt><trkpt lat="43.678678422115986" lon="10.91656676589809"><ele>34.0</ele><time>2026-04-25T07:20:54Z</time></trkpt><trkpt lat="43.67869010364956" lon="10.916459288769074"><ele>34.0</ele><time>2026-04-25T07:20:55Z</time></trkpt><trkpt lat="43.678690469698104" lon="10.916341225826702"><ele>34.0</ele><time>2026-04-25T07:20:56Z</time></trkpt><trkpt lat="43.678666789749364" lon="10.916229142560237"><ele>34.0</ele><time>2026-04-25T07:20:57Z</time></trkpt><trkpt lat="43.67862125727186" lon="10.916135654404304"><ele>34.16666666666667</ele><time>2026-04-25T07:20:58Z</time></trkpt><trkpt lat="43.67855651766979" lon="10.916068093888889"><ele>34.333333333333336</ele><time>2026-04-25T07:20:59Z</time></trkpt><trkpt lat="43.67847439642699" lon="10.916033451210748"><ele>34.5</ele><time>2026-04-25T07:21:00Z</time></trkpt><trkpt lat="43.678389397161894" lon="10.91603376123683"><ele>34.666666666666664</ele><time>2026-04-25T07:21:01Z</time></trkpt><trkpt lat="43.67830969110248" lon="10.916072779151888"><ele>34.83333333333333</ele><time>2026-04-25T07:21:02Z</time></trkpt><trkpt lat="43.67824365904221" lon="10.916149772521562"><ele>35.0</ele><time>2026-04-25T07:21:03Z</time></trkpt><trkpt lat="43.67818857538704" lon="10.916256124784235"><ele>35.0</ele><time>2026-04-25T07:21:04Z</time></trkpt><trkpt lat="43.67813393385405" lon="10.916385895589492"><ele>35.0</ele><time>2026-04-25T07:21:05Z</time></trkpt><trkpt lat="43.678068498605576" lon="10.916522825844206"><ele>35.0</ele><time>2026-04-25T07:21:06Z</time></trkpt><trkpt lat="43.67798574376846" lon="10.916646321258993"><ele>35.0</ele><time>2026-04-25T07:21:07Z</time></trkpt><trkpt lat="43.67788118917633" lon="10.916737229067467"><ele>34.75</ele><time>2026-04-25T07:21:08Z</time></trkpt><trkpt lat="43.677757125276585" lon="10.916808843524832"><ele>34.5</ele><time>2026-04-25T07:21:09Z</time></trkpt><trkpt lat="43.67761994537522" lon="10.91687683139161"><ele>34.25</ele><time>2026-04-25T07:21:10Z</time></trkpt><trkpt lat="43.67747229690213" lon="10.91695502788589"><ele>34.0</ele><time>2026-04-25T07:21:11Z</time></trkpt><trkpt lat="43.67731823877961" lon="10.917022952825398"><ele>34.0</ele><time>2026-04-25T07:21:12Z</time></trkpt><trkpt lat="43.67715442134006" lon="10.917089189128374"><ele>34.0</ele><time>2026-04-25T07:21:13Z</time></trkpt><trkpt lat="43.676977158004995" lon="10.91716162323272"><ele>34.0</ele><time>2026-04-25T07:21:14Z</time></trkpt><trkpt lat="43.67680227135105" lon="10.917224526003205"><ele>33.66666666666667</ele><time>2026-04-25T07:21:15Z</time></trkpt><trkpt lat="43.67662685450771" lon="10.917275311213023"><ele>33.333333333333336</ele><time>2026-04-25T07:21:16Z</time></trkpt><trkpt lat="43.67644661156198" lon="10.91732374759335"><ele>33.0</ele><time>2026-04-25T07:21:17Z</time></trkpt><trkpt lat="43.676260705427154" lon="10.91737544359789"><ele>33.0</ele><time>2026-04-25T07:21:18Z</time></trkpt><trkpt lat="43.67606672437568" lon="10.917426287048077"><ele>33.0</ele><time>2026-04-25T07:21:19Z</time></trkpt><trkpt lat="43.67586106112469" lon="10.917476475623193"><ele>33.0</ele><time>2026-04-25T07:21:19.999Z</time></trkpt><trkpt lat="43.67564103323312" lon="10.917527765576416"><ele>33.0</ele><time>2026-04-25T07:21:20.999Z</time></trkpt><trkpt lat="43.67541661958817" lon="10.917578967477322"><ele>33.0</ele><time>2026-04-25T07:21:21.999Z</time></trkpt><trkpt lat="43.67518598202592" lon="10.91763401122172"><ele>33.0</ele><time>2026-04-25T07:21:22.999Z</time></trkpt><trkpt lat="43.674955425247155" lon="10.917691839690255"><ele>33.0</ele><time>2026-04-25T07:21:23.999Z</time></trkpt><trkpt lat="43.67472583022112" lon="10.917748347494243"><ele>33.0</ele><time>2026-04-25T07:21:24.999Z</time></trkpt><trkpt lat="43.674499540704964" lon="10.917804045905246"><ele>33.0</ele><time>2026-04-25T07:21:25.999Z</time></trkpt><trkpt lat="43.674275953235906" lon="10.917865647804318"><ele>33.333333333333336</ele><time>2026-04-25T07:21:26.999Z</time></trkpt><trkpt lat="43.67406326677265" lon="10.917932111720274"><ele>33.66666666666667</ele><time>2026-04-25T07:21:27.999Z</time></trkpt><trkpt lat="43.67386565678047" lon="10.91800275249786"><ele>34.0</ele><time>2026-04-25T07:21:28.999Z</time></trkpt><trkpt lat="43.673675739330655" lon="10.918076283537467"><ele>34.333333333333336</ele><time>2026-04-25T07:21:29.999Z</time></trkpt><trkpt lat="43.67348656239593" lon="10.918153436764541"><ele>34.666666666666664</ele><time>2026-04-25T07:21:30.999Z</time></trkpt><trkpt lat="43.67329975717576" lon="10.918233610337056"><ele>35.0</ele><time>2026-04-25T07:21:31.999Z</time></trkpt><trkpt lat="43.673113125285546" lon="10.91832449642863"><ele>35.0</ele><time>2026-04-25T07:21:32.999Z</time></trkpt><trkpt lat="43.67292686051159" lon="10.918423649432608"><ele>35.0</ele><time>2026-04-25T07:21:33.999Z</time></trkpt><trkpt lat="43.67274401838883" lon="10.918527911865487"><ele>35.0</ele><time>2026-04-25T07:21:34.999Z</time></trkpt><trkpt lat="43.672562489432494" lon="10.918640938401728"><ele>35.0</ele><time>2026-04-25T07:21:35.999Z</time></trkpt><trkpt lat="43.67238102962266" lon="10.918762291551527"><ele>35.0</ele><time>2026-04-25T07:21:36.999Z</time></trkpt><trkpt lat="43.67220012815027" lon="10.918893470574682"><ele>35.0</ele><time>2026-04-25T07:21:37.999Z</time></trkpt><trkpt lat="43.67202106180127" lon="10.91903277330933"><ele>35.0</ele><time>2026-04-25T07:21:38.999Z</time></trkpt><trkpt lat="43.67183884171987" lon="10.9191861324327"><ele>35.0</ele><time>2026-04-25T07:21:39.999Z</time></trkpt><trkpt lat="43.67165277438297" lon="10.91935212254185"><ele>35.0</ele><time>2026-04-25T07:21:40.999Z</time></trkpt><trkpt lat="43.671465167841134" lon="10.919534331109697"><ele>35.0</ele><time>2026-04-25T07:21:41.999Z</time></trkpt><trkpt lat="43.67126261684258" lon="10.91971514703657"><ele>35.0</ele><time>2026-04-25T07:21:42.999Z</time></trkpt><trkpt lat="43.67105272785541" lon="10.919916581542644"><ele>34.5</ele><time>2026-04-25T07:21:43.999Z</time></trkpt><trkpt lat="43.67083286661774" lon="10.920131119792433"><ele>34.0</ele><time>2026-04-25T07:21:44.999Z</time></trkpt><trkpt lat="43.67061080888463" lon="10.920352785496155"><ele>34.0</ele><time>2026-04-25T07:21:45.999Z</time></trkpt><trkpt lat="43.670381731671945" lon="10.920585964179493"><ele>34.0</ele><time>2026-04-25T07:21:46.999Z</time></trkpt><trkpt lat="43.6701573023909" lon="10.920827250319634"><ele>34.0</ele><time>2026-04-25T07:21:47.999Z</time></trkpt><trkpt lat="43.669924199506255" lon="10.921050763469001"><ele>34.0</ele><time>2026-04-25T07:21:48.999Z</time></trkpt><trkpt lat="43.6696994138297" lon="10.921281811854838"><ele>34.0</ele><time>2026-04-25T07:21:49.999Z</time></trkpt><trkpt lat="43.669476021049896" lon="10.921509767511926"><ele>34.0</ele><time>2026-04-25T07:21:50.999Z</time></trkpt><trkpt lat="43.669251990053915" lon="10.921732775200761"><ele>34.5</ele><time>2026-04-25T07:21:51.999Z</time></trkpt><trkpt lat="43.66903133723644" lon="10.921954945360929"><ele>35.0</ele><time>2026-04-25T07:21:52.999Z</time></trkpt><trkpt lat="43.66882545201886" lon="10.922164331345295"><ele>35.0</ele><time>2026-04-25T07:21:53.999Z</time></trkpt><trkpt lat="43.66863311357236" lon="10.922360775851176"><ele>35.0</ele><time>2026-04-25T07:21:54.999Z</time></trkpt><trkpt lat="43.668446288287015" lon="10.922547010599176"><ele>35.666666666666664</ele><time>2026-04-25T07:21:55.999Z</time></trkpt><trkpt lat="43.66826888590942" lon="10.922723126912487"><ele>36.333333333333336</ele><time>2026-04-25T07:21:56.999Z</time></trkpt><trkpt lat="43.66809743231235" lon="10.922892967105081"><ele>37.0</ele><time>2026-04-25T07:21:57.999Z</time></trkpt><trkpt lat="43.66793408834055" lon="10.92305192366728"><ele>37.0</ele><time>2026-04-25T07:21:58.999Z</time></trkpt><trkpt lat="43.66777446605512" lon="10.923205239556198"><ele>37.0</ele><time>2026-04-25T07:21:59.999Z</time></trkpt><trkpt lat="43.66761860650738" lon="10.923356390315751"><ele>37.0</ele><time>2026-04-25T07:22:00.999Z</time></trkpt><trkpt lat="43.667469167795986" lon="10.92350983060181"><ele>37.0</ele><time>2026-04-25T07:22:01.999Z</time></trkpt><trkpt lat="43.667319499939246" lon="10.923663635480722"><ele>37.0</ele><time>2026-04-25T07:22:02.999Z</time></trkpt><trkpt lat="43.667171091934165" lon="10.923813273007326"><ele>37.0</ele><time>2026-04-25T07:22:03.999Z</time></trkpt><trkpt lat="43.667024649092895" lon="10.923964106610196"><ele>36.66666666666667</ele><time>2026-04-25T07:22:04.999Z</time></trkpt><trkpt lat="43.66687812236259" lon="10.924117969632126"><ele>36.333333333333336</ele><time>2026-04-25T07:22:05.999Z</time></trkpt><trkpt lat="43.666727679187616" lon="10.924271964210766"><ele>36.0</ele><time>2026-04-25T07:22:06.998Z</time></trkpt><trkpt lat="43.66657643950626" lon="10.924427060425625"><ele>35.666666666666664</ele><time>2026-04-25T07:22:07.998Z</time></trkpt><trkpt lat="43.66642327665867" lon="10.924587686946753"><ele>35.33333333333333</ele><time>2026-04-25T07:22:08.998Z</time></trkpt><trkpt lat="43.666264589363536" lon="10.924759065137327"><ele>35.0</ele><time>2026-04-25T07:22:09.998Z</time></trkpt><trkpt lat="43.6661003005384" lon="10.924932338097621"><ele>34.666666666666664</ele><time>2026-04-25T07:22:10.998Z</time></trkpt><trkpt lat="43.665929833932736" lon="10.925094083689967"><ele>34.333333333333336</ele><time>2026-04-25T07:22:11.998Z</time></trkpt><trkpt lat="43.66575665041757" lon="10.925248993732694"><ele>34.0</ele><time>2026-04-25T07:22:12.998Z</time></trkpt><trkpt lat="43.665583552480776" lon="10.925396234085516"><ele>34.0</ele><time>2026-04-25T07:22:13.998Z</time></trkpt><trkpt lat="43.66541310686108" lon="10.925538726532066"><ele>34.0</ele><time>2026-04-25T07:22:14.998Z</time></trkpt><trkpt lat="43.66524786480572" lon="10.925672799221378"><ele>34.0</ele><time>2026-04-25T07:22:15.998Z</time></trkpt><trkpt lat="43.665083099256066" lon="10.925797594585138"><ele>34.333333333333336</ele><time>2026-04-25T07:22:16.998Z</time></trkpt><trkpt lat="43.66491846377545" lon="10.925916020725705"><ele>34.666666666666664</ele><time>2026-04-25T07:22:17.998Z</time></trkpt><trkpt lat="43.6647550944697" lon="10.926028742648683"><ele>35.0</ele><time>2026-04-25T07:22:18.998Z</time></trkpt><trkpt lat="43.66458887704729" lon="10.926134960462013"><ele>35.33333333333333</ele><time>2026-04-25T07:22:19.998Z</time></trkpt><trkpt lat="43.664423009924825" lon="10.926225435221259"><ele>35.666666666666664</ele><time>2026-04-25T07:22:20.998Z</time></trkpt><trkpt lat="43.66425998992859" lon="10.926313323330925"><ele>36.0</ele><time>2026-04-25T07:22:21.998Z</time></trkpt><trkpt lat="43.664097663281055" lon="10.926393421241254"><ele>36.0</ele><time>2026-04-25T07:22:22.998Z</time></trkpt><trkpt lat="43.66393189110091" lon="10.926465043299562"><ele>36.0</ele><time>2026-04-25T07:22:23.998Z</time></trkpt><trkpt lat="43.663759499563575" lon="10.926536298011888"><ele>36.0</ele><time>2026-04-25T07:22:24.998Z</time></trkpt><trkpt lat="43.66358017199242" lon="10.926604595987238"><ele>36.0</ele><time>2026-04-25T07:22:25.998Z</time></trkpt><trkpt lat="43.66339482825891" lon="10.926663746419532"><ele>36.0</ele><time>2026-04-25T07:22:26.998Z</time></trkpt><trkpt lat="43.66320188698443" lon="10.92672449118217"><ele>36.0</ele><time>2026-04-25T07:22:27.998Z</time></trkpt><trkpt lat="43.663000804147046" lon="10.926783909691544"><ele>36.0</ele><time>2026-04-25T07:22:28.998Z</time></trkpt><trkpt lat="43.66278554989842" lon="10.926826589584023"><ele>36.0</ele><time>2026-04-25T07:22:29.998Z</time></trkpt><trkpt lat="43.66256953697865" lon="10.926848259836397"><ele>36.0</ele><time>2026-04-25T07:22:30.998Z</time></trkpt><trkpt lat="43.662357352235226" lon="10.926857365715314"><ele>36.0</ele><time>2026-04-25T07:22:31.998Z</time></trkpt><trkpt lat="43.66216135277223" lon="10.926858887747246"><ele>36.0</ele><time>2026-04-25T07:22:32.998Z</time></trkpt><trkpt lat="43.661963824813334" lon="10.926855336945858"><ele>36.0</ele><time>2026-04-25T07:22:33.998Z</time></trkpt><trkpt lat="43.66176115277875" lon="10.926851785614613"><ele>36.0</ele><time>2026-04-25T07:22:34.998Z</time></trkpt><trkpt lat="43.6615519912891" lon="10.92684072717289"><ele>36.0</ele><time>2026-04-25T07:22:35.998Z</time></trkpt><trkpt lat="43.66133412332311" lon="10.926814818524907"><ele>36.0</ele><time>2026-04-25T07:22:36.998Z</time></trkpt><trkpt lat="43.66112542877151" lon="10.926777614913659"><ele>36.333333333333336</ele><time>2026-04-25T07:22:37.998Z</time></trkpt><trkpt lat="43.66093485234168" lon="10.926729398120795"><ele>36.66666666666667</ele><time>2026-04-25T07:22:38.998Z</time></trkpt><trkpt lat="43.66075371152824" lon="10.92667450116127"><ele>37.0</ele><time>2026-04-25T07:22:39.998Z</time></trkpt><trkpt lat="43.66057377675559" lon="10.926619513456496"><ele>37.0</ele><time>2026-04-25T07:22:40.998Z</time></trkpt><trkpt lat="43.66039653517723" lon="10.92656501620486"><ele>37.0</ele><time>2026-04-25T07:22:41.998Z</time></trkpt><trkpt lat="43.660207666515575" lon="10.926506811956953"><ele>37.0</ele><time>2026-04-25T07:22:43Z</time></trkpt><trkpt lat="43.66000599347016" lon="10.926436801433212"><ele>36.66666666666667</ele><time>2026-04-25T07:22:44Z</time></trkpt><trkpt lat="43.65980082672333" lon="10.926352506995643"><ele>36.333333333333336</ele><time>2026-04-25T07:22:45Z</time></trkpt><trkpt lat="43.6596029736797" lon="10.926261650333402"><ele>36.0</ele><time>2026-04-25T07:22:46Z</time></trkpt><trkpt lat="43.65941459647932" lon="10.926171815764436"><ele>36.0</ele><time>2026-04-25T07:22:47Z</time></trkpt><trkpt lat="43.659215739785616" lon="10.92608118755171"><ele>36.0</ele><time>2026-04-25T07:22:48Z</time></trkpt><trkpt lat="43.65900157876755" lon="10.925993650949977"><ele>36.0</ele><time>2026-04-25T07:22:49Z</time></trkpt><trkpt lat="43.65878759022972" lon="10.925901993643343"><ele>36.5</ele><time>2026-04-25T07:22:50Z</time></trkpt><trkpt lat="43.65857511843522" lon="10.92580495869366"><ele>37.0</ele><time>2026-04-25T07:22:51Z</time></trkpt><trkpt lat="43.65835265347259" lon="10.925699703187922"><ele>37.0</ele><time>2026-04-25T07:22:52Z</time></trkpt><trkpt lat="43.65812398738748" lon="10.925599886425704"><ele>37.0</ele><time>2026-04-25T07:22:53Z</time></trkpt><trkpt lat="43.65790653101807" lon="10.92550645682698"><ele>36.333333333333336</ele><time>2026-04-25T07:22:54Z</time></trkpt><trkpt lat="43.65770516133011" lon="10.925415806130692"><ele>35.666666666666664</ele><time>2026-04-25T07:22:55Z</time></trkpt><trkpt lat="43.657518840675365" lon="10.925328499238923"><ele>35.0</ele><time>2026-04-25T07:22:56Z</time></trkpt><trkpt lat="43.6573371861479" lon="10.925257299845528"><ele>35.0</ele><time>2026-04-25T07:22:57Z</time></trkpt><trkpt lat="43.65715909905772" lon="10.925195353525822"><ele>35.0</ele><time>2026-04-25T07:22:58Z</time></trkpt><trkpt lat="43.65696772748985" lon="10.925135957539707"><ele>35.0</ele><time>2026-04-25T07:22:59Z</time></trkpt><trkpt lat="43.65677361810651" lon="10.92508755221722"><ele>35.5</ele><time>2026-04-25T07:23:00Z</time></trkpt><trkpt lat="43.6565617982535" lon="10.925055683679638"><ele>36.0</ele><time>2026-04-25T07:23:01Z</time></trkpt><trkpt lat="43.656325273374215" lon="10.925043173591844"><ele>36.0</ele><time>2026-04-25T07:23:02Z</time></trkpt><trkpt lat="43.656070313865065" lon="10.92502965194809"><ele>36.0</ele><time>2026-04-25T07:23:03Z</time></trkpt><trkpt lat="43.655801535915145" lon="10.925016745048884"><ele>36.0</ele><time>2026-04-25T07:23:04Z</time></trkpt><trkpt lat="43.655522456958124" lon="10.925030331859885"><ele>36.0</ele><time>2026-04-25T07:23:05Z</time></trkpt><trkpt lat="43.65524479139583" lon="10.9250697832035"><ele>36.0</ele><time>2026-04-25T07:23:06Z</time></trkpt><trkpt lat="43.654970172829834" lon="10.925138084173486"><ele>36.0</ele><time>2026-04-25T07:23:07Z</time></trkpt><trkpt lat="43.65469838859852" lon="10.925235721675254"><ele>36.0</ele><time>2026-04-25T07:23:08Z</time></trkpt><trkpt lat="43.654431220259696" lon="10.925352661913703"><ele>36.0</ele><time>2026-04-25T07:23:09Z</time></trkpt><trkpt lat="43.654173278031834" lon="10.92548948556702"><ele>36.0</ele><time>2026-04-25T07:23:10Z</time></trkpt><trkpt lat="43.65392359573928" lon="10.925652673083135"><ele>36.0</ele><time>2026-04-25T07:23:11Z</time></trkpt><trkpt lat="43.653674506986405" lon="10.925815773004995"><ele>36.5</ele><time>2026-04-25T07:23:12Z</time></trkpt><trkpt lat="43.65344640811453" lon="10.92602737075743"><ele>37.0</ele><time>2026-04-25T07:23:13Z</time></trkpt><trkpt lat="43.65323870760082" lon="10.926269661176041"><ele>37.0</ele><time>2026-04-25T07:23:14Z</time></trkpt><trkpt lat="43.65302848085675" lon="10.926509199680119"><ele>37.0</ele><time>2026-04-25T07:23:15Z</time></trkpt><trkpt lat="43.65282944538285" lon="10.92676251335582"><ele>38.5</ele><time>2026-04-25T07:23:16Z</time></trkpt><trkpt lat="43.65264047604745" lon="10.927026300106055"><ele>40.0</ele><time>2026-04-25T07:23:17Z</time></trkpt><trkpt lat="43.652462472465274" lon="10.927299651541174"><ele>38.5</ele><time>2026-04-25T07:23:18Z</time></trkpt><trkpt lat="43.652295852209846" lon="10.927588166075639"><ele>37.0</ele><time>2026-04-25T07:23:19Z</time></trkpt><trkpt lat="43.65214321789482" lon="10.927888483254787"><ele>37.0</ele><time>2026-04-25T07:23:20Z</time></trkpt><trkpt lat="43.65199902098178" lon="10.92819079216433"><ele>37.0</ele><time>2026-04-25T07:23:21Z</time></trkpt><trkpt lat="43.651856471000706" lon="10.92849209427023"><ele>37.5</ele><time>2026-04-25T07:23:22Z</time></trkpt><trkpt lat="43.65171481318763" lon="10.928792841316922"><ele>38.0</ele><time>2026-04-25T07:23:23Z</time></trkpt><trkpt lat="43.651576905076844" lon="10.929094961205541"><ele>38.0</ele><time>2026-04-25T07:23:24Z</time></trkpt><trkpt lat="43.65144210805864" lon="10.929395372768742"><ele>38.0</ele><time>2026-04-25T07:23:25Z</time></trkpt><trkpt lat="43.651309068213806" lon="10.929694294632668"><ele>38.0</ele><time>2026-04-25T07:23:26Z</time></trkpt><trkpt lat="43.651173998345605" lon="10.92999173269128"><ele>38.0</ele><time>2026-04-25T07:23:27Z</time></trkpt><trkpt lat="43.6510387617515" lon="10.930283668998005"><ele>38.5</ele><time>2026-04-25T07:23:28Z</time></trkpt><trkpt lat="43.65090602193147" lon="10.930575672804231"><ele>39.0</ele><time>2026-04-25T07:23:29Z</time></trkpt><trkpt lat="43.65077548893936" lon="10.93086461714925"><ele>38.0</ele><time>2026-04-25T07:23:30Z</time></trkpt><trkpt lat="43.65064469916454" lon="10.931151704432287"><ele>37.0</ele><time>2026-04-25T07:23:31Z</time></trkpt><trkpt lat="43.6505124121268" lon="10.931428705172404"><ele>37.0</ele><time>2026-04-25T07:23:31.999Z</time></trkpt><trkpt lat="43.650373553791106" lon="10.931697264594218"><ele>37.0</ele><time>2026-04-25T07:23:32.999Z</time></trkpt><trkpt lat="43.65022345418236" lon="10.931953961400268"><ele>38.0</ele><time>2026-04-25T07:23:33.999Z</time></trkpt><trkpt lat="43.65006234550035" lon="10.93219761422743"><ele>39.0</ele><time>2026-04-25T07:23:34.999Z</time></trkpt><trkpt lat="43.64989301934495" lon="10.932435060450858"><ele>38.0</ele><time>2026-04-25T07:23:35.999Z</time></trkpt><trkpt lat="43.64971748506326" lon="10.932658726208537"><ele>37.0</ele><time>2026-04-25T07:23:36.999Z</time></trkpt><trkpt lat="43.649536088658294" lon="10.932874783676986"><ele>38.5</ele><time>2026-04-25T07:23:37.999Z</time></trkpt><trkpt lat="43.64935046948255" lon="10.93308268916025"><ele>40.0</ele><time>2026-04-25T07:23:38.999Z</time></trkpt><trkpt lat="43.64916136182639" lon="10.933280084686686"><ele>38.5</ele><time>2026-04-25T07:23:39.999Z</time></trkpt><trkpt lat="43.648967936415445" lon="10.933464144139352"><ele>37.0</ele><time>2026-04-25T07:23:40.999Z</time></trkpt><trkpt lat="43.64876735789268" lon="10.933629666324892"><ele>37.5</ele><time>2026-04-25T07:23:41.999Z</time></trkpt><trkpt lat="43.64856104659299" lon="10.933786869479063"><ele>38.0</ele><time>2026-04-25T07:23:42.999Z</time></trkpt><trkpt lat="43.64834972708845" lon="10.933940284616684"><ele>38.0</ele><time>2026-04-25T07:23:43.999Z</time></trkpt><trkpt lat="43.64814039667176" lon="10.93410330275714"><ele>38.0</ele><time>2026-04-25T07:23:44.999Z</time></trkpt><trkpt lat="43.64793449588804" lon="10.934273135627787"><ele>38.5</ele><time>2026-04-25T07:23:45.999Z</time></trkpt><trkpt lat="43.64772876891014" lon="10.934443784089915"><ele>39.0</ele><time>2026-04-25T07:23:46.999Z</time></trkpt><trkpt lat="43.647514688035734" lon="10.934590262577881"><ele>39.0</ele><time>2026-04-25T07:23:47.999Z</time></trkpt><trkpt lat="43.64731525312283" lon="10.93478165614412"><ele>39.0</ele><time>2026-04-25T07:23:48.999Z</time></trkpt><trkpt lat="43.64710426225665" lon="10.934947909111896"><ele>38.5</ele><time>2026-04-25T07:23:49.999Z</time></trkpt><trkpt lat="43.64689230471532" lon="10.93511168460164"><ele>38.0</ele><time>2026-04-25T07:23:50.999Z</time></trkpt><trkpt lat="43.64668149299424" lon="10.935277333584958"><ele>38.0</ele><time>2026-04-25T07:23:51.999Z</time></trkpt><trkpt lat="43.64647391437325" lon="10.935451683604272"><ele>38.0</ele><time>2026-04-25T07:23:52.999Z</time></trkpt><trkpt lat="43.64627261784995" lon="10.935637207706588"><ele>38.5</ele><time>2026-04-25T07:23:53.999Z</time></trkpt><trkpt lat="43.646074217754105" lon="10.93582933942541"><ele>39.0</ele><time>2026-04-25T07:23:54.999Z</time></trkpt><trkpt lat="43.64588153453336" lon="10.936026128879046"><ele>39.0</ele><time>2026-04-25T07:23:55.999Z</time></trkpt><trkpt lat="43.6456969309972" lon="10.936227049322484"><ele>39.0</ele><time>2026-04-25T07:23:56.999Z</time></trkpt><trkpt lat="43.64551742565349" lon="10.936431221059541"><ele>39.0</ele><time>2026-04-25T07:23:57.999Z</time></trkpt><trkpt lat="43.645342178431406" lon="10.936638104119664"><ele>39.0</ele><time>2026-04-25T07:23:58.999Z</time></trkpt><trkpt lat="43.64517333579783" lon="10.936845839388985"><ele>39.0</ele><time>2026-04-25T07:23:59.999Z</time></trkpt><trkpt lat="43.64500947779788" lon="10.937052961777221"><ele>39.0</ele><time>2026-04-25T07:24:00.999Z</time></trkpt><trkpt lat="43.644853402075775" lon="10.937249389450782"><ele>39.0</ele><time>2026-04-25T07:24:01.999Z</time></trkpt><trkpt lat="43.64470550363494" lon="10.937430085919749"><ele>39.0</ele><time>2026-04-25T07:24:02.999Z</time></trkpt><trkpt lat="43.644565762555295" lon="10.937608307256262"><ele>39.0</ele><time>2026-04-25T07:24:03.999Z</time></trkpt><trkpt lat="43.64443771763414" lon="10.937775971441708"><ele>39.0</ele><time>2026-04-25T07:24:04.999Z</time></trkpt><trkpt lat="43.644316396040125" lon="10.937929834973044"><ele>39.25</ele><time>2026-04-25T07:24:05.999Z</time></trkpt><trkpt lat="43.64420552498841" lon="10.938066302106593"><ele>39.5</ele><time>2026-04-25T07:24:06.999Z</time></trkpt><trkpt lat="43.64410736884259" lon="10.938180846330654"><ele>39.75</ele><time>2026-04-25T07:24:07.999Z</time></trkpt><trkpt lat="43.64402133211721" lon="10.938269104260083"><ele>40.0</ele><time>2026-04-25T07:24:08.999Z</time></trkpt><trkpt lat="43.64394034742816" lon="10.93833302927532"><ele>40.0</ele><time>2026-04-25T07:24:09.999Z</time></trkpt><trkpt lat="43.64385557575341" lon="10.93837116936766"><ele>40.0</ele><time>2026-04-25T07:24:10.999Z</time></trkpt><trkpt lat="43.64375528580662" lon="10.938374846716897"><ele>40.0</ele><time>2026-04-25T07:24:11.999Z</time></trkpt><trkpt lat="43.64365599994327" lon="10.93837798145088"><ele>40.0</ele><time>2026-04-25T07:24:12.999Z</time></trkpt><trkpt lat="43.64356094248456" lon="10.938406611340195"><ele>40.0</ele><time>2026-04-25T07:24:13.999Z</time></trkpt><trkpt lat="43.64347596659917" lon="10.93847340468245"><ele>40.25</ele><time>2026-04-25T07:24:14.999Z</time></trkpt><trkpt lat="43.64339978085414" lon="10.93857905257023"><ele>40.5</ele><time>2026-04-25T07:24:15.999Z</time></trkpt><trkpt lat="43.64333672767182" lon="10.938714718322462"><ele>40.75</ele><time>2026-04-25T07:24:16.999Z</time></trkpt><trkpt lat="43.643281592905325" lon="10.938873461177803"><ele>41.0</ele><time>2026-04-25T07:24:17.998Z</time></trkpt><trkpt lat="43.64321201359469" lon="10.93902864504265"><ele>41.0</ele><time>2026-04-25T07:24:18.998Z</time></trkpt><trkpt lat="43.64310882580064" lon="10.939155390804325"><ele>41.0</ele><time>2026-04-25T07:24:19.998Z</time></trkpt><trkpt lat="43.642982267502965" lon="10.939245283529383"><ele>41.0</ele><time>2026-04-25T07:24:20.998Z</time></trkpt><trkpt lat="43.642847377613315" lon="10.939325108634343"><ele>41.0</ele><time>2026-04-25T07:24:21.998Z</time></trkpt><trkpt lat="43.64270237886458" lon="10.939408840546314"><ele>40.666666666666664</ele><time>2026-04-25T07:24:22.998Z</time></trkpt><trkpt lat="43.64255570045428" lon="10.939497944819209"><ele>40.333333333333336</ele><time>2026-04-25T07:24:23.998Z</time></trkpt><trkpt lat="43.64240832575471" lon="10.939586849749581"><ele>40.0</ele><time>2026-04-25T07:24:24.998Z</time></trkpt><trkpt lat="43.64226587041334" lon="10.939668437700405"><ele>40.0</ele><time>2026-04-25T07:24:25.998Z</time></trkpt><trkpt lat="43.64213390475332" lon="10.939741971250184"><ele>40.0</ele><time>2026-04-25T07:24:26.998Z</time></trkpt><trkpt lat="43.64201346490199" lon="10.93980563950355"><ele>40.0</ele><time>2026-04-25T07:24:27.998Z</time></trkpt><trkpt lat="43.641902151134474" lon="10.939862472105995"><ele>40.0</ele><time>2026-04-25T07:24:28.998Z</time></trkpt><trkpt lat="43.64180333657358" lon="10.939909563048266"><ele>40.0</ele><time>2026-04-25T07:24:29.998Z</time></trkpt><trkpt lat="43.64172003494434" lon="10.939945782167115"><ele>40.0</ele><time>2026-04-25T07:24:30.998Z</time></trkpt><trkpt lat="43.64165529275206" lon="10.93997287059504"><ele>40.0</ele><time>2026-04-25T07:24:31.998Z</time></trkpt><trkpt lat="43.64156533660629" lon="10.940021450570605"><ele>40.0</ele><time>2026-04-25T07:24:33.998Z</time></trkpt><trkpt lat="43.64148232588036" lon="10.940089665771573"><ele>40.0</ele><time>2026-04-25T07:25:19Z</time></trkpt><trkpt lat="43.64135836554705" lon="10.940182655927702"><ele>40.0</ele><time>2026-04-25T07:25:21Z</time></trkpt><trkpt lat="43.64127739962793" lon="10.940229456911835"><ele>40.0</ele><time>2026-04-25T07:25:22Z</time></trkpt><trkpt lat="43.64117967230369" lon="10.940287698553274"><ele>40.0</ele><time>2026-04-25T07:25:23Z</time></trkpt><trkpt lat="43.64107013541715" lon="10.940353217606466"><ele>40.0</ele><time>2026-04-25T07:25:24Z</time></trkpt><trkpt lat="43.64094600654126" lon="10.940427976528541"><ele>40.0</ele><time>2026-04-25T07:25:25Z</time></trkpt><trkpt lat="43.64081394234107" lon="10.940505905989768"><ele>40.0</ele><time>2026-04-25T07:25:26Z</time></trkpt><trkpt lat="43.640670172824976" lon="10.940589180537913"><ele>40.0</ele><time>2026-04-25T07:25:27Z</time></trkpt><trkpt lat="43.640513953002646" lon="10.940685368812126"><ele>40.0</ele><time>2026-04-25T07:25:28Z</time></trkpt><trkpt lat="43.64034910598199" lon="10.94079198848553"><ele>40.333333333333336</ele><time>2026-04-25T07:25:29Z</time></trkpt><trkpt lat="43.64016635968999" lon="10.9409099104947"><ele>40.666666666666664</ele><time>2026-04-25T07:25:30Z</time></trkpt><trkpt lat="43.63997215461165" lon="10.941029107389141"><ele>41.0</ele><time>2026-04-25T07:25:31Z</time></trkpt><trkpt lat="43.6397746842744" lon="10.941156225609005"><ele>41.0</ele><time>2026-04-25T07:25:32Z</time></trkpt><trkpt lat="43.63956967267964" lon="10.941296406527279"><ele>41.0</ele><time>2026-04-25T07:25:33Z</time></trkpt><trkpt lat="43.639362903866925" lon="10.941442507968425"><ele>41.0</ele><time>2026-04-25T07:25:34Z</time></trkpt><trkpt lat="43.63915902120497" lon="10.941590833454432"><ele>41.0</ele><time>2026-04-25T07:25:35Z</time></trkpt><trkpt lat="43.638951482484444" lon="10.94173938787479"><ele>40.5</ele><time>2026-04-25T07:25:36Z</time></trkpt><trkpt lat="43.63874614403053" lon="10.941885490296047"><ele>40.0</ele><time>2026-04-25T07:25:37Z</time></trkpt><trkpt lat="43.63854090641907" lon="10.942031838321704"><ele>41.0</ele><time>2026-04-25T07:25:38Z</time></trkpt><trkpt lat="43.63833724813625" lon="10.942178591919124"><ele>42.0</ele><time>2026-04-25T07:25:39Z</time></trkpt><trkpt lat="43.638124092758986" lon="10.942307738294561"><ele>42.0</ele><time>2026-04-25T07:25:40Z</time></trkpt><trkpt lat="43.63791983900576" lon="10.942454434256874"><ele>42.0</ele><time>2026-04-25T07:25:41Z</time></trkpt><trkpt lat="43.63771818568784" lon="10.942604117779247"><ele>41.0</ele><time>2026-04-25T07:25:41.999Z</time></trkpt><trkpt lat="43.637521669486304" lon="10.942773303614967"><ele>40.0</ele><time>2026-04-25T07:25:42.999Z</time></trkpt><trkpt lat="43.63732173324218" lon="10.942918548763409"><ele>40.0</ele><time>2026-04-25T07:25:43.999Z</time></trkpt><trkpt lat="43.6371227455695" lon="10.943065322425536"><ele>40.0</ele><time>2026-04-25T07:25:44.999Z</time></trkpt><trkpt lat="43.6369222516603" lon="10.943210898699903"><ele>40.0</ele><time>2026-04-25T07:25:45.999Z</time></trkpt><trkpt lat="43.63672141005532" lon="10.943353290815704"><ele>40.0</ele><time>2026-04-25T07:25:46.999Z</time></trkpt><trkpt lat="43.63652062397051" lon="10.943498460026122"><ele>39.66666666666667</ele><time>2026-04-25T07:25:47.999Z</time></trkpt><trkpt lat="43.63632607755819" lon="10.943641419240985"><ele>39.333333333333336</ele><time>2026-04-25T07:25:48.999Z</time></trkpt><trkpt lat="43.63613211963394" lon="10.943784463954268"><ele>39.0</ele><time>2026-04-25T07:25:49.999Z</time></trkpt><trkpt lat="43.635941620747566" lon="10.943926320230155"><ele>40.0</ele><time>2026-04-25T07:25:50.999Z</time></trkpt><trkpt lat="43.63575042458446" lon="10.944068037815937"><ele>41.0</ele><time>2026-04-25T07:25:51.999Z</time></trkpt><trkpt lat="43.635559697279255" lon="10.94420935420832"><ele>42.0</ele><time>2026-04-25T07:25:52.999Z</time></trkpt><trkpt lat="43.63536832022371" lon="10.944348118262925"><ele>42.0</ele><time>2026-04-25T07:25:53.999Z</time></trkpt><trkpt lat="43.6351715869025" lon="10.944492497695835"><ele>42.0</ele><time>2026-04-25T07:25:54.999Z</time></trkpt><trkpt lat="43.63497222755312" lon="10.944643752278362"><ele>42.0</ele><time>2026-04-25T07:25:55.999Z</time></trkpt><trkpt lat="43.634760639744044" lon="10.944778635561143"><ele>42.0</ele><time>2026-04-25T07:25:56.999Z</time></trkpt><trkpt lat="43.63453604527939" lon="10.944924065008635"><ele>41.5</ele><time>2026-04-25T07:25:57.999Z</time></trkpt><trkpt lat="43.63432077039113" lon="10.945063106668545"><ele>41.0</ele><time>2026-04-25T07:25:58.999Z</time></trkpt><trkpt lat="43.634092458331025" lon="10.945222083327732"><ele>41.0</ele><time>2026-04-25T07:25:59.999Z</time></trkpt><trkpt lat="43.633899690890324" lon="10.945370059396202"><ele>41.0</ele><time>2026-04-25T07:26:00.999Z</time></trkpt><trkpt lat="43.633713373745664" lon="10.94548472388848"><ele>41.0</ele><time>2026-04-25T07:26:01.999Z</time></trkpt><trkpt lat="43.6335340928552" lon="10.945598287650517"><ele>41.0</ele><time>2026-04-25T07:26:02.999Z</time></trkpt><trkpt lat="43.633372978858205" lon="10.945708603659991"><ele>41.0</ele><time>2026-04-25T07:26:03.999Z</time></trkpt><trkpt lat="43.63321881528695" lon="10.945801487607174"><ele>41.0</ele><time>2026-04-25T07:26:04.999Z</time></trkpt><trkpt lat="43.63306987367289" lon="10.945888896881076"><ele>41.0</ele><time>2026-04-25T07:26:05.999Z</time></trkpt><trkpt lat="43.632923099434294" lon="10.945975034127466"><ele>41.0</ele><time>2026-04-25T07:26:06.999Z</time></trkpt><trkpt lat="43.632775169346054" lon="10.946090318872173"><ele>41.0</ele><time>2026-04-25T07:26:07.999Z</time></trkpt><trkpt lat="43.632602107078846" lon="10.9461789885158"><ele>41.0</ele><time>2026-04-25T07:26:08.999Z</time></trkpt><trkpt lat="43.632417864918025" lon="10.94627108367884"><ele>41.0</ele><time>2026-04-25T07:26:09.999Z</time></trkpt><trkpt lat="43.63221194578263" lon="10.946313796870536"><ele>41.0</ele><time>2026-04-25T07:26:10.999Z</time></trkpt><trkpt lat="43.632016439727245" lon="10.946379834947534"><ele>42.0</ele><time>2026-04-25T07:26:11.998Z</time></trkpt><trkpt lat="43.63182652530322" lon="10.946449063971256"><ele>43.0</ele><time>2026-04-25T07:26:12.998Z</time></trkpt><trkpt lat="43.63163063365301" lon="10.946520471920428"><ele>44.0</ele><time>2026-04-25T07:26:13.998Z</time></trkpt><trkpt lat="43.63142514410214" lon="10.946596893439477"><ele>44.0</ele><time>2026-04-25T07:26:14.998Z</time></trkpt><trkpt lat="43.63122424144333" lon="10.946674905258874"><ele>44.0</ele><time>2026-04-25T07:26:15.998Z</time></trkpt><trkpt lat="43.63102853009839" lon="10.94675282383054"><ele>44.0</ele><time>2026-04-25T07:26:16.998Z</time></trkpt><trkpt lat="43.6308429117079" lon="10.946830655103645"><ele>43.666666666666664</ele><time>2026-04-25T07:26:17.998Z</time></trkpt><trkpt lat="43.630653361719375" lon="10.946891309069386"><ele>43.333333333333336</ele><time>2026-04-25T07:26:18.998Z</time></trkpt><trkpt lat="43.63046043620536" lon="10.94695681123168"><ele>43.0</ele><time>2026-04-25T07:26:19.998Z</time></trkpt><trkpt lat="43.630261098905976" lon="10.947027181836853"><ele>43.0</ele><time>2026-04-25T07:26:20.998Z</time></trkpt><trkpt lat="43.630053920746214" lon="10.947108200543573"><ele>43.0</ele><time>2026-04-25T07:26:21.998Z</time></trkpt><trkpt lat="43.62983530086707" lon="10.947199799385547"><ele>43.0</ele><time>2026-04-25T07:26:22.998Z</time></trkpt><trkpt lat="43.629612518696696" lon="10.94728228627377"><ele>43.333333333333336</ele><time>2026-04-25T07:26:23.998Z</time></trkpt><trkpt lat="43.62939541276447" lon="10.947346356391613"><ele>43.666666666666664</ele><time>2026-04-25T07:26:24.998Z</time></trkpt><trkpt lat="43.62919231995061" lon="10.947400702851336"><ele>44.0</ele><time>2026-04-25T07:26:25.998Z</time></trkpt><trkpt lat="43.62898944011971" lon="10.947459769659954"><ele>44.0</ele><time>2026-04-25T07:26:26.998Z</time></trkpt><trkpt lat="43.62878719112978" lon="10.947526929452774"><ele>44.0</ele><time>2026-04-25T07:26:27.997Z</time></trkpt><trkpt lat="43.628586143516074" lon="10.947599781606646"><ele>44.0</ele><time>2026-04-25T07:26:28.997Z</time></trkpt><trkpt lat="43.62838605282183" lon="10.947671249025586"><ele>43.666666666666664</ele><time>2026-04-25T07:26:29.997Z</time></trkpt><trkpt lat="43.628185242757674" lon="10.94774015900655"><ele>43.333333333333336</ele><time>2026-04-25T07:26:30.997Z</time></trkpt><trkpt lat="43.627982491971764" lon="10.94780946301832"><ele>43.0</ele><time>2026-04-25T07:26:31.997Z</time></trkpt><trkpt lat="43.62778857867631" lon="10.947846216037139"><ele>43.0</ele><time>2026-04-25T07:26:32.997Z</time></trkpt><trkpt lat="43.62760580295155" lon="10.947898032388245"><ele>43.0</ele><time>2026-04-25T07:26:33.997Z</time></trkpt><trkpt lat="43.62742189939824" lon="10.947952445967536"><ele>43.0</ele><time>2026-04-25T07:26:34.997Z</time></trkpt><trkpt lat="43.62724445184416" lon="10.948057169053"><ele>43.0</ele><time>2026-04-25T07:26:35.997Z</time></trkpt><trkpt lat="43.62705619161245" lon="10.94812429914141"><ele>43.0</ele><time>2026-04-25T07:26:36.997Z</time></trkpt><trkpt lat="43.62686184929885" lon="10.948191666415047"><ele>43.0</ele><time>2026-04-25T07:26:37.997Z</time></trkpt><trkpt lat="43.626667311265386" lon="10.948259860840949"><ele>43.0</ele><time>2026-04-25T07:26:38.997Z</time></trkpt><trkpt lat="43.62647419939154" lon="10.948329598653817"><ele>43.0</ele><time>2026-04-25T07:26:39.997Z</time></trkpt><trkpt lat="43.62629105338777" lon="10.948395495675115"><ele>43.0</ele><time>2026-04-25T07:26:40.997Z</time></trkpt><trkpt lat="43.62612080799121" lon="10.948453933606356"><ele>43.5</ele><time>2026-04-25T07:26:41.997Z</time></trkpt><trkpt lat="43.62596141910183" lon="10.948506391867369"><ele>44.0</ele><time>2026-04-25T07:26:42.997Z</time></trkpt><trkpt lat="43.625817729352775" lon="10.948554959693709"><ele>44.5</ele><time>2026-04-25T07:26:43.997Z</time></trkpt><trkpt lat="43.6256889361573" lon="10.948598772530213"><ele>45.0</ele><time>2026-04-25T07:26:44.997Z</time></trkpt><trkpt lat="43.62556349370956" lon="10.948639112410879"><ele>45.0</ele><time>2026-04-25T07:26:45.997Z</time></trkpt><trkpt lat="43.625446991054496" lon="10.94867408202752"><ele>45.0</ele><time>2026-04-25T07:26:46.997Z</time></trkpt><trkpt lat="43.62533368090175" lon="10.94870708196224"><ele>45.0</ele><time>2026-04-25T07:26:47.997Z</time></trkpt><trkpt lat="43.62521451707135" lon="10.948740311789711"><ele>45.0</ele><time>2026-04-25T07:26:48.997Z</time></trkpt><trkpt lat="43.62509458299183" lon="10.948771002181402"><ele>45.0</ele><time>2026-04-25T07:26:49.997Z</time></trkpt><trkpt lat="43.624973786728454" lon="10.948800066967868"><ele>45.0</ele><time>2026-04-25T07:26:50.997Z</time></trkpt><trkpt lat="43.62485718410893" lon="10.948827664977697"><ele>45.0</ele><time>2026-04-25T07:26:51.997Z</time></trkpt><trkpt lat="43.62474039145748" lon="10.948848183193371"><ele>45.0</ele><time>2026-04-25T07:26:52.997Z</time></trkpt><trkpt lat="43.62462289965495" lon="10.948867479287852"><ele>45.0</ele><time>2026-04-25T07:26:53.997Z</time></trkpt><trkpt lat="43.62450164809089" lon="10.948888545806273"><ele>45.0</ele><time>2026-04-25T07:26:54.999Z</time></trkpt><trkpt lat="43.624374249450376" lon="10.948909921800187"><ele>45.0</ele><time>2026-04-25T07:26:55.999Z</time></trkpt><trkpt lat="43.62424517217105" lon="10.948928547131091"><ele>45.0</ele><time>2026-04-25T07:26:56.999Z</time></trkpt><trkpt lat="43.624121552252625" lon="10.948943270908904"><ele>45.0</ele><time>2026-04-25T07:26:57.999Z</time></trkpt><trkpt lat="43.624006686713244" lon="10.948953767951945"><ele>45.0</ele><time>2026-04-25T07:26:58.999Z</time></trkpt><trkpt lat="43.62390022284749" lon="10.94896085693321"><ele>45.0</ele><time>2026-04-25T07:26:59.999Z</time></trkpt><trkpt lat="43.62380535180428" lon="10.948965607554365"><ele>45.0</ele><time>2026-04-25T07:27:00.999Z</time></trkpt><trkpt lat="43.62372261651351" lon="10.948971172663432"><ele>45.0</ele><time>2026-04-25T07:27:01.999Z</time></trkpt><trkpt lat="43.62362234016416" lon="10.94897818427023"><ele>45.0</ele><time>2026-04-25T07:27:03.999Z</time></trkpt><trkpt lat="43.62355395798078" lon="10.94897868926312"><ele>45.0</ele><time>2026-04-25T07:27:06.999Z</time></trkpt><trkpt lat="43.62348310982325" lon="10.948974427794292"><ele>45.0</ele><time>2026-04-25T07:27:08.999Z</time></trkpt><trkpt lat="43.62338376560081" lon="10.948969918704792"><ele>45.0</ele><time>2026-04-25T07:27:10.999Z</time></trkpt><trkpt lat="43.62326258518458" lon="10.948918174788846"><ele>45.0</ele><time>2026-04-25T07:27:12.999Z</time></trkpt><trkpt lat="43.62320427777185" lon="10.94885547550958"><ele>45.0</ele><time>2026-04-25T07:27:13.999Z</time></trkpt><trkpt lat="43.62315074943926" lon="10.948779182755317"><ele>45.0</ele><time>2026-04-25T07:27:14.999Z</time></trkpt><trkpt lat="43.62309156773134" lon="10.948706394467713"><ele>45.0</ele><time>2026-04-25T07:27:15.999Z</time></trkpt><trkpt lat="43.62301790649402" lon="10.948658933210565"><ele>45.0</ele><time>2026-04-25T07:27:16.999Z</time></trkpt><trkpt lat="43.62293584158564" lon="10.948636139634006"><ele>45.0</ele><time>2026-04-25T07:27:17.999Z</time></trkpt><trkpt lat="43.62284518814263" lon="10.948638992702294"><ele>45.0</ele><time>2026-04-25T07:27:18.999Z</time></trkpt><trkpt lat="43.62275125459224" lon="10.948670945930981"><ele>45.0</ele><time>2026-04-25T07:27:19.999Z</time></trkpt><trkpt lat="43.62265692068203" lon="10.948720373605179"><ele>44.8</ele><time>2026-04-25T07:27:20.999Z</time></trkpt><trkpt lat="43.62255740234124" lon="10.948768527884035"><ele>44.6</ele><time>2026-04-25T07:27:21.999Z</time></trkpt><trkpt lat="43.62244722384787" lon="10.94879549594886"><ele>44.400000000000006</ele><time>2026-04-25T07:27:22.999Z</time></trkpt><trkpt lat="43.62233896532395" lon="10.94879494965059"><ele>44.2</ele><time>2026-04-25T07:27:23.999Z</time></trkpt><trkpt lat="43.62221940873836" lon="10.948776732025978"><ele>44.0</ele><time>2026-04-25T07:27:24.999Z</time></trkpt><trkpt lat="43.62208980261948" lon="10.948733852594794"><ele>44.666666666666664</ele><time>2026-04-25T07:27:25.999Z</time></trkpt><trkpt lat="43.62195028470482" lon="10.94866948931653"><ele>45.333333333333336</ele><time>2026-04-25T07:27:26.999Z</time></trkpt><trkpt lat="43.621798947473124" lon="10.948590403882752"><ele>46.0</ele><time>2026-04-25T07:27:27.999Z</time></trkpt><trkpt lat="43.621643993792496" lon="10.948504872704662"><ele>46.0</ele><time>2026-04-25T07:27:28.999Z</time></trkpt><trkpt lat="43.62148453237134" lon="10.94841160177671"><ele>46.0</ele><time>2026-04-25T07:27:29.999Z</time></trkpt><trkpt lat="43.62132839951869" lon="10.948313165712928"><ele>46.0</ele><time>2026-04-25T07:27:30.999Z</time></trkpt><trkpt lat="43.62116717062685" lon="10.948200663757438"><ele>46.333333333333336</ele><time>2026-04-25T07:27:31.999Z</time></trkpt><trkpt lat="43.621003178684454" lon="10.948075030419046"><ele>46.666666666666664</ele><time>2026-04-25T07:27:32.999Z</time></trkpt><trkpt lat="43.620843176124396" lon="10.947934367966983"><ele>47.0</ele><time>2026-04-25T07:27:33.999Z</time></trkpt><trkpt lat="43.62068493812458" lon="10.947778705853489"><ele>47.0</ele><time>2026-04-25T07:27:34.999Z</time></trkpt><trkpt lat="43.620528829102604" lon="10.947614857740433"><ele>47.0</ele><time>2026-04-25T07:27:35.999Z</time></trkpt><trkpt lat="43.620372875473585" lon="10.947441958225173"><ele>47.0</ele><time>2026-04-25T07:27:36.999Z</time></trkpt><trkpt lat="43.620221449632204" lon="10.947259024432638"><ele>46.666666666666664</ele><time>2026-04-25T07:27:37.999Z</time></trkpt><trkpt lat="43.62007275385432" lon="10.947066869489337"><ele>46.333333333333336</ele><time>2026-04-25T07:27:38.999Z</time></trkpt><trkpt lat="43.61992844351242" lon="10.94686966875711"><ele>46.0</ele><time>2026-04-25T07:27:39.999Z</time></trkpt><trkpt lat="43.619785825993326" lon="10.946666114182522"><ele>46.0</ele><time>2026-04-25T07:27:40.999Z</time></trkpt><trkpt lat="43.619640328335784" lon="10.94645510929324"><ele>46.0</ele><time>2026-04-25T07:27:41.999Z</time></trkpt><trkpt lat="43.61948806886797" lon="10.946237623865809"><ele>46.0</ele><time>2026-04-25T07:27:42.999Z</time></trkpt><trkpt lat="43.619324041281494" lon="10.946007094664848"><ele>45.5</ele><time>2026-04-25T07:27:43.999Z</time></trkpt><trkpt lat="43.61915046675418" lon="10.945763620951245"><ele>45.0</ele><time>2026-04-25T07:27:44.999Z</time></trkpt><trkpt lat="43.61898174424778" lon="10.945513978669808"><ele>45.0</ele><time>2026-04-25T07:27:45.999Z</time></trkpt><trkpt lat="43.618823851649836" lon="10.945262589788877"><ele>45.0</ele><time>2026-04-25T07:27:46.999Z</time></trkpt><trkpt lat="43.61867242506029" lon="10.945021361082626"><ele>45.666666666666664</ele><time>2026-04-25T07:27:47.999Z</time></trkpt><trkpt lat="43.61852039052614" lon="10.944791461730919"><ele>46.33333333333333</ele><time>2026-04-25T07:27:48.999Z</time></trkpt><trkpt lat="43.61836473515927" lon="10.944570006996738"><ele>47.0</ele><time>2026-04-25T07:27:49.999Z</time></trkpt><trkpt lat="43.61820127228485" lon="10.944349364680502"><ele>46.666666666666664</ele><time>2026-04-25T07:27:50.999Z</time></trkpt><trkpt lat="43.618048063594294" lon="10.944123670030846"><ele>46.333333333333336</ele><time>2026-04-25T07:27:51.999Z</time></trkpt><trkpt lat="43.61790557793384" lon="10.943899856578549"><ele>46.0</ele><time>2026-04-25T07:27:52.999Z</time></trkpt><trkpt lat="43.61775980360213" lon="10.943680683598716"><ele>46.5</ele><time>2026-04-25T07:27:53.999Z</time></trkpt><trkpt lat="43.61759737936649" lon="10.943451146075754"><ele>47.0</ele><time>2026-04-25T07:27:54.999Z</time></trkpt><trkpt lat="43.61743138244751" lon="10.94322033941113"><ele>47.0</ele><time>2026-04-25T07:27:55.998Z</time></trkpt><trkpt lat="43.61727647830481" lon="10.943003346810245"><ele>47.0</ele><time>2026-04-25T07:27:56.998Z</time></trkpt><trkpt lat="43.61712700559373" lon="10.94280493433973"><ele>47.0</ele><time>2026-04-25T07:27:57.998Z</time></trkpt><trkpt lat="43.61697949782186" lon="10.942624817307921"><ele>47.666666666666664</ele><time>2026-04-25T07:27:58.998Z</time></trkpt><trkpt lat="43.61683646395847" lon="10.942464877039603"><ele>48.33333333333333</ele><time>2026-04-25T07:27:59.998Z</time></trkpt><trkpt lat="43.616699317261165" lon="10.942315287425686"><ele>49.0</ele><time>2026-04-25T07:28:00.998Z</time></trkpt><trkpt lat="43.616558840842856" lon="10.942165351709445"><ele>49.0</ele><time>2026-04-25T07:28:01.998Z</time></trkpt><trkpt lat="43.61641546310521" lon="10.94201834786313"><ele>49.0</ele><time>2026-04-25T07:28:02.998Z</time></trkpt><trkpt lat="43.61626638244907" lon="10.941878373727121"><ele>49.0</ele><time>2026-04-25T07:28:03.998Z</time></trkpt><trkpt lat="43.61611305377537" lon="10.941745393404512"><ele>49.0</ele><time>2026-04-25T07:28:04.998Z</time></trkpt><trkpt lat="43.61595743854257" lon="10.941621911156618"><ele>49.0</ele><time>2026-04-25T07:28:05.998Z</time></trkpt><trkpt lat="43.61579931995996" lon="10.941505379509776"><ele>49.0</ele><time>2026-04-25T07:28:06.998Z</time></trkpt><trkpt lat="43.61563990499008" lon="10.941395694542056"><ele>49.0</ele><time>2026-04-25T07:28:07.998Z</time></trkpt><trkpt lat="43.61547715489373" lon="10.941291161823694"><ele>49.0</ele><time>2026-04-25T07:28:08.998Z</time></trkpt><trkpt lat="43.61531318252846" lon="10.941194014853714"><ele>49.0</ele><time>2026-04-25T07:28:09.998Z</time></trkpt><trkpt lat="43.61514762339154" lon="10.94110369490359"><ele>49.0</ele><time>2026-04-25T07:28:10.998Z</time></trkpt><trkpt lat="43.61497821566798" lon="10.941017789922666"><ele>49.0</ele><time>2026-04-25T07:28:11.998Z</time></trkpt><trkpt lat="43.614806202540365" lon="10.940937734420551"><ele>49.0</ele><time>2026-04-25T07:28:12.998Z</time></trkpt><trkpt lat="43.61463290785895" lon="10.940864334315858"><ele>50.0</ele><time>2026-04-25T07:28:13.998Z</time></trkpt><trkpt lat="43.614457938359315" lon="10.94079784828034"><ele>51.0</ele><time>2026-04-25T07:28:14.998Z</time></trkpt><trkpt lat="43.614281395608735" lon="10.940740999741072"><ele>52.0</ele><time>2026-04-25T07:28:15.998Z</time></trkpt><trkpt lat="43.61410358037266" lon="10.940695706553042"><ele>52.0</ele><time>2026-04-25T07:28:16.998Z</time></trkpt><trkpt lat="43.613925842877045" lon="10.940659718649831"><ele>52.0</ele><time>2026-04-25T07:28:17.998Z</time></trkpt><trkpt lat="43.61374764039749" lon="10.94062885280127"><ele>52.0</ele><time>2026-04-25T07:28:18.998Z</time></trkpt><trkpt lat="43.613567365786984" lon="10.94060667294353"><ele>51.666666666666664</ele><time>2026-04-25T07:28:19.998Z</time></trkpt><trkpt lat="43.61338683585798" lon="10.940590715087257"><ele>51.33333333333333</ele><time>2026-04-25T07:28:20.998Z</time></trkpt><trkpt lat="43.61320329669376" lon="10.940580861796768"><ele>51.0</ele><time>2026-04-25T07:28:21.998Z</time></trkpt><trkpt lat="43.61301980514349" lon="10.940581745460985"><ele>51.0</ele><time>2026-04-25T07:28:22.998Z</time></trkpt><trkpt lat="43.61283635823622" lon="10.940588043700458"><ele>51.0</ele><time>2026-04-25T07:28:23.998Z</time></trkpt><trkpt lat="43.61265048080198" lon="10.940601033432134"><ele>51.0</ele><time>2026-04-25T07:28:24.998Z</time></trkpt><trkpt lat="43.612461876002804" lon="10.94062266235468"><ele>50.66666666666667</ele><time>2026-04-25T07:28:25.998Z</time></trkpt><trkpt lat="43.612275542849936" lon="10.940651717127636"><ele>50.333333333333336</ele><time>2026-04-25T07:28:26.998Z</time></trkpt><trkpt lat="43.61209119340564" lon="10.940692167223112"><ele>50.0</ele><time>2026-04-25T07:28:27.998Z</time></trkpt><trkpt lat="43.611908508464886" lon="10.940739961805061"><ele>50.0</ele><time>2026-04-25T07:28:28.998Z</time></trkpt><trkpt lat="43.61172601133892" lon="10.940760229426123"><ele>50.0</ele><time>2026-04-25T07:28:29.998Z</time></trkpt><trkpt lat="43.61155199929153" lon="10.940844903336409"><ele>50.0</ele><time>2026-04-25T07:28:30.998Z</time></trkpt><trkpt lat="43.61137703029554" lon="10.940903391681783"><ele>49.66666666666667</ele><time>2026-04-25T07:28:31.998Z</time></trkpt><trkpt lat="43.61120119313068" lon="10.940969368911114"><ele>49.33333333333333</ele><time>2026-04-25T07:28:32.998Z</time></trkpt><trkpt lat="43.61102564970385" lon="10.941040944085708"><ele>49.0</ele><time>2026-04-25T07:28:33.998Z</time></trkpt><trkpt lat="43.61085020287777" lon="10.941114127601578"><ele>50.33333333333333</ele><time>2026-04-25T07:28:34.998Z</time></trkpt><trkpt lat="43.61067607294538" lon="10.94118936001743"><ele>51.66666666666667</ele><time>2026-04-25T07:28:35.998Z</time></trkpt><trkpt lat="43.61050578974879" lon="10.941267280576671"><ele>53.0</ele><time>2026-04-25T07:28:36.998Z</time></trkpt><trkpt lat="43.61033511152388" lon="10.941345713940667"><ele>52.66666666666667</ele><time>2026-04-25T07:28:37.998Z</time></trkpt><trkpt lat="43.61016316090857" lon="10.94142361887823"><ele>52.33333333333333</ele><time>2026-04-25T07:28:38.998Z</time></trkpt><trkpt lat="43.609989195022415" lon="10.94150427978016"><ele>52.0</ele><time>2026-04-25T07:28:39.998Z</time></trkpt><trkpt lat="43.60981215304119" lon="10.941587088179574"><ele>52.0</ele><time>2026-04-25T07:28:40.998Z</time></trkpt><trkpt lat="43.60963196433914" lon="10.941670539365267"><ele>52.0</ele><time>2026-04-25T07:28:41.997Z</time></trkpt><trkpt lat="43.609453374068345" lon="10.941750820124016"><ele>52.0</ele><time>2026-04-25T07:28:42.997Z</time></trkpt><trkpt lat="43.609276253343566" lon="10.941833034734952"><ele>53.666666666666664</ele><time>2026-04-25T07:28:43.997Z</time></trkpt><trkpt lat="43.60910126702417" lon="10.94191568287733"><ele>55.33333333333333</ele><time>2026-04-25T07:28:44.997Z</time></trkpt><trkpt lat="43.608929756964756" lon="10.941995333973477"><ele>57.0</ele><time>2026-04-25T07:28:45.997Z</time></trkpt><trkpt lat="43.60875775576454" lon="10.942076143906078"><ele>55.33333333333333</ele><time>2026-04-25T07:28:46.997Z</time></trkpt><trkpt lat="43.608583034174146" lon="10.94215736871516"><ele>53.666666666666664</ele><time>2026-04-25T07:28:47.997Z</time></trkpt><trkpt lat="43.608411468779906" lon="10.942238121504797"><ele>52.0</ele><time>2026-04-25T07:28:48.997Z</time></trkpt><trkpt lat="43.60824634743072" lon="10.942319775126174"><ele>52.0</ele><time>2026-04-25T07:28:49.997Z</time></trkpt><trkpt lat="43.60806984428572" lon="10.942413009542022"><ele>52.0</ele><time>2026-04-25T07:28:50.997Z</time></trkpt><trkpt lat="43.60787403711575" lon="10.942520570646222"><ele>52.0</ele><time>2026-04-25T07:28:51.997Z</time></trkpt><trkpt lat="43.607661956090205" lon="10.942633861819717"><ele>51.0</ele><time>2026-04-25T07:28:52.997Z</time></trkpt><trkpt lat="43.60741908186995" lon="10.942751216425835"><ele>50.0</ele><time>2026-04-25T07:28:53.997Z</time></trkpt><trkpt lat="43.60715507510549" lon="10.942872894221534"><ele>52.5</ele><time>2026-04-25T07:28:54.997Z</time></trkpt><trkpt lat="43.60687776976157" lon="10.942989667927472"><ele>55.0</ele><time>2026-04-25T07:28:55.997Z</time></trkpt><trkpt lat="43.6065954495113" lon="10.94308864306314"><ele>55.0</ele><time>2026-04-25T07:28:56.997Z</time></trkpt><trkpt lat="43.60629787451597" lon="10.9431721418847"><ele>55.0</ele><time>2026-04-25T07:28:57.997Z</time></trkpt><trkpt lat="43.60599659321836" lon="10.943238360192922"><ele>54.0</ele><time>2026-04-25T07:28:58.997Z</time></trkpt><trkpt lat="43.605696532710695" lon="10.943287299654466"><ele>53.0</ele><time>2026-04-25T07:28:59.997Z</time></trkpt><trkpt lat="43.605394602904724" lon="10.94332334050215"><ele>53.5</ele><time>2026-04-25T07:29:01Z</time></trkpt><trkpt lat="43.60509643679243" lon="10.943346886122681"><ele>54.0</ele><time>2026-04-25T07:29:02Z</time></trkpt><trkpt lat="43.60479807917586" lon="10.943357253821212"><ele>54.0</ele><time>2026-04-25T07:29:03Z</time></trkpt><trkpt lat="43.60450029616261" lon="10.943353657889505"><ele>54.0</ele><time>2026-04-25T07:29:04Z</time></trkpt><trkpt lat="43.604211319981324" lon="10.943350015883418"><ele>54.0</ele><time>2026-04-25T07:29:05Z</time></trkpt><trkpt lat="43.60392467023794" lon="10.94335776772374"><ele>54.0</ele><time>2026-04-25T07:29:06Z</time></trkpt><trkpt lat="43.60363590091234" lon="10.943370774886578"><ele>55.0</ele><time>2026-04-25T07:29:07Z</time></trkpt><trkpt lat="43.60334606403684" lon="10.94338354403212"><ele>56.0</ele><time>2026-04-25T07:29:08Z</time></trkpt><trkpt lat="43.60305733757079" lon="10.943396509634315"><ele>59.0</ele><time>2026-04-25T07:29:09Z</time></trkpt><trkpt lat="43.602769664313826" lon="10.943410557823384"><ele>62.0</ele><time>2026-04-25T07:29:10Z</time></trkpt><trkpt lat="43.602483035382775" lon="10.943430578056722"><ele>62.0</ele><time>2026-04-25T07:29:11Z</time></trkpt><trkpt lat="43.60219873305462" lon="10.94345743842631"><ele>62.0</ele><time>2026-04-25T07:29:12Z</time></trkpt><trkpt lat="43.601915806988146" lon="10.943490262782861"><ele>60.5</ele><time>2026-04-25T07:29:13Z</time></trkpt><trkpt lat="43.60163576360612" lon="10.94353112417605"><ele>59.0</ele><time>2026-04-25T07:29:14Z</time></trkpt><trkpt lat="43.6013564217063" lon="10.94358005433459"><ele>61.0</ele><time>2026-04-25T07:29:15Z</time></trkpt><trkpt lat="43.601078171043376" lon="10.94363375136865"><ele>63.0</ele><time>2026-04-25T07:29:16Z</time></trkpt><trkpt lat="43.60080246604818" lon="10.943690212666286"><ele>63.0</ele><time>2026-04-25T07:29:17Z</time></trkpt><trkpt lat="43.60052925324019" lon="10.943747349709588"><ele>63.0</ele><time>2026-04-25T07:29:18Z</time></trkpt><trkpt lat="43.600257442797016" lon="10.943806639539643"><ele>69.0</ele><time>2026-04-25T07:29:19Z</time></trkpt><trkpt lat="43.59998928889179" lon="10.943869618330709"><ele>75.0</ele><time>2026-04-25T07:29:20Z</time></trkpt><trkpt lat="43.599722557241215" lon="10.94393368220971"><ele>80.0</ele><time>2026-04-25T07:29:21Z</time></trkpt><trkpt lat="43.599458421554054" lon="10.943999965345137"><ele>85.0</ele><time>2026-04-25T07:29:22Z</time></trkpt><trkpt lat="43.5991973729867" lon="10.944069445791085"><ele>85.0</ele><time>2026-04-25T07:29:23Z</time></trkpt><trkpt lat="43.598938158360234" lon="10.944136769638368"><ele>85.0</ele><time>2026-04-25T07:29:24Z</time></trkpt><trkpt lat="43.59867492064352" lon="10.944172665027576"><ele>80.5</ele><time>2026-04-25T07:29:24.999Z</time></trkpt><trkpt lat="43.59841193304088" lon="10.944228158834676"><ele>76.0</ele><time>2026-04-25T07:29:25.999Z</time></trkpt><trkpt lat="43.59814835632689" lon="10.944283789165059"><ele>76.0</ele><time>2026-04-25T07:29:26.999Z</time></trkpt><trkpt lat="43.59788020285545" lon="10.944344341349664"><ele>76.0</ele><time>2026-04-25T07:29:27.999Z</time></trkpt><trkpt lat="43.59762618280799" lon="10.944427485800093"><ele>71.5</ele><time>2026-04-25T07:29:28.999Z</time></trkpt><trkpt lat="43.59736843776922" lon="10.944476603957328"><ele>67.0</ele><time>2026-04-25T07:29:29.999Z</time></trkpt><trkpt lat="43.59710891371212" lon="10.944528503307357"><ele>68.5</ele><time>2026-04-25T07:29:30.999Z</time></trkpt><trkpt lat="43.596851635693646" lon="10.944580435896745"><ele>70.0</ele><time>2026-04-25T07:29:31.999Z</time></trkpt><trkpt lat="43.59659576901446" lon="10.944639350493189"><ele>70.0</ele><time>2026-04-25T07:29:32.999Z</time></trkpt><trkpt lat="43.59634149267054" lon="10.944696913576617"><ele>70.0</ele><time>2026-04-25T07:29:33.999Z</time></trkpt><trkpt lat="43.59608959339974" lon="10.944760322455922"><ele>65.5</ele><time>2026-04-25T07:29:34.999Z</time></trkpt><trkpt lat="43.59584204314548" lon="10.944833321245456"><ele>61.0</ele><time>2026-04-25T07:29:35.999Z</time></trkpt><trkpt lat="43.59559809082749" lon="10.944917457665532"><ele>61.0</ele><time>2026-04-25T07:29:36.999Z</time></trkpt><trkpt lat="43.595356553533755" lon="10.945011194242527"><ele>61.0</ele><time>2026-04-25T07:29:37.999Z</time></trkpt><trkpt lat="43.595116636634664" lon="10.945119459984294"><ele>60.5</ele><time>2026-04-25T07:29:38.999Z</time></trkpt><trkpt lat="43.59488393456732" lon="10.94524095735188"><ele>60.0</ele><time>2026-04-25T07:29:39.999Z</time></trkpt><trkpt lat="43.59465504230944" lon="10.945378262798398"><ele>61.0</ele><time>2026-04-25T07:29:40.999Z</time></trkpt><trkpt lat="43.59443039915989" lon="10.945531884526638"><ele>62.0</ele><time>2026-04-25T07:29:41.999Z</time></trkpt><trkpt lat="43.594213793960805" lon="10.945701837367197"><ele>63.5</ele><time>2026-04-25T07:29:42.999Z</time></trkpt><trkpt lat="43.5940031659385" lon="10.945888771984018"><ele>65.0</ele><time>2026-04-25T07:29:43.999Z</time></trkpt><trkpt lat="43.59380163379549" lon="10.94609276747963"><ele>64.5</ele><time>2026-04-25T07:29:44.999Z</time></trkpt><trkpt lat="43.59360923568067" lon="10.946313901647683"><ele>64.0</ele><time>2026-04-25T07:29:45.999Z</time></trkpt><trkpt lat="43.593415620261275" lon="10.94652881335077"><ele>66.5</ele><time>2026-04-25T07:29:46.999Z</time></trkpt><trkpt lat="43.59324212123853" lon="10.94677296391869"><ele>69.0</ele><time>2026-04-25T07:29:47.999Z</time></trkpt><trkpt lat="43.59308428011526" lon="10.947032355293295"><ele>69.0</ele><time>2026-04-25T07:29:48.999Z</time></trkpt><trkpt lat="43.592946309723615" lon="10.947309239635254"><ele>69.0</ele><time>2026-04-25T07:29:49.999Z</time></trkpt><trkpt lat="43.59280730655642" lon="10.947578001099854"><ele>69.0</ele><time>2026-04-25T07:29:50.999Z</time></trkpt><trkpt lat="43.59266095633073" lon="10.947842439980848"><ele>69.0</ele><time>2026-04-25T07:29:51.999Z</time></trkpt><trkpt lat="43.59253994941187" lon="10.948127163434242"><ele>71.0</ele><time>2026-04-25T07:29:52.999Z</time></trkpt><trkpt lat="43.592440606056996" lon="10.948423123792635"><ele>73.0</ele><time>2026-04-25T07:29:53.999Z</time></trkpt><trkpt lat="43.59232750552493" lon="10.948707699556104"><ele>73.0</ele><time>2026-04-25T07:29:54.999Z</time></trkpt><trkpt lat="43.59221729729151" lon="10.94899403509121"><ele>73.0</ele><time>2026-04-25T07:29:55.999Z</time></trkpt><trkpt lat="43.592105820254716" lon="10.94928207917306"><ele>76.5</ele><time>2026-04-25T07:29:56.999Z</time></trkpt><trkpt lat="43.59199391209419" lon="10.949571527561002"><ele>80.0</ele><time>2026-04-25T07:29:57.999Z</time></trkpt><trkpt lat="43.59188478577786" lon="10.949865478589953"><ele>85.5</ele><time>2026-04-25T07:29:58.999Z</time></trkpt><trkpt lat="43.59176233250086" lon="10.950146363960046"><ele>91.0</ele><time>2026-04-25T07:29:59.999Z</time></trkpt><trkpt lat="43.59165101535603" lon="10.950436353551778"><ele>91.0</ele><time>2026-04-25T07:30:00.999Z</time></trkpt><trkpt lat="43.591539778550825" lon="10.950725988083589"><ele>91.0</ele><time>2026-04-25T07:30:01.999Z</time></trkpt><trkpt lat="43.591428230244524" lon="10.951016433701852"><ele>95.0</ele><time>2026-04-25T07:30:02.999Z</time></trkpt><trkpt lat="43.59131673560395" lon="10.951306739266457"><ele>99.0</ele><time>2026-04-25T07:30:03.999Z</time></trkpt><trkpt lat="43.59120485902299" lon="10.951598040093046"><ele>107.0</ele><time>2026-04-25T07:30:04.999Z</time></trkpt><trkpt lat="43.591093077836625" lon="10.951889092919082"><ele>115.0</ele><time>2026-04-25T07:30:05.999Z</time></trkpt><trkpt lat="43.590981818340175" lon="10.952178786591814"><ele>115.0</ele><time>2026-04-25T07:30:06.999Z</time></trkpt><trkpt lat="43.59087089795116" lon="10.952467597302682"><ele>115.0</ele><time>2026-04-25T07:30:07.999Z</time></trkpt><trkpt lat="43.59076021056868" lon="10.952755801315941"><ele>112.0</ele><time>2026-04-25T07:30:08.999Z</time></trkpt><trkpt lat="43.59064982715305" lon="10.953043213893789"><ele>109.0</ele><time>2026-04-25T07:30:09.999Z</time></trkpt><trkpt lat="43.59053937654839" lon="10.953330801402572"><ele>106.0</ele><time>2026-04-25T07:30:10.999Z</time></trkpt><trkpt lat="43.590428900673515" lon="10.953618454027904"><ele>103.0</ele><time>2026-04-25T07:30:11.999Z</time></trkpt><trkpt lat="43.590285534326156" lon="10.953991745454298"><ele>97.5</ele><time>2026-04-25T07:30:12.998Z</time></trkpt><trkpt lat="43.59019032693317" lon="10.954306479135383"><ele>92.0</ele><time>2026-04-25T07:30:13.998Z</time></trkpt><trkpt lat="43.59006883850712" lon="10.95461084834708"><ele>92.0</ele><time>2026-04-25T07:30:14.998Z</time></trkpt><trkpt lat="43.58994789372232" lon="10.95491444422418"><ele>92.0</ele><time>2026-04-25T07:30:15.998Z</time></trkpt><trkpt lat="43.58983313782106" lon="10.955221323926377"><ele>83.5</ele><time>2026-04-25T07:30:16.998Z</time></trkpt><trkpt lat="43.58971742039422" lon="10.955530786327826"><ele>75.0</ele><time>2026-04-25T07:30:17.998Z</time></trkpt><trkpt lat="43.58963847665287" lon="10.955792924038892"><ele>73.0</ele><time>2026-04-25T07:30:18.998Z</time></trkpt><trkpt lat="43.589519991332544" lon="10.956081197945743"><ele>71.0</ele><time>2026-04-25T07:30:19.998Z</time></trkpt><trkpt lat="43.58940631540934" lon="10.95637752699219"><ele>71.0</ele><time>2026-04-25T07:30:20.998Z</time></trkpt><trkpt lat="43.58928961927007" lon="10.956679605802329"><ele>71.0</ele><time>2026-04-25T07:30:21.998Z</time></trkpt><trkpt lat="43.58917202482661" lon="10.95698661860908"><ele>68.5</ele><time>2026-04-25T07:30:22.998Z</time></trkpt><trkpt lat="43.58906124353755" lon="10.95729744868149"><ele>66.0</ele><time>2026-04-25T07:30:23.998Z</time></trkpt><trkpt lat="43.58895987909048" lon="10.95761957814259"><ele>65.5</ele><time>2026-04-25T07:30:24.998Z</time></trkpt><trkpt lat="43.58887171222183" lon="10.957948522714199"><ele>65.0</ele><time>2026-04-25T07:30:25.998Z</time></trkpt><trkpt lat="43.58879588966609" lon="10.958288410171402"><ele>65.0</ele><time>2026-04-25T07:30:26.998Z</time></trkpt><trkpt lat="43.58873187786919" lon="10.958634694240741"><ele>65.0</ele><time>2026-04-25T07:30:27.998Z</time></trkpt><trkpt lat="43.588691029475164" lon="10.958991681861264"><ele>66.5</ele><time>2026-04-25T07:30:28.998Z</time></trkpt><trkpt lat="43.58865520786188" lon="10.959343803090169"><ele>68.0</ele><time>2026-04-25T07:30:29.998Z</time></trkpt><trkpt lat="43.588633351721306" lon="10.95969745545924"><ele>65.0</ele><time>2026-04-25T07:30:30.998Z</time></trkpt><trkpt lat="43.58862761763877" lon="10.960048160346778"><ele>62.0</ele><time>2026-04-25T07:30:31.998Z</time></trkpt><trkpt lat="43.58863794175325" lon="10.960400249508115"><ele>62.0</ele><time>2026-04-25T07:30:32.998Z</time></trkpt><trkpt lat="43.588661043000826" lon="10.960749646339924"><ele>62.0</ele><time>2026-04-25T07:30:33.998Z</time></trkpt><trkpt lat="43.588697287030655" lon="10.961093912018796"><ele>61.5</ele><time>2026-04-25T07:30:34.998Z</time></trkpt><trkpt lat="43.58874460995827" lon="10.96143290224904"><ele>61.0</ele><time>2026-04-25T07:30:35.998Z</time></trkpt><trkpt lat="43.58880104854324" lon="10.961770758656606"><ele>64.0</ele><time>2026-04-25T07:30:36.998Z</time></trkpt><trkpt lat="43.588860633976914" lon="10.96210533922887"><ele>67.0</ele><time>2026-04-25T07:30:37.998Z</time></trkpt><trkpt lat="43.58892428010356" lon="10.96243839950089"><ele>69.5</ele><time>2026-04-25T07:30:38.998Z</time></trkpt><trkpt lat="43.58899064246587" lon="10.962766484727712"><ele>72.0</ele><time>2026-04-25T07:30:39.998Z</time></trkpt><trkpt lat="43.589055727632484" lon="10.963095527657444"><ele>71.0</ele><time>2026-04-25T07:30:40.998Z</time></trkpt><trkpt lat="43.58912035458607" lon="10.963423689554327"><ele>70.0</ele><time>2026-04-25T07:30:41.998Z</time></trkpt><trkpt lat="43.58918788665699" lon="10.963746680411115"><ele>70.0</ele><time>2026-04-25T07:30:42.998Z</time></trkpt><trkpt lat="43.58925455854347" lon="10.964067997501353"><ele>70.0</ele><time>2026-04-25T07:30:43.998Z</time></trkpt><trkpt lat="43.589321827051556" lon="10.964392468618009"><ele>72.0</ele><time>2026-04-25T07:30:44.998Z</time></trkpt><trkpt lat="43.5893867168196" lon="10.964715886417677"><ele>74.0</ele><time>2026-04-25T07:30:45.998Z</time></trkpt><trkpt lat="43.58945443181885" lon="10.965040616363453"><ele>76.0</ele><time>2026-04-25T07:30:46.998Z</time></trkpt><trkpt lat="43.589522122582274" lon="10.965365929321269"><ele>78.0</ele><time>2026-04-25T07:30:47.998Z</time></trkpt><trkpt lat="43.58958759722455" lon="10.965694148674373"><ele>72.0</ele><time>2026-04-25T07:30:48.998Z</time></trkpt><trkpt lat="43.589648084489745" lon="10.966027959921142"><ele>66.0</ele><time>2026-04-25T07:30:49.998Z</time></trkpt><trkpt lat="43.58970297919143" lon="10.966365099909112"><ele>62.0</ele><time>2026-04-25T07:30:50.998Z</time></trkpt><trkpt lat="43.58975025000675" lon="10.966706347618874"><ele>58.0</ele><time>2026-04-25T07:30:51.998Z</time></trkpt><trkpt lat="43.589789176700236" lon="10.96704247819307"><ele>58.0</ele><time>2026-04-25T07:30:52.998Z</time></trkpt><trkpt lat="43.589788452992686" lon="10.967361502349481"><ele>58.0</ele><time>2026-04-25T07:30:53.998Z</time></trkpt><trkpt lat="43.58979140143589" lon="10.967702791697342"><ele>55.5</ele><time>2026-04-25T07:30:54.998Z</time></trkpt><trkpt lat="43.58980074065941" lon="10.968037306882362"><ele>53.0</ele><time>2026-04-25T07:30:55.998Z</time></trkpt><trkpt lat="43.58980215937045" lon="10.968370050843285"><ele>52.0</ele><time>2026-04-25T07:30:56.998Z</time></trkpt><trkpt lat="43.58979518500079" lon="10.96869947766165"><ele>51.0</ele><time>2026-04-25T07:30:57.998Z</time></trkpt><trkpt lat="43.58978164709701" lon="10.969023748036706"><ele>51.33333333333333</ele><time>2026-04-25T07:30:58.997Z</time></trkpt><trkpt lat="43.58976257583698" lon="10.969331686155359"><ele>51.666666666666664</ele><time>2026-04-25T07:30:59.997Z</time></trkpt><trkpt lat="43.58974060583549" lon="10.969621582562432"><ele>52.0</ele><time>2026-04-25T07:31:00.997Z</time></trkpt><trkpt lat="43.589717851890136" lon="10.969889694409101"><ele>52.0</ele><time>2026-04-25T07:31:01.997Z</time></trkpt><trkpt lat="43.58969283606128" lon="10.970146121535421"><ele>52.0</ele><time>2026-04-25T07:31:02.997Z</time></trkpt><trkpt lat="43.58966563728483" lon="10.970372494399047"><ele>52.0</ele><time>2026-04-25T07:31:03.997Z</time></trkpt><trkpt lat="43.58963615362522" lon="10.970587542408193"><ele>52.0</ele><time>2026-04-25T07:31:04.997Z</time></trkpt><trkpt lat="43.58960621195505" lon="10.970773664962337"><ele>52.0</ele><time>2026-04-25T07:31:05.997Z</time></trkpt><trkpt lat="43.58957092651791" lon="10.970922323865398"><ele>52.0</ele><time>2026-04-25T07:31:07Z</time></trkpt><trkpt lat="43.589530259476184" lon="10.971036693468879"><ele>52.0</ele><time>2026-04-25T07:31:08Z</time></trkpt><trkpt lat="43.58948714996359" lon="10.97112503946816"><ele>52.0</ele><time>2026-04-25T07:31:09Z</time></trkpt><trkpt lat="43.589437656829716" lon="10.971202227522255"><ele>52.166666666666664</ele><time>2026-04-25T07:31:10Z</time></trkpt><trkpt lat="43.58937116204469" lon="10.971272718703254"><ele>52.33333333333333</ele><time>2026-04-25T07:31:11Z</time></trkpt><trkpt lat="43.589313783788675" lon="10.971363120428174"><ele>52.5</ele><time>2026-04-25T07:31:12Z</time></trkpt><trkpt lat="43.5892739953456" lon="10.971476830587328"><ele>52.66666666666667</ele><time>2026-04-25T07:31:13Z</time></trkpt><trkpt lat="43.58925938733757" lon="10.971595142638803"><ele>52.833333333333336</ele><time>2026-04-25T07:31:14Z</time></trkpt><trkpt lat="43.58927216804806" lon="10.971708149911546"><ele>53.0</ele><time>2026-04-25T07:31:15Z</time></trkpt><trkpt lat="43.589308946981866" lon="10.971809533860688"><ele>52.8</ele><time>2026-04-25T07:31:16Z</time></trkpt><trkpt lat="43.58937046371027" lon="10.971892623024768"><ele>52.599999999999994</ele><time>2026-04-25T07:31:17Z</time></trkpt><trkpt lat="43.589459618174885" lon="10.97194512173387"><ele>52.400000000000006</ele><time>2026-04-25T07:31:18Z</time></trkpt><trkpt lat="43.58956384166438" lon="10.971963017772655"><ele>52.2</ele><time>2026-04-25T07:31:19Z</time></trkpt><trkpt lat="43.589680883716" lon="10.971946521576216"><ele>52.0</ele><time>2026-04-25T07:31:20Z</time></trkpt><trkpt lat="43.589814073017536" lon="10.971916009210078"><ele>52.0</ele><time>2026-04-25T07:31:21Z</time></trkpt><trkpt lat="43.58996665426435" lon="10.971916437918583"><ele>52.0</ele><time>2026-04-25T07:31:22Z</time></trkpt><trkpt lat="43.59012865904671" lon="10.971950778735435"><ele>52.0</ele><time>2026-04-25T07:31:23Z</time></trkpt><trkpt lat="43.59029426267773" lon="10.971998789709083"><ele>52.0</ele><time>2026-04-25T07:31:24Z</time></trkpt><trkpt lat="43.590452905236624" lon="10.972045341419081"><ele>52.0</ele><time>2026-04-25T07:31:25Z</time></trkpt><trkpt lat="43.59061777115579" lon="10.972090805689497"><ele>52.0</ele><time>2026-04-25T07:31:26Z</time></trkpt><trkpt lat="43.590786405500104" lon="10.972130646676673"><ele>52.0</ele><time>2026-04-25T07:31:27Z</time></trkpt><trkpt lat="43.590958138843355" lon="10.9721588291689"><ele>52.0</ele><time>2026-04-25T07:31:28Z</time></trkpt><trkpt lat="43.59113252292971" lon="10.972186684790433"><ele>52.0</ele><time>2026-04-25T07:31:29Z</time></trkpt><trkpt lat="43.591308385333264" lon="10.97221842932412"><ele>51.33333333333333</ele><time>2026-04-25T07:31:30Z</time></trkpt><trkpt lat="43.59148495804777" lon="10.972245764575115"><ele>50.66666666666667</ele><time>2026-04-25T07:31:31Z</time></trkpt><trkpt lat="43.59166362672753" lon="10.972267392137086"><ele>50.0</ele><time>2026-04-25T07:31:32Z</time></trkpt><trkpt lat="43.59183202804665" lon="10.972288504041659"><ele>50.0</ele><time>2026-04-25T07:31:33Z</time></trkpt><trkpt lat="43.59198629243706" lon="10.97230738731998"><ele>50.0</ele><time>2026-04-25T07:31:34Z</time></trkpt><trkpt lat="43.59212169840851" lon="10.97231612154137"><ele>50.0</ele><time>2026-04-25T07:31:35Z</time></trkpt><trkpt lat="43.59224279518729" lon="10.972325798052387"><ele>50.0</ele><time>2026-04-25T07:31:36Z</time></trkpt><trkpt lat="43.592349189371696" lon="10.972339980810698"><ele>50.16666666666667</ele><time>2026-04-25T07:31:36.999Z</time></trkpt><trkpt lat="43.592433722671856" lon="10.97235636105323"><ele>50.333333333333336</ele><time>2026-04-25T07:31:37.999Z</time></trkpt><trkpt lat="43.59251008793919" lon="10.972390435634095"><ele>50.5</ele><time>2026-04-25T07:31:38.999Z</time></trkpt><trkpt lat="43.592579818900745" lon="10.972453766689277"><ele>50.66666666666667</ele><time>2026-04-25T07:31:39.999Z</time></trkpt><trkpt lat="43.59263806291259" lon="10.972548648521075"><ele>50.833333333333336</ele><time>2026-04-25T07:31:40.999Z</time></trkpt><trkpt lat="43.59270096378236" lon="10.972627864857463"><ele>51.0</ele><time>2026-04-25T07:31:41.999Z</time></trkpt><trkpt lat="43.59267684707812" lon="10.972822708654226"><ele>51.0</ele><time>2026-04-25T07:31:42.999Z</time></trkpt><trkpt lat="43.59265768401178" lon="10.97298478109567"><ele>51.0</ele><time>2026-04-25T07:31:43.999Z</time></trkpt><trkpt lat="43.592622378284645" lon="10.973163358490922"><ele>51.0</ele><time>2026-04-25T07:31:44.999Z</time></trkpt><trkpt lat="43.592585227513176" lon="10.97336330319209"><ele>51.0</ele><time>2026-04-25T07:31:45.999Z</time></trkpt><trkpt lat="43.592550479858254" lon="10.973584247091788"><ele>51.0</ele><time>2026-04-25T07:31:46.999Z</time></trkpt><trkpt lat="43.592516251886146" lon="10.973805113853732"><ele>51.0</ele><time>2026-04-25T07:31:47.999Z</time></trkpt><trkpt lat="43.592485601189566" lon="10.974024328237874"><ele>51.0</ele><time>2026-04-25T07:31:48.999Z</time></trkpt><trkpt lat="43.59245328500383" lon="10.974261625954323"><ele>51.0</ele><time>2026-04-25T07:31:49.999Z</time></trkpt><trkpt lat="43.59241530032599" lon="10.974509809653924"><ele>51.0</ele><time>2026-04-25T07:31:50.999Z</time></trkpt><trkpt lat="43.59237110368448" lon="10.974762043845358"><ele>51.0</ele><time>2026-04-25T07:31:51.999Z</time></trkpt><trkpt lat="43.592328800199574" lon="10.97501032632342"><ele>51.0</ele><time>2026-04-25T07:31:52.999Z</time></trkpt><trkpt lat="43.59229856684473" lon="10.975263356457836"><ele>51.0</ele><time>2026-04-25T07:31:53.999Z</time></trkpt><trkpt lat="43.59229016975035" lon="10.97553415370661"><ele>51.0</ele><time>2026-04-25T07:31:54.999Z</time></trkpt><trkpt lat="43.592295590020534" lon="10.975811062452221"><ele>51.0</ele><time>2026-04-25T07:31:55.999Z</time></trkpt><trkpt lat="43.592321178456295" lon="10.976085346261597"><ele>51.0</ele><time>2026-04-25T07:31:56.999Z</time></trkpt><trkpt lat="43.59237007568581" lon="10.976353627807331"><ele>51.0</ele><time>2026-04-25T07:31:57.999Z</time></trkpt><trkpt lat="43.5924192526505" lon="10.976621962118225"><ele>51.0</ele><time>2026-04-25T07:31:58.999Z</time></trkpt><trkpt lat="43.59246448240806" lon="10.976890535158017"><ele>51.0</ele><time>2026-04-25T07:31:59.999Z</time></trkpt><trkpt lat="43.592508076518534" lon="10.977159587961758"><ele>51.0</ele><time>2026-04-25T07:32:00.999Z</time></trkpt><trkpt lat="43.592550182770864" lon="10.977432577696371"><ele>51.33333333333333</ele><time>2026-04-25T07:32:01.999Z</time></trkpt><trkpt lat="43.59259108168257" lon="10.977705856331127"><ele>51.666666666666664</ele><time>2026-04-25T07:32:02.999Z</time></trkpt><trkpt lat="43.59263823895925" lon="10.977977333739561"><ele>52.0</ele><time>2026-04-25T07:32:03.999Z</time></trkpt><trkpt lat="43.59268423546017" lon="10.978244363702117"><ele>52.0</ele><time>2026-04-25T07:32:04.999Z</time></trkpt><trkpt lat="43.59272475015601" lon="10.978511144007474"><ele>52.0</ele><time>2026-04-25T07:32:05.999Z</time></trkpt><trkpt lat="43.59276593322058" lon="10.978779705380843"><ele>52.0</ele><time>2026-04-25T07:32:06.999Z</time></trkpt><trkpt lat="43.592809819783774" lon="10.979044235015667"><ele>51.666666666666664</ele><time>2026-04-25T07:32:07.999Z</time></trkpt><trkpt lat="43.59285050350485" lon="10.979305605891847"><ele>51.33333333333333</ele><time>2026-04-25T07:32:08.999Z</time></trkpt><trkpt lat="43.59289172041828" lon="10.979561830140362"><ele>51.0</ele><time>2026-04-25T07:32:09.999Z</time></trkpt><trkpt lat="43.592934129545824" lon="10.97981013406989"><ele>51.0</ele><time>2026-04-25T07:32:10.999Z</time></trkpt><trkpt lat="43.59297438382742" lon="10.9800484161317"><ele>51.0</ele><time>2026-04-25T07:32:11.999Z</time></trkpt><trkpt lat="43.59301230278378" lon="10.980278565445516"><ele>51.0</ele><time>2026-04-25T07:32:12.999Z</time></trkpt><trkpt lat="43.593045735922665" lon="10.980488746350982"><ele>51.0</ele><time>2026-04-25T07:32:13.999Z</time></trkpt><trkpt lat="43.59307626307035" lon="10.980676856943557"><ele>51.0</ele><time>2026-04-25T07:32:14.999Z</time></trkpt><trkpt lat="43.59310367503696" lon="10.98085252743864"><ele>51.0</ele><time>2026-04-25T07:32:15.999Z</time></trkpt><trkpt lat="43.593120493193126" lon="10.981030914180245"><ele>51.0</ele><time>2026-04-25T07:32:16.999Z</time></trkpt><trkpt lat="43.59311266139711" lon="10.981223710074154"><ele>52.0</ele><time>2026-04-25T07:32:17.999Z</time></trkpt><trkpt lat="43.59307196866973" lon="10.9814174910594"><ele>53.0</ele><time>2026-04-25T07:32:18.999Z</time></trkpt><trkpt lat="43.59300718945277" lon="10.981609625695825"><ele>54.0</ele><time>2026-04-25T07:32:19.999Z</time></trkpt><trkpt lat="43.592921265265396" lon="10.981791540054916"><ele>53.75</ele><time>2026-04-25T07:32:20.999Z</time></trkpt><trkpt lat="43.59281315692937" lon="10.981950170651386"><ele>53.5</ele><time>2026-04-25T07:32:21.999Z</time></trkpt><trkpt lat="43.592704561508604" lon="10.982087806607593"><ele>53.25</ele><time>2026-04-25T07:32:22.998Z</time></trkpt><trkpt lat="43.59260587001984" lon="10.982223904767356"><ele>53.0</ele><time>2026-04-25T07:32:23.998Z</time></trkpt><trkpt lat="43.592519213143326" lon="10.982353653395457"><ele>53.0</ele><time>2026-04-25T07:32:24.998Z</time></trkpt><trkpt lat="43.59243822857255" lon="10.982474260032934"><ele>53.0</ele><time>2026-04-25T07:32:25.998Z</time></trkpt><trkpt lat="43.592359152949456" lon="10.982589615436314"><ele>53.0</ele><time>2026-04-25T07:32:26.998Z</time></trkpt><trkpt lat="43.59227349820349" lon="10.982713841800457"><ele>53.0</ele><time>2026-04-25T07:32:27.998Z</time></trkpt><trkpt lat="43.59221006397996" lon="10.982853181567439"><ele>53.0</ele><time>2026-04-25T07:32:28.998Z</time></trkpt><trkpt lat="43.5921795179587" lon="10.982999247939167"><ele>53.0</ele><time>2026-04-25T07:32:29.998Z</time></trkpt><trkpt lat="43.5921823908505" lon="10.983143175612677"><ele>53.0</ele><time>2026-04-25T07:32:30.998Z</time></trkpt><trkpt lat="43.59221658210508" lon="10.983286276472025"><ele>53.0</ele><time>2026-04-25T07:32:31.998Z</time></trkpt><trkpt lat="43.59225425629418" lon="10.983419907604246"><ele>53.0</ele><time>2026-04-25T07:32:32.998Z</time></trkpt><trkpt lat="43.59225900932359" lon="10.9835599901646"><ele>53.0</ele><time>2026-04-25T07:32:33.998Z</time></trkpt><trkpt lat="43.59221970229302" lon="10.983696946719755"><ele>53.0</ele><time>2026-04-25T07:32:34.998Z</time></trkpt><trkpt lat="43.592151587466695" lon="10.98383141136234"><ele>53.0</ele><time>2026-04-25T07:32:35.998Z</time></trkpt><trkpt lat="43.59206159681457" lon="10.983967701705096"><ele>53.0</ele><time>2026-04-25T07:32:36.998Z</time></trkpt><trkpt lat="43.59195966059054" lon="10.9841239190011"><ele>52.66666666666667</ele><time>2026-04-25T07:32:37.998Z</time></trkpt><trkpt lat="43.59185744761339" lon="10.984304432029452"><ele>52.33333333333333</ele><time>2026-04-25T07:32:38.998Z</time></trkpt><trkpt lat="43.59175140229271" lon="10.984491140320337"><ele>52.0</ele><time>2026-04-25T07:32:39.998Z</time></trkpt><trkpt lat="43.59164355769753" lon="10.98468005924618"><ele>52.0</ele><time>2026-04-25T07:32:40.998Z</time></trkpt><trkpt lat="43.59153946012071" lon="10.984869240681498"><ele>52.0</ele><time>2026-04-25T07:32:41.998Z</time></trkpt><trkpt lat="43.591434955879784" lon="10.98506247555357"><ele>52.0</ele><time>2026-04-25T07:32:42.998Z</time></trkpt><trkpt lat="43.59132777881318" lon="10.985257933709788"><ele>52.0</ele><time>2026-04-25T07:32:43.998Z</time></trkpt><trkpt lat="43.59121617978236" lon="10.985457557194728"><ele>52.0</ele><time>2026-04-25T07:32:44.998Z</time></trkpt><trkpt lat="43.591101468376074" lon="10.985661740582714"><ele>52.0</ele><time>2026-04-25T07:32:45.998Z</time></trkpt><trkpt lat="43.59098465458011" lon="10.9858676869402"><ele>51.666666666666664</ele><time>2026-04-25T07:32:46.998Z</time></trkpt><trkpt lat="43.59086512769475" lon="10.98607339651139"><ele>51.33333333333333</ele><time>2026-04-25T07:32:47.998Z</time></trkpt><trkpt lat="43.590751440090905" lon="10.98627421149565"><ele>51.0</ele><time>2026-04-25T07:32:48.998Z</time></trkpt><trkpt lat="43.5906409624646" lon="10.986474726978201"><ele>51.0</ele><time>2026-04-25T07:32:49.998Z</time></trkpt><trkpt lat="43.590527660229256" lon="10.986676156217243"><ele>51.0</ele><time>2026-04-25T07:32:50.998Z</time></trkpt><trkpt lat="43.59040775506591" lon="10.986879365472015"><ele>51.0</ele><time>2026-04-25T07:32:51.998Z</time></trkpt><trkpt lat="43.59028860656507" lon="10.987083909331014"><ele>52.0</ele><time>2026-04-25T07:32:52.998Z</time></trkpt><trkpt lat="43.590173637395786" lon="10.987287709827"><ele>53.0</ele><time>2026-04-25T07:32:53.998Z</time></trkpt><trkpt lat="43.590060304802435" lon="10.987487223213533"><ele>54.0</ele><time>2026-04-25T07:32:54.998Z</time></trkpt><trkpt lat="43.589950249380415" lon="10.987683989683498"><ele>54.0</ele><time>2026-04-25T07:32:55.998Z</time></trkpt><trkpt lat="43.58984478260467" lon="10.987874171412905"><ele>54.0</ele><time>2026-04-25T07:32:56.998Z</time></trkpt><trkpt lat="43.589741928073806" lon="10.98805849792391"><ele>54.0</ele><time>2026-04-25T07:32:57.998Z</time></trkpt><trkpt lat="43.58964079085721" lon="10.98823809870562"><ele>54.0</ele><time>2026-04-25T07:32:58.998Z</time></trkpt><trkpt lat="43.589541920777656" lon="10.988414945923994"><ele>54.0</ele><time>2026-04-25T07:32:59.998Z</time></trkpt><trkpt lat="43.589449738402884" lon="10.988576950059889"><ele>54.0</ele><time>2026-04-25T07:33:00.998Z</time></trkpt><trkpt lat="43.589366771180146" lon="10.988721124325147"><ele>54.0</ele><time>2026-04-25T07:33:01.998Z</time></trkpt><trkpt lat="43.58929251677944" lon="10.988854493446931"><ele>53.75</ele><time>2026-04-25T07:33:02.998Z</time></trkpt><trkpt lat="43.589219545998475" lon="10.988981899002082"><ele>53.5</ele><time>2026-04-25T07:33:03.998Z</time></trkpt><trkpt lat="43.58914336263238" lon="10.989118701270177"><ele>53.25</ele><time>2026-04-25T07:33:04.998Z</time></trkpt><trkpt lat="43.58906402174442" lon="10.98925994937989"><ele>53.0</ele><time>2026-04-25T07:33:05.998Z</time></trkpt><trkpt lat="43.588981137911844" lon="10.989406024176345"><ele>53.0</ele><time>2026-04-25T07:33:06.998Z</time></trkpt><trkpt lat="43.58889560442553" lon="10.989557248143123"><ele>53.0</ele><time>2026-04-25T07:33:07.998Z</time></trkpt><trkpt lat="43.58880963804725" lon="10.989711192560497"><ele>53.0</ele><time>2026-04-25T07:33:08.997Z</time></trkpt><trkpt lat="43.588720612636514" lon="10.989870755411594"><ele>53.0</ele><time>2026-04-25T07:33:09.997Z</time></trkpt><trkpt lat="43.58863031360931" lon="10.990033614687045"><ele>53.0</ele><time>2026-04-25T07:33:10.997Z</time></trkpt><trkpt lat="43.58853779100253" lon="10.990200586634803"><ele>53.0</ele><time>2026-04-25T07:33:11.997Z</time></trkpt><trkpt lat="43.58844294576281" lon="10.990372960457254"><ele>53.0</ele><time>2026-04-25T07:33:13Z</time></trkpt><trkpt lat="43.58834528342433" lon="10.990548358067626"><ele>53.0</ele><time>2026-04-25T07:33:14Z</time></trkpt><trkpt lat="43.58824450210854" lon="10.990728271618549"><ele>53.0</ele><time>2026-04-25T07:33:15Z</time></trkpt><trkpt lat="43.588142362593665" lon="10.990916342095097"><ele>53.0</ele><time>2026-04-25T07:33:16Z</time></trkpt><trkpt lat="43.588040472299035" lon="10.991108910961112"><ele>53.0</ele><time>2026-04-25T07:33:17Z</time></trkpt><trkpt lat="43.58793137644004" lon="10.991300785840162"><ele>53.0</ele><time>2026-04-25T07:33:18Z</time></trkpt><trkpt lat="43.58782190948404" lon="10.99149310210266"><ele>53.0</ele><time>2026-04-25T07:33:19Z</time></trkpt><trkpt lat="43.587715133625125" lon="10.991685485365892"><ele>54.0</ele><time>2026-04-25T07:33:20Z</time></trkpt><trkpt lat="43.58761023361964" lon="10.99187613716998"><ele>55.0</ele><time>2026-04-25T07:33:21Z</time></trkpt><trkpt lat="43.58750017723012" lon="10.992067720539742"><ele>56.0</ele><time>2026-04-25T07:33:22Z</time></trkpt><trkpt lat="43.587391691528175" lon="10.99225723146531"><ele>56.0</ele><time>2026-04-25T07:33:23Z</time></trkpt><trkpt lat="43.5872842257116" lon="10.992451586394134"><ele>56.0</ele><time>2026-04-25T07:33:24Z</time></trkpt><trkpt lat="43.58717547228311" lon="10.992643761033783"><ele>56.0</ele><time>2026-04-25T07:33:25Z</time></trkpt><trkpt lat="43.58706612456165" lon="10.992834521836771"><ele>55.333333333333336</ele><time>2026-04-25T07:33:26Z</time></trkpt><trkpt lat="43.58695745312041" lon="10.993027103564929"><ele>54.66666666666667</ele><time>2026-04-25T07:33:27Z</time></trkpt><trkpt lat="43.58684966500285" lon="10.993219904095861"><ele>54.0</ele><time>2026-04-25T07:33:28Z</time></trkpt><trkpt lat="43.586740919849305" lon="10.99341575232323"><ele>54.0</ele><time>2026-04-25T07:33:29Z</time></trkpt><trkpt lat="43.58663215188452" lon="10.993613084095573"><ele>54.0</ele><time>2026-04-25T07:33:30Z</time></trkpt><trkpt lat="43.586523632492316" lon="10.99381296534289"><ele>54.0</ele><time>2026-04-25T07:33:31Z</time></trkpt><trkpt lat="43.586410710882035" lon="10.994012934959892"><ele>54.33333333333333</ele><time>2026-04-25T07:33:32Z</time></trkpt><trkpt lat="43.58629517721397" lon="10.994211595533372"><ele>54.666666666666664</ele><time>2026-04-25T07:33:33Z</time></trkpt><trkpt lat="43.586182623173926" lon="10.994412773839024"><ele>55.0</ele><time>2026-04-25T07:33:34Z</time></trkpt><trkpt lat="43.586069295601405" lon="10.994616953942947"><ele>55.0</ele><time>2026-04-25T07:33:35Z</time></trkpt><trkpt lat="43.585951987208176" lon="10.994824545974854"><ele>55.0</ele><time>2026-04-25T07:33:36Z</time></trkpt><trkpt lat="43.585833601228174" lon="10.995033827180714"><ele>55.0</ele><time>2026-04-25T07:33:37Z</time></trkpt><trkpt lat="43.58571507486479" lon="10.995244054947113"><ele>55.0</ele><time>2026-04-25T07:33:38Z</time></trkpt><trkpt lat="43.585596870015806" lon="10.995454843014393"><ele>55.0</ele><time>2026-04-25T07:33:39Z</time></trkpt><trkpt lat="43.585477540337536" lon="10.995666361752802"><ele>55.0</ele><time>2026-04-25T07:33:40Z</time></trkpt><trkpt lat="43.58535814965744" lon="10.995873982086023"><ele>54.666666666666664</ele><time>2026-04-25T07:33:41Z</time></trkpt><trkpt lat="43.58524285261304" lon="10.996084453907114"><ele>54.33333333333333</ele><time>2026-04-25T07:33:42Z</time></trkpt><trkpt lat="43.58512429848732" lon="10.996294648796875"><ele>54.0</ele><time>2026-04-25T07:33:43Z</time></trkpt><trkpt lat="43.585006550940925" lon="10.99650063779243"><ele>53.33333333333333</ele><time>2026-04-25T07:33:44Z</time></trkpt><trkpt lat="43.5848911352676" lon="10.996711005647361"><ele>52.666666666666664</ele><time>2026-04-25T07:33:45Z</time></trkpt><trkpt lat="43.58478185155183" lon="10.996921157378162"><ele>52.0</ele><time>2026-04-25T07:33:46Z</time></trkpt><trkpt lat="43.584675471123326" lon="10.997125652817683"><ele>52.0</ele><time>2026-04-25T07:33:47Z</time></trkpt><trkpt lat="43.584565286661274" lon="10.997322661986086"><ele>52.0</ele><time>2026-04-25T07:33:48Z</time></trkpt><trkpt lat="43.584457910315216" lon="10.99751913989291"><ele>52.0</ele><time>2026-04-25T07:33:48.999Z</time></trkpt><trkpt lat="43.584352007463636" lon="10.997708505503573"><ele>53.33333333333333</ele><time>2026-04-25T07:33:49.999Z</time></trkpt><trkpt lat="43.584248502242495" lon="10.99789721215858"><ele>54.66666666666667</ele><time>2026-04-25T07:33:50.999Z</time></trkpt><trkpt lat="43.58414076862254" lon="10.998083493561055"><ele>56.0</ele><time>2026-04-25T07:33:51.999Z</time></trkpt><trkpt lat="43.5840307987072" lon="10.998271800656928"><ele>56.333333333333336</ele><time>2026-04-25T07:33:52.999Z</time></trkpt><trkpt lat="43.58392094452668" lon="10.998462560183352"><ele>56.66666666666667</ele><time>2026-04-25T07:33:53.999Z</time></trkpt><trkpt lat="43.58381057495446" lon="10.998653627652178"><ele>57.0</ele><time>2026-04-25T07:33:54.999Z</time></trkpt><trkpt lat="43.583702488613085" lon="10.998845880860515"><ele>57.0</ele><time>2026-04-25T07:33:55.999Z</time></trkpt><trkpt lat="43.5835971033526" lon="10.999038048048961"><ele>57.0</ele><time>2026-04-25T07:33:56.999Z</time></trkpt><trkpt lat="43.583490237623785" lon="10.99922972500919"><ele>57.0</ele><time>2026-04-25T07:33:57.999Z</time></trkpt><trkpt lat="43.58338368553285" lon="10.999421316689858"><ele>57.0</ele><time>2026-04-25T07:33:58.999Z</time></trkpt><trkpt lat="43.58327626491073" lon="10.999609527638874"><ele>57.0</ele><time>2026-04-25T07:33:59.999Z</time></trkpt><trkpt lat="43.58316789973618" lon="10.999804076050214"><ele>57.0</ele><time>2026-04-25T07:34:00.999Z</time></trkpt><trkpt lat="43.58306060116786" lon="10.999993469942739"><ele>57.0</ele><time>2026-04-25T07:34:01.999Z</time></trkpt><trkpt lat="43.582955528014075" lon="11.000181412809377"><ele>57.0</ele><time>2026-04-25T07:34:02.999Z</time></trkpt><trkpt lat="43.582852184131546" lon="11.000367934517193"><ele>57.0</ele><time>2026-04-25T07:34:03.999Z</time></trkpt><trkpt lat="43.58274552896356" lon="11.000551082538387"><ele>57.0</ele><time>2026-04-25T07:34:04.999Z</time></trkpt><trkpt lat="43.58264220189639" lon="11.000736763289567"><ele>57.0</ele><time>2026-04-25T07:34:05.999Z</time></trkpt><trkpt lat="43.58254081983432" lon="11.000920712668522"><ele>57.0</ele><time>2026-04-25T07:34:06.999Z</time></trkpt><trkpt lat="43.58243587046787" lon="11.0011023400986"><ele>57.0</ele><time>2026-04-25T07:34:07.999Z</time></trkpt><trkpt lat="43.582330173297215" lon="11.001280625796426"><ele>57.0</ele><time>2026-04-25T07:34:08.999Z</time></trkpt><trkpt lat="43.582228299442285" lon="11.001465056002925"><ele>57.0</ele><time>2026-04-25T07:34:09.999Z</time></trkpt><trkpt lat="43.58212670081753" lon="11.001644429698002"><ele>56.66666666666667</ele><time>2026-04-25T07:34:10.999Z</time></trkpt><trkpt lat="43.58202579325753" lon="11.001823933341758"><ele>56.333333333333336</ele><time>2026-04-25T07:34:11.999Z</time></trkpt><trkpt lat="43.58192732527947" lon="11.002001895596813"><ele>56.0</ele><time>2026-04-25T07:34:12.999Z</time></trkpt><trkpt lat="43.58182982376277" lon="11.002175087980829"><ele>56.0</ele><time>2026-04-25T07:34:13.999Z</time></trkpt><trkpt lat="43.581731150614615" lon="11.002343276914106"><ele>56.0</ele><time>2026-04-25T07:34:14.999Z</time></trkpt><trkpt lat="43.58163614082788" lon="11.002511010542007"><ele>56.0</ele><time>2026-04-25T07:34:15.999Z</time></trkpt><trkpt lat="43.58154340844549" lon="11.00267772714488"><ele>56.0</ele><time>2026-04-25T07:34:16.999Z</time></trkpt><trkpt lat="43.581452847278285" lon="11.002838345831819"><ele>56.0</ele><time>2026-04-25T07:34:17.999Z</time></trkpt><trkpt lat="43.5813678997332" lon="11.002991532258413"><ele>56.0</ele><time>2026-04-25T07:34:18.999Z</time></trkpt><trkpt lat="43.5812855394855" lon="11.003138439780423"><ele>56.0</ele><time>2026-04-25T07:34:19.999Z</time></trkpt><trkpt lat="43.58120161266697" lon="11.00328429899254"><ele>55.75</ele><time>2026-04-25T07:34:20.999Z</time></trkpt><trkpt lat="43.581119218071585" lon="11.003433817910492"><ele>55.5</ele><time>2026-04-25T07:34:21.999Z</time></trkpt><trkpt lat="43.58103703718053" lon="11.003589615428325"><ele>55.25</ele><time>2026-04-25T07:34:22.999Z</time></trkpt><trkpt lat="43.58095086665154" lon="11.003745847475928"><ele>55.0</ele><time>2026-04-25T07:34:23.999Z</time></trkpt><trkpt lat="43.58085981531072" lon="11.003905552526772"><ele>55.0</ele><time>2026-04-25T07:34:24.999Z</time></trkpt><trkpt lat="43.58076761358037" lon="11.004064306893698"><ele>55.0</ele><time>2026-04-25T07:34:25.999Z</time></trkpt><trkpt lat="43.580676228692546" lon="11.004231501873775"><ele>55.0</ele><time>2026-04-25T07:34:26.999Z</time></trkpt><trkpt lat="43.580580782876616" lon="11.004406140250738"><ele>55.0</ele><time>2026-04-25T07:34:27.999Z</time></trkpt><trkpt lat="43.58047940332916" lon="11.00458813339782"><ele>55.0</ele><time>2026-04-25T07:34:28.999Z</time></trkpt><trkpt lat="43.580371349889305" lon="11.004769641233919"><ele>55.0</ele><time>2026-04-25T07:34:29.999Z</time></trkpt><trkpt lat="43.58025597636977" lon="11.00494304054764"><ele>55.666666666666664</ele><time>2026-04-25T07:34:30.999Z</time></trkpt><trkpt lat="43.58012950192956" lon="11.0051033497911"><ele>56.33333333333333</ele><time>2026-04-25T07:34:31.999Z</time></trkpt><trkpt lat="43.5799969420664" lon="11.00524683259339"><ele>57.0</ele><time>2026-04-25T07:34:32.999Z</time></trkpt><trkpt lat="43.579865878502524" lon="11.005382272197208"><ele>57.0</ele><time>2026-04-25T07:34:33.999Z</time></trkpt><trkpt lat="43.57973352726678" lon="11.005513892664055"><ele>57.0</ele><time>2026-04-25T07:34:34.999Z</time></trkpt><trkpt lat="43.57960571883032" lon="11.005638647386425"><ele>57.0</ele><time>2026-04-25T07:34:35.998Z</time></trkpt><trkpt lat="43.57948434461241" lon="11.005755677938543"><ele>57.25</ele><time>2026-04-25T07:34:36.998Z</time></trkpt><trkpt lat="43.57937502128609" lon="11.005864136930935"><ele>57.5</ele><time>2026-04-25T07:34:37.998Z</time></trkpt><trkpt lat="43.57927085715256" lon="11.005964977237559"><ele>57.75</ele><time>2026-04-25T07:34:38.998Z</time></trkpt><trkpt lat="43.57916978084122" lon="11.006065436308589"><ele>58.0</ele><time>2026-04-25T07:34:39.998Z</time></trkpt><trkpt lat="43.57906238317275" lon="11.006168342372417"><ele>58.0</ele><time>2026-04-25T07:34:40.998Z</time></trkpt><trkpt lat="43.57895130830612" lon="11.006278292645112"><ele>58.0</ele><time>2026-04-25T07:34:41.998Z</time></trkpt><trkpt lat="43.57883454054034" lon="11.00639466067881"><ele>58.0</ele><time>2026-04-25T07:34:42.998Z</time></trkpt><trkpt lat="43.578712431937284" lon="11.006515883318807"><ele>58.0</ele><time>2026-04-25T07:34:43.998Z</time></trkpt><trkpt lat="43.57858573715635" lon="11.006636667882466"><ele>58.0</ele><time>2026-04-25T07:34:44.998Z</time></trkpt><trkpt lat="43.578455456544106" lon="11.006761028971006"><ele>58.0</ele><time>2026-04-25T07:34:45.998Z</time></trkpt><trkpt lat="43.578327104291574" lon="11.006889764004354"><ele>58.0</ele><time>2026-04-25T07:34:46.998Z</time></trkpt><trkpt lat="43.57819722432968" lon="11.007014929429927"><ele>58.0</ele><time>2026-04-25T07:34:47.998Z</time></trkpt><trkpt lat="43.57806245246874" lon="11.00714223429339"><ele>58.0</ele><time>2026-04-25T07:34:48.998Z</time></trkpt><trkpt lat="43.577936170466174" lon="11.007265228254584"><ele>58.0</ele><time>2026-04-25T07:34:49.998Z</time></trkpt><trkpt lat="43.57781929679801" lon="11.007382803409627"><ele>58.0</ele><time>2026-04-25T07:34:50.998Z</time></trkpt><trkpt lat="43.57769832502338" lon="11.007495906361456"><ele>58.0</ele><time>2026-04-25T07:34:51.998Z</time></trkpt><trkpt lat="43.57757613969709" lon="11.007615179872172"><ele>58.0</ele><time>2026-04-25T07:34:52.998Z</time></trkpt><trkpt lat="43.57745570026722" lon="11.00773608221238"><ele>58.0</ele><time>2026-04-25T07:34:53.998Z</time></trkpt><trkpt lat="43.577332635059385" lon="11.007855517053102"><ele>58.0</ele><time>2026-04-25T07:34:54.998Z</time></trkpt><trkpt lat="43.577207787595455" lon="11.007975883423633"><ele>58.0</ele><time>2026-04-25T07:34:55.998Z</time></trkpt><trkpt lat="43.577082768167244" lon="11.008097430103916"><ele>58.0</ele><time>2026-04-25T07:34:56.998Z</time></trkpt><trkpt lat="43.57695733449529" lon="11.008221486860762"><ele>57.666666666666664</ele><time>2026-04-25T07:34:57.998Z</time></trkpt><trkpt lat="43.57683229100634" lon="11.008345642407303"><ele>57.33333333333333</ele><time>2026-04-25T07:34:58.998Z</time></trkpt><trkpt lat="43.576706633663555" lon="11.008465234820592"><ele>57.0</ele><time>2026-04-25T07:34:59.998Z</time></trkpt><trkpt lat="43.57658358436114" lon="11.008579999818934"><ele>57.0</ele><time>2026-04-25T07:35:00.998Z</time></trkpt><trkpt lat="43.576466122641385" lon="11.008705683535247"><ele>57.0</ele><time>2026-04-25T07:35:01.998Z</time></trkpt><trkpt lat="43.57635611297424" lon="11.008844920635372"><ele>57.0</ele><time>2026-04-25T07:35:02.998Z</time></trkpt><trkpt lat="43.576245047525" lon="11.008988725575836"><ele>57.0</ele><time>2026-04-25T07:35:03.998Z</time></trkpt><trkpt lat="43.57614535863706" lon="11.009127623396799"><ele>57.0</ele><time>2026-04-25T07:35:04.998Z</time></trkpt><trkpt lat="43.57604386548188" lon="11.009265394122066"><ele>57.0</ele><time>2026-04-25T07:35:05.998Z</time></trkpt><trkpt lat="43.575942634896535" lon="11.009394425130596"><ele>57.0</ele><time>2026-04-25T07:35:06.998Z</time></trkpt><trkpt lat="43.57583582427312" lon="11.009514809951279"><ele>56.5</ele><time>2026-04-25T07:35:07.998Z</time></trkpt><trkpt lat="43.57571963361616" lon="11.009624055757435"><ele>56.0</ele><time>2026-04-25T07:35:08.998Z</time></trkpt><trkpt lat="43.57559735278927" lon="11.009727624149692"><ele>55.5</ele><time>2026-04-25T07:35:09.998Z</time></trkpt><trkpt lat="43.57547247841092" lon="11.009837471191865"><ele>55.0</ele><time>2026-04-25T07:35:10.998Z</time></trkpt><trkpt lat="43.575346089780496" lon="11.0099605845226"><ele>55.666666666666664</ele><time>2026-04-25T07:35:11.998Z</time></trkpt><trkpt lat="43.57521629758958" lon="11.010093650867042"><ele>56.33333333333333</ele><time>2026-04-25T07:35:12.998Z</time></trkpt><trkpt lat="43.575084670916596" lon="11.010231681083459"><ele>57.0</ele><time>2026-04-25T07:35:13.998Z</time></trkpt><trkpt lat="43.57495134569497" lon="11.010374074920305"><ele>57.0</ele><time>2026-04-25T07:35:14.998Z</time></trkpt><trkpt lat="43.574825220236065" lon="11.010525559105321"><ele>57.0</ele><time>2026-04-25T07:35:15.998Z</time></trkpt><trkpt lat="43.57468184103281" lon="11.010655779757176"><ele>57.0</ele><time>2026-04-25T07:35:16.998Z</time></trkpt><trkpt lat="43.574522175433955" lon="11.010814876048657"><ele>57.0</ele><time>2026-04-25T07:35:17.998Z</time></trkpt><trkpt lat="43.57434937287765" lon="11.010983338241184"><ele>57.0</ele><time>2026-04-25T07:35:19Z</time></trkpt><trkpt lat="43.57418255737978" lon="11.011153221777766"><ele>57.0</ele><time>2026-04-25T07:35:20Z</time></trkpt><trkpt lat="43.574024338220134" lon="11.011301535266083"><ele>57.0</ele><time>2026-04-25T07:35:21Z</time></trkpt><trkpt lat="43.573878411411506" lon="11.011446711698293"><ele>57.0</ele><time>2026-04-25T07:35:22Z</time></trkpt><trkpt lat="43.573736438273926" lon="11.011583828219841"><ele>57.0</ele><time>2026-04-25T07:35:23Z</time></trkpt><trkpt lat="43.573606298327505" lon="11.01172774794878"><ele>56.66666666666667</ele><time>2026-04-25T07:35:24Z</time></trkpt><trkpt lat="43.573493342194325" lon="11.011884129113788"><ele>56.333333333333336</ele><time>2026-04-25T07:35:25Z</time></trkpt><trkpt lat="43.57338893664127" lon="11.012049587609084"><ele>56.0</ele><time>2026-04-25T07:35:26Z</time></trkpt><trkpt lat="43.57329420353253" lon="11.012204022192432"><ele>56.0</ele><time>2026-04-25T07:35:27Z</time></trkpt><trkpt lat="43.5732061344093" lon="11.012356351800532"><ele>56.0</ele><time>2026-04-25T07:35:28Z</time></trkpt><trkpt lat="43.57311950166604" lon="11.012513442050121"><ele>56.0</ele><time>2026-04-25T07:35:29Z</time></trkpt><trkpt lat="43.57304297174678" lon="11.012670218206011"><ele>56.0</ele><time>2026-04-25T07:35:30Z</time></trkpt><trkpt lat="43.57297818768156" lon="11.012822577422213"><ele>56.5</ele><time>2026-04-25T07:35:31Z</time></trkpt><trkpt lat="43.57291944156501" lon="11.0129820520311"><ele>57.0</ele><time>2026-04-25T07:35:32Z</time></trkpt><trkpt lat="43.57286799327109" lon="11.013150806695679"><ele>57.5</ele><time>2026-04-25T07:35:33Z</time></trkpt><trkpt lat="43.57282764886643" lon="11.013321620122877"><ele>58.0</ele><time>2026-04-25T07:35:34Z</time></trkpt><trkpt lat="43.572795041634706" lon="11.013494645170042"><ele>58.0</ele><time>2026-04-25T07:35:35Z</time></trkpt><trkpt lat="43.572763641385514" lon="11.013669716605007"><ele>58.0</ele><time>2026-04-25T07:35:36Z</time></trkpt><trkpt lat="43.572732091041686" lon="11.013845974216386"><ele>58.0</ele><time>2026-04-25T07:35:37Z</time></trkpt><trkpt lat="43.5727025761427" lon="11.014014698801985"><ele>58.0</ele><time>2026-04-25T07:35:38Z</time></trkpt><trkpt lat="43.572669103331336" lon="11.01417920606783"><ele>58.25</ele><time>2026-04-25T07:35:39Z</time></trkpt><trkpt lat="43.572635697899194" lon="11.01434122000986"><ele>58.5</ele><time>2026-04-25T07:35:40Z</time></trkpt><trkpt lat="43.57260147742639" lon="11.014502162099436"><ele>58.75</ele><time>2026-04-25T07:35:41Z</time></trkpt><trkpt lat="43.5725636921875" lon="11.014653291051271"><ele>59.0</ele><time>2026-04-25T07:35:42Z</time></trkpt><trkpt lat="43.57252303405734" lon="11.014796933171054"><ele>59.0</ele><time>2026-04-25T07:35:43Z</time></trkpt><trkpt lat="43.572475636486494" lon="11.014928759658408"><ele>59.0</ele><time>2026-04-25T07:35:44Z</time></trkpt><trkpt lat="43.57240520790342" lon="11.015049553557109"><ele>59.0</ele><time>2026-04-25T07:35:45Z</time></trkpt><trkpt lat="43.57231029812766" lon="11.015149420827813"><ele>59.0</ele><time>2026-04-25T07:35:46Z</time></trkpt><trkpt lat="43.572204062127234" lon="11.01523076456572"><ele>58.75</ele><time>2026-04-25T07:35:47Z</time></trkpt><trkpt lat="43.57208690367602" lon="11.015292032439449"><ele>58.5</ele><time>2026-04-25T07:35:48Z</time></trkpt><trkpt lat="43.571958018824745" lon="11.015319949251248"><ele>58.25</ele><time>2026-04-25T07:35:49Z</time></trkpt><trkpt lat="43.57182488170238" lon="11.015303956767866"><ele>58.0</ele><time>2026-04-25T07:35:50Z</time></trkpt><trkpt lat="43.57169137895697" lon="11.015241147578463"><ele>58.0</ele><time>2026-04-25T07:35:51Z</time></trkpt><trkpt lat="43.57155843566146" lon="11.015144879178633"><ele>58.0</ele><time>2026-04-25T07:35:52Z</time></trkpt><trkpt lat="43.571430364922094" lon="11.015020414887676"><ele>58.0</ele><time>2026-04-25T07:35:53Z</time></trkpt><trkpt lat="43.571316117294685" lon="11.014874203739588"><ele>57.666666666666664</ele><time>2026-04-25T07:35:54Z</time></trkpt><trkpt lat="43.57120337121393" lon="11.01472501156469"><ele>57.33333333333333</ele><time>2026-04-25T07:35:55Z</time></trkpt><trkpt lat="43.571073638139545" lon="11.014591824084144"><ele>57.0</ele><time>2026-04-25T07:35:56Z</time></trkpt><trkpt lat="43.570931822042894" lon="11.014473923773041"><ele>57.0</ele><time>2026-04-25T07:35:57Z</time></trkpt><trkpt lat="43.570788390735935" lon="11.014362396107929"><ele>57.0</ele><time>2026-04-25T07:35:58Z</time></trkpt><trkpt lat="43.57064391258159" lon="11.014251288885346"><ele>57.0</ele><time>2026-04-25T07:35:59Z</time></trkpt><trkpt lat="43.57050780146782" lon="11.01412161302848"><ele>56.66666666666667</ele><time>2026-04-25T07:36:00Z</time></trkpt><trkpt lat="43.57038450722478" lon="11.013972198751711"><ele>56.333333333333336</ele><time>2026-04-25T07:36:01Z</time></trkpt><trkpt lat="43.57027460375474" lon="11.013802163999653"><ele>56.0</ele><time>2026-04-25T07:36:02Z</time></trkpt><trkpt lat="43.57017140760389" lon="11.013614509183283"><ele>56.66666666666667</ele><time>2026-04-25T07:36:03Z</time></trkpt><trkpt lat="43.57006366965008" lon="11.013426552728998"><ele>57.33333333333333</ele><time>2026-04-25T07:36:04Z</time></trkpt><trkpt lat="43.569958443965454" lon="11.013249177350927"><ele>58.0</ele><time>2026-04-25T07:36:04.999Z</time></trkpt><trkpt lat="43.56985748239152" lon="11.013072865465155"><ele>58.0</ele><time>2026-04-25T07:36:05.999Z</time></trkpt><trkpt lat="43.56975884221706" lon="11.01289830568532"><ele>58.0</ele><time>2026-04-25T07:36:06.999Z</time></trkpt><trkpt lat="43.56966011907686" lon="11.012727772078142"><ele>58.0</ele><time>2026-04-25T07:36:07.999Z</time></trkpt><trkpt lat="43.56955997919852" lon="11.012558892882536"><ele>57.666666666666664</ele><time>2026-04-25T07:36:08.999Z</time></trkpt><trkpt lat="43.56945993403191" lon="11.012392852215083"><ele>57.33333333333333</ele><time>2026-04-25T07:36:09.999Z</time></trkpt><trkpt lat="43.56936103541836" lon="11.01222494588566"><ele>57.0</ele><time>2026-04-25T07:36:10.999Z</time></trkpt><trkpt lat="43.56926446635846" lon="11.012053361303229"><ele>57.0</ele><time>2026-04-25T07:36:11.999Z</time></trkpt><trkpt lat="43.569168841420115" lon="11.011890672095154"><ele>57.0</ele><time>2026-04-25T07:36:12.999Z</time></trkpt><trkpt lat="43.569071154705306" lon="11.011732434462797"><ele>57.0</ele><time>2026-04-25T07:36:13.999Z</time></trkpt><trkpt lat="43.56897609810284" lon="11.011580332441929"><ele>57.0</ele><time>2026-04-25T07:36:14.999Z</time></trkpt><trkpt lat="43.56888488375659" lon="11.011426850317815"><ele>57.0</ele><time>2026-04-25T07:36:15.999Z</time></trkpt><trkpt lat="43.568797008262635" lon="11.011275533371624"><ele>57.0</ele><time>2026-04-25T07:36:16.999Z</time></trkpt><trkpt lat="43.56871084451637" lon="11.011121935927829"><ele>57.0</ele><time>2026-04-25T07:36:17.999Z</time></trkpt><trkpt lat="43.56862780037249" lon="11.010974429412634"><ele>57.0</ele><time>2026-04-25T07:36:18.999Z</time></trkpt><trkpt lat="43.568550410599926" lon="11.010827224546121"><ele>56.75</ele><time>2026-04-25T07:36:19.999Z</time></trkpt><trkpt lat="43.56848765433553" lon="11.010669430662924"><ele>56.5</ele><time>2026-04-25T07:36:20.999Z</time></trkpt><trkpt lat="43.568442356792424" lon="11.010505343324946"><ele>56.25</ele><time>2026-04-25T07:36:21.999Z</time></trkpt><trkpt lat="43.56840669223756" lon="11.010322874012783"><ele>56.0</ele><time>2026-04-25T07:36:22.999Z</time></trkpt><trkpt lat="43.56838364888025" lon="11.010130624087772"><ele>56.66666666666667</ele><time>2026-04-25T07:36:23.999Z</time></trkpt><trkpt lat="43.56837140604641" lon="11.009928841829817"><ele>57.33333333333333</ele><time>2026-04-25T07:36:24.999Z</time></trkpt><trkpt lat="43.568372050221484" lon="11.009720524039723"><ele>58.0</ele><time>2026-04-25T07:36:25.999Z</time></trkpt><trkpt lat="43.56838143212443" lon="11.009505461421597"><ele>58.0</ele><time>2026-04-25T07:36:26.999Z</time></trkpt><trkpt lat="43.56839248814422" lon="11.009285949489593"><ele>58.0</ele><time>2026-04-25T07:36:27.999Z</time></trkpt><trkpt lat="43.56841062882163" lon="11.009066823720332"><ele>58.0</ele><time>2026-04-25T07:36:28.999Z</time></trkpt><trkpt lat="43.568431297661085" lon="11.008849441455492"><ele>57.666666666666664</ele><time>2026-04-25T07:36:29.999Z</time></trkpt><trkpt lat="43.56844796113414" lon="11.008634409583983"><ele>57.33333333333333</ele><time>2026-04-25T07:36:30.999Z</time></trkpt><trkpt lat="43.56846266551" lon="11.008416786562108"><ele>57.0</ele><time>2026-04-25T07:36:31.999Z</time></trkpt><trkpt lat="43.56847860818942" lon="11.008201885525478"><ele>57.0</ele><time>2026-04-25T07:36:32.999Z</time></trkpt><trkpt lat="43.56849755452337" lon="11.007991015713952"><ele>57.0</ele><time>2026-04-25T07:36:33.999Z</time></trkpt><trkpt lat="43.568512228511125" lon="11.007787333068432"><ele>57.0</ele><time>2026-04-25T07:36:34.999Z</time></trkpt><trkpt lat="43.56851423623951" lon="11.007584352942896"><ele>57.0</ele><time>2026-04-25T07:36:35.999Z</time></trkpt><trkpt lat="43.56850455377959" lon="11.00738228247248"><ele>57.0</ele><time>2026-04-25T07:36:36.999Z</time></trkpt><trkpt lat="43.5684831959667" lon="11.007187908312764"><ele>57.0</ele><time>2026-04-25T07:36:37.999Z</time></trkpt><trkpt lat="43.56844431993882" lon="11.00700535549132"><ele>57.0</ele><time>2026-04-25T07:36:38.999Z</time></trkpt><trkpt lat="43.56838028098219" lon="11.006841236668041"><ele>57.0</ele><time>2026-04-25T07:36:39.999Z</time></trkpt><trkpt lat="43.56829617369174" lon="11.006705125262064"><ele>57.0</ele><time>2026-04-25T07:36:40.999Z</time></trkpt><trkpt lat="43.56819352778537" lon="11.006588904712645"><ele>57.0</ele><time>2026-04-25T07:36:41.999Z</time></trkpt><trkpt lat="43.56807547032" lon="11.006494455997824"><ele>57.0</ele><time>2026-04-25T07:36:42.999Z</time></trkpt><trkpt lat="43.567952455792074" lon="11.006422309032384"><ele>57.0</ele><time>2026-04-25T07:36:43.999Z</time></trkpt><trkpt lat="43.5678280950221" lon="11.006385140180287"><ele>57.0</ele><time>2026-04-25T07:36:44.999Z</time></trkpt><trkpt lat="43.56769607068418" lon="11.0063836283781"><ele>57.0</ele><time>2026-04-25T07:36:45.999Z</time></trkpt><trkpt lat="43.56756129178827" lon="11.00639925975582"><ele>57.0</ele><time>2026-04-25T07:36:46.999Z</time></trkpt><trkpt lat="43.56742423439431" lon="11.006428045146476"><ele>57.0</ele><time>2026-04-25T07:36:47.999Z</time></trkpt><trkpt lat="43.56728627489669" lon="11.006483078882496"><ele>57.0</ele><time>2026-04-25T07:36:48.999Z</time></trkpt><trkpt lat="43.56715058298529" lon="11.006569253978093"><ele>57.0</ele><time>2026-04-25T07:36:49.999Z</time></trkpt><trkpt lat="43.56701801909897" lon="11.00667626955146"><ele>57.0</ele><time>2026-04-25T07:36:50.999Z</time></trkpt><trkpt lat="43.56687539717756" lon="11.006797937386905"><ele>56.66666666666667</ele><time>2026-04-25T07:36:51.998Z</time></trkpt><trkpt lat="43.56672225172002" lon="11.006931841622784"><ele>56.333333333333336</ele><time>2026-04-25T07:36:52.998Z</time></trkpt><trkpt lat="43.566557016791734" lon="11.007087038884794"><ele>56.0</ele><time>2026-04-25T07:36:53.998Z</time></trkpt><trkpt lat="43.56636844698728" lon="11.007229910035196"><ele>55.66666666666667</ele><time>2026-04-25T07:36:54.998Z</time></trkpt><trkpt lat="43.5661819717499" lon="11.007385199023933"><ele>55.33333333333333</ele><time>2026-04-25T07:36:55.998Z</time></trkpt><trkpt lat="43.566000083765196" lon="11.007553372918984"><ele>55.0</ele><time>2026-04-25T07:36:56.998Z</time></trkpt><trkpt lat="43.56580827723491" lon="11.007713426578093"><ele>55.0</ele><time>2026-04-25T07:36:57.998Z</time></trkpt><trkpt lat="43.565599391991796" lon="11.007874184077911"><ele>55.0</ele><time>2026-04-25T07:36:58.998Z</time></trkpt><trkpt lat="43.565379454995266" lon="11.008060135932745"><ele>55.0</ele><time>2026-04-25T07:36:59.998Z</time></trkpt><trkpt lat="43.56515166401351" lon="11.008252728372927"><ele>55.0</ele><time>2026-04-25T07:37:00.998Z</time></trkpt><trkpt lat="43.56493522517995" lon="11.008446400225115"><ele>55.0</ele><time>2026-04-25T07:37:01.998Z</time></trkpt><trkpt lat="43.56471484972935" lon="11.008615900769362"><ele>55.0</ele><time>2026-04-25T07:37:02.998Z</time></trkpt><trkpt lat="43.56450253072406" lon="11.00880015554305"><ele>55.5</ele><time>2026-04-25T07:37:03.998Z</time></trkpt><trkpt lat="43.56429457070731" lon="11.00898430660006"><ele>56.0</ele><time>2026-04-25T07:37:04.998Z</time></trkpt><trkpt lat="43.56408818373828" lon="11.009170798959032"><ele>56.0</ele><time>2026-04-25T07:37:05.998Z</time></trkpt><trkpt lat="43.56388501744401" lon="11.009363528463512"><ele>56.0</ele><time>2026-04-25T07:37:06.998Z</time></trkpt><trkpt lat="43.56368362803657" lon="11.009566250545545"><ele>56.0</ele><time>2026-04-25T07:37:07.998Z</time></trkpt><trkpt lat="43.563478133772854" lon="11.009784011336349"><ele>56.0</ele><time>2026-04-25T07:37:08.998Z</time></trkpt><trkpt lat="43.56327008985162" lon="11.010023747697169"><ele>56.5</ele><time>2026-04-25T07:37:09.998Z</time></trkpt><trkpt lat="43.5630612146159" lon="11.010287057800353"><ele>57.0</ele><time>2026-04-25T07:37:10.998Z</time></trkpt><trkpt lat="43.562852029450035" lon="11.010568881606776"><ele>57.0</ele><time>2026-04-25T07:37:11.998Z</time></trkpt><trkpt lat="43.562647771394246" lon="11.010868555999494"><ele>57.0</ele><time>2026-04-25T07:37:12.998Z</time></trkpt><trkpt lat="43.562452948043585" lon="11.011181220157564"><ele>57.0</ele><time>2026-04-25T07:37:13.998Z</time></trkpt><trkpt lat="43.56226942085072" lon="11.011497816636917"><ele>57.0</ele><time>2026-04-25T07:37:14.998Z</time></trkpt><trkpt lat="43.56209206428446" lon="11.011825714595588"><ele>56.5</ele><time>2026-04-25T07:37:15.998Z</time></trkpt><trkpt lat="43.56191964465819" lon="11.01215519343261"><ele>56.0</ele><time>2026-04-25T07:37:16.998Z</time></trkpt><trkpt lat="43.56175237804878" lon="11.012482561372465"><ele>56.5</ele><time>2026-04-25T07:37:17.998Z</time></trkpt><trkpt lat="43.56159440734063" lon="11.012815237593617"><ele>57.0</ele><time>2026-04-25T07:37:18.998Z</time></trkpt><trkpt lat="43.561440943587904" lon="11.013146083728286"><ele>58.0</ele><time>2026-04-25T07:37:19.998Z</time></trkpt><trkpt lat="43.56128789160746" lon="11.01346964635575"><ele>59.0</ele><time>2026-04-25T07:37:20.998Z</time></trkpt><trkpt lat="43.561138815960206" lon="11.013791948158184"><ele>59.0</ele><time>2026-04-25T07:37:21.998Z</time></trkpt><trkpt lat="43.560988918692615" lon="11.014110543413356"><ele>59.0</ele><time>2026-04-25T07:37:22.998Z</time></trkpt><trkpt lat="43.5608413974704" lon="11.014425776629938"><ele>59.0</ele><time>2026-04-25T07:37:23.998Z</time></trkpt><trkpt lat="43.56069667083424" lon="11.014741636329621"><ele>59.0</ele><time>2026-04-25T07:37:25Z</time></trkpt><trkpt lat="43.560551582335535" lon="11.015052882600303"><ele>59.0</ele><time>2026-04-25T07:37:26Z</time></trkpt><trkpt lat="43.560405306732676" lon="11.015358605492692"><ele>59.0</ele><time>2026-04-25T07:37:27Z</time></trkpt><trkpt lat="43.56026110144694" lon="11.015661635466731"><ele>58.5</ele><time>2026-04-25T07:37:28Z</time></trkpt><trkpt lat="43.56012009938887" lon="11.015967684929656"><ele>58.0</ele><time>2026-04-25T07:37:29Z</time></trkpt><trkpt lat="43.55997942793288" lon="11.016273571011144"><ele>58.0</ele><time>2026-04-25T07:37:30Z</time></trkpt><trkpt lat="43.55983981040595" lon="11.01657543035802"><ele>58.0</ele><time>2026-04-25T07:37:31Z</time></trkpt><trkpt lat="43.55969974448467" lon="11.016872397836615"><ele>58.5</ele><time>2026-04-25T07:37:32Z</time></trkpt><trkpt lat="43.55955905078278" lon="11.017165952743419"><ele>59.0</ele><time>2026-04-25T07:37:33Z</time></trkpt><trkpt lat="43.55942107817028" lon="11.017455960920941"><ele>59.5</ele><time>2026-04-25T07:37:34Z</time></trkpt><trkpt lat="43.55928412057701" lon="11.017747882853811"><ele>60.0</ele><time>2026-04-25T07:37:35Z</time></trkpt><trkpt lat="43.55914640157969" lon="11.018038633364672"><ele>59.5</ele><time>2026-04-25T07:37:36Z</time></trkpt><trkpt lat="43.559007890536456" lon="11.018325718817811"><ele>59.0</ele><time>2026-04-25T07:37:37Z</time></trkpt><trkpt lat="43.55886684818456" lon="11.018611611366623"><ele>59.0</ele><time>2026-04-25T07:37:38Z</time></trkpt><trkpt lat="43.55872209519661" lon="11.018893689172526"><ele>59.0</ele><time>2026-04-25T07:37:39Z</time></trkpt><trkpt lat="43.55857061074993" lon="11.019168888974031"><ele>59.0</ele><time>2026-04-25T07:37:40Z</time></trkpt><trkpt lat="43.55840932986947" lon="11.019435573064467"><ele>59.0</ele><time>2026-04-25T07:37:41Z</time></trkpt><trkpt lat="43.55823939603368" lon="11.019690823985059"><ele>59.0</ele><time>2026-04-25T07:37:42Z</time></trkpt><trkpt lat="43.55806238304782" lon="11.019940818462207"><ele>59.0</ele><time>2026-04-25T07:37:43Z</time></trkpt><trkpt lat="43.557872964689714" lon="11.02017469104846"><ele>59.0</ele><time>2026-04-25T07:37:44Z</time></trkpt><trkpt lat="43.55767390549408" lon="11.02039417943762"><ele>59.0</ele><time>2026-04-25T07:37:45Z</time></trkpt><trkpt lat="43.55746712538232" lon="11.020600103381781"><ele>59.0</ele><time>2026-04-25T07:37:46Z</time></trkpt><trkpt lat="43.55725557253173" lon="11.020793392097826"><ele>59.0</ele><time>2026-04-25T07:37:47Z</time></trkpt><trkpt lat="43.55703722970234" lon="11.020974745500986"><ele>59.0</ele><time>2026-04-25T07:37:48Z</time></trkpt><trkpt lat="43.55681435718983" lon="11.021144828820026"><ele>59.0</ele><time>2026-04-25T07:37:49Z</time></trkpt><trkpt lat="43.556586678011534" lon="11.021302341927326"><ele>59.0</ele><time>2026-04-25T07:37:50Z</time></trkpt><trkpt lat="43.55635231407535" lon="11.02144160694207"><ele>59.0</ele><time>2026-04-25T07:37:51Z</time></trkpt><trkpt lat="43.55611269766996" lon="11.021563084483489"><ele>59.5</ele><time>2026-04-25T07:37:52Z</time></trkpt><trkpt lat="43.55587017480968" lon="11.021673252376901"><ele>60.0</ele><time>2026-04-25T07:37:53Z</time></trkpt><trkpt lat="43.555623746782146" lon="11.021768432652387"><ele>60.0</ele><time>2026-04-25T07:37:54Z</time></trkpt><trkpt lat="43.555376018179444" lon="11.021842656601843"><ele>60.0</ele><time>2026-04-25T07:37:55Z</time></trkpt><trkpt lat="43.55512442564075" lon="11.021903588390405"><ele>60.5</ele><time>2026-04-25T07:37:56Z</time></trkpt><trkpt lat="43.55487204015221" lon="11.021949055188493"><ele>61.0</ele><time>2026-04-25T07:37:57Z</time></trkpt><trkpt lat="43.554618861374436" lon="11.021970169900301"><ele>61.0</ele><time>2026-04-25T07:37:58Z</time></trkpt><trkpt lat="43.554367163151625" lon="11.021976735939292"><ele>61.0</ele><time>2026-04-25T07:37:59Z</time></trkpt><trkpt lat="43.554115138850435" lon="11.021967718999052"><ele>61.0</ele><time>2026-04-25T07:38:00Z</time></trkpt><trkpt lat="43.553862940994854" lon="11.021950352841815"><ele>61.0</ele><time>2026-04-25T07:38:01Z</time></trkpt><trkpt lat="43.55361099515594" lon="11.021935659773423"><ele>60.5</ele><time>2026-04-25T07:38:02Z</time></trkpt><trkpt lat="43.553360435380746" lon="11.021918116913305"><ele>60.0</ele><time>2026-04-25T07:38:03Z</time></trkpt><trkpt lat="43.55311141034566" lon="11.02189651008212"><ele>66.0</ele><time>2026-04-25T07:38:04Z</time></trkpt><trkpt lat="43.55286226010157" lon="11.02187589902073"><ele>72.0</ele><time>2026-04-25T07:38:05Z</time></trkpt><trkpt lat="43.55261414067776" lon="11.021855856823684"><ele>72.0</ele><time>2026-04-25T07:38:06Z</time></trkpt><trkpt lat="43.552369328003905" lon="11.021835719434877"><ele>72.0</ele><time>2026-04-25T07:38:07Z</time></trkpt><trkpt lat="43.55212939776502" lon="11.021817549075239"><ele>81.5</ele><time>2026-04-25T07:38:08Z</time></trkpt><trkpt lat="43.551890158090586" lon="11.021801635762467"><ele>91.0</ele><time>2026-04-25T07:38:09Z</time></trkpt><trkpt lat="43.55165707257084" lon="11.021783920624195"><ele>91.0</ele><time>2026-04-25T07:38:10Z</time></trkpt><trkpt lat="43.55142778780845" lon="11.02176366258321"><ele>91.0</ele><time>2026-04-25T07:38:11Z</time></trkpt><trkpt lat="43.55120277026908" lon="11.021744259456339"><ele>92.0</ele><time>2026-04-25T07:38:12Z</time></trkpt><trkpt lat="43.55098253811722" lon="11.02172096543503"><ele>93.0</ele><time>2026-04-25T07:38:13Z</time></trkpt><trkpt lat="43.550766274219214" lon="11.021694334499617"><ele>94.0</ele><time>2026-04-25T07:38:14Z</time></trkpt><trkpt lat="43.55055167708326" lon="11.021671337211227"><ele>98.33333333333333</ele><time>2026-04-25T07:38:15Z</time></trkpt><trkpt lat="43.5503383994943" lon="11.021650760677705"><ele>102.66666666666666</ele><time>2026-04-25T07:38:16Z</time></trkpt><trkpt lat="43.550128713093166" lon="11.021625613447341"><ele>107.0</ele><time>2026-04-25T07:38:17Z</time></trkpt><trkpt lat="43.54992255750461" lon="11.021601304315938"><ele>109.5</ele><time>2026-04-25T07:38:18Z</time></trkpt><trkpt lat="43.549717624782" lon="11.021578101765606"><ele>112.0</ele><time>2026-04-25T07:38:19Z</time></trkpt><trkpt lat="43.54935477284127" lon="11.021543299202865"><ele>116.0</ele><time>2026-04-25T07:38:19.999Z</time></trkpt><trkpt lat="43.54912553325343" lon="11.021522769671513"><ele>120.0</ele><time>2026-04-25T07:38:20.999Z</time></trkpt><trkpt lat="43.54889651721997" lon="11.021500092775105"><ele>114.5</ele><time>2026-04-25T07:38:21.999Z</time></trkpt><trkpt lat="43.54866765209488" lon="11.021483001532097"><ele>109.0</ele><time>2026-04-25T07:38:22.999Z</time></trkpt><trkpt lat="43.54843852764933" lon="11.021465831583045"><ele>109.0</ele><time>2026-04-25T07:38:23.999Z</time></trkpt><trkpt lat="43.54820980005176" lon="11.021442377363307"><ele>109.0</ele><time>2026-04-25T07:38:24.999Z</time></trkpt><trkpt lat="43.54798130711777" lon="11.021421200580777"><ele>99.5</ele><time>2026-04-25T07:38:25.999Z</time></trkpt><trkpt lat="43.547752697154074" lon="11.021402441826195"><ele>90.0</ele><time>2026-04-25T07:38:26.999Z</time></trkpt><trkpt lat="43.547526596026124" lon="11.021376450008896"><ele>90.0</ele><time>2026-04-25T07:38:27.999Z</time></trkpt><trkpt lat="43.547498321251105" lon="11.021256360941718"><ele>90.0</ele><time>2026-04-25T07:38:28.999Z</time></trkpt><trkpt lat="43.547088516574924" lon="11.021395222833519"><ele>93.66666666666666</ele><time>2026-04-25T07:38:29.999Z</time></trkpt><trkpt lat="43.546876026440486" lon="11.021378828498786"><ele>97.33333333333333</ele><time>2026-04-25T07:38:30.999Z</time></trkpt><trkpt lat="43.54664877652238" lon="11.021356534224324"><ele>101.0</ele><time>2026-04-25T07:38:31.999Z</time></trkpt><trkpt lat="43.546423659546065" lon="11.021335756154139"><ele>109.5</ele><time>2026-04-25T07:38:32.999Z</time></trkpt><trkpt lat="43.546195478294834" lon="11.021318495714347"><ele>118.0</ele><time>2026-04-25T07:38:33.999Z</time></trkpt><trkpt lat="43.54596542816139" lon="11.021301575604786"><ele>118.0</ele><time>2026-04-25T07:38:34.999Z</time></trkpt><trkpt lat="43.54573455417979" lon="11.021285831207328"><ele>118.0</ele><time>2026-04-25T07:38:35.999Z</time></trkpt><trkpt lat="43.54550274490307" lon="11.021273479536616"><ele>118.5</ele><time>2026-04-25T07:38:36.999Z</time></trkpt><trkpt lat="43.54527010830223" lon="11.02126964614714"><ele>119.0</ele><time>2026-04-25T07:38:37.999Z</time></trkpt><trkpt lat="43.54503708167476" lon="11.021272733225912"><ele>119.0</ele><time>2026-04-25T07:38:38.999Z</time></trkpt><trkpt lat="43.54485733330384" lon="11.021279564057465"><ele>119.0</ele><time>2026-04-25T07:38:39.999Z</time></trkpt><trkpt lat="43.54462855753395" lon="11.021324657375976"><ele>119.0</ele><time>2026-04-25T07:38:40.999Z</time></trkpt><trkpt lat="43.54439965674858" lon="11.02138882135107"><ele>113.5</ele><time>2026-04-25T07:38:41.999Z</time></trkpt><trkpt lat="43.54416908063365" lon="11.021469565368559"><ele>108.0</ele><time>2026-04-25T07:38:42.999Z</time></trkpt><trkpt lat="43.54394425349661" lon="11.02156100031526"><ele>105.0</ele><time>2026-04-25T07:38:43.999Z</time></trkpt><trkpt lat="43.54372113110769" lon="11.021663925852112"><ele>102.0</ele><time>2026-04-25T07:38:44.999Z</time></trkpt><trkpt lat="43.54350505558334" lon="11.021788399106036"><ele>96.5</ele><time>2026-04-25T07:38:45.999Z</time></trkpt><trkpt lat="43.54329364195068" lon="11.021925527725719"><ele>91.0</ele><time>2026-04-25T07:38:46.999Z</time></trkpt><trkpt lat="43.54307839251769" lon="11.022056361762234"><ele>91.0</ele><time>2026-04-25T07:38:47.999Z</time></trkpt><trkpt lat="43.54289266551002" lon="11.02221094928518"><ele>91.0</ele><time>2026-04-25T07:38:48.999Z</time></trkpt><trkpt lat="43.54266016526823" lon="11.022436987370234"><ele>83.5</ele><time>2026-04-25T07:38:49.999Z</time></trkpt><trkpt lat="43.542446939544945" lon="11.022661748984376"><ele>76.0</ele><time>2026-04-25T07:38:50.999Z</time></trkpt><trkpt lat="43.542240791450446" lon="11.022882252758418"><ele>76.0</ele><time>2026-04-25T07:38:51.999Z</time></trkpt><trkpt lat="43.54205599568245" lon="11.023101600488408"><ele>76.0</ele><time>2026-04-25T07:38:52.999Z</time></trkpt><trkpt lat="43.54187462313503" lon="11.023335414366336"><ele>72.5</ele><time>2026-04-25T07:38:53.999Z</time></trkpt><trkpt lat="43.54169532575653" lon="11.023568066148911"><ele>69.0</ele><time>2026-04-25T07:38:54.999Z</time></trkpt><trkpt lat="43.541511395509474" lon="11.023797982585052"><ele>69.0</ele><time>2026-04-25T07:38:55.999Z</time></trkpt><trkpt lat="43.54132618340667" lon="11.024025094949494"><ele>69.0</ele><time>2026-04-25T07:38:56.999Z</time></trkpt><trkpt lat="43.5411441986443" lon="11.024258608895071"><ele>69.0</ele><time>2026-04-25T07:38:57.999Z</time></trkpt><trkpt lat="43.54096426808448" lon="11.024496966025097"><ele>69.0</ele><time>2026-04-25T07:38:58.999Z</time></trkpt><trkpt lat="43.54078229662531" lon="11.024729899224305"><ele>69.0</ele><time>2026-04-25T07:38:59.999Z</time></trkpt><trkpt lat="43.54060263823855" lon="11.024965868834116"><ele>69.0</ele><time>2026-04-25T07:39:00.999Z</time></trkpt><trkpt lat="43.540421201950856" lon="11.0251997046668"><ele>70.5</ele><time>2026-04-25T07:39:01.999Z</time></trkpt><trkpt lat="43.540236665565025" lon="11.02543096356347"><ele>72.0</ele><time>2026-04-25T07:39:02.999Z</time></trkpt><trkpt lat="43.540054178789546" lon="11.025667235089808"><ele>74.0</ele><time>2026-04-25T07:39:03.999Z</time></trkpt><trkpt lat="43.539873985890964" lon="11.025897545358383"><ele>76.0</ele><time>2026-04-25T07:39:04.999Z</time></trkpt><trkpt lat="43.53969578924596" lon="11.026126412044055"><ele>87.0</ele><time>2026-04-25T07:39:05.999Z</time></trkpt><trkpt lat="43.53951748591554" lon="11.026353702872061"><ele>98.0</ele><time>2026-04-25T07:39:06.998Z</time></trkpt><trkpt lat="43.539339372726744" lon="11.02657402529661"><ele>100.0</ele><time>2026-04-25T07:39:07.998Z</time></trkpt><trkpt lat="43.53916168231342" lon="11.026791756928928"><ele>102.0</ele><time>2026-04-25T07:39:08.998Z</time></trkpt><trkpt lat="43.53898039201874" lon="11.027001874962941"><ele>102.0</ele><time>2026-04-25T07:39:09.998Z</time></trkpt><trkpt lat="43.53879140123152" lon="11.027199783262477"><ele>102.0</ele><time>2026-04-25T07:39:10.998Z</time></trkpt><trkpt lat="43.53859440699993" lon="11.027385935186219"><ele>102.5</ele><time>2026-04-25T07:39:11.998Z</time></trkpt><trkpt lat="43.53839274833302" lon="11.027564948318881"><ele>103.0</ele><time>2026-04-25T07:39:12.998Z</time></trkpt><trkpt lat="43.53818840966162" lon="11.027740157314495"><ele>103.0</ele><time>2026-04-25T07:39:13.998Z</time></trkpt><trkpt lat="43.537982390516014" lon="11.027912576788115"><ele>103.0</ele><time>2026-04-25T07:39:14.998Z</time></trkpt><trkpt lat="43.53777487292071" lon="11.02808503628743"><ele>107.0</ele><time>2026-04-25T07:39:15.998Z</time></trkpt><trkpt lat="43.53756560663992" lon="11.028258338232556"><ele>111.0</ele><time>2026-04-25T07:39:16.998Z</time></trkpt><trkpt lat="43.537348890806264" lon="11.028412041986584"><ele>111.0</ele><time>2026-04-25T07:39:17.998Z</time></trkpt><trkpt lat="43.53712191265378" lon="11.028620312940067"><ele>111.0</ele><time>2026-04-25T07:39:18.998Z</time></trkpt><trkpt lat="43.536900739665725" lon="11.028774074129977"><ele>116.0</ele><time>2026-04-25T07:39:19.998Z</time></trkpt><trkpt lat="43.53668710317591" lon="11.028947365411796"><ele>121.0</ele><time>2026-04-25T07:39:20.998Z</time></trkpt><trkpt lat="43.536479589518024" lon="11.029134731905774"><ele>122.5</ele><time>2026-04-25T07:39:21.998Z</time></trkpt><trkpt lat="43.53626197753023" lon="11.029304504750494"><ele>124.0</ele><time>2026-04-25T07:39:22.998Z</time></trkpt><trkpt lat="43.5360466535958" lon="11.029479829438118"><ele>124.0</ele><time>2026-04-25T07:39:23.998Z</time></trkpt><trkpt lat="43.5358299530722" lon="11.02965397793315"><ele>124.0</ele><time>2026-04-25T07:39:24.998Z</time></trkpt><trkpt lat="43.535612185705055" lon="11.029831861121181"><ele>122.0</ele><time>2026-04-25T07:39:25.998Z</time></trkpt><trkpt lat="43.53539332969409" lon="11.030009986188238"><ele>120.0</ele><time>2026-04-25T07:39:26.998Z</time></trkpt><trkpt lat="43.535172293720116" lon="11.030192927296465"><ele>120.0</ele><time>2026-04-25T07:39:27.998Z</time></trkpt><trkpt lat="43.534978932146686" lon="11.030385660183711"><ele>120.0</ele><time>2026-04-25T07:39:28.998Z</time></trkpt><trkpt lat="43.53477254662526" lon="11.030589924109329"><ele>120.0</ele><time>2026-04-25T07:39:29.998Z</time></trkpt><trkpt lat="43.53456666832072" lon="11.030807372019735"><ele>120.0</ele><time>2026-04-25T07:39:31.001Z</time></trkpt><trkpt lat="43.53437366995438" lon="11.030997410001431"><ele>110.0</ele><time>2026-04-25T07:39:32.001Z</time></trkpt><trkpt lat="43.53419214876411" lon="11.031185092720163"><ele>100.0</ele><time>2026-04-25T07:39:33.001Z</time></trkpt><trkpt lat="43.53400159949329" lon="11.031435630871941"><ele>94.5</ele><time>2026-04-25T07:39:34.001Z</time></trkpt><trkpt lat="43.5338206914971" lon="11.031693370319783"><ele>89.0</ele><time>2026-04-25T07:39:35.001Z</time></trkpt><trkpt lat="43.53366098328196" lon="11.031950406182759"><ele>84.0</ele><time>2026-04-25T07:39:36.001Z</time></trkpt><trkpt lat="43.53348583490604" lon="11.032261919331944"><ele>79.0</ele><time>2026-04-25T07:39:37.001Z</time></trkpt><trkpt lat="43.53336855596351" lon="11.032584151220185"><ele>75.5</ele><time>2026-04-25T07:39:38.001Z</time></trkpt><trkpt lat="43.533235566433035" lon="11.032883568372057"><ele>72.0</ele><time>2026-04-25T07:39:39.001Z</time></trkpt><trkpt lat="43.53310766524186" lon="11.033178298371118"><ele>71.5</ele><time>2026-04-25T07:39:40.001Z</time></trkpt><trkpt lat="43.53300378344791" lon="11.033497250210093"><ele>71.0</ele><time>2026-04-25T07:39:41.001Z</time></trkpt><trkpt lat="43.53290583678331" lon="11.033817401753884"><ele>71.5</ele><time>2026-04-25T07:39:42.001Z</time></trkpt><trkpt lat="43.532817503553986" lon="11.034141527443222"><ele>72.0</ele><time>2026-04-25T07:39:43.001Z</time></trkpt><trkpt lat="43.53273973255654" lon="11.034472718828729"><ele>72.0</ele><time>2026-04-25T07:39:44.001Z</time></trkpt><trkpt lat="43.53266931614841" lon="11.034809066685343"><ele>72.0</ele><time>2026-04-25T07:39:45.001Z</time></trkpt><trkpt lat="43.53261122290515" lon="11.035147042570236"><ele>71.5</ele><time>2026-04-25T07:39:46Z</time></trkpt><trkpt lat="43.532572818972476" lon="11.035488129879422"><ele>71.0</ele><time>2026-04-25T07:39:47Z</time></trkpt><trkpt lat="43.53254241633765" lon="11.035818994981481"><ele>70.33333333333334</ele><time>2026-04-25T07:39:48Z</time></trkpt><trkpt lat="43.53252406802662" lon="11.036131299365907"><ele>69.66666666666667</ele><time>2026-04-25T07:39:49Z</time></trkpt><trkpt lat="43.53251548649463" lon="11.036430189504195"><ele>69.0</ele><time>2026-04-25T07:39:50Z</time></trkpt><trkpt lat="43.53252298579373" lon="11.036716073609291"><ele>68.66666666666667</ele><time>2026-04-25T07:39:51Z</time></trkpt><trkpt lat="43.532557165583064" lon="11.036985039859397"><ele>68.33333333333334</ele><time>2026-04-25T07:39:51.999Z</time></trkpt><trkpt lat="43.53261319973062" lon="11.037241560423203"><ele>68.0</ele><time>2026-04-25T07:39:52.999Z</time></trkpt><trkpt lat="43.53269066734412" lon="11.03748734512901"><ele>68.0</ele><time>2026-04-25T07:39:53.999Z</time></trkpt><trkpt lat="43.53278341759813" lon="11.037704514753106"><ele>68.0</ele><time>2026-04-25T07:39:54.999Z</time></trkpt><trkpt lat="43.5328917727944" lon="11.037885200086622"><ele>68.0</ele><time>2026-04-25T07:39:55.999Z</time></trkpt><trkpt lat="43.53301412831576" lon="11.038038328425298"><ele>68.33333333333334</ele><time>2026-04-25T07:39:56.999Z</time></trkpt><trkpt lat="43.53315108269273" lon="11.03817281572983"><ele>68.66666666666667</ele><time>2026-04-25T07:39:57.999Z</time></trkpt><trkpt lat="43.53330097315498" lon="11.03829460902007"><ele>69.0</ele><time>2026-04-25T07:39:58.999Z</time></trkpt><trkpt lat="43.53344237022347" lon="11.03841553395784"><ele>68.25</ele><time>2026-04-25T07:39:59.999Z</time></trkpt><trkpt lat="43.53356351605551" lon="11.038546075979964"><ele>67.5</ele><time>2026-04-25T07:40:00.999Z</time></trkpt><trkpt lat="43.533664450535476" lon="11.038687803625622"><ele>66.75</ele><time>2026-04-25T07:40:01.999Z</time></trkpt><trkpt lat="43.53373851550164" lon="11.038843252764366"><ele>66.0</ele><time>2026-04-25T07:40:02.999Z</time></trkpt><trkpt lat="43.533788292906245" lon="11.039006009858557"><ele>66.0</ele><time>2026-04-25T07:40:03.999Z</time></trkpt><trkpt lat="43.53382125980761" lon="11.039162942416123"><ele>66.0</ele><time>2026-04-25T07:40:04.999Z</time></trkpt><trkpt lat="43.533841314467494" lon="11.039302448834189"><ele>66.0</ele><time>2026-04-25T07:40:05.999Z</time></trkpt><trkpt lat="43.53384126296201" lon="11.039438384995963"><ele>66.0</ele><time>2026-04-25T07:40:06.999Z</time></trkpt><trkpt lat="43.53381092607087" lon="11.039576265858466"><ele>66.0</ele><time>2026-04-25T07:40:07.999Z</time></trkpt><trkpt lat="43.53376383908986" lon="11.03971132507651"><ele>66.0</ele><time>2026-04-25T07:40:08.999Z</time></trkpt><trkpt lat="43.53373383384756" lon="11.039855491467083"><ele>66.0</ele><time>2026-04-25T07:40:09.999Z</time></trkpt><trkpt lat="43.53372769908336" lon="11.039994797690854"><ele>66.0</ele><time>2026-04-25T07:40:10.999Z</time></trkpt><trkpt lat="43.53375476951215" lon="11.040141632888101"><ele>66.0</ele><time>2026-04-25T07:40:11.999Z</time></trkpt><trkpt lat="43.53380444008123" lon="11.04028243608299"><ele>66.0</ele><time>2026-04-25T07:40:12.999Z</time></trkpt><trkpt lat="43.533850263940046" lon="11.040431826074414"><ele>66.0</ele><time>2026-04-25T07:40:13.999Z</time></trkpt><trkpt lat="43.53386789738011" lon="11.040604383158161"><ele>66.0</ele><time>2026-04-25T07:40:14.999Z</time></trkpt><trkpt lat="43.533855734975354" lon="11.040793545002586"><ele>66.0</ele><time>2026-04-25T07:40:15.999Z</time></trkpt><trkpt lat="43.533823635456116" lon="11.04100000694832"><ele>66.0</ele><time>2026-04-25T07:40:16.999Z</time></trkpt><trkpt lat="43.53377716308" lon="11.04122146242199"><ele>66.0</ele><time>2026-04-25T07:40:17.999Z</time></trkpt><trkpt lat="43.53371623279305" lon="11.0414562898754"><ele>66.0</ele><time>2026-04-25T07:40:18.999Z</time></trkpt><trkpt lat="43.53364658409007" lon="11.041690136934525"><ele>66.0</ele><time>2026-04-25T07:40:19.999Z</time></trkpt><trkpt lat="43.53356978164775" lon="11.041924938511423"><ele>66.0</ele><time>2026-04-25T07:40:20.999Z</time></trkpt><trkpt lat="43.53348368912693" lon="11.04217373073442"><ele>66.0</ele><time>2026-04-25T07:40:21.999Z</time></trkpt><trkpt lat="43.53338784059278" lon="11.042431723954518"><ele>66.0</ele><time>2026-04-25T07:40:22.999Z</time></trkpt><trkpt lat="43.53328361568631" lon="11.042698798050983"><ele>66.0</ele><time>2026-04-25T07:40:23.999Z</time></trkpt><trkpt lat="43.53318246341752" lon="11.042959145932857"><ele>66.0</ele><time>2026-04-25T07:40:24.999Z</time></trkpt><trkpt lat="43.533075808699" lon="11.043216197109333"><ele>66.0</ele><time>2026-04-25T07:40:25.999Z</time></trkpt><trkpt lat="43.53297900469444" lon="11.043481233538852"><ele>66.0</ele><time>2026-04-25T07:40:26.999Z</time></trkpt><trkpt lat="43.5328861576123" lon="11.043757432750423"><ele>66.0</ele><time>2026-04-25T07:40:27.999Z</time></trkpt><trkpt lat="43.532782917068324" lon="11.04403094952876"><ele>66.0</ele><time>2026-04-25T07:40:28.999Z</time></trkpt><trkpt lat="43.532674024010404" lon="11.04430927506558"><ele>66.0</ele><time>2026-04-25T07:40:29.998Z</time></trkpt><trkpt lat="43.53256596179421" lon="11.044593745237913"><ele>66.0</ele><time>2026-04-25T07:40:30.998Z</time></trkpt><trkpt lat="43.532456979712045" lon="11.044882124184499"><ele>66.0</ele><time>2026-04-25T07:40:31.998Z</time></trkpt><trkpt lat="43.53234907499313" lon="11.045173714139835"><ele>66.0</ele><time>2026-04-25T07:40:32.998Z</time></trkpt><trkpt lat="43.532248312837766" lon="11.045459029121242"><ele>66.0</ele><time>2026-04-25T07:40:33.998Z</time></trkpt><trkpt lat="43.532157536096626" lon="11.045750319913363"><ele>66.0</ele><time>2026-04-25T07:40:34.998Z</time></trkpt><trkpt lat="43.532073296801656" lon="11.046045508120272"><ele>66.0</ele><time>2026-04-25T07:40:35.998Z</time></trkpt><trkpt lat="43.53199609028056" lon="11.046346342361337"><ele>66.0</ele><time>2026-04-25T07:40:36.998Z</time></trkpt><trkpt lat="43.53193071640864" lon="11.046653150012306"><ele>66.0</ele><time>2026-04-25T07:40:37.998Z</time></trkpt><trkpt lat="43.53187525665359" lon="11.046963989774166"><ele>66.0</ele><time>2026-04-25T07:40:38.998Z</time></trkpt><trkpt lat="43.53183063254035" lon="11.047277447249183"><ele>66.5</ele><time>2026-04-25T07:40:39.998Z</time></trkpt><trkpt lat="43.53179618661751" lon="11.047595256870059"><ele>67.0</ele><time>2026-04-25T07:40:40.998Z</time></trkpt><trkpt lat="43.53177236289233" lon="11.04790975067471"><ele>67.0</ele><time>2026-04-25T07:40:41.998Z</time></trkpt><trkpt lat="43.5317571280392" lon="11.048227985339683"><ele>67.0</ele><time>2026-04-25T07:40:42.998Z</time></trkpt><trkpt lat="43.531743537786475" lon="11.048541585474329"><ele>67.0</ele><time>2026-04-25T07:40:43.998Z</time></trkpt><trkpt lat="43.531740469936565" lon="11.04885801499676"><ele>67.0</ele><time>2026-04-25T07:40:44.998Z</time></trkpt><trkpt lat="43.53175235375385" lon="11.04917133588288"><ele>68.0</ele><time>2026-04-25T07:40:45.998Z</time></trkpt><trkpt lat="43.531774226361165" lon="11.049480116955566"><ele>69.0</ele><time>2026-04-25T07:40:46.998Z</time></trkpt><trkpt lat="43.531809033373705" lon="11.049791496327662"><ele>68.5</ele><time>2026-04-25T07:40:47.998Z</time></trkpt><trkpt lat="43.53184928630637" lon="11.050099927123773"><ele>68.0</ele><time>2026-04-25T07:40:48.998Z</time></trkpt><trkpt lat="43.531895842901434" lon="11.050405433112157"><ele>68.0</ele><time>2026-04-25T07:40:49.998Z</time></trkpt><trkpt lat="43.531950650089925" lon="11.050707766823058"><ele>68.0</ele><time>2026-04-25T07:40:50.998Z</time></trkpt><trkpt lat="43.53201170763077" lon="11.051004973792944"><ele>68.0</ele><time>2026-04-25T07:40:51.998Z</time></trkpt><trkpt lat="43.532085177078265" lon="11.051299097070999"><ele>68.0</ele><time>2026-04-25T07:40:52.998Z</time></trkpt><trkpt lat="43.53216433440132" lon="11.051590497728363"><ele>68.0</ele><time>2026-04-25T07:40:53.998Z</time></trkpt><trkpt lat="43.53224433109001" lon="11.051882176299692"><ele>68.0</ele><time>2026-04-25T07:40:54.998Z</time></trkpt><trkpt lat="43.532322363502786" lon="11.052168823246832"><ele>68.0</ele><time>2026-04-25T07:40:55.998Z</time></trkpt><trkpt lat="43.53239919244253" lon="11.052457989838304"><ele>67.66666666666667</ele><time>2026-04-25T07:40:56.998Z</time></trkpt><trkpt lat="43.532472230980105" lon="11.052749420282108"><ele>67.33333333333333</ele><time>2026-04-25T07:40:57.998Z</time></trkpt><trkpt lat="43.53253934868546" lon="11.053045060481216"><ele>67.0</ele><time>2026-04-25T07:40:58.998Z</time></trkpt><trkpt lat="43.53259559409156" lon="11.053343851839017"><ele>67.0</ele><time>2026-04-25T07:40:59.998Z</time></trkpt><trkpt lat="43.53264133567893" lon="11.053648484010429"><ele>67.0</ele><time>2026-04-25T07:41:00.998Z</time></trkpt><trkpt lat="43.532677370151184" lon="11.053954510320867"><ele>67.0</ele><time>2026-04-25T07:41:01.998Z</time></trkpt><trkpt lat="43.532700529265256" lon="11.054265580567778"><ele>67.0</ele><time>2026-04-25T07:41:02.998Z</time></trkpt><trkpt lat="43.532714231323425" lon="11.054577641097211"><ele>67.0</ele><time>2026-04-25T07:41:03.998Z</time></trkpt><trkpt lat="43.53271049304802" lon="11.054892760526274"><ele>67.0</ele><time>2026-04-25T07:41:04.998Z</time></trkpt><trkpt lat="43.53269595597341" lon="11.055208443734033"><ele>67.0</ele><time>2026-04-25T07:41:05.998Z</time></trkpt><trkpt lat="43.532673028992285" lon="11.055522571706653"><ele>67.0</ele><time>2026-04-25T07:41:06.998Z</time></trkpt><trkpt lat="43.53263435728923" lon="11.055834218234674"><ele>67.0</ele><time>2026-04-25T07:41:07.998Z</time></trkpt><trkpt lat="43.5325815850728" lon="11.056143548066846"><ele>67.0</ele><time>2026-04-25T07:41:08.998Z</time></trkpt><trkpt lat="43.5325109153435" lon="11.056449315673841"><ele>68.0</ele><time>2026-04-25T07:41:09.998Z</time></trkpt><trkpt lat="43.53243316961379" lon="11.056750853570456"><ele>69.0</ele><time>2026-04-25T07:41:10.998Z</time></trkpt><trkpt lat="43.532342243273376" lon="11.05704515300697"><ele>69.0</ele><time>2026-04-25T07:41:11.998Z</time></trkpt><trkpt lat="43.53223509773404" lon="11.057329723142267"><ele>69.0</ele><time>2026-04-25T07:41:12.998Z</time></trkpt><trkpt lat="43.532112230019145" lon="11.057606853209613"><ele>67.5</ele><time>2026-04-25T07:41:13.998Z</time></trkpt><trkpt lat="43.53197904546684" lon="11.057875975596207"><ele>66.0</ele><time>2026-04-25T07:41:14.998Z</time></trkpt><trkpt lat="43.53184015181475" lon="11.058144700894264"><ele>66.5</ele><time>2026-04-25T07:41:15.998Z</time></trkpt><trkpt lat="43.531694343354964" lon="11.058404868820164"><ele>67.0</ele><time>2026-04-25T07:41:16.997Z</time></trkpt><trkpt lat="43.531536433951075" lon="11.058652187581849"><ele>67.0</ele><time>2026-04-25T07:41:17.997Z</time></trkpt><trkpt lat="43.531367037233736" lon="11.058885147924062"><ele>67.0</ele><time>2026-04-25T07:41:18.997Z</time></trkpt><trkpt lat="43.53119554507181" lon="11.05911632565198"><ele>68.0</ele><time>2026-04-25T07:41:19.997Z</time></trkpt><trkpt lat="43.531029646761645" lon="11.059355909829538"><ele>69.0</ele><time>2026-04-25T07:41:20.997Z</time></trkpt><trkpt lat="43.53086499143677" lon="11.059600138064782"><ele>69.0</ele><time>2026-04-25T07:41:21.997Z</time></trkpt><trkpt lat="43.5306986752833" lon="11.0598396290353"><ele>69.0</ele><time>2026-04-25T07:41:22.997Z</time></trkpt><trkpt lat="43.530533133086855" lon="11.06007755806845"><ele>69.0</ele><time>2026-04-25T07:41:23.997Z</time></trkpt><trkpt lat="43.530371676825325" lon="11.060323374752794"><ele>69.0</ele><time>2026-04-25T07:41:24.997Z</time></trkpt><trkpt lat="43.530213084773465" lon="11.060574290090186"><ele>70.5</ele><time>2026-04-25T07:41:25.997Z</time></trkpt><trkpt lat="43.53006121247604" lon="11.060831557202176"><ele>72.0</ele><time>2026-04-25T07:41:26.997Z</time></trkpt><trkpt lat="43.529917808225115" lon="11.061096034834422"><ele>72.0</ele><time>2026-04-25T07:41:27.997Z</time></trkpt><trkpt lat="43.52978114106612" lon="11.061368039005005"><ele>72.0</ele><time>2026-04-25T07:41:28.997Z</time></trkpt><trkpt lat="43.52965381677754" lon="11.061647115638436"><ele>71.0</ele><time>2026-04-25T07:41:29.997Z</time></trkpt><trkpt lat="43.52953598948403" lon="11.0619344131609"><ele>70.0</ele><time>2026-04-25T07:41:30.997Z</time></trkpt><trkpt lat="43.5294333122504" lon="11.062233894552454"><ele>70.5</ele><time>2026-04-25T07:41:31.997Z</time></trkpt><trkpt lat="43.529345710088144" lon="11.062538274995042"><ele>71.0</ele><time>2026-04-25T07:41:32.997Z</time></trkpt><trkpt lat="43.529270663644866" lon="11.062847005189276"><ele>71.0</ele><time>2026-04-25T07:41:33.997Z</time></trkpt><trkpt lat="43.529208521505026" lon="11.063163500596824"><ele>71.0</ele><time>2026-04-25T07:41:34.997Z</time></trkpt><trkpt lat="43.52915813654846" lon="11.063482705087544"><ele>71.5</ele><time>2026-04-25T07:41:36Z</time></trkpt><trkpt lat="43.5291151272131" lon="11.063806996313291"><ele>72.0</ele><time>2026-04-25T07:41:37Z</time></trkpt><trkpt lat="43.52904993839823" lon="11.064121992527866"><ele>72.0</ele><time>2026-04-25T07:41:38Z</time></trkpt><trkpt lat="43.52904492383576" lon="11.0644600972423"><ele>72.0</ele><time>2026-04-25T07:41:39Z</time></trkpt><trkpt lat="43.52901041798341" lon="11.064790553657197"><ele>72.0</ele><time>2026-04-25T07:41:40Z</time></trkpt><trkpt lat="43.52897288935814" lon="11.06512087368291"><ele>72.0</ele><time>2026-04-25T07:41:41Z</time></trkpt><trkpt lat="43.528935390352586" lon="11.065450917707084"><ele>71.5</ele><time>2026-04-25T07:41:42Z</time></trkpt><trkpt lat="43.52890181642898" lon="11.065779389304291"><ele>71.0</ele><time>2026-04-25T07:41:43Z</time></trkpt><trkpt lat="43.52886811280129" lon="11.066109777296385"><ele>71.0</ele><time>2026-04-25T07:41:44Z</time></trkpt><trkpt lat="43.52883354559549" lon="11.06643627452787"><ele>71.0</ele><time>2026-04-25T07:41:45Z</time></trkpt><trkpt lat="43.52879818327019" lon="11.066762757001126"><ele>71.0</ele><time>2026-04-25T07:41:46Z</time></trkpt><trkpt lat="43.52876376902666" lon="11.06708740628967"><ele>71.0</ele><time>2026-04-25T07:41:47Z</time></trkpt><trkpt lat="43.5287303023737" lon="11.06740977368246"><ele>71.0</ele><time>2026-04-25T07:41:48Z</time></trkpt><trkpt lat="43.52869400074276" lon="11.067730046494946"><ele>71.0</ele><time>2026-04-25T07:41:49Z</time></trkpt><trkpt lat="43.52865684686433" lon="11.068049931050565"><ele>71.5</ele><time>2026-04-25T07:41:50Z</time></trkpt><trkpt lat="43.52862186851176" lon="11.068369490200038"><ele>72.0</ele><time>2026-04-25T07:41:51Z</time></trkpt><trkpt lat="43.52859030385649" lon="11.068688286014012"><ele>72.0</ele><time>2026-04-25T07:41:52Z</time></trkpt><trkpt lat="43.52855755316102" lon="11.069007449425705"><ele>72.0</ele><time>2026-04-25T07:41:53Z</time></trkpt><trkpt lat="43.52852127114437" lon="11.069324076347558"><ele>72.0</ele><time>2026-04-25T07:41:54Z</time></trkpt><trkpt lat="43.528481675554765" lon="11.069638142947003"><ele>72.0</ele><time>2026-04-25T07:41:55Z</time></trkpt><trkpt lat="43.52843600523008" lon="11.069950790821187"><ele>72.0</ele><time>2026-04-25T07:41:55.999Z</time></trkpt><trkpt lat="43.528383029281095" lon="11.070261031221538"><ele>72.0</ele><time>2026-04-25T07:41:56.999Z</time></trkpt><trkpt lat="43.528320896261285" lon="11.070566253897502"><ele>72.0</ele><time>2026-04-25T07:41:57.999Z</time></trkpt><trkpt lat="43.52825318339177" lon="11.070866443538861"><ele>72.0</ele><time>2026-04-25T07:41:58.999Z</time></trkpt><trkpt lat="43.52817811969956" lon="11.071162038056174"><ele>72.0</ele><time>2026-04-25T07:41:59.999Z</time></trkpt><trkpt lat="43.52809566473467" lon="11.071454893595567"><ele>72.0</ele><time>2026-04-25T07:42:00.999Z</time></trkpt><trkpt lat="43.52800479550656" lon="11.071744648920932"><ele>72.0</ele><time>2026-04-25T07:42:01.999Z</time></trkpt><trkpt lat="43.527909459489805" lon="11.072031115970814"><ele>72.0</ele><time>2026-04-25T07:42:02.999Z</time></trkpt><trkpt lat="43.52780811643346" lon="11.072317415461105"><ele>72.0</ele><time>2026-04-25T07:42:03.999Z</time></trkpt><trkpt lat="43.527699487630045" lon="11.07259850586782"><ele>72.0</ele><time>2026-04-25T07:42:04.999Z</time></trkpt><trkpt lat="43.52758453900128" lon="11.07287521381837"><ele>72.0</ele><time>2026-04-25T07:42:05.999Z</time></trkpt><trkpt lat="43.52746226689796" lon="11.073144436371564"><ele>72.0</ele><time>2026-04-25T07:42:06.999Z</time></trkpt><trkpt lat="43.52733482342219" lon="11.073405660736436"><ele>71.5</ele><time>2026-04-25T07:42:07.999Z</time></trkpt><trkpt lat="43.52719989077154" lon="11.073660233638382"><ele>71.0</ele><time>2026-04-25T07:42:08.999Z</time></trkpt><trkpt lat="43.52706053582265" lon="11.073907358945561"><ele>71.0</ele><time>2026-04-25T07:42:09.999Z</time></trkpt><trkpt lat="43.52691796618775" lon="11.074148722249122"><ele>71.0</ele><time>2026-04-25T07:42:10.999Z</time></trkpt><trkpt lat="43.52677071173976" lon="11.074378158981332"><ele>71.0</ele><time>2026-04-25T07:42:11.999Z</time></trkpt><trkpt lat="43.52661727123063" lon="11.074593506005128"><ele>71.0</ele><time>2026-04-25T07:42:12.999Z</time></trkpt><trkpt lat="43.5264599363927" lon="11.074806753259134"><ele>71.0</ele><time>2026-04-25T07:42:13.999Z</time></trkpt><trkpt lat="43.526300959031815" lon="11.075017523184558"><ele>71.0</ele><time>2026-04-25T07:42:14.999Z</time></trkpt><trkpt lat="43.5261375498911" lon="11.075218588910428"><ele>71.33333333333334</ele><time>2026-04-25T07:42:15.999Z</time></trkpt><trkpt lat="43.52596919956275" lon="11.075410484884541"><ele>71.66666666666667</ele><time>2026-04-25T07:42:16.999Z</time></trkpt><trkpt lat="43.525794673964576" lon="11.075596112497372"><ele>72.0</ele><time>2026-04-25T07:42:17.999Z</time></trkpt><trkpt lat="43.52561642952894" lon="11.075782903368145"><ele>72.0</ele><time>2026-04-25T07:42:18.999Z</time></trkpt><trkpt lat="43.52542587277706" lon="11.075966647088222"><ele>72.0</ele><time>2026-04-25T07:42:19.999Z</time></trkpt><trkpt lat="43.52522174451085" lon="11.076144041793592"><ele>72.0</ele><time>2026-04-25T07:42:20.999Z</time></trkpt><trkpt lat="43.5250120974935" lon="11.076313609880708"><ele>72.0</ele><time>2026-04-25T07:42:21.999Z</time></trkpt><trkpt lat="43.52480155018985" lon="11.076480710688687"><ele>72.0</ele><time>2026-04-25T07:42:22.999Z</time></trkpt><trkpt lat="43.52459518935741" lon="11.076657876553565"><ele>72.0</ele><time>2026-04-25T07:42:23.999Z</time></trkpt><trkpt lat="43.524395349841896" lon="11.076848578317833"><ele>72.5</ele><time>2026-04-25T07:42:24.999Z</time></trkpt><trkpt lat="43.52419667705712" lon="11.07703648631688"><ele>73.0</ele><time>2026-04-25T07:42:25.999Z</time></trkpt><trkpt lat="43.52399340776406" lon="11.077218746814712"><ele>73.0</ele><time>2026-04-25T07:42:26.999Z</time></trkpt><trkpt lat="43.523790419657196" lon="11.077399932242384"><ele>73.0</ele><time>2026-04-25T07:42:27.999Z</time></trkpt><trkpt lat="43.5235888529424" lon="11.0775777186405"><ele>72.0</ele><time>2026-04-25T07:42:28.999Z</time></trkpt><trkpt lat="43.523386904418516" lon="11.077752234254017"><ele>71.0</ele><time>2026-04-25T07:42:29.999Z</time></trkpt><trkpt lat="43.52318565086592" lon="11.07791620275005"><ele>71.0</ele><time>2026-04-25T07:42:30.999Z</time></trkpt><trkpt lat="43.522980077078174" lon="11.078078524509657"><ele>71.0</ele><time>2026-04-25T07:42:31.999Z</time></trkpt><trkpt lat="43.52277878324544" lon="11.07824821747883"><ele>71.0</ele><time>2026-04-25T07:42:32.999Z</time></trkpt><trkpt lat="43.522581485409404" lon="11.078425391643776"><ele>71.0</ele><time>2026-04-25T07:42:33.999Z</time></trkpt><trkpt lat="43.52238339930375" lon="11.07859691198082"><ele>71.0</ele><time>2026-04-25T07:42:34.999Z</time></trkpt><trkpt lat="43.52218656667922" lon="11.078767492979386"><ele>71.0</ele><time>2026-04-25T07:42:35.999Z</time></trkpt><trkpt lat="43.521989283258335" lon="11.078942131753053"><ele>71.5</ele><time>2026-04-25T07:42:36.999Z</time></trkpt><trkpt lat="43.52179366210432" lon="11.079113992727262"><ele>72.0</ele><time>2026-04-25T07:42:37.999Z</time></trkpt><trkpt lat="43.521596960629" lon="11.079282890684084"><ele>72.0</ele><time>2026-04-25T07:42:38.999Z</time></trkpt><trkpt lat="43.5213998771804" lon="11.07945041138436"><ele>72.0</ele><time>2026-04-25T07:42:39.999Z</time></trkpt><trkpt lat="43.52120576560855" lon="11.079623796697065"><ele>72.0</ele><time>2026-04-25T07:42:40.999Z</time></trkpt><trkpt lat="43.52101185259472" lon="11.079797782137845"><ele>72.0</ele><time>2026-04-25T07:42:41.998Z</time></trkpt><trkpt lat="43.52082163203348" lon="11.079969489028219"><ele>72.5</ele><time>2026-04-25T07:42:42.998Z</time></trkpt><trkpt lat="43.52062915066191" lon="11.080143854932407"><ele>73.0</ele><time>2026-04-25T07:42:43.998Z</time></trkpt><trkpt lat="43.52043368397557" lon="11.080316161529392"><ele>73.5</ele><time>2026-04-25T07:42:44.998Z</time></trkpt><trkpt lat="43.520237317848526" lon="11.080486736061559"><ele>74.0</ele><time>2026-04-25T07:42:45.998Z</time></trkpt><trkpt lat="43.52003946577055" lon="11.08066138940306"><ele>74.0</ele><time>2026-04-25T07:42:46.998Z</time></trkpt><trkpt lat="43.51984119790528" lon="11.080835799917754"><ele>74.0</ele><time>2026-04-25T07:42:47.998Z</time></trkpt><trkpt lat="43.519638150990154" lon="11.081000633746907"><ele>74.5</ele><time>2026-04-25T07:42:48.998Z</time></trkpt><trkpt lat="43.51942547775033" lon="11.081150246921764"><ele>75.0</ele><time>2026-04-25T07:42:49.998Z</time></trkpt><trkpt lat="43.51920458724591" lon="11.081283915053522"><ele>75.0</ele><time>2026-04-25T07:42:50.998Z</time></trkpt><trkpt lat="43.51897611306967" lon="11.081396565503155"><ele>75.0</ele><time>2026-04-25T07:42:51.998Z</time></trkpt><trkpt lat="43.5187428155684" lon="11.081491177838789"><ele>73.5</ele><time>2026-04-25T07:42:52.998Z</time></trkpt><trkpt lat="43.51850492260118" lon="11.0815646117238"><ele>72.0</ele><time>2026-04-25T07:42:53.998Z</time></trkpt><trkpt lat="43.518263879717814" lon="11.08161840869412"><ele>72.0</ele><time>2026-04-25T07:42:54.998Z</time></trkpt><trkpt lat="43.518020837993845" lon="11.081644891553692"><ele>72.0</ele><time>2026-04-25T07:42:55.998Z</time></trkpt><trkpt lat="43.517777481618545" lon="11.08164266999388"><ele>72.0</ele><time>2026-04-25T07:42:56.998Z</time></trkpt><trkpt lat="43.517534596893455" lon="11.081625925998187"><ele>72.0</ele><time>2026-04-25T07:42:57.998Z</time></trkpt><trkpt lat="43.51729351486732" lon="11.081599490058961"><ele>72.5</ele><time>2026-04-25T07:42:58.998Z</time></trkpt><trkpt lat="43.51705337912191" lon="11.081583816155439"><ele>73.0</ele><time>2026-04-25T07:42:59.998Z</time></trkpt><trkpt lat="43.51681566852698" lon="11.081593647444464"><ele>73.33333333333333</ele><time>2026-04-25T07:43:00.998Z</time></trkpt><trkpt lat="43.51659072358127" lon="11.081633613709679"><ele>73.66666666666667</ele><time>2026-04-25T07:43:01.998Z</time></trkpt><trkpt lat="43.51637984910387" lon="11.081697638830397"><ele>74.0</ele><time>2026-04-25T07:43:02.998Z</time></trkpt><trkpt lat="43.51618805456672" lon="11.081788508837748"><ele>73.33333333333334</ele><time>2026-04-25T07:43:03.998Z</time></trkpt><trkpt lat="43.51601453003246" lon="11.081892651439695"><ele>72.66666666666667</ele><time>2026-04-25T07:43:04.998Z</time></trkpt><trkpt lat="43.51585792797069" lon="11.082000902375551"><ele>72.0</ele><time>2026-04-25T07:43:05.998Z</time></trkpt><trkpt lat="43.515719037018066" lon="11.08210522593562"><ele>72.0</ele><time>2026-04-25T07:43:06.998Z</time></trkpt><trkpt lat="43.51559044735737" lon="11.082193282578015"><ele>72.0</ele><time>2026-04-25T07:43:07.998Z</time></trkpt><trkpt lat="43.51546760615904" lon="11.082258545989752"><ele>72.0</ele><time>2026-04-25T07:43:08.998Z</time></trkpt><trkpt lat="43.51534295029399" lon="11.082315914735142"><ele>72.0</ele><time>2026-04-25T07:43:09.998Z</time></trkpt><trkpt lat="43.51521476622788" lon="11.08234988898329"><ele>71.75</ele><time>2026-04-25T07:43:10.998Z</time></trkpt><trkpt lat="43.5150923098708" lon="11.082398307379048"><ele>71.5</ele><time>2026-04-25T07:43:11.998Z</time></trkpt><trkpt lat="43.514971389395946" lon="11.082476366237746"><ele>71.25</ele><time>2026-04-25T07:43:12.998Z</time></trkpt><trkpt lat="43.51484003598221" lon="11.08254555509354"><ele>71.0</ele><time>2026-04-25T07:43:13.998Z</time></trkpt><trkpt lat="43.51469322472498" lon="11.082590917049314"><ele>72.33333333333334</ele><time>2026-04-25T07:43:14.998Z</time></trkpt><trkpt lat="43.51452986918109" lon="11.082629552834858"><ele>73.66666666666667</ele><time>2026-04-25T07:43:15.998Z</time></trkpt><trkpt lat="43.51435081799524" lon="11.082661685034022"><ele>75.0</ele><time>2026-04-25T07:43:16.998Z</time></trkpt><trkpt lat="43.51416439082283" lon="11.082683267996037"><ele>75.0</ele><time>2026-04-25T07:43:17.998Z</time></trkpt><trkpt lat="43.513984268526414" lon="11.082701159860044"><ele>75.0</ele><time>2026-04-25T07:43:18.998Z</time></trkpt><trkpt lat="43.51379086542018" lon="11.082726948408695"><ele>75.0</ele><time>2026-04-25T07:43:19.998Z</time></trkpt><trkpt lat="43.513587282041094" lon="11.082756112967088"><ele>74.66666666666667</ele><time>2026-04-25T07:43:20.998Z</time></trkpt><trkpt lat="43.51337584895333" lon="11.082783721702176"><ele>74.33333333333334</ele><time>2026-04-25T07:43:21.998Z</time></trkpt><trkpt lat="43.513162385328535" lon="11.082812719058158"><ele>74.0</ele><time>2026-04-25T07:43:22.998Z</time></trkpt><trkpt lat="43.512953078914315" lon="11.08284312158991"><ele>74.33333333333334</ele><time>2026-04-25T07:43:23.998Z</time></trkpt><trkpt lat="43.5127385490144" lon="11.082873419224464"><ele>74.66666666666667</ele><time>2026-04-25T07:43:24.998Z</time></trkpt><trkpt lat="43.51251473434448" lon="11.082906726537413"><ele>75.0</ele><time>2026-04-25T07:43:25.998Z</time></trkpt><trkpt lat="43.51228781483116" lon="11.082938567639957"><ele>74.5</ele><time>2026-04-25T07:43:26.998Z</time></trkpt><trkpt lat="43.51206603370093" lon="11.082972655820774"><ele>74.0</ele><time>2026-04-25T07:43:27.998Z</time></trkpt><trkpt lat="43.51184087853773" lon="11.08302131226638"><ele>74.0</ele><time>2026-04-25T07:43:28.997Z</time></trkpt><trkpt lat="43.51161382457652" lon="11.083071455650341"><ele>74.0</ele><time>2026-04-25T07:43:29.997Z</time></trkpt><trkpt lat="43.51138629298907" lon="11.08313052820583"><ele>73.5</ele><time>2026-04-25T07:43:30.997Z</time></trkpt><trkpt lat="43.51116040912234" lon="11.083208801973194"><ele>73.0</ele><time>2026-04-25T07:43:31.997Z</time></trkpt><trkpt lat="43.51093428470611" lon="11.083303026684838"><ele>73.0</ele><time>2026-04-25T07:43:32.997Z</time></trkpt><trkpt lat="43.5107088114938" lon="11.083404921317301"><ele>73.0</ele><time>2026-04-25T07:43:33.997Z</time></trkpt><trkpt lat="43.51048429728182" lon="11.083513952552964"><ele>74.5</ele><time>2026-04-25T07:43:34.997Z</time></trkpt><trkpt lat="43.51026058980242" lon="11.08362908072885"><ele>76.0</ele><time>2026-04-25T07:43:35.997Z</time></trkpt><trkpt lat="43.51003928081821" lon="11.083742951215578"><ele>76.0</ele><time>2026-04-25T07:43:36.997Z</time></trkpt><trkpt lat="43.50981479169777" lon="11.083847118389256"><ele>76.0</ele><time>2026-04-25T07:43:37.997Z</time></trkpt><trkpt lat="43.50959175168161" lon="11.083946624531205"><ele>75.0</ele><time>2026-04-25T07:43:38.997Z</time></trkpt><trkpt lat="43.50937273495763" lon="11.084055501748493"><ele>74.0</ele><time>2026-04-25T07:43:39.997Z</time></trkpt><trkpt lat="43.509157569058196" lon="11.08416591562863"><ele>74.0</ele><time>2026-04-25T07:43:40.997Z</time></trkpt><trkpt lat="43.50894397019963" lon="11.084275002276"><ele>74.0</ele><time>2026-04-25T07:43:42Z</time></trkpt><trkpt lat="43.50873103290326" lon="11.084383246360423"><ele>74.33333333333334</ele><time>2026-04-25T07:43:43Z</time></trkpt><trkpt lat="43.508519868376204" lon="11.084484415284816"><ele>74.66666666666667</ele><time>2026-04-25T07:43:44Z</time></trkpt><trkpt lat="43.50830989330514" lon="11.084586662045865"><ele>75.0</ele><time>2026-04-25T07:43:45Z</time></trkpt><trkpt lat="43.50810312924766" lon="11.084697124491122"><ele>75.0</ele><time>2026-04-25T07:43:46Z</time></trkpt><trkpt lat="43.50789618544041" lon="11.084805056212785"><ele>75.0</ele><time>2026-04-25T07:43:47Z</time></trkpt><trkpt lat="43.50769081007427" lon="11.084905605663481"><ele>75.0</ele><time>2026-04-25T07:43:48Z</time></trkpt><trkpt lat="43.507486854686306" lon="11.08500574478739"><ele>75.0</ele><time>2026-04-25T07:43:49Z</time></trkpt><trkpt lat="43.50728746536528" lon="11.085108251737113"><ele>75.0</ele><time>2026-04-25T07:43:50Z</time></trkpt><trkpt lat="43.50709150086872" lon="11.085209232544683"><ele>75.0</ele><time>2026-04-25T07:43:51Z</time></trkpt><trkpt lat="43.50690550227333" lon="11.085304995498284"><ele>75.33333333333333</ele><time>2026-04-25T07:43:52Z</time></trkpt><trkpt lat="43.50672200640061" lon="11.085412830379555"><ele>75.66666666666666</ele><time>2026-04-25T07:43:53Z</time></trkpt><trkpt lat="43.50652676599953" lon="11.085497434337743"><ele>76.0</ele><time>2026-04-25T07:43:54Z</time></trkpt><trkpt lat="43.50633530139231" lon="11.085601478654239"><ele>76.0</ele><time>2026-04-25T07:43:55Z</time></trkpt><trkpt lat="43.50615314449063" lon="11.085722729480088"><ele>76.0</ele><time>2026-04-25T07:43:56Z</time></trkpt><trkpt lat="43.5059649767818" lon="11.085833234023454"><ele>76.0</ele><time>2026-04-25T07:43:57Z</time></trkpt><trkpt lat="43.50578895508352" lon="11.085964951883211"><ele>76.0</ele><time>2026-04-25T07:43:58Z</time></trkpt><trkpt lat="43.50563019331702" lon="11.086104122491513"><ele>76.0</ele><time>2026-04-25T07:43:59Z</time></trkpt><trkpt lat="43.505487820859734" lon="11.086244436914152"><ele>76.0</ele><time>2026-04-25T07:44:00Z</time></trkpt><trkpt lat="43.505351893684846" lon="11.086378170704112"><ele>76.5</ele><time>2026-04-25T07:44:01Z</time></trkpt><trkpt lat="43.5052246516653" lon="11.08650184761689"><ele>77.0</ele><time>2026-04-25T07:44:02Z</time></trkpt><trkpt lat="43.50510937144737" lon="11.086614462077396"><ele>77.5</ele><time>2026-04-25T07:44:03Z</time></trkpt><trkpt lat="43.505001120327265" lon="11.086722200978235"><ele>78.0</ele><time>2026-04-25T07:44:04Z</time></trkpt><trkpt lat="43.504900230826415" lon="11.086823988900239"><ele>78.0</ele><time>2026-04-25T07:44:05Z</time></trkpt><trkpt lat="43.50480561890217" lon="11.086911606179962"><ele>78.0</ele><time>2026-04-25T07:44:06Z</time></trkpt><trkpt lat="43.50470983107401" lon="11.086982674535113"><ele>78.0</ele><time>2026-04-25T07:44:07Z</time></trkpt><trkpt lat="43.50461507541818" lon="11.087029683816464"><ele>78.0</ele><time>2026-04-25T07:44:08Z</time></trkpt><trkpt lat="43.504532370774186" lon="11.0870720625956"><ele>78.0</ele><time>2026-04-25T07:44:09Z</time></trkpt><trkpt lat="43.504459461833335" lon="11.087155658091657"><ele>78.0</ele><time>2026-04-25T07:44:09.999Z</time></trkpt><trkpt lat="43.504403257974054" lon="11.087280545299508"><ele>78.0</ele><time>2026-04-25T07:44:10.999Z</time></trkpt><trkpt lat="43.50435473963022" lon="11.087432106641465"><ele>78.0</ele><time>2026-04-25T07:44:11.999Z</time></trkpt><trkpt lat="43.50428709272055" lon="11.08759221017488"><ele>78.0</ele><time>2026-04-25T07:44:12.999Z</time></trkpt><trkpt lat="43.50419098557716" lon="11.087749253500544"><ele>77.66666666666667</ele><time>2026-04-25T07:44:13.999Z</time></trkpt><trkpt lat="43.50407149711373" lon="11.087913457027254"><ele>77.33333333333334</ele><time>2026-04-25T07:44:14.999Z</time></trkpt><trkpt lat="43.50394686079807" lon="11.088070273174644"><ele>77.0</ele><time>2026-04-25T07:44:15.999Z</time></trkpt><trkpt lat="43.50382123863387" lon="11.088229154636439"><ele>77.0</ele><time>2026-04-25T07:44:16.999Z</time></trkpt><trkpt lat="43.50368675196767" lon="11.088401466238132"><ele>77.0</ele><time>2026-04-25T07:44:17.999Z</time></trkpt><trkpt lat="43.50354148562182" lon="11.088591228962015"><ele>77.0</ele><time>2026-04-25T07:44:18.999Z</time></trkpt><trkpt lat="43.50339183360631" lon="11.088782469949487"><ele>77.0</ele><time>2026-04-25T07:44:19.999Z</time></trkpt><trkpt lat="43.503246702040904" lon="11.088968216780511"><ele>77.0</ele><time>2026-04-25T07:44:20.999Z</time></trkpt><trkpt lat="43.503101629515555" lon="11.089160710694728"><ele>77.0</ele><time>2026-04-25T07:44:21.999Z</time></trkpt><trkpt lat="43.502954794434736" lon="11.089353811076146"><ele>77.0</ele><time>2026-04-25T07:44:22.999Z</time></trkpt><trkpt lat="43.50280473516028" lon="11.089548098785208"><ele>77.0</ele><time>2026-04-25T07:44:23.999Z</time></trkpt><trkpt lat="43.50265719201721" lon="11.089738743828034"><ele>77.0</ele><time>2026-04-25T07:44:24.999Z</time></trkpt><trkpt lat="43.50251175864203" lon="11.089927536379241"><ele>77.0</ele><time>2026-04-25T07:44:25.999Z</time></trkpt><trkpt lat="43.50236768571943" lon="11.09011356366058"><ele>77.0</ele><time>2026-04-25T07:44:26.999Z</time></trkpt><trkpt lat="43.50222529084544" lon="11.090298835671046"><ele>77.0</ele><time>2026-04-25T07:44:27.999Z</time></trkpt><trkpt lat="43.50208223930395" lon="11.090482923539644"><ele>77.0</ele><time>2026-04-25T07:44:28.999Z</time></trkpt><trkpt lat="43.50194074572284" lon="11.090667907636474"><ele>77.0</ele><time>2026-04-25T07:44:29.999Z</time></trkpt><trkpt lat="43.501798297306934" lon="11.090854237283962"><ele>77.0</ele><time>2026-04-25T07:44:30.999Z</time></trkpt><trkpt lat="43.501651285327114" lon="11.091040984244364"><ele>77.0</ele><time>2026-04-25T07:44:31.999Z</time></trkpt><trkpt lat="43.501502461691295" lon="11.091232701407368"><ele>77.0</ele><time>2026-04-25T07:44:32.999Z</time></trkpt><trkpt lat="43.50135270379829" lon="11.09142906486237"><ele>77.0</ele><time>2026-04-25T07:44:33.999Z</time></trkpt><trkpt lat="43.50120043205895" lon="11.091627457133361"><ele>77.66666666666667</ele><time>2026-04-25T07:44:34.999Z</time></trkpt><trkpt lat="43.50104928915481" lon="11.091824984984992"><ele>78.33333333333333</ele><time>2026-04-25T07:44:35.999Z</time></trkpt><trkpt lat="43.500897145138815" lon="11.092027598289665"><ele>79.0</ele><time>2026-04-25T07:44:36.999Z</time></trkpt><trkpt lat="43.50074306777771" lon="11.092227312631051"><ele>79.0</ele><time>2026-04-25T07:44:37.999Z</time></trkpt><trkpt lat="43.50058816775536" lon="11.092426828179285"><ele>79.0</ele><time>2026-04-25T07:44:38.999Z</time></trkpt><trkpt lat="43.50043189742851" lon="11.092628255449219"><ele>79.0</ele><time>2026-04-25T07:44:39.999Z</time></trkpt><trkpt lat="43.5002739661153" lon="11.092831336805538"><ele>79.0</ele><time>2026-04-25T07:44:40.999Z</time></trkpt><trkpt lat="43.500116384157046" lon="11.093035444896056"><ele>79.0</ele><time>2026-04-25T07:44:41.999Z</time></trkpt><trkpt lat="43.49995858271839" lon="11.093241970809899"><ele>79.0</ele><time>2026-04-25T07:44:42.999Z</time></trkpt><trkpt lat="43.499801363593534" lon="11.093449122347062"><ele>79.0</ele><time>2026-04-25T07:44:43.999Z</time></trkpt><trkpt lat="43.4996450675923" lon="11.093658307209273"><ele>79.0</ele><time>2026-04-25T07:44:44.999Z</time></trkpt><trkpt lat="43.49949578929087" lon="11.093876188690613"><ele>79.0</ele><time>2026-04-25T07:44:45.999Z</time></trkpt><trkpt lat="43.49935722185154" lon="11.094104335383314"><ele>79.0</ele><time>2026-04-25T07:44:46.999Z</time></trkpt><trkpt lat="43.4992228096013" lon="11.09433852692437"><ele>79.0</ele><time>2026-04-25T07:44:47.999Z</time></trkpt><trkpt lat="43.49909606879796" lon="11.094579377142308"><ele>79.0</ele><time>2026-04-25T07:44:48.999Z</time></trkpt><trkpt lat="43.49897247009052" lon="11.094827535442661"><ele>79.0</ele><time>2026-04-25T07:44:49.999Z</time></trkpt><trkpt lat="43.49885755672037" lon="11.095079531691434"><ele>79.0</ele><time>2026-04-25T07:44:50.999Z</time></trkpt><trkpt lat="43.49875183456913" lon="11.095336667800154"><ele>79.0</ele><time>2026-04-25T07:44:51.999Z</time></trkpt><trkpt lat="43.49865168310867" lon="11.095599880387253"><ele>79.66666666666666</ele><time>2026-04-25T07:44:52.999Z</time></trkpt><trkpt lat="43.49855682384931" lon="11.09587115608722"><ele>80.33333333333333</ele><time>2026-04-25T07:44:53.999Z</time></trkpt><trkpt lat="43.49846843305965" lon="11.096150748761003"><ele>81.0</ele><time>2026-04-25T07:44:54.999Z</time></trkpt><trkpt lat="43.498385585978156" lon="11.09643635690217"><ele>80.66666666666667</ele><time>2026-04-25T07:44:55.998Z</time></trkpt><trkpt lat="43.49830635726386" lon="11.09672267717307"><ele>80.33333333333334</ele><time>2026-04-25T07:44:56.998Z</time></trkpt><trkpt lat="43.498225826353355" lon="11.097008353711326"><ele>80.0</ele><time>2026-04-25T07:44:57.998Z</time></trkpt><trkpt lat="43.49814568743308" lon="11.09729621845433"><ele>79.66666666666667</ele><time>2026-04-25T07:44:58.998Z</time></trkpt><trkpt lat="43.49806700621497" lon="11.097581735140789"><ele>79.33333333333333</ele><time>2026-04-25T07:44:59.998Z</time></trkpt><trkpt lat="43.49798802090567" lon="11.09786773571674"><ele>79.0</ele><time>2026-04-25T07:45:00.998Z</time></trkpt><trkpt lat="43.49790744909804" lon="11.09815440520817"><ele>78.33333333333333</ele><time>2026-04-25T07:45:01.998Z</time></trkpt><trkpt lat="43.49782732993548" lon="11.098441287032156"><ele>77.66666666666667</ele><time>2026-04-25T07:45:02.998Z</time></trkpt><trkpt lat="43.497747769695714" lon="11.098727077534695"><ele>77.0</ele><time>2026-04-25T07:45:03.998Z</time></trkpt><trkpt lat="43.49766834187084" lon="11.099013549219732"><ele>77.0</ele><time>2026-04-25T07:45:04.998Z</time></trkpt><trkpt lat="43.49758472813272" lon="11.099296277040589"><ele>77.0</ele><time>2026-04-25T07:45:05.998Z</time></trkpt><trkpt lat="43.49749151260571" lon="11.099577390175956"><ele>77.0</ele><time>2026-04-25T07:45:06.998Z</time></trkpt><trkpt lat="43.49738867430276" lon="11.099853858891228"><ele>77.5</ele><time>2026-04-25T07:45:07.998Z</time></trkpt><trkpt lat="43.49727483269271" lon="11.100120368525811"><ele>78.0</ele><time>2026-04-25T07:45:08.998Z</time></trkpt><trkpt lat="43.49715451253394" lon="11.100384301826958"><ele>78.0</ele><time>2026-04-25T07:45:09.998Z</time></trkpt><trkpt lat="43.49702998139743" lon="11.100642417674418"><ele>78.0</ele><time>2026-04-25T07:45:10.998Z</time></trkpt><trkpt lat="43.49690212390561" lon="11.100892695838477"><ele>78.0</ele><time>2026-04-25T07:45:11.998Z</time></trkpt><trkpt lat="43.496766018419784" lon="11.101127254649153"><ele>78.0</ele><time>2026-04-25T07:45:12.998Z</time></trkpt><trkpt lat="43.49662610486003" lon="11.101343600082442"><ele>78.0</ele><time>2026-04-25T07:45:13.998Z</time></trkpt><trkpt lat="43.49648893814302" lon="11.101538784601198"><ele>78.0</ele><time>2026-04-25T07:45:14.998Z</time></trkpt><trkpt lat="43.496359597817566" lon="11.10172271024697"><ele>79.0</ele><time>2026-04-25T07:45:15.998Z</time></trkpt><trkpt lat="43.496239691795886" lon="11.101896754896238"><ele>80.0</ele><time>2026-04-25T07:45:16.998Z</time></trkpt><trkpt lat="43.49612828163149" lon="11.102060276000596"><ele>81.0</ele><time>2026-04-25T07:45:17.998Z</time></trkpt><trkpt lat="43.496023045518534" lon="11.102213271594957"><ele>81.0</ele><time>2026-04-25T07:45:18.998Z</time></trkpt><trkpt lat="43.49592432812599" lon="11.102351770956828"><ele>81.0</ele><time>2026-04-25T07:45:19.998Z</time></trkpt><trkpt lat="43.49582974835958" lon="11.102478514940694"><ele>81.0</ele><time>2026-04-25T07:45:20.998Z</time></trkpt><trkpt lat="43.495743425864816" lon="11.102588256360491"><ele>81.0</ele><time>2026-04-25T07:45:21.998Z</time></trkpt><trkpt lat="43.49566426473623" lon="11.10268522051226"><ele>81.0</ele><time>2026-04-25T07:45:22.998Z</time></trkpt><trkpt lat="43.49559204364683" lon="11.102768426784447"><ele>81.0</ele><time>2026-04-25T07:45:23.998Z</time></trkpt><trkpt lat="43.49552050701524" lon="11.102841878663023"><ele>81.0</ele><time>2026-04-25T07:45:24.998Z</time></trkpt><trkpt lat="43.49544786398064" lon="11.102896483386901"><ele>81.0</ele><time>2026-04-25T07:45:25.998Z</time></trkpt><trkpt lat="43.49535153780028" lon="11.102934897779567"><ele>81.0</ele><time>2026-04-25T07:45:26.998Z</time></trkpt><trkpt lat="43.495290658456724" lon="11.102972755483313"><ele>81.0</ele><time>2026-04-25T07:45:27.998Z</time></trkpt><trkpt lat="43.49518677345601" lon="11.103003801968955"><ele>82.0</ele><time>2026-04-25T07:45:29.998Z</time></trkpt><trkpt lat="43.49513318150324" lon="11.103285381867032"><ele>83.0</ele><time>2026-04-25T07:45:30.998Z</time></trkpt><trkpt lat="43.495050161634246" lon="11.103373932308603"><ele>84.0</ele><time>2026-04-25T07:45:31.998Z</time></trkpt><trkpt lat="43.49502732446278" lon="11.103641045066162"><ele>84.0</ele><time>2026-04-25T07:45:32.998Z</time></trkpt><trkpt lat="43.49492681352593" lon="11.10379961110927"><ele>84.0</ele><time>2026-04-25T07:45:33.998Z</time></trkpt><trkpt lat="43.49481397888468" lon="11.103966035428718"><ele>84.0</ele><time>2026-04-25T07:45:34.998Z</time></trkpt><trkpt lat="43.494705061398975" lon="11.10412907442023"><ele>84.0</ele><time>2026-04-25T07:45:35.998Z</time></trkpt><trkpt lat="43.49458719910482" lon="11.104305615214729"><ele>84.0</ele><time>2026-04-25T07:45:36.998Z</time></trkpt><trkpt lat="43.49446252713093" lon="11.104493100663419"><ele>84.0</ele><time>2026-04-25T07:45:37.998Z</time></trkpt><trkpt lat="43.49433528289963" lon="11.104682501906751"><ele>84.0</ele><time>2026-04-25T07:45:38.998Z</time></trkpt><trkpt lat="43.494204395904426" lon="11.104872674493963"><ele>84.0</ele><time>2026-04-25T07:45:39.998Z</time></trkpt><trkpt lat="43.49406993102501" lon="11.105064824922186"><ele>84.0</ele><time>2026-04-25T07:45:40.998Z</time></trkpt><trkpt lat="43.493932271090166" lon="11.10526197936675"><ele>84.0</ele><time>2026-04-25T07:45:41.998Z</time></trkpt><trkpt lat="43.49379389971906" lon="11.105461022350143"><ele>84.0</ele><time>2026-04-25T07:45:42.997Z</time></trkpt><trkpt lat="43.49366326913494" lon="11.10565806502469"><ele>84.0</ele><time>2026-04-25T07:45:43.997Z</time></trkpt><trkpt lat="43.49353252320843" lon="11.105860520139696"><ele>84.0</ele><time>2026-04-25T07:45:44.997Z</time></trkpt><trkpt lat="43.49339617303939" lon="11.1060634965782"><ele>84.0</ele><time>2026-04-25T07:45:45.997Z</time></trkpt><trkpt lat="43.493255714350724" lon="11.106281316485193"><ele>84.0</ele><time>2026-04-25T07:45:46.997Z</time></trkpt><trkpt lat="43.493105648773" lon="11.106514787975865"><ele>84.0</ele><time>2026-04-25T07:45:48Z</time></trkpt><trkpt lat="43.492940729847625" lon="11.106753059777217"><ele>84.0</ele><time>2026-04-25T07:45:49Z</time></trkpt><trkpt lat="43.49277453768116" lon="11.106996407427163"><ele>84.0</ele><time>2026-04-25T07:45:50Z</time></trkpt><trkpt lat="43.49260710784129" lon="11.107236659361272"><ele>84.0</ele><time>2026-04-25T07:45:51Z</time></trkpt><trkpt lat="43.4924354604192" lon="11.107465902353201"><ele>83.0</ele><time>2026-04-25T07:45:52Z</time></trkpt><trkpt lat="43.492263898694866" lon="11.107687849606602"><ele>82.0</ele><time>2026-04-25T07:45:53Z</time></trkpt><trkpt lat="43.49209970538839" lon="11.107912993558474"><ele>82.33333333333333</ele><time>2026-04-25T07:45:54Z</time></trkpt><trkpt lat="43.4919440258517" lon="11.108135886542119"><ele>82.66666666666667</ele><time>2026-04-25T07:45:55Z</time></trkpt><trkpt lat="43.49179161299208" lon="11.108350784517212"><ele>83.0</ele><time>2026-04-25T07:45:56Z</time></trkpt><trkpt lat="43.49163935820896" lon="11.108552989144675"><ele>83.0</ele><time>2026-04-25T07:45:57Z</time></trkpt><trkpt lat="43.49148921147691" lon="11.108742328566024"><ele>83.0</ele><time>2026-04-25T07:45:58Z</time></trkpt><trkpt lat="43.49134072269155" lon="11.10892452290356"><ele>83.0</ele><time>2026-04-25T07:45:59Z</time></trkpt><trkpt lat="43.491189600015105" lon="11.109112708581884"><ele>84.33333333333334</ele><time>2026-04-25T07:46:00Z</time></trkpt><trkpt lat="43.49103336497931" lon="11.10931382813259"><ele>85.66666666666667</ele><time>2026-04-25T07:46:01Z</time></trkpt><trkpt lat="43.490862897147586" lon="11.109525675871343"><ele>87.0</ele><time>2026-04-25T07:46:02Z</time></trkpt><trkpt lat="43.490673980840704" lon="11.109734130640968"><ele>86.5</ele><time>2026-04-25T07:46:03Z</time></trkpt><trkpt lat="43.49047205831764" lon="11.109941465585916"><ele>86.0</ele><time>2026-04-25T07:46:04Z</time></trkpt><trkpt lat="43.490267819949246" lon="11.110150547809562"><ele>86.0</ele><time>2026-04-25T07:46:05Z</time></trkpt><trkpt lat="43.49006110011136" lon="11.11035570579002"><ele>86.0</ele><time>2026-04-25T07:46:06Z</time></trkpt><trkpt lat="43.48985113221896" lon="11.11054926577534"><ele>86.0</ele><time>2026-04-25T07:46:07Z</time></trkpt><trkpt lat="43.489645526412176" lon="11.110737641173884"><ele>86.0</ele><time>2026-04-25T07:46:08Z</time></trkpt><trkpt lat="43.48944261061485" lon="11.110935522771348"><ele>87.0</ele><time>2026-04-25T07:46:09Z</time></trkpt><trkpt lat="43.489243933084225" lon="11.111139968350594"><ele>88.0</ele><time>2026-04-25T07:46:10Z</time></trkpt><trkpt lat="43.48904667234898" lon="11.11134154137977"><ele>88.0</ele><time>2026-04-25T07:46:11Z</time></trkpt><trkpt lat="43.488849152267605" lon="11.11154112793326"><ele>88.0</ele><time>2026-04-25T07:46:12Z</time></trkpt><trkpt lat="43.48865113285568" lon="11.11173632192116"><ele>88.0</ele><time>2026-04-25T07:46:13Z</time></trkpt><trkpt lat="43.48845650671706" lon="11.111937710289956"><ele>88.0</ele><time>2026-04-25T07:46:14Z</time></trkpt><trkpt lat="43.48826480421799" lon="11.112139723042556"><ele>88.0</ele><time>2026-04-25T07:46:15Z</time></trkpt><trkpt lat="43.488074755634194" lon="11.112342216851516"><ele>88.0</ele><time>2026-04-25T07:46:16Z</time></trkpt><trkpt lat="43.48788835454187" lon="11.112545858827117"><ele>87.5</ele><time>2026-04-25T07:46:17Z</time></trkpt><trkpt lat="43.48770955138922" lon="11.11276138916234"><ele>87.0</ele><time>2026-04-25T07:46:18Z</time></trkpt><trkpt lat="43.48754124674676" lon="11.112987959845803"><ele>87.0</ele><time>2026-04-25T07:46:19Z</time></trkpt><trkpt lat="43.48738287073673" lon="11.113220529367956"><ele>87.0</ele><time>2026-04-25T07:46:20Z</time></trkpt><trkpt lat="43.487230284793895" lon="11.113455773007713"><ele>87.0</ele><time>2026-04-25T07:46:21Z</time></trkpt><trkpt lat="43.48708901263419" lon="11.113692559831392"><ele>87.0</ele><time>2026-04-25T07:46:22Z</time></trkpt><trkpt lat="43.48695609704526" lon="11.113932646808973"><ele>87.0</ele><time>2026-04-25T07:46:23Z</time></trkpt><trkpt lat="43.486831310775656" lon="11.114175998863915"><ele>86.0</ele><time>2026-04-25T07:46:24Z</time></trkpt><trkpt lat="43.48671745866719" lon="11.114418730766378"><ele>85.0</ele><time>2026-04-25T07:46:24.999Z</time></trkpt><trkpt lat="43.48661365678806" lon="11.114665478755775"><ele>84.0</ele><time>2026-04-25T07:46:25.999Z</time></trkpt><trkpt lat="43.48651370181195" lon="11.114914085401574"><ele>84.0</ele><time>2026-04-25T07:46:26.999Z</time></trkpt><trkpt lat="43.48641690078934" lon="11.115168494900647"><ele>84.0</ele><time>2026-04-25T07:46:27.999Z</time></trkpt><trkpt lat="43.486321988460375" lon="11.115426135499437"><ele>84.0</ele><time>2026-04-25T07:46:28.999Z</time></trkpt><trkpt lat="43.486226304884006" lon="11.115691337832523"><ele>84.66666666666667</ele><time>2026-04-25T07:46:29.999Z</time></trkpt><trkpt lat="43.48613373143091" lon="11.115963906027908"><ele>85.33333333333334</ele><time>2026-04-25T07:46:30.999Z</time></trkpt><trkpt lat="43.48604133094039" lon="11.116236152459273"><ele>86.0</ele><time>2026-04-25T07:46:31.999Z</time></trkpt><trkpt lat="43.485945299010545" lon="11.116505746307913"><ele>84.66666666666667</ele><time>2026-04-25T07:46:32.999Z</time></trkpt><trkpt lat="43.48584674167354" lon="11.116775713928181"><ele>83.33333333333333</ele><time>2026-04-25T07:46:33.999Z</time></trkpt><trkpt lat="43.48574811059643" lon="11.117049218796195"><ele>82.0</ele><time>2026-04-25T07:46:34.999Z</time></trkpt><trkpt lat="43.485646172639825" lon="11.11732501812804"><ele>82.0</ele><time>2026-04-25T07:46:35.999Z</time></trkpt><trkpt lat="43.48553492434693" lon="11.117607871414505"><ele>82.0</ele><time>2026-04-25T07:46:36.999Z</time></trkpt><trkpt lat="43.48541357396207" lon="11.117890265987592"><ele>83.0</ele><time>2026-04-25T07:46:37.999Z</time></trkpt><trkpt lat="43.48528029018713" lon="11.118173368994675"><ele>84.0</ele><time>2026-04-25T07:46:38.999Z</time></trkpt><trkpt lat="43.48513341229562" lon="11.118449064523453"><ele>84.5</ele><time>2026-04-25T07:46:39.999Z</time></trkpt><trkpt lat="43.484977040295924" lon="11.118714724935248"><ele>85.0</ele><time>2026-04-25T07:46:40.999Z</time></trkpt><trkpt lat="43.484811892387626" lon="11.118972145951734"><ele>84.0</ele><time>2026-04-25T07:46:41.999Z</time></trkpt><trkpt lat="43.48464347542321" lon="11.119223173820558"><ele>83.0</ele><time>2026-04-25T07:46:42.999Z</time></trkpt><trkpt lat="43.484468709744895" lon="11.119471151455771"><ele>82.5</ele><time>2026-04-25T07:46:43.999Z</time></trkpt><trkpt lat="43.48429368772763" lon="11.11972284060949"><ele>82.0</ele><time>2026-04-25T07:46:44.999Z</time></trkpt><trkpt lat="43.48411799681084" lon="11.119977708273773"><ele>83.5</ele><time>2026-04-25T07:46:45.999Z</time></trkpt><trkpt lat="43.483946783051216" lon="11.120240721288404"><ele>85.0</ele><time>2026-04-25T07:46:46.999Z</time></trkpt><trkpt lat="43.483776814471796" lon="11.120506842817559"><ele>84.0</ele><time>2026-04-25T07:46:47.999Z</time></trkpt><trkpt lat="43.48360959580265" lon="11.120777091551883"><ele>83.0</ele><time>2026-04-25T07:46:48.999Z</time></trkpt><trkpt lat="43.483437526412835" lon="11.121042746307495"><ele>83.0</ele><time>2026-04-25T07:46:49.999Z</time></trkpt><trkpt lat="43.483273482043714" lon="11.121315845451186"><ele>83.0</ele><time>2026-04-25T07:46:50.999Z</time></trkpt><trkpt lat="43.483122120537324" lon="11.121601622622448"><ele>83.5</ele><time>2026-04-25T07:46:51.999Z</time></trkpt><trkpt lat="43.48298569490527" lon="11.121905744121785"><ele>84.0</ele><time>2026-04-25T07:46:52.999Z</time></trkpt><trkpt lat="43.48285910061588" lon="11.122220811960101"><ele>84.0</ele><time>2026-04-25T07:46:53.999Z</time></trkpt><trkpt lat="43.482738294830554" lon="11.122538183691262"><ele>84.0</ele><time>2026-04-25T07:46:54.999Z</time></trkpt><trkpt lat="43.4826310470282" lon="11.122863050455035"><ele>84.0</ele><time>2026-04-25T07:46:55.999Z</time></trkpt><trkpt lat="43.48253802231609" lon="11.123189720455777"><ele>84.0</ele><time>2026-04-25T07:46:56.999Z</time></trkpt><trkpt lat="43.48245976184986" lon="11.123521106760734"><ele>84.5</ele><time>2026-04-25T07:46:57.999Z</time></trkpt><trkpt lat="43.48239239767513" lon="11.123853689401695"><ele>85.0</ele><time>2026-04-25T07:46:58.999Z</time></trkpt><trkpt lat="43.48234035814285" lon="11.124192861005469"><ele>85.5</ele><time>2026-04-25T07:46:59.999Z</time></trkpt><trkpt lat="43.48230295924559" lon="11.124537057369531"><ele>86.0</ele><time>2026-04-25T07:47:00.999Z</time></trkpt><trkpt lat="43.482276824656985" lon="11.12488291061721"><ele>87.0</ele><time>2026-04-25T07:47:01.999Z</time></trkpt><trkpt lat="43.48226047748085" lon="11.125230944418321"><ele>88.0</ele><time>2026-04-25T07:47:02.999Z</time></trkpt><trkpt lat="43.48224716387156" lon="11.12558163001778"><ele>87.0</ele><time>2026-04-25T07:47:03.999Z</time></trkpt><trkpt lat="43.48223647529856" lon="11.12593173450655"><ele>86.0</ele><time>2026-04-25T07:47:04.999Z</time></trkpt><trkpt lat="43.48222986103265" lon="11.126279588284882"><ele>86.0</ele><time>2026-04-25T07:47:05.999Z</time></trkpt><trkpt lat="43.482226692354445" lon="11.126626201631385"><ele>86.0</ele><time>2026-04-25T07:47:06.999Z</time></trkpt><trkpt lat="43.48222730976429" lon="11.126973093212323"><ele>86.0</ele><time>2026-04-25T07:47:07.999Z</time></trkpt><trkpt lat="43.48223019552546" lon="11.127315416720936"><ele>86.0</ele><time>2026-04-25T07:47:08.999Z</time></trkpt><trkpt lat="43.4822345068653" lon="11.127646536864486"><ele>85.5</ele><time>2026-04-25T07:47:09.999Z</time></trkpt><trkpt lat="43.4822395056841" lon="11.127974827135246"><ele>85.0</ele><time>2026-04-25T07:47:10.999Z</time></trkpt><trkpt lat="43.48224889402754" lon="11.128301716883845"><ele>84.5</ele><time>2026-04-25T07:47:11.998Z</time></trkpt><trkpt lat="43.48226077552309" lon="11.12862439268257"><ele>84.0</ele><time>2026-04-25T07:47:12.998Z</time></trkpt><trkpt lat="43.482274624385575" lon="11.128943976161182"><ele>85.5</ele><time>2026-04-25T07:47:13.998Z</time></trkpt><trkpt lat="43.482294864597854" lon="11.129261544464333"><ele>87.0</ele><time>2026-04-25T07:47:14.998Z</time></trkpt><trkpt lat="43.48231327073685" lon="11.12957732637573"><ele>88.5</ele><time>2026-04-25T07:47:15.998Z</time></trkpt><trkpt lat="43.482326851877446" lon="11.129892580062773"><ele>90.0</ele><time>2026-04-25T07:47:16.998Z</time></trkpt><trkpt lat="43.482343917144995" lon="11.130204708829387"><ele>90.0</ele><time>2026-04-25T07:47:17.998Z</time></trkpt><trkpt lat="43.48236680729406" lon="11.13051497473406"><ele>90.0</ele><time>2026-04-25T07:47:18.998Z</time></trkpt><trkpt lat="43.48238913738405" lon="11.130824868647148"><ele>93.0</ele><time>2026-04-25T07:47:19.998Z</time></trkpt><trkpt lat="43.4824041085982" lon="11.131136238105888"><ele>96.0</ele><time>2026-04-25T07:47:20.998Z</time></trkpt><trkpt lat="43.482422147158466" lon="11.131448062571016"><ele>97.0</ele><time>2026-04-25T07:47:21.998Z</time></trkpt><trkpt lat="43.48244326390875" lon="11.131762869186598"><ele>98.0</ele><time>2026-04-25T07:47:22.998Z</time></trkpt><trkpt lat="43.48246454402495" lon="11.132075352721415"><ele>99.0</ele><time>2026-04-25T07:47:23.998Z</time></trkpt><trkpt lat="43.48248480485714" lon="11.13238994516996"><ele>100.0</ele><time>2026-04-25T07:47:24.998Z</time></trkpt><trkpt lat="43.482502794904654" lon="11.132705974953286"><ele>100.0</ele><time>2026-04-25T07:47:25.998Z</time></trkpt><trkpt lat="43.48251980921761" lon="11.13302143726807"><ele>100.0</ele><time>2026-04-25T07:47:26.998Z</time></trkpt><trkpt lat="43.48253864303207" lon="11.133333786528107"><ele>101.0</ele><time>2026-04-25T07:47:27.998Z</time></trkpt><trkpt lat="43.482560126555626" lon="11.133643303503867"><ele>102.0</ele><time>2026-04-25T07:47:28.998Z</time></trkpt><trkpt lat="43.48257873627498" lon="11.133953174212893"><ele>102.66666666666666</ele><time>2026-04-25T07:47:29.998Z</time></trkpt><trkpt lat="43.482592891697124" lon="11.134257829415422"><ele>103.33333333333333</ele><time>2026-04-25T07:47:30.998Z</time></trkpt><trkpt lat="43.4826096364175" lon="11.134559814683936"><ele>104.0</ele><time>2026-04-25T07:47:31.998Z</time></trkpt><trkpt lat="43.48263099348172" lon="11.13485876520738"><ele>104.0</ele><time>2026-04-25T07:47:32.998Z</time></trkpt><trkpt lat="43.482651103192644" lon="11.135156285753563"><ele>104.0</ele><time>2026-04-25T07:47:33.998Z</time></trkpt><trkpt lat="43.48266975518641" lon="11.135455006984754"><ele>104.0</ele><time>2026-04-25T07:47:34.998Z</time></trkpt><trkpt lat="43.48268894665521" lon="11.135754588412015"><ele>104.0</ele><time>2026-04-25T07:47:35.998Z</time></trkpt><trkpt lat="43.482707684804986" lon="11.136056029444267"><ele>104.0</ele><time>2026-04-25T07:47:36.998Z</time></trkpt><trkpt lat="43.48272376041596" lon="11.136362725707375"><ele>104.0</ele><time>2026-04-25T07:47:37.998Z</time></trkpt><trkpt lat="43.48273746201848" lon="11.136674301311619"><ele>104.0</ele><time>2026-04-25T07:47:38.998Z</time></trkpt><trkpt lat="43.48275632381884" lon="11.136997167470403"><ele>104.0</ele><time>2026-04-25T07:47:39.998Z</time></trkpt><trkpt lat="43.482778916677255" lon="11.137322153875745"><ele>103.5</ele><time>2026-04-25T07:47:40.998Z</time></trkpt><trkpt lat="43.48280152198055" lon="11.137643809429681"><ele>103.0</ele><time>2026-04-25T07:47:41.998Z</time></trkpt><trkpt lat="43.48282149798316" lon="11.137963980336156"><ele>102.5</ele><time>2026-04-25T07:47:42.998Z</time></trkpt><trkpt lat="43.482839852090855" lon="11.138285395576547"><ele>102.0</ele><time>2026-04-25T07:47:43.998Z</time></trkpt><trkpt lat="43.48286080342326" lon="11.138603771661447"><ele>102.0</ele><time>2026-04-25T07:47:44.998Z</time></trkpt><trkpt lat="43.482883095917465" lon="11.138919658905714"><ele>102.0</ele><time>2026-04-25T07:47:45.998Z</time></trkpt><trkpt lat="43.482911751506194" lon="11.139230635555643"><ele>103.0</ele><time>2026-04-25T07:47:46.998Z</time></trkpt><trkpt lat="43.48294603296471" lon="11.13953825643405"><ele>104.0</ele><time>2026-04-25T07:47:47.998Z</time></trkpt><trkpt lat="43.48298518797434" lon="11.139839806347336"><ele>105.0</ele><time>2026-04-25T07:47:48.998Z</time></trkpt><trkpt lat="43.483035073682814" lon="11.140135142042164"><ele>105.0</ele><time>2026-04-25T07:47:49.998Z</time></trkpt><trkpt lat="43.48309610752604" lon="11.140421170664277"><ele>105.0</ele><time>2026-04-25T07:47:50.998Z</time></trkpt><trkpt lat="43.48315987139186" lon="11.140689028159702"><ele>105.0</ele><time>2026-04-25T07:47:51.998Z</time></trkpt><trkpt lat="43.48322600615875" lon="11.140945864681774"><ele>104.33333333333334</ele><time>2026-04-25T07:47:52.998Z</time></trkpt><trkpt lat="43.4832930084247" lon="11.141188826101954"><ele>103.66666666666667</ele><time>2026-04-25T07:47:54Z</time></trkpt><trkpt lat="43.4833636185522" lon="11.141416013519247"><ele>103.0</ele><time>2026-04-25T07:47:55Z</time></trkpt><trkpt lat="43.48343472012988" lon="11.14163084545702"><ele>102.75</ele><time>2026-04-25T07:47:56Z</time></trkpt><trkpt lat="43.48350568697271" lon="11.141832088072913"><ele>102.5</ele><time>2026-04-25T07:47:57Z</time></trkpt><trkpt lat="43.48357152261689" lon="11.142002698149724"><ele>102.25</ele><time>2026-04-25T07:47:58Z</time></trkpt><trkpt lat="43.48362949659294" lon="11.14214380341789"><ele>102.0</ele><time>2026-04-25T07:47:59Z</time></trkpt><trkpt lat="43.48368171905069" lon="11.14226431108261"><ele>102.0</ele><time>2026-04-25T07:48:00Z</time></trkpt><trkpt lat="43.483730306835795" lon="11.142370984514727"><ele>102.0</ele><time>2026-04-25T07:48:01Z</time></trkpt><trkpt lat="43.48378249917655" lon="11.142478318373811"><ele>102.0</ele><time>2026-04-25T07:48:02Z</time></trkpt><trkpt lat="43.48383492991969" lon="11.142583075920793"><ele>102.0</ele><time>2026-04-25T07:48:03Z</time></trkpt><trkpt lat="43.48388893300627" lon="11.142685338242389"><ele>102.0</ele><time>2026-04-25T07:48:04Z</time></trkpt><trkpt lat="43.48395009951348" lon="11.142788789419711"><ele>102.0</ele><time>2026-04-25T07:48:05Z</time></trkpt><trkpt lat="43.48401610463362" lon="11.14289855360919"><ele>102.0</ele><time>2026-04-25T07:48:06Z</time></trkpt><trkpt lat="43.48408732791384" lon="11.143019670894603"><ele>102.0</ele><time>2026-04-25T07:48:07Z</time></trkpt><trkpt lat="43.484160703852616" lon="11.143155511671036"><ele>102.0</ele><time>2026-04-25T07:48:08Z</time></trkpt><trkpt lat="43.484236709878545" lon="11.143302841907351"><ele>102.0</ele><time>2026-04-25T07:48:09Z</time></trkpt><trkpt lat="43.48432157016184" lon="11.14345796941388"><ele>102.0</ele><time>2026-04-25T07:48:10Z</time></trkpt><trkpt lat="43.484408370510664" lon="11.143621309716554"><ele>102.0</ele><time>2026-04-25T07:48:11Z</time></trkpt><trkpt lat="43.484497555502756" lon="11.14378475685258"><ele>102.0</ele><time>2026-04-25T07:48:12Z</time></trkpt><trkpt lat="43.48458915758721" lon="11.143948549264486"><ele>102.66666666666666</ele><time>2026-04-25T07:48:13Z</time></trkpt><trkpt lat="43.48468349555984" lon="11.144116099256534"><ele>103.33333333333333</ele><time>2026-04-25T07:48:14Z</time></trkpt><trkpt lat="43.48478043558398" lon="11.144284619173158"><ele>104.0</ele><time>2026-04-25T07:48:15Z</time></trkpt><trkpt lat="43.48487574712735" lon="11.144454982438004"><ele>104.0</ele><time>2026-04-25T07:48:16Z</time></trkpt><trkpt lat="43.48496916071094" lon="11.144628756539362"><ele>104.0</ele><time>2026-04-25T07:48:17Z</time></trkpt><trkpt lat="43.48506073605009" lon="11.144801080395679"><ele>104.0</ele><time>2026-04-25T07:48:18Z</time></trkpt><trkpt lat="43.4851509639579" lon="11.144968338320998"><ele>103.66666666666666</ele><time>2026-04-25T07:48:19Z</time></trkpt><trkpt lat="43.4852398954505" lon="11.145132824873619"><ele>103.33333333333334</ele><time>2026-04-25T07:48:20Z</time></trkpt><trkpt lat="43.48533179261847" lon="11.145298157048247"><ele>103.0</ele><time>2026-04-25T07:48:21Z</time></trkpt><trkpt lat="43.48542478617339" lon="11.14546564167015"><ele>103.66666666666667</ele><time>2026-04-25T07:48:22Z</time></trkpt><trkpt lat="43.48551973647422" lon="11.145634905171281"><ele>104.33333333333334</ele><time>2026-04-25T07:48:23Z</time></trkpt><trkpt lat="43.485613481360694" lon="11.145802449021287"><ele>105.0</ele><time>2026-04-25T07:48:24Z</time></trkpt><trkpt lat="43.48570914916009" lon="11.145974430786177"><ele>105.33333333333334</ele><time>2026-04-25T07:48:25Z</time></trkpt><trkpt lat="43.485804336595464" lon="11.146155372429234"><ele>105.66666666666667</ele><time>2026-04-25T07:48:26Z</time></trkpt><trkpt lat="43.48589594023706" lon="11.14634306185072"><ele>106.0</ele><time>2026-04-25T07:48:27Z</time></trkpt><trkpt lat="43.48598210850463" lon="11.146534598738864"><ele>106.0</ele><time>2026-04-25T07:48:28Z</time></trkpt><trkpt lat="43.4860595782663" lon="11.146731284585188"><ele>106.0</ele><time>2026-04-25T07:48:29Z</time></trkpt><trkpt lat="43.4861298965957" lon="11.146931426341592"><ele>106.0</ele><time>2026-04-25T07:48:30Z</time></trkpt><trkpt lat="43.486196971430154" lon="11.14713160908242"><ele>106.0</ele><time>2026-04-25T07:48:31Z</time></trkpt><trkpt lat="43.486251872105534" lon="11.14732420967834"><ele>106.0</ele><time>2026-04-25T07:48:32Z</time></trkpt><trkpt lat="43.48629642411317" lon="11.147502145509605"><ele>106.0</ele><time>2026-04-25T07:48:33Z</time></trkpt><trkpt lat="43.486330421700714" lon="11.147658597739156"><ele>106.0</ele><time>2026-04-25T07:48:34Z</time></trkpt><trkpt lat="43.48636267073872" lon="11.147804464655605"><ele>106.0</ele><time>2026-04-25T07:48:35Z</time></trkpt><trkpt lat="43.486390560709516" lon="11.14794189639913"><ele>106.0</ele><time>2026-04-25T07:48:36Z</time></trkpt><trkpt lat="43.48641469304041" lon="11.14809029893277"><ele>106.0</ele><time>2026-04-25T07:48:36.999Z</time></trkpt><trkpt lat="43.486432126405695" lon="11.148243490981342"><ele>106.0</ele><time>2026-04-25T07:48:37.999Z</time></trkpt><trkpt lat="43.48644986654435" lon="11.148391969078311"><ele>106.0</ele><time>2026-04-25T07:48:38.999Z</time></trkpt><trkpt lat="43.48646209274952" lon="11.148539789089826"><ele>106.0</ele><time>2026-04-25T07:48:39.999Z</time></trkpt><trkpt lat="43.48646985859433" lon="11.148679983331"><ele>106.0</ele><time>2026-04-25T07:48:40.999Z</time></trkpt><trkpt lat="43.48647599187947" lon="11.148827039695705"><ele>106.0</ele><time>2026-04-25T07:48:41.999Z</time></trkpt><trkpt lat="43.48647969394741" lon="11.14897411794987"><ele>106.0</ele><time>2026-04-25T07:48:42.999Z</time></trkpt><trkpt lat="43.486479643902136" lon="11.149113343718852"><ele>106.0</ele><time>2026-04-25T07:48:43.999Z</time></trkpt><trkpt lat="43.48647799932567" lon="11.149243440705972"><ele>106.14285714285715</ele><time>2026-04-25T07:48:44.999Z</time></trkpt><trkpt lat="43.486474074536574" lon="11.149362597792894"><ele>106.28571428571428</ele><time>2026-04-25T07:48:45.999Z</time></trkpt><trkpt lat="43.48646755961091" lon="11.149467225528658"><ele>106.42857142857143</ele><time>2026-04-25T07:48:46.999Z</time></trkpt><trkpt lat="43.48645889342339" lon="11.149561404008601"><ele>106.57142857142858</ele><time>2026-04-25T07:48:47.999Z</time></trkpt><trkpt lat="43.48644501898086" lon="11.149650095746145"><ele>106.71428571428572</ele><time>2026-04-25T07:48:48.999Z</time></trkpt><trkpt lat="43.48642709875478" lon="11.149735467330679"><ele>106.85714285714286</ele><time>2026-04-25T07:48:49.999Z</time></trkpt><trkpt lat="43.48640134834779" lon="11.149821458981343"><ele>107.0</ele><time>2026-04-25T07:48:50.999Z</time></trkpt><trkpt lat="43.48636506866626" lon="11.1499120617159"><ele>106.99999999999999</ele><time>2026-04-25T07:48:51.999Z</time></trkpt><trkpt lat="43.486314296502016" lon="11.150008565479082"><ele>107.0</ele><time>2026-04-25T07:48:52.999Z</time></trkpt><trkpt lat="43.48624754282024" lon="11.15010287304881"><ele>107.0</ele><time>2026-04-25T07:48:53.999Z</time></trkpt><trkpt lat="43.48618346478465" lon="11.15019266133091"><ele>107.0</ele><time>2026-04-25T07:48:54.999Z</time></trkpt><trkpt lat="43.48612788240996" lon="11.150276719249126"><ele>106.99999999999999</ele><time>2026-04-25T07:48:55.999Z</time></trkpt><trkpt lat="43.48608101105441" lon="11.150369036089277"><ele>107.0</ele><time>2026-04-25T07:48:56.999Z</time></trkpt><trkpt lat="43.48604741771691" lon="11.150471872629907"><ele>107.0</ele><time>2026-04-25T07:48:57.999Z</time></trkpt><trkpt lat="43.48603451499821" lon="11.150573523748664"><ele>106.99999999999999</ele><time>2026-04-25T07:48:58.999Z</time></trkpt><trkpt lat="43.48604506409967" lon="11.150695904018537"><ele>106.99999999999999</ele><time>2026-04-25T07:48:59.999Z</time></trkpt><trkpt lat="43.48608510726882" lon="11.150831274379637"><ele>107.0</ele><time>2026-04-25T07:49:00.999Z</time></trkpt><trkpt lat="43.48611435468554" lon="11.150952861206513"><ele>107.0</ele><time>2026-04-25T07:49:01.999Z</time></trkpt><trkpt lat="43.48613770204947" lon="11.15109213313641"><ele>107.0</ele><time>2026-04-25T07:49:02.999Z</time></trkpt><trkpt lat="43.48615067031809" lon="11.15125753911817"><ele>107.0</ele><time>2026-04-25T07:49:03.999Z</time></trkpt><trkpt lat="43.48614464179334" lon="11.151424400491596"><ele>107.0</ele><time>2026-04-25T07:49:04.999Z</time></trkpt><trkpt lat="43.486110654593595" lon="11.151597649466497"><ele>107.0</ele><time>2026-04-25T07:49:05.999Z</time></trkpt><trkpt lat="43.48604183741568" lon="11.151763584910636"><ele>107.0</ele><time>2026-04-25T07:49:06.999Z</time></trkpt><trkpt lat="43.48596343015609" lon="11.151922263585487"><ele>107.0</ele><time>2026-04-25T07:49:07.999Z</time></trkpt><trkpt lat="43.485868233038026" lon="11.15206486362478"><ele>107.0</ele><time>2026-04-25T07:49:08.999Z</time></trkpt><trkpt lat="43.48575789170435" lon="11.152190223572068"><ele>107.0</ele><time>2026-04-25T07:49:09.999Z</time></trkpt><trkpt lat="43.48563903024391" lon="11.152290475864023"><ele>107.0</ele><time>2026-04-25T07:49:10.999Z</time></trkpt><trkpt lat="43.48551018604879" lon="11.152360296831496"><ele>107.0</ele><time>2026-04-25T07:49:11.999Z</time></trkpt><trkpt lat="43.48537320096029" lon="11.152409517814489"><ele>107.0</ele><time>2026-04-25T07:49:12.999Z</time></trkpt><trkpt lat="43.485232283447935" lon="11.152436795276987"><ele>107.0</ele><time>2026-04-25T07:49:13.999Z</time></trkpt><trkpt lat="43.48508864462781" lon="11.152440373220362"><ele>107.0</ele><time>2026-04-25T07:49:14.999Z</time></trkpt><trkpt lat="43.48494727141738" lon="11.15240883183576"><ele>107.0</ele><time>2026-04-25T07:49:15.999Z</time></trkpt><trkpt lat="43.484810482770854" lon="11.152347919376462"><ele>107.0</ele><time>2026-04-25T07:49:16.999Z</time></trkpt><trkpt lat="43.48467540809036" lon="11.152258862206285"><ele>107.0</ele><time>2026-04-25T07:49:17.999Z</time></trkpt><trkpt lat="43.48454075223323" lon="11.152152732100516"><ele>108.33333333333333</ele><time>2026-04-25T07:49:18.999Z</time></trkpt><trkpt lat="43.48440191553751" lon="11.152016013077402"><ele>109.66666666666666</ele><time>2026-04-25T07:49:19.999Z</time></trkpt><trkpt lat="43.484256548046005" lon="11.151883665606189"><ele>111.0</ele><time>2026-04-25T07:49:20.999Z</time></trkpt><trkpt lat="43.48409841561444" lon="11.151745120855532"><ele>111.0</ele><time>2026-04-25T07:49:21.999Z</time></trkpt><trkpt lat="43.48394346265279" lon="11.151609335678279"><ele>111.0</ele><time>2026-04-25T07:49:22.999Z</time></trkpt><trkpt lat="43.483788574671856" lon="11.151462847757283"><ele>111.0</ele><time>2026-04-25T07:49:23.998Z</time></trkpt><trkpt lat="43.48363751590552" lon="11.151311766861939"><ele>113.66666666666666</ele><time>2026-04-25T07:49:24.998Z</time></trkpt><trkpt lat="43.48348587502427" lon="11.151161988104555"><ele>116.33333333333333</ele><time>2026-04-25T07:49:25.998Z</time></trkpt><trkpt lat="43.483328916176504" lon="11.151018469946845"><ele>119.0</ele><time>2026-04-25T07:49:26.998Z</time></trkpt><trkpt lat="43.48315499890187" lon="11.150877660257878"><ele>119.0</ele><time>2026-04-25T07:49:27.998Z</time></trkpt><trkpt lat="43.482964680063624" lon="11.150724491939476"><ele>119.0</ele><time>2026-04-25T07:49:28.998Z</time></trkpt><trkpt lat="43.4827653165861" lon="11.150563944668658"><ele>120.5</ele><time>2026-04-25T07:49:29.998Z</time></trkpt><trkpt lat="43.48255442318785" lon="11.150407563552573"><ele>122.0</ele><time>2026-04-25T07:49:30.998Z</time></trkpt><trkpt lat="43.4823275153346" lon="11.150262042740723"><ele>124.0</ele><time>2026-04-25T07:49:31.998Z</time></trkpt><trkpt lat="43.48209645014395" lon="11.15013083539185"><ele>126.0</ele><time>2026-04-25T07:49:32.998Z</time></trkpt><trkpt lat="43.48185977762563" lon="11.15002200009272"><ele>126.0</ele><time>2026-04-25T07:49:33.998Z</time></trkpt><trkpt lat="43.481614893906226" lon="11.149930723302774"><ele>126.0</ele><time>2026-04-25T07:49:34.998Z</time></trkpt><trkpt lat="43.48136635463504" lon="11.14985981055655"><ele>126.5</ele><time>2026-04-25T07:49:35.998Z</time></trkpt><trkpt lat="43.48111360836004" lon="11.14981054186846"><ele>127.0</ele><time>2026-04-25T07:49:36.998Z</time></trkpt><trkpt lat="43.480857748542405" lon="11.149777113271321"><ele>127.0</ele><time>2026-04-25T07:49:37.998Z</time></trkpt><trkpt lat="43.48059885112024" lon="11.149764758568177"><ele>127.0</ele><time>2026-04-25T07:49:38.998Z</time></trkpt><trkpt lat="43.48033842201406" lon="11.14977199794385"><ele>122.0</ele><time>2026-04-25T07:49:39.998Z</time></trkpt><trkpt lat="43.48007733946099" lon="11.149795517961692"><ele>117.0</ele><time>2026-04-25T07:49:40.998Z</time></trkpt><trkpt lat="43.47982186301537" lon="11.149839819447648"><ele>118.5</ele><time>2026-04-25T07:49:41.998Z</time></trkpt><trkpt lat="43.47956886731094" lon="11.149907045090227"><ele>120.0</ele><time>2026-04-25T07:49:42.998Z</time></trkpt><trkpt lat="43.479318024754406" lon="11.149995222144158"><ele>120.0</ele><time>2026-04-25T07:49:43.998Z</time></trkpt><trkpt lat="43.47907016086531" lon="11.150106254903584"><ele>120.0</ele><time>2026-04-25T07:49:44.998Z</time></trkpt><trkpt lat="43.47882460902563" lon="11.15023847474817"><ele>123.5</ele><time>2026-04-25T07:49:45.998Z</time></trkpt><trkpt lat="43.478580986951286" lon="11.15038232714127"><ele>127.0</ele><time>2026-04-25T07:49:46.998Z</time></trkpt><trkpt lat="43.4783349093887" lon="11.150523245935291"><ele>127.0</ele><time>2026-04-25T07:49:47.998Z</time></trkpt><trkpt lat="43.47808690330241" lon="11.150660459267348"><ele>127.0</ele><time>2026-04-25T07:49:48.998Z</time></trkpt><trkpt lat="43.47783684218243" lon="11.150799280453874"><ele>130.0</ele><time>2026-04-25T07:49:49.998Z</time></trkpt><trkpt lat="43.47758902086852" lon="11.150938440677681"><ele>133.0</ele><time>2026-04-25T07:49:50.998Z</time></trkpt><trkpt lat="43.477342194677014" lon="11.151076982289204"><ele>133.0</ele><time>2026-04-25T07:49:51.998Z</time></trkpt><trkpt lat="43.477092990628066" lon="11.151217503000115"><ele>133.0</ele><time>2026-04-25T07:49:52.998Z</time></trkpt><trkpt lat="43.4768456519782" lon="11.151358147440558"><ele>133.0</ele><time>2026-04-25T07:49:53.998Z</time></trkpt><trkpt lat="43.47659624527216" lon="11.151495234400787"><ele>133.0</ele><time>2026-04-25T07:49:54.998Z</time></trkpt><trkpt lat="43.47634767294628" lon="11.151627347832004"><ele>128.5</ele><time>2026-04-25T07:49:55.998Z</time></trkpt><trkpt lat="43.476097651606175" lon="11.151754564129122"><ele>124.0</ele><time>2026-04-25T07:49:56.998Z</time></trkpt><trkpt lat="43.475845094790564" lon="11.151868556455865"><ele>124.0</ele><time>2026-04-25T07:49:57.998Z</time></trkpt><trkpt lat="43.475587862140316" lon="11.151958247849667"><ele>124.0</ele><time>2026-04-25T07:49:58.998Z</time></trkpt><trkpt lat="43.47532601784187" lon="11.152021500771438"><ele>121.0</ele><time>2026-04-25T07:50:00Z</time></trkpt><trkpt lat="43.475063574594024" lon="11.152073722477839"><ele>118.0</ele><time>2026-04-25T07:50:01Z</time></trkpt><trkpt lat="43.47480201469215" lon="11.15212510205234"><ele>112.0</ele><time>2026-04-25T07:50:02Z</time></trkpt><trkpt lat="43.47454340984617" lon="11.152199757751127"><ele>106.0</ele><time>2026-04-25T07:50:03Z</time></trkpt><trkpt lat="43.474287533874964" lon="11.152296124347991"><ele>110.0</ele><time>2026-04-25T07:50:04Z</time></trkpt><trkpt lat="43.47403370609393" lon="11.152410855789109"><ele>114.0</ele><time>2026-04-25T07:50:05Z</time></trkpt><trkpt lat="43.47378318373965" lon="11.152537576505894"><ele>111.0</ele><time>2026-04-25T07:50:06Z</time></trkpt><trkpt lat="43.473531243839176" lon="11.152667701291021"><ele>108.0</ele><time>2026-04-25T07:50:07Z</time></trkpt><trkpt lat="43.47327638408434" lon="11.152794594170215"><ele>108.0</ele><time>2026-04-25T07:50:08Z</time></trkpt><trkpt lat="43.473019469943786" lon="11.152915714400628"><ele>108.0</ele><time>2026-04-25T07:50:09Z</time></trkpt><trkpt lat="43.47276353146304" lon="11.153038606179074"><ele>109.0</ele><time>2026-04-25T07:50:10Z</time></trkpt><trkpt lat="43.47250686664436" lon="11.153162511969315"><ele>110.0</ele><time>2026-04-25T07:50:11Z</time></trkpt><trkpt lat="43.472251298143085" lon="11.15328423501394"><ele>108.0</ele><time>2026-04-25T07:50:12Z</time></trkpt><trkpt lat="43.471996817464266" lon="11.15340000445089"><ele>106.0</ele><time>2026-04-25T07:50:13Z</time></trkpt><trkpt lat="43.471743532481796" lon="11.15351710491886"><ele>106.0</ele><time>2026-04-25T07:50:14Z</time></trkpt><trkpt lat="43.47149237559571" lon="11.153634890443083"><ele>106.0</ele><time>2026-04-25T07:50:15Z</time></trkpt><trkpt lat="43.471244087945124" lon="11.153759109527464"><ele>106.0</ele><time>2026-04-25T07:50:16Z</time></trkpt><trkpt lat="43.471001220958115" lon="11.153904387659262"><ele>106.0</ele><time>2026-04-25T07:50:17Z</time></trkpt><trkpt lat="43.47076451566221" lon="11.154071260444216"><ele>106.0</ele><time>2026-04-25T07:50:18Z</time></trkpt><trkpt lat="43.470530679894125" lon="11.154247305527994"><ele>106.0</ele><time>2026-04-25T07:50:19Z</time></trkpt><trkpt lat="43.470305339154834" lon="11.154434228928633"><ele>105.0</ele><time>2026-04-25T07:50:20Z</time></trkpt><trkpt lat="43.470088583732995" lon="11.15463344617113"><ele>104.0</ele><time>2026-04-25T07:50:21Z</time></trkpt><trkpt lat="43.46987879309362" lon="11.154841788034084"><ele>103.5</ele><time>2026-04-25T07:50:22Z</time></trkpt><trkpt lat="43.46967951502208" lon="11.15506318562035"><ele>103.0</ele><time>2026-04-25T07:50:23Z</time></trkpt><trkpt lat="43.4694851697805" lon="11.155292642376125"><ele>103.0</ele><time>2026-04-25T07:50:24Z</time></trkpt><trkpt lat="43.46929780878765" lon="11.15553126781443"><ele>103.0</ele><time>2026-04-25T07:50:25Z</time></trkpt><trkpt lat="43.46911832871784" lon="11.155781129524234"><ele>103.0</ele><time>2026-04-25T07:50:26Z</time></trkpt><trkpt lat="43.46894451072259" lon="11.156041933670227"><ele>103.0</ele><time>2026-04-25T07:50:27Z</time></trkpt><trkpt lat="43.46877775667197" lon="11.156307033179484"><ele>103.0</ele><time>2026-04-25T07:50:28Z</time></trkpt><trkpt lat="43.46861807074442" lon="11.156584168330708"><ele>103.0</ele><time>2026-04-25T07:50:29Z</time></trkpt><trkpt lat="43.46846858447452" lon="11.156875563131567"><ele>103.0</ele><time>2026-04-25T07:50:30Z</time></trkpt><trkpt lat="43.46832572102929" lon="11.157180069161226"><ele>103.0</ele><time>2026-04-25T07:50:31Z</time></trkpt><trkpt lat="43.46818749431291" lon="11.15748999277462"><ele>102.5</ele><time>2026-04-25T07:50:32Z</time></trkpt><trkpt lat="43.46804815515989" lon="11.157795885886031"><ele>102.0</ele><time>2026-04-25T07:50:33Z</time></trkpt><trkpt lat="43.46790342467648" lon="11.15810403233651"><ele>101.5</ele><time>2026-04-25T07:50:34Z</time></trkpt><trkpt lat="43.4677582246517" lon="11.158415517609793"><ele>101.0</ele><time>2026-04-25T07:50:35Z</time></trkpt><trkpt lat="43.467614675349516" lon="11.158730458624134"><ele>101.0</ele><time>2026-04-25T07:50:36Z</time></trkpt><trkpt lat="43.46746844151414" lon="11.159045334411159"><ele>101.0</ele><time>2026-04-25T07:50:37Z</time></trkpt><trkpt lat="43.4673182727318" lon="11.159356929509162"><ele>101.0</ele><time>2026-04-25T07:50:38Z</time></trkpt><trkpt lat="43.46716836734713" lon="11.159666026833115"><ele>101.0</ele><time>2026-04-25T07:50:39Z</time></trkpt><trkpt lat="43.467012386312405" lon="11.159968821292344"><ele>102.0</ele><time>2026-04-25T07:50:40Z</time></trkpt><trkpt lat="43.46684805194249" lon="11.160264201141166"><ele>103.0</ele><time>2026-04-25T07:50:41Z</time></trkpt><trkpt lat="43.46667523952873" lon="11.160547762275414"><ele>104.0</ele><time>2026-04-25T07:50:42Z</time></trkpt><trkpt lat="43.46649396034669" lon="11.160818547833173"><ele>105.0</ele><time>2026-04-25T07:50:43Z</time></trkpt><trkpt lat="43.466301862535225" lon="11.161073405425658"><ele>104.5</ele><time>2026-04-25T07:50:44Z</time></trkpt><trkpt lat="43.46610591917478" lon="11.161318855934812"><ele>104.0</ele><time>2026-04-25T07:50:45Z</time></trkpt><trkpt lat="43.46590400270114" lon="11.161554321740063"><ele>106.5</ele><time>2026-04-25T07:50:46Z</time></trkpt><trkpt lat="43.46569347967325" lon="11.161772268671097"><ele>109.0</ele><time>2026-04-25T07:50:46.999Z</time></trkpt><trkpt lat="43.4654763420555" lon="11.161977461576122"><ele>106.0</ele><time>2026-04-25T07:50:47.999Z</time></trkpt><trkpt lat="43.465253893612946" lon="11.16217273805659"><ele>103.0</ele><time>2026-04-25T07:50:48.999Z</time></trkpt><trkpt lat="43.46502788313841" lon="11.162356259754466"><ele>105.0</ele><time>2026-04-25T07:50:49.999Z</time></trkpt><trkpt lat="43.464795768656785" lon="11.162521977112192"><ele>107.0</ele><time>2026-04-25T07:50:50.999Z</time></trkpt><trkpt lat="43.46455985199183" lon="11.162674278750513"><ele>107.0</ele><time>2026-04-25T07:50:51.999Z</time></trkpt><trkpt lat="43.46431774793352" lon="11.162808129484345"><ele>107.0</ele><time>2026-04-25T07:50:52.999Z</time></trkpt><trkpt lat="43.46407197538064" lon="11.16292469072317"><ele>107.0</ele><time>2026-04-25T07:50:53.999Z</time></trkpt><trkpt lat="43.46382503933901" lon="11.163022750526002"><ele>107.0</ele><time>2026-04-25T07:50:54.999Z</time></trkpt><trkpt lat="43.46357557323472" lon="11.163107503592833"><ele>106.5</ele><time>2026-04-25T07:50:55.999Z</time></trkpt><trkpt lat="43.46332718835138" lon="11.163186581845329"><ele>106.0</ele><time>2026-04-25T07:50:56.999Z</time></trkpt><trkpt lat="43.46307929279895" lon="11.163262004284821"><ele>107.5</ele><time>2026-04-25T07:50:57.999Z</time></trkpt><trkpt lat="43.46282864162373" lon="11.163324054560091"><ele>109.0</ele><time>2026-04-25T07:50:58.999Z</time></trkpt><trkpt lat="43.4625767449708" lon="11.163368647594709"><ele>109.0</ele><time>2026-04-25T07:50:59.999Z</time></trkpt><trkpt lat="43.46232493062657" lon="11.163400277263737"><ele>109.0</ele><time>2026-04-25T07:51:00.999Z</time></trkpt><trkpt lat="43.46207213138993" lon="11.16342135890354"><ele>107.5</ele><time>2026-04-25T07:51:01.999Z</time></trkpt><trkpt lat="43.46181781555451" lon="11.16344788990282"><ele>106.0</ele><time>2026-04-25T07:51:02.999Z</time></trkpt><trkpt lat="43.46156286299477" lon="11.163483010505537"><ele>106.0</ele><time>2026-04-25T07:51:03.999Z</time></trkpt><trkpt lat="43.461303418141945" lon="11.163507584265203"><ele>106.0</ele><time>2026-04-25T07:51:04.999Z</time></trkpt><trkpt lat="43.461045736784456" lon="11.163519550612945"><ele>107.5</ele><time>2026-04-25T07:51:05.999Z</time></trkpt><trkpt lat="43.46078748021819" lon="11.163519782710251"><ele>109.0</ele><time>2026-04-25T07:51:06.999Z</time></trkpt><trkpt lat="43.46053133695732" lon="11.163494414292202"><ele>108.0</ele><time>2026-04-25T07:51:07.999Z</time></trkpt><trkpt lat="43.46027860394016" lon="11.163444932412347"><ele>107.0</ele><time>2026-04-25T07:51:08.999Z</time></trkpt><trkpt lat="43.46002894993541" lon="11.163373652517686"><ele>107.0</ele><time>2026-04-25T07:51:09.999Z</time></trkpt><trkpt lat="43.45978434491996" lon="11.163280976321108"><ele>107.0</ele><time>2026-04-25T07:51:10.999Z</time></trkpt><trkpt lat="43.4595426018905" lon="11.163175999394243"><ele>107.5</ele><time>2026-04-25T07:51:11.999Z</time></trkpt><trkpt lat="43.45930431733104" lon="11.16305983982487"><ele>108.0</ele><time>2026-04-25T07:51:12.999Z</time></trkpt><trkpt lat="43.459070407538455" lon="11.162930548691254"><ele>108.0</ele><time>2026-04-25T07:51:13.999Z</time></trkpt><trkpt lat="43.45884299380968" lon="11.162782955191686"><ele>108.0</ele><time>2026-04-25T07:51:14.999Z</time></trkpt><trkpt lat="43.45862277300927" lon="11.162617690736669"><ele>106.5</ele><time>2026-04-25T07:51:15.999Z</time></trkpt><trkpt lat="43.45840729687332" lon="11.162435697366602"><ele>105.0</ele><time>2026-04-25T07:51:16.999Z</time></trkpt><trkpt lat="43.45819951519143" lon="11.162237524292635"><ele>105.0</ele><time>2026-04-25T07:51:17.999Z</time></trkpt><trkpt lat="43.45799609833226" lon="11.16202219470354"><ele>105.0</ele><time>2026-04-25T07:51:18.999Z</time></trkpt><trkpt lat="43.45780235718455" lon="11.161785773440302"><ele>106.5</ele><time>2026-04-25T07:51:19.999Z</time></trkpt><trkpt lat="43.45761879460262" lon="11.16153577053178"><ele>108.0</ele><time>2026-04-25T07:51:20.999Z</time></trkpt><trkpt lat="43.45743546777079" lon="11.16128363581545"><ele>108.0</ele><time>2026-04-25T07:51:21.999Z</time></trkpt><trkpt lat="43.457251465655595" lon="11.161034202406189"><ele>108.0</ele><time>2026-04-25T07:51:22.999Z</time></trkpt><trkpt lat="43.457068415161935" lon="11.160787886588732"><ele>108.5</ele><time>2026-04-25T07:51:23.999Z</time></trkpt><trkpt lat="43.45689843951721" lon="11.160559030075841"><ele>109.0</ele><time>2026-04-25T07:51:24.999Z</time></trkpt><trkpt lat="43.45673356266252" lon="11.16033638558595"><ele>109.0</ele><time>2026-04-25T07:51:25.999Z</time></trkpt><trkpt lat="43.45656815318631" lon="11.160110205562145"><ele>109.0</ele><time>2026-04-25T07:51:26.999Z</time></trkpt><trkpt lat="43.45640363112495" lon="11.159884191150207"><ele>111.0</ele><time>2026-04-25T07:51:27.999Z</time></trkpt><trkpt lat="43.45623834857405" lon="11.159659711605546"><ele>113.0</ele><time>2026-04-25T07:51:28.999Z</time></trkpt><trkpt lat="43.45608272081916" lon="11.159444961645296"><ele>113.0</ele><time>2026-04-25T07:51:29.999Z</time></trkpt><trkpt lat="43.45593787147699" lon="11.159241959426062"><ele>113.0</ele><time>2026-04-25T07:51:30.999Z</time></trkpt><trkpt lat="43.455794838840184" lon="11.159042666967803"><ele>113.0</ele><time>2026-04-25T07:51:31.999Z</time></trkpt><trkpt lat="43.45564616521269" lon="11.158842509958331"><ele>114.0</ele><time>2026-04-25T07:51:32.998Z</time></trkpt><trkpt lat="43.45549428400429" lon="11.158639023226433"><ele>115.0</ele><time>2026-04-25T07:51:33.998Z</time></trkpt><trkpt lat="43.45534180600325" lon="11.15842906328581"><ele>116.0</ele><time>2026-04-25T07:51:34.998Z</time></trkpt><trkpt lat="43.455188936940736" lon="11.158211183136412"><ele>112.0</ele><time>2026-04-25T07:51:35.998Z</time></trkpt><trkpt lat="43.4550318713904" lon="11.157989126581489"><ele>108.0</ele><time>2026-04-25T07:51:36.998Z</time></trkpt><trkpt lat="43.45487211203734" lon="11.15776570222324"><ele>108.0</ele><time>2026-04-25T07:51:37.998Z</time></trkpt><trkpt lat="43.454711066661346" lon="11.15754109084289"><ele>108.0</ele><time>2026-04-25T07:51:38.998Z</time></trkpt><trkpt lat="43.454547408848285" lon="11.157319415933724"><ele>109.0</ele><time>2026-04-25T07:51:39.998Z</time></trkpt><trkpt lat="43.45438360426895" lon="11.157101328810166"><ele>110.0</ele><time>2026-04-25T07:51:40.998Z</time></trkpt><trkpt lat="43.454221687951225" lon="11.156884562331854"><ele>110.0</ele><time>2026-04-25T07:51:41.998Z</time></trkpt><trkpt lat="43.45406193759455" lon="11.15666919168453"><ele>110.0</ele><time>2026-04-25T07:51:42.998Z</time></trkpt><trkpt lat="43.45390494019346" lon="11.156457131746752"><ele>110.0</ele><time>2026-04-25T07:51:43.998Z</time></trkpt><trkpt lat="43.453745359135354" lon="11.156248689454692"><ele>110.33333333333333</ele><time>2026-04-25T07:51:44.998Z</time></trkpt><trkpt lat="43.45357893243984" lon="11.156051383011645"><ele>110.66666666666666</ele><time>2026-04-25T07:51:45.998Z</time></trkpt><trkpt lat="43.45340418794794" lon="11.155864109958184"><ele>111.0</ele><time>2026-04-25T07:51:46.998Z</time></trkpt><trkpt lat="43.45321910350529" lon="11.155684958500311"><ele>111.0</ele><time>2026-04-25T07:51:47.998Z</time></trkpt><trkpt lat="43.453024871499515" lon="11.155515082908279"><ele>111.0</ele><time>2026-04-25T07:51:48.998Z</time></trkpt><trkpt lat="43.4528233444" lon="11.155349536145494"><ele>111.0</ele><time>2026-04-25T07:51:49.998Z</time></trkpt><trkpt lat="43.452614359496756" lon="11.1551910858984"><ele>111.0</ele><time>2026-04-25T07:51:50.998Z</time></trkpt><trkpt lat="43.4523983625668" lon="11.155042285320567"><ele>111.0</ele><time>2026-04-25T07:51:51.998Z</time></trkpt><trkpt lat="43.452174459269905" lon="11.154905043270848"><ele>111.0</ele><time>2026-04-25T07:51:52.998Z</time></trkpt><trkpt lat="43.45194617858992" lon="11.154779889355586"><ele>111.0</ele><time>2026-04-25T07:51:53.998Z</time></trkpt><trkpt lat="43.45171608879754" lon="11.1546629479003"><ele>111.0</ele><time>2026-04-25T07:51:54.998Z</time></trkpt><trkpt lat="43.45148736018043" lon="11.154542581049403"><ele>116.0</ele><time>2026-04-25T07:51:55.998Z</time></trkpt><trkpt lat="43.45125738975621" lon="11.154418299473793"><ele>121.0</ele><time>2026-04-25T07:51:56.998Z</time></trkpt><trkpt lat="43.45102761364647" lon="11.15429521774065"><ele>121.0</ele><time>2026-04-25T07:51:57.998Z</time></trkpt><trkpt lat="43.45079692565535" lon="11.154173312530789"><ele>121.0</ele><time>2026-04-25T07:51:58.998Z</time></trkpt><trkpt lat="43.45056764600371" lon="11.15405203223608"><ele>122.5</ele><time>2026-04-25T07:51:59.998Z</time></trkpt><trkpt lat="43.45034013632841" lon="11.153927209977184"><ele>124.0</ele><time>2026-04-25T07:52:00.998Z</time></trkpt><trkpt lat="43.45011045042284" lon="11.15380486908081"><ele>124.0</ele><time>2026-04-25T07:52:01.998Z</time></trkpt><trkpt lat="43.44988230382323" lon="11.153680587735884"><ele>124.0</ele><time>2026-04-25T07:52:02.998Z</time></trkpt><trkpt lat="43.44965980688641" lon="11.153552868329665"><ele>122.5</ele><time>2026-04-25T07:52:03.998Z</time></trkpt><trkpt lat="43.449439598849644" lon="11.153411587940644"><ele>121.0</ele><time>2026-04-25T07:52:05Z</time></trkpt><trkpt lat="43.44922937082397" lon="11.153260386825256"><ele>116.5</ele><time>2026-04-25T07:52:06Z</time></trkpt><trkpt lat="43.44902241830927" lon="11.153099122954394"><ele>112.0</ele><time>2026-04-25T07:52:07Z</time></trkpt><trkpt lat="43.44881887999728" lon="11.152936338534102"><ele>113.0</ele><time>2026-04-25T07:52:08Z</time></trkpt><trkpt lat="43.44861827391247" lon="11.15277630954508"><ele>114.0</ele><time>2026-04-25T07:52:09Z</time></trkpt><trkpt lat="43.44842160046434" lon="11.152614687688938"><ele>114.0</ele><time>2026-04-25T07:52:10Z</time></trkpt><trkpt lat="43.44822901119684" lon="11.15244461241949"><ele>114.0</ele><time>2026-04-25T07:52:11Z</time></trkpt><trkpt lat="43.44804406809874" lon="11.152269351173059"><ele>115.0</ele><time>2026-04-25T07:52:12Z</time></trkpt><trkpt lat="43.44786533236549" lon="11.152084499750304"><ele>116.0</ele><time>2026-04-25T07:52:13Z</time></trkpt><trkpt lat="43.44768992817797" lon="11.151895029521452"><ele>117.0</ele><time>2026-04-25T07:52:14Z</time></trkpt><trkpt lat="43.447514592382845" lon="11.151708062016484"><ele>118.33333333333334</ele><time>2026-04-25T07:52:15Z</time></trkpt><trkpt lat="43.4473383603246" lon="11.15151875711972"><ele>119.66666666666667</ele><time>2026-04-25T07:52:16Z</time></trkpt><trkpt lat="43.44716448588361" lon="11.151333140190621"><ele>121.0</ele><time>2026-04-25T07:52:17Z</time></trkpt><trkpt lat="43.446991297780954" lon="11.151153022207591"><ele>121.0</ele><time>2026-04-25T07:52:18Z</time></trkpt><trkpt lat="43.44681629588472" lon="11.15097164469897"><ele>121.0</ele><time>2026-04-25T07:52:19Z</time></trkpt><trkpt lat="43.44663597180968" lon="11.15080381161265"><ele>121.0</ele><time>2026-04-25T07:52:20Z</time></trkpt><trkpt lat="43.44644734649929" lon="11.150648764084432"><ele>123.66666666666667</ele><time>2026-04-25T07:52:21Z</time></trkpt><trkpt lat="43.44624825071474" lon="11.150513970929985"><ele>126.33333333333334</ele><time>2026-04-25T07:52:22Z</time></trkpt><trkpt lat="43.44604267165539" lon="11.150401088241278"><ele>129.0</ele><time>2026-04-25T07:52:23Z</time></trkpt><trkpt lat="43.44583236583966" lon="11.15030459489506"><ele>129.0</ele><time>2026-04-25T07:52:24Z</time></trkpt><trkpt lat="43.44562029256778" lon="11.150210348830228"><ele>129.0</ele><time>2026-04-25T07:52:25Z</time></trkpt><trkpt lat="43.44540771087077" lon="11.150120378487303"><ele>129.0</ele><time>2026-04-25T07:52:26Z</time></trkpt><trkpt lat="43.445190374953036" lon="11.150045730621265"><ele>127.5</ele><time>2026-04-25T07:52:27Z</time></trkpt><trkpt lat="43.44496662390013" lon="11.149986032758445"><ele>126.0</ele><time>2026-04-25T07:52:28Z</time></trkpt><trkpt lat="43.44473447539253" lon="11.149938942825372"><ele>127.0</ele><time>2026-04-25T07:52:29Z</time></trkpt><trkpt lat="43.44449531945827" lon="11.149909837265428"><ele>128.0</ele><time>2026-04-25T07:52:30Z</time></trkpt><trkpt lat="43.4442524274091" lon="11.14989343346138"><ele>128.0</ele><time>2026-04-25T07:52:31Z</time></trkpt><trkpt lat="43.44400868933902" lon="11.149891605467516"><ele>128.0</ele><time>2026-04-25T07:52:32Z</time></trkpt><trkpt lat="43.44376687687778" lon="11.14990271656256"><ele>130.0</ele><time>2026-04-25T07:52:33Z</time></trkpt><trkpt lat="43.44352614576793" lon="11.149915318930631"><ele>132.0</ele><time>2026-04-25T07:52:34Z</time></trkpt><trkpt lat="43.44328589360531" lon="11.1499222794445"><ele>132.0</ele><time>2026-04-25T07:52:35Z</time></trkpt><trkpt lat="43.44304782767464" lon="11.149927500263527"><ele>132.0</ele><time>2026-04-25T07:52:36Z</time></trkpt><trkpt lat="43.4428108930258" lon="11.149931213165551"><ele>134.5</ele><time>2026-04-25T07:52:37Z</time></trkpt><trkpt lat="43.4425749466592" lon="11.149935052704068"><ele>137.0</ele><time>2026-04-25T07:52:38Z</time></trkpt><trkpt lat="43.44233721781683" lon="11.149938035601537"><ele>140.0</ele><time>2026-04-25T07:52:39Z</time></trkpt><trkpt lat="43.44209942725191" lon="11.149943175613975"><ele>143.0</ele><time>2026-04-25T07:52:40Z</time></trkpt><trkpt lat="43.44186077410048" lon="11.149952247811541"><ele>143.0</ele><time>2026-04-25T07:52:41Z</time></trkpt><trkpt lat="43.44162013610429" lon="11.14995648774805"><ele>143.0</ele><time>2026-04-25T07:52:42Z</time></trkpt><trkpt lat="43.44138041997738" lon="11.149953226661282"><ele>144.5</ele><time>2026-04-25T07:52:43Z</time></trkpt><trkpt lat="43.44113739964993" lon="11.149937820354044"><ele>146.0</ele><time>2026-04-25T07:52:44Z</time></trkpt><trkpt lat="43.44089491867183" lon="11.149906614552961"><ele>153.0</ele><time>2026-04-25T07:52:45Z</time></trkpt><trkpt lat="43.44065406209234" lon="11.14985735401515"><ele>160.0</ele><time>2026-04-25T07:52:46Z</time></trkpt><trkpt lat="43.440415537063" lon="11.149792299350961"><ele>160.0</ele><time>2026-04-25T07:52:47Z</time></trkpt><trkpt lat="43.44017954034289" lon="11.14970940387812"><ele>160.0</ele><time>2026-04-25T07:52:48Z</time></trkpt><trkpt lat="43.43994752756621" lon="11.149606170272921"><ele>160.0</ele><time>2026-04-25T07:52:49Z</time></trkpt><trkpt lat="43.439719408408145" lon="11.149484637856066"><ele>160.0</ele><time>2026-04-25T07:52:50Z</time></trkpt><trkpt lat="43.43949773813655" lon="11.149347037254486"><ele>160.0</ele><time>2026-04-25T07:52:51Z</time></trkpt><trkpt lat="43.43928087476444" lon="11.14919347735977"><ele>160.0</ele><time>2026-04-25T07:52:52Z</time></trkpt><trkpt lat="43.43906783882709" lon="11.149021386352306"><ele>161.0</ele><time>2026-04-25T07:52:53Z</time></trkpt><trkpt lat="43.43885507469131" lon="11.14883588467655"><ele>162.0</ele><time>2026-04-25T07:52:54Z</time></trkpt><trkpt lat="43.43864962857006" lon="11.148631605419714"><ele>162.0</ele><time>2026-04-25T07:52:55Z</time></trkpt><trkpt lat="43.43844695005053" lon="11.148411375568358"><ele>162.0</ele><time>2026-04-25T07:52:56Z</time></trkpt><trkpt lat="43.43825035449606" lon="11.148182996942758"><ele>161.5</ele><time>2026-04-25T07:52:57Z</time></trkpt><trkpt lat="43.4380543568876" lon="11.147955852760663"><ele>161.0</ele><time>2026-04-25T07:52:58Z</time></trkpt><trkpt lat="43.43785597037019" lon="11.147739750387165"><ele>161.0</ele><time>2026-04-25T07:52:59Z</time></trkpt><trkpt lat="43.43765141591675" lon="11.147538370623298"><ele>161.0</ele><time>2026-04-25T07:53:00Z</time></trkpt><trkpt lat="43.43743904188459" lon="11.14735700738202"><ele>157.5</ele><time>2026-04-25T07:53:00.999Z</time></trkpt><trkpt lat="43.43721800739086" lon="11.147198089014523"><ele>154.0</ele><time>2026-04-25T07:53:01.999Z</time></trkpt><trkpt lat="43.43698877957016" lon="11.1470522684776"><ele>153.5</ele><time>2026-04-25T07:53:02.999Z</time></trkpt><trkpt lat="43.43675650925141" lon="11.146909687808364"><ele>153.0</ele><time>2026-04-25T07:53:03.999Z</time></trkpt><trkpt lat="43.436520230327844" lon="11.146766899895585"><ele>152.0</ele><time>2026-04-25T07:53:04.999Z</time></trkpt><trkpt lat="43.43628256741495" lon="11.14662837819299"><ele>151.0</ele><time>2026-04-25T07:53:05.999Z</time></trkpt><trkpt lat="43.43604287825373" lon="11.146498151300026"><ele>147.5</ele><time>2026-04-25T07:53:06.999Z</time></trkpt><trkpt lat="43.43579964563644" lon="11.146371866781404"><ele>144.0</ele><time>2026-04-25T07:53:07.999Z</time></trkpt><trkpt lat="43.43555679137123" lon="11.146247530490015"><ele>142.0</ele><time>2026-04-25T07:53:08.999Z</time></trkpt><trkpt lat="43.43531306919378" lon="11.146122286769375"><ele>140.0</ele><time>2026-04-25T07:53:09.999Z</time></trkpt><trkpt lat="43.435070469841804" lon="11.145995912538345"><ele>140.0</ele><time>2026-04-25T07:53:10.999Z</time></trkpt><trkpt lat="43.434828596710105" lon="11.145869779227217"><ele>140.0</ele><time>2026-04-25T07:53:11.999Z</time></trkpt><trkpt lat="43.434584080142486" lon="11.145743666469619"><ele>134.0</ele><time>2026-04-25T07:53:12.999Z</time></trkpt><trkpt lat="43.43434130518469" lon="11.14561891646211"><ele>128.0</ele><time>2026-04-25T07:53:13.999Z</time></trkpt><trkpt lat="43.434098002530575" lon="11.145497437630759"><ele>128.0</ele><time>2026-04-25T07:53:14.999Z</time></trkpt><trkpt lat="43.43385388539614" lon="11.145381140413226"><ele>128.0</ele><time>2026-04-25T07:53:15.999Z</time></trkpt><trkpt lat="43.43360649975772" lon="11.145273976310413"><ele>131.0</ele><time>2026-04-25T07:53:16.999Z</time></trkpt><trkpt lat="43.43335692731045" lon="11.145165923050712"><ele>134.0</ele><time>2026-04-25T07:53:17.999Z</time></trkpt><trkpt lat="43.43311046646296" lon="11.145047336665149"><ele>137.5</ele><time>2026-04-25T07:53:18.999Z</time></trkpt><trkpt lat="43.43286446581927" lon="11.14492533197209"><ele>141.0</ele><time>2026-04-25T07:53:19.999Z</time></trkpt><trkpt lat="43.43261905822725" lon="11.144803684215557"><ele>142.5</ele><time>2026-04-25T07:53:20.999Z</time></trkpt><trkpt lat="43.43237372177169" lon="11.144680182749955"><ele>144.0</ele><time>2026-04-25T07:53:21.999Z</time></trkpt><trkpt lat="43.43212871006894" lon="11.144561199459135"><ele>144.0</ele><time>2026-04-25T07:53:22.999Z</time></trkpt><trkpt lat="43.43188242048425" lon="11.144468031536709"><ele>144.0</ele><time>2026-04-25T07:53:23.999Z</time></trkpt><trkpt lat="43.43163404472964" lon="11.144398062677821"><ele>144.0</ele><time>2026-04-25T07:53:24.999Z</time></trkpt><trkpt lat="43.43138430100912" lon="11.14435184938874"><ele>144.0</ele><time>2026-04-25T07:53:25.999Z</time></trkpt><trkpt lat="43.43113497325525" lon="11.144333696074018"><ele>145.5</ele><time>2026-04-25T07:53:26.999Z</time></trkpt><trkpt lat="43.43088491898821" lon="11.144324753321472"><ele>147.0</ele><time>2026-04-25T07:53:27.999Z</time></trkpt><trkpt lat="43.43063531880655" lon="11.144314159956389"><ele>150.0</ele><time>2026-04-25T07:53:28.999Z</time></trkpt><trkpt lat="43.43038570706605" lon="11.144313357989084"><ele>153.0</ele><time>2026-04-25T07:53:29.999Z</time></trkpt><trkpt lat="43.430135014150096" lon="11.144318474754192"><ele>153.0</ele><time>2026-04-25T07:53:30.999Z</time></trkpt><trkpt lat="43.42988270766721" lon="11.14432724646534"><ele>153.0</ele><time>2026-04-25T07:53:31.998Z</time></trkpt><trkpt lat="43.42963219067543" lon="11.144329888232452"><ele>155.0</ele><time>2026-04-25T07:53:32.998Z</time></trkpt><trkpt lat="43.42938246247585" lon="11.14432779862967"><ele>157.0</ele><time>2026-04-25T07:53:33.998Z</time></trkpt><trkpt lat="43.42913305984398" lon="11.144333381067185"><ele>157.0</ele><time>2026-04-25T07:53:34.998Z</time></trkpt><trkpt lat="43.428886202000015" lon="11.144340549515793"><ele>157.0</ele><time>2026-04-25T07:53:35.998Z</time></trkpt><trkpt lat="43.42863935687555" lon="11.144347139236626"><ele>158.5</ele><time>2026-04-25T07:53:36.998Z</time></trkpt><trkpt lat="43.4283956916979" lon="11.144349869385174"><ele>160.0</ele><time>2026-04-25T07:53:37.998Z</time></trkpt><trkpt lat="43.42815603216116" lon="11.144356595513987"><ele>161.0</ele><time>2026-04-25T07:53:38.998Z</time></trkpt><trkpt lat="43.42791936385773" lon="11.144364830834267"><ele>162.0</ele><time>2026-04-25T07:53:39.998Z</time></trkpt><trkpt lat="43.42768230229824" lon="11.144375090430072"><ele>162.0</ele><time>2026-04-25T07:53:40.998Z</time></trkpt><trkpt lat="43.42744638899092" lon="11.144397189564575"><ele>162.0</ele><time>2026-04-25T07:53:41.998Z</time></trkpt><trkpt lat="43.42721238599292" lon="11.144437111683828"><ele>163.5</ele><time>2026-04-25T07:53:42.998Z</time></trkpt><trkpt lat="43.4269767157844" lon="11.14448941584633"><ele>165.0</ele><time>2026-04-25T07:53:43.998Z</time></trkpt><trkpt lat="43.426738667115856" lon="11.144549626186068"><ele>165.0</ele><time>2026-04-25T07:53:44.998Z</time></trkpt><trkpt lat="43.426502271812076" lon="11.144617911489128"><ele>165.0</ele><time>2026-04-25T07:53:45.998Z</time></trkpt><trkpt lat="43.42627189369554" lon="11.14470147344794"><ele>163.5</ele><time>2026-04-25T07:53:46.997Z</time></trkpt><trkpt lat="43.426044205828454" lon="11.144802112151533"><ele>162.0</ele><time>2026-04-25T07:53:47.997Z</time></trkpt><trkpt lat="43.42582206826568" lon="11.144921503435182"><ele>162.0</ele><time>2026-04-25T07:53:48.997Z</time></trkpt><trkpt lat="43.4256049899237" lon="11.145053946808856"><ele>162.0</ele><time>2026-04-25T07:53:49.997Z</time></trkpt><trkpt lat="43.42539404475993" lon="11.145198306707421"><ele>166.0</ele><time>2026-04-25T07:53:50.997Z</time></trkpt><trkpt lat="43.42518799329278" lon="11.14535216031549"><ele>170.0</ele><time>2026-04-25T07:53:51.997Z</time></trkpt><trkpt lat="43.42498933222212" lon="11.1455165160025"><ele>170.0</ele><time>2026-04-25T07:53:52.997Z</time></trkpt><trkpt lat="43.42479676959403" lon="11.145695775639567"><ele>170.0</ele><time>2026-04-25T07:53:53.997Z</time></trkpt><trkpt lat="43.42461135333415" lon="11.145887633216422"><ele>172.5</ele><time>2026-04-25T07:53:54.997Z</time></trkpt><trkpt lat="43.424429151278204" lon="11.146092831330723"><ele>175.0</ele><time>2026-04-25T07:53:55.997Z</time></trkpt><trkpt lat="43.42424995517897" lon="11.146312647634343"><ele>175.0</ele><time>2026-04-25T07:53:56.997Z</time></trkpt><trkpt lat="43.424075330112025" lon="11.146542210783661"><ele>175.0</ele><time>2026-04-25T07:53:57.997Z</time></trkpt><trkpt lat="43.42391082109887" lon="11.146781821940069"><ele>178.0</ele><time>2026-04-25T07:53:58.997Z</time></trkpt><trkpt lat="43.42374960879276" lon="11.147022947437737"><ele>181.0</ele><time>2026-04-25T07:53:59.997Z</time></trkpt><trkpt lat="43.42358735931335" lon="11.147260547163937"><ele>180.5</ele><time>2026-04-25T07:54:00.997Z</time></trkpt><trkpt lat="43.423424047950924" lon="11.147493216979361"><ele>180.0</ele><time>2026-04-25T07:54:01.997Z</time></trkpt><trkpt lat="43.42325977411695" lon="11.147728304662294"><ele>180.0</ele><time>2026-04-25T07:54:02.997Z</time></trkpt><trkpt lat="43.42309824009904" lon="11.14797522731"><ele>180.0</ele><time>2026-04-25T07:54:03.997Z</time></trkpt><trkpt lat="43.422937519918996" lon="11.148232160437258"><ele>184.5</ele><time>2026-04-25T07:54:04.997Z</time></trkpt><trkpt lat="43.422772287002736" lon="11.148486983442453"><ele>189.0</ele><time>2026-04-25T07:54:05.997Z</time></trkpt><trkpt lat="43.422601177231186" lon="11.148736841526114"><ele>189.0</ele><time>2026-04-25T07:54:06.997Z</time></trkpt><trkpt lat="43.422428274834616" lon="11.148983764147147"><ele>189.0</ele><time>2026-04-25T07:54:07.997Z</time></trkpt><trkpt lat="43.42225463508822" lon="11.149231893739463"><ele>194.0</ele><time>2026-04-25T07:54:08.997Z</time></trkpt><trkpt lat="43.42207947872977" lon="11.149476754447475"><ele>199.0</ele><time>2026-04-25T07:54:09.997Z</time></trkpt><trkpt lat="43.42190149880154" lon="11.149721547749499"><ele>199.5</ele><time>2026-04-25T07:54:11Z</time></trkpt><trkpt lat="43.421726447070974" lon="11.14997117168654"><ele>200.0</ele><time>2026-04-25T07:54:12Z</time></trkpt><trkpt lat="43.421550147118104" lon="11.150228419283062"><ele>200.0</ele><time>2026-04-25T07:54:13Z</time></trkpt><trkpt lat="43.42137106167658" lon="11.150496759144843"><ele>200.0</ele><time>2026-04-25T07:54:14Z</time></trkpt><trkpt lat="43.42118580340842" lon="11.150769522140841"><ele>204.0</ele><time>2026-04-25T07:54:15Z</time></trkpt><trkpt lat="43.42099536224629" lon="11.151044377942926"><ele>208.0</ele><time>2026-04-25T07:54:16Z</time></trkpt><trkpt lat="43.420801646653196" lon="11.15132548052608"><ele>207.5</ele><time>2026-04-25T07:54:17Z</time></trkpt><trkpt lat="43.42060765516074" lon="11.151609242741012"><ele>207.0</ele><time>2026-04-25T07:54:18Z</time></trkpt><trkpt lat="43.420413473008544" lon="11.151891141670266"><ele>211.0</ele><time>2026-04-25T07:54:19Z</time></trkpt><trkpt lat="43.42022193798511" lon="11.152162810870951"><ele>215.0</ele><time>2026-04-25T07:54:20Z</time></trkpt><trkpt lat="43.420029618182205" lon="11.152422988074086"><ele>215.0</ele><time>2026-04-25T07:54:21Z</time></trkpt><trkpt lat="43.41983792882508" lon="11.152671971999522"><ele>215.0</ele><time>2026-04-25T07:54:22Z</time></trkpt><trkpt lat="43.41965116497441" lon="11.152915208223583"><ele>218.5</ele><time>2026-04-25T07:54:23Z</time></trkpt><trkpt lat="43.41947234334138" lon="11.153161650398246"><ele>222.0</ele><time>2026-04-25T07:54:24Z</time></trkpt><trkpt lat="43.4193034987991" lon="11.153410664251203"><ele>222.0</ele><time>2026-04-25T07:54:25Z</time></trkpt><trkpt lat="43.419139655811875" lon="11.153655183506787"><ele>222.0</ele><time>2026-04-25T07:54:26Z</time></trkpt><trkpt lat="43.418975061835866" lon="11.153895431447612"><ele>225.0</ele><time>2026-04-25T07:54:27Z</time></trkpt><trkpt lat="43.41881065041431" lon="11.154132499667748"><ele>228.0</ele><time>2026-04-25T07:54:27.999Z</time></trkpt><trkpt lat="43.4186469213231" lon="11.154367663319071"><ele>228.0</ele><time>2026-04-25T07:54:28.999Z</time></trkpt><trkpt lat="43.41848574955546" lon="11.154599207746505"><ele>228.0</ele><time>2026-04-25T07:54:29.999Z</time></trkpt><trkpt lat="43.41832529321042" lon="11.154833606453982"><ele>228.5</ele><time>2026-04-25T07:54:30.999Z</time></trkpt><trkpt lat="43.418164089763806" lon="11.155067776623625"><ele>229.0</ele><time>2026-04-25T07:54:31.999Z</time></trkpt><trkpt lat="43.4179980597932" lon="11.155305590229045"><ele>230.5</ele><time>2026-04-25T07:54:32.999Z</time></trkpt><trkpt lat="43.41782893069836" lon="11.155543839322831"><ele>232.0</ele><time>2026-04-25T07:54:33.999Z</time></trkpt><trkpt lat="43.41765939632951" lon="11.155783889527664"><ele>232.0</ele><time>2026-04-25T07:54:34.999Z</time></trkpt><trkpt lat="43.41749066530364" lon="11.15602795142353"><ele>232.0</ele><time>2026-04-25T07:54:35.999Z</time></trkpt><trkpt lat="43.41732331290516" lon="11.156271025846214"><ele>232.0</ele><time>2026-04-25T07:54:36.999Z</time></trkpt><trkpt lat="43.417155181285445" lon="11.156513067672316"><ele>232.0</ele><time>2026-04-25T07:54:37.999Z</time></trkpt><trkpt lat="43.41698855015281" lon="11.156752187517087"><ele>233.0</ele><time>2026-04-25T07:54:38.999Z</time></trkpt><trkpt lat="43.41682285681264" lon="11.156990628604127"><ele>234.0</ele><time>2026-04-25T07:54:39.999Z</time></trkpt><trkpt lat="43.41665789189137" lon="11.157229520334301"><ele>233.0</ele><time>2026-04-25T07:54:40.999Z</time></trkpt><trkpt lat="43.41649424039343" lon="11.157469110758568"><ele>232.0</ele><time>2026-04-25T07:54:41.999Z</time></trkpt><trkpt lat="43.416333200626696" lon="11.157703680530156"><ele>232.5</ele><time>2026-04-25T07:54:42.999Z</time></trkpt><trkpt lat="43.416171948738885" lon="11.15793675157731"><ele>233.0</ele><time>2026-04-25T07:54:43.999Z</time></trkpt><trkpt lat="43.416011705899344" lon="11.15816593143804"><ele>232.0</ele><time>2026-04-25T07:54:44.999Z</time></trkpt><trkpt lat="43.415849940175505" lon="11.15839563711752"><ele>231.0</ele><time>2026-04-25T07:54:45.999Z</time></trkpt><trkpt lat="43.415689831495364" lon="11.158623777227326"><ele>231.0</ele><time>2026-04-25T07:54:46.999Z</time></trkpt><trkpt lat="43.41552845693433" lon="11.158852952354744"><ele>231.0</ele><time>2026-04-25T07:54:47.999Z</time></trkpt><trkpt lat="43.41536864458228" lon="11.159083242341067"><ele>230.5</ele><time>2026-04-25T07:54:48.999Z</time></trkpt><trkpt lat="43.415209064635334" lon="11.15931401132893"><ele>230.0</ele><time>2026-04-25T07:54:49.999Z</time></trkpt><trkpt lat="43.415049086510685" lon="11.159544859526441"><ele>230.0</ele><time>2026-04-25T07:54:50.999Z</time></trkpt><trkpt lat="43.41488763703485" lon="11.159775798658497"><ele>230.0</ele><time>2026-04-25T07:54:51.999Z</time></trkpt><trkpt lat="43.41472743333543" lon="11.160002395834251"><ele>229.66666666666669</ele><time>2026-04-25T07:54:52.999Z</time></trkpt><trkpt lat="43.41457006075166" lon="11.160228252961781"><ele>229.33333333333331</ele><time>2026-04-25T07:54:53.999Z</time></trkpt><trkpt lat="43.41441812550241" lon="11.160449682741769"><ele>229.0</ele><time>2026-04-25T07:54:54.999Z</time></trkpt><trkpt lat="43.41426565762593" lon="11.160670144929556"><ele>229.66666666666666</ele><time>2026-04-25T07:54:55.999Z</time></trkpt><trkpt lat="43.41411740453172" lon="11.160885237601361"><ele>230.33333333333331</ele><time>2026-04-25T07:54:56.999Z</time></trkpt><trkpt lat="43.413971311685884" lon="11.161099698197699"><ele>231.0</ele><time>2026-04-25T07:54:57.999Z</time></trkpt><trkpt lat="43.413826527933836" lon="11.161312211434707"><ele>230.0</ele><time>2026-04-25T07:54:58.999Z</time></trkpt><trkpt lat="43.413681770374566" lon="11.16152383984681"><ele>229.0</ele><time>2026-04-25T07:54:59.999Z</time></trkpt><trkpt lat="43.4135369201553" lon="11.161732588513086"><ele>228.0</ele><time>2026-04-25T07:55:00.999Z</time></trkpt><trkpt lat="43.41339549577825" lon="11.161946750278302"><ele>228.0</ele><time>2026-04-25T07:55:01.999Z</time></trkpt><trkpt lat="43.413257069956906" lon="11.162168147810792"><ele>228.0</ele><time>2026-04-25T07:55:02.999Z</time></trkpt><trkpt lat="43.4131133280631" lon="11.162392432898121"><ele>228.0</ele><time>2026-04-25T07:55:03.999Z</time></trkpt><trkpt lat="43.4129611385379" lon="11.162613634347261"><ele>227.66666666666669</ele><time>2026-04-25T07:55:04.999Z</time></trkpt><trkpt lat="43.412807074666716" lon="11.162833946154452"><ele>227.33333333333334</ele><time>2026-04-25T07:55:05.999Z</time></trkpt><trkpt lat="43.41265102543536" lon="11.163053825232293"><ele>227.0</ele><time>2026-04-25T07:55:06.999Z</time></trkpt><trkpt lat="43.41249196349927" lon="11.163274305393834"><ele>226.0</ele><time>2026-04-25T07:55:07.999Z</time></trkpt><trkpt lat="43.41232714364565" lon="11.163486506937515"><ele>225.0</ele><time>2026-04-25T07:55:08.999Z</time></trkpt><trkpt lat="43.41216387569648" lon="11.163701946575411"><ele>225.5</ele><time>2026-04-25T07:55:09.999Z</time></trkpt><trkpt lat="43.41200409272085" lon="11.163926465023803"><ele>226.0</ele><time>2026-04-25T07:55:10.999Z</time></trkpt><trkpt lat="43.411853847322135" lon="11.164161454193923"><ele>226.0</ele><time>2026-04-25T07:55:11.999Z</time></trkpt><trkpt lat="43.411710979601146" lon="11.164399628072724"><ele>226.0</ele><time>2026-04-25T07:55:12.999Z</time></trkpt><trkpt lat="43.4115700491938" lon="11.164641596301655"><ele>226.0</ele><time>2026-04-25T07:55:13.999Z</time></trkpt><trkpt lat="43.41143368607521" lon="11.164887379447642"><ele>226.0</ele><time>2026-04-25T07:55:14.998Z</time></trkpt><trkpt lat="43.41130160770138" lon="11.165138283867627"><ele>226.0</ele><time>2026-04-25T07:55:15.998Z</time></trkpt><trkpt lat="43.41117318565936" lon="11.165395843276476"><ele>226.0</ele><time>2026-04-25T07:55:16.998Z</time></trkpt><trkpt lat="43.4110522076329" lon="11.165659244623455"><ele>226.5</ele><time>2026-04-25T07:55:17.998Z</time></trkpt><trkpt lat="43.410935917516916" lon="11.165927178412353"><ele>227.0</ele><time>2026-04-25T07:55:18.998Z</time></trkpt><trkpt lat="43.410822916397784" lon="11.166201135562419"><ele>227.0</ele><time>2026-04-25T07:55:19.998Z</time></trkpt><trkpt lat="43.410713601730315" lon="11.16647660946898"><ele>227.0</ele><time>2026-04-25T07:55:20.998Z</time></trkpt><trkpt lat="43.41060866555734" lon="11.166753833899062"><ele>226.5</ele><time>2026-04-25T07:55:21.998Z</time></trkpt><trkpt lat="43.41050761386093" lon="11.167035110714894"><ele>226.0</ele><time>2026-04-25T07:55:22.998Z</time></trkpt><trkpt lat="43.41041122213904" lon="11.167321962115759"><ele>226.5</ele><time>2026-04-25T07:55:23.998Z</time></trkpt><trkpt lat="43.41032242160559" lon="11.167611510340114"><ele>227.0</ele><time>2026-04-25T07:55:24.998Z</time></trkpt><trkpt lat="43.41023586335383" lon="11.16790409558935"><ele>226.0</ele><time>2026-04-25T07:55:25.998Z</time></trkpt><trkpt lat="43.410149927668364" lon="11.16819595601047"><ele>225.0</ele><time>2026-04-25T07:55:26.998Z</time></trkpt><trkpt lat="43.41006306702722" lon="11.168491569131612"><ele>225.0</ele><time>2026-04-25T07:55:27.998Z</time></trkpt><trkpt lat="43.40997751184426" lon="11.168785123210098"><ele>225.0</ele><time>2026-04-25T07:55:28.998Z</time></trkpt><trkpt lat="43.40988768772523" lon="11.169082037192274"><ele>224.5</ele><time>2026-04-25T07:55:29.998Z</time></trkpt><trkpt lat="43.40980081961485" lon="11.169381975921057"><ele>224.0</ele><time>2026-04-25T07:55:30.998Z</time></trkpt><trkpt lat="43.409715063377774" lon="11.169683259505303"><ele>223.0</ele><time>2026-04-25T07:55:31.998Z</time></trkpt><trkpt lat="43.409627693575835" lon="11.1699842945342"><ele>222.0</ele><time>2026-04-25T07:55:32.998Z</time></trkpt><trkpt lat="43.40953855404622" lon="11.170284845199353"><ele>222.0</ele><time>2026-04-25T07:55:33.998Z</time></trkpt><trkpt lat="43.409448923133866" lon="11.170587763103912"><ele>222.0</ele><time>2026-04-25T07:55:34.998Z</time></trkpt><trkpt lat="43.409358827377446" lon="11.170892169872808"><ele>223.0</ele><time>2026-04-25T07:55:35.998Z</time></trkpt><trkpt lat="43.40926856095726" lon="11.171198046360434"><ele>224.0</ele><time>2026-04-25T07:55:36.998Z</time></trkpt><trkpt lat="43.40918017137995" lon="11.171504330086764"><ele>224.0</ele><time>2026-04-25T07:55:37.998Z</time></trkpt><trkpt lat="43.40909153084086" lon="11.171812047226279"><ele>224.0</ele><time>2026-04-25T07:55:38.998Z</time></trkpt><trkpt lat="43.40900145772203" lon="11.172120501288656"><ele>223.5</ele><time>2026-04-25T07:55:39.998Z</time></trkpt><trkpt lat="43.40891011426511" lon="11.172426698581164"><ele>223.0</ele><time>2026-04-25T07:55:40.998Z</time></trkpt><trkpt lat="43.40881857345648" lon="11.172733247083654"><ele>223.0</ele><time>2026-04-25T07:55:41.998Z</time></trkpt><trkpt lat="43.408726535433004" lon="11.173043122886225"><ele>223.0</ele><time>2026-04-25T07:55:42.998Z</time></trkpt><trkpt lat="43.408634966956086" lon="11.173351110410165"><ele>223.0</ele><time>2026-04-25T07:55:43.998Z</time></trkpt><trkpt lat="43.4085432614398" lon="11.173661376537298"><ele>223.0</ele><time>2026-04-25T07:55:44.998Z</time></trkpt><trkpt lat="43.408451165650774" lon="11.173973584731467"><ele>224.0</ele><time>2026-04-25T07:55:45.998Z</time></trkpt><trkpt lat="43.408360179845076" lon="11.174288668473112"><ele>225.0</ele><time>2026-04-25T07:55:46.998Z</time></trkpt><trkpt lat="43.4082704299047" lon="11.174604332252107"><ele>226.0</ele><time>2026-04-25T07:55:47.998Z</time></trkpt><trkpt lat="43.40818009756555" lon="11.174922499848211"><ele>227.0</ele><time>2026-04-25T07:55:48.998Z</time></trkpt><trkpt lat="43.40808870122038" lon="11.175238268199173"><ele>227.0</ele><time>2026-04-25T07:55:49.998Z</time></trkpt><trkpt lat="43.407995390989804" lon="11.175553581242417"><ele>227.0</ele><time>2026-04-25T07:55:50.998Z</time></trkpt><trkpt lat="43.40790249386703" lon="11.175869820327407"><ele>222.0</ele><time>2026-04-25T07:55:51.998Z</time></trkpt><trkpt lat="43.407810432763135" lon="11.176184731670602"><ele>217.0</ele><time>2026-04-25T07:55:52.998Z</time></trkpt><trkpt lat="43.4077186864839" lon="11.176500971602852"><ele>218.0</ele><time>2026-04-25T07:55:53.998Z</time></trkpt><trkpt lat="43.407625643957815" lon="11.176815237631223"><ele>219.0</ele><time>2026-04-25T07:55:54.998Z</time></trkpt><trkpt lat="43.40753039617281" lon="11.177131010075462"><ele>220.5</ele><time>2026-04-25T07:55:55.998Z</time></trkpt><trkpt lat="43.407434443282774" lon="11.177443308427513"><ele>222.0</ele><time>2026-04-25T07:55:56.998Z</time></trkpt><trkpt lat="43.40733341124828" lon="11.17775428528609"><ele>222.0</ele><time>2026-04-25T07:55:57.998Z</time></trkpt><trkpt lat="43.40722416698422" lon="11.17805965476966"><ele>222.0</ele><time>2026-04-25T07:55:58.998Z</time></trkpt><trkpt lat="43.40711267444238" lon="11.178365130143094"><ele>219.0</ele><time>2026-04-25T07:55:59.998Z</time></trkpt><trkpt lat="43.406998699362525" lon="11.178670936265505"><ele>216.0</ele><time>2026-04-25T07:56:00.998Z</time></trkpt><trkpt lat="43.406879840054174" lon="11.178972845796576"><ele>217.0</ele><time>2026-04-25T07:56:01.997Z</time></trkpt><trkpt lat="43.40675848382437" lon="11.179271909896155"><ele>218.0</ele><time>2026-04-25T07:56:02.997Z</time></trkpt><trkpt lat="43.40663555609622" lon="11.179566447109847"><ele>219.5</ele><time>2026-04-25T07:56:03.997Z</time></trkpt><trkpt lat="43.406509828295555" lon="11.179854466198249"><ele>221.0</ele><time>2026-04-25T07:56:04.997Z</time></trkpt><trkpt lat="43.406378560695615" lon="11.180137192969559"><ele>222.0</ele><time>2026-04-25T07:56:05.997Z</time></trkpt><trkpt lat="43.40624218587739" lon="11.18041849564246"><ele>223.0</ele><time>2026-04-25T07:56:06.997Z</time></trkpt><trkpt lat="43.40610846713231" lon="11.18069775110727"><ele>223.0</ele><time>2026-04-25T07:56:07.997Z</time></trkpt><trkpt lat="43.40597692691538" lon="11.180978132928058"><ele>223.0</ele><time>2026-04-25T07:56:08.997Z</time></trkpt><trkpt lat="43.405842977280166" lon="11.181254933609345"><ele>223.5</ele><time>2026-04-25T07:56:09.997Z</time></trkpt><trkpt lat="43.405707721956254" lon="11.181532021645193"><ele>224.0</ele><time>2026-04-25T07:56:10.997Z</time></trkpt><trkpt lat="43.405572292729374" lon="11.181808906488452"><ele>224.0</ele><time>2026-04-25T07:56:11.997Z</time></trkpt><trkpt lat="43.405437994783206" lon="11.182084814549032"><ele>224.0</ele><time>2026-04-25T07:56:12.997Z</time></trkpt><trkpt lat="43.40530511518566" lon="11.182360361906312"><ele>223.0</ele><time>2026-04-25T07:56:13.997Z</time></trkpt><trkpt lat="43.405172813368054" lon="11.182636734679292"><ele>222.0</ele><time>2026-04-25T07:56:14.997Z</time></trkpt><trkpt lat="43.40503879790049" lon="11.182914688309129"><ele>220.5</ele><time>2026-04-25T07:56:15.997Z</time></trkpt><trkpt lat="43.40490553436891" lon="11.183191955819018"><ele>219.0</ele><time>2026-04-25T07:56:17Z</time></trkpt><trkpt lat="43.404770729153654" lon="11.183466728320575"><ele>220.0</ele><time>2026-04-25T07:56:18Z</time></trkpt><trkpt lat="43.4046345298674" lon="11.183740287104756"><ele>221.0</ele><time>2026-04-25T07:56:19Z</time></trkpt><trkpt lat="43.40450052083278" lon="11.184014022233209"><ele>219.0</ele><time>2026-04-25T07:56:20Z</time></trkpt><trkpt lat="43.404368732336756" lon="11.184288763228459"><ele>217.0</ele><time>2026-04-25T07:56:21Z</time></trkpt><trkpt lat="43.404238569569394" lon="11.184563110930158"><ele>217.0</ele><time>2026-04-25T07:56:22Z</time></trkpt><trkpt lat="43.40410620187641" lon="11.18483795724728"><ele>217.0</ele><time>2026-04-25T07:56:23Z</time></trkpt><trkpt lat="43.40397402328139" lon="11.185108796877003"><ele>215.5</ele><time>2026-04-25T07:56:24Z</time></trkpt><trkpt lat="43.40384585594696" lon="11.185369964221657"><ele>214.0</ele><time>2026-04-25T07:56:25Z</time></trkpt><trkpt lat="43.4037206212652" lon="11.185628403046953"><ele>213.66666666666666</ele><time>2026-04-25T07:56:26Z</time></trkpt><trkpt lat="43.40359526090768" lon="11.18588508064258"><ele>213.33333333333331</ele><time>2026-04-25T07:56:27Z</time></trkpt><trkpt lat="43.40347122046632" lon="11.186142306953435"><ele>213.0</ele><time>2026-04-25T07:56:28Z</time></trkpt><trkpt lat="43.40335508732898" lon="11.186388503837165"><ele>212.66666666666669</ele><time>2026-04-25T07:56:29Z</time></trkpt><trkpt lat="43.40324217338388" lon="11.186629079930583"><ele>212.33333333333334</ele><time>2026-04-25T07:56:30Z</time></trkpt><trkpt lat="43.40312995098351" lon="11.186858949855953"><ele>212.0</ele><time>2026-04-25T07:56:31Z</time></trkpt><trkpt lat="43.40301524305786" lon="11.187086029650725"><ele>211.66666666666669</ele><time>2026-04-25T07:56:32Z</time></trkpt><trkpt lat="43.40290199582102" lon="11.187314354214882"><ele>211.33333333333331</ele><time>2026-04-25T07:56:33Z</time></trkpt><trkpt lat="43.402789334954115" lon="11.187546577074569"><ele>211.0</ele><time>2026-04-25T07:56:34Z</time></trkpt><trkpt lat="43.40267427927964" lon="11.187780121884302"><ele>211.0</ele><time>2026-04-25T07:56:35Z</time></trkpt><trkpt lat="43.40256358162483" lon="11.18801169742517"><ele>211.0</ele><time>2026-04-25T07:56:36Z</time></trkpt><trkpt lat="43.402453260632704" lon="11.188240385554352"><ele>211.0</ele><time>2026-04-25T07:56:37Z</time></trkpt><trkpt lat="43.40234516317292" lon="11.188467978614884"><ele>211.0</ele><time>2026-04-25T07:56:38Z</time></trkpt><trkpt lat="43.402239313244664" lon="11.188690881063687"><ele>211.0</ele><time>2026-04-25T07:56:39Z</time></trkpt><trkpt lat="43.40213590750615" lon="11.188908277937522"><ele>211.0</ele><time>2026-04-25T07:56:40Z</time></trkpt><trkpt lat="43.402031457405826" lon="11.189121941233408"><ele>210.33333333333331</ele><time>2026-04-25T07:56:41Z</time></trkpt><trkpt lat="43.401926881186085" lon="11.189340405295745"><ele>209.66666666666669</ele><time>2026-04-25T07:56:41.999Z</time></trkpt><trkpt lat="43.40181732179848" lon="11.189566167508827"><ele>209.0</ele><time>2026-04-25T07:56:42.999Z</time></trkpt><trkpt lat="43.40170407712611" lon="11.189802437920655"><ele>209.0</ele><time>2026-04-25T07:56:43.999Z</time></trkpt><trkpt lat="43.40158735640069" lon="11.190042478272384"><ele>209.0</ele><time>2026-04-25T07:56:44.999Z</time></trkpt><trkpt lat="43.40147001692353" lon="11.19028434026681"><ele>209.0</ele><time>2026-04-25T07:56:45.999Z</time></trkpt><trkpt lat="43.40135208753336" lon="11.190526889729192"><ele>209.33333333333334</ele><time>2026-04-25T07:56:46.999Z</time></trkpt><trkpt lat="43.4012350327377" lon="11.19076907970937"><ele>209.66666666666669</ele><time>2026-04-25T07:56:47.999Z</time></trkpt><trkpt lat="43.40111957187079" lon="11.191012430243873"><ele>210.0</ele><time>2026-04-25T07:56:48.999Z</time></trkpt><trkpt lat="43.40100571879241" lon="11.191269816174659"><ele>210.0</ele><time>2026-04-25T07:56:49.999Z</time></trkpt><trkpt lat="43.40088989943688" lon="11.191543758604585"><ele>210.0</ele><time>2026-04-25T07:56:50.999Z</time></trkpt><trkpt lat="43.400765650986116" lon="11.1918333630023"><ele>210.0</ele><time>2026-04-25T07:56:51.999Z</time></trkpt><trkpt lat="43.40062462701454" lon="11.192132495370847"><ele>210.0</ele><time>2026-04-25T07:56:52.999Z</time></trkpt><trkpt lat="43.40047842541884" lon="11.19242663953594"><ele>209.5</ele><time>2026-04-25T07:56:53.999Z</time></trkpt><trkpt lat="43.400334609082705" lon="11.192718110216076"><ele>209.0</ele><time>2026-04-25T07:56:54.999Z</time></trkpt><trkpt lat="43.400193927300805" lon="11.193008072016763"><ele>209.5</ele><time>2026-04-25T07:56:55.999Z</time></trkpt><trkpt lat="43.40005300109201" lon="11.19329682017235"><ele>210.0</ele><time>2026-04-25T07:56:56.999Z</time></trkpt><trkpt lat="43.399912262206854" lon="11.193584516447777"><ele>210.0</ele><time>2026-04-25T07:56:57.999Z</time></trkpt><trkpt lat="43.39977526902785" lon="11.1938682514159"><ele>210.0</ele><time>2026-04-25T07:56:58.999Z</time></trkpt><trkpt lat="43.39963908420663" lon="11.19415026006932"><ele>209.0</ele><time>2026-04-25T07:56:59.999Z</time></trkpt><trkpt lat="43.39950156396004" lon="11.194430135299616"><ele>208.0</ele><time>2026-04-25T07:57:00.999Z</time></trkpt><trkpt lat="43.39936210684661" lon="11.194708114501607"><ele>209.0</ele><time>2026-04-25T07:57:01.999Z</time></trkpt><trkpt lat="43.399218729054105" lon="11.194980054162906"><ele>210.0</ele><time>2026-04-25T07:57:02.999Z</time></trkpt><trkpt lat="43.39907364353929" lon="11.19525003963126"><ele>210.0</ele><time>2026-04-25T07:57:03.999Z</time></trkpt><trkpt lat="43.39893105391915" lon="11.195517637900585"><ele>210.0</ele><time>2026-04-25T07:57:04.999Z</time></trkpt><trkpt lat="43.398794928787076" lon="11.195787401635402"><ele>209.5</ele><time>2026-04-25T07:57:05.999Z</time></trkpt><trkpt lat="43.398664441406865" lon="11.196060758503345"><ele>209.0</ele><time>2026-04-25T07:57:06.999Z</time></trkpt><trkpt lat="43.398535001993274" lon="11.196331367543245"><ele>209.0</ele><time>2026-04-25T07:57:07.999Z</time></trkpt><trkpt lat="43.39840757304205" lon="11.196599569666578"><ele>209.0</ele><time>2026-04-25T07:57:08.999Z</time></trkpt><trkpt lat="43.39828199526085" lon="11.196862517261554"><ele>209.0</ele><time>2026-04-25T07:57:09.999Z</time></trkpt><trkpt lat="43.39816170441696" lon="11.197116922630775"><ele>209.0</ele><time>2026-04-25T07:57:10.999Z</time></trkpt><trkpt lat="43.39804592457594" lon="11.197358218845464"><ele>209.0</ele><time>2026-04-25T07:57:11.999Z</time></trkpt><trkpt lat="43.39793263310465" lon="11.19759056692911"><ele>208.66666666666669</ele><time>2026-04-25T07:57:12.999Z</time></trkpt><trkpt lat="43.397818749606024" lon="11.197823638305264"><ele>208.33333333333331</ele><time>2026-04-25T07:57:13.999Z</time></trkpt><trkpt lat="43.397711768413025" lon="11.198046143582841"><ele>208.0</ele><time>2026-04-25T07:57:14.999Z</time></trkpt><trkpt lat="43.39760565665082" lon="11.198270611748377"><ele>209.66666666666666</ele><time>2026-04-25T07:57:15.999Z</time></trkpt><trkpt lat="43.39749602815492" lon="11.198497740770524"><ele>211.33333333333331</ele><time>2026-04-25T07:57:16.999Z</time></trkpt><trkpt lat="43.39738697281206" lon="11.19872088082691"><ele>213.0</ele><time>2026-04-25T07:57:17.999Z</time></trkpt><trkpt lat="43.397278623859805" lon="11.198939179253323"><ele>212.33333333333331</ele><time>2026-04-25T07:57:18.999Z</time></trkpt><trkpt lat="43.3971707262202" lon="11.199159477419899"><ele>211.66666666666666</ele><time>2026-04-25T07:57:19.999Z</time></trkpt><trkpt lat="43.39706383733696" lon="11.199387354587808"><ele>211.0</ele><time>2026-04-25T07:57:20.999Z</time></trkpt><trkpt lat="43.39695690129773" lon="11.199644819628583"><ele>214.0</ele><time>2026-04-25T07:57:21.999Z</time></trkpt><trkpt lat="43.396842231881564" lon="11.199919372683482"><ele>217.0</ele><time>2026-04-25T07:57:22.999Z</time></trkpt><trkpt lat="43.396710220179116" lon="11.200203072837349"><ele>217.0</ele><time>2026-04-25T07:57:23.999Z</time></trkpt><trkpt lat="43.39656735005402" lon="11.200488096393617"><ele>217.0</ele><time>2026-04-25T07:57:24.999Z</time></trkpt><trkpt lat="43.39642331869983" lon="11.200771068979625"><ele>215.5</ele><time>2026-04-25T07:57:25.999Z</time></trkpt><trkpt lat="43.396284025768" lon="11.20106489463665"><ele>214.0</ele><time>2026-04-25T07:57:26.999Z</time></trkpt><trkpt lat="43.39614275578826" lon="11.201372780544208"><ele>214.5</ele><time>2026-04-25T07:57:27.999Z</time></trkpt><trkpt lat="43.3959979350717" lon="11.201674244315079"><ele>215.0</ele><time>2026-04-25T07:57:28.998Z</time></trkpt><trkpt lat="43.395853801198214" lon="11.201972621703087"><ele>215.0</ele><time>2026-04-25T07:57:29.998Z</time></trkpt><trkpt lat="43.39571304637129" lon="11.202274947871063"><ele>215.0</ele><time>2026-04-25T07:57:30.998Z</time></trkpt><trkpt lat="43.39557927732936" lon="11.202577584567106"><ele>214.5</ele><time>2026-04-25T07:57:31.998Z</time></trkpt><trkpt lat="43.3954577937358" lon="11.202886714069075"><ele>214.0</ele><time>2026-04-25T07:57:32.998Z</time></trkpt><trkpt lat="43.395349285414476" lon="11.203203782962774"><ele>215.0</ele><time>2026-04-25T07:57:33.998Z</time></trkpt><trkpt lat="43.39524897600787" lon="11.203525046395619"><ele>216.0</ele><time>2026-04-25T07:57:34.998Z</time></trkpt><trkpt lat="43.3951539434265" lon="11.203846418141813"><ele>216.0</ele><time>2026-04-25T07:57:35.998Z</time></trkpt><trkpt lat="43.3950690517073" lon="11.20417184602956"><ele>216.0</ele><time>2026-04-25T07:57:36.998Z</time></trkpt><trkpt lat="43.394998699160986" lon="11.204503162513753"><ele>214.5</ele><time>2026-04-25T07:57:37.998Z</time></trkpt><trkpt lat="43.3949445559234" lon="11.204840451565659"><ele>213.0</ele><time>2026-04-25T07:57:38.998Z</time></trkpt><trkpt lat="43.39490598166021" lon="11.205180361181311"><ele>213.0</ele><time>2026-04-25T07:57:39.998Z</time></trkpt><trkpt lat="43.39487138879267" lon="11.205518071727123"><ele>213.0</ele><time>2026-04-25T07:57:40.998Z</time></trkpt><trkpt lat="43.39484250158456" lon="11.20585615783928"><ele>213.0</ele><time>2026-04-25T07:57:41.998Z</time></trkpt><trkpt lat="43.394817890969286" lon="11.20619695875232"><ele>213.0</ele><time>2026-04-25T07:57:42.998Z</time></trkpt><trkpt lat="43.39478954448748" lon="11.206539531357523"><ele>211.5</ele><time>2026-04-25T07:57:43.998Z</time></trkpt><trkpt lat="43.39475720512544" lon="11.20687709729205"><ele>210.0</ele><time>2026-04-25T07:57:44.998Z</time></trkpt><trkpt lat="43.39472466081062" lon="11.207214471456833"><ele>209.0</ele><time>2026-04-25T07:57:45.998Z</time></trkpt><trkpt lat="43.39469442382587" lon="11.207554395332629"><ele>208.0</ele><time>2026-04-25T07:57:46.998Z</time></trkpt><trkpt lat="43.394667266222854" lon="11.2078969186778"><ele>203.0</ele><time>2026-04-25T07:57:47.998Z</time></trkpt><trkpt lat="43.39463852100878" lon="11.208238883897872"><ele>198.0</ele><time>2026-04-25T07:57:48.998Z</time></trkpt><trkpt lat="43.39461126456112" lon="11.208581165679293"><ele>198.0</ele><time>2026-04-25T07:57:49.998Z</time></trkpt><trkpt lat="43.39458354000295" lon="11.208926352637672"><ele>198.0</ele><time>2026-04-25T07:57:50.998Z</time></trkpt><trkpt lat="43.394553225558894" lon="11.209270312490954"><ele>198.5</ele><time>2026-04-25T07:57:51.998Z</time></trkpt><trkpt lat="43.39452684507171" lon="11.20961545320148"><ele>199.0</ele><time>2026-04-25T07:57:52.998Z</time></trkpt><trkpt lat="43.394499415149795" lon="11.209960772076176"><ele>197.5</ele><time>2026-04-25T07:57:53.998Z</time></trkpt><trkpt lat="43.39446675185277" lon="11.21030894873872"><ele>196.0</ele><time>2026-04-25T07:57:54.998Z</time></trkpt><trkpt lat="43.39443558544267" lon="11.210654593848245"><ele>195.0</ele><time>2026-04-25T07:57:55.998Z</time></trkpt><trkpt lat="43.3944088940896" lon="11.211004282289826"><ele>194.0</ele><time>2026-04-25T07:57:56.998Z</time></trkpt><trkpt lat="43.394381455572805" lon="11.2113530418542"><ele>194.0</ele><time>2026-04-25T07:57:57.998Z</time></trkpt><trkpt lat="43.39435188147387" lon="11.211701830085119"><ele>194.0</ele><time>2026-04-25T07:57:58.998Z</time></trkpt><trkpt lat="43.39432391920885" lon="11.212052811705014"><ele>195.0</ele><time>2026-04-25T07:57:59.998Z</time></trkpt><trkpt lat="43.39429449189575" lon="11.212402368928128"><ele>196.0</ele><time>2026-04-25T07:58:00.998Z</time></trkpt><trkpt lat="43.39426705173963" lon="11.212748544456572"><ele>196.0</ele><time>2026-04-25T07:58:01.998Z</time></trkpt><trkpt lat="43.39424100841214" lon="11.213081566167482"><ele>196.0</ele><time>2026-04-25T07:58:02.998Z</time></trkpt><trkpt lat="43.39421287955015" lon="11.213395250358428"><ele>196.0</ele><time>2026-04-25T07:58:03.998Z</time></trkpt><trkpt lat="43.39418608669707" lon="11.21370352128403"><ele>196.0</ele><time>2026-04-25T07:58:04.998Z</time></trkpt><trkpt lat="43.39415915256277" lon="11.21401051647233"><ele>196.0</ele><time>2026-04-25T07:58:05.998Z</time></trkpt><trkpt lat="43.39413640478902" lon="11.21432355425201"><ele>196.0</ele><time>2026-04-25T07:58:06.998Z</time></trkpt><trkpt lat="43.39411418042666" lon="11.21464641749902"><ele>197.0</ele><time>2026-04-25T07:58:07.998Z</time></trkpt><trkpt lat="43.394083978607576" lon="11.214977970963371"><ele>198.0</ele><time>2026-04-25T07:58:08.998Z</time></trkpt><trkpt lat="43.394054598509435" lon="11.215310707823026"><ele>198.0</ele><time>2026-04-25T07:58:09.998Z</time></trkpt><trkpt lat="43.39402901574445" lon="11.215645959721765"><ele>198.0</ele><time>2026-04-25T07:58:10.998Z</time></trkpt><trkpt lat="43.39400213995169" lon="11.215985825284427"><ele>197.5</ele><time>2026-04-25T07:58:11.998Z</time></trkpt><trkpt lat="43.39397083544442" lon="11.216325038770869"><ele>197.0</ele><time>2026-04-25T07:58:12.998Z</time></trkpt><trkpt lat="43.393938941358265" lon="11.216664343657381"><ele>197.0</ele><time>2026-04-25T07:58:13.998Z</time></trkpt><trkpt lat="43.39390886231632" lon="11.217000914410571"><ele>197.0</ele><time>2026-04-25T07:58:14.998Z</time></trkpt><trkpt lat="43.3938805104297" lon="11.217335952969071"><ele>197.0</ele><time>2026-04-25T07:58:15.997Z</time></trkpt><trkpt lat="43.39385423285923" lon="11.217673940270874"><ele>197.0</ele><time>2026-04-25T07:58:16.997Z</time></trkpt><trkpt lat="43.393829851377426" lon="11.218010198830537"><ele>199.5</ele><time>2026-04-25T07:58:17.997Z</time></trkpt><trkpt lat="43.39380535315485" lon="11.218344594488718"><ele>202.0</ele><time>2026-04-25T07:58:18.997Z</time></trkpt><trkpt lat="43.39377769046953" lon="11.218674977735713"><ele>203.0</ele><time>2026-04-25T07:58:19.997Z</time></trkpt><trkpt lat="43.39374927647769" lon="11.219001170224464"><ele>204.0</ele><time>2026-04-25T07:58:20.997Z</time></trkpt><trkpt lat="43.393724469374625" lon="11.21932840946761"><ele>204.0</ele><time>2026-04-25T07:58:21.997Z</time></trkpt><trkpt lat="43.39370112943107" lon="11.219654529472946"><ele>204.0</ele><time>2026-04-25T07:58:23Z</time></trkpt><trkpt lat="43.39368100185847" lon="11.219981926139951"><ele>207.0</ele><time>2026-04-25T07:58:24Z</time></trkpt><trkpt lat="43.39367132956748" lon="11.220310996301267"><ele>210.0</ele><time>2026-04-25T07:58:25Z</time></trkpt><trkpt lat="43.39367098151849" lon="11.220641465354555"><ele>214.5</ele><time>2026-04-25T07:58:26Z</time></trkpt><trkpt lat="43.39367553708631" lon="11.220973340040137"><ele>219.0</ele><time>2026-04-25T07:58:27Z</time></trkpt><trkpt lat="43.39368548711335" lon="11.221309753627564"><ele>220.5</ele><time>2026-04-25T07:58:28Z</time></trkpt><trkpt lat="43.3937010561213" lon="11.22164686235253"><ele>222.0</ele><time>2026-04-25T07:58:29Z</time></trkpt><trkpt lat="43.393725300888754" lon="11.221985288860925"><ele>218.0</ele><time>2026-04-25T07:58:30Z</time></trkpt><trkpt lat="43.3937537927085" lon="11.222321695320367"><ele>214.0</ele><time>2026-04-25T07:58:31Z</time></trkpt><trkpt lat="43.39378770635844" lon="11.222657972914273"><ele>214.0</ele><time>2026-04-25T07:58:32Z</time></trkpt><trkpt lat="43.39382543674389" lon="11.2229925974778"><ele>214.0</ele><time>2026-04-25T07:58:33Z</time></trkpt><trkpt lat="43.39386496271493" lon="11.223327369007354"><ele>210.5</ele><time>2026-04-25T07:58:34Z</time></trkpt><trkpt lat="43.3939032674622" lon="11.223662079850577"><ele>207.0</ele><time>2026-04-25T07:58:35Z</time></trkpt><trkpt lat="43.39394052034227" lon="11.223998313994118"><ele>207.0</ele><time>2026-04-25T07:58:36Z</time></trkpt><trkpt lat="43.393976081223244" lon="11.224333247140114"><ele>207.0</ele><time>2026-04-25T07:58:37Z</time></trkpt><trkpt lat="43.39401289071269" lon="11.224668654192156"><ele>207.0</ele><time>2026-04-25T07:58:38Z</time></trkpt><trkpt lat="43.394051033249994" lon="11.225002176193358"><ele>207.0</ele><time>2026-04-25T07:58:39Z</time></trkpt><trkpt lat="43.39409332370852" lon="11.22533592256636"><ele>207.0</ele><time>2026-04-25T07:58:40Z</time></trkpt><trkpt lat="43.39413460544666" lon="11.22566762560761"><ele>207.0</ele><time>2026-04-25T07:58:41Z</time></trkpt><trkpt lat="43.39417481567331" lon="11.226002020709759"><ele>207.0</ele><time>2026-04-25T07:58:42Z</time></trkpt><trkpt lat="43.39421463560319" lon="11.226336089183329"><ele>207.0</ele><time>2026-04-25T07:58:43Z</time></trkpt><trkpt lat="43.394258627296296" lon="11.226672836286706"><ele>208.5</ele><time>2026-04-25T07:58:44Z</time></trkpt><trkpt lat="43.394307620211976" lon="11.227010759320262"><ele>210.0</ele><time>2026-04-25T07:58:45Z</time></trkpt><trkpt lat="43.39435336926449" lon="11.22735186779301"><ele>211.0</ele><time>2026-04-25T07:58:46Z</time></trkpt><trkpt lat="43.39439397545476" lon="11.227695956708938"><ele>212.0</ele><time>2026-04-25T07:58:47Z</time></trkpt><trkpt lat="43.3944252048843" lon="11.228042364245683"><ele>215.0</ele><time>2026-04-25T07:58:48Z</time></trkpt><trkpt lat="43.39444406578725" lon="11.228394190753313"><ele>218.0</ele><time>2026-04-25T07:58:49Z</time></trkpt><trkpt lat="43.39444337806064" lon="11.228746441809006"><ele>222.0</ele><time>2026-04-25T07:58:50Z</time></trkpt><trkpt lat="43.39443018669341" lon="11.229099190467783"><ele>226.0</ele><time>2026-04-25T07:58:51Z</time></trkpt><trkpt lat="43.39439716221829" lon="11.229449353584585"><ele>226.0</ele><time>2026-04-25T07:58:52Z</time></trkpt><trkpt lat="43.39434792531972" lon="11.229793643941136"><ele>226.0</ele><time>2026-04-25T07:58:53Z</time></trkpt><trkpt lat="43.394283092186946" lon="11.230130440679146"><ele>224.5</ele><time>2026-04-25T07:58:54Z</time></trkpt><trkpt lat="43.394206945699224" lon="11.230464296022067"><ele>223.0</ele><time>2026-04-25T07:58:55Z</time></trkpt><trkpt lat="43.3941251012015" lon="11.23079458099365"><ele>219.5</ele><time>2026-04-25T07:58:56Z</time></trkpt><trkpt lat="43.3940336314896" lon="11.231119242537845"><ele>216.0</ele><time>2026-04-25T07:58:56.999Z</time></trkpt><trkpt lat="43.393934292311584" lon="11.231440082322028"><ele>218.5</ele><time>2026-04-25T07:58:57.999Z</time></trkpt><trkpt lat="43.39382692829082" lon="11.231754274335232"><ele>221.0</ele><time>2026-04-25T07:58:58.999Z</time></trkpt><trkpt lat="43.393717152192416" lon="11.232067097734785"><ele>219.0</ele><time>2026-04-25T07:58:59.999Z</time></trkpt><trkpt lat="43.3936088785392" lon="11.232377551010819"><ele>217.0</ele><time>2026-04-25T07:59:00.999Z</time></trkpt><trkpt lat="43.393505465164104" lon="11.232688289664864"><ele>217.0</ele><time>2026-04-25T07:59:01.999Z</time></trkpt><trkpt lat="43.393404090741186" lon="11.232998827736791"><ele>217.0</ele><time>2026-04-25T07:59:02.999Z</time></trkpt><trkpt lat="43.39330685662075" lon="11.233310571428538"><ele>215.0</ele><time>2026-04-25T07:59:03.999Z</time></trkpt><trkpt lat="43.39321583274764" lon="11.233618738729287"><ele>213.0</ele><time>2026-04-25T07:59:04.999Z</time></trkpt><trkpt lat="43.393131879006255" lon="11.233910085071066"><ele>209.5</ele><time>2026-04-25T07:59:05.999Z</time></trkpt><trkpt lat="43.39303986820067" lon="11.234205682790128"><ele>206.0</ele><time>2026-04-25T07:59:06.999Z</time></trkpt><trkpt lat="43.39293436175793" lon="11.234507922046863"><ele>210.0</ele><time>2026-04-25T07:59:07.999Z</time></trkpt><trkpt lat="43.392827643613074" lon="11.23482809317649"><ele>214.0</ele><time>2026-04-25T07:59:08.999Z</time></trkpt><trkpt lat="43.39271923976996" lon="11.235158837114547"><ele>214.0</ele><time>2026-04-25T07:59:09.999Z</time></trkpt><trkpt lat="43.392605623628484" lon="11.235488016839447"><ele>214.0</ele><time>2026-04-25T07:59:10.999Z</time></trkpt><trkpt lat="43.39248639346967" lon="11.235808312167283"><ele>212.0</ele><time>2026-04-25T07:59:11.999Z</time></trkpt><trkpt lat="43.392368441579976" lon="11.236124604597222"><ele>210.0</ele><time>2026-04-25T07:59:12.999Z</time></trkpt><trkpt lat="43.39226273483969" lon="11.236441865836309"><ele>216.0</ele><time>2026-04-25T07:59:13.999Z</time></trkpt><trkpt lat="43.39217245696595" lon="11.236763927861087"><ele>222.0</ele><time>2026-04-25T07:59:14.999Z</time></trkpt><trkpt lat="43.39209826668716" lon="11.237091266563198"><ele>223.0</ele><time>2026-04-25T07:59:15.999Z</time></trkpt><trkpt lat="43.392036826846045" lon="11.237423697719114"><ele>224.0</ele><time>2026-04-25T07:59:16.999Z</time></trkpt><trkpt lat="43.391991961626566" lon="11.237763643168966"><ele>224.0</ele><time>2026-04-25T07:59:17.999Z</time></trkpt><trkpt lat="43.39196287082186" lon="11.238110086433823"><ele>224.0</ele><time>2026-04-25T07:59:18.999Z</time></trkpt><trkpt lat="43.391944365975725" lon="11.238465836910134"><ele>225.5</ele><time>2026-04-25T07:59:19.999Z</time></trkpt><trkpt lat="43.39192922529707" lon="11.238826896320742"><ele>227.0</ele><time>2026-04-25T07:59:20.999Z</time></trkpt><trkpt lat="43.39191988663552" lon="11.239191236258367"><ele>227.0</ele><time>2026-04-25T07:59:21.999Z</time></trkpt><trkpt lat="43.391922961376835" lon="11.239559926267955"><ele>227.0</ele><time>2026-04-25T07:59:22.999Z</time></trkpt><trkpt lat="43.391944469201746" lon="11.239934393907438"><ele>227.5</ele><time>2026-04-25T07:59:23.999Z</time></trkpt><trkpt lat="43.39197929682593" lon="11.240311499296135"><ele>228.0</ele><time>2026-04-25T07:59:24.999Z</time></trkpt><trkpt lat="43.39202506325057" lon="11.240690673289855"><ele>232.0</ele><time>2026-04-25T07:59:25.999Z</time></trkpt><trkpt lat="43.39207308935855" lon="11.241069110285336"><ele>236.0</ele><time>2026-04-25T07:59:26.999Z</time></trkpt><trkpt lat="43.39212402663417" lon="11.241447548123917"><ele>238.0</ele><time>2026-04-25T07:59:27.999Z</time></trkpt><trkpt lat="43.39216942175465" lon="11.241823533263743"><ele>240.0</ele><time>2026-04-25T07:59:28.999Z</time></trkpt><trkpt lat="43.39221200134566" lon="11.242198404199739"><ele>226.0</ele><time>2026-04-25T07:59:29.999Z</time></trkpt><trkpt lat="43.39224477408031" lon="11.242570270966393"><ele>212.0</ele><time>2026-04-25T07:59:30.999Z</time></trkpt><trkpt lat="43.3922590021966" lon="11.24294293452531"><ele>211.0</ele><time>2026-04-25T07:59:31.999Z</time></trkpt><trkpt lat="43.39225007119702" lon="11.243312488378225"><ele>210.0</ele><time>2026-04-25T07:59:32.999Z</time></trkpt><trkpt lat="43.39222371539665" lon="11.243678903778546"><ele>209.5</ele><time>2026-04-25T07:59:33.999Z</time></trkpt><trkpt lat="43.39217917155155" lon="11.24403962112151"><ele>209.0</ele><time>2026-04-25T07:59:34.999Z</time></trkpt><trkpt lat="43.392115269524545" lon="11.244391980714909"><ele>209.0</ele><time>2026-04-25T07:59:35.999Z</time></trkpt><trkpt lat="43.392033320790105" lon="11.244737566325089"><ele>209.0</ele><time>2026-04-25T07:59:36.999Z</time></trkpt><trkpt lat="43.39194668646733" lon="11.245075523228662"><ele>210.0</ele><time>2026-04-25T07:59:37.999Z</time></trkpt><trkpt lat="43.39185612243148" lon="11.245411324904074"><ele>211.0</ele><time>2026-04-25T07:59:38.999Z</time></trkpt><trkpt lat="43.3917518426236" lon="11.245741538962381"><ele>214.5</ele><time>2026-04-25T07:59:39.999Z</time></trkpt><trkpt lat="43.39162949485122" lon="11.246058545207031"><ele>218.0</ele><time>2026-04-25T07:59:40.999Z</time></trkpt><trkpt lat="43.391494745747124" lon="11.246363738557168"><ele>219.0</ele><time>2026-04-25T07:59:41.999Z</time></trkpt><trkpt lat="43.391355176335004" lon="11.246665229806318"><ele>220.0</ele><time>2026-04-25T07:59:42.999Z</time></trkpt><trkpt lat="43.391221050492796" lon="11.24696837857776"><ele>218.5</ele><time>2026-04-25T07:59:43.998Z</time></trkpt><trkpt lat="43.39109527040546" lon="11.247277563755551"><ele>217.0</ele><time>2026-04-25T07:59:44.998Z</time></trkpt><trkpt lat="43.39097982966311" lon="11.247591902537799"><ele>217.0</ele><time>2026-04-25T07:59:45.998Z</time></trkpt><trkpt lat="43.390874819093625" lon="11.24791321339593"><ele>217.0</ele><time>2026-04-25T07:59:46.998Z</time></trkpt><trkpt lat="43.39078461055469" lon="11.248240604025545"><ele>219.0</ele><time>2026-04-25T07:59:47.998Z</time></trkpt><trkpt lat="43.39071083956488" lon="11.248576311573142"><ele>221.0</ele><time>2026-04-25T07:59:48.998Z</time></trkpt><trkpt lat="43.39064795454015" lon="11.248917449608248"><ele>222.5</ele><time>2026-04-25T07:59:49.998Z</time></trkpt><trkpt lat="43.39060000207849" lon="11.249264504784929"><ele>224.0</ele><time>2026-04-25T07:59:50.998Z</time></trkpt><trkpt lat="43.39056661812065" lon="11.249622297535877"><ele>226.0</ele><time>2026-04-25T07:59:51.998Z</time></trkpt><trkpt lat="43.390535289960454" lon="11.249982965419036"><ele>228.0</ele><time>2026-04-25T07:59:52.998Z</time></trkpt><trkpt lat="43.390508330676916" lon="11.250346194926559"><ele>225.5</ele><time>2026-04-25T07:59:53.998Z</time></trkpt><trkpt lat="43.39048547312058" lon="11.250713978221984"><ele>223.0</ele><time>2026-04-25T07:59:54.998Z</time></trkpt><trkpt lat="43.39045852430581" lon="11.251082316037754"><ele>223.0</ele><time>2026-04-25T07:59:55.998Z</time></trkpt><trkpt lat="43.39043252360468" lon="11.251450330993404"><ele>223.0</ele><time>2026-04-25T07:59:56.998Z</time></trkpt><trkpt lat="43.39040666839707" lon="11.251818820268447"><ele>224.0</ele><time>2026-04-25T07:59:57.998Z</time></trkpt><trkpt lat="43.39038024938988" lon="11.252186597528697"><ele>225.0</ele><time>2026-04-25T07:59:58.998Z</time></trkpt><trkpt lat="43.390357211992104" lon="11.252558731389637"><ele>224.5</ele><time>2026-04-25T07:59:59.998Z</time></trkpt><trkpt lat="43.39034240907739" lon="11.252941374634682"><ele>224.0</ele><time>2026-04-25T08:00:00.998Z</time></trkpt><trkpt lat="43.39032559195892" lon="11.253331752312905"><ele>224.0</ele><time>2026-04-25T08:00:01.998Z</time></trkpt><trkpt lat="43.39030127846091" lon="11.253720369644563"><ele>224.0</ele><time>2026-04-25T08:00:02.998Z</time></trkpt><trkpt lat="43.390272853320376" lon="11.254104872060676"><ele>222.5</ele><time>2026-04-25T08:00:03.998Z</time></trkpt><trkpt lat="43.39024424248272" lon="11.25448765254286"><ele>221.0</ele><time>2026-04-25T08:00:04.998Z</time></trkpt><trkpt lat="43.3902085094928" lon="11.254863845302921"><ele>221.0</ele><time>2026-04-25T08:00:05.998Z</time></trkpt><trkpt lat="43.390168160586576" lon="11.255235435269448"><ele>221.0</ele><time>2026-04-25T08:00:06.998Z</time></trkpt><trkpt lat="43.390131546494466" lon="11.25560202652988"><ele>221.5</ele><time>2026-04-25T08:00:07.998Z</time></trkpt><trkpt lat="43.39010233086568" lon="11.255972735547884"><ele>222.0</ele><time>2026-04-25T08:00:08.998Z</time></trkpt><trkpt lat="43.390073630184546" lon="11.256341313571555"><ele>222.5</ele><time>2026-04-25T08:00:09.998Z</time></trkpt><trkpt lat="43.39004680660664" lon="11.2567081710592"><ele>223.0</ele><time>2026-04-25T08:00:10.998Z</time></trkpt><trkpt lat="43.39002136673336" lon="11.257076586591468"><ele>226.0</ele><time>2026-04-25T08:00:11.998Z</time></trkpt><trkpt lat="43.38999454644654" lon="11.257443953533672"><ele>229.0</ele><time>2026-04-25T08:00:12.998Z</time></trkpt><trkpt lat="43.38996769766492" lon="11.257814533117951"><ele>231.0</ele><time>2026-04-25T08:00:13.998Z</time></trkpt><trkpt lat="43.38994070407807" lon="11.258184481918219"><ele>233.0</ele><time>2026-04-25T08:00:14.998Z</time></trkpt><trkpt lat="43.389914040542955" lon="11.258554440804463"><ele>233.0</ele><time>2026-04-25T08:00:15.998Z</time></trkpt><trkpt lat="43.389886994948014" lon="11.258923442202251"><ele>233.0</ele><time>2026-04-25T08:00:16.998Z</time></trkpt><trkpt lat="43.38985967276051" lon="11.25929058639218"><ele>235.0</ele><time>2026-04-25T08:00:17.998Z</time></trkpt><trkpt lat="43.38983105515207" lon="11.259656574158942"><ele>237.0</ele><time>2026-04-25T08:00:18.998Z</time></trkpt><trkpt lat="43.38980323326386" lon="11.260021565415753"><ele>237.5</ele><time>2026-04-25T08:00:19.998Z</time></trkpt><trkpt lat="43.389777483904695" lon="11.260384872046922"><ele>238.0</ele><time>2026-04-25T08:00:20.998Z</time></trkpt><trkpt lat="43.389753193983616" lon="11.260746981086887"><ele>238.0</ele><time>2026-04-25T08:00:21.998Z</time></trkpt><trkpt lat="43.38973092866652" lon="11.26110786000729"><ele>238.0</ele><time>2026-04-25T08:00:22.998Z</time></trkpt><trkpt lat="43.38970639586159" lon="11.261468730389478"><ele>235.5</ele><time>2026-04-25T08:00:23.998Z</time></trkpt><trkpt lat="43.389677793188255" lon="11.261827797485745"><ele>233.0</ele><time>2026-04-25T08:00:24.998Z</time></trkpt><trkpt lat="43.3896493521248" lon="11.262186459412042"><ele>228.5</ele><time>2026-04-25T08:00:25.998Z</time></trkpt><trkpt lat="43.38961902215409" lon="11.262542502652039"><ele>224.0</ele><time>2026-04-25T08:00:26.998Z</time></trkpt><trkpt lat="43.389591389319854" lon="11.262896779447397"><ele>225.5</ele><time>2026-04-25T08:00:27.998Z</time></trkpt><trkpt lat="43.38956575300891" lon="11.263252916794217"><ele>227.0</ele><time>2026-04-25T08:00:29Z</time></trkpt><trkpt lat="43.3895395327256" lon="11.263608987235257"><ele>227.0</ele><time>2026-04-25T08:00:30Z</time></trkpt><trkpt lat="43.38951275895075" lon="11.263965850492072"><ele>227.0</ele><time>2026-04-25T08:00:31Z</time></trkpt><trkpt lat="43.389486261382714" lon="11.264323364789936"><ele>227.0</ele><time>2026-04-25T08:00:32Z</time></trkpt><trkpt lat="43.389461454044245" lon="11.264681834574764"><ele>227.0</ele><time>2026-04-25T08:00:33Z</time></trkpt><trkpt lat="43.38943665837783" lon="11.265037600847696"><ele>226.0</ele><time>2026-04-25T08:00:34Z</time></trkpt><trkpt lat="43.38941218559172" lon="11.265393941600008"><ele>225.0</ele><time>2026-04-25T08:00:35Z</time></trkpt><trkpt lat="43.38938726853698" lon="11.265747462856089"><ele>224.5</ele><time>2026-04-25T08:00:36Z</time></trkpt><trkpt lat="43.38936273066275" lon="11.266102721772224"><ele>224.0</ele><time>2026-04-25T08:00:37Z</time></trkpt><trkpt lat="43.38933819053949" lon="11.266454766631758"><ele>223.5</ele><time>2026-04-25T08:00:38Z</time></trkpt><trkpt lat="43.389314637525004" lon="11.26681078528697"><ele>223.0</ele><time>2026-04-25T08:00:39Z</time></trkpt><trkpt lat="43.389291268591606" lon="11.2671693789947"><ele>222.0</ele><time>2026-04-25T08:00:40Z</time></trkpt><trkpt lat="43.38925321674618" lon="11.267528731649588"><ele>221.0</ele><time>2026-04-25T08:00:41Z</time></trkpt><trkpt lat="43.38919483384977" lon="11.267882045963626"><ele>221.0</ele><time>2026-04-25T08:00:42Z</time></trkpt><trkpt lat="43.38912694416605" lon="11.26824066433704"><ele>221.0</ele><time>2026-04-25T08:00:43Z</time></trkpt><trkpt lat="43.38904624799783" lon="11.268591905970244"><ele>221.0</ele><time>2026-04-25T08:00:44Z</time></trkpt><trkpt lat="43.3889504547708" lon="11.268949298689975"><ele>221.0</ele><time>2026-04-25T08:00:45Z</time></trkpt><trkpt lat="43.38883890965411" lon="11.269308756180857"><ele>221.5</ele><time>2026-04-25T08:00:46Z</time></trkpt><trkpt lat="43.388715297439994" lon="11.269664499048812"><ele>222.0</ele><time>2026-04-25T08:00:47Z</time></trkpt><trkpt lat="43.38857710588934" lon="11.270006724337595"><ele>222.0</ele><time>2026-04-25T08:00:48Z</time></trkpt><trkpt lat="43.38842825595193" lon="11.270341026889927"><ele>222.0</ele><time>2026-04-25T08:00:49Z</time></trkpt><trkpt lat="43.3882670686356" lon="11.270669224373593"><ele>221.0</ele><time>2026-04-25T08:00:50Z</time></trkpt><trkpt lat="43.38809236000807" lon="11.270983086282822"><ele>220.0</ele><time>2026-04-25T08:00:51Z</time></trkpt><trkpt lat="43.38790636037641" lon="11.271282937269882"><ele>221.5</ele><time>2026-04-25T08:00:52Z</time></trkpt><trkpt lat="43.387710572546496" lon="11.271571488302103"><ele>223.0</ele><time>2026-04-25T08:00:53Z</time></trkpt><trkpt lat="43.38750692754719" lon="11.271849089913099"><ele>223.0</ele><time>2026-04-25T08:00:54Z</time></trkpt><trkpt lat="43.38729471840834" lon="11.272114242738343"><ele>223.0</ele><time>2026-04-25T08:00:55Z</time></trkpt><trkpt lat="43.38707718997562" lon="11.272366947652335"><ele>223.5</ele><time>2026-04-25T08:00:56Z</time></trkpt><trkpt lat="43.3868509959175" lon="11.272602474913722"><ele>224.0</ele><time>2026-04-25T08:00:57Z</time></trkpt><trkpt lat="43.38661742919221" lon="11.272819903264924"><ele>224.0</ele><time>2026-04-25T08:00:58Z</time></trkpt><trkpt lat="43.38637784493772" lon="11.273021054480052"><ele>224.0</ele><time>2026-04-25T08:00:59Z</time></trkpt><trkpt lat="43.3861311271194" lon="11.273204812287668"><ele>223.5</ele><time>2026-04-25T08:01:00Z</time></trkpt><trkpt lat="43.38587926424466" lon="11.273373633042933"><ele>223.0</ele><time>2026-04-25T08:01:01Z</time></trkpt><trkpt lat="43.385628556448545" lon="11.273537720824127"><ele>223.5</ele><time>2026-04-25T08:01:02Z</time></trkpt><trkpt lat="43.38537817139549" lon="11.273704278185901"><ele>224.0</ele><time>2026-04-25T08:01:03Z</time></trkpt><trkpt lat="43.385133291597235" lon="11.273879172689128"><ele>225.5</ele><time>2026-04-25T08:01:04Z</time></trkpt><trkpt lat="43.38489313367744" lon="11.274066295297958"><ele>227.0</ele><time>2026-04-25T08:01:05Z</time></trkpt><trkpt lat="43.384658029300915" lon="11.274267878481767"><ele>227.0</ele><time>2026-04-25T08:01:06Z</time></trkpt><trkpt lat="43.38442633017107" lon="11.274480970472938"><ele>227.0</ele><time>2026-04-25T08:01:07Z</time></trkpt><trkpt lat="43.384201724288666" lon="11.274706637893566"><ele>227.5</ele><time>2026-04-25T08:01:08Z</time></trkpt><trkpt lat="43.38398663573792" lon="11.27494766641896"><ele>228.0</ele><time>2026-04-25T08:01:09Z</time></trkpt><trkpt lat="43.38378140782845" lon="11.275204183523517"><ele>228.0</ele><time>2026-04-25T08:01:09.999Z</time></trkpt><trkpt lat="43.38358353051652" lon="11.275472832531635"><ele>228.0</ele><time>2026-04-25T08:01:10.999Z</time></trkpt><trkpt lat="43.38339622888574" lon="11.275756820409791"><ele>230.5</ele><time>2026-04-25T08:01:11.999Z</time></trkpt><trkpt lat="43.38321845115007" lon="11.276052928727887"><ele>233.0</ele><time>2026-04-25T08:01:12.999Z</time></trkpt><trkpt lat="43.383048295943155" lon="11.276358870060303"><ele>232.5</ele><time>2026-04-25T08:01:13.999Z</time></trkpt><trkpt lat="43.382886012487084" lon="11.276670634436043"><ele>232.0</ele><time>2026-04-25T08:01:14.999Z</time></trkpt><trkpt lat="43.38273107230688" lon="11.276992117158633"><ele>234.5</ele><time>2026-04-25T08:01:15.999Z</time></trkpt><trkpt lat="43.38257730420523" lon="11.277314223247757"><ele>237.0</ele><time>2026-04-25T08:01:16.999Z</time></trkpt><trkpt lat="43.38242164852573" lon="11.277634308118428"><ele>237.0</ele><time>2026-04-25T08:01:17.999Z</time></trkpt><trkpt lat="43.382265239993735" lon="11.277956410800565"><ele>237.0</ele><time>2026-04-25T08:01:18.999Z</time></trkpt><trkpt lat="43.38210949165" lon="11.278277916219924"><ele>235.5</ele><time>2026-04-25T08:01:19.999Z</time></trkpt><trkpt lat="43.38195321905938" lon="11.278600854998974"><ele>234.0</ele><time>2026-04-25T08:01:20.999Z</time></trkpt><trkpt lat="43.38179578785157" lon="11.278921897918389"><ele>239.0</ele><time>2026-04-25T08:01:21.999Z</time></trkpt><trkpt lat="43.381638913262215" lon="11.279244176417231"><ele>244.0</ele><time>2026-04-25T08:01:22.999Z</time></trkpt><trkpt lat="43.381483798371825" lon="11.279566864389967"><ele>238.5</ele><time>2026-04-25T08:01:23.999Z</time></trkpt><trkpt lat="43.38132910682849" lon="11.2798890508872"><ele>233.0</ele><time>2026-04-25T08:01:24.999Z</time></trkpt><trkpt lat="43.38117294954458" lon="11.28021090824388"><ele>233.0</ele><time>2026-04-25T08:01:25.999Z</time></trkpt><trkpt lat="43.381017078554564" lon="11.280531581868035"><ele>233.0</ele><time>2026-04-25T08:01:26.999Z</time></trkpt><trkpt lat="43.38086005102855" lon="11.280852533196432"><ele>235.0</ele><time>2026-04-25T08:01:27.999Z</time></trkpt><trkpt lat="43.380702350335284" lon="11.281172036510553"><ele>237.0</ele><time>2026-04-25T08:01:28.999Z</time></trkpt><trkpt lat="43.38054624461033" lon="11.281492172302064"><ele>236.0</ele><time>2026-04-25T08:01:29.999Z</time></trkpt><trkpt lat="43.380393776801036" lon="11.281816052767132"><ele>235.0</ele><time>2026-04-25T08:01:30.999Z</time></trkpt><trkpt lat="43.380239384881484" lon="11.282138973237467"><ele>238.5</ele><time>2026-04-25T08:01:31.999Z</time></trkpt><trkpt lat="43.38008337234602" lon="11.282459932166487"><ele>242.0</ele><time>2026-04-25T08:01:32.999Z</time></trkpt><trkpt lat="43.37992702357776" lon="11.282780561865223"><ele>240.5</ele><time>2026-04-25T08:01:33.999Z</time></trkpt><trkpt lat="43.37977116676484" lon="11.283097516502096"><ele>239.0</ele><time>2026-04-25T08:01:34.999Z</time></trkpt><trkpt lat="43.379607106374905" lon="11.283405743513466"><ele>239.0</ele><time>2026-04-25T08:01:35.999Z</time></trkpt><trkpt lat="43.37942820870373" lon="11.283701990764113"><ele>239.0</ele><time>2026-04-25T08:01:36.999Z</time></trkpt><trkpt lat="43.379231285966135" lon="11.28397860726206"><ele>238.0</ele><time>2026-04-25T08:01:37.999Z</time></trkpt><trkpt lat="43.37902038905977" lon="11.284232804961333"><ele>237.0</ele><time>2026-04-25T08:01:38.999Z</time></trkpt><trkpt lat="43.37880022445235" lon="11.284471710452372"><ele>237.0</ele><time>2026-04-25T08:01:39.999Z</time></trkpt><trkpt lat="43.37856759274359" lon="11.284693118686182"><ele>237.0</ele><time>2026-04-25T08:01:40.999Z</time></trkpt><trkpt lat="43.37832850052084" lon="11.284898737159336"><ele>236.5</ele><time>2026-04-25T08:01:41.999Z</time></trkpt><trkpt lat="43.37808160864743" lon="11.285085590587551"><ele>236.0</ele><time>2026-04-25T08:01:42.999Z</time></trkpt><trkpt lat="43.37782866011281" lon="11.285247316029114"><ele>236.0</ele><time>2026-04-25T08:01:43.999Z</time></trkpt><trkpt lat="43.37756642874905" lon="11.285379162920476"><ele>236.0</ele><time>2026-04-25T08:01:44.999Z</time></trkpt><trkpt lat="43.377296907443984" lon="11.285482264293268"><ele>237.0</ele><time>2026-04-25T08:01:45.999Z</time></trkpt><trkpt lat="43.377025790647956" lon="11.28556934567138"><ele>238.0</ele><time>2026-04-25T08:01:46.999Z</time></trkpt><trkpt lat="43.376752506269305" lon="11.285647522344346"><ele>244.5</ele><time>2026-04-25T08:01:47.999Z</time></trkpt><trkpt lat="43.37647884465158" lon="11.285727247306072"><ele>251.0</ele><time>2026-04-25T08:01:48.999Z</time></trkpt><trkpt lat="43.376206907545146" lon="11.285811752771037"><ele>251.0</ele><time>2026-04-25T08:01:49.999Z</time></trkpt><trkpt lat="43.37593624645032" lon="11.285901151802381"><ele>251.0</ele><time>2026-04-25T08:01:50.999Z</time></trkpt><trkpt lat="43.37566570595548" lon="11.285986046594752"><ele>250.5</ele><time>2026-04-25T08:01:51.999Z</time></trkpt><trkpt lat="43.375394434793336" lon="11.286066316809972"><ele>250.0</ele><time>2026-04-25T08:01:52.999Z</time></trkpt><trkpt lat="43.37512162742474" lon="11.286146033924833"><ele>250.0</ele><time>2026-04-25T08:01:53.999Z</time></trkpt><trkpt lat="43.374847920899434" lon="11.286228067881988"><ele>250.0</ele><time>2026-04-25T08:01:54.999Z</time></trkpt><trkpt lat="43.37457299822203" lon="11.28630884421046"><ele>248.0</ele><time>2026-04-25T08:01:55.998Z</time></trkpt><trkpt lat="43.37429690108347" lon="11.286389647060245"><ele>246.0</ele><time>2026-04-25T08:01:56.998Z</time></trkpt><trkpt lat="43.3740218671555" lon="11.286471300417091"><ele>250.0</ele><time>2026-04-25T08:01:57.998Z</time></trkpt><trkpt lat="43.373746469512774" lon="11.286554206210067"><ele>254.0</ele><time>2026-04-25T08:01:58.998Z</time></trkpt><trkpt lat="43.373470055003565" lon="11.286637659032719"><ele>254.0</ele><time>2026-04-25T08:01:59.998Z</time></trkpt><trkpt lat="43.37319558059829" lon="11.28672402951485"><ele>254.0</ele><time>2026-04-25T08:02:00.998Z</time></trkpt><trkpt lat="43.37292346548884" lon="11.286812397368191"><ele>252.5</ele><time>2026-04-25T08:02:01.998Z</time></trkpt><trkpt lat="43.37264982660475" lon="11.286899218754312"><ele>251.0</ele><time>2026-04-25T08:02:02.998Z</time></trkpt><trkpt lat="43.37237864801899" lon="11.286988124512352"><ele>249.5</ele><time>2026-04-25T08:02:03.998Z</time></trkpt><trkpt lat="43.37210824718918" lon="11.287085264133646"><ele>248.0</ele><time>2026-04-25T08:02:04.998Z</time></trkpt><trkpt lat="43.37184225348281" lon="11.287201338802127"><ele>252.0</ele><time>2026-04-25T08:02:05.998Z</time></trkpt><trkpt lat="43.3715807557805" lon="11.287341923120062"><ele>256.0</ele><time>2026-04-25T08:02:06.998Z</time></trkpt><trkpt lat="43.37132463188206" lon="11.287501782328691"><ele>256.0</ele><time>2026-04-25T08:02:07.998Z</time></trkpt><trkpt lat="43.37107320650227" lon="11.287675284988216"><ele>256.0</ele><time>2026-04-25T08:02:08.998Z</time></trkpt><trkpt lat="43.37082627199732" lon="11.287863765573592"><ele>256.0</ele><time>2026-04-25T08:02:09.998Z</time></trkpt><trkpt lat="43.370586201184835" lon="11.288066223685806"><ele>256.0</ele><time>2026-04-25T08:02:10.998Z</time></trkpt><trkpt lat="43.370352014176376" lon="11.2882824984129"><ele>257.5</ele><time>2026-04-25T08:02:11.998Z</time></trkpt><trkpt lat="43.370129329587414" lon="11.288518064798751"><ele>259.0</ele><time>2026-04-25T08:02:12.998Z</time></trkpt><trkpt lat="43.36991464829297" lon="11.288768245265574"><ele>259.5</ele><time>2026-04-25T08:02:13.998Z</time></trkpt><trkpt lat="43.36970792975083" lon="11.289033611467028"><ele>260.0</ele><time>2026-04-25T08:02:14.998Z</time></trkpt><trkpt lat="43.3695093045067" lon="11.289315261892733"><ele>260.0</ele><time>2026-04-25T08:02:15.998Z</time></trkpt><trkpt lat="43.36931748175632" lon="11.28960796379355"><ele>260.0</ele><time>2026-04-25T08:02:16.998Z</time></trkpt><trkpt lat="43.369134823523005" lon="11.28991110599256"><ele>262.0</ele><time>2026-04-25T08:02:17.998Z</time></trkpt><trkpt lat="43.36896577137201" lon="11.290229033732677"><ele>264.0</ele><time>2026-04-25T08:02:18.998Z</time></trkpt><trkpt lat="43.36880650334781" lon="11.290559410973685"><ele>260.5</ele><time>2026-04-25T08:02:19.998Z</time></trkpt><trkpt lat="43.3686628349915" lon="11.2909051137956"><ele>257.0</ele><time>2026-04-25T08:02:20.998Z</time></trkpt><trkpt lat="43.36852835780927" lon="11.29126217783108"><ele>260.5</ele><time>2026-04-25T08:02:21.998Z</time></trkpt><trkpt lat="43.36840635405835" lon="11.291628736574422"><ele>264.0</ele><time>2026-04-25T08:02:22.998Z</time></trkpt><trkpt lat="43.36829795071541" lon="11.292005434994913"><ele>269.0</ele><time>2026-04-25T08:02:23.998Z</time></trkpt><trkpt lat="43.368198696440295" lon="11.29238606837884"><ele>274.0</ele><time>2026-04-25T08:02:24.998Z</time></trkpt><trkpt lat="43.368113356711" lon="11.29277298046151"><ele>273.5</ele><time>2026-04-25T08:02:25.998Z</time></trkpt><trkpt lat="43.36803897830509" lon="11.293165767737355"><ele>273.0</ele><time>2026-04-25T08:02:26.998Z</time></trkpt><trkpt lat="43.3679745741313" lon="11.293561276008225"><ele>273.5</ele><time>2026-04-25T08:02:27.998Z</time></trkpt><trkpt lat="43.36791668682359" lon="11.293958846297771"><ele>274.0</ele><time>2026-04-25T08:02:28.998Z</time></trkpt><trkpt lat="43.36785643666476" lon="11.294354451262945"><ele>274.0</ele><time>2026-04-25T08:02:29.998Z</time></trkpt><trkpt lat="43.36779215437585" lon="11.294747962804516"><ele>274.0</ele><time>2026-04-25T08:02:30.998Z</time></trkpt><trkpt lat="43.367723582924675" lon="11.295140021799872"><ele>271.5</ele><time>2026-04-25T08:02:31.998Z</time></trkpt><trkpt lat="43.36765735843606" lon="11.29553000519176"><ele>269.0</ele><time>2026-04-25T08:02:32.998Z</time></trkpt><trkpt lat="43.367593948024144" lon="11.295919834469524"><ele>269.0</ele><time>2026-04-25T08:02:33.998Z</time></trkpt><trkpt lat="43.36753080711081" lon="11.296306197051507"><ele>269.0</ele><time>2026-04-25T08:02:35Z</time></trkpt><trkpt lat="43.36747059147039" lon="11.296683174440249"><ele>269.0</ele><time>2026-04-25T08:02:36Z</time></trkpt><trkpt lat="43.367412840851316" lon="11.297057178066476"><ele>269.0</ele><time>2026-04-25T08:02:37Z</time></trkpt><trkpt lat="43.36735532517941" lon="11.297423283436537"><ele>271.0</ele><time>2026-04-25T08:02:38Z</time></trkpt><trkpt lat="43.36728472230639" lon="11.297777420767469"><ele>273.0</ele><time>2026-04-25T08:02:39Z</time></trkpt><trkpt lat="43.36719792428671" lon="11.298119434783716"><ele>275.0</ele><time>2026-04-25T08:02:40Z</time></trkpt><trkpt lat="43.36709257164331" lon="11.298450923240484"><ele>277.0</ele><time>2026-04-25T08:02:41Z</time></trkpt><trkpt lat="43.36697249792234" lon="11.298771204404439"><ele>281.5</ele><time>2026-04-25T08:02:42Z</time></trkpt><trkpt lat="43.36684158921356" lon="11.299088588430417"><ele>286.0</ele><time>2026-04-25T08:02:43Z</time></trkpt><trkpt lat="43.366703343466554" lon="11.299406979985193"><ele>286.0</ele><time>2026-04-25T08:02:44Z</time></trkpt><trkpt lat="43.36655499858352" lon="11.29971746807143"><ele>286.0</ele><time>2026-04-25T08:02:45Z</time></trkpt><trkpt lat="43.36639983025564" lon="11.30002437697376"><ele>286.0</ele><time>2026-04-25T08:02:46Z</time></trkpt><trkpt lat="43.36623984935401" lon="11.3003301666993"><ele>286.0</ele><time>2026-04-25T08:02:47Z</time></trkpt><trkpt lat="43.366075652982744" lon="11.300631784221615"><ele>287.0</ele><time>2026-04-25T08:02:48Z</time></trkpt><trkpt lat="43.36590521005089" lon="11.300929927537886"><ele>288.0</ele><time>2026-04-25T08:02:49Z</time></trkpt><trkpt lat="43.36572090489573" lon="11.301217732977298"><ele>285.5</ele><time>2026-04-25T08:02:50Z</time></trkpt><trkpt lat="43.36552430253504" lon="11.301487276629667"><ele>283.0</ele><time>2026-04-25T08:02:51Z</time></trkpt><trkpt lat="43.36531740369971" lon="11.301738734718485"><ele>283.0</ele><time>2026-04-25T08:02:52Z</time></trkpt><trkpt lat="43.365098932273185" lon="11.301973429414273"><ele>283.0</ele><time>2026-04-25T08:02:53Z</time></trkpt><trkpt lat="43.36487045241297" lon="11.302189822952966"><ele>286.5</ele><time>2026-04-25T08:02:54Z</time></trkpt><trkpt lat="43.364635198019435" lon="11.302393123680996"><ele>290.0</ele><time>2026-04-25T08:02:55Z</time></trkpt><trkpt lat="43.36439507681866" lon="11.302588141169915"><ele>290.0</ele><time>2026-04-25T08:02:56Z</time></trkpt><trkpt lat="43.364148753840496" lon="11.30277230570755"><ele>290.0</ele><time>2026-04-25T08:02:57Z</time></trkpt><trkpt lat="43.36389817314028" lon="11.302945089665265"><ele>291.5</ele><time>2026-04-25T08:02:58Z</time></trkpt><trkpt lat="43.36364092891076" lon="11.30310052378067"><ele>293.0</ele><time>2026-04-25T08:02:59Z</time></trkpt><trkpt lat="43.36337570756259" lon="11.303235620762408"><ele>293.0</ele><time>2026-04-25T08:03:00Z</time></trkpt><trkpt lat="43.3631074754696" lon="11.303355606505079"><ele>293.0</ele><time>2026-04-25T08:03:01Z</time></trkpt><trkpt lat="43.362836116692066" lon="11.303455991932012"><ele>288.5</ele><time>2026-04-25T08:03:02Z</time></trkpt><trkpt lat="43.36256415908666" lon="11.303547652922658"><ele>284.0</ele><time>2026-04-25T08:03:03Z</time></trkpt><trkpt lat="43.36228715623139" lon="11.303632107558977"><ele>282.5</ele><time>2026-04-25T08:03:04Z</time></trkpt><trkpt lat="43.362007587459175" lon="11.303706539148898"><ele>281.0</ele><time>2026-04-25T08:03:05Z</time></trkpt><trkpt lat="43.361725396623534" lon="11.303775786794143"><ele>281.0</ele><time>2026-04-25T08:03:06Z</time></trkpt><trkpt lat="43.361442203656765" lon="11.303841091700452"><ele>281.0</ele><time>2026-04-25T08:03:07Z</time></trkpt><trkpt lat="43.361161302855045" lon="11.303904002640703"><ele>286.5</ele><time>2026-04-25T08:03:08Z</time></trkpt><trkpt lat="43.360880793901885" lon="11.303964789266141"><ele>292.0</ele><time>2026-04-25T08:03:09Z</time></trkpt><trkpt lat="43.36060170922701" lon="11.304022555239113"><ele>290.0</ele><time>2026-04-25T08:03:10Z</time></trkpt><trkpt lat="43.36032257283946" lon="11.304083731962892"><ele>288.0</ele><time>2026-04-25T08:03:11Z</time></trkpt><trkpt lat="43.36004672162053" lon="11.304151285286917"><ele>288.0</ele><time>2026-04-25T08:03:12Z</time></trkpt><trkpt lat="43.35977053886159" lon="11.304223431446756"><ele>288.0</ele><time>2026-04-25T08:03:13Z</time></trkpt><trkpt lat="43.35949488249184" lon="11.304297943749333"><ele>288.0</ele><time>2026-04-25T08:03:14Z</time></trkpt><trkpt lat="43.35921981640418" lon="11.304375514045553"><ele>288.0</ele><time>2026-04-25T08:03:15Z</time></trkpt><trkpt lat="43.35894482099181" lon="11.304453466356438"><ele>287.5</ele><time>2026-04-25T08:03:16Z</time></trkpt><trkpt lat="43.35866876431606" lon="11.304525052652203"><ele>287.0</ele><time>2026-04-25T08:03:17Z</time></trkpt><trkpt lat="43.35839340937276" lon="11.30459238689137"><ele>287.0</ele><time>2026-04-25T08:03:17.999Z</time></trkpt><trkpt lat="43.358120310953105" lon="11.304659488827154"><ele>287.0</ele><time>2026-04-25T08:03:18.999Z</time></trkpt><trkpt lat="43.357851418697415" lon="11.304726140900721"><ele>292.0</ele><time>2026-04-25T08:03:19.999Z</time></trkpt><trkpt lat="43.35758640208409" lon="11.30479122739295"><ele>297.0</ele><time>2026-04-25T08:03:20.999Z</time></trkpt><trkpt lat="43.35732332657008" lon="11.30484895275419"><ele>299.5</ele><time>2026-04-25T08:03:21.999Z</time></trkpt><trkpt lat="43.35705697562738" lon="11.30489762157816"><ele>302.0</ele><time>2026-04-25T08:03:22.999Z</time></trkpt><trkpt lat="43.35678201303956" lon="11.304937715742836"><ele>302.0</ele><time>2026-04-25T08:03:23.999Z</time></trkpt><trkpt lat="43.356498537781796" lon="11.304967019322445"><ele>302.0</ele><time>2026-04-25T08:03:24.999Z</time></trkpt><trkpt lat="43.3562082124616" lon="11.304971013991153"><ele>300.5</ele><time>2026-04-25T08:03:25.999Z</time></trkpt><trkpt lat="43.355915980123186" lon="11.304944054912253"><ele>299.0</ele><time>2026-04-25T08:03:26.999Z</time></trkpt><trkpt lat="43.355626644055654" lon="11.30489780973568"><ele>298.0</ele><time>2026-04-25T08:03:27.999Z</time></trkpt><trkpt lat="43.35533957751005" lon="11.304839234439621"><ele>297.0</ele><time>2026-04-25T08:03:28.999Z</time></trkpt><trkpt lat="43.35505571143251" lon="11.30477347397162"><ele>293.5</ele><time>2026-04-25T08:03:29.999Z</time></trkpt><trkpt lat="43.354776345711265" lon="11.304694772003264"><ele>290.0</ele><time>2026-04-25T08:03:30.999Z</time></trkpt><trkpt lat="43.354500657368206" lon="11.30459928731507"><ele>290.0</ele><time>2026-04-25T08:03:31.999Z</time></trkpt><trkpt lat="43.354230387512764" lon="11.304483924062865"><ele>290.0</ele><time>2026-04-25T08:03:32.999Z</time></trkpt><trkpt lat="43.353965825441406" lon="11.30435383775484"><ele>292.0</ele><time>2026-04-25T08:03:33.999Z</time></trkpt><trkpt lat="43.353703674344466" lon="11.304211631317674"><ele>294.0</ele><time>2026-04-25T08:03:34.999Z</time></trkpt><trkpt lat="43.35344449000152" lon="11.30406089987083"><ele>296.5</ele><time>2026-04-25T08:03:35.999Z</time></trkpt><trkpt lat="43.353186452700015" lon="11.303909819629098"><ele>299.0</ele><time>2026-04-25T08:03:36.999Z</time></trkpt><trkpt lat="43.35292723098658" lon="11.303764636976105"><ele>299.0</ele><time>2026-04-25T08:03:37.999Z</time></trkpt><trkpt lat="43.35266999500611" lon="11.303619753518253"><ele>299.0</ele><time>2026-04-25T08:03:38.999Z</time></trkpt><trkpt lat="43.35241343591898" lon="11.303470370152343"><ele>297.5</ele><time>2026-04-25T08:03:39.999Z</time></trkpt><trkpt lat="43.35215897189001" lon="11.303321214345715"><ele>296.0</ele><time>2026-04-25T08:03:40.999Z</time></trkpt><trkpt lat="43.35190259189264" lon="11.303174582481741"><ele>300.5</ele><time>2026-04-25T08:03:41.999Z</time></trkpt><trkpt lat="43.35164716435183" lon="11.303032029608369"><ele>305.0</ele><time>2026-04-25T08:03:42.999Z</time></trkpt><trkpt lat="43.35139407833048" lon="11.302888013899334"><ele>308.0</ele><time>2026-04-25T08:03:43.999Z</time></trkpt><trkpt lat="43.35114349450055" lon="11.302742198219915"><ele>311.0</ele><time>2026-04-25T08:03:44.999Z</time></trkpt><trkpt lat="43.3508935935954" lon="11.302594850137984"><ele>311.0</ele><time>2026-04-25T08:03:45.999Z</time></trkpt><trkpt lat="43.35064562527348" lon="11.302450618790672"><ele>311.0</ele><time>2026-04-25T08:03:46.999Z</time></trkpt><trkpt lat="43.35039725499046" lon="11.30231285589003"><ele>315.0</ele><time>2026-04-25T08:03:47.999Z</time></trkpt><trkpt lat="43.35015197324846" lon="11.302176830535172"><ele>319.0</ele><time>2026-04-25T08:03:48.999Z</time></trkpt><trkpt lat="43.34991013717533" lon="11.30203909196409"><ele>315.0</ele><time>2026-04-25T08:03:49.999Z</time></trkpt><trkpt lat="43.34967213960845" lon="11.301898624419266"><ele>311.0</ele><time>2026-04-25T08:03:50.999Z</time></trkpt><trkpt lat="43.34943508424091" lon="11.301759093043193"><ele>311.0</ele><time>2026-04-25T08:03:51.999Z</time></trkpt><trkpt lat="43.34919721679338" lon="11.301624200179756"><ele>311.0</ele><time>2026-04-25T08:03:52.999Z</time></trkpt><trkpt lat="43.34896045763621" lon="11.301494207445613"><ele>318.5</ele><time>2026-04-25T08:03:53.999Z</time></trkpt><trkpt lat="43.34872303764845" lon="11.301357676556472"><ele>326.0</ele><time>2026-04-25T08:03:54.999Z</time></trkpt><trkpt lat="43.348485153522354" lon="11.301215465470097"><ele>326.0</ele><time>2026-04-25T08:03:55.999Z</time></trkpt><trkpt lat="43.34824358063323" lon="11.301073162793148"><ele>326.0</ele><time>2026-04-25T08:03:56.999Z</time></trkpt><trkpt lat="43.347996971541804" lon="11.300929453550502"><ele>325.0</ele><time>2026-04-25T08:03:57.999Z</time></trkpt><trkpt lat="43.34774918114876" lon="11.300783470976745"><ele>324.0</ele><time>2026-04-25T08:03:58.999Z</time></trkpt><trkpt lat="43.34750244603088" lon="11.300632108905177"><ele>326.5</ele><time>2026-04-25T08:03:59.999Z</time></trkpt><trkpt lat="43.347259349629425" lon="11.300471173411024"><ele>329.0</ele><time>2026-04-25T08:04:00.999Z</time></trkpt><trkpt lat="43.347023474459476" lon="11.300293950717009"><ele>329.0</ele><time>2026-04-25T08:04:01.999Z</time></trkpt><trkpt lat="43.34679808516599" lon="11.30009680050977"><ele>329.0</ele><time>2026-04-25T08:04:02.999Z</time></trkpt><trkpt lat="43.346578656037146" lon="11.299891565917628"><ele>336.5</ele><time>2026-04-25T08:04:03.998Z</time></trkpt><trkpt lat="43.34635696747569" lon="11.29968560040292"><ele>344.0</ele><time>2026-04-25T08:04:04.998Z</time></trkpt><trkpt lat="43.346137897823965" lon="11.299477326496158"><ele>344.0</ele><time>2026-04-25T08:04:05.998Z</time></trkpt><trkpt lat="43.34592584969499" lon="11.299262258323386"><ele>344.0</ele><time>2026-04-25T08:04:06.998Z</time></trkpt><trkpt lat="43.34571356466395" lon="11.299043825575032"><ele>351.0</ele><time>2026-04-25T08:04:07.998Z</time></trkpt><trkpt lat="43.345498672204116" lon="11.298832448562978"><ele>358.0</ele><time>2026-04-25T08:04:08.998Z</time></trkpt><trkpt lat="43.34528087522568" lon="11.298626190521134"><ele>358.0</ele><time>2026-04-25T08:04:09.998Z</time></trkpt><trkpt lat="43.34506404120849" lon="11.298413766703481"><ele>358.0</ele><time>2026-04-25T08:04:10.998Z</time></trkpt><trkpt lat="43.3448524029766" lon="11.29819283209595"><ele>358.5</ele><time>2026-04-25T08:04:11.998Z</time></trkpt><trkpt lat="43.34464427547529" lon="11.297972735358892"><ele>359.0</ele><time>2026-04-25T08:04:12.998Z</time></trkpt><trkpt lat="43.344438013808315" lon="11.297755885788357"><ele>359.0</ele><time>2026-04-25T08:04:13.998Z</time></trkpt><trkpt lat="43.34423748305221" lon="11.297538860450846"><ele>359.0</ele><time>2026-04-25T08:04:14.998Z</time></trkpt><trkpt lat="43.34404204310065" lon="11.29732393418251"><ele>352.0</ele><time>2026-04-25T08:04:15.998Z</time></trkpt><trkpt lat="43.343756370001906" lon="11.297139705332034"><ele>345.0</ele><time>2026-04-25T08:04:16.998Z</time></trkpt><trkpt lat="43.3435466584824" lon="11.29693619950581"><ele>345.0</ele><time>2026-04-25T08:04:17.998Z</time></trkpt><trkpt lat="43.34334449164688" lon="11.296731283053704"><ele>345.0</ele><time>2026-04-25T08:04:18.998Z</time></trkpt><trkpt lat="43.343137381255424" lon="11.296530712002887"><ele>338.0</ele><time>2026-04-25T08:04:19.998Z</time></trkpt><trkpt lat="43.34293094020054" lon="11.29633215497625"><ele>331.0</ele><time>2026-04-25T08:04:20.998Z</time></trkpt><trkpt lat="43.34265186963288" lon="11.296073461127653"><ele>331.0</ele><time>2026-04-25T08:04:21.998Z</time></trkpt><trkpt lat="43.34243136145208" lon="11.295852656650439"><ele>331.0</ele><time>2026-04-25T08:04:22.998Z</time></trkpt><trkpt lat="43.3422212118247" lon="11.2956663628888"><ele>335.5</ele><time>2026-04-25T08:04:23.998Z</time></trkpt><trkpt lat="43.34199411060907" lon="11.295482987558774"><ele>340.0</ele><time>2026-04-25T08:04:24.998Z</time></trkpt><trkpt lat="43.34177282834646" lon="11.29531650130473"><ele>340.0</ele><time>2026-04-25T08:04:25.998Z</time></trkpt><trkpt lat="43.34155468499731" lon="11.295160732905998"><ele>340.0</ele><time>2026-04-25T08:04:26.998Z</time></trkpt><trkpt lat="43.34134058119977" lon="11.295023019260878"><ele>340.0</ele><time>2026-04-25T08:04:27.998Z</time></trkpt><trkpt lat="43.34112702834454" lon="11.294888206424991"><ele>340.0</ele><time>2026-04-25T08:04:28.998Z</time></trkpt><trkpt lat="43.34090964774214" lon="11.29475388032392"><ele>340.0</ele><time>2026-04-25T08:04:29.998Z</time></trkpt><trkpt lat="43.34069797163046" lon="11.294656834529313"><ele>340.0</ele><time>2026-04-25T08:04:30.998Z</time></trkpt><trkpt lat="43.34047867644506" lon="11.294536600944438"><ele>340.0</ele><time>2026-04-25T08:04:31.998Z</time></trkpt><trkpt lat="43.34025584618502" lon="11.294417284320883"><ele>340.0</ele><time>2026-04-25T08:04:32.998Z</time></trkpt><trkpt lat="43.34002431757133" lon="11.294304530839907"><ele>340.0</ele><time>2026-04-25T08:04:33.998Z</time></trkpt><trkpt lat="43.33978974427718" lon="11.294181346030031"><ele>340.0</ele><time>2026-04-25T08:04:34.998Z</time></trkpt><trkpt lat="43.3395499225558" lon="11.294045959747338"><ele>330.5</ele><time>2026-04-25T08:04:35.998Z</time></trkpt><trkpt lat="43.33931053930495" lon="11.293917364221597"><ele>321.0</ele><time>2026-04-25T08:04:36.998Z</time></trkpt><trkpt lat="43.339052077148786" lon="11.293761706038158"><ele>319.0</ele><time>2026-04-25T08:04:37.998Z</time></trkpt><trkpt lat="43.338794276041114" lon="11.293605430022215"><ele>317.0</ele><time>2026-04-25T08:04:38.998Z</time></trkpt><trkpt lat="43.33853533278791" lon="11.293459382942219"><ele>317.0</ele><time>2026-04-25T08:04:39.998Z</time></trkpt><trkpt lat="43.33827955720942" lon="11.293311547337671"><ele>317.0</ele><time>2026-04-25T08:04:41Z</time></trkpt><trkpt lat="43.338025748072916" lon="11.293158457628635"><ele>311.0</ele><time>2026-04-25T08:04:42Z</time></trkpt><trkpt lat="43.337770796083745" lon="11.29300596379153"><ele>305.0</ele><time>2026-04-25T08:04:43Z</time></trkpt><trkpt lat="43.337511831292" lon="11.292858919531568"><ele>305.0</ele><time>2026-04-25T08:04:44Z</time></trkpt><trkpt lat="43.33724981116699" lon="11.292710047757499"><ele>305.0</ele><time>2026-04-25T08:04:45Z</time></trkpt><trkpt lat="43.33698607499563" lon="11.292556519270995"><ele>304.0</ele><time>2026-04-25T08:04:46Z</time></trkpt><trkpt lat="43.33672479143258" lon="11.292400463095653"><ele>303.0</ele><time>2026-04-25T08:04:47Z</time></trkpt><trkpt lat="43.33646701201829" lon="11.292238795521648"><ele>301.5</ele><time>2026-04-25T08:04:48Z</time></trkpt><trkpt lat="43.336210736652006" lon="11.292071293592542"><ele>300.0</ele><time>2026-04-25T08:04:49Z</time></trkpt><trkpt lat="43.33595230799196" lon="11.291911657266933"><ele>300.0</ele><time>2026-04-25T08:04:50Z</time></trkpt><trkpt lat="43.33568975055935" lon="11.291770533433912"><ele>300.0</ele><time>2026-04-25T08:04:51Z</time></trkpt><trkpt lat="43.335423632689135" lon="11.291648855752934"><ele>299.0</ele><time>2026-04-25T08:04:52Z</time></trkpt><trkpt lat="43.335155719919534" lon="11.291547126725717"><ele>298.0</ele><time>2026-04-25T08:04:53Z</time></trkpt><trkpt lat="43.33488748597539" lon="11.291464828820269"><ele>291.0</ele><time>2026-04-25T08:04:54Z</time></trkpt><trkpt lat="43.3346167361328" lon="11.291396383362946"><ele>284.0</ele><time>2026-04-25T08:04:55Z</time></trkpt><trkpt lat="43.334343982403894" lon="11.291345200959396"><ele>284.0</ele><time>2026-04-25T08:04:56Z</time></trkpt><trkpt lat="43.33407307610032" lon="11.29130848156249"><ele>284.0</ele><time>2026-04-25T08:04:57Z</time></trkpt><trkpt lat="43.33380037603905" lon="11.291281300640389"><ele>281.5</ele><time>2026-04-25T08:04:58Z</time></trkpt><trkpt lat="43.33352608008172" lon="11.29127515856943"><ele>279.0</ele><time>2026-04-25T08:04:59Z</time></trkpt><trkpt lat="43.33325250462165" lon="11.29128543732576"><ele>277.0</ele><time>2026-04-25T08:05:00Z</time></trkpt><trkpt lat="43.33298112114864" lon="11.291318517334508"><ele>275.0</ele><time>2026-04-25T08:05:01Z</time></trkpt><trkpt lat="43.33271001197941" lon="11.291371623954445"><ele>274.5</ele><time>2026-04-25T08:05:02Z</time></trkpt><trkpt lat="43.33243812713575" lon="11.291437363477698"><ele>274.0</ele><time>2026-04-25T08:05:03Z</time></trkpt><trkpt lat="43.33216873126559" lon="11.291513898425684"><ele>274.0</ele><time>2026-04-25T08:05:04Z</time></trkpt><trkpt lat="43.331900360191405" lon="11.291610164843533"><ele>274.0</ele><time>2026-04-25T08:05:05Z</time></trkpt><trkpt lat="43.331635955929706" lon="11.29172211684735"><ele>271.0</ele><time>2026-04-25T08:05:06Z</time></trkpt><trkpt lat="43.33137433980549" lon="11.291852171657073"><ele>268.0</ele><time>2026-04-25T08:05:07Z</time></trkpt><trkpt lat="43.33111751478681" lon="11.291996474790052"><ele>268.0</ele><time>2026-04-25T08:05:08Z</time></trkpt><trkpt lat="43.330864874250075" lon="11.292154500099345"><ele>268.0</ele><time>2026-04-25T08:05:09Z</time></trkpt><trkpt lat="43.33061471073861" lon="11.292322950222028"><ele>268.0</ele><time>2026-04-25T08:05:10Z</time></trkpt><trkpt lat="43.33037073180735" lon="11.292507785959684"><ele>268.0</ele><time>2026-04-25T08:05:11Z</time></trkpt><trkpt lat="43.33013037239047" lon="11.292705666304268"><ele>268.0</ele><time>2026-04-25T08:05:12Z</time></trkpt><trkpt lat="43.32989490032263" lon="11.292914136233536"><ele>268.0</ele><time>2026-04-25T08:05:13Z</time></trkpt><trkpt lat="43.3296618174154" lon="11.29313222503705"><ele>268.5</ele><time>2026-04-25T08:05:14Z</time></trkpt><trkpt lat="43.329426973029726" lon="11.293353984388947"><ele>269.0</ele><time>2026-04-25T08:05:15Z</time></trkpt><trkpt lat="43.329188344666534" lon="11.293575245634822"><ele>269.0</ele><time>2026-04-25T08:05:16Z</time></trkpt><trkpt lat="43.32894848158443" lon="11.293797154425857"><ele>269.0</ele><time>2026-04-25T08:05:17Z</time></trkpt><trkpt lat="43.32870639583598" lon="11.294016685786866"><ele>267.5</ele><time>2026-04-25T08:05:18Z</time></trkpt><trkpt lat="43.328463425060654" lon="11.294230751454608"><ele>266.0</ele><time>2026-04-25T08:05:19Z</time></trkpt><trkpt lat="43.328221101277485" lon="11.294444140038896"><ele>265.5</ele><time>2026-04-25T08:05:20Z</time></trkpt><trkpt lat="43.32797884667769" lon="11.294658934112867"><ele>265.0</ele><time>2026-04-25T08:05:21Z</time></trkpt><trkpt lat="43.32773561747454" lon="11.294872764609705"><ele>266.0</ele><time>2026-04-25T08:05:22Z</time></trkpt><trkpt lat="43.32749141215928" lon="11.295085036911212"><ele>267.0</ele><time>2026-04-25T08:05:23Z</time></trkpt><trkpt lat="43.3272471416941" lon="11.295295800837135"><ele>265.5</ele><time>2026-04-25T08:05:24Z</time></trkpt><trkpt lat="43.327000908549486" lon="11.295502517306998"><ele>264.0</ele><time>2026-04-25T08:05:25Z</time></trkpt><trkpt lat="43.326749125772444" lon="11.295698147110897"><ele>264.0</ele><time>2026-04-25T08:05:26Z</time></trkpt><trkpt lat="43.32649235705053" lon="11.295883874890334"><ele>264.0</ele><time>2026-04-25T08:05:27Z</time></trkpt><trkpt lat="43.3262349925335" lon="11.2960659585026"><ele>264.0</ele><time>2026-04-25T08:05:28Z</time></trkpt><trkpt lat="43.325978386579415" lon="11.296249336636105"><ele>264.0</ele><time>2026-04-25T08:05:29Z</time></trkpt><trkpt lat="43.32572198356206" lon="11.296432920754691"><ele>262.0</ele><time>2026-04-25T08:05:30Z</time></trkpt><trkpt lat="43.32546610274236" lon="11.296617326236534"><ele>260.0</ele><time>2026-04-25T08:05:31Z</time></trkpt><trkpt lat="43.32520966123172" lon="11.296801147926272"><ele>260.0</ele><time>2026-04-25T08:05:32Z</time></trkpt><trkpt lat="43.32495196525757" lon="11.296983864797875"><ele>260.0</ele><time>2026-04-25T08:05:33Z</time></trkpt><trkpt lat="43.32469310133632" lon="11.297165385742844"><ele>261.0</ele><time>2026-04-25T08:05:33.999Z</time></trkpt><trkpt lat="43.32443710432198" lon="11.297351603527567"><ele>262.0</ele><time>2026-04-25T08:05:34.999Z</time></trkpt><trkpt lat="43.32418390281425" lon="11.297544179236624"><ele>262.0</ele><time>2026-04-25T08:05:35.999Z</time></trkpt><trkpt lat="43.32393093039312" lon="11.297733828718046"><ele>262.0</ele><time>2026-04-25T08:05:36.999Z</time></trkpt><trkpt lat="43.323676021232814" lon="11.29791921934359"><ele>262.5</ele><time>2026-04-25T08:05:37.999Z</time></trkpt><trkpt lat="43.32342040345129" lon="11.298102595573836"><ele>263.0</ele><time>2026-04-25T08:05:38.999Z</time></trkpt><trkpt lat="43.32316445984856" lon="11.29828454834245"><ele>260.0</ele><time>2026-04-25T08:05:39.999Z</time></trkpt><trkpt lat="43.32290858755237" lon="11.298467353787304"><ele>257.0</ele><time>2026-04-25T08:05:40.999Z</time></trkpt><trkpt lat="43.322652236040256" lon="11.298649809691252"><ele>257.0</ele><time>2026-04-25T08:05:41.999Z</time></trkpt><trkpt lat="43.32239560367676" lon="11.2988309921562"><ele>257.0</ele><time>2026-04-25T08:05:42.999Z</time></trkpt><trkpt lat="43.32213788231238" lon="11.299011226818202"><ele>259.0</ele><time>2026-04-25T08:05:43.999Z</time></trkpt><trkpt lat="43.32188189790965" lon="11.29918698343508"><ele>261.0</ele><time>2026-04-25T08:05:44.999Z</time></trkpt><trkpt lat="43.32162725317972" lon="11.299362551760003"><ele>259.0</ele><time>2026-04-25T08:05:45.999Z</time></trkpt><trkpt lat="43.321374839840246" lon="11.299543111344784"><ele>257.0</ele><time>2026-04-25T08:05:46.999Z</time></trkpt><trkpt lat="43.321124672342584" lon="11.299725011529667"><ele>257.0</ele><time>2026-04-25T08:05:47.999Z</time></trkpt><trkpt lat="43.32087458015642" lon="11.299904877363241"><ele>257.0</ele><time>2026-04-25T08:05:48.999Z</time></trkpt><trkpt lat="43.320622462379575" lon="11.300078639537647"><ele>257.0</ele><time>2026-04-25T08:05:49.999Z</time></trkpt><trkpt lat="43.320372110611224" lon="11.30024927428765"><ele>257.0</ele><time>2026-04-25T08:05:50.999Z</time></trkpt><trkpt lat="43.32012378925922" lon="11.300425877635885"><ele>257.5</ele><time>2026-04-25T08:05:51.999Z</time></trkpt><trkpt lat="43.319878518063156" lon="11.300602395489811"><ele>258.0</ele><time>2026-04-25T08:05:52.999Z</time></trkpt><trkpt lat="43.31963269878792" lon="11.30077306121491"><ele>258.0</ele><time>2026-04-25T08:05:53.999Z</time></trkpt><trkpt lat="43.319386745303476" lon="11.300941940133038"><ele>258.0</ele><time>2026-04-25T08:05:54.999Z</time></trkpt><trkpt lat="43.3191435821795" lon="11.301111263935114"><ele>260.5</ele><time>2026-04-25T08:05:55.999Z</time></trkpt><trkpt lat="43.31890092322499" lon="11.301280712106491"><ele>263.0</ele><time>2026-04-25T08:05:56.999Z</time></trkpt><trkpt lat="43.31865987043583" lon="11.301451782442319"><ele>257.0</ele><time>2026-04-25T08:05:57.999Z</time></trkpt><trkpt lat="43.31842226768278" lon="11.301627903930067"><ele>251.0</ele><time>2026-04-25T08:05:58.999Z</time></trkpt><trkpt lat="43.318189307479024" lon="11.301814716792377"><ele>252.5</ele><time>2026-04-25T08:05:59.999Z</time></trkpt><trkpt lat="43.31796334562863" lon="11.302013532463446"><ele>254.0</ele><time>2026-04-25T08:06:00.999Z</time></trkpt><trkpt lat="43.31774349965077" lon="11.302227374088297"><ele>251.5</ele><time>2026-04-25T08:06:01.999Z</time></trkpt><trkpt lat="43.317523007266644" lon="11.302447862643213"><ele>249.0</ele><time>2026-04-25T08:06:02.999Z</time></trkpt><trkpt lat="43.31730303609826" lon="11.302672495016544"><ele>249.0</ele><time>2026-04-25T08:06:03.999Z</time></trkpt><trkpt lat="43.31708515471698" lon="11.302912539657962"><ele>249.0</ele><time>2026-04-25T08:06:04.999Z</time></trkpt><trkpt lat="43.316871340263994" lon="11.303162189737932"><ele>249.0</ele><time>2026-04-25T08:06:05.999Z</time></trkpt><trkpt lat="43.316661698304415" lon="11.303424496709257"><ele>249.0</ele><time>2026-04-25T08:06:06.999Z</time></trkpt><trkpt lat="43.316456633475866" lon="11.303692901797593"><ele>250.5</ele><time>2026-04-25T08:06:07.999Z</time></trkpt><trkpt lat="43.316253848996794" lon="11.303962055654939"><ele>252.0</ele><time>2026-04-25T08:06:08.999Z</time></trkpt><trkpt lat="43.31606093653251" lon="11.304240628964633"><ele>252.0</ele><time>2026-04-25T08:06:09.999Z</time></trkpt><trkpt lat="43.31587550023769" lon="11.304526237366069"><ele>252.0</ele><time>2026-04-25T08:06:10.999Z</time></trkpt><trkpt lat="43.31569951166186" lon="11.304818627304975"><ele>254.5</ele><time>2026-04-25T08:06:11.999Z</time></trkpt><trkpt lat="43.315533500327106" lon="11.305121658000587"><ele>257.0</ele><time>2026-04-25T08:06:12.999Z</time></trkpt><trkpt lat="43.31537546465705" lon="11.305431562998061"><ele>254.0</ele><time>2026-04-25T08:06:13.999Z</time></trkpt><trkpt lat="43.31521702901659" lon="11.30574314170449"><ele>251.0</ele><time>2026-04-25T08:06:14.999Z</time></trkpt><trkpt lat="43.31505783387668" lon="11.306054932737121"><ele>251.0</ele><time>2026-04-25T08:06:15.999Z</time></trkpt><trkpt lat="43.31489516127028" lon="11.306366258960015"><ele>251.0</ele><time>2026-04-25T08:06:16.999Z</time></trkpt><trkpt lat="43.31473084198664" lon="11.30667583697352"><ele>254.0</ele><time>2026-04-25T08:06:17.999Z</time></trkpt><trkpt lat="43.31456878086848" lon="11.306981352150261"><ele>257.0</ele><time>2026-04-25T08:06:18.999Z</time></trkpt><trkpt lat="43.314410723463325" lon="11.30728621906212"><ele>251.0</ele><time>2026-04-25T08:06:19.999Z</time></trkpt><trkpt lat="43.31425570764576" lon="11.307593614773143"><ele>245.0</ele><time>2026-04-25T08:06:20.998Z</time></trkpt><trkpt lat="43.314095097528934" lon="11.307897672835717"><ele>245.0</ele><time>2026-04-25T08:06:21.998Z</time></trkpt><trkpt lat="43.313922502407245" lon="11.308191356113689"><ele>245.0</ele><time>2026-04-25T08:06:22.998Z</time></trkpt><trkpt lat="43.31374209011015" lon="11.308480837366087"><ele>244.0</ele><time>2026-04-25T08:06:23.998Z</time></trkpt><trkpt lat="43.31355776498082" lon="11.308762756601846"><ele>243.0</ele><time>2026-04-25T08:06:24.998Z</time></trkpt><trkpt lat="43.31336949334021" lon="11.309038081702923"><ele>243.0</ele><time>2026-04-25T08:06:25.998Z</time></trkpt><trkpt lat="43.313178330656065" lon="11.309306934767031"><ele>243.0</ele><time>2026-04-25T08:06:26.998Z</time></trkpt><trkpt lat="43.312983552223145" lon="11.30956733777938"><ele>241.0</ele><time>2026-04-25T08:06:27.998Z</time></trkpt><trkpt lat="43.312784518810055" lon="11.30981660816346"><ele>239.0</ele><time>2026-04-25T08:06:28.998Z</time></trkpt><trkpt lat="43.31258356568817" lon="11.310060331882237"><ele>239.0</ele><time>2026-04-25T08:06:29.998Z</time></trkpt><trkpt lat="43.31238214329585" lon="11.310300409938854"><ele>239.0</ele><time>2026-04-25T08:06:30.998Z</time></trkpt><trkpt lat="43.31217902872263" lon="11.310535081947984"><ele>239.5</ele><time>2026-04-25T08:06:31.998Z</time></trkpt><trkpt lat="43.31197448932023" lon="11.310754039517565"><ele>240.0</ele><time>2026-04-25T08:06:32.998Z</time></trkpt><trkpt lat="43.31177593779815" lon="11.310948609343372"><ele>240.0</ele><time>2026-04-25T08:06:33.998Z</time></trkpt><trkpt lat="43.31158178725083" lon="11.311134555441441"><ele>240.0</ele><time>2026-04-25T08:06:34.998Z</time></trkpt><trkpt lat="43.31138620089135" lon="11.311317606888434"><ele>239.5</ele><time>2026-04-25T08:06:35.998Z</time></trkpt><trkpt lat="43.31118676006261" lon="11.311502452661738"><ele>239.0</ele><time>2026-04-25T08:06:36.998Z</time></trkpt><trkpt lat="43.310984293790575" lon="11.311685946310028"><ele>239.0</ele><time>2026-04-25T08:06:37.998Z</time></trkpt><trkpt lat="43.310777064805286" lon="11.311869391198806"><ele>239.0</ele><time>2026-04-25T08:06:38.998Z</time></trkpt><trkpt lat="43.310570759341" lon="11.312053543756981"><ele>237.0</ele><time>2026-04-25T08:06:39.998Z</time></trkpt><trkpt lat="43.3103576342694" lon="11.312243197702271"><ele>235.0</ele><time>2026-04-25T08:06:40.998Z</time></trkpt><trkpt lat="43.31014038008682" lon="11.312437080524651"><ele>235.0</ele><time>2026-04-25T08:06:41.998Z</time></trkpt><trkpt lat="43.30992159036817" lon="11.312628062727544"><ele>235.0</ele><time>2026-04-25T08:06:42.998Z</time></trkpt><trkpt lat="43.309704399503104" lon="11.312810065571007"><ele>235.0</ele><time>2026-04-25T08:06:43.998Z</time></trkpt><trkpt lat="43.30948753964122" lon="11.312984858752838"><ele>235.0</ele><time>2026-04-25T08:06:44.998Z</time></trkpt><trkpt lat="43.30927412638052" lon="11.3131583183967"><ele>235.0</ele><time>2026-04-25T08:06:45.998Z</time></trkpt><trkpt lat="43.30906284403602" lon="11.313334499259165"><ele>235.0</ele><time>2026-04-25T08:06:47Z</time></trkpt><trkpt lat="43.30885463521142" lon="11.31351120213891"><ele>238.5</ele><time>2026-04-25T08:06:48Z</time></trkpt><trkpt lat="43.30864796218632" lon="11.313689329550915"><ele>242.0</ele><time>2026-04-25T08:06:49Z</time></trkpt><trkpt lat="43.30844205242405" lon="11.313868974980302"><ele>238.0</ele><time>2026-04-25T08:06:50Z</time></trkpt><trkpt lat="43.308239016926024" lon="11.314053944115042"><ele>234.0</ele><time>2026-04-25T08:06:51Z</time></trkpt><trkpt lat="43.30803513066337" lon="11.314236583496541"><ele>233.0</ele><time>2026-04-25T08:06:52Z</time></trkpt><trkpt lat="43.30782915377693" lon="11.314418133105702"><ele>232.0</ele><time>2026-04-25T08:06:53Z</time></trkpt><trkpt lat="43.30762653771112" lon="11.314600869911846"><ele>231.0</ele><time>2026-04-25T08:06:54Z</time></trkpt><trkpt lat="43.30742479604939" lon="11.314789557750386"><ele>230.0</ele><time>2026-04-25T08:06:55Z</time></trkpt><trkpt lat="43.307225734663895" lon="11.314985794330285"><ele>232.5</ele><time>2026-04-25T08:06:56Z</time></trkpt><trkpt lat="43.30703114804882" lon="11.315189042364027"><ele>235.0</ele><time>2026-04-25T08:06:57Z</time></trkpt><trkpt lat="43.30683952863345" lon="11.315399656506573"><ele>234.0</ele><time>2026-04-25T08:06:58Z</time></trkpt><trkpt lat="43.306654955314954" lon="11.315618318828763"><ele>233.0</ele><time>2026-04-25T08:06:59Z</time></trkpt><trkpt lat="43.306473200367385" lon="11.315847846893"><ele>240.0</ele><time>2026-04-25T08:07:00Z</time></trkpt><trkpt lat="43.30629469651156" lon="11.316079936644577"><ele>247.0</ele><time>2026-04-25T08:07:01Z</time></trkpt><trkpt lat="43.306120021319394" lon="11.316315520229997"><ele>240.5</ele><time>2026-04-25T08:07:02Z</time></trkpt><trkpt lat="43.305947268223186" lon="11.316551647823676"><ele>234.0</ele><time>2026-04-25T08:07:03Z</time></trkpt><trkpt lat="43.30577965138252" lon="11.316794746905815"><ele>234.0</ele><time>2026-04-25T08:07:04Z</time></trkpt><trkpt lat="43.30561388891782" lon="11.317041611706784"><ele>234.0</ele><time>2026-04-25T08:07:05Z</time></trkpt><trkpt lat="43.305451423488336" lon="11.317290114748223"><ele>230.5</ele><time>2026-04-25T08:07:06Z</time></trkpt><trkpt lat="43.30528925109812" lon="11.317534631563829"><ele>227.0</ele><time>2026-04-25T08:07:07Z</time></trkpt><trkpt lat="43.30512832507099" lon="11.31777339504721"><ele>227.0</ele><time>2026-04-25T08:07:08Z</time></trkpt><trkpt lat="43.30497125365007" lon="11.318011105450783"><ele>227.0</ele><time>2026-04-25T08:07:09Z</time></trkpt><trkpt lat="43.30481899106651" lon="11.318244369923608"><ele>227.0</ele><time>2026-04-25T08:07:10Z</time></trkpt><trkpt lat="43.30466866276815" lon="11.318468352015023"><ele>227.0</ele><time>2026-04-25T08:07:11Z</time></trkpt><trkpt lat="43.30451965385707" lon="11.318686077467852"><ele>227.0</ele><time>2026-04-25T08:07:11.999Z</time></trkpt><trkpt lat="43.304375014372745" lon="11.318907161487282"><ele>227.0</ele><time>2026-04-25T08:07:12.999Z</time></trkpt><trkpt lat="43.30422902654027" lon="11.319126331880693"><ele>227.0</ele><time>2026-04-25T08:07:13.999Z</time></trkpt><trkpt lat="43.30408303320015" lon="11.319345915790427"><ele>227.0</ele><time>2026-04-25T08:07:14.999Z</time></trkpt><trkpt lat="43.30393980747092" lon="11.31956466201122"><ele>229.0</ele><time>2026-04-25T08:07:15.999Z</time></trkpt><trkpt lat="43.30379484287264" lon="11.31978483874999"><ele>231.0</ele><time>2026-04-25T08:07:16.999Z</time></trkpt><trkpt lat="43.303653433318814" lon="11.320003928454966"><ele>233.0</ele><time>2026-04-25T08:07:17.999Z</time></trkpt><trkpt lat="43.303509065564015" lon="11.320219388748043"><ele>233.0</ele><time>2026-04-25T08:07:18.999Z</time></trkpt><trkpt lat="43.30336276466421" lon="11.32043563797426"><ele>233.0</ele><time>2026-04-25T08:07:19.999Z</time></trkpt><trkpt lat="43.30321750303913" lon="11.320648615627604"><ele>233.0</ele><time>2026-04-25T08:07:20.999Z</time></trkpt><trkpt lat="43.303077078871695" lon="11.320866026612645"><ele>231.33333333333334</ele><time>2026-04-25T08:07:21.999Z</time></trkpt><trkpt lat="43.30293528492261" lon="11.321082513146559"><ele>229.66666666666669</ele><time>2026-04-25T08:07:22.999Z</time></trkpt><trkpt lat="43.30279161889875" lon="11.321297366690585"><ele>228.0</ele><time>2026-04-25T08:07:23.999Z</time></trkpt><trkpt lat="43.302647725304965" lon="11.321512226828776"><ele>228.0</ele><time>2026-04-25T08:07:24.999Z</time></trkpt><trkpt lat="43.30250598618888" lon="11.321730930975075"><ele>228.0</ele><time>2026-04-25T08:07:25.999Z</time></trkpt><trkpt lat="43.302363439878974" lon="11.321949924489504"><ele>228.0</ele><time>2026-04-25T08:07:26.999Z</time></trkpt><trkpt lat="43.302219964724486" lon="11.322167813755819"><ele>227.66666666666669</ele><time>2026-04-25T08:07:27.999Z</time></trkpt><trkpt lat="43.30207691622962" lon="11.322380098861963"><ele>227.33333333333334</ele><time>2026-04-25T08:07:28.999Z</time></trkpt><trkpt lat="43.301937946515416" lon="11.322591074447212"><ele>227.0</ele><time>2026-04-25T08:07:29.999Z</time></trkpt><trkpt lat="43.301804278306086" lon="11.322798948382497"><ele>227.0</ele><time>2026-04-25T08:07:30.999Z</time></trkpt><trkpt lat="43.30167473696519" lon="11.322999012710207"><ele>227.0</ele><time>2026-04-25T08:07:31.999Z</time></trkpt><trkpt lat="43.301546907877444" lon="11.323195886453146"><ele>227.0</ele><time>2026-04-25T08:07:32.999Z</time></trkpt><trkpt lat="43.301419321613054" lon="11.323395583323443"><ele>227.0</ele><time>2026-04-25T08:07:33.999Z</time></trkpt><trkpt lat="43.30129217137912" lon="11.323599586977636"><ele>227.0</ele><time>2026-04-25T08:07:34.999Z</time></trkpt><trkpt lat="43.3011682695107" lon="11.323804589719579"><ele>227.0</ele><time>2026-04-25T08:07:35.999Z</time></trkpt><trkpt lat="43.30104503654371" lon="11.324005820883638"><ele>226.0</ele><time>2026-04-25T08:07:36.999Z</time></trkpt><trkpt lat="43.30092057338401" lon="11.324202250401019"><ele>225.0</ele><time>2026-04-25T08:07:37.999Z</time></trkpt><trkpt lat="43.300793899298576" lon="11.324389546372139"><ele>224.0</ele><time>2026-04-25T08:07:38.999Z</time></trkpt><trkpt lat="43.30067207386289" lon="11.32456688349883"><ele>223.33333333333334</ele><time>2026-04-25T08:07:39.999Z</time></trkpt><trkpt lat="43.3005619647792" lon="11.324746574648072"><ele>222.66666666666669</ele><time>2026-04-25T08:07:40.999Z</time></trkpt><trkpt lat="43.30046541154237" lon="11.324919041890784"><ele>222.0</ele><time>2026-04-25T08:07:41.999Z</time></trkpt><trkpt lat="43.300379356967724" lon="11.325078519607843"><ele>222.0</ele><time>2026-04-25T08:07:42.999Z</time></trkpt><trkpt lat="43.30029625292486" lon="11.32522239507906"><ele>222.0</ele><time>2026-04-25T08:07:43.999Z</time></trkpt><trkpt lat="43.30021916097142" lon="11.325337925919651"><ele>222.0</ele><time>2026-04-25T08:07:44.999Z</time></trkpt><trkpt lat="43.30013798513646" lon="11.325418026542241"><ele>222.0</ele><time>2026-04-25T08:07:45.999Z</time></trkpt><trkpt lat="43.300035197178396" lon="11.325463001339877"><ele>222.0</ele><time>2026-04-25T08:07:46.999Z</time></trkpt><trkpt lat="43.29993933812117" lon="11.325448401732581"><ele>222.0</ele><time>2026-04-25T08:07:47.998Z</time></trkpt><trkpt lat="43.29985532060712" lon="11.325370424896127"><ele>222.0</ele><time>2026-04-25T08:07:48.998Z</time></trkpt><trkpt lat="43.29976928932113" lon="11.325284091139103"><ele>222.0</ele><time>2026-04-25T08:07:49.998Z</time></trkpt><trkpt lat="43.299673300823024" lon="11.32521038409361"><ele>222.0</ele><time>2026-04-25T08:07:50.998Z</time></trkpt><trkpt lat="43.2995840664309" lon="11.325115824635219"><ele>222.0</ele><time>2026-04-25T08:07:51.998Z</time></trkpt><trkpt lat="43.29948376323035" lon="11.325044973122916"><ele>222.0</ele><time>2026-04-25T08:07:52.998Z</time></trkpt><trkpt lat="43.299380325873514" lon="11.325007946162895"><ele>222.0</ele><time>2026-04-25T08:07:53.998Z</time></trkpt><trkpt lat="43.29928004283284" lon="11.325013936159033"><ele>222.0</ele><time>2026-04-25T08:07:54.998Z</time></trkpt><trkpt lat="43.29918315650899" lon="11.32505912604457"><ele>222.0</ele><time>2026-04-25T08:07:55.998Z</time></trkpt><trkpt lat="43.29909728669704" lon="11.325137823687799"><ele>222.0</ele><time>2026-04-25T08:07:56.998Z</time></trkpt><trkpt lat="43.29902504501915" lon="11.325245873070163"><ele>222.0</ele><time>2026-04-25T08:07:57.998Z</time></trkpt><trkpt lat="43.29897750774911" lon="11.325384190517347"><ele>222.0</ele><time>2026-04-25T08:07:58.998Z</time></trkpt><trkpt lat="43.29894785900603" lon="11.325540763489101"><ele>222.0</ele><time>2026-04-25T08:07:59.998Z</time></trkpt><trkpt lat="43.298932723002395" lon="11.325710844936522"><ele>221.75</ele><time>2026-04-25T08:08:00.998Z</time></trkpt><trkpt lat="43.29891247312981" lon="11.32588686406566"><ele>221.5</ele><time>2026-04-25T08:08:01.998Z</time></trkpt><trkpt lat="43.298883458231884" lon="11.326069440735406"><ele>221.25</ele><time>2026-04-25T08:08:02.998Z</time></trkpt><trkpt lat="43.29885595475763" lon="11.326267012856817"><ele>221.0</ele><time>2026-04-25T08:08:03.998Z</time></trkpt><trkpt lat="43.29882936107095" lon="11.326460855179004"><ele>221.0</ele><time>2026-04-25T08:08:04.998Z</time></trkpt><trkpt lat="43.29879571497807" lon="11.326638802525359"><ele>221.00000000000003</ele><time>2026-04-25T08:08:05.998Z</time></trkpt><trkpt lat="43.298755031914446" lon="11.32680619691891"><ele>221.00000000000003</ele><time>2026-04-25T08:08:06.998Z</time></trkpt><trkpt lat="43.298711482106725" lon="11.326937762709365"><ele>221.0</ele><time>2026-04-25T08:08:07.998Z</time></trkpt><trkpt lat="43.29866291127678" lon="11.327027745770256"><ele>221.0</ele><time>2026-04-25T08:08:08.998Z</time></trkpt><trkpt lat="43.29860289449515" lon="11.327110874354805"><ele>221.0</ele><time>2026-04-25T08:08:10.998Z</time></trkpt><trkpt lat="43.29856433491227" lon="11.327219461989445"><ele>221.00000000000003</ele><time>2026-04-25T08:08:16.998Z</time></trkpt><trkpt lat="43.29862205135127" lon="11.32733412057802"><ele>221.00000000000003</ele><time>2026-04-25T08:08:17.998Z</time></trkpt><trkpt lat="43.29868046954278" lon="11.327415920379591"><ele>221.0</ele><time>2026-04-25T08:08:18.998Z</time></trkpt><trkpt lat="43.29874144276946" lon="11.327506028607727"><ele>221.0</ele><time>2026-04-25T08:08:19.998Z</time></trkpt><trkpt lat="43.29880786374664" lon="11.327606153311164"><ele>221.0</ele><time>2026-04-25T08:08:20.998Z</time></trkpt><trkpt lat="43.29888508836661" lon="11.327707929198555"><ele>221.00000000000003</ele><time>2026-04-25T08:08:21.998Z</time></trkpt><trkpt lat="43.29896145799589" lon="11.327796641839129"><ele>221.00000000000003</ele><time>2026-04-25T08:08:22.998Z</time></trkpt><trkpt lat="43.29904275944651" lon="11.327885818573968"><ele>221.0</ele><time>2026-04-25T08:08:23.998Z</time></trkpt><trkpt lat="43.29911978901849" lon="11.327982442803973"><ele>221.0</ele><time>2026-04-25T08:08:24.998Z</time></trkpt><trkpt lat="43.29919768282412" lon="11.32806625160858"><ele>221.0</ele><time>2026-04-25T08:08:25.998Z</time></trkpt><trkpt lat="43.29928959101045" lon="11.328122785290661"><ele>221.00000000000003</ele><time>2026-04-25T08:08:26.998Z</time></trkpt><trkpt lat="43.29938827912005" lon="11.328131624983643"><ele>221.00000000000003</ele><time>2026-04-25T08:08:27.998Z</time></trkpt><trkpt lat="43.299485738887014" lon="11.328117555945157"><ele>221.0</ele><time>2026-04-25T08:08:28.998Z</time></trkpt><trkpt lat="43.29957131675344" lon="11.328069519200293"><ele>221.0</ele><time>2026-04-25T08:08:29.998Z</time></trkpt><trkpt lat="43.29964767458784" lon="11.327996462066277"><ele>221.4</ele><time>2026-04-25T08:08:30.998Z</time></trkpt><trkpt lat="43.29971087541063" lon="11.327900948621787"><ele>221.8</ele><time>2026-04-25T08:08:31.998Z</time></trkpt><trkpt lat="43.2997509352825" lon="11.32778226013932"><ele>222.20000000000002</ele><time>2026-04-25T08:08:32.998Z</time></trkpt><trkpt lat="43.29977085164476" lon="11.32763797619592"><ele>222.60000000000002</ele><time>2026-04-25T08:08:33.998Z</time></trkpt><trkpt lat="43.29978840858885" lon="11.327474331902966"><ele>223.0</ele><time>2026-04-25T08:08:34.997Z</time></trkpt><trkpt lat="43.29981650815939" lon="11.327313996974782"><ele>222.8</ele><time>2026-04-25T08:08:35.997Z</time></trkpt><trkpt lat="43.299845975661114" lon="11.32715496763369"><ele>222.60000000000002</ele><time>2026-04-25T08:08:36.997Z</time></trkpt><trkpt lat="43.29986986032545" lon="11.32700810155825"><ele>222.39999999999998</ele><time>2026-04-25T08:08:37.997Z</time></trkpt><trkpt lat="43.29989378140965" lon="11.32687286796061"><ele>222.2</ele><time>2026-04-25T08:08:38.997Z</time></trkpt><trkpt lat="43.29993478789857" lon="11.326770349802503"><ele>222.0</ele><time>2026-04-25T08:08:39.997Z</time></trkpt><trkpt lat="43.29999339818747" lon="11.326698613788299"><ele>222.0</ele><time>2026-04-25T08:08:40.997Z</time></trkpt><trkpt lat="43.300064405366015" lon="11.326667368388485"><ele>222.0</ele><time>2026-04-25T08:08:41.997Z</time></trkpt><trkpt lat="43.30013754038325" lon="11.326674433554363"><ele>222.0</ele><time>2026-04-25T08:08:42.997Z</time></trkpt><trkpt lat="43.300204830669124" lon="11.326719215322921"><ele>222.0</ele><time>2026-04-25T08:08:43.997Z</time></trkpt><trkpt lat="43.30027372484264" lon="11.326854479858332"><ele>222.0</ele><time>2026-04-25T08:08:45.997Z</time></trkpt><trkpt lat="43.30026294228829" lon="11.327006947185986"><ele>222.0</ele><time>2026-04-25T08:08:47.997Z</time></trkpt><trkpt lat="43.30020929385608" lon="11.32706920769882"><ele>222.0</ele><time>2026-04-25T08:08:48.997Z</time></trkpt><trkpt lat="43.30012810623059" lon="11.32711353133982"><ele>222.0</ele><time>2026-04-25T08:08:49.997Z</time></trkpt><trkpt lat="43.300043095513075" lon="11.327158630283023"><ele>222.0</ele><time>2026-04-25T08:08:50.997Z</time></trkpt><trkpt lat="43.29998298968614" lon="11.327242963012988"><ele>222.0</ele><time>2026-04-25T08:08:51.997Z</time></trkpt><trkpt lat="43.29994932771076" lon="11.327358136613046"><ele>222.0</ele><time>2026-04-25T08:08:53Z</time></trkpt><trkpt lat="43.29993531271238" lon="11.327497297497095"><ele>222.25</ele><time>2026-04-25T08:08:54Z</time></trkpt><trkpt lat="43.299932617670564" lon="11.327654684409982"><ele>222.5</ele><time>2026-04-25T08:08:55Z</time></trkpt><trkpt lat="43.29990899267443" lon="11.327816003651533"><ele>222.75</ele><time>2026-04-25T08:08:56Z</time></trkpt><trkpt lat="43.29984582832443" lon="11.327979021185776"><ele>223.0</ele><time>2026-04-25T08:08:57Z</time></trkpt><trkpt lat="43.2997708888245" lon="11.328138755112201"><ele>222.33333333333331</ele><time>2026-04-25T08:08:58Z</time></trkpt><trkpt lat="43.29969764653425" lon="11.328320153903086"><ele>221.66666666666669</ele><time>2026-04-25T08:08:59Z</time></trkpt><trkpt lat="43.29962082813288" lon="11.328515670329748"><ele>221.0</ele><time>2026-04-25T08:09:00Z</time></trkpt><trkpt lat="43.29954938047406" lon="11.328710492754597"><ele>222.33333333333334</ele><time>2026-04-25T08:09:01Z</time></trkpt><trkpt lat="43.299477304880234" lon="11.328913417387492"><ele>223.66666666666669</ele><time>2026-04-25T08:09:02Z</time></trkpt><trkpt lat="43.29940518243443" lon="11.329123660786125"><ele>225.0</ele><time>2026-04-25T08:09:03Z</time></trkpt><trkpt lat="43.29933783900498" lon="11.329340189870086"><ele>225.0</ele><time>2026-04-25T08:09:04Z</time></trkpt><trkpt lat="43.29926276581508" lon="11.329549555606027"><ele>225.0</ele><time>2026-04-25T08:09:05Z</time></trkpt><trkpt lat="43.29917631827884" lon="11.32974770148365"><ele>225.0</ele><time>2026-04-25T08:09:06Z</time></trkpt><trkpt lat="43.29908658270036" lon="11.329926341128704"><ele>225.66666666666669</ele><time>2026-04-25T08:09:07Z</time></trkpt><trkpt lat="43.29899379830526" lon="11.330085307692665"><ele>226.33333333333334</ele><time>2026-04-25T08:09:08Z</time></trkpt><trkpt lat="43.29888273466821" lon="11.330230317314888"><ele>227.0</ele><time>2026-04-25T08:09:09Z</time></trkpt><trkpt lat="43.298760092872946" lon="11.33036269530706"><ele>227.0</ele><time>2026-04-25T08:09:10Z</time></trkpt><trkpt lat="43.29863571774351" lon="11.330503938622659"><ele>227.0</ele><time>2026-04-25T08:09:11Z</time></trkpt><trkpt lat="43.29851345551201" lon="11.330652386965287"><ele>227.0</ele><time>2026-04-25T08:09:12Z</time></trkpt><trkpt lat="43.29839648912747" lon="11.330802811531443"><ele>227.0</ele><time>2026-04-25T08:09:13Z</time></trkpt><trkpt lat="43.29828638029921" lon="11.330955124056786"><ele>227.0</ele><time>2026-04-25T08:09:13.999Z</time></trkpt><trkpt lat="43.29819157758623" lon="11.33110890508673"><ele>227.0</ele><time>2026-04-25T08:09:14.999Z</time></trkpt><trkpt lat="43.29810673685071" lon="11.331274941400986"><ele>225.5</ele><time>2026-04-25T08:09:15.999Z</time></trkpt><trkpt lat="43.29803395218606" lon="11.331449946560689"><ele>224.0</ele><time>2026-04-25T08:09:16.999Z</time></trkpt><trkpt lat="43.2979703678232" lon="11.331630176157093"><ele>222.5</ele><time>2026-04-25T08:09:17.999Z</time></trkpt><trkpt lat="43.29790874765828" lon="11.33181108971105"><ele>221.0</ele><time>2026-04-25T08:09:18.999Z</time></trkpt><trkpt lat="43.29784609283037" lon="11.331978360914652"><ele>221.0</ele><time>2026-04-25T08:09:19.999Z</time></trkpt><trkpt lat="43.29778046052173" lon="11.332131540624033"><ele>221.0</ele><time>2026-04-25T08:09:20.999Z</time></trkpt><trkpt lat="43.29770590485919" lon="11.332265707863538"><ele>221.0</ele><time>2026-04-25T08:09:21.999Z</time></trkpt><trkpt lat="43.29761847521976" lon="11.332378392658125"><ele>221.0</ele><time>2026-04-25T08:09:22.999Z</time></trkpt><trkpt lat="43.297510539217974" lon="11.332470105780576"><ele>220.25</ele><time>2026-04-25T08:09:23.999Z</time></trkpt><trkpt lat="43.297391219009846" lon="11.332541059725207"><ele>219.5</ele><time>2026-04-25T08:09:24.999Z</time></trkpt><trkpt lat="43.29726615282892" lon="11.332590956893641"><ele>218.75</ele><time>2026-04-25T08:09:25.999Z</time></trkpt><trkpt lat="43.29714352585785" lon="11.332638701358489"><ele>218.0</ele><time>2026-04-25T08:09:26.999Z</time></trkpt><trkpt lat="43.2970199227475" lon="11.332700745550834"><ele>218.0</ele><time>2026-04-25T08:09:27.999Z</time></trkpt><trkpt lat="43.296903678095276" lon="11.33278799639654"><ele>218.0</ele><time>2026-04-25T08:09:28.999Z</time></trkpt><trkpt lat="43.29679497579398" lon="11.332902669277331"><ele>218.0</ele><time>2026-04-25T08:09:29.999Z</time></trkpt><trkpt lat="43.2966940421386" lon="11.333038836022295"><ele>218.0</ele><time>2026-04-25T08:09:30.999Z</time></trkpt><trkpt lat="43.29661015198649" lon="11.333191879953397"><ele>217.8</ele><time>2026-04-25T08:09:31.999Z</time></trkpt><trkpt lat="43.296542689124884" lon="11.33334827615265"><ele>217.60000000000002</ele><time>2026-04-25T08:09:32.999Z</time></trkpt><trkpt lat="43.29648885044235" lon="11.33349622456883"><ele>217.39999999999998</ele><time>2026-04-25T08:09:33.999Z</time></trkpt><trkpt lat="43.296445189427224" lon="11.333623316702065"><ele>217.2</ele><time>2026-04-25T08:09:34.999Z</time></trkpt><trkpt lat="43.29641046389856" lon="11.333723524447635"><ele>217.0</ele><time>2026-04-25T08:09:35.999Z</time></trkpt><trkpt lat="43.296382083054226" lon="11.333813489529001"><ele>216.33333333333331</ele><time>2026-04-25T08:09:38.999Z</time></trkpt><trkpt lat="43.29633962336733" lon="11.333942470837568"><ele>215.66666666666666</ele><time>2026-04-25T08:09:41.999Z</time></trkpt><trkpt lat="43.29630834758586" lon="11.334025061111106"><ele>215.0</ele><time>2026-04-25T08:09:42.999Z</time></trkpt><trkpt lat="43.29628735729242" lon="11.334119989128636"><ele>214.33333333333331</ele><time>2026-04-25T08:09:43.999Z</time></trkpt><trkpt lat="43.2962604639194" lon="11.33423044802528"><ele>213.66666666666666</ele><time>2026-04-25T08:09:44.999Z</time></trkpt><trkpt lat="43.29620358147717" lon="11.334357737645076"><ele>213.0</ele><time>2026-04-25T08:09:45.999Z</time></trkpt><trkpt lat="43.296126626001055" lon="11.33448644985422"><ele>213.0</ele><time>2026-04-25T08:09:46.999Z</time></trkpt><trkpt lat="43.29604713590778" lon="11.334609884822974"><ele>213.0</ele><time>2026-04-25T08:09:47.999Z</time></trkpt><trkpt lat="43.295963322270445" lon="11.334749903164445"><ele>213.0</ele><time>2026-04-25T08:09:48.999Z</time></trkpt><trkpt lat="43.29587677092998" lon="11.33489603051115"><ele>213.0</ele><time>2026-04-25T08:09:49.999Z</time></trkpt><trkpt lat="43.295786577241394" lon="11.335037348409095"><ele>213.0</ele><time>2026-04-25T08:09:50.999Z</time></trkpt><trkpt lat="43.29568909620826" lon="11.33517679962172"><ele>213.0</ele><time>2026-04-25T08:09:51.999Z</time></trkpt><trkpt lat="43.295599155967494" lon="11.335318445922963"><ele>213.0</ele><time>2026-04-25T08:09:52.999Z</time></trkpt><trkpt lat="43.29550932106473" lon="11.33546156785052"><ele>213.0</ele><time>2026-04-25T08:09:53.999Z</time></trkpt><trkpt lat="43.295419471650774" lon="11.335600748351752"><ele>212.75</ele><time>2026-04-25T08:09:54.999Z</time></trkpt><trkpt lat="43.295341292367254" lon="11.335755478549373"><ele>212.5</ele><time>2026-04-25T08:09:55.999Z</time></trkpt><trkpt lat="43.295287006657944" lon="11.335929845645843"><ele>212.25</ele><time>2026-04-25T08:09:56.999Z</time></trkpt><trkpt lat="43.29524909999397" lon="11.336117366102865"><ele>212.0</ele><time>2026-04-25T08:09:57.999Z</time></trkpt><trkpt lat="43.295237796526195" lon="11.33630744666087"><ele>212.25</ele><time>2026-04-25T08:09:58.999Z</time></trkpt><trkpt lat="43.295258119190194" lon="11.336494714119326"><ele>212.5</ele><time>2026-04-25T08:09:59.999Z</time></trkpt><trkpt lat="43.295300834697954" lon="11.336672786480294"><ele>212.75</ele><time>2026-04-25T08:10:00.998Z</time></trkpt><trkpt lat="43.29535854300947" lon="11.336840548997715"><ele>213.0</ele><time>2026-04-25T08:10:01.998Z</time></trkpt><trkpt lat="43.29543242538864" lon="11.336991980977507"><ele>213.0</ele><time>2026-04-25T08:10:02.998Z</time></trkpt><trkpt lat="43.29552396609968" lon="11.337128795642194"><ele>213.0</ele><time>2026-04-25T08:10:03.998Z</time></trkpt><trkpt lat="43.29563086395094" lon="11.337250618873732"><ele>213.0</ele><time>2026-04-25T08:10:04.998Z</time></trkpt><trkpt lat="43.29575415344977" lon="11.337350756872706"><ele>213.0</ele><time>2026-04-25T08:10:05.998Z</time></trkpt><trkpt lat="43.29588138593378" lon="11.337445426851046"><ele>214.5</ele><time>2026-04-25T08:10:06.998Z</time></trkpt><trkpt lat="43.29600923051566" lon="11.337537180565752"><ele>216.0</ele><time>2026-04-25T08:10:07.998Z</time></trkpt><trkpt lat="43.29613054048606" lon="11.337627998455577"><ele>217.5</ele><time>2026-04-25T08:10:08.998Z</time></trkpt><trkpt lat="43.296239659512615" lon="11.33771012018813"><ele>219.0</ele><time>2026-04-25T08:10:09.998Z</time></trkpt><trkpt lat="43.29633360773641" lon="11.337783731872163"><ele>219.0</ele><time>2026-04-25T08:10:10.998Z</time></trkpt><trkpt lat="43.29641453701766" lon="11.33786123792507"><ele>218.99999999999997</ele><time>2026-04-25T08:10:11.998Z</time></trkpt><trkpt lat="43.29647284293902" lon="11.337971210753713"><ele>218.99999999999997</ele><time>2026-04-25T08:10:12.998Z</time></trkpt><trkpt lat="43.29650450857232" lon="11.338104065760598"><ele>219.0</ele><time>2026-04-25T08:10:13.998Z</time></trkpt><trkpt lat="43.29650181829338" lon="11.338238659409281"><ele>219.0</ele><time>2026-04-25T08:10:14.998Z</time></trkpt><trkpt lat="43.29647244790118" lon="11.338356276130941"><ele>220.0</ele><time>2026-04-25T08:10:15.998Z</time></trkpt><trkpt lat="43.296427684427535" lon="11.338452311645721"><ele>220.99999999999997</ele><time>2026-04-25T08:10:16.998Z</time></trkpt><trkpt lat="43.29635886114738" lon="11.338533278324505"><ele>221.99999999999997</ele><time>2026-04-25T08:10:17.998Z</time></trkpt><trkpt lat="43.29627423588928" lon="11.33858819581898"><ele>223.0</ele><time>2026-04-25T08:10:18.998Z</time></trkpt><trkpt lat="43.2961771133405" lon="11.338603767761436"><ele>224.0</ele><time>2026-04-25T08:10:19.998Z</time></trkpt><trkpt lat="43.29607411386088" lon="11.338557087070525"><ele>224.0</ele><time>2026-04-25T08:10:20.998Z</time></trkpt><trkpt lat="43.29595906263255" lon="11.338557906850555"><ele>224.0</ele><time>2026-04-25T08:10:21.998Z</time></trkpt><trkpt lat="43.2958458867636" lon="11.338568772393511"><ele>224.0</ele><time>2026-04-25T08:10:22.998Z</time></trkpt><trkpt lat="43.29573747201601" lon="11.338620636768534"><ele>224.0</ele><time>2026-04-25T08:10:23.998Z</time></trkpt><trkpt lat="43.29563595940587" lon="11.338693343788627"><ele>223.5</ele><time>2026-04-25T08:10:24.998Z</time></trkpt><trkpt lat="43.295541269382866" lon="11.338780950898585"><ele>223.0</ele><time>2026-04-25T08:10:25.998Z</time></trkpt><trkpt lat="43.29544077121732" lon="11.338878985739827"><ele>222.5</ele><time>2026-04-25T08:10:26.998Z</time></trkpt><trkpt lat="43.29535250114165" lon="11.339004262051294"><ele>222.0</ele><time>2026-04-25T08:10:27.998Z</time></trkpt><trkpt lat="43.2952810493866" lon="11.339153418968147"><ele>222.0</ele><time>2026-04-25T08:10:28.998Z</time></trkpt><trkpt lat="43.29522013960758" lon="11.339321694268437"><ele>222.0</ele><time>2026-04-25T08:10:29.998Z</time></trkpt><trkpt lat="43.2951630435597" lon="11.339489998332132"><ele>222.0</ele><time>2026-04-25T08:10:30.998Z</time></trkpt><trkpt lat="43.29510168887684" lon="11.339657200950908"><ele>222.0</ele><time>2026-04-25T08:10:31.998Z</time></trkpt><trkpt lat="43.29505052938213" lon="11.339833247890592"><ele>224.5</ele><time>2026-04-25T08:10:32.998Z</time></trkpt><trkpt lat="43.29501455029958" lon="11.340025995406352"><ele>227.0</ele><time>2026-04-25T08:10:33.998Z</time></trkpt><trkpt lat="43.294993928885525" lon="11.340226930641041"><ele>229.5</ele><time>2026-04-25T08:10:34.998Z</time></trkpt><trkpt lat="43.29498598221958" lon="11.34042457396356"><ele>232.0</ele><time>2026-04-25T08:10:35.998Z</time></trkpt><trkpt lat="43.2949769177359" lon="11.34060714935528"><ele>232.8</ele><time>2026-04-25T08:10:36.998Z</time></trkpt><trkpt lat="43.29496965207572" lon="11.340772727186748"><ele>233.6</ele><time>2026-04-25T08:10:37.998Z</time></trkpt><trkpt lat="43.29497590599686" lon="11.340912275449154"><ele>234.40000000000003</ele><time>2026-04-25T08:10:38.998Z</time></trkpt><trkpt lat="43.29499762343439" lon="11.341033155507095"><ele>235.20000000000002</ele><time>2026-04-25T08:10:39.998Z</time></trkpt><trkpt lat="43.2950384250264" lon="11.341132475306082"><ele>236.0</ele><time>2026-04-25T08:10:40.998Z</time></trkpt><trkpt lat="43.29509870792938" lon="11.341215119139482"><ele>236.0</ele><time>2026-04-25T08:10:41.998Z</time></trkpt><trkpt lat="43.295175847877125" lon="11.341278981551605"><ele>236.00000000000003</ele><time>2026-04-25T08:10:42.998Z</time></trkpt><trkpt lat="43.29526597478409" lon="11.341330647769638"><ele>236.00000000000003</ele><time>2026-04-25T08:10:43.998Z</time></trkpt><trkpt lat="43.29536232372007" lon="11.341372776951127"><ele>236.0</ele><time>2026-04-25T08:10:44.998Z</time></trkpt><trkpt lat="43.295462086226884" lon="11.34141386364638"><ele>236.0</ele><time>2026-04-25T08:10:45.998Z</time></trkpt><trkpt lat="43.29555163538985" lon="11.34145366054477"><ele>237.50000000000003</ele><time>2026-04-25T08:10:46.997Z</time></trkpt><trkpt lat="43.295623164695996" lon="11.341490836794986"><ele>239.0</ele><time>2026-04-25T08:10:47.997Z</time></trkpt><trkpt lat="43.2956947134234" lon="11.34153168079652"><ele>240.5</ele><time>2026-04-25T08:10:49.997Z</time></trkpt><trkpt lat="43.295758954344514" lon="11.341611064264391"><ele>242.0</ele><time>2026-04-25T08:11:35.999Z</time></trkpt><trkpt lat="43.29582098473937" lon="11.341739920562835"><ele>243.50000000000003</ele><time>2026-04-25T08:11:37.999Z</time></trkpt><trkpt lat="43.29582381787689" lon="11.341827779451078"><ele>245.0</ele><time>2026-04-25T08:11:38.999Z</time></trkpt><trkpt lat="43.295744583091285" lon="11.341918207800694"><ele>245.0</ele><time>2026-04-25T08:11:39.999Z</time></trkpt><trkpt lat="43.29568562101732" lon="11.342003274390846"><ele>245.0</ele><time>2026-04-25T08:11:40.999Z</time></trkpt><trkpt lat="43.29561977979447" lon="11.342089017372123"><ele>245.0</ele><time>2026-04-25T08:11:41.999Z</time></trkpt><trkpt lat="43.295540991352965" lon="11.34217590383029"><ele>245.0</ele><time>2026-04-25T08:11:42.999Z</time></trkpt><trkpt lat="43.29545845573642" lon="11.342264883781823"><ele>245.0</ele><time>2026-04-25T08:11:43.999Z</time></trkpt><trkpt lat="43.29537036273883" lon="11.342356469202757"><ele>245.0</ele><time>2026-04-25T08:11:44.999Z</time></trkpt><trkpt lat="43.29527129169631" lon="11.342445064034596"><ele>245.0</ele><time>2026-04-25T08:11:45.999Z</time></trkpt><trkpt lat="43.29516347967933" lon="11.34252438032525"><ele>245.0</ele><time>2026-04-25T08:11:46.999Z</time></trkpt><trkpt lat="43.295046447113656" lon="11.342596850320545"><ele>245.0</ele><time>2026-04-25T08:11:47.999Z</time></trkpt><trkpt lat="43.2949252820966" lon="11.342674641348008"><ele>245.0</ele><time>2026-04-25T08:11:48.999Z</time></trkpt><trkpt lat="43.29479828947558" lon="11.342755395089958"><ele>245.0</ele><time>2026-04-25T08:11:49.999Z</time></trkpt><trkpt lat="43.294666073797686" lon="11.342833093878028"><ele>245.0</ele><time>2026-04-25T08:11:50.999Z</time></trkpt><trkpt lat="43.29453296443228" lon="11.342904099731884"><ele>245.0</ele><time>2026-04-25T08:11:51.999Z</time></trkpt><trkpt lat="43.294396948863906" lon="11.342969328074881"><ele>244.75</ele><time>2026-04-25T08:11:52.999Z</time></trkpt><trkpt lat="43.29425555005902" lon="11.343028743874479"><ele>244.5</ele><time>2026-04-25T08:11:53.999Z</time></trkpt><trkpt lat="43.29411113270076" lon="11.343083982548832"><ele>244.25</ele><time>2026-04-25T08:11:54.999Z</time></trkpt><trkpt lat="43.29396545149172" lon="11.343126501036362"><ele>244.0</ele><time>2026-04-25T08:11:55.999Z</time></trkpt><trkpt lat="43.29382616231534" lon="11.343163156067694"><ele>243.75</ele><time>2026-04-25T08:11:56.999Z</time></trkpt><trkpt lat="43.29369055559099" lon="11.343198221662568"><ele>243.5</ele><time>2026-04-25T08:11:57.999Z</time></trkpt><trkpt lat="43.29356089067742" lon="11.34322932727371"><ele>243.25</ele><time>2026-04-25T08:11:58.999Z</time></trkpt><trkpt lat="43.293439153959646" lon="11.343259297574495"><ele>243.0</ele><time>2026-04-25T08:11:59.999Z</time></trkpt><trkpt lat="43.29332083591714" lon="11.343291868402734"><ele>243.0</ele><time>2026-04-25T08:12:00.999Z</time></trkpt><trkpt lat="43.293201408527516" lon="11.3433230019734"><ele>243.0</ele><time>2026-04-25T08:12:01.999Z</time></trkpt><trkpt lat="43.29308481697316" lon="11.343354202076267"><ele>243.0</ele><time>2026-04-25T08:12:02.999Z</time></trkpt><trkpt lat="43.29296516884079" lon="11.343391975201799"><ele>243.0</ele><time>2026-04-25T08:12:03.999Z</time></trkpt><trkpt lat="43.292840162799955" lon="11.343436541681806"><ele>244.0</ele><time>2026-04-25T08:12:04.999Z</time></trkpt><trkpt lat="43.29271301194529" lon="11.343485266323345"><ele>245.0</ele><time>2026-04-25T08:12:05.999Z</time></trkpt><trkpt lat="43.29258428511581" lon="11.34353584068244"><ele>246.0</ele><time>2026-04-25T08:12:06.999Z</time></trkpt><trkpt lat="43.29245463236758" lon="11.343591103719849"><ele>247.0</ele><time>2026-04-25T08:12:07.999Z</time></trkpt><trkpt lat="43.292324192893446" lon="11.343645148597354"><ele>246.25</ele><time>2026-04-25T08:12:08.999Z</time></trkpt><trkpt lat="43.292193151766334" lon="11.343694769322829"><ele>245.5</ele><time>2026-04-25T08:12:09.999Z</time></trkpt><trkpt lat="43.29207253221332" lon="11.343738528162618"><ele>244.75</ele><time>2026-04-25T08:12:10.999Z</time></trkpt><trkpt lat="43.291950823743704" lon="11.343777598500656"><ele>244.0</ele><time>2026-04-25T08:12:11.999Z</time></trkpt><trkpt lat="43.29183063701113" lon="11.343805450850398"><ele>244.0</ele><time>2026-04-25T08:12:12.999Z</time></trkpt><trkpt lat="43.291709881279154" lon="11.343828374370712"><ele>244.0</ele><time>2026-04-25T08:12:13.998Z</time></trkpt><trkpt lat="43.29158780039392" lon="11.343850299752981"><ele>244.0</ele><time>2026-04-25T08:12:14.998Z</time></trkpt><trkpt lat="43.29145928979251" lon="11.34387535180659"><ele>244.0</ele><time>2026-04-25T08:12:15.998Z</time></trkpt><trkpt lat="43.29132820198202" lon="11.343899098071358"><ele>244.0</ele><time>2026-04-25T08:12:16.998Z</time></trkpt><trkpt lat="43.29119500095679" lon="11.343916326173552"><ele>244.0</ele><time>2026-04-25T08:12:17.998Z</time></trkpt><trkpt lat="43.29106503528568" lon="11.343926602315218"><ele>244.0</ele><time>2026-04-25T08:12:18.998Z</time></trkpt><trkpt lat="43.290942184552" lon="11.343933962500943"><ele>244.0</ele><time>2026-04-25T08:12:19.998Z</time></trkpt><trkpt lat="43.29082702739299" lon="11.343940085931381"><ele>244.0</ele><time>2026-04-25T08:12:20.998Z</time></trkpt><trkpt lat="43.29071764873835" lon="11.343942971172602"><ele>243.99999999999997</ele><time>2026-04-25T08:12:21.998Z</time></trkpt><trkpt lat="43.29061396144514" lon="11.34394168624486"><ele>243.99999999999997</ele><time>2026-04-25T08:12:22.998Z</time></trkpt><trkpt lat="43.29050482591583" lon="11.343933376092737"><ele>244.0</ele><time>2026-04-25T08:12:23.998Z</time></trkpt><trkpt lat="43.29039403956813" lon="11.343896325258756"><ele>244.0</ele><time>2026-04-25T08:12:24.998Z</time></trkpt><trkpt lat="43.2902772118074" lon="11.34389436117793"><ele>244.75</ele><time>2026-04-25T08:12:25.998Z</time></trkpt><trkpt lat="43.29016148898287" lon="11.343864888123907"><ele>245.5</ele><time>2026-04-25T08:12:26.998Z</time></trkpt><trkpt lat="43.29004411764416" lon="11.343830986235885"><ele>246.25</ele><time>2026-04-25T08:12:27.998Z</time></trkpt><trkpt lat="43.28992502876384" lon="11.34379811664288"><ele>247.0</ele><time>2026-04-25T08:12:28.998Z</time></trkpt><trkpt lat="43.28980946098662" lon="11.34374121063323"><ele>247.25</ele><time>2026-04-25T08:12:29.998Z</time></trkpt><trkpt lat="43.289683530204854" lon="11.34371309242014"><ele>247.5</ele><time>2026-04-25T08:12:30.998Z</time></trkpt><trkpt lat="43.289553197343686" lon="11.343736263660464"><ele>247.75</ele><time>2026-04-25T08:12:31.998Z</time></trkpt><trkpt lat="43.28941720444875" lon="11.343750140168055"><ele>248.0</ele><time>2026-04-25T08:12:32.998Z</time></trkpt><trkpt lat="43.289293637725095" lon="11.34377915088403"><ele>248.0</ele><time>2026-04-25T08:12:33.998Z</time></trkpt><trkpt lat="43.28917631027221" lon="11.34378237392622"><ele>248.0</ele><time>2026-04-25T08:12:34.998Z</time></trkpt><trkpt lat="43.289072397159714" lon="11.343804517511467"><ele>248.0</ele><time>2026-04-25T08:12:35.998Z</time></trkpt><trkpt lat="43.28896789130429" lon="11.343826937243648"><ele>248.0</ele><time>2026-04-25T08:12:36.998Z</time></trkpt><trkpt lat="43.28885424471388" lon="11.343851741900208"><ele>248.0</ele><time>2026-04-25T08:12:37.998Z</time></trkpt><trkpt lat="43.288737817432306" lon="11.343899452951261"><ele>247.25</ele><time>2026-04-25T08:12:38.998Z</time></trkpt><trkpt lat="43.28861127551553" lon="11.343905052394515"><ele>246.5</ele><time>2026-04-25T08:12:39.998Z</time></trkpt><trkpt lat="43.28848392322841" lon="11.343955466363315"><ele>245.75</ele><time>2026-04-25T08:12:40.998Z</time></trkpt><trkpt lat="43.288348143285745" lon="11.343985740972638"><ele>245.0</ele><time>2026-04-25T08:12:41.998Z</time></trkpt><trkpt lat="43.28821430268884" lon="11.344025165050171"><ele>245.75</ele><time>2026-04-25T08:12:42.998Z</time></trkpt><trkpt lat="43.288079409458255" lon="11.344074424700969"><ele>246.5</ele><time>2026-04-25T08:12:43.998Z</time></trkpt><trkpt lat="43.2879448129029" lon="11.34414136385995"><ele>247.25</ele><time>2026-04-25T08:12:44.998Z</time></trkpt><trkpt lat="43.287815453351726" lon="11.344229936103531"><ele>248.0</ele><time>2026-04-25T08:12:45.998Z</time></trkpt><trkpt lat="43.28769123891953" lon="11.344339719350794"><ele>248.0</ele><time>2026-04-25T08:12:46.998Z</time></trkpt><trkpt lat="43.287576218380124" lon="11.344471592283707"><ele>248.0</ele><time>2026-04-25T08:12:47.998Z</time></trkpt><trkpt lat="43.28746551848209" lon="11.34461145501005"><ele>248.0</ele><time>2026-04-25T08:12:48.998Z</time></trkpt><trkpt lat="43.28735812007335" lon="11.344760706618557"><ele>246.66666666666669</ele><time>2026-04-25T08:12:49.998Z</time></trkpt><trkpt lat="43.28724783938758" lon="11.344911495465327"><ele>245.33333333333331</ele><time>2026-04-25T08:12:50.998Z</time></trkpt><trkpt lat="43.287143467404135" lon="11.345069804842803"><ele>244.0</ele><time>2026-04-25T08:12:51.998Z</time></trkpt><trkpt lat="43.28704473423658" lon="11.345244909953598"><ele>244.0</ele><time>2026-04-25T08:12:52.998Z</time></trkpt><trkpt lat="43.28695281630243" lon="11.3454389236438"><ele>244.0</ele><time>2026-04-25T08:12:53.998Z</time></trkpt><trkpt lat="43.28686949500241" lon="11.345641038421874"><ele>244.0</ele><time>2026-04-25T08:12:54.998Z</time></trkpt><trkpt lat="43.286796930329" lon="11.345859659948262"><ele>244.33333333333331</ele><time>2026-04-25T08:12:55.998Z</time></trkpt><trkpt lat="43.286742359780185" lon="11.346088895259085"><ele>244.66666666666669</ele><time>2026-04-25T08:12:56.998Z</time></trkpt><trkpt lat="43.286709875890296" lon="11.346332163956156"><ele>245.0</ele><time>2026-04-25T08:12:57.998Z</time></trkpt><trkpt lat="43.28668776257421" lon="11.346576427454439"><ele>243.66666666666669</ele><time>2026-04-25T08:12:58.998Z</time></trkpt><trkpt lat="43.286671683784064" lon="11.34681256485739"><ele>242.33333333333331</ele><time>2026-04-25T08:12:59.998Z</time></trkpt><trkpt lat="43.286658330314665" lon="11.347046704121809"><ele>241.0</ele><time>2026-04-25T08:13:00.997Z</time></trkpt><trkpt lat="43.28663837771941" lon="11.347278922091276"><ele>241.0</ele><time>2026-04-25T08:13:01.997Z</time></trkpt><trkpt lat="43.286599947332846" lon="11.347505798510626"><ele>241.0</ele><time>2026-04-25T08:13:02.997Z</time></trkpt><trkpt lat="43.28654303786448" lon="11.347722279338111"><ele>241.0</ele><time>2026-04-25T08:13:03.997Z</time></trkpt><trkpt lat="43.286479597549786" lon="11.347933234917122"><ele>237.66666666666666</ele><time>2026-04-25T08:13:05Z</time></trkpt><trkpt lat="43.286416565826656" lon="11.348132711009367"><ele>234.33333333333331</ele><time>2026-04-25T08:13:06Z</time></trkpt><trkpt lat="43.28635333905942" lon="11.348325302689606"><ele>231.0</ele><time>2026-04-25T08:13:07Z</time></trkpt><trkpt lat="43.28627995445263" lon="11.348517458214436"><ele>231.0</ele><time>2026-04-25T08:13:08Z</time></trkpt><trkpt lat="43.28619935248421" lon="11.348711078438415"><ele>231.0</ele><time>2026-04-25T08:13:09Z</time></trkpt><trkpt lat="43.28612012506205" lon="11.348900696799378"><ele>231.0</ele><time>2026-04-25T08:13:10Z</time></trkpt><trkpt lat="43.28604351867191" lon="11.349092297993584"><ele>232.0</ele><time>2026-04-25T08:13:11Z</time></trkpt><trkpt lat="43.2859644951593" lon="11.349289649512436"><ele>233.0</ele><time>2026-04-25T08:13:12Z</time></trkpt><trkpt lat="43.28588119307595" lon="11.349483347366451"><ele>234.0</ele><time>2026-04-25T08:13:13Z</time></trkpt><trkpt lat="43.28579696002518" lon="11.349681089346094"><ele>234.33333333333331</ele><time>2026-04-25T08:13:14Z</time></trkpt><trkpt lat="43.28572095692181" lon="11.349887287593868"><ele>234.66666666666666</ele><time>2026-04-25T08:13:15Z</time></trkpt><trkpt lat="43.285650005934464" lon="11.350099442900934"><ele>235.0</ele><time>2026-04-25T08:13:16Z</time></trkpt><trkpt lat="43.28557980469382" lon="11.350310688251373"><ele>236.0</ele><time>2026-04-25T08:13:17Z</time></trkpt><trkpt lat="43.285514337310346" lon="11.350518643807783"><ele>237.0</ele><time>2026-04-25T08:13:18Z</time></trkpt><trkpt lat="43.28544942265203" lon="11.350724792517408"><ele>238.0</ele><time>2026-04-25T08:13:19Z</time></trkpt><trkpt lat="43.28538373824603" lon="11.350929519146204"><ele>238.0</ele><time>2026-04-25T08:13:20Z</time></trkpt><trkpt lat="43.285319386828206" lon="11.351131659244157"><ele>238.0</ele><time>2026-04-25T08:13:21Z</time></trkpt><trkpt lat="43.285254185148105" lon="11.351333126075957"><ele>238.0</ele><time>2026-04-25T08:13:22Z</time></trkpt><trkpt lat="43.28519079648665" lon="11.351535781029959"><ele>237.0</ele><time>2026-04-25T08:13:23Z</time></trkpt><trkpt lat="43.28512948950228" lon="11.351738453609807"><ele>236.0</ele><time>2026-04-25T08:13:24Z</time></trkpt><trkpt lat="43.28506275737819" lon="11.351938676268395"><ele>235.0</ele><time>2026-04-25T08:13:25Z</time></trkpt><trkpt lat="43.28499425661372" lon="11.352139857758559"><ele>236.0</ele><time>2026-04-25T08:13:26Z</time></trkpt><trkpt lat="43.284927341728775" lon="11.35234139056848"><ele>237.0</ele><time>2026-04-25T08:13:27Z</time></trkpt><trkpt lat="43.284857693615194" lon="11.352531188954192"><ele>238.0</ele><time>2026-04-25T08:13:28Z</time></trkpt><trkpt lat="43.28478362063158" lon="11.35270326450473"><ele>237.5</ele><time>2026-04-25T08:13:29Z</time></trkpt><trkpt lat="43.28470125658096" lon="11.352853092760443"><ele>237.0</ele><time>2026-04-25T08:13:30Z</time></trkpt><trkpt lat="43.284613726197335" lon="11.352986922582323"><ele>236.5</ele><time>2026-04-25T08:13:31Z</time></trkpt><trkpt lat="43.28451128474614" lon="11.353110169179216"><ele>236.0</ele><time>2026-04-25T08:13:32Z</time></trkpt><trkpt lat="43.28440235973188" lon="11.353226599670938"><ele>236.0</ele><time>2026-04-25T08:13:33Z</time></trkpt><trkpt lat="43.284288417805385" lon="11.353336637585116"><ele>236.0</ele><time>2026-04-25T08:13:34Z</time></trkpt><trkpt lat="43.28416793184611" lon="11.353439053970668"><ele>236.0</ele><time>2026-04-25T08:13:35Z</time></trkpt><trkpt lat="43.28404152343412" lon="11.353525176597632"><ele>236.0</ele><time>2026-04-25T08:13:36Z</time></trkpt><trkpt lat="43.28390905429583" lon="11.353592487794739"><ele>236.5</ele><time>2026-04-25T08:13:37Z</time></trkpt><trkpt lat="43.283774854723255" lon="11.353644786681219"><ele>237.0</ele><time>2026-04-25T08:13:38Z</time></trkpt><trkpt lat="43.283640770831234" lon="11.353678998178907"><ele>237.5</ele><time>2026-04-25T08:13:38.999Z</time></trkpt><trkpt lat="43.28350132616844" lon="11.353700280486237"><ele>238.0</ele><time>2026-04-25T08:13:39.999Z</time></trkpt><trkpt lat="43.28336075216827" lon="11.353702195323322"><ele>238.0</ele><time>2026-04-25T08:13:40.999Z</time></trkpt><trkpt lat="43.28321725424878" lon="11.353691328879165"><ele>238.0</ele><time>2026-04-25T08:13:41.999Z</time></trkpt><trkpt lat="43.28307209736702" lon="11.353667500153442"><ele>238.0</ele><time>2026-04-25T08:13:42.999Z</time></trkpt><trkpt lat="43.28292567564322" lon="11.353638145245695"><ele>238.0</ele><time>2026-04-25T08:13:43.999Z</time></trkpt><trkpt lat="43.28277558311978" lon="11.353606961646511"><ele>238.0</ele><time>2026-04-25T08:13:44.999Z</time></trkpt><trkpt lat="43.282623514749915" lon="11.353573789030532"><ele>238.0</ele><time>2026-04-25T08:13:45.999Z</time></trkpt><trkpt lat="43.282461160588305" lon="11.353539913193417"><ele>238.0</ele><time>2026-04-25T08:13:46.999Z</time></trkpt><trkpt lat="43.28228981398451" lon="11.353478516964557"><ele>238.0</ele><time>2026-04-25T08:13:47.999Z</time></trkpt><trkpt lat="43.28210672588226" lon="11.353436652319102"><ele>238.0</ele><time>2026-04-25T08:13:48.999Z</time></trkpt><trkpt lat="43.28192100998031" lon="11.353393600089998"><ele>238.0</ele><time>2026-04-25T08:13:49.999Z</time></trkpt><trkpt lat="43.281730109720044" lon="11.353349578499806"><ele>238.0</ele><time>2026-04-25T08:13:50.999Z</time></trkpt><trkpt lat="43.28154443693538" lon="11.353328371874914"><ele>238.0</ele><time>2026-04-25T08:13:51.999Z</time></trkpt><trkpt lat="43.281368023783195" lon="11.353262928826565"><ele>238.0</ele><time>2026-04-25T08:13:52.999Z</time></trkpt><trkpt lat="43.28118642095865" lon="11.35321195636563"><ele>238.0</ele><time>2026-04-25T08:13:53.999Z</time></trkpt><trkpt lat="43.28099844748457" lon="11.35317325996393"><ele>238.0</ele><time>2026-04-25T08:13:54.999Z</time></trkpt><trkpt lat="43.2808042081446" lon="11.353080034463604"><ele>238.0</ele><time>2026-04-25T08:13:55.999Z</time></trkpt><trkpt lat="43.28058420556294" lon="11.35299999401945"><ele>234.0</ele><time>2026-04-25T08:13:56.999Z</time></trkpt><trkpt lat="43.280356281844846" lon="11.352920117856234"><ele>230.0</ele><time>2026-04-25T08:13:57.999Z</time></trkpt><trkpt lat="43.28012981135427" lon="11.352840656353708"><ele>230.0</ele><time>2026-04-25T08:13:58.999Z</time></trkpt><trkpt lat="43.27989663191396" lon="11.35278655975211"><ele>230.0</ele><time>2026-04-25T08:13:59.999Z</time></trkpt><trkpt lat="43.27967226739038" lon="11.352705641850429"><ele>229.0</ele><time>2026-04-25T08:14:00.999Z</time></trkpt><trkpt lat="43.27944321477496" lon="11.352679780341484"><ele>228.0</ele><time>2026-04-25T08:14:01.999Z</time></trkpt><trkpt lat="43.279229737386316" lon="11.352650252134344"><ele>227.0</ele><time>2026-04-25T08:14:02.999Z</time></trkpt><trkpt lat="43.279024714055446" lon="11.352639305254696"><ele>227.0</ele><time>2026-04-25T08:14:03.999Z</time></trkpt><trkpt lat="43.27883197469558" lon="11.35265267545573"><ele>227.0</ele><time>2026-04-25T08:14:04.999Z</time></trkpt><trkpt lat="43.27864194261284" lon="11.352715594111569"><ele>227.0</ele><time>2026-04-25T08:14:05.999Z</time></trkpt><trkpt lat="43.278451584532526" lon="11.352821273210049"><ele>227.0</ele><time>2026-04-25T08:14:06.999Z</time></trkpt><trkpt lat="43.278260233152785" lon="11.352948638153148"><ele>227.0</ele><time>2026-04-25T08:14:07.999Z</time></trkpt><trkpt lat="43.27805726052821" lon="11.353075189752678"><ele>227.0</ele><time>2026-04-25T08:14:08.999Z</time></trkpt><trkpt lat="43.27784701053548" lon="11.353197862229665"><ele>228.33333333333334</ele><time>2026-04-25T08:14:09.999Z</time></trkpt><trkpt lat="43.27764308023486" lon="11.353325644741147"><ele>229.66666666666669</ele><time>2026-04-25T08:14:10.999Z</time></trkpt><trkpt lat="43.27744562067139" lon="11.353449233448154"><ele>231.0</ele><time>2026-04-25T08:14:11.999Z</time></trkpt><trkpt lat="43.277248751573154" lon="11.35356158838631"><ele>231.33333333333331</ele><time>2026-04-25T08:14:12.999Z</time></trkpt><trkpt lat="43.27704430064121" lon="11.353656385890535"><ele>231.66666666666666</ele><time>2026-04-25T08:14:13.999Z</time></trkpt><trkpt lat="43.27682887758421" lon="11.353695691928783"><ele>232.0</ele><time>2026-04-25T08:14:14.999Z</time></trkpt><trkpt lat="43.276608852964614" lon="11.353761831071337"><ele>230.33333333333331</ele><time>2026-04-25T08:14:15.999Z</time></trkpt><trkpt lat="43.276385929376424" lon="11.353793173128508"><ele>228.66666666666669</ele><time>2026-04-25T08:14:16.999Z</time></trkpt><trkpt lat="43.276166298631615" lon="11.353830845086257"><ele>227.0</ele><time>2026-04-25T08:14:17.999Z</time></trkpt><trkpt lat="43.27595010119229" lon="11.353876171401614"><ele>225.66666666666669</ele><time>2026-04-25T08:14:18.999Z</time></trkpt><trkpt lat="43.275744165201736" lon="11.353918615583332"><ele>224.33333333333331</ele><time>2026-04-25T08:14:19.999Z</time></trkpt><trkpt lat="43.27554709015946" lon="11.35395883318683"><ele>223.0</ele><time>2026-04-25T08:14:20.999Z</time></trkpt><trkpt lat="43.275359179180434" lon="11.353998380643073"><ele>222.66666666666666</ele><time>2026-04-25T08:14:21.999Z</time></trkpt><trkpt lat="43.275182574942505" lon="11.354032971325505"><ele>222.33333333333331</ele><time>2026-04-25T08:14:22.999Z</time></trkpt><trkpt lat="43.275010181507426" lon="11.354065904564147"><ele>222.0</ele><time>2026-04-25T08:14:23.999Z</time></trkpt><trkpt lat="43.27483320779706" lon="11.354115999704605"><ele>223.0</ele><time>2026-04-25T08:14:24.999Z</time></trkpt><trkpt lat="43.27466007495848" lon="11.354202335443063"><ele>224.0</ele><time>2026-04-25T08:14:25.998Z</time></trkpt><trkpt lat="43.2744942394959" lon="11.354325449056912"><ele>225.0</ele><time>2026-04-25T08:14:26.998Z</time></trkpt><trkpt lat="43.27434810456137" lon="11.35450206518986"><ele>224.0</ele><time>2026-04-25T08:14:27.998Z</time></trkpt><trkpt lat="43.27420941653198" lon="11.354711861855044"><ele>223.0</ele><time>2026-04-25T08:14:28.998Z</time></trkpt><trkpt lat="43.27406531093348" lon="11.354934238558888"><ele>222.0</ele><time>2026-04-25T08:14:29.998Z</time></trkpt><trkpt lat="43.273903943260514" lon="11.355156366939932"><ele>222.5</ele><time>2026-04-25T08:14:30.998Z</time></trkpt><trkpt lat="43.27372153008307" lon="11.355362663420738"><ele>223.0</ele><time>2026-04-25T08:14:31.998Z</time></trkpt><trkpt lat="43.27353878800082" lon="11.355545660406179"><ele>223.0</ele><time>2026-04-25T08:14:32.998Z</time></trkpt><trkpt lat="43.273363243349095" lon="11.355737607825455"><ele>223.0</ele><time>2026-04-25T08:14:33.998Z</time></trkpt><trkpt lat="43.27319234015106" lon="11.355935983331502"><ele>223.0</ele><time>2026-04-25T08:14:34.998Z</time></trkpt><trkpt lat="43.273018099852194" lon="11.356125402187885"><ele>224.33333333333331</ele><time>2026-04-25T08:14:35.998Z</time></trkpt><trkpt lat="43.272847626182674" lon="11.356311067734591"><ele>225.66666666666669</ele><time>2026-04-25T08:14:36.998Z</time></trkpt><trkpt lat="43.27268129218267" lon="11.356498829581836"><ele>227.0</ele><time>2026-04-25T08:14:37.998Z</time></trkpt><trkpt lat="43.27251709983042" lon="11.35668563912281"><ele>227.0</ele><time>2026-04-25T08:14:38.998Z</time></trkpt><trkpt lat="43.27236166975033" lon="11.356860266306132"><ele>227.0</ele><time>2026-04-25T08:14:39.998Z</time></trkpt><trkpt lat="43.272218816654046" lon="11.357021284269305"><ele>227.0</ele><time>2026-04-25T08:14:40.998Z</time></trkpt><trkpt lat="43.27208895067128" lon="11.357166627370171"><ele>225.66666666666669</ele><time>2026-04-25T08:14:41.998Z</time></trkpt><trkpt lat="43.27197085782233" lon="11.357299422986602"><ele>224.33333333333331</ele><time>2026-04-25T08:14:42.998Z</time></trkpt><trkpt lat="43.27185813265262" lon="11.357435584610041"><ele>223.0</ele><time>2026-04-25T08:14:43.998Z</time></trkpt><trkpt lat="43.27173342797273" lon="11.35758377789298"><ele>223.0</ele><time>2026-04-25T08:14:44.998Z</time></trkpt><trkpt lat="43.27158649547631" lon="11.357733615944623"><ele>223.0</ele><time>2026-04-25T08:14:45.998Z</time></trkpt><trkpt lat="43.27143588879146" lon="11.357888767972405"><ele>223.0</ele><time>2026-04-25T08:14:46.998Z</time></trkpt><trkpt lat="43.27129254558432" lon="11.358049598692377"><ele>224.33333333333331</ele><time>2026-04-25T08:14:47.998Z</time></trkpt><trkpt lat="43.271154027872576" lon="11.358207199849224"><ele>225.66666666666669</ele><time>2026-04-25T08:14:48.998Z</time></trkpt><trkpt lat="43.271022248692546" lon="11.358373635880719"><ele>227.0</ele><time>2026-04-25T08:14:49.998Z</time></trkpt><trkpt lat="43.27090720385966" lon="11.358569525532817"><ele>227.0</ele><time>2026-04-25T08:14:50.998Z</time></trkpt><trkpt lat="43.2708167116599" lon="11.358796394821834"><ele>227.0</ele><time>2026-04-25T08:14:51.998Z</time></trkpt><trkpt lat="43.27074206512026" lon="11.359045000145855"><ele>227.0</ele><time>2026-04-25T08:14:52.998Z</time></trkpt><trkpt lat="43.27066967343915" lon="11.359309779414373"><ele>225.66666666666669</ele><time>2026-04-25T08:14:53.998Z</time></trkpt><trkpt lat="43.27059475781911" lon="11.359582971461418"><ele>224.33333333333331</ele><time>2026-04-25T08:14:54.998Z</time></trkpt><trkpt lat="43.27052199555664" lon="11.359854461278806"><ele>223.0</ele><time>2026-04-25T08:14:55.998Z</time></trkpt><trkpt lat="43.27044955692946" lon="11.360126023945933"><ele>223.0</ele><time>2026-04-25T08:14:56.998Z</time></trkpt><trkpt lat="43.27037174954475" lon="11.360391948315307"><ele>223.0</ele><time>2026-04-25T08:14:57.998Z</time></trkpt><trkpt lat="43.270291698907954" lon="11.360659636453565"><ele>223.0</ele><time>2026-04-25T08:14:58.998Z</time></trkpt><trkpt lat="43.27021586359972" lon="11.360920508908515"><ele>223.33333333333331</ele><time>2026-04-25T08:14:59.998Z</time></trkpt><trkpt lat="43.270141712287646" lon="11.361180052600782"><ele>223.66666666666669</ele><time>2026-04-25T08:15:00.998Z</time></trkpt><trkpt lat="43.27006624204503" lon="11.361438699080912"><ele>224.0</ele><time>2026-04-25T08:15:01.998Z</time></trkpt><trkpt lat="43.26998193814004" lon="11.361689507307602"><ele>224.66666666666669</ele><time>2026-04-25T08:15:02.998Z</time></trkpt><trkpt lat="43.26987079036305" lon="11.361923426380079"><ele>225.33333333333331</ele><time>2026-04-25T08:15:03.998Z</time></trkpt><trkpt lat="43.269732358770575" lon="11.36213857117258"><ele>226.0</ele><time>2026-04-25T08:15:04.998Z</time></trkpt><trkpt lat="43.26958405546015" lon="11.362343019519253"><ele>223.66666666666666</ele><time>2026-04-25T08:15:05.998Z</time></trkpt><trkpt lat="43.269441846875814" lon="11.36254613036218"><ele>221.33333333333331</ele><time>2026-04-25T08:15:06.998Z</time></trkpt><trkpt lat="43.2693003040504" lon="11.362749568297248"><ele>219.0</ele><time>2026-04-25T08:15:07.998Z</time></trkpt><trkpt lat="43.269164162367744" lon="11.36294896742088"><ele>218.66666666666669</ele><time>2026-04-25T08:15:08.998Z</time></trkpt><trkpt lat="43.269030245660836" lon="11.36314460064582"><ele>218.33333333333334</ele><time>2026-04-25T08:15:09.998Z</time></trkpt><trkpt lat="43.268897171555984" lon="11.363340332818995"><ele>218.0</ele><time>2026-04-25T08:15:11Z</time></trkpt><trkpt lat="43.268763126767674" lon="11.36353298503716"><ele>218.0</ele><time>2026-04-25T08:15:12Z</time></trkpt><trkpt lat="43.2686267158547" lon="11.363732610820662"><ele>218.0</ele><time>2026-04-25T08:15:13Z</time></trkpt><trkpt lat="43.26849480660466" lon="11.363949606130943"><ele>218.0</ele><time>2026-04-25T08:15:14Z</time></trkpt><trkpt lat="43.26836390358623" lon="11.364182782527553"><ele>216.5</ele><time>2026-04-25T08:15:15Z</time></trkpt><trkpt lat="43.268219770603714" lon="11.364429275380107"><ele>215.0</ele><time>2026-04-25T08:15:16Z</time></trkpt><trkpt lat="43.26806440704269" lon="11.364677960014774"><ele>213.5</ele><time>2026-04-25T08:15:17Z</time></trkpt><trkpt lat="43.26789743988198" lon="11.364935333963029"><ele>212.0</ele><time>2026-04-25T08:15:18Z</time></trkpt><trkpt lat="43.26772285742888" lon="11.365190707057968"><ele>212.0</ele><time>2026-04-25T08:15:19Z</time></trkpt><trkpt lat="43.267548057247105" lon="11.365428275775384"><ele>212.0</ele><time>2026-04-25T08:15:20Z</time></trkpt><trkpt lat="43.26736377779057" lon="11.365629711288436"><ele>214.5</ele><time>2026-04-25T08:15:21Z</time></trkpt><trkpt lat="43.267164179281004" lon="11.365808950364073"><ele>217.0</ele><time>2026-04-25T08:15:22Z</time></trkpt><trkpt lat="43.26695020275973" lon="11.365963017952868"><ele>217.0</ele><time>2026-04-25T08:15:23Z</time></trkpt><trkpt lat="43.26672708002676" lon="11.366081836590704"><ele>217.0</ele><time>2026-04-25T08:15:24Z</time></trkpt><trkpt lat="43.26650039614542" lon="11.36617081493667"><ele>215.33333333333331</ele><time>2026-04-25T08:15:25Z</time></trkpt><trkpt lat="43.26628552596245" lon="11.36624783380054"><ele>213.66666666666669</ele><time>2026-04-25T08:15:26Z</time></trkpt><trkpt lat="43.2660836046806" lon="11.366324528507214"><ele>212.0</ele><time>2026-04-25T08:15:27Z</time></trkpt><trkpt lat="43.26588549468313" lon="11.36639816008387"><ele>212.0</ele><time>2026-04-25T08:15:28Z</time></trkpt><trkpt lat="43.26568341053989" lon="11.366450945090438"><ele>212.0</ele><time>2026-04-25T08:15:29Z</time></trkpt><trkpt lat="43.26547724292094" lon="11.366483658834408"><ele>212.0</ele><time>2026-04-25T08:15:30Z</time></trkpt><trkpt lat="43.26527830970424" lon="11.366496271185717"><ele>212.0</ele><time>2026-04-25T08:15:31Z</time></trkpt><trkpt lat="43.26508981704994" lon="11.366489414351998"><ele>212.0</ele><time>2026-04-25T08:15:32Z</time></trkpt><trkpt lat="43.26489998019853" lon="11.366480506559466"><ele>212.0</ele><time>2026-04-25T08:15:33Z</time></trkpt><trkpt lat="43.26471339547664" lon="11.366478316714083"><ele>210.33333333333334</ele><time>2026-04-25T08:15:34Z</time></trkpt><trkpt lat="43.26452712393777" lon="11.366482832952999"><ele>208.66666666666669</ele><time>2026-04-25T08:15:35Z</time></trkpt><trkpt lat="43.26435054488371" lon="11.366513328625972"><ele>207.0</ele><time>2026-04-25T08:15:36Z</time></trkpt><trkpt lat="43.26418509674513" lon="11.366581257897366"><ele>207.0</ele><time>2026-04-25T08:15:37Z</time></trkpt><trkpt lat="43.26402710856929" lon="11.366681113776819"><ele>207.0</ele><time>2026-04-25T08:15:38Z</time></trkpt><trkpt lat="43.26388014800254" lon="11.36680870799472"><ele>207.0</ele><time>2026-04-25T08:15:39Z</time></trkpt><trkpt lat="43.26374991462766" lon="11.366957236964717"><ele>204.66666666666669</ele><time>2026-04-25T08:15:40Z</time></trkpt><trkpt lat="43.263644237515386" lon="11.367123013278132"><ele>202.33333333333334</ele><time>2026-04-25T08:15:41Z</time></trkpt><trkpt lat="43.26356017419145" lon="11.367304072560446"><ele>200.0</ele><time>2026-04-25T08:15:42Z</time></trkpt><trkpt lat="43.26349184349092" lon="11.36750515681197"><ele>200.0</ele><time>2026-04-25T08:15:43Z</time></trkpt><trkpt lat="43.26343907274811" lon="11.3677241620492"><ele>200.0</ele><time>2026-04-25T08:15:44Z</time></trkpt><trkpt lat="43.26340348874291" lon="11.36795737085887"><ele>200.0</ele><time>2026-04-25T08:15:45Z</time></trkpt><trkpt lat="43.263389426122714" lon="11.36820596849125"><ele>200.0</ele><time>2026-04-25T08:15:46Z</time></trkpt><trkpt lat="43.263392442859825" lon="11.36847247475395"><ele>200.0</ele><time>2026-04-25T08:15:47Z</time></trkpt><trkpt lat="43.263411566328266" lon="11.36873742833854"><ele>200.0</ele><time>2026-04-25T08:15:48Z</time></trkpt><trkpt lat="43.26343019533675" lon="11.368996466572687"><ele>199.33333333333334</ele><time>2026-04-25T08:15:49Z</time></trkpt><trkpt lat="43.263438391821396" lon="11.369252195640223"><ele>198.66666666666669</ele><time>2026-04-25T08:15:50Z</time></trkpt><trkpt lat="43.26345071303717" lon="11.369494453496577"><ele>198.0</ele><time>2026-04-25T08:15:50.999Z</time></trkpt><trkpt lat="43.26346452556522" lon="11.369727385670442"><ele>198.0</ele><time>2026-04-25T08:15:51.999Z</time></trkpt><trkpt lat="43.26347239287959" lon="11.369952884023846"><ele>198.0</ele><time>2026-04-25T08:15:52.999Z</time></trkpt><trkpt lat="43.26347873854918" lon="11.370170816573593"><ele>198.0</ele><time>2026-04-25T08:15:53.999Z</time></trkpt><trkpt lat="43.263488718646684" lon="11.37038467839375"><ele>198.0</ele><time>2026-04-25T08:15:54.999Z</time></trkpt><trkpt lat="43.26350096290328" lon="11.370601329846581"><ele>198.0</ele><time>2026-04-25T08:15:55.999Z</time></trkpt><trkpt lat="43.26351161823686" lon="11.370809563919664"><ele>198.0</ele><time>2026-04-25T08:15:56.999Z</time></trkpt><trkpt lat="43.26352037888699" lon="11.371009053110141"><ele>198.0</ele><time>2026-04-25T08:15:57.999Z</time></trkpt><trkpt lat="43.263514220942675" lon="11.37121586004628"><ele>198.0</ele><time>2026-04-25T08:15:58.999Z</time></trkpt><trkpt lat="43.263489591515615" lon="11.37142956080142"><ele>198.0</ele><time>2026-04-25T08:15:59.999Z</time></trkpt><trkpt lat="43.263443777919356" lon="11.371643144793863"><ele>196.66666666666669</ele><time>2026-04-25T08:16:00.999Z</time></trkpt><trkpt lat="43.263375807995175" lon="11.37185069410545"><ele>195.33333333333334</ele><time>2026-04-25T08:16:01.999Z</time></trkpt><trkpt lat="43.26328703754083" lon="11.372043278458323"><ele>194.0</ele><time>2026-04-25T08:16:02.999Z</time></trkpt><trkpt lat="43.263180435687374" lon="11.37221544761295"><ele>191.0</ele><time>2026-04-25T08:16:03.999Z</time></trkpt><trkpt lat="43.26306046415681" lon="11.372366148477015"><ele>188.0</ele><time>2026-04-25T08:16:04.999Z</time></trkpt><trkpt lat="43.262942072731484" lon="11.372505740266718"><ele>185.0</ele><time>2026-04-25T08:16:05.999Z</time></trkpt><trkpt lat="43.26283131316261" lon="11.372640295347956"><ele>185.0</ele><time>2026-04-25T08:16:06.999Z</time></trkpt><trkpt lat="43.262730737298064" lon="11.372760548126957"><ele>185.0</ele><time>2026-04-25T08:16:07.999Z</time></trkpt><trkpt lat="43.2626422492908" lon="11.372865983008968"><ele>185.0</ele><time>2026-04-25T08:16:08.999Z</time></trkpt><trkpt lat="43.26256479229272" lon="11.372954895147139"><ele>185.0</ele><time>2026-04-25T08:16:09.999Z</time></trkpt><trkpt lat="43.26249697063962" lon="11.37303151817666"><ele>185.0</ele><time>2026-04-25T08:16:10.999Z</time></trkpt><trkpt lat="43.262433951015865" lon="11.373109223736696"><ele>184.5</ele><time>2026-04-25T08:16:11.999Z</time></trkpt><trkpt lat="43.26237960451616" lon="11.373175772531932"><ele>184.0</ele><time>2026-04-25T08:16:12.999Z</time></trkpt><trkpt lat="43.26227322785736" lon="11.373279344782214"><ele>183.5</ele><time>2026-04-25T08:16:14.999Z</time></trkpt><trkpt lat="43.26220022003243" lon="11.373308277845362"><ele>183.0</ele><time>2026-04-25T08:16:15.999Z</time></trkpt><trkpt lat="43.26212498905325" lon="11.373296286367196"><ele>182.5</ele><time>2026-04-25T08:16:16.999Z</time></trkpt><trkpt lat="43.26205615278002" lon="11.373293196050385"><ele>182.0</ele><time>2026-04-25T08:16:17.999Z</time></trkpt><trkpt lat="43.26199569953914" lon="11.373321932213326"><ele>181.33333333333331</ele><time>2026-04-25T08:16:18.999Z</time></trkpt><trkpt lat="43.26194900334153" lon="11.373383376924213"><ele>180.66666666666666</ele><time>2026-04-25T08:16:19.999Z</time></trkpt><trkpt lat="43.26191495250184" lon="11.373473394071517"><ele>180.0</ele><time>2026-04-25T08:16:20.999Z</time></trkpt><trkpt lat="43.261894659849425" lon="11.373587559004047"><ele>179.33333333333334</ele><time>2026-04-25T08:16:21.999Z</time></trkpt><trkpt lat="43.2618670104096" lon="11.37370645594313"><ele>178.66666666666669</ele><time>2026-04-25T08:16:22.999Z</time></trkpt><trkpt lat="43.26181253892413" lon="11.37381741560102"><ele>178.0</ele><time>2026-04-25T08:16:23.999Z</time></trkpt><trkpt lat="43.261745235977465" lon="11.373918385021135"><ele>177.75</ele><time>2026-04-25T08:16:24.999Z</time></trkpt><trkpt lat="43.26167122701538" lon="11.374015714075032"><ele>177.5</ele><time>2026-04-25T08:16:25.999Z</time></trkpt><trkpt lat="43.26158952300408" lon="11.374117464950562"><ele>177.25</ele><time>2026-04-25T08:16:26.999Z</time></trkpt><trkpt lat="43.261501186630234" lon="11.374224455553774"><ele>177.0</ele><time>2026-04-25T08:16:27.999Z</time></trkpt><trkpt lat="43.2614075220354" lon="11.374334053145368"><ele>176.75</ele><time>2026-04-25T08:16:28.999Z</time></trkpt><trkpt lat="43.26131032906351" lon="11.374445200106315"><ele>176.5</ele><time>2026-04-25T08:16:29.999Z</time></trkpt><trkpt lat="43.261212798819855" lon="11.374560870242139"><ele>176.25</ele><time>2026-04-25T08:16:30.999Z</time></trkpt><trkpt lat="43.26111380125898" lon="11.374679415784879"><ele>176.0</ele><time>2026-04-25T08:16:31.999Z</time></trkpt><trkpt lat="43.261012218863705" lon="11.374792708334825"><ele>175.75</ele><time>2026-04-25T08:16:32.999Z</time></trkpt><trkpt lat="43.26090773417701" lon="11.374908184464037"><ele>175.5</ele><time>2026-04-25T08:16:33.999Z</time></trkpt><trkpt lat="43.26080577632214" lon="11.375032973886979"><ele>175.25</ele><time>2026-04-25T08:16:34.999Z</time></trkpt><trkpt lat="43.26070490640985" lon="11.37516494528559"><ele>175.0</ele><time>2026-04-25T08:16:35.999Z</time></trkpt><trkpt lat="43.260594795586606" lon="11.375288073592964"><ele>175.0</ele><time>2026-04-25T08:16:36.999Z</time></trkpt><trkpt lat="43.26048606123346" lon="11.375415129756828"><ele>175.0</ele><time>2026-04-25T08:16:37.998Z</time></trkpt><trkpt lat="43.26037619341661" lon="11.375544385925677"><ele>175.0</ele><time>2026-04-25T08:16:38.998Z</time></trkpt><trkpt lat="43.260265097869926" lon="11.375673287476433"><ele>175.0</ele><time>2026-04-25T08:16:39.998Z</time></trkpt><trkpt lat="43.26016899898346" lon="11.375808941762132"><ele>175.0</ele><time>2026-04-25T08:16:40.998Z</time></trkpt><trkpt lat="43.260096865789635" lon="11.375961346380187"><ele>175.0</ele><time>2026-04-25T08:16:41.998Z</time></trkpt><trkpt lat="43.26005022098414" lon="11.376125961555303"><ele>175.0</ele><time>2026-04-25T08:16:42.998Z</time></trkpt><trkpt lat="43.26002386043301" lon="11.376288837730298"><ele>175.0</ele><time>2026-04-25T08:16:43.998Z</time></trkpt><trkpt lat="43.26001326989264" lon="11.376444963506348"><ele>174.6</ele><time>2026-04-25T08:16:44.998Z</time></trkpt><trkpt lat="43.26000379867495" lon="11.376588815531038"><ele>174.2</ele><time>2026-04-25T08:16:45.998Z</time></trkpt><trkpt lat="43.259991587896764" lon="11.376721884862627"><ele>173.8</ele><time>2026-04-25T08:16:46.998Z</time></trkpt><trkpt lat="43.25997591170759" lon="11.376853367789268"><ele>173.4</ele><time>2026-04-25T08:16:47.998Z</time></trkpt><trkpt lat="43.25996008914971" lon="11.376998849401334"><ele>173.0</ele><time>2026-04-25T08:16:48.998Z</time></trkpt><trkpt lat="43.259946300657894" lon="11.377158907452268"><ele>173.0</ele><time>2026-04-25T08:16:49.998Z</time></trkpt><trkpt lat="43.259930838861294" lon="11.377321054368494"><ele>173.0</ele><time>2026-04-25T08:16:50.998Z</time></trkpt><trkpt lat="43.25991537784099" lon="11.377487973197484"><ele>173.0</ele><time>2026-04-25T08:16:51.998Z</time></trkpt><trkpt lat="43.25989826145834" lon="11.377648404585715"><ele>173.0</ele><time>2026-04-25T08:16:52.998Z</time></trkpt><trkpt lat="43.25987912696615" lon="11.3778064336618"><ele>173.0</ele><time>2026-04-25T08:16:53.998Z</time></trkpt><trkpt lat="43.25985554959563" lon="11.377967080283026"><ele>173.0</ele><time>2026-04-25T08:16:54.998Z</time></trkpt><trkpt lat="43.25981456963672" lon="11.378129356714215"><ele>173.0</ele><time>2026-04-25T08:16:55.998Z</time></trkpt><trkpt lat="43.25975016317679" lon="11.378286372399524"><ele>173.0</ele><time>2026-04-25T08:16:56.998Z</time></trkpt><trkpt lat="43.25966715514738" lon="11.378430487031784"><ele>173.0</ele><time>2026-04-25T08:16:57.998Z</time></trkpt><trkpt lat="43.259578632531365" lon="11.378573512591888"><ele>173.0</ele><time>2026-04-25T08:16:58.998Z</time></trkpt><trkpt lat="43.25949424351077" lon="11.378716992491363"><ele>173.0</ele><time>2026-04-25T08:16:59.998Z</time></trkpt><trkpt lat="43.25941107481109" lon="11.378861481731084"><ele>173.0</ele><time>2026-04-25T08:17:00.998Z</time></trkpt><trkpt lat="43.259325691389634" lon="11.378998716398394"><ele>173.0</ele><time>2026-04-25T08:17:01.998Z</time></trkpt><trkpt lat="43.25924083319396" lon="11.379134800632595"><ele>173.0</ele><time>2026-04-25T08:17:02.998Z</time></trkpt><trkpt lat="43.25915508363283" lon="11.379278101571105"><ele>173.0</ele><time>2026-04-25T08:17:03.998Z</time></trkpt><trkpt lat="43.25906268008538" lon="11.379427387617765"><ele>173.0</ele><time>2026-04-25T08:17:04.998Z</time></trkpt><trkpt lat="43.25896845274218" lon="11.379572276079555"><ele>173.25</ele><time>2026-04-25T08:17:05.998Z</time></trkpt><trkpt lat="43.25888051912471" lon="11.379719081313814"><ele>173.5</ele><time>2026-04-25T08:17:06.998Z</time></trkpt><trkpt lat="43.258795809669586" lon="11.37986796940999"><ele>173.75</ele><time>2026-04-25T08:17:07.998Z</time></trkpt><trkpt lat="43.25871594037244" lon="11.380008185155168"><ele>174.0</ele><time>2026-04-25T08:17:08.998Z</time></trkpt><trkpt lat="43.2586423242987" lon="11.380147916421139"><ele>174.0</ele><time>2026-04-25T08:17:09.998Z</time></trkpt><trkpt lat="43.25857214618707" lon="11.380286475378238"><ele>174.0</ele><time>2026-04-25T08:17:10.998Z</time></trkpt><trkpt lat="43.258503763800036" lon="11.380420250324306"><ele>174.0</ele><time>2026-04-25T08:17:11.998Z</time></trkpt><trkpt lat="43.258437430362754" lon="11.380543067829864"><ele>174.0</ele><time>2026-04-25T08:17:12.998Z</time></trkpt><trkpt lat="43.25835825012812" lon="11.380657414700782"><ele>173.75</ele><time>2026-04-25T08:17:13.998Z</time></trkpt><trkpt lat="43.25825082575934" lon="11.38075026208414"><ele>173.5</ele><time>2026-04-25T08:17:14.998Z</time></trkpt><trkpt lat="43.25813818179548" lon="11.380831259406719"><ele>173.25</ele><time>2026-04-25T08:17:15.998Z</time></trkpt><trkpt lat="43.25802583900592" lon="11.380902270112687"><ele>173.0</ele><time>2026-04-25T08:17:17Z</time></trkpt><trkpt lat="43.257905686548305" lon="11.380954745727209"><ele>173.0</ele><time>2026-04-25T08:17:18Z</time></trkpt><trkpt lat="43.25778011118484" lon="11.38094959213171"><ele>173.0</ele><time>2026-04-25T08:17:19Z</time></trkpt><trkpt lat="43.257653813378404" lon="11.380952147887415"><ele>173.0</ele><time>2026-04-25T08:17:20Z</time></trkpt><trkpt lat="43.25752509660297" lon="11.380955812143718"><ele>173.0</ele><time>2026-04-25T08:17:21Z</time></trkpt><trkpt lat="43.25739895448026" lon="11.380976765279406"><ele>173.25</ele><time>2026-04-25T08:17:22Z</time></trkpt><trkpt lat="43.257271904342794" lon="11.380978611831493"><ele>173.5</ele><time>2026-04-25T08:17:23Z</time></trkpt><trkpt lat="43.25714472551036" lon="11.380990470613646"><ele>173.75</ele><time>2026-04-25T08:17:24Z</time></trkpt><trkpt lat="43.25701346070184" lon="11.381021497731634"><ele>174.0</ele><time>2026-04-25T08:17:25Z</time></trkpt><trkpt lat="43.25688440597198" lon="11.381080993181756"><ele>174.0</ele><time>2026-04-25T08:17:26Z</time></trkpt><trkpt lat="43.256760714896075" lon="11.38116554840905"><ele>174.0</ele><time>2026-04-25T08:17:27Z</time></trkpt><trkpt lat="43.25664797584575" lon="11.381271473745086"><ele>174.0</ele><time>2026-04-25T08:17:28Z</time></trkpt><trkpt lat="43.256541699803904" lon="11.381389046352734"><ele>174.0</ele><time>2026-04-25T08:17:29Z</time></trkpt><trkpt lat="43.256442319076456" lon="11.381522271193367"><ele>173.75</ele><time>2026-04-25T08:17:30Z</time></trkpt><trkpt lat="43.25635307853405" lon="11.381668274260283"><ele>173.5</ele><time>2026-04-25T08:17:31Z</time></trkpt><trkpt lat="43.25628077715654" lon="11.381821300396387"><ele>173.25</ele><time>2026-04-25T08:17:32Z</time></trkpt><trkpt lat="43.25622801721623" lon="11.381989538802513"><ele>173.0</ele><time>2026-04-25T08:17:33Z</time></trkpt><trkpt lat="43.256185970709154" lon="11.382172672557147"><ele>172.75</ele><time>2026-04-25T08:17:34Z</time></trkpt><trkpt lat="43.2561440315684" lon="11.382359194840504"><ele>172.5</ele><time>2026-04-25T08:17:35Z</time></trkpt><trkpt lat="43.25610503532799" lon="11.3825507155397"><ele>172.25</ele><time>2026-04-25T08:17:36Z</time></trkpt><trkpt lat="43.25607080657225" lon="11.382755894177079"><ele>172.0</ele><time>2026-04-25T08:17:37Z</time></trkpt><trkpt lat="43.25603080506372" lon="11.382964239734344"><ele>171.33333333333334</ele><time>2026-04-25T08:17:38Z</time></trkpt><trkpt lat="43.255984567382626" lon="11.383169899080668"><ele>170.66666666666666</ele><time>2026-04-25T08:17:39Z</time></trkpt><trkpt lat="43.255932274139006" lon="11.38338279632548"><ele>170.0</ele><time>2026-04-25T08:17:40Z</time></trkpt><trkpt lat="43.255874152042765" lon="11.383603847359083"><ele>170.0</ele><time>2026-04-25T08:17:41Z</time></trkpt><trkpt lat="43.25581287424211" lon="11.383827457918619"><ele>170.0</ele><time>2026-04-25T08:17:42Z</time></trkpt><trkpt lat="43.255753254564134" lon="11.384054436115752"><ele>170.0</ele><time>2026-04-25T08:17:43Z</time></trkpt><trkpt lat="43.255700693822035" lon="11.384278166739614"><ele>170.0</ele><time>2026-04-25T08:17:44Z</time></trkpt><trkpt lat="43.25565237200463" lon="11.384494968781562"><ele>170.0</ele><time>2026-04-25T08:17:45Z</time></trkpt><trkpt lat="43.25560353555726" lon="11.384712907423902"><ele>170.0</ele><time>2026-04-25T08:17:46Z</time></trkpt><trkpt lat="43.25555379401075" lon="11.384932053120185"><ele>170.66666666666666</ele><time>2026-04-25T08:17:47Z</time></trkpt><trkpt lat="43.25550460948399" lon="11.385152293905168"><ele>171.33333333333334</ele><time>2026-04-25T08:17:48Z</time></trkpt><trkpt lat="43.25545407983574" lon="11.385373140075899"><ele>172.0</ele><time>2026-04-25T08:17:49Z</time></trkpt><trkpt lat="43.25540399612352" lon="11.385587948662755"><ele>172.33333333333334</ele><time>2026-04-25T08:17:50Z</time></trkpt><trkpt lat="43.25535916356491" lon="11.385800119293794"><ele>172.66666666666666</ele><time>2026-04-25T08:17:51Z</time></trkpt><trkpt lat="43.25531546038536" lon="11.386015258785214"><ele>173.0</ele><time>2026-04-25T08:17:52Z</time></trkpt><trkpt lat="43.25527656203618" lon="11.386234848857457"><ele>172.0</ele><time>2026-04-25T08:17:53Z</time></trkpt><trkpt lat="43.25523885572848" lon="11.38647043444578"><ele>171.0</ele><time>2026-04-25T08:17:54Z</time></trkpt><trkpt lat="43.255178737386075" lon="11.386711059932558"><ele>170.0</ele><time>2026-04-25T08:17:55Z</time></trkpt><trkpt lat="43.25512803165338" lon="11.386964318647486"><ele>169.33333333333331</ele><time>2026-04-25T08:17:56Z</time></trkpt><trkpt lat="43.25509220561053" lon="11.38722737039433"><ele>168.66666666666666</ele><time>2026-04-25T08:17:57Z</time></trkpt><trkpt lat="43.25503076216955" lon="11.387480533084018"><ele>168.0</ele><time>2026-04-25T08:17:58Z</time></trkpt><trkpt lat="43.254970014124794" lon="11.387732215374728"><ele>168.0</ele><time>2026-04-25T08:17:59Z</time></trkpt><trkpt lat="43.25491493741929" lon="11.387988137331945"><ele>168.0</ele><time>2026-04-25T08:18:00Z</time></trkpt><trkpt lat="43.254862514813105" lon="11.38825207600682"><ele>168.0</ele><time>2026-04-25T08:18:01Z</time></trkpt><trkpt lat="43.25480869848693" lon="11.388515662034713"><ele>168.33333333333334</ele><time>2026-04-25T08:18:02Z</time></trkpt><trkpt lat="43.2547480391254" lon="11.388774223003141"><ele>168.66666666666669</ele><time>2026-04-25T08:18:03Z</time></trkpt><trkpt lat="43.254679233247046" lon="11.389023711069788"><ele>169.0</ele><time>2026-04-25T08:18:04Z</time></trkpt><trkpt lat="43.254594507681155" lon="11.389256629980359"><ele>169.0</ele><time>2026-04-25T08:18:05Z</time></trkpt><trkpt lat="43.254498128284204" lon="11.389485016619663"><ele>169.0</ele><time>2026-04-25T08:18:05.999Z</time></trkpt><trkpt lat="43.25441189395728" lon="11.389705865066981"><ele>169.0</ele><time>2026-04-25T08:18:06.999Z</time></trkpt><trkpt lat="43.254328996996605" lon="11.389921443414945"><ele>169.33333333333334</ele><time>2026-04-25T08:18:07.999Z</time></trkpt><trkpt lat="43.25424848041373" lon="11.390132350336417"><ele>169.66666666666666</ele><time>2026-04-25T08:18:08.999Z</time></trkpt><trkpt lat="43.25417225363073" lon="11.390346844259348"><ele>170.0</ele><time>2026-04-25T08:18:09.999Z</time></trkpt><trkpt lat="43.254095075075654" lon="11.39055424115198"><ele>170.33333333333331</ele><time>2026-04-25T08:18:10.999Z</time></trkpt><trkpt lat="43.254012813131965" lon="11.390755954953105"><ele>170.66666666666666</ele><time>2026-04-25T08:18:11.999Z</time></trkpt><trkpt lat="43.253934831293044" lon="11.390954034977554"><ele>171.0</ele><time>2026-04-25T08:18:12.999Z</time></trkpt><trkpt lat="43.25386407333006" lon="11.391150074138196"><ele>170.33333333333334</ele><time>2026-04-25T08:18:13.999Z</time></trkpt><trkpt lat="43.25379202294563" lon="11.391337811259401"><ele>169.66666666666669</ele><time>2026-04-25T08:18:14.999Z</time></trkpt><trkpt lat="43.25371949164205" lon="11.391522567009945"><ele>169.0</ele><time>2026-04-25T08:18:15.999Z</time></trkpt><trkpt lat="43.253649079250835" lon="11.391705719196008"><ele>169.0</ele><time>2026-04-25T08:18:16.999Z</time></trkpt><trkpt lat="43.253579677711585" lon="11.391889784971768"><ele>169.0</ele><time>2026-04-25T08:18:17.999Z</time></trkpt><trkpt lat="43.25351132363492" lon="11.392066941965508"><ele>169.0</ele><time>2026-04-25T08:18:18.999Z</time></trkpt><trkpt lat="43.25344622019558" lon="11.392232124445844"><ele>169.0</ele><time>2026-04-25T08:18:19.999Z</time></trkpt><trkpt lat="43.25338338093063" lon="11.392384008797588"><ele>169.25</ele><time>2026-04-25T08:18:20.999Z</time></trkpt><trkpt lat="43.253324124175236" lon="11.392528842325145"><ele>169.5</ele><time>2026-04-25T08:18:21.999Z</time></trkpt><trkpt lat="43.25326026236616" lon="11.392678631128398"><ele>169.75</ele><time>2026-04-25T08:18:22.999Z</time></trkpt><trkpt lat="43.25319132373327" lon="11.392823685859264"><ele>170.0</ele><time>2026-04-25T08:18:23.999Z</time></trkpt><trkpt lat="43.25313196941868" lon="11.392976195063996"><ele>170.25</ele><time>2026-04-25T08:18:24.999Z</time></trkpt><trkpt lat="43.25308455242481" lon="11.393135396986654"><ele>170.5</ele><time>2026-04-25T08:18:25.999Z</time></trkpt><trkpt lat="43.25303790118986" lon="11.393281798956851"><ele>170.75</ele><time>2026-04-25T08:18:26.999Z</time></trkpt><trkpt lat="43.25299129518217" lon="11.393419239699192"><ele>171.0</ele><time>2026-04-25T08:18:27.999Z</time></trkpt><trkpt lat="43.252942359458444" lon="11.39356345433009"><ele>171.0</ele><time>2026-04-25T08:18:28.999Z</time></trkpt><trkpt lat="43.25289167275533" lon="11.393710508197515"><ele>171.0</ele><time>2026-04-25T08:18:29.999Z</time></trkpt><trkpt lat="43.252835745973364" lon="11.393855484941737"><ele>171.0</ele><time>2026-04-25T08:18:30.999Z</time></trkpt><trkpt lat="43.25277040976249" lon="11.393997399950326"><ele>171.0</ele><time>2026-04-25T08:18:31.999Z</time></trkpt><trkpt lat="43.252698670028906" lon="11.394128265800113"><ele>171.4</ele><time>2026-04-25T08:18:32.999Z</time></trkpt><trkpt lat="43.25263114181136" lon="11.3942543107362"><ele>171.8</ele><time>2026-04-25T08:18:33.999Z</time></trkpt><trkpt lat="43.25256873062012" lon="11.394379826944187"><ele>172.20000000000002</ele><time>2026-04-25T08:18:34.999Z</time></trkpt><trkpt lat="43.252512601662666" lon="11.394489646615229"><ele>172.60000000000002</ele><time>2026-04-25T08:18:35.999Z</time></trkpt><trkpt lat="43.25246194073818" lon="11.394582451504071"><ele>173.0</ele><time>2026-04-25T08:18:36.999Z</time></trkpt><trkpt lat="43.25241440709758" lon="11.39466741971558"><ele>172.85714285714286</ele><time>2026-04-25T08:18:37.999Z</time></trkpt><trkpt lat="43.25236484801415" lon="11.394749737988993"><ele>172.71428571428572</ele><time>2026-04-25T08:18:38.999Z</time></trkpt><trkpt lat="43.2523153345632" lon="11.394824566086774"><ele>172.57142857142858</ele><time>2026-04-25T08:18:39.999Z</time></trkpt><trkpt lat="43.25226336988815" lon="11.39489745107696"><ele>172.42857142857144</ele><time>2026-04-25T08:18:40.999Z</time></trkpt><trkpt lat="43.252213980834924" lon="11.394969134328687"><ele>172.28571428571428</ele><time>2026-04-25T08:18:41.999Z</time></trkpt><trkpt lat="43.25216684515839" lon="11.395038240942709"><ele>172.14285714285717</ele><time>2026-04-25T08:18:42.999Z</time></trkpt><trkpt lat="43.25212276413379" lon="11.395103048633022"><ele>172.0</ele><time>2026-04-25T08:18:43.999Z</time></trkpt><trkpt lat="43.25204303853384" lon="11.39521835999535"><ele>172.0</ele><time>2026-04-25T08:18:45.999Z</time></trkpt><trkpt lat="43.25196565739689" lon="11.395341601722528"><ele>172.0</ele><time>2026-04-25T08:18:47.999Z</time></trkpt><trkpt lat="43.251889338406734" lon="11.395473151322525"><ele>172.0</ele><time>2026-04-25T08:18:49.999Z</time></trkpt><trkpt lat="43.25180564351315" lon="11.395606045759003"><ele>172.0</ele><time>2026-04-25T08:18:51.999Z</time></trkpt><trkpt lat="43.251743208899626" lon="11.395729510442768"><ele>171.6</ele><time>2026-04-25T08:18:53.998Z</time></trkpt><trkpt lat="43.251699792316835" lon="11.39582506667476"><ele>171.2</ele><time>2026-04-25T08:18:55.998Z</time></trkpt><trkpt lat="43.2516440427956" lon="11.39593976487792"><ele>170.8</ele><time>2026-04-25T08:18:58.998Z</time></trkpt><trkpt lat="43.25159315027968" lon="11.396060390556753"><ele>170.4</ele><time>2026-04-25T08:19:00.998Z</time></trkpt><trkpt lat="43.25155062255336" lon="11.396168384801758"><ele>170.0</ele><time>2026-04-25T08:19:02.998Z</time></trkpt><trkpt lat="43.251509634169985" lon="11.396287338428035"><ele>170.0</ele><time>2026-04-25T08:19:04.998Z</time></trkpt><trkpt lat="43.25146132266734" lon="11.396437525662462"><ele>170.0</ele><time>2026-04-25T08:19:06.998Z</time></trkpt><trkpt lat="43.25143232625892" lon="11.396517968798802"><ele>170.0</ele><time>2026-04-25T08:19:07.998Z</time></trkpt><trkpt lat="43.251396626265574" lon="11.396607932252154"><ele>170.0</ele><time>2026-04-25T08:19:08.998Z</time></trkpt><trkpt lat="43.25135694993722" lon="11.396709415650873"><ele>170.0</ele><time>2026-04-25T08:19:09.998Z</time></trkpt><trkpt lat="43.2513130687095" lon="11.396824362365855"><ele>170.0</ele><time>2026-04-25T08:19:10.998Z</time></trkpt><trkpt lat="43.25126219422377" lon="11.39695644607831"><ele>170.25</ele><time>2026-04-25T08:19:11.998Z</time></trkpt><trkpt lat="43.251213538765455" lon="11.397095493847361"><ele>170.5</ele><time>2026-04-25T08:19:12.998Z</time></trkpt><trkpt lat="43.25116282476453" lon="11.397236412375614"><ele>170.75</ele><time>2026-04-25T08:19:13.998Z</time></trkpt><trkpt lat="43.251108914157776" lon="11.397388128423577"><ele>171.0</ele><time>2026-04-25T08:19:14.998Z</time></trkpt><trkpt lat="43.251053533163805" lon="11.397545632809283"><ele>171.0</ele><time>2026-04-25T08:19:15.998Z</time></trkpt><trkpt lat="43.25099288620687" lon="11.397708748797283"><ele>171.0</ele><time>2026-04-25T08:19:16.998Z</time></trkpt><trkpt lat="43.25093050692903" lon="11.397877844504565"><ele>171.0</ele><time>2026-04-25T08:19:17.998Z</time></trkpt><trkpt lat="43.250868999318826" lon="11.39805522433902"><ele>171.0</ele><time>2026-04-25T08:19:18.998Z</time></trkpt><trkpt lat="43.25080648416221" lon="11.398232369068921"><ele>171.0</ele><time>2026-04-25T08:19:19.998Z</time></trkpt><trkpt lat="43.25074066485049" lon="11.398410917519788"><ele>171.0</ele><time>2026-04-25T08:19:20.998Z</time></trkpt><trkpt lat="43.25067241747429" lon="11.398593074436771"><ele>171.0</ele><time>2026-04-25T08:19:21.998Z</time></trkpt><trkpt lat="43.25060384347678" lon="11.398782584553272"><ele>171.0</ele><time>2026-04-25T08:19:23Z</time></trkpt><trkpt lat="43.25053299531144" lon="11.398970681962243"><ele>170.66666666666666</ele><time>2026-04-25T08:19:24Z</time></trkpt><trkpt lat="43.25045929773957" lon="11.399165130909665"><ele>170.33333333333331</ele><time>2026-04-25T08:19:25Z</time></trkpt><trkpt lat="43.25038321337766" lon="11.399359682667498"><ele>170.0</ele><time>2026-04-25T08:19:26Z</time></trkpt><trkpt lat="43.250301009850745" lon="11.399549645273442"><ele>169.33333333333331</ele><time>2026-04-25T08:19:27Z</time></trkpt><trkpt lat="43.250214243341084" lon="11.399736157689333"><ele>168.66666666666666</ele><time>2026-04-25T08:19:28Z</time></trkpt><trkpt lat="43.250126923636664" lon="11.39992796113494"><ele>168.0</ele><time>2026-04-25T08:19:29Z</time></trkpt><trkpt lat="43.25003481477133" lon="11.400122285981"><ele>168.0</ele><time>2026-04-25T08:19:30Z</time></trkpt><trkpt lat="43.24993728928914" lon="11.400307990368141"><ele>168.0</ele><time>2026-04-25T08:19:31Z</time></trkpt><trkpt lat="43.24983323344161" lon="11.400482881366578"><ele>168.0</ele><time>2026-04-25T08:19:32Z</time></trkpt><trkpt lat="43.24972982127432" lon="11.400648426261256"><ele>168.0</ele><time>2026-04-25T08:19:33Z</time></trkpt><trkpt lat="43.24962319519468" lon="11.400811940815386"><ele>168.0</ele><time>2026-04-25T08:19:34Z</time></trkpt><trkpt lat="43.249526101742724" lon="11.40097721805706"><ele>168.0</ele><time>2026-04-25T08:19:35Z</time></trkpt><trkpt lat="43.249441352378405" lon="11.401137201784646"><ele>168.0</ele><time>2026-04-25T08:19:36Z</time></trkpt><trkpt lat="43.24935084265646" lon="11.401299976507516"><ele>168.0</ele><time>2026-04-25T08:19:37Z</time></trkpt><trkpt lat="43.2492541482619" lon="11.401468790615874"><ele>168.0</ele><time>2026-04-25T08:19:38Z</time></trkpt><trkpt lat="43.24915718432306" lon="11.401644428748664"><ele>167.66666666666666</ele><time>2026-04-25T08:19:39Z</time></trkpt><trkpt lat="43.249059995504865" lon="11.401825110727035"><ele>167.33333333333331</ele><time>2026-04-25T08:19:40Z</time></trkpt><trkpt lat="43.24896279006741" lon="11.402006443276576"><ele>167.0</ele><time>2026-04-25T08:19:41Z</time></trkpt><trkpt lat="43.24886359141888" lon="11.402184667193083"><ele>168.0</ele><time>2026-04-25T08:19:42Z</time></trkpt><trkpt lat="43.24876986400648" lon="11.402368052171719"><ele>169.0</ele><time>2026-04-25T08:19:43Z</time></trkpt><trkpt lat="43.248682396152795" lon="11.402560425400743"><ele>170.0</ele><time>2026-04-25T08:19:44Z</time></trkpt><trkpt lat="43.24859884315638" lon="11.402745761929205"><ele>170.0</ele><time>2026-04-25T08:19:45Z</time></trkpt><trkpt lat="43.24852303719185" lon="11.402937529298784"><ele>170.0</ele><time>2026-04-25T08:19:46Z</time></trkpt><trkpt lat="43.24845362043263" lon="11.40311693129902"><ele>170.0</ele><time>2026-04-25T08:19:47Z</time></trkpt><trkpt lat="43.248388316962654" lon="11.403290457316867"><ele>170.0</ele><time>2026-04-25T08:19:48Z</time></trkpt><trkpt lat="43.248327396873705" lon="11.40345483207644"><ele>170.0</ele><time>2026-04-25T08:19:49Z</time></trkpt><trkpt lat="43.24826529979678" lon="11.403611768003083"><ele>170.0</ele><time>2026-04-25T08:19:50Z</time></trkpt><trkpt lat="43.24820569041465" lon="11.403774554180918"><ele>170.0</ele><time>2026-04-25T08:19:51Z</time></trkpt><trkpt lat="43.24814099602798" lon="11.403932619966033"><ele>170.0</ele><time>2026-04-25T08:19:52Z</time></trkpt><trkpt lat="43.24808245792085" lon="11.404094369811359"><ele>170.0</ele><time>2026-04-25T08:19:53Z</time></trkpt><trkpt lat="43.24802439280513" lon="11.404255587611619"><ele>170.0</ele><time>2026-04-25T08:19:54Z</time></trkpt><trkpt lat="43.2479593111028" lon="11.404406645671187"><ele>170.0</ele><time>2026-04-25T08:19:55Z</time></trkpt><trkpt lat="43.247886446333965" lon="11.404553600027903"><ele>170.0</ele><time>2026-04-25T08:19:56Z</time></trkpt><trkpt lat="43.24780670141407" lon="11.404692632445185"><ele>169.5</ele><time>2026-04-25T08:19:57Z</time></trkpt><trkpt lat="43.247717606232854" lon="11.404824487277198"><ele>169.0</ele><time>2026-04-25T08:19:58Z</time></trkpt><trkpt lat="43.24762158349694" lon="11.404951090957804"><ele>168.5</ele><time>2026-04-25T08:19:59Z</time></trkpt><trkpt lat="43.24751460691211" lon="11.405071411351502"><ele>168.0</ele><time>2026-04-25T08:20:00Z</time></trkpt><trkpt lat="43.24739960689287" lon="11.405180646520135"><ele>168.0</ele><time>2026-04-25T08:20:01Z</time></trkpt><trkpt lat="43.24728437392232" lon="11.405291811450171"><ele>168.0</ele><time>2026-04-25T08:20:02Z</time></trkpt><trkpt lat="43.2471743511143" lon="11.40539852613996"><ele>168.0</ele><time>2026-04-25T08:20:03Z</time></trkpt><trkpt lat="43.24706811840685" lon="11.40549490886063"><ele>168.0</ele><time>2026-04-25T08:20:04Z</time></trkpt><trkpt lat="43.246962032292586" lon="11.405594265984787"><ele>167.75</ele><time>2026-04-25T08:20:05Z</time></trkpt><trkpt lat="43.2468570796505" lon="11.40569773040489"><ele>167.5</ele><time>2026-04-25T08:20:06Z</time></trkpt><trkpt lat="43.24675753954552" lon="11.405791900946785"><ele>167.25</ele><time>2026-04-25T08:20:07Z</time></trkpt><trkpt lat="43.2466548314532" lon="11.405884178647508"><ele>167.0</ele><time>2026-04-25T08:20:08Z</time></trkpt><trkpt lat="43.246546753630255" lon="11.405982239937956"><ele>167.0</ele><time>2026-04-25T08:20:09Z</time></trkpt><trkpt lat="43.24644139782611" lon="11.406086689558997"><ele>167.0</ele><time>2026-04-25T08:20:10Z</time></trkpt><trkpt lat="43.24633853179873" lon="11.406172499469642"><ele>167.0</ele><time>2026-04-25T08:20:11Z</time></trkpt><trkpt lat="43.246245667293266" lon="11.406246744469145"><ele>167.0</ele><time>2026-04-25T08:20:12Z</time></trkpt><trkpt lat="43.24616915450295" lon="11.40630953810857"><ele>167.0</ele><time>2026-04-25T08:20:13Z</time></trkpt><trkpt lat="43.246100894743776" lon="11.40636452391831"><ele>166.66666666666666</ele><time>2026-04-25T08:20:14Z</time></trkpt><trkpt lat="43.24604040984558" lon="11.406414890766937"><ele>166.33333333333331</ele><time>2026-04-25T08:20:15Z</time></trkpt><trkpt lat="43.245980262993164" lon="11.40644440096793"><ele>166.0</ele><time>2026-04-25T08:20:16Z</time></trkpt><trkpt lat="43.2459768550681" lon="11.40664172280128"><ele>165.66666666666666</ele><time>2026-04-25T08:20:18Z</time></trkpt><trkpt lat="43.246006167387456" lon="11.406729533750099"><ele>165.33333333333334</ele><time>2026-04-25T08:20:19Z</time></trkpt><trkpt lat="43.24605248899391" lon="11.406816001459942"><ele>165.0</ele><time>2026-04-25T08:20:20Z</time></trkpt><trkpt lat="43.246101793737566" lon="11.406912258901825"><ele>165.0</ele><time>2026-04-25T08:20:21Z</time></trkpt><trkpt lat="43.24613919332913" lon="11.407031383557767"><ele>165.0</ele><time>2026-04-25T08:20:21.999Z</time></trkpt><trkpt lat="43.24614856956042" lon="11.407158211565205"><ele>165.0</ele><time>2026-04-25T08:20:22.999Z</time></trkpt><trkpt lat="43.246128490124356" lon="11.407280630478606"><ele>165.0</ele><time>2026-04-25T08:20:23.999Z</time></trkpt><trkpt lat="43.246077868117524" lon="11.407394730895827"><ele>165.0</ele><time>2026-04-25T08:20:24.999Z</time></trkpt><trkpt lat="43.24600659076379" lon="11.407501738319223"><ele>164.75</ele><time>2026-04-25T08:20:25.999Z</time></trkpt><trkpt lat="43.24590986899731" lon="11.407583800465412"><ele>164.5</ele><time>2026-04-25T08:20:26.999Z</time></trkpt><trkpt lat="43.24580334558443" lon="11.40765544094235"><ele>164.25</ele><time>2026-04-25T08:20:27.999Z</time></trkpt><trkpt lat="43.24569195792012" lon="11.407742223756454"><ele>164.0</ele><time>2026-04-25T08:20:28.999Z</time></trkpt><trkpt lat="43.24556564619329" lon="11.407846912125223"><ele>164.0</ele><time>2026-04-25T08:20:29.999Z</time></trkpt><trkpt lat="43.24542911186598" lon="11.40795990478083"><ele>164.0</ele><time>2026-04-25T08:20:30.999Z</time></trkpt><trkpt lat="43.24528594662318" lon="11.408070898603954"><ele>164.0</ele><time>2026-04-25T08:20:31.999Z</time></trkpt><trkpt lat="43.24514784145063" lon="11.408179430620386"><ele>164.0</ele><time>2026-04-25T08:20:32.999Z</time></trkpt><trkpt lat="43.24500283123363" lon="11.408301063955783"><ele>164.0</ele><time>2026-04-25T08:20:33.999Z</time></trkpt><trkpt lat="43.244847358001635" lon="11.40843131926795"><ele>164.0</ele><time>2026-04-25T08:20:34.999Z</time></trkpt><trkpt lat="43.2446855504071" lon="11.408562893495334"><ele>163.66666666666666</ele><time>2026-04-25T08:20:35.999Z</time></trkpt><trkpt lat="43.24452227595906" lon="11.408693442167118"><ele>163.33333333333334</ele><time>2026-04-25T08:20:36.999Z</time></trkpt><trkpt lat="43.24436237456901" lon="11.408822028797541"><ele>163.0</ele><time>2026-04-25T08:20:37.999Z</time></trkpt><trkpt lat="43.24420182622603" lon="11.408955020150298"><ele>162.66666666666669</ele><time>2026-04-25T08:20:38.999Z</time></trkpt><trkpt lat="43.24403865545279" lon="11.40908925977111"><ele>162.33333333333334</ele><time>2026-04-25T08:20:39.999Z</time></trkpt><trkpt lat="43.24386966880884" lon="11.409218977852154"><ele>162.0</ele><time>2026-04-25T08:20:40.999Z</time></trkpt><trkpt lat="43.24369550321373" lon="11.409349879958015"><ele>162.33333333333334</ele><time>2026-04-25T08:20:41.999Z</time></trkpt><trkpt lat="43.24353927203568" lon="11.40951937799308"><ele>162.66666666666669</ele><time>2026-04-25T08:20:42.999Z</time></trkpt><trkpt lat="43.243344836259126" lon="11.409646533901606"><ele>163.0</ele><time>2026-04-25T08:20:43.999Z</time></trkpt><trkpt lat="43.24315249939662" lon="11.4097666727488"><ele>163.33333333333334</ele><time>2026-04-25T08:20:44.999Z</time></trkpt><trkpt lat="43.24297319400591" lon="11.409908273381854"><ele>163.66666666666666</ele><time>2026-04-25T08:20:45.999Z</time></trkpt><trkpt lat="43.24279347988926" lon="11.410052380351948"><ele>164.0</ele><time>2026-04-25T08:20:46.999Z</time></trkpt><trkpt lat="43.24261632091904" lon="11.410202391697416"><ele>164.0</ele><time>2026-04-25T08:20:47.999Z</time></trkpt><trkpt lat="43.24244183173919" lon="11.410362323362856"><ele>164.0</ele><time>2026-04-25T08:20:48.999Z</time></trkpt><trkpt lat="43.24227190749818" lon="11.410532415589179"><ele>164.0</ele><time>2026-04-25T08:20:49.999Z</time></trkpt><trkpt lat="43.24210680561069" lon="11.410714396842714"><ele>164.0</ele><time>2026-04-25T08:20:50.999Z</time></trkpt><trkpt lat="43.241943660703036" lon="11.410904047560551"><ele>164.0</ele><time>2026-04-25T08:20:51.998Z</time></trkpt><trkpt lat="43.24178299981095" lon="11.411101981815033"><ele>164.0</ele><time>2026-04-25T08:20:52.998Z</time></trkpt><trkpt lat="43.241626461833064" lon="11.411304216559932"><ele>163.66666666666666</ele><time>2026-04-25T08:20:53.998Z</time></trkpt><trkpt lat="43.24147325110477" lon="11.411517758054341"><ele>163.33333333333334</ele><time>2026-04-25T08:20:54.998Z</time></trkpt><trkpt lat="43.24132308617307" lon="11.41174001482505"><ele>163.0</ele><time>2026-04-25T08:20:55.998Z</time></trkpt><trkpt lat="43.2411715106286" lon="11.411964801608825"><ele>162.33333333333334</ele><time>2026-04-25T08:20:56.998Z</time></trkpt><trkpt lat="43.24101836750518" lon="11.412188317881467"><ele>161.66666666666666</ele><time>2026-04-25T08:20:57.998Z</time></trkpt><trkpt lat="43.24086645932527" lon="11.412413729741537"><ele>161.0</ele><time>2026-04-25T08:20:58.998Z</time></trkpt><trkpt lat="43.24071358009805" lon="11.412639415973997"><ele>161.5</ele><time>2026-04-25T08:20:59.998Z</time></trkpt><trkpt lat="43.24055871648968" lon="11.412866154682575"><ele>162.0</ele><time>2026-04-25T08:21:00.998Z</time></trkpt><trkpt lat="43.240405369870835" lon="11.41309349310864"><ele>162.0</ele><time>2026-04-25T08:21:01.998Z</time></trkpt><trkpt lat="43.240252325740244" lon="11.413320962246502"><ele>162.0</ele><time>2026-04-25T08:21:02.998Z</time></trkpt><trkpt lat="43.24009893558111" lon="11.41354891286442"><ele>162.0</ele><time>2026-04-25T08:21:03.998Z</time></trkpt><trkpt lat="43.239946460469916" lon="11.413775840009691"><ele>162.0</ele><time>2026-04-25T08:21:04.998Z</time></trkpt><trkpt lat="43.23979228923055" lon="11.414004371536947"><ele>163.0</ele><time>2026-04-25T08:21:05.998Z</time></trkpt><trkpt lat="43.239639008301516" lon="11.414232157857434"><ele>164.0</ele><time>2026-04-25T08:21:06.998Z</time></trkpt><trkpt lat="43.23948622847203" lon="11.414462289714367"><ele>163.5</ele><time>2026-04-25T08:21:07.998Z</time></trkpt><trkpt lat="43.239333712696315" lon="11.414690948111971"><ele>163.0</ele><time>2026-04-25T08:21:08.997Z</time></trkpt><trkpt lat="43.23918046314498" lon="11.41492106949615"><ele>163.0</ele><time>2026-04-25T08:21:09.997Z</time></trkpt><trkpt lat="43.23902519508859" lon="11.415150054879764"><ele>163.0</ele><time>2026-04-25T08:21:10.997Z</time></trkpt><trkpt lat="43.23886982620068" lon="11.415381724834697"><ele>163.5</ele><time>2026-04-25T08:21:11.997Z</time></trkpt><trkpt lat="43.23871203628501" lon="11.415613607369496"><ele>164.0</ele><time>2026-04-25T08:21:12.997Z</time></trkpt><trkpt lat="43.23855230347748" lon="11.415846395975276"><ele>164.0</ele><time>2026-04-25T08:21:13.997Z</time></trkpt><trkpt lat="43.238392536726955" lon="11.416081365275115"><ele>164.0</ele><time>2026-04-25T08:21:14.997Z</time></trkpt><trkpt lat="43.238232177543246" lon="11.416320135511587"><ele>163.0</ele><time>2026-04-25T08:21:15.997Z</time></trkpt><trkpt lat="43.23806898286609" lon="11.416560426779085"><ele>162.0</ele><time>2026-04-25T08:21:16.997Z</time></trkpt><trkpt lat="43.23790451710562" lon="11.416802613692997"><ele>162.0</ele><time>2026-04-25T08:21:17.997Z</time></trkpt><trkpt lat="43.23773875736676" lon="11.417041364546543"><ele>162.0</ele><time>2026-04-25T08:21:18.997Z</time></trkpt><trkpt lat="43.23757121349268" lon="11.417279751238793"><ele>162.5</ele><time>2026-04-25T08:21:19.997Z</time></trkpt><trkpt lat="43.23740107776439" lon="11.41751317918526"><ele>163.0</ele><time>2026-04-25T08:21:20.997Z</time></trkpt><trkpt lat="43.2372252256897" lon="11.41773752958252"><ele>162.0</ele><time>2026-04-25T08:21:21.997Z</time></trkpt><trkpt lat="43.23704259857012" lon="11.417949803754915"><ele>161.0</ele><time>2026-04-25T08:21:22.997Z</time></trkpt><trkpt lat="43.236852801432924" lon="11.418150010607913"><ele>160.5</ele><time>2026-04-25T08:21:23.997Z</time></trkpt><trkpt lat="43.23665628858634" lon="11.418335412754598"><ele>160.0</ele><time>2026-04-25T08:21:24.997Z</time></trkpt><trkpt lat="43.23645368976052" lon="11.418509109518707"><ele>161.5</ele><time>2026-04-25T08:21:25.997Z</time></trkpt><trkpt lat="43.23624949193058" lon="11.418671777642082"><ele>163.0</ele><time>2026-04-25T08:21:26.997Z</time></trkpt><trkpt lat="43.236045082756235" lon="11.418833758191436"><ele>163.0</ele><time>2026-04-25T08:21:27.997Z</time></trkpt><trkpt lat="43.23584191271613" lon="11.41900131128021"><ele>163.0</ele><time>2026-04-25T08:21:29Z</time></trkpt><trkpt lat="43.235643154769164" lon="11.419175186824116"><ele>163.5</ele><time>2026-04-25T08:21:30Z</time></trkpt><trkpt lat="43.23544716883013" lon="11.419356245619028"><ele>164.0</ele><time>2026-04-25T08:21:31Z</time></trkpt><trkpt lat="43.23525087322124" lon="11.419544182451645"><ele>163.0</ele><time>2026-04-25T08:21:32Z</time></trkpt><trkpt lat="43.2350545429406" lon="11.419739201532716"><ele>162.0</ele><time>2026-04-25T08:21:33Z</time></trkpt><trkpt lat="43.234858086045314" lon="11.419943668853037"><ele>163.0</ele><time>2026-04-25T08:21:34Z</time></trkpt><trkpt lat="43.23466606540053" lon="11.420160640811105"><ele>164.0</ele><time>2026-04-25T08:21:35Z</time></trkpt><trkpt lat="43.234481102190834" lon="11.420386360833156"><ele>163.5</ele><time>2026-04-25T08:21:36Z</time></trkpt><trkpt lat="43.23430321306432" lon="11.420623380575298"><ele>163.0</ele><time>2026-04-25T08:21:37Z</time></trkpt><trkpt lat="43.23413242689526" lon="11.420870077742837"><ele>163.0</ele><time>2026-04-25T08:21:38Z</time></trkpt><trkpt lat="43.23396761561424" lon="11.42112398565183"><ele>163.0</ele><time>2026-04-25T08:21:39Z</time></trkpt><trkpt lat="43.233805242706325" lon="11.421380316819326"><ele>163.0</ele><time>2026-04-25T08:21:40Z</time></trkpt><trkpt lat="43.23364294447823" lon="11.421637099706533"><ele>163.0</ele><time>2026-04-25T08:21:41Z</time></trkpt><trkpt lat="43.233480181325476" lon="11.421891172374007"><ele>163.0</ele><time>2026-04-25T08:21:42Z</time></trkpt><trkpt lat="43.233314119398706" lon="11.422141398087488"><ele>163.0</ele><time>2026-04-25T08:21:43Z</time></trkpt><trkpt lat="43.23314590005717" lon="11.42238875485003"><ele>164.0</ele><time>2026-04-25T08:21:44Z</time></trkpt><trkpt lat="43.23296492290943" lon="11.42262660293202"><ele>165.0</ele><time>2026-04-25T08:21:45Z</time></trkpt><trkpt lat="43.23276513140254" lon="11.422857237286367"><ele>163.5</ele><time>2026-04-25T08:21:46Z</time></trkpt><trkpt lat="43.23255205610516" lon="11.423064812814365"><ele>162.0</ele><time>2026-04-25T08:21:46.999Z</time></trkpt><trkpt lat="43.23233243608657" lon="11.423250774751564"><ele>162.0</ele><time>2026-04-25T08:21:47.999Z</time></trkpt><trkpt lat="43.232109587882306" lon="11.423426476241202"><ele>162.0</ele><time>2026-04-25T08:21:48.999Z</time></trkpt><trkpt lat="43.231885807996434" lon="11.423592545259247"><ele>162.0</ele><time>2026-04-25T08:21:49.999Z</time></trkpt><trkpt lat="43.231664691705475" lon="11.423751256458328"><ele>162.0</ele><time>2026-04-25T08:21:50.999Z</time></trkpt><trkpt lat="43.23144222510136" lon="11.423905198207297"><ele>162.0</ele><time>2026-04-25T08:21:51.999Z</time></trkpt><trkpt lat="43.23122148943444" lon="11.42405920484143"><ele>162.0</ele><time>2026-04-25T08:21:52.999Z</time></trkpt><trkpt lat="43.231002688616286" lon="11.424214616776336"><ele>162.0</ele><time>2026-04-25T08:21:53.999Z</time></trkpt><trkpt lat="43.23078453529536" lon="11.42436637650208"><ele>162.0</ele><time>2026-04-25T08:21:54.999Z</time></trkpt><trkpt lat="43.23056687767813" lon="11.424515129071986"><ele>162.0</ele><time>2026-04-25T08:21:55.999Z</time></trkpt><trkpt lat="43.23034794474943" lon="11.424664037354177"><ele>162.0</ele><time>2026-04-25T08:21:56.999Z</time></trkpt><trkpt lat="43.230130772915196" lon="11.42481731658536"><ele>162.0</ele><time>2026-04-25T08:21:57.999Z</time></trkpt><trkpt lat="43.2299150909645" lon="11.424971254727865"><ele>162.0</ele><time>2026-04-25T08:21:58.999Z</time></trkpt><trkpt lat="43.22969706697168" lon="11.425122146853784"><ele>162.0</ele><time>2026-04-25T08:21:59.999Z</time></trkpt><trkpt lat="43.22947862401858" lon="11.425271885938086"><ele>162.0</ele><time>2026-04-25T08:22:00.999Z</time></trkpt><trkpt lat="43.22925878466953" lon="11.425419963951995"><ele>162.0</ele><time>2026-04-25T08:22:01.999Z</time></trkpt><trkpt lat="43.22903632939986" lon="11.425560941150204"><ele>162.0</ele><time>2026-04-25T08:22:02.999Z</time></trkpt><trkpt lat="43.22880738636529" lon="11.425687880727123"><ele>162.0</ele><time>2026-04-25T08:22:03.999Z</time></trkpt><trkpt lat="43.22857313201431" lon="11.425796771399508"><ele>162.0</ele><time>2026-04-25T08:22:04.999Z</time></trkpt><trkpt lat="43.22833573995589" lon="11.42589136262571"><ele>161.0</ele><time>2026-04-25T08:22:05.999Z</time></trkpt><trkpt lat="43.228095817829725" lon="11.425974599629166"><ele>160.0</ele><time>2026-04-25T08:22:06.999Z</time></trkpt><trkpt lat="43.22785381290222" lon="11.426048095707376"><ele>160.0</ele><time>2026-04-25T08:22:07.999Z</time></trkpt><trkpt lat="43.227610987489605" lon="11.426116013641797"><ele>160.0</ele><time>2026-04-25T08:22:08.999Z</time></trkpt><trkpt lat="43.227366905359695" lon="11.42618227983223"><ele>159.5</ele><time>2026-04-25T08:22:09.999Z</time></trkpt><trkpt lat="43.227122367123116" lon="11.426257319032263"><ele>159.0</ele><time>2026-04-25T08:22:10.999Z</time></trkpt><trkpt lat="43.22687832780267" lon="11.426331556455397"><ele>158.5</ele><time>2026-04-25T08:22:11.999Z</time></trkpt><trkpt lat="43.226632975968776" lon="11.426403944800448"><ele>158.0</ele><time>2026-04-25T08:22:12.999Z</time></trkpt><trkpt lat="43.22638675948027" lon="11.426475459151897"><ele>158.0</ele><time>2026-04-25T08:22:13.999Z</time></trkpt><trkpt lat="43.226141696046426" lon="11.426547907102243"><ele>158.0</ele><time>2026-04-25T08:22:14.999Z</time></trkpt><trkpt lat="43.22589877065517" lon="11.4266264834994"><ele>158.0</ele><time>2026-04-25T08:22:15.999Z</time></trkpt><trkpt lat="43.22566105407599" lon="11.426719976187263"><ele>158.0</ele><time>2026-04-25T08:22:16.999Z</time></trkpt><trkpt lat="43.2254287986896" lon="11.426835017367551"><ele>159.0</ele><time>2026-04-25T08:22:17.999Z</time></trkpt><trkpt lat="43.225200397697535" lon="11.426963410175697"><ele>160.0</ele><time>2026-04-25T08:22:18.999Z</time></trkpt><trkpt lat="43.22497939025187" lon="11.42710968494823"><ele>159.0</ele><time>2026-04-25T08:22:19.999Z</time></trkpt><trkpt lat="43.22476557084246" lon="11.427271464031467"><ele>158.0</ele><time>2026-04-25T08:22:20.999Z</time></trkpt><trkpt lat="43.22455808006906" lon="11.427446085606201"><ele>158.0</ele><time>2026-04-25T08:22:21.999Z</time></trkpt><trkpt lat="43.224357704831945" lon="11.427633691680365"><ele>158.0</ele><time>2026-04-25T08:22:22.999Z</time></trkpt><trkpt lat="43.22416431187847" lon="11.427832644988937"><ele>158.5</ele><time>2026-04-25T08:22:23.999Z</time></trkpt><trkpt lat="43.22397521091094" lon="11.42803773590661"><ele>159.0</ele><time>2026-04-25T08:22:24.999Z</time></trkpt><trkpt lat="43.22378666309315" lon="11.428243757639578"><ele>159.0</ele><time>2026-04-25T08:22:25.999Z</time></trkpt><trkpt lat="43.22359819265063" lon="11.428448827113746"><ele>159.0</ele><time>2026-04-25T08:22:26.999Z</time></trkpt><trkpt lat="43.223408438299174" lon="11.428650379222931"><ele>158.5</ele><time>2026-04-25T08:22:27.999Z</time></trkpt><trkpt lat="43.22321719824322" lon="11.42884713200839"><ele>158.0</ele><time>2026-04-25T08:22:28.999Z</time></trkpt><trkpt lat="43.2230227642497" lon="11.429038160689467"><ele>159.5</ele><time>2026-04-25T08:22:29.999Z</time></trkpt><trkpt lat="43.2228273109977" lon="11.429224788928725"><ele>161.0</ele><time>2026-04-25T08:22:30.999Z</time></trkpt><trkpt lat="43.22262939923992" lon="11.429403783828091"><ele>161.0</ele><time>2026-04-25T08:22:31.998Z</time></trkpt><trkpt lat="43.22243139483108" lon="11.429584155312213"><ele>161.0</ele><time>2026-04-25T08:22:32.998Z</time></trkpt><trkpt lat="43.222229523253816" lon="11.4297603861605"><ele>160.0</ele><time>2026-04-25T08:22:33.998Z</time></trkpt><trkpt lat="43.22202511524299" lon="11.429929131135937"><ele>159.0</ele><time>2026-04-25T08:22:34.998Z</time></trkpt><trkpt lat="43.2218174641191" lon="11.43008697326455"><ele>159.0</ele><time>2026-04-25T08:22:35.998Z</time></trkpt><trkpt lat="43.22160932992977" lon="11.430247277429213"><ele>159.0</ele><time>2026-04-25T08:22:36.998Z</time></trkpt><trkpt lat="43.221403537416364" lon="11.430402388781406"><ele>158.5</ele><time>2026-04-25T08:22:37.998Z</time></trkpt><trkpt lat="43.22119728405445" lon="11.430555800111966"><ele>158.0</ele><time>2026-04-25T08:22:38.998Z</time></trkpt><trkpt lat="43.220990402390164" lon="11.430707153300455"><ele>158.0</ele><time>2026-04-25T08:22:39.998Z</time></trkpt><trkpt lat="43.22078423916942" lon="11.43086118038145"><ele>158.0</ele><time>2026-04-25T08:22:40.998Z</time></trkpt><trkpt lat="43.2205779628251" lon="11.431016732748876"><ele>158.0</ele><time>2026-04-25T08:22:41.998Z</time></trkpt><trkpt lat="43.220372437952825" lon="11.431170009320132"><ele>158.0</ele><time>2026-04-25T08:22:42.998Z</time></trkpt><trkpt lat="43.220166926047185" lon="11.431322197156181"><ele>158.0</ele><time>2026-04-25T08:22:43.998Z</time></trkpt><trkpt lat="43.21996228259472" lon="11.43147413958377"><ele>158.0</ele><time>2026-04-25T08:22:44.998Z</time></trkpt><trkpt lat="43.219759995754266" lon="11.431630343442915"><ele>159.0</ele><time>2026-04-25T08:22:45.998Z</time></trkpt><trkpt lat="43.21955923737064" lon="11.431789043103288"><ele>160.0</ele><time>2026-04-25T08:22:46.998Z</time></trkpt><trkpt lat="43.219356182131804" lon="11.43194646600855"><ele>160.0</ele><time>2026-04-25T08:22:47.998Z</time></trkpt><trkpt lat="43.21915182964485" lon="11.432102734818882"><ele>160.0</ele><time>2026-04-25T08:22:48.998Z</time></trkpt><trkpt lat="43.218947568501015" lon="11.432256771072344"><ele>159.5</ele><time>2026-04-25T08:22:49.998Z</time></trkpt><trkpt lat="43.21874305061793" lon="11.432412004112711"><ele>159.0</ele><time>2026-04-25T08:22:50.998Z</time></trkpt><trkpt lat="43.21854228657664" lon="11.432573114668886"><ele>159.0</ele><time>2026-04-25T08:22:51.998Z</time></trkpt><trkpt lat="43.21834315309662" lon="11.432735531145234"><ele>159.0</ele><time>2026-04-25T08:22:52.998Z</time></trkpt><trkpt lat="43.21814512416514" lon="11.432890894273216"><ele>158.66666666666666</ele><time>2026-04-25T08:22:53.998Z</time></trkpt><trkpt lat="43.21794668532258" lon="11.43303677504165"><ele>158.33333333333331</ele><time>2026-04-25T08:22:54.998Z</time></trkpt><trkpt lat="43.217749301438296" lon="11.43317860333613"><ele>158.0</ele><time>2026-04-25T08:22:55.998Z</time></trkpt><trkpt lat="43.217555525880215" lon="11.433317068238209"><ele>158.0</ele><time>2026-04-25T08:22:56.998Z</time></trkpt><trkpt lat="43.217371715146506" lon="11.433432115734867"><ele>158.0</ele><time>2026-04-25T08:22:57.998Z</time></trkpt><trkpt lat="43.21719821872362" lon="11.433516755123774"><ele>158.0</ele><time>2026-04-25T08:22:58.998Z</time></trkpt><trkpt lat="43.21703610390009" lon="11.433570017074377"><ele>158.25</ele><time>2026-04-25T08:22:59.998Z</time></trkpt><trkpt lat="43.21688282464291" lon="11.433590709008072"><ele>158.5</ele><time>2026-04-25T08:23:00.998Z</time></trkpt><trkpt lat="43.21673783641267" lon="11.433574412752822"><ele>158.75</ele><time>2026-04-25T08:23:01.998Z</time></trkpt><trkpt lat="43.216605228023084" lon="11.433525915708872"><ele>159.0</ele><time>2026-04-25T08:23:02.998Z</time></trkpt><trkpt lat="43.21648106734163" lon="11.433472758643715"><ele>159.16666666666666</ele><time>2026-04-25T08:23:03.998Z</time></trkpt><trkpt lat="43.216371893654674" lon="11.433424340245836"><ele>159.33333333333334</ele><time>2026-04-25T08:23:04.998Z</time></trkpt><trkpt lat="43.21628498397167" lon="11.433356118502966"><ele>159.5</ele><time>2026-04-25T08:23:05.998Z</time></trkpt><trkpt lat="43.21619892806084" lon="11.433330689718682"><ele>159.66666666666669</ele><time>2026-04-25T08:23:06.998Z</time></trkpt><trkpt lat="43.216136763976095" lon="11.433277823332212"><ele>159.83333333333334</ele><time>2026-04-25T08:23:07.998Z</time></trkpt><trkpt lat="43.21609050638497" lon="11.433211167862401"><ele>160.0</ele><time>2026-04-25T08:23:08.998Z</time></trkpt><trkpt lat="43.21605756709784" lon="11.433119911984216"><ele>160.0</ele><time>2026-04-25T08:23:09.998Z</time></trkpt><trkpt lat="43.21603809245713" lon="11.433010126175029"><ele>160.0</ele><time>2026-04-25T08:23:10.998Z</time></trkpt><trkpt lat="43.21601466282037" lon="11.432897403419803"><ele>160.0</ele><time>2026-04-25T08:23:11.998Z</time></trkpt><trkpt lat="43.21597537021619" lon="11.43279294917391"><ele>160.0</ele><time>2026-04-25T08:23:12.998Z</time></trkpt><trkpt lat="43.215923568337566" lon="11.432710107244898"><ele>160.0</ele><time>2026-04-25T08:23:13.998Z</time></trkpt><trkpt lat="43.21585151706026" lon="11.432649619674846"><ele>160.0</ele><time>2026-04-25T08:23:14.998Z</time></trkpt><trkpt lat="43.21576387487099" lon="11.4326132926322"><ele>160.0</ele><time>2026-04-25T08:23:15.998Z</time></trkpt><trkpt lat="43.215663341776" lon="11.432614570551179"><ele>160.0</ele><time>2026-04-25T08:23:16.998Z</time></trkpt><trkpt lat="43.21556404598796" lon="11.43264351553106"><ele>160.0</ele><time>2026-04-25T08:23:17.998Z</time></trkpt><trkpt lat="43.21546277851646" lon="11.432692331609891"><ele>160.0</ele><time>2026-04-25T08:23:18.997Z</time></trkpt><trkpt lat="43.21535442862696" lon="11.432716580764904"><ele>160.0</ele><time>2026-04-25T08:23:19.997Z</time></trkpt><trkpt lat="43.21524493332021" lon="11.43270585649967"><ele>160.25</ele><time>2026-04-25T08:23:20.997Z</time></trkpt><trkpt lat="43.21513852849123" lon="11.432645394729374"><ele>160.5</ele><time>2026-04-25T08:23:21.997Z</time></trkpt><trkpt lat="43.21501932424297" lon="11.432586358470848"><ele>160.75</ele><time>2026-04-25T08:23:22.997Z</time></trkpt><trkpt lat="43.21489203179913" lon="11.432520227146581"><ele>161.0</ele><time>2026-04-25T08:23:23.997Z</time></trkpt><trkpt lat="43.21475060876194" lon="11.432445965029093"><ele>161.75</ele><time>2026-04-25T08:23:24.997Z</time></trkpt><trkpt lat="43.21461214437987" lon="11.432371432227384"><ele>162.5</ele><time>2026-04-25T08:23:25.997Z</time></trkpt><trkpt lat="43.2144684591536" lon="11.432315876252062"><ele>163.25</ele><time>2026-04-25T08:23:26.997Z</time></trkpt><trkpt lat="43.21432658388161" lon="11.432244577709994"><ele>164.0</ele><time>2026-04-25T08:23:27.997Z</time></trkpt><trkpt lat="43.21418269473222" lon="11.432189769754034"><ele>164.0</ele><time>2026-04-25T08:23:28.997Z</time></trkpt><trkpt lat="43.21403663261431" lon="11.432143896546918"><ele>164.0</ele><time>2026-04-25T08:23:29.997Z</time></trkpt><trkpt lat="43.21388975985568" lon="11.432106310442492"><ele>164.0</ele><time>2026-04-25T08:23:30.997Z</time></trkpt><trkpt lat="43.21374224925097" lon="11.432067597273571"><ele>164.0</ele><time>2026-04-25T08:23:31.997Z</time></trkpt><trkpt lat="43.21359417226035" lon="11.432026777391048"><ele>163.66666666666666</ele><time>2026-04-25T08:23:32.997Z</time></trkpt><trkpt lat="43.21343835761974" lon="11.43198833150207"><ele>163.33333333333334</ele><time>2026-04-25T08:23:33.997Z</time></trkpt><trkpt lat="43.2132780021225" lon="11.431947344073606"><ele>163.0</ele><time>2026-04-25T08:23:35Z</time></trkpt><trkpt lat="43.21312214158014" lon="11.431911806361795"><ele>163.66666666666669</ele><time>2026-04-25T08:23:36Z</time></trkpt><trkpt lat="43.21296972652116" lon="11.43185637217406"><ele>164.33333333333334</ele><time>2026-04-25T08:23:37Z</time></trkpt><trkpt lat="43.21280944641322" lon="11.431831070782225"><ele>165.0</ele><time>2026-04-25T08:23:38Z</time></trkpt><trkpt lat="43.21263150681892" lon="11.43182099961343"><ele>165.0</ele><time>2026-04-25T08:23:39Z</time></trkpt><trkpt lat="43.21243529731138" lon="11.43182385380169"><ele>165.0</ele><time>2026-04-25T08:23:40Z</time></trkpt><trkpt lat="43.212218899619664" lon="11.4318356218859"><ele>165.0</ele><time>2026-04-25T08:23:41Z</time></trkpt><trkpt lat="43.211982943326575" lon="11.431847977103825"><ele>165.5</ele><time>2026-04-25T08:23:42Z</time></trkpt><trkpt lat="43.211742573708094" lon="11.431862106490016"><ele>166.0</ele><time>2026-04-25T08:23:43Z</time></trkpt><trkpt lat="43.21151392513076" lon="11.431891621455703"><ele>165.66666666666669</ele><time>2026-04-25T08:23:44Z</time></trkpt><trkpt lat="43.211293558396875" lon="11.431904542955163"><ele>165.33333333333334</ele><time>2026-04-25T08:23:45Z</time></trkpt><trkpt lat="43.21109080410379" lon="11.431921980472355"><ele>165.0</ele><time>2026-04-25T08:23:46Z</time></trkpt><trkpt lat="43.21089590467475" lon="11.431931856256918"><ele>165.0</ele><time>2026-04-25T08:23:47Z</time></trkpt><trkpt lat="43.21070752916623" lon="11.431942675519297"><ele>165.0</ele><time>2026-04-25T08:23:48Z</time></trkpt><trkpt lat="43.21051922397344" lon="11.431955898980693"><ele>165.0</ele><time>2026-04-25T08:23:49Z</time></trkpt><trkpt lat="43.21033514987248" lon="11.431944231014779"><ele>165.0</ele><time>2026-04-25T08:23:50Z</time></trkpt><trkpt lat="43.21015432291759" lon="11.431952716593162"><ele>165.0</ele><time>2026-04-25T08:23:51Z</time></trkpt><trkpt lat="43.2099781676246" lon="11.431962641383524"><ele>165.0</ele><time>2026-04-25T08:23:52Z</time></trkpt><trkpt lat="43.209809439770844" lon="11.431972147704286"><ele>165.0</ele><time>2026-04-25T08:23:53Z</time></trkpt><trkpt lat="43.20965479516546" lon="11.43200247681981"><ele>165.0</ele><time>2026-04-25T08:23:54Z</time></trkpt><trkpt lat="43.20951973095781" lon="11.432015284578288"><ele>165.0</ele><time>2026-04-25T08:23:55Z</time></trkpt><trkpt lat="43.209393068331885" lon="11.43204679102668"><ele>165.0</ele><time>2026-04-25T08:23:56Z</time></trkpt><trkpt lat="43.209279147765905" lon="11.432109033469862"><ele>165.0</ele><time>2026-04-25T08:23:57Z</time></trkpt><trkpt lat="43.209180241927065" lon="11.432214370122198"><ele>165.0</ele><time>2026-04-25T08:23:58Z</time></trkpt><trkpt lat="43.20909804339876" lon="11.4323578342808"><ele>165.0</ele><time>2026-04-25T08:23:59Z</time></trkpt><trkpt lat="43.20903481599528" lon="11.43252171836489"><ele>165.0</ele><time>2026-04-25T08:24:00Z</time></trkpt><trkpt lat="43.20897471207252" lon="11.432697676144079"><ele>164.33333333333334</ele><time>2026-04-25T08:24:00.999Z</time></trkpt><trkpt lat="43.208908272089076" lon="11.432888034197122"><ele>163.66666666666669</ele><time>2026-04-25T08:24:01.999Z</time></trkpt><trkpt lat="43.20883849553098" lon="11.433083019531932"><ele>163.0</ele><time>2026-04-25T08:24:02.999Z</time></trkpt><trkpt lat="43.20876788603309" lon="11.433280951807708"><ele>163.0</ele><time>2026-04-25T08:24:03.999Z</time></trkpt><trkpt lat="43.20870202546693" lon="11.433470819860387"><ele>163.0</ele><time>2026-04-25T08:24:04.999Z</time></trkpt><trkpt lat="43.20864078174668" lon="11.433649721109873"><ele>163.0</ele><time>2026-04-25T08:24:05.999Z</time></trkpt><trkpt lat="43.20858012088151" lon="11.433822968281687"><ele>163.0</ele><time>2026-04-25T08:24:06.999Z</time></trkpt><trkpt lat="43.20854005946863" lon="11.434006203095857"><ele>163.0</ele><time>2026-04-25T08:24:07.999Z</time></trkpt><trkpt lat="43.2085415746897" lon="11.434202937240345"><ele>163.0</ele><time>2026-04-25T08:24:08.999Z</time></trkpt><trkpt lat="43.2085686408994" lon="11.434410314035437"><ele>163.0</ele><time>2026-04-25T08:24:09.999Z</time></trkpt><trkpt lat="43.2085982322977" lon="11.434621870990012"><ele>162.0</ele><time>2026-04-25T08:24:10.999Z</time></trkpt><trkpt lat="43.208622368902724" lon="11.434839304453876"><ele>161.0</ele><time>2026-04-25T08:24:11.999Z</time></trkpt><trkpt lat="43.20864141650667" lon="11.435057055237461"><ele>160.0</ele><time>2026-04-25T08:24:12.999Z</time></trkpt><trkpt lat="43.20865180999899" lon="11.43527088854982"><ele>159.66666666666669</ele><time>2026-04-25T08:24:13.999Z</time></trkpt><trkpt lat="43.20863403945058" lon="11.435481478157625"><ele>159.33333333333334</ele><time>2026-04-25T08:24:14.999Z</time></trkpt><trkpt lat="43.208588328021754" lon="11.435679831103803"><ele>159.0</ele><time>2026-04-25T08:24:15.999Z</time></trkpt><trkpt lat="43.208534394073624" lon="11.435873881448215"><ele>159.0</ele><time>2026-04-25T08:24:16.999Z</time></trkpt><trkpt lat="43.20848937263552" lon="11.436071062252532"><ele>159.0</ele><time>2026-04-25T08:24:17.999Z</time></trkpt><trkpt lat="43.20844353314342" lon="11.436269142364427"><ele>159.0</ele><time>2026-04-25T08:24:18.999Z</time></trkpt><trkpt lat="43.20839362962423" lon="11.43646284652886"><ele>159.0</ele><time>2026-04-25T08:24:19.999Z</time></trkpt><trkpt lat="43.20834965016287" lon="11.436652479457653"><ele>159.0</ele><time>2026-04-25T08:24:20.999Z</time></trkpt><trkpt lat="43.20830424512945" lon="11.436837500168924"><ele>159.0</ele><time>2026-04-25T08:24:21.999Z</time></trkpt><trkpt lat="43.2082546085408" lon="11.437010205434401"><ele>159.0</ele><time>2026-04-25T08:24:22.999Z</time></trkpt><trkpt lat="43.20820618135999" lon="11.437174163373895"><ele>158.5</ele><time>2026-04-25T08:24:23.999Z</time></trkpt><trkpt lat="43.20815256248367" lon="11.437337958829215"><ele>158.0</ele><time>2026-04-25T08:24:24.999Z</time></trkpt><trkpt lat="43.2080979479116" lon="11.437500096863095"><ele>157.5</ele><time>2026-04-25T08:24:25.999Z</time></trkpt><trkpt lat="43.208044567553905" lon="11.437655388882932"><ele>157.0</ele><time>2026-04-25T08:24:26.999Z</time></trkpt><trkpt lat="43.20799230858634" lon="11.43780601677619"><ele>157.0</ele><time>2026-04-25T08:24:27.999Z</time></trkpt><trkpt lat="43.207937636353755" lon="11.437959359793112"><ele>157.0</ele><time>2026-04-25T08:24:28.999Z</time></trkpt><trkpt lat="43.20788042527991" lon="11.438119403326287"><ele>157.0</ele><time>2026-04-25T08:24:29.999Z</time></trkpt><trkpt lat="43.20782295185246" lon="11.438287593901832"><ele>157.0</ele><time>2026-04-25T08:24:30.999Z</time></trkpt><trkpt lat="43.20776424035633" lon="11.43844834136134"><ele>157.0</ele><time>2026-04-25T08:24:31.999Z</time></trkpt><trkpt lat="43.207706421816205" lon="11.438603040503136"><ele>157.0</ele><time>2026-04-25T08:24:32.999Z</time></trkpt><trkpt lat="43.20765235069316" lon="11.438757838574219"><ele>157.0</ele><time>2026-04-25T08:24:33.999Z</time></trkpt><trkpt lat="43.20759763659817" lon="11.438907794861246"><ele>157.0</ele><time>2026-04-25T08:24:34.999Z</time></trkpt><trkpt lat="43.207528887560166" lon="11.439050988126363"><ele>157.0</ele><time>2026-04-25T08:24:35.999Z</time></trkpt><trkpt lat="43.20743830824932" lon="11.439179139344219"><ele>157.0</ele><time>2026-04-25T08:24:36.999Z</time></trkpt><trkpt lat="43.20733034253818" lon="11.439292968645358"><ele>157.0</ele><time>2026-04-25T08:24:37.999Z</time></trkpt><trkpt lat="43.207199677282006" lon="11.439360342232328"><ele>157.0</ele><time>2026-04-25T08:24:38.999Z</time></trkpt><trkpt lat="43.2070708940795" lon="11.439441039464505"><ele>157.0</ele><time>2026-04-25T08:24:39.999Z</time></trkpt><trkpt lat="43.20694366641598" lon="11.439538775709407"><ele>157.0</ele><time>2026-04-25T08:24:40.999Z</time></trkpt><trkpt lat="43.206807902518676" lon="11.439624510485709"><ele>157.0</ele><time>2026-04-25T08:24:41.999Z</time></trkpt><trkpt lat="43.2066650917697" lon="11.439686369776798"><ele>157.0</ele><time>2026-04-25T08:24:42.999Z</time></trkpt><trkpt lat="43.20653244722038" lon="11.439790052973526"><ele>157.0</ele><time>2026-04-25T08:24:43.999Z</time></trkpt><trkpt lat="43.20637778468871" lon="11.43986260816813"><ele>157.0</ele><time>2026-04-25T08:24:44.999Z</time></trkpt><trkpt lat="43.20621295196348" lon="11.439961411419782"><ele>157.0</ele><time>2026-04-25T08:24:45.999Z</time></trkpt><trkpt lat="43.206027608491624" lon="11.4400745045803"><ele>157.0</ele><time>2026-04-25T08:24:46.999Z</time></trkpt><trkpt lat="43.20583633662336" lon="11.440191123161608"><ele>157.0</ele><time>2026-04-25T08:24:47.999Z</time></trkpt><trkpt lat="43.205656805865395" lon="11.440311282554836"><ele>157.0</ele><time>2026-04-25T08:24:48.998Z</time></trkpt><trkpt lat="43.2054839134434" lon="11.440415690120767"><ele>157.33333333333334</ele><time>2026-04-25T08:24:49.998Z</time></trkpt><trkpt lat="43.20531329926953" lon="11.440525822990436"><ele>157.66666666666666</ele><time>2026-04-25T08:24:50.998Z</time></trkpt><trkpt lat="43.205151740329086" lon="11.440626101129684"><ele>158.0</ele><time>2026-04-25T08:24:51.998Z</time></trkpt><trkpt lat="43.204994340445886" lon="11.440725805451173"><ele>158.0</ele><time>2026-04-25T08:24:52.998Z</time></trkpt><trkpt lat="43.20483904233107" lon="11.440817105506975"><ele>158.0</ele><time>2026-04-25T08:24:53.998Z</time></trkpt><trkpt lat="43.20468136939612" lon="11.440910672731583"><ele>158.0</ele><time>2026-04-25T08:24:54.998Z</time></trkpt><trkpt lat="43.20453532720326" lon="11.441000985970971"><ele>158.33333333333331</ele><time>2026-04-25T08:24:55.998Z</time></trkpt><trkpt lat="43.20439762428784" lon="11.441088463504325"><ele>158.66666666666666</ele><time>2026-04-25T08:24:56.998Z</time></trkpt><trkpt lat="43.20425480081022" lon="11.441184292877324"><ele>159.0</ele><time>2026-04-25T08:24:57.998Z</time></trkpt><trkpt lat="43.20411466467765" lon="11.441290804148716"><ele>159.66666666666666</ele><time>2026-04-25T08:24:58.998Z</time></trkpt><trkpt lat="43.20397718006636" lon="11.441410005860236"><ele>160.33333333333331</ele><time>2026-04-25T08:24:59.998Z</time></trkpt><trkpt lat="43.20384268702234" lon="11.44153818279852"><ele>161.0</ele><time>2026-04-25T08:25:00.998Z</time></trkpt><trkpt lat="43.20371748669886" lon="11.441672689781305"><ele>161.0</ele><time>2026-04-25T08:25:01.998Z</time></trkpt><trkpt lat="43.20360499479247" lon="11.441808088627823"><ele>161.0</ele><time>2026-04-25T08:25:02.998Z</time></trkpt><trkpt lat="43.203496368150134" lon="11.441942863545274"><ele>161.0</ele><time>2026-04-25T08:25:03.998Z</time></trkpt><trkpt lat="43.20338835727713" lon="11.442078419470004"><ele>161.0</ele><time>2026-04-25T08:25:04.998Z</time></trkpt><trkpt lat="43.20328663889694" lon="11.442213541555093"><ele>160.75</ele><time>2026-04-25T08:25:05.998Z</time></trkpt><trkpt lat="43.20318994428128" lon="11.442344290012505"><ele>160.5</ele><time>2026-04-25T08:25:06.998Z</time></trkpt><trkpt lat="43.203097786279095" lon="11.442464703626946"><ele>160.25</ele><time>2026-04-25T08:25:07.998Z</time></trkpt><trkpt lat="43.203005156724686" lon="11.44257253888541"><ele>160.0</ele><time>2026-04-25T08:25:08.998Z</time></trkpt><trkpt lat="43.20290334982328" lon="11.442676678615392"><ele>160.0</ele><time>2026-04-25T08:25:09.998Z</time></trkpt><trkpt lat="43.20278792335595" lon="11.442762915151436"><ele>160.0</ele><time>2026-04-25T08:25:10.998Z</time></trkpt><trkpt lat="43.20265852505529" lon="11.44282421652193"><ele>160.0</ele><time>2026-04-25T08:25:11.998Z</time></trkpt><trkpt lat="43.20251527140373" lon="11.442830657158597"><ele>160.0</ele><time>2026-04-25T08:25:12.998Z</time></trkpt><trkpt lat="43.20236286128588" lon="11.442870867298115"><ele>159.66666666666669</ele><time>2026-04-25T08:25:13.998Z</time></trkpt><trkpt lat="43.20219212005743" lon="11.442864752563962"><ele>159.33333333333334</ele><time>2026-04-25T08:25:14.998Z</time></trkpt><trkpt lat="43.20200988261328" lon="11.442881850283431"><ele>159.0</ele><time>2026-04-25T08:25:15.998Z</time></trkpt><trkpt lat="43.201815065860316" lon="11.442900128203222"><ele>159.0</ele><time>2026-04-25T08:25:16.998Z</time></trkpt><trkpt lat="43.201616025043705" lon="11.442919194023693"><ele>159.0</ele><time>2026-04-25T08:25:17.998Z</time></trkpt><trkpt lat="43.20141647009689" lon="11.442938594736576"><ele>159.0</ele><time>2026-04-25T08:25:18.998Z</time></trkpt><trkpt lat="43.201210528518686" lon="11.44295861635265"><ele>157.5</ele><time>2026-04-25T08:25:19.998Z</time></trkpt><trkpt lat="43.200989643098836" lon="11.442979362274242"><ele>156.0</ele><time>2026-04-25T08:25:20.998Z</time></trkpt><trkpt lat="43.200757563901455" lon="11.443000783383578"><ele>157.0</ele><time>2026-04-25T08:25:21.998Z</time></trkpt><trkpt lat="43.20053032865813" lon="11.443022679190898"><ele>158.0</ele><time>2026-04-25T08:25:22.998Z</time></trkpt><trkpt lat="43.200302823026455" lon="11.443044745040405"><ele>158.0</ele><time>2026-04-25T08:25:23.998Z</time></trkpt><trkpt lat="43.20005996413373" lon="11.443067058109657"><ele>158.0</ele><time>2026-04-25T08:25:24.998Z</time></trkpt><trkpt lat="43.199816607134714" lon="11.44308941694391"><ele>157.66666666666666</ele><time>2026-04-25T08:25:25.998Z</time></trkpt><trkpt lat="43.19959251592922" lon="11.443110005697282"><ele>157.33333333333334</ele><time>2026-04-25T08:25:26.998Z</time></trkpt><trkpt lat="43.199379804786695" lon="11.443130701153704"><ele>157.0</ele><time>2026-04-25T08:25:27.998Z</time></trkpt><trkpt lat="43.199176804056286" lon="11.443153858823614"><ele>157.33333333333334</ele><time>2026-04-25T08:25:28.998Z</time></trkpt><trkpt lat="43.19898792112316" lon="11.443203401004444"><ele>157.66666666666666</ele><time>2026-04-25T08:25:29.998Z</time></trkpt><trkpt lat="43.198803969954064" lon="11.443236482831344"><ele>158.0</ele><time>2026-04-25T08:25:30.998Z</time></trkpt><trkpt lat="43.198621891473394" lon="11.443289914281019"><ele>158.0</ele><time>2026-04-25T08:25:31.998Z</time></trkpt><trkpt lat="43.19844695259819" lon="11.443355161672736"><ele>158.0</ele><time>2026-04-25T08:25:32.998Z</time></trkpt><trkpt lat="43.19827844933869" lon="11.443427357985726"><ele>158.0</ele><time>2026-04-25T08:25:33.998Z</time></trkpt><trkpt lat="43.198112862999416" lon="11.443508045675992"><ele>158.33333333333331</ele><time>2026-04-25T08:25:34.998Z</time></trkpt><trkpt lat="43.19794789553548" lon="11.443597270998124"><ele>158.66666666666666</ele><time>2026-04-25T08:25:35.997Z</time></trkpt><trkpt lat="43.1977879791284" lon="11.443679985927751"><ele>159.0</ele><time>2026-04-25T08:25:36.997Z</time></trkpt><trkpt lat="43.197631382651565" lon="11.443754061073124"><ele>158.66666666666666</ele><time>2026-04-25T08:25:37.997Z</time></trkpt><trkpt lat="43.197481312165124" lon="11.443828762378338"><ele>158.33333333333331</ele><time>2026-04-25T08:25:38.997Z</time></trkpt><trkpt lat="43.19733874341256" lon="11.443903298691664"><ele>158.0</ele><time>2026-04-25T08:25:39.997Z</time></trkpt><trkpt lat="43.1971944938113" lon="11.443974876897087"><ele>158.0</ele><time>2026-04-25T08:25:41Z</time></trkpt><trkpt lat="43.19704792503205" lon="11.444047061886804"><ele>158.0</ele><time>2026-04-25T08:25:42Z</time></trkpt><trkpt lat="43.19690343104084" lon="11.444124383503274"><ele>158.0</ele><time>2026-04-25T08:25:43Z</time></trkpt><trkpt lat="43.196765510352314" lon="11.444199317792146"><ele>158.0</ele><time>2026-04-25T08:25:44Z</time></trkpt><trkpt lat="43.19663028235508" lon="11.44427600386135"><ele>158.0</ele><time>2026-04-25T08:25:45Z</time></trkpt><trkpt lat="43.19650281562513" lon="11.444364134849602"><ele>158.0</ele><time>2026-04-25T08:25:46Z</time></trkpt><trkpt lat="43.19638035963948" lon="11.44446396023988"><ele>158.0</ele><time>2026-04-25T08:25:47Z</time></trkpt><trkpt lat="43.196268467856065" lon="11.444580653456887"><ele>158.75</ele><time>2026-04-25T08:25:48Z</time></trkpt><trkpt lat="43.1961697787575" lon="11.444712902055556"><ele>159.5</ele><time>2026-04-25T08:25:49Z</time></trkpt><trkpt lat="43.19607972414558" lon="11.444854185409842"><ele>160.25</ele><time>2026-04-25T08:25:50Z</time></trkpt><trkpt lat="43.195997028657736" lon="11.445012174604027"><ele>161.0</ele><time>2026-04-25T08:25:51Z</time></trkpt><trkpt lat="43.195922572542884" lon="11.445182455291294"><ele>161.0</ele><time>2026-04-25T08:25:52Z</time></trkpt><trkpt lat="43.19585420512687" lon="11.44535941792654"><ele>161.0</ele><time>2026-04-25T08:25:53Z</time></trkpt><trkpt lat="43.195790962992504" lon="11.445540191762435"><ele>161.0</ele><time>2026-04-25T08:25:54Z</time></trkpt><trkpt lat="43.19573846706627" lon="11.445728996215301"><ele>161.0</ele><time>2026-04-25T08:25:55Z</time></trkpt><trkpt lat="43.19569887037778" lon="11.445926317611718"><ele>163.66666666666666</ele><time>2026-04-25T08:25:56Z</time></trkpt><trkpt lat="43.195660085479695" lon="11.44612453206261"><ele>166.33333333333334</ele><time>2026-04-25T08:25:57Z</time></trkpt><trkpt lat="43.195613949491275" lon="11.446326262551828"><ele>169.0</ele><time>2026-04-25T08:25:58Z</time></trkpt><trkpt lat="43.19557117533029" lon="11.446536391267095"><ele>169.0</ele><time>2026-04-25T08:25:59Z</time></trkpt><trkpt lat="43.19553225022226" lon="11.446749983599279"><ele>169.0</ele><time>2026-04-25T08:26:00Z</time></trkpt><trkpt lat="43.19548691128137" lon="11.446964388191308"><ele>169.0</ele><time>2026-04-25T08:26:01Z</time></trkpt><trkpt lat="43.19543650604382" lon="11.44718118300029"><ele>168.0</ele><time>2026-04-25T08:26:02Z</time></trkpt><trkpt lat="43.195390991409724" lon="11.447390242654611"><ele>167.0</ele><time>2026-04-25T08:26:03Z</time></trkpt><trkpt lat="43.19534671323144" lon="11.447587801338889"><ele>166.0</ele><time>2026-04-25T08:26:04Z</time></trkpt><trkpt lat="43.19530498206873" lon="11.447776619021163"><ele>164.75</ele><time>2026-04-25T08:26:05Z</time></trkpt><trkpt lat="43.19526564342888" lon="11.44796415909041"><ele>163.5</ele><time>2026-04-25T08:26:06Z</time></trkpt><trkpt lat="43.19521787793788" lon="11.448151760158972"><ele>162.25</ele><time>2026-04-25T08:26:07Z</time></trkpt><trkpt lat="43.19515975002059" lon="11.44833301077309"><ele>161.0</ele><time>2026-04-25T08:26:08Z</time></trkpt><trkpt lat="43.19509326854225" lon="11.448512864872198"><ele>161.0</ele><time>2026-04-25T08:26:09Z</time></trkpt><trkpt lat="43.19501397332107" lon="11.448693895161211"><ele>161.0</ele><time>2026-04-25T08:26:10Z</time></trkpt><trkpt lat="43.194926919148685" lon="11.448880529789951"><ele>161.0</ele><time>2026-04-25T08:26:11Z</time></trkpt><trkpt lat="43.19483584272591" lon="11.449060546817682"><ele>160.66666666666666</ele><time>2026-04-25T08:26:11.999Z</time></trkpt><trkpt lat="43.19472444885081" lon="11.44923968111098"><ele>160.33333333333334</ele><time>2026-04-25T08:26:12.999Z</time></trkpt><trkpt lat="43.19459923024786" lon="11.449433325979706"><ele>160.0</ele><time>2026-04-25T08:26:13.999Z</time></trkpt><trkpt lat="43.19446725442828" lon="11.449657989400405"><ele>160.0</ele><time>2026-04-25T08:26:14.999Z</time></trkpt><trkpt lat="43.194322373977826" lon="11.449904621006118"><ele>160.0</ele><time>2026-04-25T08:26:15.999Z</time></trkpt><trkpt lat="43.1941687636019" lon="11.450169063416043"><ele>160.0</ele><time>2026-04-25T08:26:16.999Z</time></trkpt><trkpt lat="43.1940163380141" lon="11.45043470243939"><ele>160.0</ele><time>2026-04-25T08:26:17.999Z</time></trkpt><trkpt lat="43.19386153465411" lon="11.450701209122027"><ele>159.0</ele><time>2026-04-25T08:26:18.999Z</time></trkpt><trkpt lat="43.19370003726855" lon="11.450983716791955"><ele>158.0</ele><time>2026-04-25T08:26:19.999Z</time></trkpt><trkpt lat="43.19354665609481" lon="11.451241039119996"><ele>156.66666666666666</ele><time>2026-04-25T08:26:20.999Z</time></trkpt><trkpt lat="43.19340255537788" lon="11.451483445019663"><ele>155.33333333333334</ele><time>2026-04-25T08:26:21.999Z</time></trkpt><trkpt lat="43.19326745740326" lon="11.45171576310439"><ele>154.0</ele><time>2026-04-25T08:26:22.999Z</time></trkpt><trkpt lat="43.19313273214461" lon="11.45193929558599"><ele>157.66666666666669</ele><time>2026-04-25T08:26:23.999Z</time></trkpt><trkpt lat="43.193008827270084" lon="11.452151859661361"><ele>161.33333333333334</ele><time>2026-04-25T08:26:24.999Z</time></trkpt><trkpt lat="43.192896330114316" lon="11.452349895573391"><ele>165.0</ele><time>2026-04-25T08:26:25.999Z</time></trkpt><trkpt lat="43.19279397541371" lon="11.45252404334822"><ele>165.0</ele><time>2026-04-25T08:26:26.999Z</time></trkpt><trkpt lat="43.19271017336447" lon="11.452682738796431"><ele>165.0</ele><time>2026-04-25T08:26:27.999Z</time></trkpt><trkpt lat="43.192657837376714" lon="11.45284205330474"><ele>165.0</ele><time>2026-04-25T08:26:28.999Z</time></trkpt><trkpt lat="43.19264830965386" lon="11.453011990855224"><ele>165.0</ele><time>2026-04-25T08:26:29.999Z</time></trkpt><trkpt lat="43.19268030742358" lon="11.453179597274808"><ele>165.5</ele><time>2026-04-25T08:26:30.999Z</time></trkpt><trkpt lat="43.19275717234993" lon="11.453333490098176"><ele>166.0</ele><time>2026-04-25T08:26:31.999Z</time></trkpt><trkpt lat="43.19285881303031" lon="11.453491910849003"><ele>166.5</ele><time>2026-04-25T08:26:32.999Z</time></trkpt><trkpt lat="43.19294787093085" lon="11.453671361566398"><ele>167.0</ele><time>2026-04-25T08:26:33.999Z</time></trkpt><trkpt lat="43.193016254474124" lon="11.453879304352219"><ele>167.33333333333331</ele><time>2026-04-25T08:26:34.999Z</time></trkpt><trkpt lat="43.19306117023377" lon="11.45410513767369"><ele>167.66666666666666</ele><time>2026-04-25T08:26:35.999Z</time></trkpt><trkpt lat="43.19309443007695" lon="11.454312838586747"><ele>168.0</ele><time>2026-04-25T08:26:36.999Z</time></trkpt><trkpt lat="43.193109547321825" lon="11.45448404483437"><ele>167.5</ele><time>2026-04-25T08:26:37.999Z</time></trkpt><trkpt lat="43.193101660003656" lon="11.454630667874051"><ele>167.0</ele><time>2026-04-25T08:26:38.999Z</time></trkpt><trkpt lat="43.19305510297802" lon="11.45475903382466"><ele>166.5</ele><time>2026-04-25T08:26:39.999Z</time></trkpt><trkpt lat="43.1929615444289" lon="11.454871205623832"><ele>166.0</ele><time>2026-04-25T08:26:40.999Z</time></trkpt><trkpt lat="43.192847026601484" lon="11.454964832616833"><ele>166.0</ele><time>2026-04-25T08:26:41.999Z</time></trkpt><trkpt lat="43.19272338981804" lon="11.455002866450894"><ele>166.0</ele><time>2026-04-25T08:26:42.999Z</time></trkpt><trkpt lat="43.192597278515144" lon="11.455017018161668"><ele>166.0</ele><time>2026-04-25T08:26:43.999Z</time></trkpt><trkpt lat="43.19245953342335" lon="11.454972805158755"><ele>166.0</ele><time>2026-04-25T08:26:44.999Z</time></trkpt><trkpt lat="43.192323478153895" lon="11.454918360364935"><ele>166.0</ele><time>2026-04-25T08:26:45.999Z</time></trkpt><trkpt lat="43.192206711019864" lon="11.454856625375573"><ele>166.0</ele><time>2026-04-25T08:26:46.999Z</time></trkpt><trkpt lat="43.192100384498545" lon="11.454764955580115"><ele>166.0</ele><time>2026-04-25T08:26:47.999Z</time></trkpt><trkpt lat="43.192011811464894" lon="11.4546174530857"><ele>166.0</ele><time>2026-04-25T08:26:48.999Z</time></trkpt><trkpt lat="43.19193408496359" lon="11.454434504646725"><ele>166.0</ele><time>2026-04-25T08:26:49.999Z</time></trkpt><trkpt lat="43.191852213639145" lon="11.454228316029269"><ele>166.0</ele><time>2026-04-25T08:26:50.999Z</time></trkpt><trkpt lat="43.19176676445253" lon="11.454009037626339"><ele>166.0</ele><time>2026-04-25T08:26:51.999Z</time></trkpt><trkpt lat="43.191690824244056" lon="11.453814161148529"><ele>167.25</ele><time>2026-04-25T08:26:52.999Z</time></trkpt><trkpt lat="43.19162046320676" lon="11.453637248819255"><ele>168.5</ele><time>2026-04-25T08:26:53.999Z</time></trkpt><trkpt lat="43.191546069716324" lon="11.453488680367762"><ele>169.75</ele><time>2026-04-25T08:26:54.999Z</time></trkpt><trkpt lat="43.191449334550526" lon="11.453394707736297"><ele>171.0</ele><time>2026-04-25T08:26:55.999Z</time></trkpt><trkpt lat="43.19133744451546" lon="11.45334478940949"><ele>171.0</ele><time>2026-04-25T08:26:56.999Z</time></trkpt><trkpt lat="43.19119921434666" lon="11.453325622666156"><ele>171.0</ele><time>2026-04-25T08:26:57.998Z</time></trkpt><trkpt lat="43.19104277378863" lon="11.453342788964562"><ele>171.0</ele><time>2026-04-25T08:26:58.998Z</time></trkpt><trkpt lat="43.19086961725558" lon="11.453374066836856"><ele>171.0</ele><time>2026-04-25T08:26:59.998Z</time></trkpt><trkpt lat="43.19070003588369" lon="11.453413371834706"><ele>171.0</ele><time>2026-04-25T08:27:00.998Z</time></trkpt><trkpt lat="43.190536746732896" lon="11.453487350352306"><ele>171.0</ele><time>2026-04-25T08:27:01.998Z</time></trkpt><trkpt lat="43.1903859953889" lon="11.453573958614223"><ele>171.75</ele><time>2026-04-25T08:27:02.998Z</time></trkpt><trkpt lat="43.19024992424128" lon="11.453661566455482"><ele>172.5</ele><time>2026-04-25T08:27:03.998Z</time></trkpt><trkpt lat="43.190122463106476" lon="11.45374852901449"><ele>173.25</ele><time>2026-04-25T08:27:04.998Z</time></trkpt><trkpt lat="43.18999268052575" lon="11.453832871671315"><ele>174.0</ele><time>2026-04-25T08:27:05.998Z</time></trkpt><trkpt lat="43.18986692727569" lon="11.453909421901006"><ele>174.75</ele><time>2026-04-25T08:27:06.998Z</time></trkpt><trkpt lat="43.18974061554903" lon="11.453979903833835"><ele>175.5</ele><time>2026-04-25T08:27:07.998Z</time></trkpt><trkpt lat="43.18961530757196" lon="11.454028302739077"><ele>176.25</ele><time>2026-04-25T08:27:08.998Z</time></trkpt><trkpt lat="43.18948657362744" lon="11.454018261132891"><ele>177.0</ele><time>2026-04-25T08:27:09.998Z</time></trkpt><trkpt lat="43.18935493554385" lon="11.454017269909318"><ele>177.0</ele><time>2026-04-25T08:27:10.998Z</time></trkpt><trkpt lat="43.18921847446482" lon="11.454013857110557"><ele>177.0</ele><time>2026-04-25T08:27:11.998Z</time></trkpt><trkpt lat="43.18908097553952" lon="11.454033039101558"><ele>177.0</ele><time>2026-04-25T08:27:12.998Z</time></trkpt><trkpt lat="43.188947317841105" lon="11.45400709139731"><ele>177.0</ele><time>2026-04-25T08:27:13.998Z</time></trkpt><trkpt lat="43.18881313916039" lon="11.454003744537387"><ele>178.0</ele><time>2026-04-25T08:27:14.998Z</time></trkpt><trkpt lat="43.18868054995343" lon="11.454000437326185"><ele>179.0</ele><time>2026-04-25T08:27:15.998Z</time></trkpt><trkpt lat="43.1885545175576" lon="11.453999638777766"><ele>180.0</ele><time>2026-04-25T08:27:16.998Z</time></trkpt><trkpt lat="43.188430319599156" lon="11.45399900362212"><ele>181.0</ele><time>2026-04-25T08:27:17.998Z</time></trkpt><trkpt lat="43.18831683666537" lon="11.45402059531936"><ele>181.0</ele><time>2026-04-25T08:27:18.998Z</time></trkpt><trkpt lat="43.18821424076747" lon="11.454030672180526"><ele>181.0</ele><time>2026-04-25T08:27:19.998Z</time></trkpt><trkpt lat="43.18810461528317" lon="11.454065491153784"><ele>181.0</ele><time>2026-04-25T08:27:20.998Z</time></trkpt><trkpt lat="43.18796542757774" lon="11.454110198690195"><ele>181.0</ele><time>2026-04-25T08:27:21.998Z</time></trkpt><trkpt lat="43.18781021011111" lon="11.454197113402701"><ele>180.33333333333334</ele><time>2026-04-25T08:27:22.998Z</time></trkpt><trkpt lat="43.187640286005205" lon="11.454294443125551"><ele>179.66666666666666</ele><time>2026-04-25T08:27:23.998Z</time></trkpt><trkpt lat="43.18744432906026" lon="11.45440668413254"><ele>179.0</ele><time>2026-04-25T08:27:24.998Z</time></trkpt><trkpt lat="43.18723961949762" lon="11.454523248925558"><ele>176.0</ele><time>2026-04-25T08:27:25.998Z</time></trkpt><trkpt lat="43.1870432853998" lon="11.45465971990204"><ele>173.0</ele><time>2026-04-25T08:27:26.998Z</time></trkpt><trkpt lat="43.18683547307331" lon="11.454754411845803"><ele>170.0</ele><time>2026-04-25T08:27:27.998Z</time></trkpt><trkpt lat="43.18663350896741" lon="11.454873743805921"><ele>169.66666666666666</ele><time>2026-04-25T08:27:28.998Z</time></trkpt><trkpt lat="43.186432933961385" lon="11.454999178119245"><ele>169.33333333333334</ele><time>2026-04-25T08:27:29.998Z</time></trkpt><trkpt lat="43.1862317247533" lon="11.455134240189611"><ele>169.0</ele><time>2026-04-25T08:27:30.998Z</time></trkpt><trkpt lat="43.186034614201965" lon="11.455295607474428"><ele>167.5</ele><time>2026-04-25T08:27:31.998Z</time></trkpt><trkpt lat="43.1858446455193" lon="11.455477969378284"><ele>166.0</ele><time>2026-04-25T08:27:32.998Z</time></trkpt><trkpt lat="43.18566152704122" lon="11.455677695027433"><ele>166.0</ele><time>2026-04-25T08:27:33.998Z</time></trkpt><trkpt lat="43.185485497874346" lon="11.455898455937353"><ele>166.0</ele><time>2026-04-25T08:27:34.998Z</time></trkpt><trkpt lat="43.185312918321195" lon="11.456120890248968"><ele>164.5</ele><time>2026-04-25T08:27:35.998Z</time></trkpt><trkpt lat="43.185137348569526" lon="11.456331867614097"><ele>163.0</ele><time>2026-04-25T08:27:36.998Z</time></trkpt><trkpt lat="43.18496618245648" lon="11.456541133049454"><ele>163.0</ele><time>2026-04-25T08:27:37.998Z</time></trkpt><trkpt lat="43.184802179602315" lon="11.456750927616794"><ele>163.0</ele><time>2026-04-25T08:27:38.998Z</time></trkpt><trkpt lat="43.18463923334408" lon="11.456956323640163"><ele>163.0</ele><time>2026-04-25T08:27:39.998Z</time></trkpt><trkpt lat="43.18447551640593" lon="11.457156103512908"><ele>163.0</ele><time>2026-04-25T08:27:40.998Z</time></trkpt><trkpt lat="43.184313022719685" lon="11.457356910699934"><ele>163.0</ele><time>2026-04-25T08:27:41.998Z</time></trkpt><trkpt lat="43.18414848493749" lon="11.457554664986441"><ele>163.0</ele><time>2026-04-25T08:27:42.998Z</time></trkpt><trkpt lat="43.18398006720108" lon="11.457745733056765"><ele>163.0</ele><time>2026-04-25T08:27:43.998Z</time></trkpt><trkpt lat="43.183809331519576" lon="11.457932337368652"><ele>163.0</ele><time>2026-04-25T08:27:44.997Z</time></trkpt><trkpt lat="43.18363985660345" lon="11.45811681406661"><ele>163.0</ele><time>2026-04-25T08:27:45.997Z</time></trkpt><trkpt lat="43.183469427632595" lon="11.458298629856651"><ele>163.0</ele><time>2026-04-25T08:27:47Z</time></trkpt><trkpt lat="43.18329594586952" lon="11.45847698702952"><ele>163.0</ele><time>2026-04-25T08:27:48Z</time></trkpt><trkpt lat="43.183121203984825" lon="11.458652105490053"><ele>163.0</ele><time>2026-04-25T08:27:49Z</time></trkpt><trkpt lat="43.182945934297074" lon="11.458824615271892"><ele>162.0</ele><time>2026-04-25T08:27:50Z</time></trkpt><trkpt lat="43.18277215267115" lon="11.459000638576212"><ele>161.0</ele><time>2026-04-25T08:27:51Z</time></trkpt><trkpt lat="43.182596918063524" lon="11.459177107678709"><ele>160.0</ele><time>2026-04-25T08:27:52Z</time></trkpt><trkpt lat="43.18241784028154" lon="11.459354538501536"><ele>160.0</ele><time>2026-04-25T08:27:53Z</time></trkpt><trkpt lat="43.18223672466596" lon="11.459534154119051"><ele>160.0</ele><time>2026-04-25T08:27:54Z</time></trkpt><trkpt lat="43.18205709917192" lon="11.459713431751315"><ele>160.0</ele><time>2026-04-25T08:27:55Z</time></trkpt><trkpt lat="43.181878141079764" lon="11.459889862207811"><ele>160.0</ele><time>2026-04-25T08:27:56Z</time></trkpt><trkpt lat="43.181700201482414" lon="11.460063124342414"><ele>160.0</ele><time>2026-04-25T08:27:57Z</time></trkpt><trkpt lat="43.181525923072485" lon="11.460239264465168"><ele>160.0</ele><time>2026-04-25T08:27:58Z</time></trkpt><trkpt lat="43.18135683897189" lon="11.460413628561627"><ele>160.66666666666669</ele><time>2026-04-25T08:27:59Z</time></trkpt><trkpt lat="43.18118864987907" lon="11.460584042090726"><ele>161.33333333333334</ele><time>2026-04-25T08:28:00Z</time></trkpt><trkpt lat="43.181024103200954" lon="11.46075603350356"><ele>162.0</ele><time>2026-04-25T08:28:01Z</time></trkpt><trkpt lat="43.18086358890741" lon="11.460929946649497"><ele>162.0</ele><time>2026-04-25T08:28:02Z</time></trkpt><trkpt lat="43.18070919729133" lon="11.461104432357923"><ele>162.0</ele><time>2026-04-25T08:28:03Z</time></trkpt><trkpt lat="43.18056534344023" lon="11.461294015208818"><ele>162.0</ele><time>2026-04-25T08:28:04Z</time></trkpt><trkpt lat="43.18044157242629" lon="11.461503921697513"><ele>160.66666666666666</ele><time>2026-04-25T08:28:05Z</time></trkpt><trkpt lat="43.18034368641653" lon="11.461719251029578"><ele>159.33333333333331</ele><time>2026-04-25T08:28:06Z</time></trkpt><trkpt lat="43.18026735783357" lon="11.461930711711346"><ele>158.0</ele><time>2026-04-25T08:28:07Z</time></trkpt><trkpt lat="43.18020068464049" lon="11.462127371901586"><ele>158.0</ele><time>2026-04-25T08:28:08Z</time></trkpt><trkpt lat="43.18012607734716" lon="11.462300443050061"><ele>158.0</ele><time>2026-04-25T08:28:09Z</time></trkpt><trkpt lat="43.180030930308206" lon="11.462461971740927"><ele>158.0</ele><time>2026-04-25T08:28:10Z</time></trkpt><trkpt lat="43.17990963644549" lon="11.462604439758488"><ele>157.66666666666666</ele><time>2026-04-25T08:28:11Z</time></trkpt><trkpt lat="43.179767517140405" lon="11.462711745738753"><ele>157.33333333333334</ele><time>2026-04-25T08:28:12Z</time></trkpt><trkpt lat="43.17960942138804" lon="11.462774191604602"><ele>157.0</ele><time>2026-04-25T08:28:13Z</time></trkpt><trkpt lat="43.179438263732244" lon="11.462762941745183"><ele>157.0</ele><time>2026-04-25T08:28:14Z</time></trkpt><trkpt lat="43.17925591931722" lon="11.462738499974861"><ele>157.0</ele><time>2026-04-25T08:28:15Z</time></trkpt><trkpt lat="43.17906353936003" lon="11.46267809565108"><ele>157.0</ele><time>2026-04-25T08:28:16Z</time></trkpt><trkpt lat="43.17887470160007" lon="11.462611535912645"><ele>155.66666666666669</ele><time>2026-04-25T08:28:17Z</time></trkpt><trkpt lat="43.17870722027039" lon="11.46255114432183"><ele>154.33333333333334</ele><time>2026-04-25T08:28:18Z</time></trkpt><trkpt lat="43.178557912007975" lon="11.462496015896715"><ele>153.0</ele><time>2026-04-25T08:28:19Z</time></trkpt><trkpt lat="43.17841332564134" lon="11.462445800603163"><ele>153.0</ele><time>2026-04-25T08:28:20Z</time></trkpt><trkpt lat="43.178261278942685" lon="11.46241991110858"><ele>153.0</ele><time>2026-04-25T08:28:21Z</time></trkpt><trkpt lat="43.17810850552631" lon="11.462403676850228"><ele>153.0</ele><time>2026-04-25T08:28:22Z</time></trkpt><trkpt lat="43.17794376000209" lon="11.462442064961547"><ele>153.33333333333334</ele><time>2026-04-25T08:28:23Z</time></trkpt><trkpt lat="43.17777266467302" lon="11.462511838513269"><ele>153.66666666666669</ele><time>2026-04-25T08:28:24Z</time></trkpt><trkpt lat="43.17760514123969" lon="11.462586298427833"><ele>154.0</ele><time>2026-04-25T08:28:25Z</time></trkpt><trkpt lat="43.177430488920734" lon="11.46265366638529"><ele>153.66666666666669</ele><time>2026-04-25T08:28:25.999Z</time></trkpt><trkpt lat="43.17724999172075" lon="11.462725441759934"><ele>153.33333333333334</ele><time>2026-04-25T08:28:26.999Z</time></trkpt><trkpt lat="43.17706301193418" lon="11.462798703971988"><ele>153.0</ele><time>2026-04-25T08:28:27.999Z</time></trkpt><trkpt lat="43.17687406231292" lon="11.46287105954748"><ele>152.66666666666666</ele><time>2026-04-25T08:28:28.999Z</time></trkpt><trkpt lat="43.17668465022997" lon="11.462947674821287"><ele>152.33333333333331</ele><time>2026-04-25T08:28:29.999Z</time></trkpt><trkpt lat="43.17649386747072" lon="11.463024622064186"><ele>152.0</ele><time>2026-04-25T08:28:30.999Z</time></trkpt><trkpt lat="43.17630170597826" lon="11.463098536737148"><ele>152.0</ele><time>2026-04-25T08:28:31.999Z</time></trkpt><trkpt lat="43.17611188854499" lon="11.463173257626337"><ele>152.0</ele><time>2026-04-25T08:28:32.999Z</time></trkpt><trkpt lat="43.17592105070268" lon="11.463253366326327"><ele>152.0</ele><time>2026-04-25T08:28:33.999Z</time></trkpt><trkpt lat="43.1757303893949" lon="11.463333096345067"><ele>151.33333333333331</ele><time>2026-04-25T08:28:34.999Z</time></trkpt><trkpt lat="43.17553777842419" lon="11.463406691801266"><ele>150.66666666666666</ele><time>2026-04-25T08:28:35.999Z</time></trkpt><trkpt lat="43.17534495632296" lon="11.463488240787806"><ele>150.0</ele><time>2026-04-25T08:28:36.999Z</time></trkpt><trkpt lat="43.17515156059854" lon="11.463566648266154"><ele>150.0</ele><time>2026-04-25T08:28:37.999Z</time></trkpt><trkpt lat="43.174956673774005" lon="11.4636395934814"><ele>150.0</ele><time>2026-04-25T08:28:38.999Z</time></trkpt><trkpt lat="43.1747634969731" lon="11.4637153559674"><ele>150.0</ele><time>2026-04-25T08:28:39.999Z</time></trkpt><trkpt lat="43.17457149033628" lon="11.46379655034749"><ele>150.0</ele><time>2026-04-25T08:28:40.999Z</time></trkpt><trkpt lat="43.17437748171084" lon="11.463870936423476"><ele>150.0</ele><time>2026-04-25T08:28:41.999Z</time></trkpt><trkpt lat="43.17418276998643" lon="11.463944661406074"><ele>150.0</ele><time>2026-04-25T08:28:42.999Z</time></trkpt><trkpt lat="43.173988678105864" lon="11.464023591991667"><ele>150.0</ele><time>2026-04-25T08:28:43.999Z</time></trkpt><trkpt lat="43.17379822951054" lon="11.464100035689784"><ele>150.0</ele><time>2026-04-25T08:28:44.999Z</time></trkpt><trkpt lat="43.17360792316409" lon="11.46416939521892"><ele>150.0</ele><time>2026-04-25T08:28:45.999Z</time></trkpt><trkpt lat="43.17341907660605" lon="11.464242656427519"><ele>150.0</ele><time>2026-04-25T08:28:46.999Z</time></trkpt><trkpt lat="43.1732318087013" lon="11.464318708372266"><ele>150.0</ele><time>2026-04-25T08:28:47.999Z</time></trkpt><trkpt lat="43.17304469948624" lon="11.464394600278464"><ele>150.0</ele><time>2026-04-25T08:28:48.999Z</time></trkpt><trkpt lat="43.172860435752966" lon="11.46447028136433"><ele>150.0</ele><time>2026-04-25T08:28:49.999Z</time></trkpt><trkpt lat="43.172681083732186" lon="11.464543654604931"><ele>150.0</ele><time>2026-04-25T08:28:50.999Z</time></trkpt><trkpt lat="43.17251265672146" lon="11.464610504452983"><ele>150.0</ele><time>2026-04-25T08:28:51.999Z</time></trkpt><trkpt lat="43.17235315410714" lon="11.46467426276347"><ele>149.5</ele><time>2026-04-25T08:28:52.999Z</time></trkpt><trkpt lat="43.17220411668419" lon="11.464733996428638"><ele>149.0</ele><time>2026-04-25T08:28:53.999Z</time></trkpt><trkpt lat="43.17206299949779" lon="11.464789589972034"><ele>148.5</ele><time>2026-04-25T08:28:54.999Z</time></trkpt><trkpt lat="43.17193093071189" lon="11.464841855004567"><ele>148.0</ele><time>2026-04-25T08:28:55.999Z</time></trkpt><trkpt lat="43.17180276296373" lon="11.464892899603026"><ele>148.0</ele><time>2026-04-25T08:28:56.999Z</time></trkpt><trkpt lat="43.17167850716137" lon="11.464941110067707"><ele>148.0</ele><time>2026-04-25T08:28:57.999Z</time></trkpt><trkpt lat="43.17155915743561" lon="11.464990098940158"><ele>148.0</ele><time>2026-04-25T08:28:58.999Z</time></trkpt><trkpt lat="43.171441798546425" lon="11.46503761866724"><ele>148.0</ele><time>2026-04-25T08:28:59.999Z</time></trkpt><trkpt lat="43.17131813503711" lon="11.465084530243669"><ele>148.25</ele><time>2026-04-25T08:29:00.999Z</time></trkpt><trkpt lat="43.17118883489609" lon="11.465136809173229"><ele>148.5</ele><time>2026-04-25T08:29:01.999Z</time></trkpt><trkpt lat="43.17105431098656" lon="11.465191665119821"><ele>148.75</ele><time>2026-04-25T08:29:02.999Z</time></trkpt><trkpt lat="43.170915031938684" lon="11.465245862344146"><ele>149.0</ele><time>2026-04-25T08:29:03.999Z</time></trkpt><trkpt lat="43.17077427032762" lon="11.46529779342077"><ele>149.0</ele><time>2026-04-25T08:29:04.999Z</time></trkpt><trkpt lat="43.170631255492744" lon="11.465353381432994"><ele>149.0</ele><time>2026-04-25T08:29:05.999Z</time></trkpt><trkpt lat="43.170487515197706" lon="11.465409938877691"><ele>149.0</ele><time>2026-04-25T08:29:06.999Z</time></trkpt><trkpt lat="43.17034262508765" lon="11.465470630432934"><ele>149.0</ele><time>2026-04-25T08:29:07.999Z</time></trkpt><trkpt lat="43.17020503823927" lon="11.46552949571394"><ele>149.0</ele><time>2026-04-25T08:29:08.999Z</time></trkpt><trkpt lat="43.170074702953876" lon="11.465577486216997"><ele>149.0</ele><time>2026-04-25T08:29:09.999Z</time></trkpt><trkpt lat="43.16995333723032" lon="11.465623222318156"><ele>149.0</ele><time>2026-04-25T08:29:10.999Z</time></trkpt><trkpt lat="43.16983767964025" lon="11.465668222898264"><ele>149.25</ele><time>2026-04-25T08:29:11.999Z</time></trkpt><trkpt lat="43.16971633733233" lon="11.465700067628287"><ele>149.5</ele><time>2026-04-25T08:29:12.998Z</time></trkpt><trkpt lat="43.169594507372274" lon="11.465714186409627"><ele>149.75</ele><time>2026-04-25T08:29:13.998Z</time></trkpt><trkpt lat="43.169475856917394" lon="11.465723450859834"><ele>150.0</ele><time>2026-04-25T08:29:14.998Z</time></trkpt><trkpt lat="43.16935640244609" lon="11.46573195758636"><ele>150.0</ele><time>2026-04-25T08:29:15.998Z</time></trkpt><trkpt lat="43.16923494011132" lon="11.46573452097828"><ele>150.0</ele><time>2026-04-25T08:29:16.998Z</time></trkpt><trkpt lat="43.16911692247531" lon="11.465727108532024"><ele>150.0</ele><time>2026-04-25T08:29:17.998Z</time></trkpt><trkpt lat="43.16900339150761" lon="11.465712335789974"><ele>150.0</ele><time>2026-04-25T08:29:18.998Z</time></trkpt><trkpt lat="43.16889155592466" lon="11.465691388983032"><ele>149.8</ele><time>2026-04-25T08:29:19.998Z</time></trkpt><trkpt lat="43.168779864455615" lon="11.46566594690101"><ele>149.6</ele><time>2026-04-25T08:29:20.998Z</time></trkpt><trkpt lat="43.16867014164559" lon="11.465634413674703"><ele>149.4</ele><time>2026-04-25T08:29:21.998Z</time></trkpt><trkpt lat="43.16856945723698" lon="11.465572935936938"><ele>149.2</ele><time>2026-04-25T08:29:22.998Z</time></trkpt><trkpt lat="43.16846439712148" lon="11.465546826673132"><ele>149.0</ele><time>2026-04-25T08:29:23.998Z</time></trkpt><trkpt lat="43.16837156790041" lon="11.465497522557568"><ele>149.0</ele><time>2026-04-25T08:29:24.998Z</time></trkpt><trkpt lat="43.16828440767824" lon="11.465447893345619"><ele>149.0</ele><time>2026-04-25T08:29:25.998Z</time></trkpt><trkpt lat="43.168196158248556" lon="11.465395896194604"><ele>149.0</ele><time>2026-04-25T08:29:26.998Z</time></trkpt><trkpt lat="43.16810740036027" lon="11.465340953238462"><ele>149.0</ele><time>2026-04-25T08:29:27.998Z</time></trkpt><trkpt lat="43.16802126787052" lon="11.465279971094368"><ele>149.0</ele><time>2026-04-25T08:29:28.998Z</time></trkpt><trkpt lat="43.1679314708435" lon="11.465225479933618"><ele>149.0</ele><time>2026-04-25T08:29:29.998Z</time></trkpt><trkpt lat="43.167839211078665" lon="11.465173022291623"><ele>149.0</ele><time>2026-04-25T08:29:30.998Z</time></trkpt><trkpt lat="43.167742928258356" lon="11.465129646943515"><ele>149.0</ele><time>2026-04-25T08:29:31.998Z</time></trkpt><trkpt lat="43.16764934413562" lon="11.465092142031395"><ele>149.0</ele><time>2026-04-25T08:29:32.998Z</time></trkpt><trkpt lat="43.16755574328462" lon="11.465067225760341"><ele>149.0</ele><time>2026-04-25T08:29:33.998Z</time></trkpt><trkpt lat="43.16746088369023" lon="11.465048421314048"><ele>149.0</ele><time>2026-04-25T08:29:34.998Z</time></trkpt><trkpt lat="43.167369613565604" lon="11.46503924466337"><ele>149.0</ele><time>2026-04-25T08:29:35.998Z</time></trkpt><trkpt lat="43.16728060517178" lon="11.465037161538119"><ele>149.0</ele><time>2026-04-25T08:29:36.998Z</time></trkpt><trkpt lat="43.16719420000997" lon="11.4650368937207"><ele>149.0</ele><time>2026-04-25T08:29:37.998Z</time></trkpt><trkpt lat="43.16710859218389" lon="11.465046528089404"><ele>149.0</ele><time>2026-04-25T08:29:38.998Z</time></trkpt><trkpt lat="43.16702971744779" lon="11.465063875380332"><ele>149.0</ele><time>2026-04-25T08:29:39.998Z</time></trkpt><trkpt lat="43.16695303885644" lon="11.465085470494293"><ele>148.83333333333331</ele><time>2026-04-25T08:29:40.998Z</time></trkpt><trkpt lat="43.16687393768339" lon="11.465113529583235"><ele>148.66666666666666</ele><time>2026-04-25T08:29:41.998Z</time></trkpt><trkpt lat="43.166795458734505" lon="11.465149832314157"><ele>148.5</ele><time>2026-04-25T08:29:42.998Z</time></trkpt><trkpt lat="43.16671296323666" lon="11.465197193237206"><ele>148.33333333333334</ele><time>2026-04-25T08:29:43.998Z</time></trkpt><trkpt lat="43.16662928723881" lon="11.465258519479807"><ele>148.16666666666669</ele><time>2026-04-25T08:29:44.998Z</time></trkpt><trkpt lat="43.16654738072995" lon="11.465331740257119"><ele>148.0</ele><time>2026-04-25T08:29:45.998Z</time></trkpt><trkpt lat="43.16646804823822" lon="11.465408886515792"><ele>147.20000000000002</ele><time>2026-04-25T08:29:46.998Z</time></trkpt><trkpt lat="43.1663908988995" lon="11.465491221413382"><ele>146.4</ele><time>2026-04-25T08:29:47.998Z</time></trkpt><trkpt lat="43.16631638277336" lon="11.46558063002414"><ele>145.60000000000002</ele><time>2026-04-25T08:29:48.998Z</time></trkpt><trkpt lat="43.16624776455086" lon="11.465676047534478"><ele>144.8</ele><time>2026-04-25T08:29:49.998Z</time></trkpt><trkpt lat="43.166181445348485" lon="11.465766654662334"><ele>144.0</ele><time>2026-04-25T08:29:50.998Z</time></trkpt><trkpt lat="43.16611477057227" lon="11.465853337992401"><ele>144.0</ele><time>2026-04-25T08:29:51.998Z</time></trkpt><trkpt lat="43.166047708923244" lon="11.465939336121664"><ele>144.0</ele><time>2026-04-25T08:29:53Z</time></trkpt><trkpt lat="43.16597929147178" lon="11.466030030385191"><ele>144.0</ele><time>2026-04-25T08:29:54Z</time></trkpt><trkpt lat="43.16590928800089" lon="11.466125202271444"><ele>144.0</ele><time>2026-04-25T08:29:55Z</time></trkpt><trkpt lat="43.165837479737895" lon="11.466222493931344"><ele>144.0</ele><time>2026-04-25T08:29:56Z</time></trkpt><trkpt lat="43.16576224305675" lon="11.466319356197161"><ele>144.8</ele><time>2026-04-25T08:29:57Z</time></trkpt><trkpt lat="43.16568188642256" lon="11.46641410897749"><ele>145.60000000000002</ele><time>2026-04-25T08:29:58Z</time></trkpt><trkpt lat="43.16558470661641" lon="11.4664657949122"><ele>146.4</ele><time>2026-04-25T08:29:59Z</time></trkpt><trkpt lat="43.165493489675704" lon="11.466500467540795"><ele>147.20000000000002</ele><time>2026-04-25T08:30:00Z</time></trkpt><trkpt lat="43.16540870182944" lon="11.46653949271233"><ele>148.0</ele><time>2026-04-25T08:30:01Z</time></trkpt><trkpt lat="43.16533141282885" lon="11.466581951265297"><ele>148.0</ele><time>2026-04-25T08:30:02Z</time></trkpt><trkpt lat="43.1652655385843" lon="11.466625766620014"><ele>148.0</ele><time>2026-04-25T08:30:03Z</time></trkpt><trkpt lat="43.16519440172587" lon="11.466673701575326"><ele>148.0</ele><time>2026-04-25T08:30:04Z</time></trkpt><trkpt lat="43.16511757176453" lon="11.46672870092603"><ele>148.0</ele><time>2026-04-25T08:30:05Z</time></trkpt><trkpt lat="43.16503224680341" lon="11.466786045084445"><ele>148.0</ele><time>2026-04-25T08:30:06Z</time></trkpt><trkpt lat="43.16494161005007" lon="11.46685124638635"><ele>148.0</ele><time>2026-04-25T08:30:07Z</time></trkpt><trkpt lat="43.164845047260066" lon="11.466918162076247"><ele>147.5</ele><time>2026-04-25T08:30:08Z</time></trkpt><trkpt lat="43.16474528505017" lon="11.466986226398072"><ele>147.0</ele><time>2026-04-25T08:30:09Z</time></trkpt><trkpt lat="43.16464392665035" lon="11.467057876224851"><ele>146.5</ele><time>2026-04-25T08:30:10Z</time></trkpt><trkpt lat="43.16454349089402" lon="11.467129387779993"><ele>146.0</ele><time>2026-04-25T08:30:11Z</time></trkpt><trkpt lat="43.164440828656666" lon="11.467198101035141"><ele>146.0</ele><time>2026-04-25T08:30:12Z</time></trkpt><trkpt lat="43.16433754038021" lon="11.467268099964565"><ele>146.0</ele><time>2026-04-25T08:30:13Z</time></trkpt><trkpt lat="43.16423014836698" lon="11.467343511290371"><ele>146.0</ele><time>2026-04-25T08:30:14Z</time></trkpt><trkpt lat="43.16411994311501" lon="11.46741813727321"><ele>146.0</ele><time>2026-04-25T08:30:15Z</time></trkpt><trkpt lat="43.164012637010906" lon="11.467494527302469"><ele>145.6</ele><time>2026-04-25T08:30:16Z</time></trkpt><trkpt lat="43.163903498851326" lon="11.467572393314832"><ele>145.2</ele><time>2026-04-25T08:30:17Z</time></trkpt><trkpt lat="43.16380719368914" lon="11.467642390621046"><ele>144.8</ele><time>2026-04-25T08:30:18Z</time></trkpt><trkpt lat="43.163731603173105" lon="11.467703809541419"><ele>144.4</ele><time>2026-04-25T08:30:19Z</time></trkpt><trkpt lat="43.1636701348051" lon="11.467743329899802"><ele>144.0</ele><time>2026-04-25T08:30:20Z</time></trkpt><trkpt lat="43.16359619690612" lon="11.467795443002016"><ele>144.00000000000003</ele><time>2026-04-25T08:30:22Z</time></trkpt><trkpt lat="43.163535207935546" lon="11.46783842939229"><ele>144.0</ele><time>2026-04-25T08:30:26Z</time></trkpt><trkpt lat="43.16358307756456" lon="11.467898839861522"><ele>144.0</ele><time>2026-04-25T08:34:31.999Z</time></trkpt><trkpt lat="43.163642677584996" lon="11.467868813706456"><ele>144.0</ele><time>2026-04-25T08:34:38.999Z</time></trkpt><trkpt lat="43.16371190177828" lon="11.467840419103041"><ele>144.0</ele><time>2026-04-25T08:34:44.999Z</time></trkpt><trkpt lat="43.16378633297324" lon="11.467855538323779"><ele>144.00000000000003</ele><time>2026-04-25T08:34:51.998Z</time></trkpt><trkpt lat="43.16384440616623" lon="11.467910522803141"><ele>144.0</ele><time>2026-04-25T08:34:57.998Z</time></trkpt><trkpt lat="43.163886250591766" lon="11.467984099659029"><ele>144.00000000000003</ele><time>2026-04-25T08:35:04.998Z</time></trkpt><trkpt lat="43.16385834157152" lon="11.467900034145439"><ele>144.0</ele><time>2026-04-25T08:35:51.997Z</time></trkpt><trkpt lat="43.163807433206614" lon="11.467840822950098"><ele>144.0</ele><time>2026-04-25T08:35:57.997Z</time></trkpt><trkpt lat="43.16373316758593" lon="11.46781007771454"><ele>144.0</ele><time>2026-04-25T08:36:02.997Z</time></trkpt><trkpt lat="43.16367092093178" lon="11.467846254290501"><ele>144.0</ele><time>2026-04-25T08:36:08.997Z</time></trkpt><trkpt lat="43.16361320702039" lon="11.46788766070609"><ele>144.00000000000003</ele><time>2026-04-25T08:36:13.999Z</time></trkpt><trkpt lat="43.163548407606974" lon="11.467884962580442"><ele>144.0</ele><time>2026-04-25T08:41:42.999Z</time></trkpt><trkpt lat="43.16345364301628" lon="11.467899170885842"><ele>144.4</ele><time>2026-04-25T08:41:44.999Z</time></trkpt><trkpt lat="43.16338114651403" lon="11.46794814746641"><ele>144.8</ele><time>2026-04-25T08:41:45.999Z</time></trkpt><trkpt lat="43.1633022216646" lon="11.468005059178678"><ele>145.2</ele><time>2026-04-25T08:41:46.999Z</time></trkpt><trkpt lat="43.16321029404289" lon="11.468065328210026"><ele>145.6</ele><time>2026-04-25T08:41:47.999Z</time></trkpt><trkpt lat="43.16311140559448" lon="11.468124807615363"><ele>146.0</ele><time>2026-04-25T08:41:48.999Z</time></trkpt><trkpt lat="43.16300605410726" lon="11.46818978284521"><ele>146.5</ele><time>2026-04-25T08:41:49.998Z</time></trkpt><trkpt lat="43.16289137656069" lon="11.468263351806739"><ele>147.0</ele><time>2026-04-25T08:41:50.998Z</time></trkpt><trkpt lat="43.162767328410396" lon="11.46832655003859"><ele>147.5</ele><time>2026-04-25T08:41:51.998Z</time></trkpt><trkpt lat="43.16263130112057" lon="11.468367733866476"><ele>148.0</ele><time>2026-04-25T08:41:52.998Z</time></trkpt><trkpt lat="43.162483352395306" lon="11.468388923114524"><ele>149.0</ele><time>2026-04-25T08:41:53.998Z</time></trkpt><trkpt lat="43.162316402037696" lon="11.468413190972013"><ele>150.0</ele><time>2026-04-25T08:41:54.998Z</time></trkpt><trkpt lat="43.162139971752865" lon="11.468445818474043"><ele>151.0</ele><time>2026-04-25T08:41:55.998Z</time></trkpt><trkpt lat="43.16196242520148" lon="11.468482631724802"><ele>151.0</ele><time>2026-04-25T08:41:56.998Z</time></trkpt><trkpt lat="43.16178309850301" lon="11.46852040509144"><ele>151.0</ele><time>2026-04-25T08:41:57.998Z</time></trkpt><trkpt lat="43.161610806090174" lon="11.468554838909357"><ele>151.0</ele><time>2026-04-25T08:41:58.998Z</time></trkpt><trkpt lat="43.16144186575723" lon="11.468585742314916"><ele>150.33333333333334</ele><time>2026-04-25T08:41:59.998Z</time></trkpt><trkpt lat="43.1612811047581" lon="11.468617596517731"><ele>149.66666666666666</ele><time>2026-04-25T08:42:00.998Z</time></trkpt><trkpt lat="43.16112655402278" lon="11.468647306382346"><ele>149.0</ele><time>2026-04-25T08:42:01.998Z</time></trkpt><trkpt lat="43.1609753920312" lon="11.468685235243628"><ele>149.0</ele><time>2026-04-25T08:42:02.998Z</time></trkpt><trkpt lat="43.16082643213581" lon="11.468740825166774"><ele>149.0</ele><time>2026-04-25T08:42:03.998Z</time></trkpt><trkpt lat="43.1606772789707" lon="11.468815676405361"><ele>149.0</ele><time>2026-04-25T08:42:04.998Z</time></trkpt><trkpt lat="43.16053345768983" lon="11.46891543618511"><ele>148.0</ele><time>2026-04-25T08:42:05.998Z</time></trkpt><trkpt lat="43.160389068778166" lon="11.469037094241466"><ele>147.0</ele><time>2026-04-25T08:42:06.998Z</time></trkpt><trkpt lat="43.16024445619746" lon="11.469172312918278"><ele>146.0</ele><time>2026-04-25T08:42:07.998Z</time></trkpt><trkpt lat="43.160098830308364" lon="11.469314459623433"><ele>146.0</ele><time>2026-04-25T08:42:08.998Z</time></trkpt><trkpt lat="43.15995531974754" lon="11.469451481165656"><ele>146.0</ele><time>2026-04-25T08:42:09.998Z</time></trkpt><trkpt lat="43.15981343324703" lon="11.46958579002292"><ele>146.0</ele><time>2026-04-25T08:42:10.998Z</time></trkpt><trkpt lat="43.15967226022105" lon="11.46971769355051"><ele>146.33333333333331</ele><time>2026-04-25T08:42:11.998Z</time></trkpt><trkpt lat="43.15953385839119" lon="11.469850224734964"><ele>146.66666666666666</ele><time>2026-04-25T08:42:12.998Z</time></trkpt><trkpt lat="43.159399406715494" lon="11.469979134506412"><ele>147.0</ele><time>2026-04-25T08:42:13.998Z</time></trkpt><trkpt lat="43.159267272302884" lon="11.470102363048236"><ele>147.0</ele><time>2026-04-25T08:42:14.998Z</time></trkpt><trkpt lat="43.15913727903274" lon="11.470220171203163"><ele>147.0</ele><time>2026-04-25T08:42:15.998Z</time></trkpt><trkpt lat="43.15901561110571" lon="11.470335793364248"><ele>147.0</ele><time>2026-04-25T08:42:16.998Z</time></trkpt><trkpt lat="43.15889088512182" lon="11.470442263710988"><ele>147.0</ele><time>2026-04-25T08:42:17.998Z</time></trkpt><trkpt lat="43.15876331280062" lon="11.470537719511809"><ele>147.0</ele><time>2026-04-25T08:42:18.998Z</time></trkpt><trkpt lat="43.15863839160108" lon="11.470635194505233"><ele>147.0</ele><time>2026-04-25T08:42:19.998Z</time></trkpt><trkpt lat="43.15851481456162" lon="11.4707349586754"><ele>147.0</ele><time>2026-04-25T08:42:20.998Z</time></trkpt><trkpt lat="43.15839754016198" lon="11.470825193994479"><ele>147.0</ele><time>2026-04-25T08:42:21.998Z</time></trkpt><trkpt lat="43.158277684874555" lon="11.470913359883594"><ele>147.0</ele><time>2026-04-25T08:42:22.998Z</time></trkpt><trkpt lat="43.15815491878613" lon="11.471004873406079"><ele>147.0</ele><time>2026-04-25T08:42:23.998Z</time></trkpt><trkpt lat="43.15802863651477" lon="11.47109334153863"><ele>147.0</ele><time>2026-04-25T08:42:24.998Z</time></trkpt><trkpt lat="43.15789558860039" lon="11.471177143116273"><ele>146.66666666666666</ele><time>2026-04-25T08:42:25.998Z</time></trkpt><trkpt lat="43.157752895872825" lon="11.471249215585361"><ele>146.33333333333331</ele><time>2026-04-25T08:42:26.998Z</time></trkpt><trkpt lat="43.157600349554755" lon="11.471311148346343"><ele>146.0</ele><time>2026-04-25T08:42:27.998Z</time></trkpt><trkpt lat="43.15743173123053" lon="11.471339737116221"><ele>147.0</ele><time>2026-04-25T08:42:29Z</time></trkpt><trkpt lat="43.15724856170038" lon="11.471380134795305"><ele>148.0</ele><time>2026-04-25T08:42:30Z</time></trkpt><trkpt lat="43.15704908637621" lon="11.471424559360296"><ele>149.0</ele><time>2026-04-25T08:42:31Z</time></trkpt><trkpt lat="43.156836851598044" lon="11.471472970498576"><ele>149.0</ele><time>2026-04-25T08:42:32Z</time></trkpt><trkpt lat="43.15661816693545" lon="11.471522852979948"><ele>149.0</ele><time>2026-04-25T08:42:33Z</time></trkpt><trkpt lat="43.15640012305885" lon="11.471584804962161"><ele>149.0</ele><time>2026-04-25T08:42:34Z</time></trkpt><trkpt lat="43.15617335797543" lon="11.471636319556632"><ele>148.5</ele><time>2026-04-25T08:42:35Z</time></trkpt><trkpt lat="43.155946597477524" lon="11.471691536984721"><ele>148.0</ele><time>2026-04-25T08:42:36Z</time></trkpt><trkpt lat="43.15572029080771" lon="11.471746779159174"><ele>146.5</ele><time>2026-04-25T08:42:37Z</time></trkpt><trkpt lat="43.15548622196096" lon="11.471781201922855"><ele>145.0</ele><time>2026-04-25T08:42:38Z</time></trkpt><trkpt lat="43.15524508763123" lon="11.471836293746263"><ele>145.0</ele><time>2026-04-25T08:42:39Z</time></trkpt><trkpt lat="43.154990919710535" lon="11.47189439407614"><ele>145.0</ele><time>2026-04-25T08:42:40Z</time></trkpt><trkpt lat="43.154734205181136" lon="11.471953160883094"><ele>144.5</ele><time>2026-04-25T08:42:41Z</time></trkpt><trkpt lat="43.154482677777324" lon="11.472030630185113"><ele>144.0</ele><time>2026-04-25T08:42:42Z</time></trkpt><trkpt lat="43.15422598004549" lon="11.472073840292426"><ele>143.5</ele><time>2026-04-25T08:42:43Z</time></trkpt><trkpt lat="43.15397188446287" lon="11.472137584596496"><ele>143.0</ele><time>2026-04-25T08:42:44Z</time></trkpt><trkpt lat="43.153718358523754" lon="11.47220106110815"><ele>143.0</ele><time>2026-04-25T08:42:45Z</time></trkpt><trkpt lat="43.1534657758149" lon="11.47225358526719"><ele>143.0</ele><time>2026-04-25T08:42:46Z</time></trkpt><trkpt lat="43.15322700390542" lon="11.472303683916074"><ele>143.0</ele><time>2026-04-25T08:42:47Z</time></trkpt><trkpt lat="43.15299928132972" lon="11.472359194775617"><ele>143.0</ele><time>2026-04-25T08:42:48Z</time></trkpt><trkpt lat="43.1527854749098" lon="11.472406632330369"><ele>143.0</ele><time>2026-04-25T08:42:49Z</time></trkpt><trkpt lat="43.15258115472876" lon="11.472451587036685"><ele>143.0</ele><time>2026-04-25T08:42:50Z</time></trkpt><trkpt lat="43.15237478931365" lon="11.4725086758782"><ele>143.0</ele><time>2026-04-25T08:42:51Z</time></trkpt><trkpt lat="43.15216306672568" lon="11.472588747793854"><ele>143.0</ele><time>2026-04-25T08:42:52Z</time></trkpt><trkpt lat="43.15194688612378" lon="11.47269185776893"><ele>143.0</ele><time>2026-04-25T08:42:53Z</time></trkpt><trkpt lat="43.1517343008346" lon="11.472812059115602"><ele>143.0</ele><time>2026-04-25T08:42:54Z</time></trkpt><trkpt lat="43.151530215123024" lon="11.472960545311889"><ele>145.5</ele><time>2026-04-25T08:42:55Z</time></trkpt><trkpt lat="43.15132568894291" lon="11.47313903439977"><ele>148.0</ele><time>2026-04-25T08:42:56Z</time></trkpt><trkpt lat="43.15111906730792" lon="11.473335158460596"><ele>148.0</ele><time>2026-04-25T08:42:57Z</time></trkpt><trkpt lat="43.15091464959718" lon="11.473536547503418"><ele>148.0</ele><time>2026-04-25T08:42:58Z</time></trkpt><trkpt lat="43.15071469402493" lon="11.473733871176456"><ele>147.5</ele><time>2026-04-25T08:42:59Z</time></trkpt><trkpt lat="43.150514143438265" lon="11.473926199554404"><ele>147.0</ele><time>2026-04-25T08:43:00Z</time></trkpt><trkpt lat="43.15030599974286" lon="11.47410623800646"><ele>147.0</ele><time>2026-04-25T08:43:01Z</time></trkpt><trkpt lat="43.150083266504545" lon="11.474261866883836"><ele>147.0</ele><time>2026-04-25T08:43:02Z</time></trkpt><trkpt lat="43.149856004578545" lon="11.474401702942448"><ele>147.5</ele><time>2026-04-25T08:43:03Z</time></trkpt><trkpt lat="43.1496392992218" lon="11.47453898294874"><ele>148.0</ele><time>2026-04-25T08:43:04Z</time></trkpt><trkpt lat="43.14943462675262" lon="11.474667226003087"><ele>148.0</ele><time>2026-04-25T08:43:05Z</time></trkpt><trkpt lat="43.14923753884446" lon="11.474782140818121"><ele>148.0</ele><time>2026-04-25T08:43:06Z</time></trkpt><trkpt lat="43.14903997306677" lon="11.47487985739612"><ele>148.0</ele><time>2026-04-25T08:43:07Z</time></trkpt><trkpt lat="43.14884016685261" lon="11.474959272488707"><ele>147.33333333333334</ele><time>2026-04-25T08:43:08Z</time></trkpt><trkpt lat="43.14865192338163" lon="11.475026605212387"><ele>146.66666666666666</ele><time>2026-04-25T08:43:09Z</time></trkpt><trkpt lat="43.148476038556346" lon="11.475094459984794"><ele>146.0</ele><time>2026-04-25T08:43:10Z</time></trkpt><trkpt lat="43.14830808211303" lon="11.475158191555034"><ele>145.33333333333331</ele><time>2026-04-25T08:43:11Z</time></trkpt><trkpt lat="43.148145680282525" lon="11.47521718389486"><ele>144.66666666666666</ele><time>2026-04-25T08:43:12Z</time></trkpt><trkpt lat="43.147991956234705" lon="11.475273858365876"><ele>144.0</ele><time>2026-04-25T08:43:13Z</time></trkpt><trkpt lat="43.14784980547485" lon="11.475331317383857"><ele>144.0</ele><time>2026-04-25T08:43:14Z</time></trkpt><trkpt lat="43.14771129000195" lon="11.475388597183654"><ele>144.0</ele><time>2026-04-25T08:43:15Z</time></trkpt><trkpt lat="43.147578151676385" lon="11.475439826114215"><ele>144.0</ele><time>2026-04-25T08:43:15.999Z</time></trkpt><trkpt lat="43.147444490293736" lon="11.475493888142163"><ele>144.0</ele><time>2026-04-25T08:43:16.999Z</time></trkpt><trkpt lat="43.147311742300474" lon="11.47555123248126"><ele>145.0</ele><time>2026-04-25T08:43:17.999Z</time></trkpt><trkpt lat="43.147185379788645" lon="11.475600834858552"><ele>146.0</ele><time>2026-04-25T08:43:18.999Z</time></trkpt><trkpt lat="43.14707357733188" lon="11.475637546438449"><ele>147.0</ele><time>2026-04-25T08:43:19.999Z</time></trkpt><trkpt lat="43.14696590511992" lon="11.475682487721457"><ele>148.0</ele><time>2026-04-25T08:43:20.999Z</time></trkpt><trkpt lat="43.14685314632049" lon="11.475725163346498"><ele>148.0</ele><time>2026-04-25T08:43:21.999Z</time></trkpt><trkpt lat="43.14675210915206" lon="11.475754741228702"><ele>148.0</ele><time>2026-04-25T08:43:22.999Z</time></trkpt><trkpt lat="43.146669442643635" lon="11.475782995665583"><ele>148.0</ele><time>2026-04-25T08:43:23.999Z</time></trkpt><trkpt lat="43.14660380161892" lon="11.475806568082907"><ele>148.0</ele><time>2026-04-25T08:43:24.999Z</time></trkpt><trkpt lat="43.14651344717052" lon="11.47583913724884"><ele>148.0</ele><time>2026-04-25T08:43:26.999Z</time></trkpt><trkpt lat="43.146430662218144" lon="11.475867285662453"><ele>148.0</ele><time>2026-04-25T08:43:41.999Z</time></trkpt><trkpt lat="43.14634781866173" lon="11.475888943928137"><ele>147.4</ele><time>2026-04-25T08:43:44.999Z</time></trkpt><trkpt lat="43.146256607587446" lon="11.47592289098792"><ele>146.8</ele><time>2026-04-25T08:44:07.998Z</time></trkpt><trkpt lat="43.14618576116355" lon="11.475958908313261"><ele>146.2</ele><time>2026-04-25T08:44:08.998Z</time></trkpt><trkpt lat="43.146090783672456" lon="11.476005122198897"><ele>145.6</ele><time>2026-04-25T08:44:09.998Z</time></trkpt><trkpt lat="43.14597765591953" lon="11.47604933702156"><ele>145.0</ele><time>2026-04-25T08:44:10.998Z</time></trkpt><trkpt lat="43.14584900262304" lon="11.476094921016704"><ele>144.25</ele><time>2026-04-25T08:44:11.998Z</time></trkpt><trkpt lat="43.14570856748142" lon="11.476123786754581"><ele>143.5</ele><time>2026-04-25T08:44:12.998Z</time></trkpt><trkpt lat="43.145571278472524" lon="11.476155928880711"><ele>142.75</ele><time>2026-04-25T08:44:13.998Z</time></trkpt><trkpt lat="43.145442791329806" lon="11.476187776903423"><ele>142.0</ele><time>2026-04-25T08:44:14.998Z</time></trkpt><trkpt lat="43.14530972451691" lon="11.476218154685196"><ele>142.0</ele><time>2026-04-25T08:44:15.998Z</time></trkpt><trkpt lat="43.145172339932124" lon="11.476243325328491"><ele>142.0</ele><time>2026-04-25T08:44:16.998Z</time></trkpt><trkpt lat="43.14502968153335" lon="11.476256619225317"><ele>142.0</ele><time>2026-04-25T08:44:17.998Z</time></trkpt><trkpt lat="43.14488700115633" lon="11.476223805009463"><ele>142.0</ele><time>2026-04-25T08:44:18.998Z</time></trkpt><trkpt lat="43.14475615720165" lon="11.476202308107645"><ele>142.0</ele><time>2026-04-25T08:44:19.998Z</time></trkpt><trkpt lat="43.14463548838871" lon="11.476195565072759"><ele>142.0</ele><time>2026-04-25T08:44:20.998Z</time></trkpt><trkpt lat="43.14452005542108" lon="11.476173373149454"><ele>142.0</ele><time>2026-04-25T08:44:21.998Z</time></trkpt><trkpt lat="43.14439808900427" lon="11.476174716632926"><ele>142.0</ele><time>2026-04-25T08:44:22.998Z</time></trkpt><trkpt lat="43.144282517706664" lon="11.476202806360075"><ele>142.0</ele><time>2026-04-25T08:44:23.998Z</time></trkpt><trkpt lat="43.14417933046849" lon="11.476260702473102"><ele>142.0</ele><time>2026-04-25T08:44:24.998Z</time></trkpt><trkpt lat="43.14408933455281" lon="11.476338414826984"><ele>142.0</ele><time>2026-04-25T08:44:25.998Z</time></trkpt><trkpt lat="43.14400724599406" lon="11.476423197403454"><ele>142.0</ele><time>2026-04-25T08:44:26.998Z</time></trkpt><trkpt lat="43.14393580025045" lon="11.476500638563804"><ele>142.0</ele><time>2026-04-25T08:44:27.998Z</time></trkpt><trkpt lat="43.143871586994514" lon="11.476567490949094"><ele>142.16666666666669</ele><time>2026-04-25T08:44:28.998Z</time></trkpt><trkpt lat="43.14380937807056" lon="11.47663299062317"><ele>142.33333333333334</ele><time>2026-04-25T08:44:29.998Z</time></trkpt><trkpt lat="43.14375054985785" lon="11.476696114310702"><ele>142.5</ele><time>2026-04-25T08:44:30.998Z</time></trkpt><trkpt lat="43.14369832702234" lon="11.476754487430888"><ele>142.66666666666666</ele><time>2026-04-25T08:44:31.998Z</time></trkpt><trkpt lat="43.14361782838281" lon="11.476839020956898"><ele>142.83333333333331</ele><time>2026-04-25T08:44:33.998Z</time></trkpt><trkpt lat="43.143560041429495" lon="11.476903070114052"><ele>143.0</ele><time>2026-04-25T08:44:36Z</time></trkpt><trkpt lat="43.14350298695184" lon="11.47696150806788"><ele>143.0</ele><time>2026-04-25T08:44:38Z</time></trkpt><trkpt lat="43.143427503093925" lon="11.47704710917477"><ele>143.0</ele><time>2026-04-25T08:44:41Z</time></trkpt><trkpt lat="43.14334986570083" lon="11.477144077324278"><ele>143.0</ele><time>2026-04-25T08:44:43Z</time></trkpt><trkpt lat="43.14326630058629" lon="11.4772647035846"><ele>143.0</ele><time>2026-04-25T08:44:45Z</time></trkpt><trkpt lat="43.14322374944688" lon="11.477341432088439"><ele>143.0</ele><time>2026-04-25T08:44:46Z</time></trkpt><trkpt lat="43.14317978412613" lon="11.477430129994593"><ele>143.0</ele><time>2026-04-25T08:44:47Z</time></trkpt><trkpt lat="43.14313292943403" lon="11.477528922958681"><ele>143.0</ele><time>2026-04-25T08:44:48Z</time></trkpt><trkpt lat="43.14308661369668" lon="11.477656171082103"><ele>143.0</ele><time>2026-04-25T08:44:49Z</time></trkpt><trkpt lat="43.1430465149907" lon="11.47782285869051"><ele>143.0</ele><time>2026-04-25T08:44:50Z</time></trkpt><trkpt lat="43.14300384389223" lon="11.478030184364744"><ele>143.0</ele><time>2026-04-25T08:44:51Z</time></trkpt><trkpt lat="43.14295643016715" lon="11.478240867213323"><ele>143.0</ele><time>2026-04-25T08:44:52Z</time></trkpt><trkpt lat="43.1429145514341" lon="11.478456839987286"><ele>143.0</ele><time>2026-04-25T08:44:53Z</time></trkpt><trkpt lat="43.14287921057423" lon="11.478721451962441"><ele>143.0</ele><time>2026-04-25T08:44:54Z</time></trkpt><trkpt lat="43.14283936607749" lon="11.478964957901047"><ele>143.0</ele><time>2026-04-25T08:44:55Z</time></trkpt><trkpt lat="43.142789928724056" lon="11.479177989126619"><ele>143.0</ele><time>2026-04-25T08:44:56Z</time></trkpt><trkpt lat="43.14274677845051" lon="11.479377836772953"><ele>143.0</ele><time>2026-04-25T08:44:57Z</time></trkpt><trkpt lat="43.142708106972734" lon="11.479568218334192"><ele>143.0</ele><time>2026-04-25T08:44:58Z</time></trkpt><trkpt lat="43.1426597821469" lon="11.479736285370251"><ele>143.0</ele><time>2026-04-25T08:44:59Z</time></trkpt><trkpt lat="43.14260088299911" lon="11.479883202605297"><ele>143.0</ele><time>2026-04-25T08:45:00Z</time></trkpt><trkpt lat="43.14253477607702" lon="11.48000960466217"><ele>143.25</ele><time>2026-04-25T08:45:01Z</time></trkpt><trkpt lat="43.14246053073261" lon="11.48012964812577"><ele>143.5</ele><time>2026-04-25T08:45:02Z</time></trkpt><trkpt lat="43.14237023105328" lon="11.480252769550459"><ele>143.75</ele><time>2026-04-25T08:45:03Z</time></trkpt><trkpt lat="43.142269381262274" lon="11.480382641215648"><ele>144.0</ele><time>2026-04-25T08:45:04Z</time></trkpt><trkpt lat="43.14213920431553" lon="11.480533408329181"><ele>143.33333333333334</ele><time>2026-04-25T08:45:05Z</time></trkpt><trkpt lat="43.142006965968584" lon="11.480695846405009"><ele>142.66666666666669</ele><time>2026-04-25T08:45:06Z</time></trkpt><trkpt lat="43.141892353183586" lon="11.480851450830722"><ele>142.0</ele><time>2026-04-25T08:45:07Z</time></trkpt><trkpt lat="43.14177816525452" lon="11.480988380345872"><ele>142.0</ele><time>2026-04-25T08:45:08Z</time></trkpt><trkpt lat="43.14167512002856" lon="11.481116542621244"><ele>142.0</ele><time>2026-04-25T08:45:09Z</time></trkpt><trkpt lat="43.14157848018426" lon="11.481231102496633"><ele>142.0</ele><time>2026-04-25T08:45:10Z</time></trkpt><trkpt lat="43.14148535663805" lon="11.481333954908079"><ele>142.0</ele><time>2026-04-25T08:45:11Z</time></trkpt><trkpt lat="43.141382862063054" lon="11.481429296554781"><ele>141.79999999999998</ele><time>2026-04-25T08:45:12Z</time></trkpt><trkpt lat="43.14127718216371" lon="11.48150705992674"><ele>141.6</ele><time>2026-04-25T08:45:13Z</time></trkpt><trkpt lat="43.14118015269198" lon="11.481576958849896"><ele>141.39999999999998</ele><time>2026-04-25T08:45:14Z</time></trkpt><trkpt lat="43.141090852617694" lon="11.481641384088931"><ele>141.2</ele><time>2026-04-25T08:45:15Z</time></trkpt><trkpt lat="43.14101134072375" lon="11.481698697520315"><ele>141.0</ele><time>2026-04-25T08:45:16Z</time></trkpt><trkpt lat="43.14093931901805" lon="11.481748236097195"><ele>141.0</ele><time>2026-04-25T08:45:17Z</time></trkpt><trkpt lat="43.14086924020262" lon="11.481796933488198"><ele>141.0</ele><time>2026-04-25T08:45:18Z</time></trkpt><trkpt lat="43.14079441967081" lon="11.481851367112629"><ele>141.0</ele><time>2026-04-25T08:45:19Z</time></trkpt><trkpt lat="43.140714384788595" lon="11.481904403149176"><ele>141.0</ele><time>2026-04-25T08:45:20Z</time></trkpt><trkpt lat="43.140631977958044" lon="11.481960466534916"><ele>141.0</ele><time>2026-04-25T08:45:21Z</time></trkpt><trkpt lat="43.14054899475018" lon="11.482025159228588"><ele>141.0</ele><time>2026-04-25T08:45:22Z</time></trkpt><trkpt lat="43.14047363718909" lon="11.48208006889526"><ele>141.33333333333334</ele><time>2026-04-25T08:45:23Z</time></trkpt><trkpt lat="43.14041011008442" lon="11.48212252681077"><ele>141.66666666666666</ele><time>2026-04-25T08:45:24Z</time></trkpt><trkpt lat="43.14035383394693" lon="11.482163079897619"><ele>142.0</ele><time>2026-04-25T08:45:25Z</time></trkpt><trkpt lat="43.14025867953381" lon="11.48222871635188"><ele>142.33333333333331</ele><time>2026-04-25T08:45:27Z</time></trkpt><trkpt lat="43.140170929426205" lon="11.482287936304802"><ele>142.66666666666666</ele><time>2026-04-25T08:45:29Z</time></trkpt><trkpt lat="43.14009161284865" lon="11.482339173198852"><ele>143.0</ele><time>2026-04-25T08:45:30.999Z</time></trkpt><trkpt lat="43.14002703944359" lon="11.48238047578157"><ele>143.0</ele><time>2026-04-25T08:45:32.999Z</time></trkpt><trkpt lat="43.13995698167675" lon="11.482433808739854"><ele>143.0</ele><time>2026-04-25T08:45:39.999Z</time></trkpt><trkpt lat="43.13984561563477" lon="11.482510038641605"><ele>143.0</ele><time>2026-04-25T08:45:41.999Z</time></trkpt><trkpt lat="43.13976519984483" lon="11.482565236663895"><ele>143.0</ele><time>2026-04-25T08:45:42.999Z</time></trkpt><trkpt lat="43.139680489022666" lon="11.482623224418447"><ele>143.0</ele><time>2026-04-25T08:45:43.999Z</time></trkpt><trkpt lat="43.1395898919506" lon="11.482682488023967"><ele>143.33333333333331</ele><time>2026-04-25T08:45:44.999Z</time></trkpt><trkpt lat="43.13950173998376" lon="11.482746497505328"><ele>143.66666666666666</ele><time>2026-04-25T08:45:45.999Z</time></trkpt><trkpt lat="43.13942098956951" lon="11.482805600621203"><ele>144.0</ele><time>2026-04-25T08:45:46.999Z</time></trkpt><trkpt lat="43.13934482603583" lon="11.482860687806749"><ele>144.33333333333334</ele><time>2026-04-25T08:45:47.999Z</time></trkpt><trkpt lat="43.13926798117328" lon="11.4829140515562"><ele>144.66666666666669</ele><time>2026-04-25T08:45:48.999Z</time></trkpt><trkpt lat="43.13919869546206" lon="11.482962866899829"><ele>145.0</ele><time>2026-04-25T08:45:49.999Z</time></trkpt><trkpt lat="43.13913561267089" lon="11.483006112332351"><ele>145.0</ele><time>2026-04-25T08:45:50.999Z</time></trkpt><trkpt lat="43.13907804380735" lon="11.483043970945142"><ele>145.0</ele><time>2026-04-25T08:45:51.999Z</time></trkpt><trkpt lat="43.1389819316778" lon="11.48310049366844"><ele>145.0</ele><time>2026-04-25T08:45:53.999Z</time></trkpt><trkpt lat="43.13891549420012" lon="11.483134774148501"><ele>145.0</ele><time>2026-04-25T08:45:55.999Z</time></trkpt><trkpt lat="43.13883909136885" lon="11.48316558369011"><ele>145.0</ele><time>2026-04-25T08:46:08.999Z</time></trkpt><trkpt lat="43.13874457661377" lon="11.483210788821777"><ele>145.0</ele><time>2026-04-25T08:46:10.999Z</time></trkpt><trkpt lat="43.13867162764245" lon="11.483248903821917"><ele>145.2</ele><time>2026-04-25T08:46:11.999Z</time></trkpt><trkpt lat="43.138588845598214" lon="11.483255873877503"><ele>145.4</ele><time>2026-04-25T08:46:12.999Z</time></trkpt><trkpt lat="43.13849446330152" lon="11.483279185040397"><ele>145.6</ele><time>2026-04-25T08:46:13.999Z</time></trkpt><trkpt lat="43.138396996697075" lon="11.483298979766415"><ele>145.8</ele><time>2026-04-25T08:46:14.999Z</time></trkpt><trkpt lat="43.138298109948586" lon="11.483315360281157"><ele>146.0</ele><time>2026-04-25T08:46:15.999Z</time></trkpt><trkpt lat="43.138205394323116" lon="11.483326908763406"><ele>146.2</ele><time>2026-04-25T08:46:16.999Z</time></trkpt><trkpt lat="43.138121233601105" lon="11.483354145710639"><ele>146.39999999999998</ele><time>2026-04-25T08:46:17.999Z</time></trkpt><trkpt lat="43.13804503827306" lon="11.483353746597107"><ele>146.6</ele><time>2026-04-25T08:46:18.999Z</time></trkpt><trkpt lat="43.13797736652342" lon="11.483351313465112"><ele>146.79999999999998</ele><time>2026-04-25T08:46:19.998Z</time></trkpt><trkpt lat="43.13786006634867" lon="11.48334577218436"><ele>147.0</ele><time>2026-04-25T08:46:21.998Z</time></trkpt><trkpt lat="43.13773495782671" lon="11.483345216636742"><ele>147.0</ele><time>2026-04-25T08:46:23.998Z</time></trkpt><trkpt lat="43.137667684309385" lon="11.483348507172995"><ele>147.0</ele><time>2026-04-25T08:46:24.998Z</time></trkpt><trkpt lat="43.13759680107894" lon="11.483354802550318"><ele>147.0</ele><time>2026-04-25T08:46:25.998Z</time></trkpt><trkpt lat="43.13751618440313" lon="11.483360183012858"><ele>147.0</ele><time>2026-04-25T08:46:26.998Z</time></trkpt><trkpt lat="43.137422074486466" lon="11.483370727244099"><ele>147.0</ele><time>2026-04-25T08:46:27.998Z</time></trkpt><trkpt lat="43.13731556876786" lon="11.483351746582066"><ele>147.0</ele><time>2026-04-25T08:46:28.998Z</time></trkpt><trkpt lat="43.13720212194869" lon="11.483354384880114"><ele>146.75</ele><time>2026-04-25T08:46:29.998Z</time></trkpt><trkpt lat="43.137082937094625" lon="11.483357156621011"><ele>146.5</ele><time>2026-04-25T08:46:30.998Z</time></trkpt><trkpt lat="43.136963808408844" lon="11.483373269021888"><ele>146.25</ele><time>2026-04-25T08:46:31.998Z</time></trkpt><trkpt lat="43.13684751327617" lon="11.48336870809333"><ele>146.0</ele><time>2026-04-25T08:46:32.998Z</time></trkpt><trkpt lat="43.13673545526508" lon="11.483369938532727"><ele>146.0</ele><time>2026-04-25T08:46:33.998Z</time></trkpt><trkpt lat="43.13662863246256" lon="11.48337113339518"><ele>146.0</ele><time>2026-04-25T08:46:34.998Z</time></trkpt><trkpt lat="43.136525829421146" lon="11.483476677739839"><ele>146.0</ele><time>2026-04-25T08:46:35.998Z</time></trkpt><trkpt lat="43.136436842931246" lon="11.483372213934583"><ele>146.0</ele><time>2026-04-25T08:46:36.998Z</time></trkpt><trkpt lat="43.13634965281136" lon="11.483373144350663"><ele>146.0</ele><time>2026-04-25T08:46:37.998Z</time></trkpt><trkpt lat="43.13626311058711" lon="11.483375551648837"><ele>146.0</ele><time>2026-04-25T08:46:38.998Z</time></trkpt><trkpt lat="43.13617838141579" lon="11.483377458396667"><ele>146.0</ele><time>2026-04-25T08:46:40Z</time></trkpt><trkpt lat="43.13609708667516" lon="11.483377321588684"><ele>146.0</ele><time>2026-04-25T08:46:41Z</time></trkpt><trkpt lat="43.136019999036826" lon="11.483373866369549"><ele>146.0</ele><time>2026-04-25T08:46:42Z</time></trkpt><trkpt lat="43.13595541064113" lon="11.483369173147011"><ele>146.0</ele><time>2026-04-25T08:46:43Z</time></trkpt><trkpt lat="43.13586761659513" lon="11.483365419847292"><ele>146.0</ele><time>2026-04-25T08:46:45Z</time></trkpt><trkpt lat="43.13579097182012" lon="11.483359548288975"><ele>146.0</ele><time>2026-04-25T08:46:47Z</time></trkpt><trkpt lat="43.135686197539385" lon="11.483348115730116"><ele>146.0</ele><time>2026-04-25T08:46:49Z</time></trkpt><trkpt lat="43.13561885818605" lon="11.48334174475358"><ele>146.0</ele><time>2026-04-25T08:46:50Z</time></trkpt><trkpt lat="43.13554169360325" lon="11.483335557398554"><ele>146.0</ele><time>2026-04-25T08:46:51Z</time></trkpt><trkpt lat="43.13545691761649" lon="11.483325712587254"><ele>146.0</ele><time>2026-04-25T08:46:52Z</time></trkpt><trkpt lat="43.13536365801891" lon="11.483311312993763"><ele>146.0</ele><time>2026-04-25T08:46:53Z</time></trkpt><trkpt lat="43.13526544252348" lon="11.483290292088723"><ele>146.0</ele><time>2026-04-25T08:46:54Z</time></trkpt><trkpt lat="43.13516223306897" lon="11.483270919846833"><ele>146.0</ele><time>2026-04-25T08:46:55Z</time></trkpt><trkpt lat="43.13505990113567" lon="11.483255376252506"><ele>146.0</ele><time>2026-04-25T08:46:56Z</time></trkpt><trkpt lat="43.134952828807826" lon="11.483236876736886"><ele>146.0</ele><time>2026-04-25T08:46:57Z</time></trkpt><trkpt lat="43.134843882920855" lon="11.483217441985982"><ele>146.0</ele><time>2026-04-25T08:46:58Z</time></trkpt><trkpt lat="43.13473653715402" lon="11.483197285351347"><ele>145.8</ele><time>2026-04-25T08:46:59Z</time></trkpt><trkpt lat="43.134630727391595" lon="11.483178112359058"><ele>145.6</ele><time>2026-04-25T08:47:00Z</time></trkpt><trkpt lat="43.134526242131976" lon="11.483157610510633"><ele>145.4</ele><time>2026-04-25T08:47:01Z</time></trkpt><trkpt lat="43.13441975367516" lon="11.483136917390171"><ele>145.2</ele><time>2026-04-25T08:47:02Z</time></trkpt><trkpt lat="43.13431080098586" lon="11.483116625202642"><ele>145.0</ele><time>2026-04-25T08:47:03Z</time></trkpt><trkpt lat="43.13420238927054" lon="11.483098010695686"><ele>145.0</ele><time>2026-04-25T08:47:04Z</time></trkpt><trkpt lat="43.13409052165881" lon="11.483074493282228"><ele>145.0</ele><time>2026-04-25T08:47:05Z</time></trkpt><trkpt lat="43.13397348840714" lon="11.483053937020061"><ele>145.0</ele><time>2026-04-25T08:47:06Z</time></trkpt><trkpt lat="43.13385281701688" lon="11.483034614826657"><ele>145.0</ele><time>2026-04-25T08:47:07Z</time></trkpt><trkpt lat="43.133729978882386" lon="11.483006411736385"><ele>145.0</ele><time>2026-04-25T08:47:08Z</time></trkpt><trkpt lat="43.13360825883787" lon="11.48296742581162"><ele>145.0</ele><time>2026-04-25T08:47:09Z</time></trkpt><trkpt lat="43.13348620180557" lon="11.482925069703354"><ele>145.0</ele><time>2026-04-25T08:47:10Z</time></trkpt><trkpt lat="43.13336260106093" lon="11.482883678284361"><ele>145.0</ele><time>2026-04-25T08:47:11Z</time></trkpt><trkpt lat="43.13323722347333" lon="11.482837326930941"><ele>144.5</ele><time>2026-04-25T08:47:12Z</time></trkpt><trkpt lat="43.13311283624672" lon="11.482788577201866"><ele>144.0</ele><time>2026-04-25T08:47:13Z</time></trkpt><trkpt lat="43.1329911148841" lon="11.48274127921448"><ele>143.5</ele><time>2026-04-25T08:47:14Z</time></trkpt><trkpt lat="43.13287262052812" lon="11.482695591417887"><ele>143.0</ele><time>2026-04-25T08:47:15Z</time></trkpt><trkpt lat="43.13275673486112" lon="11.482653188732174"><ele>143.0</ele><time>2026-04-25T08:47:16Z</time></trkpt><trkpt lat="43.132640015652036" lon="11.48260916288605"><ele>143.0</ele><time>2026-04-25T08:47:17Z</time></trkpt><trkpt lat="43.132522375645046" lon="11.482563662331447"><ele>143.0</ele><time>2026-04-25T08:47:18Z</time></trkpt><trkpt lat="43.13240302937581" lon="11.482517665422415"><ele>143.0</ele><time>2026-04-25T08:47:19Z</time></trkpt><trkpt lat="43.13228275092961" lon="11.48246909885365"><ele>143.25</ele><time>2026-04-25T08:47:20Z</time></trkpt><trkpt lat="43.13216343335054" lon="11.482420189573773"><ele>143.5</ele><time>2026-04-25T08:47:21Z</time></trkpt><trkpt lat="43.13203953602127" lon="11.48237601859129"><ele>143.75</ele><time>2026-04-25T08:47:22Z</time></trkpt><trkpt lat="43.131911202095104" lon="11.482345526888716"><ele>144.0</ele><time>2026-04-25T08:47:23Z</time></trkpt><trkpt lat="43.13177855920652" lon="11.482329609849765"><ele>144.0</ele><time>2026-04-25T08:47:24Z</time></trkpt><trkpt lat="43.13164173880358" lon="11.482336612043786"><ele>144.0</ele><time>2026-04-25T08:47:25Z</time></trkpt><trkpt lat="43.13150096311856" lon="11.48235302067845"><ele>144.0</ele><time>2026-04-25T08:47:26Z</time></trkpt><trkpt lat="43.13135436673433" lon="11.48236533963322"><ele>144.0</ele><time>2026-04-25T08:47:27Z</time></trkpt><trkpt lat="43.13120615831407" lon="11.48237861893745"><ele>143.5</ele><time>2026-04-25T08:47:28Z</time></trkpt><trkpt lat="43.131062312412794" lon="11.482388276035065"><ele>143.0</ele><time>2026-04-25T08:47:29Z</time></trkpt><trkpt lat="43.13092248333896" lon="11.482399696040176"><ele>142.5</ele><time>2026-04-25T08:47:30Z</time></trkpt><trkpt lat="43.130789267944294" lon="11.482410550337432"><ele>142.0</ele><time>2026-04-25T08:47:31Z</time></trkpt><trkpt lat="43.13066473124064" lon="11.482422510566694"><ele>142.0</ele><time>2026-04-25T08:47:32Z</time></trkpt><trkpt lat="43.130542575784" lon="11.482431075155475"><ele>142.0</ele><time>2026-04-25T08:47:33Z</time></trkpt><trkpt lat="43.130419900856126" lon="11.48243546690999"><ele>142.0</ele><time>2026-04-25T08:47:34Z</time></trkpt><trkpt lat="43.13030001100387" lon="11.48244425600224"><ele>142.0</ele><time>2026-04-25T08:47:35Z</time></trkpt><trkpt lat="43.130183588374486" lon="11.482457284609527"><ele>142.0</ele><time>2026-04-25T08:47:36Z</time></trkpt><trkpt lat="43.13006967687096" lon="11.482467502569573"><ele>142.0</ele><time>2026-04-25T08:47:37Z</time></trkpt><trkpt lat="43.12995751693106" lon="11.482476162579744"><ele>142.0</ele><time>2026-04-25T08:47:38Z</time></trkpt><trkpt lat="43.12985156202358" lon="11.482483785058745"><ele>142.0</ele><time>2026-04-25T08:47:39Z</time></trkpt><trkpt lat="43.129753806095245" lon="11.482491950090685"><ele>142.0</ele><time>2026-04-25T08:47:40Z</time></trkpt><trkpt lat="43.12965860740872" lon="11.482497905480022"><ele>142.4</ele><time>2026-04-25T08:47:40.999Z</time></trkpt><trkpt lat="43.12955804457511" lon="11.482509517181288"><ele>142.79999999999998</ele><time>2026-04-25T08:47:41.999Z</time></trkpt><trkpt lat="43.12944917532659" lon="11.48251885131517"><ele>143.2</ele><time>2026-04-25T08:47:42.999Z</time></trkpt><trkpt lat="43.12933677929151" lon="11.482528366220002"><ele>143.6</ele><time>2026-04-25T08:47:43.999Z</time></trkpt><trkpt lat="43.129222620288374" lon="11.482537124565738"><ele>144.0</ele><time>2026-04-25T08:47:44.999Z</time></trkpt><trkpt lat="43.129098968811505" lon="11.482545629457636"><ele>144.25</ele><time>2026-04-25T08:47:45.999Z</time></trkpt><trkpt lat="43.128975474389684" lon="11.482558147509534"><ele>144.5</ele><time>2026-04-25T08:47:46.999Z</time></trkpt><trkpt lat="43.12885407299346" lon="11.482568433887083"><ele>144.75</ele><time>2026-04-25T08:47:47.999Z</time></trkpt><trkpt lat="43.12873666022986" lon="11.482574938084174"><ele>145.0</ele><time>2026-04-25T08:47:48.999Z</time></trkpt><trkpt lat="43.12861706799438" lon="11.482582719749779"><ele>145.0</ele><time>2026-04-25T08:47:49.999Z</time></trkpt><trkpt lat="43.12849447193767" lon="11.482595501450044"><ele>145.0</ele><time>2026-04-25T08:47:50.999Z</time></trkpt><trkpt lat="43.12837008762384" lon="11.482607069406189"><ele>145.0</ele><time>2026-04-25T08:47:51.999Z</time></trkpt><trkpt lat="43.12824702698363" lon="11.482617595087817"><ele>145.0</ele><time>2026-04-25T08:47:52.999Z</time></trkpt><trkpt lat="43.12812564971088" lon="11.48262959695376"><ele>145.0</ele><time>2026-04-25T08:47:53.999Z</time></trkpt><trkpt lat="43.12800186563601" lon="11.48264048345678"><ele>145.0</ele><time>2026-04-25T08:47:54.999Z</time></trkpt><trkpt lat="43.12787784603512" lon="11.48265266007687"><ele>145.0</ele><time>2026-04-25T08:47:55.999Z</time></trkpt><trkpt lat="43.127755667874425" lon="11.482663155972752"><ele>145.0</ele><time>2026-04-25T08:47:56.999Z</time></trkpt><trkpt lat="43.12763447277414" lon="11.482671663340303"><ele>145.0</ele><time>2026-04-25T08:47:57.999Z</time></trkpt><trkpt lat="43.12751467115756" lon="11.482682171333808"><ele>145.0</ele><time>2026-04-25T08:47:58.999Z</time></trkpt><trkpt lat="43.127394936182995" lon="11.482692652823042"><ele>145.0</ele><time>2026-04-25T08:47:59.999Z</time></trkpt><trkpt lat="43.127274808669405" lon="11.482702533747318"><ele>145.0</ele><time>2026-04-25T08:48:00.999Z</time></trkpt><trkpt lat="43.12715598004733" lon="11.482714350928982"><ele>144.75</ele><time>2026-04-25T08:48:01.999Z</time></trkpt><trkpt lat="43.1270348558962" lon="11.482727963720448"><ele>144.5</ele><time>2026-04-25T08:48:02.999Z</time></trkpt><trkpt lat="43.126910374083046" lon="11.482736247201045"><ele>144.25</ele><time>2026-04-25T08:48:03.999Z</time></trkpt><trkpt lat="43.12678629049634" lon="11.482744388108616"><ele>144.0</ele><time>2026-04-25T08:48:04.999Z</time></trkpt><trkpt lat="43.126662474886245" lon="11.482755723230452"><ele>143.5</ele><time>2026-04-25T08:48:05.999Z</time></trkpt><trkpt lat="43.12653678229261" lon="11.482768951616924"><ele>143.0</ele><time>2026-04-25T08:48:06.999Z</time></trkpt><trkpt lat="43.12641127159324" lon="11.482780671286008"><ele>142.5</ele><time>2026-04-25T08:48:07.999Z</time></trkpt><trkpt lat="43.12628783074251" lon="11.482790580983876"><ele>142.0</ele><time>2026-04-25T08:48:08.999Z</time></trkpt><trkpt lat="43.12616139150914" lon="11.482801720912265"><ele>142.0</ele><time>2026-04-25T08:48:09.999Z</time></trkpt><trkpt lat="43.12603080062333" lon="11.482815996439994"><ele>142.0</ele><time>2026-04-25T08:48:10.998Z</time></trkpt><trkpt lat="43.12589161135523" lon="11.482834318778563"><ele>142.0</ele><time>2026-04-25T08:48:11.998Z</time></trkpt><trkpt lat="43.125740974901035" lon="11.4828589745143"><ele>142.0</ele><time>2026-04-25T08:48:12.998Z</time></trkpt><trkpt lat="43.12557680677405" lon="11.482881665678272"><ele>141.66666666666669</ele><time>2026-04-25T08:48:13.998Z</time></trkpt><trkpt lat="43.125404447948675" lon="11.48289561478139"><ele>141.33333333333334</ele><time>2026-04-25T08:48:14.998Z</time></trkpt><trkpt lat="43.12521389610958" lon="11.482913593509073"><ele>141.0</ele><time>2026-04-25T08:48:15.998Z</time></trkpt><trkpt lat="43.124998621810036" lon="11.482915120618092"><ele>141.66666666666666</ele><time>2026-04-25T08:48:16.998Z</time></trkpt><trkpt lat="43.124773530556816" lon="11.482934818547074"><ele>142.33333333333331</ele><time>2026-04-25T08:48:17.998Z</time></trkpt><trkpt lat="43.12455339879732" lon="11.482963802658876"><ele>143.0</ele><time>2026-04-25T08:48:18.998Z</time></trkpt><trkpt lat="43.124352298355035" lon="11.482963423210581"><ele>143.0</ele><time>2026-04-25T08:48:19.998Z</time></trkpt><trkpt lat="43.124163591432804" lon="11.482977152802533"><ele>143.0</ele><time>2026-04-25T08:48:20.998Z</time></trkpt><trkpt lat="43.12398654426308" lon="11.482996959160408"><ele>143.0</ele><time>2026-04-25T08:48:21.998Z</time></trkpt><trkpt lat="43.123820454462304" lon="11.483011905744005"><ele>143.66666666666666</ele><time>2026-04-25T08:48:22.998Z</time></trkpt><trkpt lat="43.12366030273181" lon="11.483023775808116"><ele>144.33333333333334</ele><time>2026-04-25T08:48:23.998Z</time></trkpt><trkpt lat="43.123497202829014" lon="11.48303443005634"><ele>145.0</ele><time>2026-04-25T08:48:24.998Z</time></trkpt><trkpt lat="43.123336336873436" lon="11.483046749457673"><ele>145.5</ele><time>2026-04-25T08:48:25.998Z</time></trkpt><trkpt lat="43.12318085757017" lon="11.483062440811421"><ele>146.0</ele><time>2026-04-25T08:48:26.998Z</time></trkpt><trkpt lat="43.1230332139505" lon="11.483077731261039"><ele>146.5</ele><time>2026-04-25T08:48:27.998Z</time></trkpt><trkpt lat="43.1228958291694" lon="11.48309046085642"><ele>147.0</ele><time>2026-04-25T08:48:28.998Z</time></trkpt><trkpt lat="43.12277392671133" lon="11.483100684058334"><ele>147.0</ele><time>2026-04-25T08:48:29.997Z</time></trkpt><trkpt lat="43.1226660078441" lon="11.483109100310939"><ele>147.0</ele><time>2026-04-25T08:48:30.997Z</time></trkpt><trkpt lat="43.122566275019196" lon="11.483117329924776"><ele>147.0</ele><time>2026-04-25T08:48:31.997Z</time></trkpt><trkpt lat="43.12246786716517" lon="11.483127953934728"><ele>147.0</ele><time>2026-04-25T08:48:32.997Z</time></trkpt><trkpt lat="43.122364013260466" lon="11.483140349125481"><ele>147.0</ele><time>2026-04-25T08:48:33.997Z</time></trkpt><trkpt lat="43.12225616503815" lon="11.483151387689672"><ele>146.25</ele><time>2026-04-25T08:48:34.997Z</time></trkpt><trkpt lat="43.12214138580428" lon="11.48316039876389"><ele>145.5</ele><time>2026-04-25T08:48:35.997Z</time></trkpt><trkpt lat="43.12202023063509" lon="11.483172066198536"><ele>144.75</ele><time>2026-04-25T08:48:36.997Z</time></trkpt><trkpt lat="43.12189466967293" lon="11.483183998406895"><ele>144.0</ele><time>2026-04-25T08:48:37.997Z</time></trkpt><trkpt lat="43.12176696721142" lon="11.483194855030714"><ele>144.0</ele><time>2026-04-25T08:48:38.997Z</time></trkpt><trkpt lat="43.121639636645185" lon="11.48320678805685"><ele>144.0</ele><time>2026-04-25T08:48:39.997Z</time></trkpt><trkpt lat="43.12150777868726" lon="11.483220057235808"><ele>144.0</ele><time>2026-04-25T08:48:40.997Z</time></trkpt><trkpt lat="43.12137404501717" lon="11.483232988591535"><ele>144.0</ele><time>2026-04-25T08:48:41.997Z</time></trkpt><trkpt lat="43.12124377428523" lon="11.483242271185793"><ele>143.75</ele><time>2026-04-25T08:48:42.997Z</time></trkpt><trkpt lat="43.121118538969405" lon="11.483258477743922"><ele>143.5</ele><time>2026-04-25T08:48:43.997Z</time></trkpt><trkpt lat="43.12098062211285" lon="11.483281564147502"><ele>143.25</ele><time>2026-04-25T08:48:44.997Z</time></trkpt><trkpt lat="43.12083094043406" lon="11.483302562336174"><ele>143.0</ele><time>2026-04-25T08:48:46Z</time></trkpt><trkpt lat="43.12067788408889" lon="11.483313521368553"><ele>142.75</ele><time>2026-04-25T08:48:47Z</time></trkpt><trkpt lat="43.12052620997133" lon="11.483313975626245"><ele>142.5</ele><time>2026-04-25T08:48:48Z</time></trkpt><trkpt lat="43.120385692751206" lon="11.483320420305917"><ele>142.25</ele><time>2026-04-25T08:48:49Z</time></trkpt><trkpt lat="43.12025409840552" lon="11.483333149521524"><ele>142.0</ele><time>2026-04-25T08:48:50Z</time></trkpt><trkpt lat="43.12013075374381" lon="11.483345403281335"><ele>142.0</ele><time>2026-04-25T08:48:51Z</time></trkpt><trkpt lat="43.120013472132136" lon="11.483357819287667"><ele>142.0</ele><time>2026-04-25T08:48:52Z</time></trkpt><trkpt lat="43.11990396877028" lon="11.483375540614038"><ele>142.0</ele><time>2026-04-25T08:48:53Z</time></trkpt><trkpt lat="43.11979392668852" lon="11.483396812863509"><ele>142.0</ele><time>2026-04-25T08:48:54Z</time></trkpt><trkpt lat="43.119688205908055" lon="11.48341663692045"><ele>142.0</ele><time>2026-04-25T08:48:55Z</time></trkpt><trkpt lat="43.11958708476981" lon="11.483435116268963"><ele>142.0</ele><time>2026-04-25T08:48:56Z</time></trkpt><trkpt lat="43.11949074097415" lon="11.483453515387435"><ele>142.0</ele><time>2026-04-25T08:48:57Z</time></trkpt><trkpt lat="43.11939474375603" lon="11.483472765825852"><ele>142.0</ele><time>2026-04-25T08:48:58Z</time></trkpt><trkpt lat="43.119302401592265" lon="11.483492089177144"><ele>142.0</ele><time>2026-04-25T08:48:59Z</time></trkpt><trkpt lat="43.11920881888696" lon="11.483510852362098"><ele>142.0</ele><time>2026-04-25T08:49:00Z</time></trkpt><trkpt lat="43.119110316665754" lon="11.483530225876336"><ele>142.25</ele><time>2026-04-25T08:49:01Z</time></trkpt><trkpt lat="43.119001980999734" lon="11.483554318000252"><ele>142.5</ele><time>2026-04-25T08:49:01.999Z</time></trkpt><trkpt lat="43.11887918371524" lon="11.483580168344485"><ele>142.75</ele><time>2026-04-25T08:49:02.999Z</time></trkpt><trkpt lat="43.11873987309692" lon="11.483607401845923"><ele>143.0</ele><time>2026-04-25T08:49:03.999Z</time></trkpt><trkpt lat="43.118591315575536" lon="11.483638863686368"><ele>143.0</ele><time>2026-04-25T08:49:04.999Z</time></trkpt><trkpt lat="43.11843478656189" lon="11.483677794432658"><ele>143.0</ele><time>2026-04-25T08:49:05.999Z</time></trkpt><trkpt lat="43.118258734518946" lon="11.483731756896978"><ele>143.0</ele><time>2026-04-25T08:49:06.999Z</time></trkpt><trkpt lat="43.118062892096404" lon="11.483756992644967"><ele>144.66666666666666</ele><time>2026-04-25T08:49:07.999Z</time></trkpt><trkpt lat="43.117846837322176" lon="11.483802192798418"><ele>146.33333333333334</ele><time>2026-04-25T08:49:08.999Z</time></trkpt><trkpt lat="43.11762498449932" lon="11.483846225625316"><ele>148.0</ele><time>2026-04-25T08:49:09.999Z</time></trkpt><trkpt lat="43.11742031992412" lon="11.483893534337904"><ele>151.33333333333334</ele><time>2026-04-25T08:49:10.999Z</time></trkpt><trkpt lat="43.11723061496066" lon="11.483890420776435"><ele>154.66666666666666</ele><time>2026-04-25T08:49:11.999Z</time></trkpt><trkpt lat="43.117039894849995" lon="11.483853428489795"><ele>158.0</ele><time>2026-04-25T08:49:12.999Z</time></trkpt><trkpt lat="43.11685158035841" lon="11.48378095270772"><ele>157.0</ele><time>2026-04-25T08:49:13.999Z</time></trkpt><trkpt lat="43.11669151111755" lon="11.483682034694935"><ele>156.0</ele><time>2026-04-25T08:49:14.999Z</time></trkpt><trkpt lat="43.11656285024474" lon="11.483600637428301"><ele>155.0</ele><time>2026-04-25T08:49:15.999Z</time></trkpt><trkpt lat="43.11643874197444" lon="11.48356649115093"><ele>154.0</ele><time>2026-04-25T08:49:16.999Z</time></trkpt><trkpt lat="43.11632539652288" lon="11.483579820437829"><ele>156.5</ele><time>2026-04-25T08:49:17.999Z</time></trkpt><trkpt lat="43.116233753828375" lon="11.483643532801745"><ele>159.0</ele><time>2026-04-25T08:49:18.999Z</time></trkpt><trkpt lat="43.11615830629212" lon="11.483765191596804"><ele>161.5</ele><time>2026-04-25T08:49:19.999Z</time></trkpt><trkpt lat="43.11610044632037" lon="11.483922346090829"><ele>164.0</ele><time>2026-04-25T08:49:20.999Z</time></trkpt><trkpt lat="43.11606216654973" lon="11.48410698688625"><ele>164.5</ele><time>2026-04-25T08:49:21.999Z</time></trkpt><trkpt lat="43.116020136370864" lon="11.48429217366745"><ele>165.0</ele><time>2026-04-25T08:49:22.999Z</time></trkpt><trkpt lat="43.11595818349017" lon="11.484468515930017"><ele>165.5</ele><time>2026-04-25T08:49:23.999Z</time></trkpt><trkpt lat="43.115857970960164" lon="11.484636788369503"><ele>166.0</ele><time>2026-04-25T08:49:24.999Z</time></trkpt><trkpt lat="43.11571978768926" lon="11.48479040603228"><ele>168.0</ele><time>2026-04-25T08:49:25.999Z</time></trkpt><trkpt lat="43.11555839906658" lon="11.484913998882597"><ele>170.0</ele><time>2026-04-25T08:49:26.999Z</time></trkpt><trkpt lat="43.1153986878647" lon="11.48502391503371"><ele>172.0</ele><time>2026-04-25T08:49:27.999Z</time></trkpt><trkpt lat="43.115247452571126" lon="11.485149125634038"><ele>172.0</ele><time>2026-04-25T08:49:28.999Z</time></trkpt><trkpt lat="43.115102307552846" lon="11.485276407605143"><ele>172.0</ele><time>2026-04-25T08:49:29.999Z</time></trkpt><trkpt lat="43.11496292760089" lon="11.48538812824599"><ele>172.0</ele><time>2026-04-25T08:49:30.999Z</time></trkpt><trkpt lat="43.11482510247417" lon="11.485492174670998"><ele>173.33333333333334</ele><time>2026-04-25T08:49:31.999Z</time></trkpt><trkpt lat="43.114691020829845" lon="11.485598861799883"><ele>174.66666666666666</ele><time>2026-04-25T08:49:32.999Z</time></trkpt><trkpt lat="43.114558012834884" lon="11.485707764079008"><ele>176.0</ele><time>2026-04-25T08:49:33.999Z</time></trkpt><trkpt lat="43.11442858688919" lon="11.48580978742291"><ele>176.0</ele><time>2026-04-25T08:49:34.999Z</time></trkpt><trkpt lat="43.11430432867197" lon="11.485905797857484"><ele>176.0</ele><time>2026-04-25T08:49:35.999Z</time></trkpt><trkpt lat="43.11417837224096" lon="11.48600596921986"><ele>176.0</ele><time>2026-04-25T08:49:36.999Z</time></trkpt><trkpt lat="43.11404667205154" lon="11.486114167509474"><ele>176.0</ele><time>2026-04-25T08:49:37.999Z</time></trkpt><trkpt lat="43.11390554928775" lon="11.486226220554062"><ele>175.66666666666666</ele><time>2026-04-25T08:49:38.999Z</time></trkpt><trkpt lat="43.113764403049316" lon="11.486339327099591"><ele>175.33333333333334</ele><time>2026-04-25T08:49:39.999Z</time></trkpt><trkpt lat="43.11362556676651" lon="11.48645395135234"><ele>175.0</ele><time>2026-04-25T08:49:40.999Z</time></trkpt><trkpt lat="43.113489070493436" lon="11.486570873926656"><ele>175.0</ele><time>2026-04-25T08:49:41.999Z</time></trkpt><trkpt lat="43.1133508099345" lon="11.486691429129596"><ele>175.0</ele><time>2026-04-25T08:49:42.999Z</time></trkpt><trkpt lat="43.113211171689194" lon="11.486813052322303"><ele>175.0</ele><time>2026-04-25T08:49:43.999Z</time></trkpt><trkpt lat="43.113071583906404" lon="11.486931794676305"><ele>174.33333333333334</ele><time>2026-04-25T08:49:44.999Z</time></trkpt><trkpt lat="43.11293529838449" lon="11.487046624390914"><ele>173.66666666666666</ele><time>2026-04-25T08:49:45.999Z</time></trkpt><trkpt lat="43.11280278711813" lon="11.487157957859157"><ele>173.0</ele><time>2026-04-25T08:49:46.999Z</time></trkpt><trkpt lat="43.1126724247774" lon="11.48726730308261"><ele>173.0</ele><time>2026-04-25T08:49:47.999Z</time></trkpt><trkpt lat="43.11254385596836" lon="11.487378222130284"><ele>173.0</ele><time>2026-04-25T08:49:48.998Z</time></trkpt><trkpt lat="43.11241748523128" lon="11.487504553782315"><ele>173.0</ele><time>2026-04-25T08:49:49.998Z</time></trkpt><trkpt lat="43.112300559355376" lon="11.487651329038796"><ele>171.0</ele><time>2026-04-25T08:49:50.998Z</time></trkpt><trkpt lat="43.11219920822047" lon="11.487824414590792"><ele>169.0</ele><time>2026-04-25T08:49:51.998Z</time></trkpt><trkpt lat="43.11210571319296" lon="11.488019881833976"><ele>167.0</ele><time>2026-04-25T08:49:52.998Z</time></trkpt><trkpt lat="43.11201333523714" lon="11.488224437656157"><ele>167.0</ele><time>2026-04-25T08:49:53.998Z</time></trkpt><trkpt lat="43.11191824750556" lon="11.488432309641633"><ele>167.0</ele><time>2026-04-25T08:49:54.998Z</time></trkpt><trkpt lat="43.111821377799615" lon="11.488633945192124"><ele>167.0</ele><time>2026-04-25T08:49:55.998Z</time></trkpt><trkpt lat="43.111729504260786" lon="11.488830017056793"><ele>167.33333333333331</ele><time>2026-04-25T08:49:56.998Z</time></trkpt><trkpt lat="43.1116400221592" lon="11.489023529620523"><ele>167.66666666666666</ele><time>2026-04-25T08:49:57.998Z</time></trkpt><trkpt lat="43.11155565069797" lon="11.489212260805207"><ele>168.0</ele><time>2026-04-25T08:49:58.998Z</time></trkpt><trkpt lat="43.111477907540014" lon="11.489400348811998"><ele>167.0</ele><time>2026-04-25T08:49:59.998Z</time></trkpt><trkpt lat="43.11140883995088" lon="11.489579772087733"><ele>166.0</ele><time>2026-04-25T08:50:00.998Z</time></trkpt><trkpt lat="43.1113405803905" lon="11.489755220521914"><ele>165.0</ele><time>2026-04-25T08:50:01.998Z</time></trkpt><trkpt lat="43.1112645835428" lon="11.489924964493403"><ele>164.0</ele><time>2026-04-25T08:50:02.998Z</time></trkpt><trkpt lat="43.11117724908015" lon="11.490082774842913"><ele>164.0</ele><time>2026-04-25T08:50:03.998Z</time></trkpt><trkpt lat="43.11107984806259" lon="11.490226451186238"><ele>164.0</ele><time>2026-04-25T08:50:04.998Z</time></trkpt><trkpt lat="43.11097204744312" lon="11.490363768224611"><ele>164.0</ele><time>2026-04-25T08:50:05.998Z</time></trkpt><trkpt lat="43.110864184097004" lon="11.49050163475582"><ele>164.0</ele><time>2026-04-25T08:50:06.998Z</time></trkpt><trkpt lat="43.110764611250296" lon="11.490639349058224"><ele>162.0</ele><time>2026-04-25T08:50:07.998Z</time></trkpt><trkpt lat="43.11066924571909" lon="11.490770935229765"><ele>160.0</ele><time>2026-04-25T08:50:08.998Z</time></trkpt><trkpt lat="43.110575788985024" lon="11.490908098685575"><ele>158.0</ele><time>2026-04-25T08:50:09.998Z</time></trkpt><trkpt lat="43.11048492123717" lon="11.491061061161512"><ele>156.0</ele><time>2026-04-25T08:50:10.998Z</time></trkpt><trkpt lat="43.11040030444035" lon="11.49122299776534"><ele>156.5</ele><time>2026-04-25T08:50:11.998Z</time></trkpt><trkpt lat="43.11032485162836" lon="11.491386226383314"><ele>157.0</ele><time>2026-04-25T08:50:12.998Z</time></trkpt><trkpt lat="43.110254069667214" lon="11.491548500175758"><ele>157.5</ele><time>2026-04-25T08:50:13.998Z</time></trkpt><trkpt lat="43.11018504340841" lon="11.49170905333758"><ele>158.0</ele><time>2026-04-25T08:50:14.998Z</time></trkpt><trkpt lat="43.110117586510924" lon="11.49186696818656"><ele>158.0</ele><time>2026-04-25T08:50:15.998Z</time></trkpt><trkpt lat="43.11005900772744" lon="11.492022391854274"><ele>158.0</ele><time>2026-04-25T08:50:16.998Z</time></trkpt><trkpt lat="43.11001763283099" lon="11.4921851553057"><ele>158.0</ele><time>2026-04-25T08:50:17.998Z</time></trkpt><trkpt lat="43.10999545438079" lon="11.492362414570126"><ele>158.0</ele><time>2026-04-25T08:50:18.998Z</time></trkpt><trkpt lat="43.10998557997103" lon="11.49255399290653"><ele>158.0</ele><time>2026-04-25T08:50:19.998Z</time></trkpt><trkpt lat="43.109978816766215" lon="11.492749431299346"><ele>158.0</ele><time>2026-04-25T08:50:20.998Z</time></trkpt><trkpt lat="43.10997081345758" lon="11.492936636213631"><ele>158.0</ele><time>2026-04-25T08:50:21.998Z</time></trkpt><trkpt lat="43.109961773018874" lon="11.493114729443379"><ele>158.0</ele><time>2026-04-25T08:50:22.998Z</time></trkpt><trkpt lat="43.10995380709248" lon="11.493284539911402"><ele>157.5</ele><time>2026-04-25T08:50:23.998Z</time></trkpt><trkpt lat="43.10994791648267" lon="11.493442945238105"><ele>157.0</ele><time>2026-04-25T08:50:24.998Z</time></trkpt><trkpt lat="43.109942429109026" lon="11.493593314149756"><ele>156.5</ele><time>2026-04-25T08:50:25.998Z</time></trkpt><trkpt lat="43.10993568567337" lon="11.493744939223086"><ele>156.0</ele><time>2026-04-25T08:50:26.998Z</time></trkpt><trkpt lat="43.10992646620987" lon="11.49390657807478"><ele>155.8</ele><time>2026-04-25T08:50:27.998Z</time></trkpt><trkpt lat="43.10990998476208" lon="11.494069620311132"><ele>155.6</ele><time>2026-04-25T08:50:28.998Z</time></trkpt><trkpt lat="43.10988286610504" lon="11.49422747951468"><ele>155.4</ele><time>2026-04-25T08:50:29.998Z</time></trkpt><trkpt lat="43.10984810980355" lon="11.494380783481038"><ele>155.2</ele><time>2026-04-25T08:50:30.998Z</time></trkpt><trkpt lat="43.10981520606029" lon="11.494500994568543"><ele>155.0</ele><time>2026-04-25T08:50:31.998Z</time></trkpt><trkpt lat="43.10978326420839" lon="11.494605649854076"><ele>153.0</ele><time>2026-04-25T08:50:32.998Z</time></trkpt><trkpt lat="43.10974706912467" lon="11.494713257095253"><ele>151.0</ele><time>2026-04-25T08:50:33.998Z</time></trkpt><trkpt lat="43.109699413388945" lon="11.494848085539465"><ele>149.0</ele><time>2026-04-25T08:50:34.998Z</time></trkpt><trkpt lat="43.1096439292003" lon="11.495005853674389"><ele>147.0</ele><time>2026-04-25T08:50:35.998Z</time></trkpt><trkpt lat="43.109579263502454" lon="11.495172382339451"><ele>147.0</ele><time>2026-04-25T08:50:36.998Z</time></trkpt><trkpt lat="43.10950268228781" lon="11.49534456695092"><ele>147.0</ele><time>2026-04-25T08:50:37.997Z</time></trkpt><trkpt lat="43.10942186652582" lon="11.49554833670916"><ele>147.0</ele><time>2026-04-25T08:50:38.997Z</time></trkpt><trkpt lat="43.109326036737976" lon="11.495790317758994"><ele>148.0</ele><time>2026-04-25T08:50:39.997Z</time></trkpt><trkpt lat="43.1092062725412" lon="11.496051480278043"><ele>149.0</ele><time>2026-04-25T08:50:40.997Z</time></trkpt><trkpt lat="43.10907543059569" lon="11.496316772070049"><ele>149.0</ele><time>2026-04-25T08:50:41.997Z</time></trkpt><trkpt lat="43.1089509909934" lon="11.496566793344233"><ele>149.0</ele><time>2026-04-25T08:50:42.997Z</time></trkpt><trkpt lat="43.108842971949336" lon="11.4968155693747"><ele>149.0</ele><time>2026-04-25T08:50:43.997Z</time></trkpt><trkpt lat="43.10874334206115" lon="11.497048550763253"><ele>149.0</ele><time>2026-04-25T08:50:44.997Z</time></trkpt><trkpt lat="43.10864410975223" lon="11.497263495842851"><ele>149.0</ele><time>2026-04-25T08:50:45.997Z</time></trkpt><trkpt lat="43.10853841477573" lon="11.497456396405173"><ele>149.0</ele><time>2026-04-25T08:50:46.997Z</time></trkpt><trkpt lat="43.108415595279325" lon="11.497613776207496"><ele>149.0</ele><time>2026-04-25T08:50:47.997Z</time></trkpt><trkpt lat="43.108261115533374" lon="11.497738599718565"><ele>149.0</ele><time>2026-04-25T08:50:48.997Z</time></trkpt><trkpt lat="43.108076374627764" lon="11.497838838497113"><ele>149.0</ele><time>2026-04-25T08:50:49.997Z</time></trkpt><trkpt lat="43.107864927160534" lon="11.49791022001743"><ele>148.5</ele><time>2026-04-25T08:50:50.997Z</time></trkpt><trkpt lat="43.10763101997869" lon="11.497983633942463"><ele>148.0</ele><time>2026-04-25T08:50:52Z</time></trkpt><trkpt lat="43.10739987416105" lon="11.498057383306966"><ele>149.33333333333334</ele><time>2026-04-25T08:50:53Z</time></trkpt><trkpt lat="43.10718832115431" lon="11.49812606678782"><ele>150.66666666666666</ele><time>2026-04-25T08:50:54Z</time></trkpt><trkpt lat="43.10699114215205" lon="11.498189495003203"><ele>152.0</ele><time>2026-04-25T08:50:55Z</time></trkpt><trkpt lat="43.10680659507682" lon="11.49825101845744"><ele>152.0</ele><time>2026-04-25T08:50:56Z</time></trkpt><trkpt lat="43.106637048217166" lon="11.498313823536835"><ele>152.0</ele><time>2026-04-25T08:50:57Z</time></trkpt><trkpt lat="43.10648277772095" lon="11.498397747952499"><ele>152.0</ele><time>2026-04-25T08:50:58Z</time></trkpt><trkpt lat="43.10634788659355" lon="11.49851425125982"><ele>155.66666666666666</ele><time>2026-04-25T08:50:59Z</time></trkpt><trkpt lat="43.10623034885616" lon="11.498670595883752"><ele>159.33333333333334</ele><time>2026-04-25T08:51:00Z</time></trkpt><trkpt lat="43.10613126863742" lon="11.49886264319152"><ele>163.0</ele><time>2026-04-25T08:51:01Z</time></trkpt><trkpt lat="43.10605996478741" lon="11.499076281794823"><ele>163.0</ele><time>2026-04-25T08:51:02Z</time></trkpt><trkpt lat="43.10602287098878" lon="11.49931477916736"><ele>163.0</ele><time>2026-04-25T08:51:03Z</time></trkpt><trkpt lat="43.106009697996065" lon="11.499580585294776"><ele>163.0</ele><time>2026-04-25T08:51:04Z</time></trkpt><trkpt lat="43.106002416242966" lon="11.499876272857179"><ele>161.5</ele><time>2026-04-25T08:51:05Z</time></trkpt><trkpt lat="43.10598445929292" lon="11.500187183452285"><ele>160.0</ele><time>2026-04-25T08:51:06Z</time></trkpt><trkpt lat="43.10596559517171" lon="11.500493910756754"><ele>159.5</ele><time>2026-04-25T08:51:07Z</time></trkpt><trkpt lat="43.10594853523445" lon="11.500824218162114"><ele>159.0</ele><time>2026-04-25T08:51:08Z</time></trkpt><trkpt lat="43.10592779419613" lon="11.501152600929343"><ele>157.5</ele><time>2026-04-25T08:51:09Z</time></trkpt><trkpt lat="43.10590794099939" lon="11.501471526188723"><ele>156.0</ele><time>2026-04-25T08:51:10Z</time></trkpt><trkpt lat="43.10589560509017" lon="11.501791111938674"><ele>154.5</ele><time>2026-04-25T08:51:11Z</time></trkpt><trkpt lat="43.1058772445274" lon="11.502107659620624"><ele>153.0</ele><time>2026-04-25T08:51:12Z</time></trkpt><trkpt lat="43.10585770250381" lon="11.502424105112327"><ele>153.0</ele><time>2026-04-25T08:51:13Z</time></trkpt><trkpt lat="43.10584193257859" lon="11.502742521885466"><ele>153.0</ele><time>2026-04-25T08:51:14Z</time></trkpt><trkpt lat="43.1058291531128" lon="11.503064024362827"><ele>152.5</ele><time>2026-04-25T08:51:15Z</time></trkpt><trkpt lat="43.105812930609986" lon="11.503385250107524"><ele>152.0</ele><time>2026-04-25T08:51:15.999Z</time></trkpt><trkpt lat="43.10579368266505" lon="11.503703632376837"><ele>153.5</ele><time>2026-04-25T08:51:16.999Z</time></trkpt><trkpt lat="43.10577652115544" lon="11.504019553089726"><ele>155.0</ele><time>2026-04-25T08:51:17.999Z</time></trkpt><trkpt lat="43.10576463946733" lon="11.504327808364662"><ele>155.33333333333331</ele><time>2026-04-25T08:51:18.999Z</time></trkpt><trkpt lat="43.105750652859804" lon="11.504628191957497"><ele>155.66666666666666</ele><time>2026-04-25T08:51:19.999Z</time></trkpt><trkpt lat="43.10573435133986" lon="11.504919859821445"><ele>156.0</ele><time>2026-04-25T08:51:20.999Z</time></trkpt><trkpt lat="43.10571819779505" lon="11.505194480547853"><ele>160.66666666666666</ele><time>2026-04-25T08:51:21.999Z</time></trkpt><trkpt lat="43.10569551501764" lon="11.50546166696003"><ele>165.33333333333331</ele><time>2026-04-25T08:51:22.999Z</time></trkpt><trkpt lat="43.10565419127869" lon="11.505738210830783"><ele>170.0</ele><time>2026-04-25T08:51:23.999Z</time></trkpt><trkpt lat="43.10558774579486" lon="11.506022852936718"><ele>169.0</ele><time>2026-04-25T08:51:24.999Z</time></trkpt><trkpt lat="43.10549872284927" lon="11.506311854269658"><ele>168.0</ele><time>2026-04-25T08:51:25.999Z</time></trkpt><trkpt lat="43.105405325182886" lon="11.50660277295294"><ele>168.0</ele><time>2026-04-25T08:51:26.999Z</time></trkpt><trkpt lat="43.10532027897226" lon="11.506906537394514"><ele>168.0</ele><time>2026-04-25T08:51:27.999Z</time></trkpt><trkpt lat="43.10523468746302" lon="11.507225994053886"><ele>165.5</ele><time>2026-04-25T08:51:28.999Z</time></trkpt><trkpt lat="43.10514314087781" lon="11.507541038785828"><ele>163.0</ele><time>2026-04-25T08:51:29.999Z</time></trkpt><trkpt lat="43.10505078665268" lon="11.50785030677999"><ele>160.0</ele><time>2026-04-25T08:51:30.999Z</time></trkpt><trkpt lat="43.1049621740202" lon="11.508153588113165"><ele>157.0</ele><time>2026-04-25T08:51:31.999Z</time></trkpt><trkpt lat="43.10487468384446" lon="11.508459567439239"><ele>165.0</ele><time>2026-04-25T08:51:32.999Z</time></trkpt><trkpt lat="43.104788231677155" lon="11.50876571077241"><ele>173.0</ele><time>2026-04-25T08:51:33.999Z</time></trkpt><trkpt lat="43.10469852833303" lon="11.509067765537493"><ele>173.0</ele><time>2026-04-25T08:51:34.999Z</time></trkpt><trkpt lat="43.10461293037534" lon="11.509366551278525"><ele>173.0</ele><time>2026-04-25T08:51:35.999Z</time></trkpt><trkpt lat="43.10454777600397" lon="11.50966730972058"><ele>171.5</ele><time>2026-04-25T08:51:36.999Z</time></trkpt><trkpt lat="43.10449404386009" lon="11.509979191404053"><ele>170.0</ele><time>2026-04-25T08:51:37.999Z</time></trkpt><trkpt lat="43.10444995169291" lon="11.510306060767062"><ele>167.0</ele><time>2026-04-25T08:51:38.999Z</time></trkpt><trkpt lat="43.104405569450066" lon="11.510634193533098"><ele>164.0</ele><time>2026-04-25T08:51:39.999Z</time></trkpt><trkpt lat="43.10433758008327" lon="11.510957937460475"><ele>160.5</ele><time>2026-04-25T08:51:40.999Z</time></trkpt><trkpt lat="43.1042492963431" lon="11.511272843483564"><ele>157.0</ele><time>2026-04-25T08:51:41.999Z</time></trkpt><trkpt lat="43.104161674302645" lon="11.511588525093769"><ele>157.0</ele><time>2026-04-25T08:51:42.999Z</time></trkpt><trkpt lat="43.10408519134986" lon="11.511903763399648"><ele>157.0</ele><time>2026-04-25T08:51:43.999Z</time></trkpt><trkpt lat="43.104012122144965" lon="11.512197310520191"><ele>157.0</ele><time>2026-04-25T08:51:44.999Z</time></trkpt><trkpt lat="43.103932162294434" lon="11.51246770780761"><ele>157.0</ele><time>2026-04-25T08:51:45.999Z</time></trkpt><trkpt lat="43.103848909491695" lon="11.51270919752868"><ele>157.0</ele><time>2026-04-25T08:51:46.999Z</time></trkpt><trkpt lat="43.10376642711589" lon="11.512946892075858"><ele>157.0</ele><time>2026-04-25T08:51:47.999Z</time></trkpt><trkpt lat="43.10369575708588" lon="11.513215038073314"><ele>157.0</ele><time>2026-04-25T08:51:48.999Z</time></trkpt><trkpt lat="43.103644471779354" lon="11.513503769618538"><ele>157.0</ele><time>2026-04-25T08:51:49.999Z</time></trkpt><trkpt lat="43.10358371208898" lon="11.513793396164768"><ele>157.0</ele><time>2026-04-25T08:51:50.999Z</time></trkpt><trkpt lat="43.103483350358005" lon="11.51408095115383"><ele>157.0</ele><time>2026-04-25T08:51:51.999Z</time></trkpt><trkpt lat="43.10336771417674" lon="11.514346753134996"><ele>157.0</ele><time>2026-04-25T08:51:52.999Z</time></trkpt><trkpt lat="43.103271726073714" lon="11.51461901201946"><ele>157.0</ele><time>2026-04-25T08:51:53.999Z</time></trkpt><trkpt lat="43.10320150217069" lon="11.514913238538695"><ele>157.0</ele><time>2026-04-25T08:51:54.999Z</time></trkpt><trkpt lat="43.10315300556544" lon="11.515224987416712"><ele>162.66666666666669</ele><time>2026-04-25T08:51:55.999Z</time></trkpt><trkpt lat="43.10311848652116" lon="11.515536973319922"><ele>168.33333333333334</ele><time>2026-04-25T08:51:56.999Z</time></trkpt><trkpt lat="43.10309259179304" lon="11.515828233944072"><ele>174.0</ele><time>2026-04-25T08:51:57.999Z</time></trkpt><trkpt lat="43.103066965791605" lon="11.51610381238892"><ele>172.66666666666666</ele><time>2026-04-25T08:51:58.999Z</time></trkpt><trkpt lat="43.10303179546007" lon="11.516385666411136"><ele>171.33333333333331</ele><time>2026-04-25T08:51:59.999Z</time></trkpt><trkpt lat="43.10298588828502" lon="11.51665983843562"><ele>170.0</ele><time>2026-04-25T08:52:00.999Z</time></trkpt><trkpt lat="43.10292640639708" lon="11.516912183986847"><ele>168.33333333333331</ele><time>2026-04-25T08:52:01.999Z</time></trkpt><trkpt lat="43.102845811182796" lon="11.51715493078708"><ele>166.66666666666666</ele><time>2026-04-25T08:52:02.999Z</time></trkpt><trkpt lat="43.10274066358145" lon="11.517382250459786"><ele>165.0</ele><time>2026-04-25T08:52:03.999Z</time></trkpt><trkpt lat="43.10260977287218" lon="11.517593109832081"><ele>165.0</ele><time>2026-04-25T08:52:04.999Z</time></trkpt><trkpt lat="43.10246796856672" lon="11.517784294641462"><ele>165.0</ele><time>2026-04-25T08:52:05.999Z</time></trkpt><trkpt lat="43.10234110980309" lon="11.517969450853645"><ele>165.0</ele><time>2026-04-25T08:52:06.999Z</time></trkpt><trkpt lat="43.10223917934852" lon="11.518173994336104"><ele>165.66666666666666</ele><time>2026-04-25T08:52:07.998Z</time></trkpt><trkpt lat="43.10216449145813" lon="11.518374595991935"><ele>166.33333333333331</ele><time>2026-04-25T08:52:08.998Z</time></trkpt><trkpt lat="43.10209272143673" lon="11.518555200074456"><ele>167.0</ele><time>2026-04-25T08:52:09.998Z</time></trkpt><trkpt lat="43.101991581475964" lon="11.518721604266734"><ele>166.0</ele><time>2026-04-25T08:52:10.998Z</time></trkpt><trkpt lat="43.10185581280014" lon="11.51885875003379"><ele>165.0</ele><time>2026-04-25T08:52:11.998Z</time></trkpt><trkpt lat="43.1017138943478" lon="11.518964192432033"><ele>164.0</ele><time>2026-04-25T08:52:12.998Z</time></trkpt><trkpt lat="43.101588868264024" lon="11.519063025487997"><ele>166.66666666666666</ele><time>2026-04-25T08:52:13.998Z</time></trkpt><trkpt lat="43.10147921959113" lon="11.519211150274845"><ele>169.33333333333334</ele><time>2026-04-25T08:52:14.998Z</time></trkpt><trkpt lat="43.10138644969217" lon="11.519409287200126"><ele>172.0</ele><time>2026-04-25T08:52:15.998Z</time></trkpt><trkpt lat="43.101310471719415" lon="11.51964709090107"><ele>172.0</ele><time>2026-04-25T08:52:16.998Z</time></trkpt><trkpt lat="43.101226503183256" lon="11.519918095140996"><ele>172.0</ele><time>2026-04-25T08:52:17.998Z</time></trkpt><trkpt lat="43.10111335279212" lon="11.520189109359839"><ele>172.0</ele><time>2026-04-25T08:52:18.998Z</time></trkpt><trkpt lat="43.100993297986115" lon="11.520455406838607"><ele>167.5</ele><time>2026-04-25T08:52:19.998Z</time></trkpt><trkpt lat="43.10087008858774" lon="11.520714467889102"><ele>163.0</ele><time>2026-04-25T08:52:20.998Z</time></trkpt><trkpt lat="43.100725784389354" lon="11.520959719423027"><ele>163.0</ele><time>2026-04-25T08:52:21.998Z</time></trkpt><trkpt lat="43.10056209173338" lon="11.521188462353392"><ele>163.0</ele><time>2026-04-25T08:52:22.998Z</time></trkpt><trkpt lat="43.1003916459961" lon="11.521394963171605"><ele>163.66666666666669</ele><time>2026-04-25T08:52:23.998Z</time></trkpt><trkpt lat="43.100220557224795" lon="11.52159498525697"><ele>164.33333333333334</ele><time>2026-04-25T08:52:24.998Z</time></trkpt><trkpt lat="43.10006159974054" lon="11.521796267504824"><ele>165.0</ele><time>2026-04-25T08:52:25.998Z</time></trkpt><trkpt lat="43.09991390690024" lon="11.521986600307002"><ele>165.33333333333334</ele><time>2026-04-25T08:52:26.998Z</time></trkpt><trkpt lat="43.09976476240024" lon="11.522152258109758"><ele>165.66666666666669</ele><time>2026-04-25T08:52:27.998Z</time></trkpt><trkpt lat="43.0996041493145" lon="11.522285638828116"><ele>166.0</ele><time>2026-04-25T08:52:28.998Z</time></trkpt><trkpt lat="43.09943659473761" lon="11.522392025246367"><ele>166.0</ele><time>2026-04-25T08:52:29.998Z</time></trkpt><trkpt lat="43.09928302137617" lon="11.522519888417584"><ele>166.0</ele><time>2026-04-25T08:52:30.998Z</time></trkpt><trkpt lat="43.09913793163994" lon="11.52268294070099"><ele>166.0</ele><time>2026-04-25T08:52:31.998Z</time></trkpt><trkpt lat="43.098994079572606" lon="11.522862079155741"><ele>167.66666666666669</ele><time>2026-04-25T08:52:32.998Z</time></trkpt><trkpt lat="43.09885741009291" lon="11.52303660703231"><ele>169.33333333333334</ele><time>2026-04-25T08:52:33.998Z</time></trkpt><trkpt lat="43.098727601850875" lon="11.523196230668113"><ele>171.0</ele><time>2026-04-25T08:52:34.998Z</time></trkpt><trkpt lat="43.09859689475368" lon="11.52335233847166"><ele>171.0</ele><time>2026-04-25T08:52:35.998Z</time></trkpt><trkpt lat="43.09846848026651" lon="11.523515516586697"><ele>171.0</ele><time>2026-04-25T08:52:36.998Z</time></trkpt><trkpt lat="43.09833703617274" lon="11.523683455830442"><ele>171.0</ele><time>2026-04-25T08:52:37.998Z</time></trkpt><trkpt lat="43.09819909400364" lon="11.523849297079341"><ele>171.0</ele><time>2026-04-25T08:52:38.998Z</time></trkpt><trkpt lat="43.09806180769987" lon="11.524012635879638"><ele>171.0</ele><time>2026-04-25T08:52:39.998Z</time></trkpt><trkpt lat="43.09792089399429" lon="11.524174755797736"><ele>171.0</ele><time>2026-04-25T08:52:40.998Z</time></trkpt><trkpt lat="43.09777459137736" lon="11.524332414521798"><ele>171.0</ele><time>2026-04-25T08:52:41.998Z</time></trkpt><trkpt lat="43.097625258173224" lon="11.524489296247912"><ele>171.0</ele><time>2026-04-25T08:52:42.998Z</time></trkpt><trkpt lat="43.097474525223326" lon="11.524653060863242"><ele>171.0</ele><time>2026-04-25T08:52:43.998Z</time></trkpt><trkpt lat="43.097321015159196" lon="11.52481998744068"><ele>168.66666666666666</ele><time>2026-04-25T08:52:44.998Z</time></trkpt><trkpt lat="43.09715714013021" lon="11.524994490636907"><ele>166.33333333333331</ele><time>2026-04-25T08:52:45.998Z</time></trkpt><trkpt lat="43.09698828398264" lon="11.525170361057729"><ele>164.0</ele><time>2026-04-25T08:52:46.998Z</time></trkpt><trkpt lat="43.096818190781335" lon="11.52535358809887"><ele>163.5</ele><time>2026-04-25T08:52:47.998Z</time></trkpt><trkpt lat="43.096640678380545" lon="11.525556062242417"><ele>163.0</ele><time>2026-04-25T08:52:48.998Z</time></trkpt><trkpt lat="43.09645464162213" lon="11.525773552721091"><ele>165.5</ele><time>2026-04-25T08:52:49.998Z</time></trkpt><trkpt lat="43.09625615034173" lon="11.525990050002749"><ele>168.0</ele><time>2026-04-25T08:52:50.998Z</time></trkpt><trkpt lat="43.096048063835774" lon="11.526197909594105"><ele>166.5</ele><time>2026-04-25T08:52:51.998Z</time></trkpt><trkpt lat="43.09584152611982" lon="11.52640853174818"><ele>165.0</ele><time>2026-04-25T08:52:52.998Z</time></trkpt><trkpt lat="43.09563500088999" lon="11.52664456705435"><ele>166.0</ele><time>2026-04-25T08:52:53.998Z</time></trkpt><trkpt lat="43.09543461421903" lon="11.52689940383355"><ele>167.0</ele><time>2026-04-25T08:52:54.998Z</time></trkpt><trkpt lat="43.09524924889526" lon="11.52716048201057"><ele>167.0</ele><time>2026-04-25T08:52:55.998Z</time></trkpt><trkpt lat="43.09507529775502" lon="11.527434068663654"><ele>167.0</ele><time>2026-04-25T08:52:56.998Z</time></trkpt><trkpt lat="43.09490622256801" lon="11.527711918017223"><ele>168.0</ele><time>2026-04-25T08:52:58Z</time></trkpt><trkpt lat="43.09474722057125" lon="11.527996252579191"><ele>169.0</ele><time>2026-04-25T08:52:59Z</time></trkpt><trkpt lat="43.09459673168827" lon="11.528290817528191"><ele>169.0</ele><time>2026-04-25T08:53:00Z</time></trkpt><trkpt lat="43.09445315447866" lon="11.528594447515157"><ele>169.0</ele><time>2026-04-25T08:53:01Z</time></trkpt><trkpt lat="43.0943150245548" lon="11.528912199367543"><ele>167.0</ele><time>2026-04-25T08:53:02Z</time></trkpt><trkpt lat="43.09418556943127" lon="11.52924258732928"><ele>165.0</ele><time>2026-04-25T08:53:03Z</time></trkpt><trkpt lat="43.09406700940596" lon="11.529575768152231"><ele>165.0</ele><time>2026-04-25T08:53:04Z</time></trkpt><trkpt lat="43.09396039101364" lon="11.529909425745798"><ele>165.0</ele><time>2026-04-25T08:53:05Z</time></trkpt><trkpt lat="43.09386477900209" lon="11.530242199585928"><ele>165.0</ele><time>2026-04-25T08:53:06Z</time></trkpt><trkpt lat="43.093779879889645" lon="11.530575363620883"><ele>165.0</ele><time>2026-04-25T08:53:07Z</time></trkpt><trkpt lat="43.09370260656138" lon="11.530908859236574"><ele>167.0</ele><time>2026-04-25T08:53:08Z</time></trkpt><trkpt lat="43.09363203446944" lon="11.531246901917287"><ele>169.0</ele><time>2026-04-25T08:53:09Z</time></trkpt><trkpt lat="43.09356811407682" lon="11.531592973917625"><ele>169.0</ele><time>2026-04-25T08:53:10Z</time></trkpt><trkpt lat="43.093516167812375" lon="11.531946552519486"><ele>169.0</ele><time>2026-04-25T08:53:11Z</time></trkpt><trkpt lat="43.09347347655503" lon="11.532305480839259"><ele>171.5</ele><time>2026-04-25T08:53:12Z</time></trkpt><trkpt lat="43.093436086411316" lon="11.532652315032061"><ele>174.0</ele><time>2026-04-25T08:53:13Z</time></trkpt><trkpt lat="43.09340493915309" lon="11.532989607445318"><ele>176.5</ele><time>2026-04-25T08:53:14Z</time></trkpt><trkpt lat="43.09337514734367" lon="11.533316752374693"><ele>179.0</ele><time>2026-04-25T08:53:15Z</time></trkpt><trkpt lat="43.093346474370406" lon="11.533636717051216"><ele>182.0</ele><time>2026-04-25T08:53:16Z</time></trkpt><trkpt lat="43.09331704530641" lon="11.533952749941065"><ele>185.0</ele><time>2026-04-25T08:53:17Z</time></trkpt><trkpt lat="43.09328832639409" lon="11.534260263121695"><ele>185.0</ele><time>2026-04-25T08:53:18Z</time></trkpt><trkpt lat="43.09325968381351" lon="11.5345666674638"><ele>185.0</ele><time>2026-04-25T08:53:19Z</time></trkpt><trkpt lat="43.09322895542003" lon="11.534874817512295"><ele>185.0</ele><time>2026-04-25T08:53:20Z</time></trkpt><trkpt lat="43.0931921061455" lon="11.535186196697916"><ele>185.0</ele><time>2026-04-25T08:53:21Z</time></trkpt><trkpt lat="43.09314531077733" lon="11.535497358638048"><ele>187.0</ele><time>2026-04-25T08:53:22Z</time></trkpt><trkpt lat="43.09308792711267" lon="11.535802999895406"><ele>189.0</ele><time>2026-04-25T08:53:23Z</time></trkpt><trkpt lat="43.093023579155144" lon="11.536105830702367"><ele>190.33333333333331</ele><time>2026-04-25T08:53:24Z</time></trkpt><trkpt lat="43.0929473815052" lon="11.536395972153729"><ele>191.66666666666666</ele><time>2026-04-25T08:53:25Z</time></trkpt><trkpt lat="43.09286296312577" lon="11.536678891002818"><ele>193.0</ele><time>2026-04-25T08:53:26Z</time></trkpt><trkpt lat="43.09276984126896" lon="11.536954419189621"><ele>195.66666666666666</ele><time>2026-04-25T08:53:27Z</time></trkpt><trkpt lat="43.09266623339055" lon="11.537223149802223"><ele>198.33333333333331</ele><time>2026-04-25T08:53:28Z</time></trkpt><trkpt lat="43.09255606400879" lon="11.537481028016852"><ele>201.0</ele><time>2026-04-25T08:53:28.999Z</time></trkpt><trkpt lat="43.092442580279474" lon="11.537730287913377"><ele>203.33333333333331</ele><time>2026-04-25T08:53:29.999Z</time></trkpt><trkpt lat="43.09232306820032" lon="11.537968774833216"><ele>205.66666666666666</ele><time>2026-04-25T08:53:30.999Z</time></trkpt><trkpt lat="43.09219713568313" lon="11.538199414445698"><ele>208.0</ele><time>2026-04-25T08:53:31.999Z</time></trkpt><trkpt lat="43.09206289994849" lon="11.538415282599734"><ele>208.0</ele><time>2026-04-25T08:53:32.999Z</time></trkpt><trkpt lat="43.09192465124937" lon="11.538623648429002"><ele>208.0</ele><time>2026-04-25T08:53:33.999Z</time></trkpt><trkpt lat="43.09178319560673" lon="11.53882038041457"><ele>208.0</ele><time>2026-04-25T08:53:34.999Z</time></trkpt><trkpt lat="43.09163522422386" lon="11.539004292631828"><ele>210.33333333333331</ele><time>2026-04-25T08:53:35.999Z</time></trkpt><trkpt lat="43.09148483162739" lon="11.539182967871115"><ele>212.66666666666669</ele><time>2026-04-25T08:53:36.999Z</time></trkpt><trkpt lat="43.0913328931098" lon="11.53935214391602"><ele>215.0</ele><time>2026-04-25T08:53:37.999Z</time></trkpt><trkpt lat="43.09117394028008" lon="11.539510043336977"><ele>217.66666666666669</ele><time>2026-04-25T08:53:38.999Z</time></trkpt><trkpt lat="43.091013085957876" lon="11.539660607205656"><ele>220.33333333333331</ele><time>2026-04-25T08:53:39.999Z</time></trkpt><trkpt lat="43.09084533570294" lon="11.539805188893443"><ele>223.0</ele><time>2026-04-25T08:53:40.999Z</time></trkpt><trkpt lat="43.09067286797705" lon="11.539938563971916"><ele>223.0</ele><time>2026-04-25T08:53:41.999Z</time></trkpt><trkpt lat="43.09050146998678" lon="11.540058005377674"><ele>223.0</ele><time>2026-04-25T08:53:42.999Z</time></trkpt><trkpt lat="43.090320184655276" lon="11.540171658467736"><ele>223.0</ele><time>2026-04-25T08:53:43.999Z</time></trkpt><trkpt lat="43.09012935349448" lon="11.540280466791735"><ele>223.0</ele><time>2026-04-25T08:53:44.999Z</time></trkpt><trkpt lat="43.08993867141331" lon="11.54038212698881"><ele>223.0</ele><time>2026-04-25T08:53:45.999Z</time></trkpt><trkpt lat="43.08973187522735" lon="11.540487171033071"><ele>223.0</ele><time>2026-04-25T08:53:46.999Z</time></trkpt><trkpt lat="43.08952445974613" lon="11.540606624671117"><ele>224.33333333333331</ele><time>2026-04-25T08:53:47.999Z</time></trkpt><trkpt lat="43.089309036830265" lon="11.540697835869294"><ele>225.66666666666669</ele><time>2026-04-25T08:53:48.999Z</time></trkpt><trkpt lat="43.0891020693757" lon="11.540805545570153"><ele>227.0</ele><time>2026-04-25T08:53:49.999Z</time></trkpt><trkpt lat="43.08890141369385" lon="11.540909970516411"><ele>227.0</ele><time>2026-04-25T08:53:50.999Z</time></trkpt><trkpt lat="43.088704623209324" lon="11.54101238392543"><ele>227.0</ele><time>2026-04-25T08:53:51.999Z</time></trkpt><trkpt lat="43.08851400748069" lon="11.541112998195336"><ele>227.0</ele><time>2026-04-25T08:53:52.999Z</time></trkpt><trkpt lat="43.08834000885363" lon="11.54122588503173"><ele>231.33333333333334</ele><time>2026-04-25T08:53:53.999Z</time></trkpt><trkpt lat="43.08817188883118" lon="11.541308716598865"><ele>235.66666666666669</ele><time>2026-04-25T08:53:54.999Z</time></trkpt><trkpt lat="43.08801051352416" lon="11.541391238945746"><ele>240.0</ele><time>2026-04-25T08:53:55.999Z</time></trkpt><trkpt lat="43.08785276574951" lon="11.541473531009245"><ele>240.0</ele><time>2026-04-25T08:53:56.999Z</time></trkpt><trkpt lat="43.08769497058221" lon="11.5415538640931"><ele>240.0</ele><time>2026-04-25T08:53:57.999Z</time></trkpt><trkpt lat="43.08753585993441" lon="11.541630552549764"><ele>240.0</ele><time>2026-04-25T08:53:58.999Z</time></trkpt><trkpt lat="43.08737645602175" lon="11.54170797463151"><ele>240.33333333333331</ele><time>2026-04-25T08:53:59.999Z</time></trkpt><trkpt lat="43.08722010874035" lon="11.54178832820789"><ele>240.66666666666666</ele><time>2026-04-25T08:54:00.999Z</time></trkpt><trkpt lat="43.08706203565301" lon="11.541874144445776"><ele>241.0</ele><time>2026-04-25T08:54:01.999Z</time></trkpt><trkpt lat="43.08690710423214" lon="11.541966500531249"><ele>245.33333333333331</ele><time>2026-04-25T08:54:02.999Z</time></trkpt><trkpt lat="43.08675191172373" lon="11.542069123046158"><ele>249.66666666666669</ele><time>2026-04-25T08:54:03.999Z</time></trkpt><trkpt lat="43.08659734897148" lon="11.542183066389645"><ele>254.0</ele><time>2026-04-25T08:54:04.999Z</time></trkpt><trkpt lat="43.08644864715893" lon="11.542306464527716"><ele>254.66666666666669</ele><time>2026-04-25T08:54:05.999Z</time></trkpt><trkpt lat="43.08629842410883" lon="11.542438142318947"><ele>255.33333333333331</ele><time>2026-04-25T08:54:06.999Z</time></trkpt><trkpt lat="43.086149621841116" lon="11.542577368608631"><ele>256.0</ele><time>2026-04-25T08:54:07.999Z</time></trkpt><trkpt lat="43.086004516922664" lon="11.54272871074275"><ele>258.66666666666663</ele><time>2026-04-25T08:54:08.999Z</time></trkpt><trkpt lat="43.08586252760499" lon="11.542895793857982"><ele>261.3333333333333</ele><time>2026-04-25T08:54:09.999Z</time></trkpt><trkpt lat="43.08572801568977" lon="11.543067027182788"><ele>264.0</ele><time>2026-04-25T08:54:10.999Z</time></trkpt><trkpt lat="43.08559808444623" lon="11.543245071230356"><ele>265.6666666666667</ele><time>2026-04-25T08:54:11.999Z</time></trkpt><trkpt lat="43.08547936654678" lon="11.543422074033337"><ele>267.33333333333337</ele><time>2026-04-25T08:54:12.999Z</time></trkpt><trkpt lat="43.08537340550663" lon="11.543595590836413"><ele>269.0</ele><time>2026-04-25T08:54:13.999Z</time></trkpt><trkpt lat="43.085267549910945" lon="11.543773531185066"><ele>269.33333333333337</ele><time>2026-04-25T08:54:14.999Z</time></trkpt><trkpt lat="43.085153766394804" lon="11.543961227235803"><ele>269.6666666666667</ele><time>2026-04-25T08:54:15.999Z</time></trkpt><trkpt lat="43.08502828231657" lon="11.544180413209826"><ele>270.0</ele><time>2026-04-25T08:54:17.058Z</time></trkpt><trkpt lat="43.08490617692294" lon="11.544397415094654"><ele>267.5</ele><time>2026-04-25T08:54:18.064Z</time></trkpt><trkpt lat="43.084778736150554" lon="11.544618906187237"><ele>265.0</ele><time>2026-04-25T08:54:19.062Z</time></trkpt><trkpt lat="43.08456268891627" lon="11.545017141827834"><ele>265.0</ele><time>2026-04-25T08:54:20.998Z</time></trkpt><trkpt lat="43.084470137683645" lon="11.545179070416927"><ele>265.0</ele><time>2026-04-25T08:54:21.998Z</time></trkpt><trkpt lat="43.08435168861711" lon="11.545401324023286"><ele>265.0</ele><time>2026-04-25T08:54:22.998Z</time></trkpt><trkpt lat="43.08420425018714" lon="11.545604995340963"><ele>266.0</ele><time>2026-04-25T08:54:23.998Z</time></trkpt><trkpt lat="43.084044983174806" lon="11.5457968426812"><ele>267.0</ele><time>2026-04-25T08:54:24.998Z</time></trkpt><trkpt lat="43.08387936778613" lon="11.545977792322743"><ele>268.0</ele><time>2026-04-25T08:54:25.998Z</time></trkpt><trkpt lat="43.083721325814146" lon="11.54614370585385"><ele>267.3333333333333</ele><time>2026-04-25T08:54:26.998Z</time></trkpt><trkpt lat="43.08356234621586" lon="11.546296706850704"><ele>266.6666666666667</ele><time>2026-04-25T08:54:27.998Z</time></trkpt><trkpt lat="43.08339579443943" lon="11.54644320660521"><ele>266.0</ele><time>2026-04-25T08:54:28.998Z</time></trkpt><trkpt lat="43.08322510377959" lon="11.546581059428094"><ele>266.0</ele><time>2026-04-25T08:54:29.998Z</time></trkpt><trkpt lat="43.08304782242123" lon="11.546708197413313"><ele>266.0</ele><time>2026-04-25T08:54:30.998Z</time></trkpt><trkpt lat="43.08286786986668" lon="11.546822379988264"><ele>266.0</ele><time>2026-04-25T08:54:31.998Z</time></trkpt><trkpt lat="43.08268519829985" lon="11.546927515654682"><ele>266.0</ele><time>2026-04-25T08:54:32.998Z</time></trkpt><trkpt lat="43.082496180209304" lon="11.547023565081908"><ele>266.0</ele><time>2026-04-25T08:54:33.998Z</time></trkpt><trkpt lat="43.08229835526845" lon="11.547106732775816"><ele>266.0</ele><time>2026-04-25T08:54:34.998Z</time></trkpt><trkpt lat="43.08209243350871" lon="11.547175586194882"><ele>261.0</ele><time>2026-04-25T08:54:35.998Z</time></trkpt><trkpt lat="43.08187985181681" lon="11.547228229730138"><ele>256.0</ele><time>2026-04-25T08:54:36.998Z</time></trkpt><trkpt lat="43.08166484172963" lon="11.54726113105767"><ele>251.0</ele><time>2026-04-25T08:54:37.998Z</time></trkpt><trkpt lat="43.08145182215934" lon="11.547288060929427"><ele>250.33333333333334</ele><time>2026-04-25T08:54:38.998Z</time></trkpt><trkpt lat="43.081245872870944" lon="11.547297251884391"><ele>249.66666666666669</ele><time>2026-04-25T08:54:39.998Z</time></trkpt><trkpt lat="43.081038889659176" lon="11.54729868245231"><ele>249.0</ele><time>2026-04-25T08:54:40.998Z</time></trkpt><trkpt lat="43.08081861191954" lon="11.547285486226723"><ele>247.33333333333331</ele><time>2026-04-25T08:54:41.998Z</time></trkpt><trkpt lat="43.08060559375416" lon="11.54725170543033"><ele>245.66666666666666</ele><time>2026-04-25T08:54:42.998Z</time></trkpt><trkpt lat="43.08039771851781" lon="11.547209404651595"><ele>244.0</ele><time>2026-04-25T08:54:43.998Z</time></trkpt><trkpt lat="43.0801882004082" lon="11.54714881734153"><ele>244.0</ele><time>2026-04-25T08:54:44.998Z</time></trkpt><trkpt lat="43.079985550352994" lon="11.547072409235376"><ele>244.0</ele><time>2026-04-25T08:54:45.998Z</time></trkpt><trkpt lat="43.07979473686795" lon="11.546992188265678"><ele>244.0</ele><time>2026-04-25T08:54:46.998Z</time></trkpt><trkpt lat="43.079608269909514" lon="11.546917759134022"><ele>244.0</ele><time>2026-04-25T08:54:47.998Z</time></trkpt><trkpt lat="43.07941584009243" lon="11.546848357191694"><ele>244.0</ele><time>2026-04-25T08:54:48.998Z</time></trkpt><trkpt lat="43.07921985123629" lon="11.546774682916066"><ele>244.0</ele><time>2026-04-25T08:54:49.998Z</time></trkpt><trkpt lat="43.07902134121344" lon="11.546702778634677"><ele>243.66666666666666</ele><time>2026-04-25T08:54:50.998Z</time></trkpt><trkpt lat="43.078823304581924" lon="11.546645153884663"><ele>243.33333333333331</ele><time>2026-04-25T08:54:51.998Z</time></trkpt><trkpt lat="43.07862620220345" lon="11.546602026388905"><ele>243.0</ele><time>2026-04-25T08:54:52.998Z</time></trkpt><trkpt lat="43.078426655316456" lon="11.546568536892705"><ele>243.0</ele><time>2026-04-25T08:54:53.998Z</time></trkpt><trkpt lat="43.07821846247418" lon="11.546547362107185"><ele>243.0</ele><time>2026-04-25T08:54:54.998Z</time></trkpt><trkpt lat="43.07800359135832" lon="11.546538393700478"><ele>243.0</ele><time>2026-04-25T08:54:55.998Z</time></trkpt><trkpt lat="43.07779153194696" lon="11.54653642153371"><ele>243.0</ele><time>2026-04-25T08:54:56.998Z</time></trkpt><trkpt lat="43.0775763424241" lon="11.546548282882103"><ele>243.0</ele><time>2026-04-25T08:54:57.998Z</time></trkpt><trkpt lat="43.07734482507503" lon="11.546589739232575"><ele>243.0</ele><time>2026-04-25T08:54:58.998Z</time></trkpt><trkpt lat="43.07709603640563" lon="11.546659165934294"><ele>244.5</ele><time>2026-04-25T08:54:59.998Z</time></trkpt><trkpt lat="43.07682918707275" lon="11.546733287736343"><ele>246.0</ele><time>2026-04-25T08:55:00.998Z</time></trkpt><trkpt lat="43.07654615538379" lon="11.546806238616393"><ele>248.0</ele><time>2026-04-25T08:55:01.998Z</time></trkpt><trkpt lat="43.07624747670778" lon="11.546866770750208"><ele>250.0</ele><time>2026-04-25T08:55:02.998Z</time></trkpt><trkpt lat="43.0759472928779" lon="11.546915889808165"><ele>248.5</ele><time>2026-04-25T08:55:04Z</time></trkpt><trkpt lat="43.0756407505048" lon="11.54697882428186"><ele>247.0</ele><time>2026-04-25T08:55:05Z</time></trkpt><trkpt lat="43.07533008498093" lon="11.547061348083496"><ele>247.0</ele><time>2026-04-25T08:55:06Z</time></trkpt><trkpt lat="43.075029997262035" lon="11.547136129608946"><ele>247.0</ele><time>2026-04-25T08:55:07Z</time></trkpt><trkpt lat="43.074740462905815" lon="11.547205303531008"><ele>248.0</ele><time>2026-04-25T08:55:08Z</time></trkpt><trkpt lat="43.07446046828218" lon="11.54727452522235"><ele>249.0</ele><time>2026-04-25T08:55:09Z</time></trkpt><trkpt lat="43.07419078877323" lon="11.547342824210116"><ele>248.5</ele><time>2026-04-25T08:55:10Z</time></trkpt><trkpt lat="43.073930760701394" lon="11.547408409565563"><ele>248.0</ele><time>2026-04-25T08:55:11Z</time></trkpt><trkpt lat="43.07367776560174" lon="11.547461029360717"><ele>248.0</ele><time>2026-04-25T08:55:12Z</time></trkpt><trkpt lat="43.073426809927405" lon="11.547492808986972"><ele>248.0</ele><time>2026-04-25T08:55:13Z</time></trkpt><trkpt lat="43.073174800035545" lon="11.547503182644737"><ele>246.0</ele><time>2026-04-25T08:55:14Z</time></trkpt><trkpt lat="43.0729210529544" lon="11.547498653840854"><ele>244.0</ele><time>2026-04-25T08:55:15Z</time></trkpt><trkpt lat="43.072673063245844" lon="11.54747729545784"><ele>242.5</ele><time>2026-04-25T08:55:16Z</time></trkpt><trkpt lat="43.072435310571066" lon="11.54743801736678"><ele>241.0</ele><time>2026-04-25T08:55:17Z</time></trkpt><trkpt lat="43.07220889608655" lon="11.54738582023157"><ele>241.0</ele><time>2026-04-25T08:55:18Z</time></trkpt><trkpt lat="43.07198724251939" lon="11.547319379535718"><ele>241.0</ele><time>2026-04-25T08:55:19Z</time></trkpt><trkpt lat="43.071760609421794" lon="11.547254802804051"><ele>241.33333333333331</ele><time>2026-04-25T08:55:20Z</time></trkpt><trkpt lat="43.07155729468768" lon="11.54717282306477"><ele>241.66666666666669</ele><time>2026-04-25T08:55:21Z</time></trkpt><trkpt lat="43.071361051976275" lon="11.547111575931446"><ele>242.0</ele><time>2026-04-25T08:55:22Z</time></trkpt><trkpt lat="43.071167532786795" lon="11.54705262897583"><ele>242.0</ele><time>2026-04-25T08:55:23Z</time></trkpt><trkpt lat="43.070964484719894" lon="11.546994410186265"><ele>242.0</ele><time>2026-04-25T08:55:24Z</time></trkpt><trkpt lat="43.07075355837902" lon="11.54694050346461"><ele>242.0</ele><time>2026-04-25T08:55:25Z</time></trkpt><trkpt lat="43.07054467525193" lon="11.54689189987847"><ele>242.33333333333334</ele><time>2026-04-25T08:55:26Z</time></trkpt><trkpt lat="43.07034151410166" lon="11.546873032609403"><ele>242.66666666666669</ele><time>2026-04-25T08:55:27Z</time></trkpt><trkpt lat="43.070140489803585" lon="11.546834288141374"><ele>243.0</ele><time>2026-04-25T08:55:28Z</time></trkpt><trkpt lat="43.069933936768116" lon="11.546813900956131"><ele>244.33333333333331</ele><time>2026-04-25T08:55:29Z</time></trkpt><trkpt lat="43.06972268673436" lon="11.546809782594385"><ele>245.66666666666666</ele><time>2026-04-25T08:55:30Z</time></trkpt><trkpt lat="43.069496180207764" lon="11.546832509798639"><ele>247.0</ele><time>2026-04-25T08:55:31Z</time></trkpt><trkpt lat="43.06925921806552" lon="11.54687309554701"><ele>246.66666666666666</ele><time>2026-04-25T08:55:32Z</time></trkpt><trkpt lat="43.06902995111816" lon="11.546911216303595"><ele>246.33333333333331</ele><time>2026-04-25T08:55:33Z</time></trkpt><trkpt lat="43.06881668071307" lon="11.546956872903765"><ele>246.0</ele><time>2026-04-25T08:55:34Z</time></trkpt><trkpt lat="43.06861122856966" lon="11.547022241900153"><ele>244.66666666666669</ele><time>2026-04-25T08:55:35Z</time></trkpt><trkpt lat="43.06840437159714" lon="11.547108989351672"><ele>243.33333333333334</ele><time>2026-04-25T08:55:36Z</time></trkpt><trkpt lat="43.06818987301933" lon="11.547205239932058"><ele>242.0</ele><time>2026-04-25T08:55:37Z</time></trkpt><trkpt lat="43.06796826107869" lon="11.547317512615091"><ele>240.5</ele><time>2026-04-25T08:55:38Z</time></trkpt><trkpt lat="43.06774404960973" lon="11.547466015413725"><ele>239.0</ele><time>2026-04-25T08:55:39Z</time></trkpt><trkpt lat="43.06751993361653" lon="11.547648531526193"><ele>239.5</ele><time>2026-04-25T08:55:40Z</time></trkpt><trkpt lat="43.067300841961156" lon="11.547853447170493"><ele>240.0</ele><time>2026-04-25T08:55:41Z</time></trkpt><trkpt lat="43.0670874936891" lon="11.548074821584935"><ele>240.5</ele><time>2026-04-25T08:55:41.999Z</time></trkpt><trkpt lat="43.06687483058003" lon="11.548314915935059"><ele>241.0</ele><time>2026-04-25T08:55:42.999Z</time></trkpt><trkpt lat="43.066670408792234" lon="11.548570790340627"><ele>239.5</ele><time>2026-04-25T08:55:43.999Z</time></trkpt><trkpt lat="43.06648427841194" lon="11.548846466316768"><ele>238.0</ele><time>2026-04-25T08:55:44.999Z</time></trkpt><trkpt lat="43.06631268742433" lon="11.549143786595101"><ele>238.0</ele><time>2026-04-25T08:55:45.999Z</time></trkpt><trkpt lat="43.06615362157839" lon="11.54945385978732"><ele>238.0</ele><time>2026-04-25T08:55:46.999Z</time></trkpt><trkpt lat="43.06600795942446" lon="11.5497782909861"><ele>237.5</ele><time>2026-04-25T08:55:47.999Z</time></trkpt><trkpt lat="43.06587336386704" lon="11.550116131102689"><ele>237.0</ele><time>2026-04-25T08:55:48.999Z</time></trkpt><trkpt lat="43.06574601877261" lon="11.55046628728611"><ele>234.5</ele><time>2026-04-25T08:55:49.999Z</time></trkpt><trkpt lat="43.065627964065136" lon="11.550817565013986"><ele>232.0</ele><time>2026-04-25T08:55:50.999Z</time></trkpt><trkpt lat="43.06551505556735" lon="11.551165344297672"><ele>232.5</ele><time>2026-04-25T08:55:51.999Z</time></trkpt><trkpt lat="43.065405542865534" lon="11.55151023413354"><ele>233.0</ele><time>2026-04-25T08:55:52.999Z</time></trkpt><trkpt lat="43.065296778069495" lon="11.551851256225113"><ele>234.0</ele><time>2026-04-25T08:55:53.999Z</time></trkpt><trkpt lat="43.065188916832376" lon="11.5521877034622"><ele>235.0</ele><time>2026-04-25T08:55:54.999Z</time></trkpt><trkpt lat="43.06508361703526" lon="11.552519649141932"><ele>235.0</ele><time>2026-04-25T08:55:55.999Z</time></trkpt><trkpt lat="43.06498174705179" lon="11.552844566271467"><ele>235.0</ele><time>2026-04-25T08:55:56.999Z</time></trkpt><trkpt lat="43.06488468502207" lon="11.553161021724726"><ele>235.0</ele><time>2026-04-25T08:55:57.999Z</time></trkpt><trkpt lat="43.064789170185236" lon="11.553468322941898"><ele>235.0</ele><time>2026-04-25T08:55:58.999Z</time></trkpt><trkpt lat="43.064694567948095" lon="11.553761191458854"><ele>237.0</ele><time>2026-04-25T08:55:59.999Z</time></trkpt><trkpt lat="43.064601962075" lon="11.554042779341678"><ele>239.0</ele><time>2026-04-25T08:56:00.999Z</time></trkpt><trkpt lat="43.06451214360844" lon="11.55432169045097"><ele>241.0</ele><time>2026-04-25T08:56:01.999Z</time></trkpt><trkpt lat="43.06443177090721" lon="11.554597126498207"><ele>244.0</ele><time>2026-04-25T08:56:02.999Z</time></trkpt><trkpt lat="43.06436071957474" lon="11.554863865231228"><ele>247.0</ele><time>2026-04-25T08:56:03.999Z</time></trkpt><trkpt lat="43.06429440535887" lon="11.555131989199177"><ele>250.0</ele><time>2026-04-25T08:56:04.999Z</time></trkpt><trkpt lat="43.06423725436481" lon="11.555402107590313"><ele>250.0</ele><time>2026-04-25T08:56:05.999Z</time></trkpt><trkpt lat="43.06419303084876" lon="11.555678843914054"><ele>250.0</ele><time>2026-04-25T08:56:06.999Z</time></trkpt><trkpt lat="43.06415852606092" lon="11.555951303203868"><ele>250.0</ele><time>2026-04-25T08:56:07.999Z</time></trkpt><trkpt lat="43.064130562242966" lon="11.556210113137414"><ele>246.0</ele><time>2026-04-25T08:56:08.999Z</time></trkpt><trkpt lat="43.06411020449312" lon="11.556454564125369"><ele>242.0</ele><time>2026-04-25T08:56:09.999Z</time></trkpt><trkpt lat="43.06409099856973" lon="11.556690440538436"><ele>238.0</ele><time>2026-04-25T08:56:10.999Z</time></trkpt><trkpt lat="43.06407250724762" lon="11.55692174678379"><ele>239.33333333333331</ele><time>2026-04-25T08:56:11.999Z</time></trkpt><trkpt lat="43.064056176946465" lon="11.55715860884892"><ele>240.66666666666669</ele><time>2026-04-25T08:56:12.999Z</time></trkpt><trkpt lat="43.06403989111512" lon="11.557395600284892"><ele>242.0</ele><time>2026-04-25T08:56:13.999Z</time></trkpt><trkpt lat="43.06402356576556" lon="11.557636141263716"><ele>244.0</ele><time>2026-04-25T08:56:14.999Z</time></trkpt><trkpt lat="43.06400629370184" lon="11.557883897186196"><ele>246.0</ele><time>2026-04-25T08:56:15.999Z</time></trkpt><trkpt lat="43.06398990378545" lon="11.5581330994829"><ele>248.0</ele><time>2026-04-25T08:56:16.999Z</time></trkpt><trkpt lat="43.063972930759604" lon="11.558388491133378"><ele>248.0</ele><time>2026-04-25T08:56:17.999Z</time></trkpt><trkpt lat="43.06395610566283" lon="11.558643696822672"><ele>248.0</ele><time>2026-04-25T08:56:18.999Z</time></trkpt><trkpt lat="43.0639398685506" lon="11.558897957776392"><ele>248.0</ele><time>2026-04-25T08:56:19.999Z</time></trkpt><trkpt lat="43.06392237217926" lon="11.559145733994349"><ele>249.33333333333334</ele><time>2026-04-25T08:56:20.999Z</time></trkpt><trkpt lat="43.063903316819186" lon="11.55939755574483"><ele>250.66666666666669</ele><time>2026-04-25T08:56:21.999Z</time></trkpt><trkpt lat="43.06388579828183" lon="11.559652258201192"><ele>252.0</ele><time>2026-04-25T08:56:22.999Z</time></trkpt><trkpt lat="43.06386796745805" lon="11.55990739390137"><ele>254.33333333333331</ele><time>2026-04-25T08:56:23.999Z</time></trkpt><trkpt lat="43.063847973023535" lon="11.56016754625903"><ele>256.66666666666663</ele><time>2026-04-25T08:56:24.999Z</time></trkpt><trkpt lat="43.063829338261286" lon="11.56042921050738"><ele>259.0</ele><time>2026-04-25T08:56:25.999Z</time></trkpt><trkpt lat="43.06380972095379" lon="11.560697985083294"><ele>260.0</ele><time>2026-04-25T08:56:26.999Z</time></trkpt><trkpt lat="43.06379115128724" lon="11.560967546882145"><ele>261.0</ele><time>2026-04-25T08:56:27.999Z</time></trkpt><trkpt lat="43.06377458263837" lon="11.561234015334033"><ele>262.0</ele><time>2026-04-25T08:56:28.999Z</time></trkpt><trkpt lat="43.06375630503272" lon="11.56149791971329"><ele>259.0</ele><time>2026-04-25T08:56:29.999Z</time></trkpt><trkpt lat="43.06374042843693" lon="11.56176745040188"><ele>256.0</ele><time>2026-04-25T08:56:30.999Z</time></trkpt><trkpt lat="43.063729625027555" lon="11.56203923730722"><ele>253.0</ele><time>2026-04-25T08:56:31.998Z</time></trkpt><trkpt lat="43.0637219000028" lon="11.562318307909257"><ele>250.66666666666666</ele><time>2026-04-25T08:56:32.998Z</time></trkpt><trkpt lat="43.063717794702754" lon="11.562599977815497"><ele>248.33333333333331</ele><time>2026-04-25T08:56:33.998Z</time></trkpt><trkpt lat="43.063721131524055" lon="11.562889257984144"><ele>246.0</ele><time>2026-04-25T08:56:34.998Z</time></trkpt><trkpt lat="43.06373387281008" lon="11.563189630908974"><ele>245.33333333333331</ele><time>2026-04-25T08:56:35.998Z</time></trkpt><trkpt lat="43.063755578133936" lon="11.563489612034957"><ele>244.66666666666666</ele><time>2026-04-25T08:56:36.998Z</time></trkpt><trkpt lat="43.06378841066947" lon="11.563788618767552"><ele>244.0</ele><time>2026-04-25T08:56:37.998Z</time></trkpt><trkpt lat="43.06383661031785" lon="11.564084215749778"><ele>244.0</ele><time>2026-04-25T08:56:38.998Z</time></trkpt><trkpt lat="43.06389215547959" lon="11.564375126927906"><ele>244.0</ele><time>2026-04-25T08:56:39.998Z</time></trkpt><trkpt lat="43.063956913732895" lon="11.564662132801265"><ele>244.0</ele><time>2026-04-25T08:56:40.998Z</time></trkpt><trkpt lat="43.06402905935918" lon="11.564942453522336"><ele>244.33333333333331</ele><time>2026-04-25T08:56:41.998Z</time></trkpt><trkpt lat="43.06410996420579" lon="11.56521475262555"><ele>244.66666666666669</ele><time>2026-04-25T08:56:42.998Z</time></trkpt><trkpt lat="43.064198274666126" lon="11.565475404116116"><ele>245.0</ele><time>2026-04-25T08:56:43.998Z</time></trkpt><trkpt lat="43.064294708638286" lon="11.56572860603532"><ele>245.66666666666669</ele><time>2026-04-25T08:56:44.998Z</time></trkpt><trkpt lat="43.064401119088714" lon="11.56597374201963"><ele>246.33333333333331</ele><time>2026-04-25T08:56:45.998Z</time></trkpt><trkpt lat="43.06451775289593" lon="11.566216468485043"><ele>247.0</ele><time>2026-04-25T08:56:46.998Z</time></trkpt><trkpt lat="43.06464497144627" lon="11.566457742400301"><ele>247.0</ele><time>2026-04-25T08:56:47.998Z</time></trkpt><trkpt lat="43.0647839534165" lon="11.566699730714738"><ele>247.0</ele><time>2026-04-25T08:56:48.998Z</time></trkpt><trkpt lat="43.064933016669336" lon="11.566944560399747"><ele>246.0</ele><time>2026-04-25T08:56:49.998Z</time></trkpt><trkpt lat="43.065086420322984" lon="11.56718910458694"><ele>245.0</ele><time>2026-04-25T08:56:50.998Z</time></trkpt><trkpt lat="43.065244520072184" lon="11.56742918644576"><ele>245.0</ele><time>2026-04-25T08:56:51.998Z</time></trkpt><trkpt lat="43.06540612233437" lon="11.567657593506283"><ele>245.0</ele><time>2026-04-25T08:56:52.998Z</time></trkpt><trkpt lat="43.06556326973789" lon="11.567870454783712"><ele>244.66666666666669</ele><time>2026-04-25T08:56:53.998Z</time></trkpt><trkpt lat="43.065711072462" lon="11.568080609788893"><ele>244.33333333333331</ele><time>2026-04-25T08:56:54.998Z</time></trkpt><trkpt lat="43.06584960111436" lon="11.56828570707786"><ele>244.0</ele><time>2026-04-25T08:56:55.998Z</time></trkpt><trkpt lat="43.065981891258225" lon="11.568479917632509"><ele>244.0</ele><time>2026-04-25T08:56:56.998Z</time></trkpt><trkpt lat="43.06612772528102" lon="11.56866969213279"><ele>244.0</ele><time>2026-04-25T08:56:57.998Z</time></trkpt><trkpt lat="43.06628577057247" lon="11.56887212642644"><ele>244.0</ele><time>2026-04-25T08:56:58.998Z</time></trkpt><trkpt lat="43.0664478894237" lon="11.569101607677291"><ele>243.5</ele><time>2026-04-25T08:56:59.998Z</time></trkpt><trkpt lat="43.06660313380715" lon="11.56934070155657"><ele>243.0</ele><time>2026-04-25T08:57:00.998Z</time></trkpt><trkpt lat="43.066757002688284" lon="11.569575614561838"><ele>244.66666666666669</ele><time>2026-04-25T08:57:01.998Z</time></trkpt><trkpt lat="43.066916636098085" lon="11.569796062476197"><ele>246.33333333333334</ele><time>2026-04-25T08:57:02.998Z</time></trkpt><trkpt lat="43.06706684950092" lon="11.570008360820845"><ele>248.0</ele><time>2026-04-25T08:57:03.998Z</time></trkpt><trkpt lat="43.06720584134313" lon="11.57021255808413"><ele>248.33333333333334</ele><time>2026-04-25T08:57:04.998Z</time></trkpt><trkpt lat="43.06733752489277" lon="11.570400042323776"><ele>248.66666666666669</ele><time>2026-04-25T08:57:05.998Z</time></trkpt><trkpt lat="43.067462587958865" lon="11.570578032950168"><ele>249.0</ele><time>2026-04-25T08:57:06.998Z</time></trkpt><trkpt lat="43.06757705514568" lon="11.570752900647852"><ele>249.0</ele><time>2026-04-25T08:57:07.998Z</time></trkpt><trkpt lat="43.06769325977949" lon="11.570927657208252"><ele>249.0</ele><time>2026-04-25T08:57:08.998Z</time></trkpt><trkpt lat="43.06782975339574" lon="11.571107055105985"><ele>249.0</ele><time>2026-04-25T08:57:10Z</time></trkpt><trkpt lat="43.06798405882213" lon="11.571299577904416"><ele>248.5</ele><time>2026-04-25T08:57:11Z</time></trkpt><trkpt lat="43.0681380460159" lon="11.571514736644916"><ele>248.0</ele><time>2026-04-25T08:57:12Z</time></trkpt><trkpt lat="43.068292704002545" lon="11.571750820435076"><ele>248.0</ele><time>2026-04-25T08:57:13Z</time></trkpt><trkpt lat="43.06845869235972" lon="11.57200226433032"><ele>248.0</ele><time>2026-04-25T08:57:14Z</time></trkpt><trkpt lat="43.068627423423315" lon="11.572266866513111"><ele>246.5</ele><time>2026-04-25T08:57:15Z</time></trkpt><trkpt lat="43.068791413151196" lon="11.572550692663734"><ele>245.0</ele><time>2026-04-25T08:57:16Z</time></trkpt><trkpt lat="43.06895204823082" lon="11.572849116268397"><ele>245.5</ele><time>2026-04-25T08:57:17Z</time></trkpt><trkpt lat="43.069107523695656" lon="11.573146174621131"><ele>246.0</ele><time>2026-04-25T08:57:18Z</time></trkpt><trkpt lat="43.0692580822082" lon="11.573443368668222"><ele>245.0</ele><time>2026-04-25T08:57:19Z</time></trkpt><trkpt lat="43.06939836833846" lon="11.573740882908897"><ele>244.0</ele><time>2026-04-25T08:57:20Z</time></trkpt><trkpt lat="43.06952371879445" lon="11.57403396015727"><ele>244.0</ele><time>2026-04-25T08:57:21Z</time></trkpt><trkpt lat="43.06963804487243" lon="11.57432795772863"><ele>244.0</ele><time>2026-04-25T08:57:22Z</time></trkpt><trkpt lat="43.06974067266007" lon="11.574628857852293"><ele>244.5</ele><time>2026-04-25T08:57:23Z</time></trkpt><trkpt lat="43.06983414243276" lon="11.57492860129083"><ele>245.0</ele><time>2026-04-25T08:57:24Z</time></trkpt><trkpt lat="43.06991881121649" lon="11.575232418174666"><ele>246.5</ele><time>2026-04-25T08:57:25Z</time></trkpt><trkpt lat="43.06999291343112" lon="11.575539268267677"><ele>248.0</ele><time>2026-04-25T08:57:26Z</time></trkpt><trkpt lat="43.07005402468939" lon="11.575839419717388"><ele>248.0</ele><time>2026-04-25T08:57:27Z</time></trkpt><trkpt lat="43.07010056191343" lon="11.576133445609917"><ele>248.0</ele><time>2026-04-25T08:57:28Z</time></trkpt><trkpt lat="43.07013330650995" lon="11.576423182963946"><ele>248.0</ele><time>2026-04-25T08:57:29Z</time></trkpt><trkpt lat="43.07016016623313" lon="11.576706631939464"><ele>248.66666666666669</ele><time>2026-04-25T08:57:30Z</time></trkpt><trkpt lat="43.07017609735671" lon="11.576987505924295"><ele>249.33333333333331</ele><time>2026-04-25T08:57:31Z</time></trkpt><trkpt lat="43.07017957043933" lon="11.577267438564188"><ele>250.0</ele><time>2026-04-25T08:57:32Z</time></trkpt><trkpt lat="43.070171286646094" lon="11.57754918250617"><ele>252.33333333333331</ele><time>2026-04-25T08:57:33Z</time></trkpt><trkpt lat="43.07015692887108" lon="11.577822044185053"><ele>254.66666666666669</ele><time>2026-04-25T08:57:34Z</time></trkpt><trkpt lat="43.07013448245282" lon="11.57809248431955"><ele>257.0</ele><time>2026-04-25T08:57:35Z</time></trkpt><trkpt lat="43.07010209100854" lon="11.578362688135009"><ele>259.6666666666667</ele><time>2026-04-25T08:57:36Z</time></trkpt><trkpt lat="43.07005878582255" lon="11.578627209402002"><ele>262.3333333333333</ele><time>2026-04-25T08:57:37Z</time></trkpt><trkpt lat="43.07000506732039" lon="11.578889442301659"><ele>265.0</ele><time>2026-04-25T08:57:38Z</time></trkpt><trkpt lat="43.06994688358389" lon="11.579146861634891"><ele>270.3333333333333</ele><time>2026-04-25T08:57:39Z</time></trkpt><trkpt lat="43.069883043927554" lon="11.579402308512092"><ele>275.6666666666667</ele><time>2026-04-25T08:57:40Z</time></trkpt><trkpt lat="43.069809583322524" lon="11.579658160850519"><ele>281.0</ele><time>2026-04-25T08:57:41Z</time></trkpt><trkpt lat="43.06972515492671" lon="11.579914330056106"><ele>282.33333333333337</ele><time>2026-04-25T08:57:42Z</time></trkpt><trkpt lat="43.06962878899696" lon="11.580166650741827"><ele>283.6666666666667</ele><time>2026-04-25T08:57:43Z</time></trkpt><trkpt lat="43.06952652024626" lon="11.58041637779334"><ele>285.0</ele><time>2026-04-25T08:57:44Z</time></trkpt><trkpt lat="43.06941704977936" lon="11.58065902910257"><ele>286.0</ele><time>2026-04-25T08:57:45Z</time></trkpt><trkpt lat="43.06929899139608" lon="11.580893151059643"><ele>287.0</ele><time>2026-04-25T08:57:46Z</time></trkpt><trkpt lat="43.06917707408582" lon="11.581112851870884"><ele>288.0</ele><time>2026-04-25T08:57:47Z</time></trkpt><trkpt lat="43.06905308658469" lon="11.58131581914666"><ele>291.3333333333333</ele><time>2026-04-25T08:57:48Z</time></trkpt><trkpt lat="43.06892352603996" lon="11.581512136335759"><ele>294.66666666666663</ele><time>2026-04-25T08:57:49Z</time></trkpt><trkpt lat="43.068789555780555" lon="11.581701226039788"><ele>298.0</ele><time>2026-04-25T08:57:50Z</time></trkpt><trkpt lat="43.06864852469188" lon="11.581886410380768"><ele>295.66666666666663</ele><time>2026-04-25T08:57:51Z</time></trkpt><trkpt lat="43.06850325383754" lon="11.582062150324377"><ele>293.3333333333333</ele><time>2026-04-25T08:57:52Z</time></trkpt><trkpt lat="43.06835017702477" lon="11.582235091273448"><ele>291.0</ele><time>2026-04-25T08:57:53Z</time></trkpt><trkpt lat="43.06819268531162" lon="11.582403371669825"><ele>293.0</ele><time>2026-04-25T08:57:54Z</time></trkpt><trkpt lat="43.068028533008324" lon="11.582563317711896"><ele>295.0</ele><time>2026-04-25T08:57:55Z</time></trkpt><trkpt lat="43.06785516185847" lon="11.582719656815728"><ele>297.0</ele><time>2026-04-25T08:57:55.999Z</time></trkpt><trkpt lat="43.06767872380795" lon="11.582871824798634"><ele>297.0</ele><time>2026-04-25T08:57:56.999Z</time></trkpt><trkpt lat="43.067505130001074" lon="11.58301512508687"><ele>297.0</ele><time>2026-04-25T08:57:57.999Z</time></trkpt><trkpt lat="43.06733164604638" lon="11.583148115091715"><ele>297.0</ele><time>2026-04-25T08:57:58.999Z</time></trkpt><trkpt lat="43.06715370165432" lon="11.583276150225652"><ele>301.0</ele><time>2026-04-25T08:57:59.999Z</time></trkpt><trkpt lat="43.0669718654967" lon="11.58340482447754"><ele>305.0</ele><time>2026-04-25T08:58:00.999Z</time></trkpt><trkpt lat="43.066783766608964" lon="11.58353367690623"><ele>309.0</ele><time>2026-04-25T08:58:01.999Z</time></trkpt><trkpt lat="43.06659218009694" lon="11.58365628586287"><ele>308.3333333333333</ele><time>2026-04-25T08:58:02.999Z</time></trkpt><trkpt lat="43.06639670138412" lon="11.583774327050767"><ele>307.66666666666663</ele><time>2026-04-25T08:58:03.999Z</time></trkpt><trkpt lat="43.06619698762213" lon="11.583890014328812"><ele>307.0</ele><time>2026-04-25T08:58:04.999Z</time></trkpt><trkpt lat="43.065992115985765" lon="11.584011141207348"><ele>307.0</ele><time>2026-04-25T08:58:05.999Z</time></trkpt><trkpt lat="43.06578021370002" lon="11.584141100789042"><ele>307.0</ele><time>2026-04-25T08:58:06.999Z</time></trkpt><trkpt lat="43.06555795353409" lon="11.584282736149577"><ele>310.0</ele><time>2026-04-25T08:58:07.999Z</time></trkpt><trkpt lat="43.065327232232576" lon="11.584425384930844"><ele>313.0</ele><time>2026-04-25T08:58:08.999Z</time></trkpt><trkpt lat="43.06507968097993" lon="11.584541982695582"><ele>316.5</ele><time>2026-04-25T08:58:09.999Z</time></trkpt><trkpt lat="43.06483574669601" lon="11.584699015180082"><ele>320.0</ele><time>2026-04-25T08:58:10.999Z</time></trkpt><trkpt lat="43.06458044807416" lon="11.584833043296149"><ele>320.0</ele><time>2026-04-25T08:58:11.999Z</time></trkpt><trkpt lat="43.06432253987858" lon="11.584979871885265"><ele>320.0</ele><time>2026-04-25T08:58:12.999Z</time></trkpt><trkpt lat="43.064074240654186" lon="11.585147853150632"><ele>320.0</ele><time>2026-04-25T08:58:13.999Z</time></trkpt><trkpt lat="43.06383340567935" lon="11.585340908952192"><ele>320.0</ele><time>2026-04-25T08:58:14.999Z</time></trkpt><trkpt lat="43.06359542937151" lon="11.585561297785352"><ele>320.0</ele><time>2026-04-25T08:58:15.999Z</time></trkpt><trkpt lat="43.063366543939836" lon="11.585807357537043"><ele>320.0</ele><time>2026-04-25T08:58:16.999Z</time></trkpt><trkpt lat="43.063152786696755" lon="11.586067730574781"><ele>323.5</ele><time>2026-04-25T08:58:17.999Z</time></trkpt><trkpt lat="43.06295819295178" lon="11.586348219516838"><ele>327.0</ele><time>2026-04-25T08:58:18.999Z</time></trkpt><trkpt lat="43.06277491229915" lon="11.586642694527985"><ele>327.0</ele><time>2026-04-25T08:58:19.999Z</time></trkpt><trkpt lat="43.06260015406923" lon="11.586959920958192"><ele>327.0</ele><time>2026-04-25T08:58:20.999Z</time></trkpt><trkpt lat="43.062442096587596" lon="11.587304410812054"><ele>332.5</ele><time>2026-04-25T08:58:21.999Z</time></trkpt><trkpt lat="43.06229452321008" lon="11.58766542822967"><ele>338.0</ele><time>2026-04-25T08:58:22.999Z</time></trkpt><trkpt lat="43.06216278783842" lon="11.588036927077047"><ele>339.0</ele><time>2026-04-25T08:58:23.999Z</time></trkpt><trkpt lat="43.0620436585609" lon="11.58840116406501"><ele>340.0</ele><time>2026-04-25T08:58:24.999Z</time></trkpt><trkpt lat="43.06192900543601" lon="11.588756069104804"><ele>341.0</ele><time>2026-04-25T08:58:25.999Z</time></trkpt><trkpt lat="43.061813284880586" lon="11.5890983766711"><ele>342.0</ele><time>2026-04-25T08:58:26.999Z</time></trkpt><trkpt lat="43.06168742361783" lon="11.589434321731758"><ele>347.0</ele><time>2026-04-25T08:58:27.999Z</time></trkpt><trkpt lat="43.06155034043257" lon="11.589767101056923"><ele>352.0</ele><time>2026-04-25T08:58:28.999Z</time></trkpt><trkpt lat="43.061402146323644" lon="11.59009457428007"><ele>349.0</ele><time>2026-04-25T08:58:29.999Z</time></trkpt><trkpt lat="43.061242894640586" lon="11.590417164823243"><ele>346.0</ele><time>2026-04-25T08:58:30.999Z</time></trkpt><trkpt lat="43.06107571006578" lon="11.590731465708227"><ele>346.0</ele><time>2026-04-25T08:58:31.999Z</time></trkpt><trkpt lat="43.060909476339575" lon="11.591037670819476"><ele>346.0</ele><time>2026-04-25T08:58:32.999Z</time></trkpt><trkpt lat="43.06074961220343" lon="11.591336363757552"><ele>344.5</ele><time>2026-04-25T08:58:33.999Z</time></trkpt><trkpt lat="43.060602585999405" lon="11.591623773662041"><ele>343.0</ele><time>2026-04-25T08:58:34.999Z</time></trkpt><trkpt lat="43.060463945057926" lon="11.591908321213866"><ele>344.5</ele><time>2026-04-25T08:58:35.999Z</time></trkpt><trkpt lat="43.060335640189045" lon="11.592188842325589"><ele>346.0</ele><time>2026-04-25T08:58:36.999Z</time></trkpt><trkpt lat="43.06021609525328" lon="11.592476651401316"><ele>346.0</ele><time>2026-04-25T08:58:37.999Z</time></trkpt><trkpt lat="43.06010981527421" lon="11.592772154958208"><ele>346.0</ele><time>2026-04-25T08:58:38.999Z</time></trkpt><trkpt lat="43.06001880977639" lon="11.593077186415956"><ele>355.5</ele><time>2026-04-25T08:58:39.999Z</time></trkpt><trkpt lat="43.059941838569124" lon="11.593384635924705"><ele>365.0</ele><time>2026-04-25T08:58:40.999Z</time></trkpt><trkpt lat="43.05987747265206" lon="11.593696934982779"><ele>367.0</ele><time>2026-04-25T08:58:41.999Z</time></trkpt><trkpt lat="43.05982681236329" lon="11.594005156393138"><ele>369.0</ele><time>2026-04-25T08:58:42.999Z</time></trkpt><trkpt lat="43.05978870868534" lon="11.594315281906997"><ele>373.0</ele><time>2026-04-25T08:58:43.999Z</time></trkpt><trkpt lat="43.0597584442156" lon="11.594627024946377"><ele>377.0</ele><time>2026-04-25T08:58:44.999Z</time></trkpt><trkpt lat="43.05973983672867" lon="11.594935302550306"><ele>377.0</ele><time>2026-04-25T08:58:45.998Z</time></trkpt><trkpt lat="43.05973243085896" lon="11.595234124357992"><ele>377.0</ele><time>2026-04-25T08:58:46.998Z</time></trkpt><trkpt lat="43.059735904892335" lon="11.595511207235816"><ele>377.0</ele><time>2026-04-25T08:58:47.998Z</time></trkpt><trkpt lat="43.05974079800404" lon="11.595770491274179"><ele>378.0</ele><time>2026-04-25T08:58:48.998Z</time></trkpt><trkpt lat="43.05974254785101" lon="11.596023460894612"><ele>379.0</ele><time>2026-04-25T08:58:49.998Z</time></trkpt><trkpt lat="43.05974107760263" lon="11.596274526827512"><ele>380.0</ele><time>2026-04-25T08:58:50.998Z</time></trkpt><trkpt lat="43.05974314523165" lon="11.596516530971218"><ele>380.33333333333337</ele><time>2026-04-25T08:58:51.998Z</time></trkpt><trkpt lat="43.05974980426778" lon="11.59675674136749"><ele>380.6666666666667</ele><time>2026-04-25T08:58:52.998Z</time></trkpt><trkpt lat="43.0597592134016" lon="11.596986690406393"><ele>381.0</ele><time>2026-04-25T08:58:53.998Z</time></trkpt><trkpt lat="43.05977057892451" lon="11.59721465007354"><ele>381.0</ele><time>2026-04-25T08:58:54.998Z</time></trkpt><trkpt lat="43.05978969089612" lon="11.597443267152983"><ele>381.0</ele><time>2026-04-25T08:58:55.998Z</time></trkpt><trkpt lat="43.05981533827901" lon="11.597674600733267"><ele>381.0</ele><time>2026-04-25T08:58:56.998Z</time></trkpt><trkpt lat="43.05984632127455" lon="11.59790776745826"><ele>379.0</ele><time>2026-04-25T08:58:57.998Z</time></trkpt><trkpt lat="43.05988279005481" lon="11.5981394276844"><ele>377.0</ele><time>2026-04-25T08:58:58.998Z</time></trkpt><trkpt lat="43.05993198885186" lon="11.59836958530331"><ele>375.0</ele><time>2026-04-25T08:58:59.998Z</time></trkpt><trkpt lat="43.059985364519186" lon="11.59859818009485"><ele>372.3333333333333</ele><time>2026-04-25T08:59:00.998Z</time></trkpt><trkpt lat="43.06004207891592" lon="11.598825885305956"><ele>369.66666666666663</ele><time>2026-04-25T08:59:01.998Z</time></trkpt><trkpt lat="43.06010782404166" lon="11.599051055517965"><ele>367.0</ele><time>2026-04-25T08:59:02.998Z</time></trkpt><trkpt lat="43.0601856833415" lon="11.59927509006733"><ele>370.3333333333333</ele><time>2026-04-25T08:59:03.998Z</time></trkpt><trkpt lat="43.060273438407606" lon="11.599512669639408"><ele>373.6666666666667</ele><time>2026-04-25T08:59:04.998Z</time></trkpt><trkpt lat="43.06037753408914" lon="11.59975631565387"><ele>377.0</ele><time>2026-04-25T08:59:05.998Z</time></trkpt><trkpt lat="43.06050693382934" lon="11.600009974625152"><ele>377.0</ele><time>2026-04-25T08:59:06.998Z</time></trkpt><trkpt lat="43.060641646598214" lon="11.600280006639899"><ele>377.0</ele><time>2026-04-25T08:59:07.998Z</time></trkpt><trkpt lat="43.06076994672697" lon="11.600566282770894"><ele>380.5</ele><time>2026-04-25T08:59:08.998Z</time></trkpt><trkpt lat="43.06088559189481" lon="11.600853500483156"><ele>384.0</ele><time>2026-04-25T08:59:09.998Z</time></trkpt><trkpt lat="43.06100685382455" lon="11.601134287306593"><ele>388.5</ele><time>2026-04-25T08:59:10.998Z</time></trkpt><trkpt lat="43.06112786713347" lon="11.601407167465254"><ele>393.0</ele><time>2026-04-25T08:59:11.998Z</time></trkpt><trkpt lat="43.06123285585263" lon="11.601682259915858"><ele>393.0</ele><time>2026-04-25T08:59:12.998Z</time></trkpt><trkpt lat="43.06131407031804" lon="11.601962655591736"><ele>393.0</ele><time>2026-04-25T08:59:13.998Z</time></trkpt><trkpt lat="43.06138370214635" lon="11.602260951731926"><ele>393.0</ele><time>2026-04-25T08:59:14.998Z</time></trkpt><trkpt lat="43.06143563645877" lon="11.602582414199095"><ele>400.5</ele><time>2026-04-25T08:59:16Z</time></trkpt><trkpt lat="43.061475029634934" lon="11.602914975383952"><ele>408.0</ele><time>2026-04-25T08:59:17Z</time></trkpt><trkpt lat="43.06150352613513" lon="11.603254815929718"><ele>408.0</ele><time>2026-04-25T08:59:18Z</time></trkpt><trkpt lat="43.06151703544169" lon="11.603582133639136"><ele>408.0</ele><time>2026-04-25T08:59:19Z</time></trkpt><trkpt lat="43.0615172889931" lon="11.603900110659728"><ele>408.33333333333337</ele><time>2026-04-25T08:59:20Z</time></trkpt><trkpt lat="43.06149960511336" lon="11.604195523252855"><ele>408.6666666666667</ele><time>2026-04-25T08:59:21Z</time></trkpt><trkpt lat="43.06146856313347" lon="11.604468264359447"><ele>409.0</ele><time>2026-04-25T08:59:22Z</time></trkpt><trkpt lat="43.06142378816241" lon="11.604732993473519"><ele>409.0</ele><time>2026-04-25T08:59:23Z</time></trkpt><trkpt lat="43.06136278241449" lon="11.604995112780733"><ele>409.0</ele><time>2026-04-25T08:59:24Z</time></trkpt><trkpt lat="43.06127681284151" lon="11.60524879765699"><ele>409.0</ele><time>2026-04-25T08:59:25Z</time></trkpt><trkpt lat="43.061173327003594" lon="11.605492770975042"><ele>407.0</ele><time>2026-04-25T08:59:26Z</time></trkpt><trkpt lat="43.061041126674795" lon="11.605726599598412"><ele>405.0</ele><time>2026-04-25T08:59:27Z</time></trkpt><trkpt lat="43.06088818146212" lon="11.605958441048472"><ele>403.0</ele><time>2026-04-25T08:59:28Z</time></trkpt><trkpt lat="43.06073941280941" lon="11.60619155595502"><ele>400.5</ele><time>2026-04-25T08:59:29Z</time></trkpt><trkpt lat="43.06059543817218" lon="11.606429893659227"><ele>398.0</ele><time>2026-04-25T08:59:30Z</time></trkpt><trkpt lat="43.06045361015897" lon="11.606669290107213"><ele>398.0</ele><time>2026-04-25T08:59:31Z</time></trkpt><trkpt lat="43.06030408058414" lon="11.606908205676982"><ele>398.0</ele><time>2026-04-25T08:59:32Z</time></trkpt><trkpt lat="43.06015161764066" lon="11.607149990004793"><ele>398.0</ele><time>2026-04-25T08:59:33Z</time></trkpt><trkpt lat="43.060008671353216" lon="11.607380385449948"><ele>398.0</ele><time>2026-04-25T08:59:34Z</time></trkpt><trkpt lat="43.05987244334664" lon="11.60759510460905"><ele>398.0</ele><time>2026-04-25T08:59:35Z</time></trkpt><trkpt lat="43.05974195025765" lon="11.607803006234434"><ele>397.66666666666663</ele><time>2026-04-25T08:59:36Z</time></trkpt><trkpt lat="43.0596173734601" lon="11.608001915285687"><ele>397.33333333333337</ele><time>2026-04-25T08:59:37Z</time></trkpt><trkpt lat="43.059491760611245" lon="11.60820340054896"><ele>397.0</ele><time>2026-04-25T08:59:38Z</time></trkpt><trkpt lat="43.05936604769151" lon="11.60840582251512"><ele>397.0</ele><time>2026-04-25T08:59:39Z</time></trkpt><trkpt lat="43.059240439537646" lon="11.608609147737738"><ele>397.0</ele><time>2026-04-25T08:59:40Z</time></trkpt><trkpt lat="43.05911223011065" lon="11.608814308499774"><ele>397.0</ele><time>2026-04-25T08:59:41Z</time></trkpt><trkpt lat="43.058982262860646" lon="11.609021224579218"><ele>397.33333333333337</ele><time>2026-04-25T08:59:42Z</time></trkpt><trkpt lat="43.05885207333882" lon="11.609229650167578"><ele>397.66666666666663</ele><time>2026-04-25T08:59:43Z</time></trkpt><trkpt lat="43.05871969893768" lon="11.609442026177174"><ele>398.0</ele><time>2026-04-25T08:59:44Z</time></trkpt><trkpt lat="43.058585631291145" lon="11.609655788703087"><ele>395.0</ele><time>2026-04-25T08:59:45Z</time></trkpt><trkpt lat="43.05845073844773" lon="11.609871638166442"><ele>392.0</ele><time>2026-04-25T08:59:46Z</time></trkpt><trkpt lat="43.05832288130778" lon="11.610078405694578"><ele>389.0</ele><time>2026-04-25T08:59:47Z</time></trkpt><trkpt lat="43.05820209217163" lon="11.610271622423252"><ele>385.3333333333333</ele><time>2026-04-25T08:59:48Z</time></trkpt><trkpt lat="43.0580903440248" lon="11.610450480535047"><ele>381.66666666666663</ele><time>2026-04-25T08:59:49Z</time></trkpt><trkpt lat="43.057978208142636" lon="11.610613397326016"><ele>378.0</ele><time>2026-04-25T08:59:50Z</time></trkpt><trkpt lat="43.057853139179336" lon="11.610756510380538"><ele>378.0</ele><time>2026-04-25T08:59:51Z</time></trkpt><trkpt lat="43.05770555967255" lon="11.610873844482187"><ele>378.0</ele><time>2026-04-25T08:59:52Z</time></trkpt><trkpt lat="43.05754235468223" lon="11.610968187057546"><ele>378.0</ele><time>2026-04-25T08:59:53Z</time></trkpt><trkpt lat="43.057372285499845" lon="11.611029409663441"><ele>376.6666666666667</ele><time>2026-04-25T08:59:54Z</time></trkpt><trkpt lat="43.05719505445762" lon="11.611042331224978"><ele>375.33333333333337</ele><time>2026-04-25T08:59:55Z</time></trkpt><trkpt lat="43.05701907697489" lon="11.611013266975243"><ele>374.0</ele><time>2026-04-25T08:59:56Z</time></trkpt><trkpt lat="43.0568506288607" lon="11.610935974356146"><ele>374.0</ele><time>2026-04-25T08:59:57Z</time></trkpt><trkpt lat="43.056699520095876" lon="11.610804003183706"><ele>374.0</ele><time>2026-04-25T08:59:58Z</time></trkpt><trkpt lat="43.056547072702934" lon="11.610676836083472"><ele>374.0</ele><time>2026-04-25T08:59:59Z</time></trkpt><trkpt lat="43.05640181540521" lon="11.610551791917183"><ele>373.33333333333337</ele><time>2026-04-25T09:00:00Z</time></trkpt><trkpt lat="43.05626463653224" lon="11.61043397686535"><ele>372.6666666666667</ele><time>2026-04-25T09:00:01Z</time></trkpt><trkpt lat="43.05613412831009" lon="11.610322848104822"><ele>372.0</ele><time>2026-04-25T09:00:02Z</time></trkpt><trkpt lat="43.05601138363786" lon="11.610218330151682"><ele>371.0</ele><time>2026-04-25T09:00:03Z</time></trkpt><trkpt lat="43.05589471972229" lon="11.610118989929251"><ele>370.0</ele><time>2026-04-25T09:00:04Z</time></trkpt><trkpt lat="43.055784452975765" lon="11.610024752382428"><ele>369.0</ele><time>2026-04-25T09:00:05Z</time></trkpt><trkpt lat="43.05567184340557" lon="11.609951601108422"><ele>368.0</ele><time>2026-04-25T09:00:06Z</time></trkpt><trkpt lat="43.055567711363956" lon="11.609861149033645"><ele>368.0</ele><time>2026-04-25T09:00:07Z</time></trkpt><trkpt lat="43.055443972996365" lon="11.609757287142997"><ele>368.0</ele><time>2026-04-25T09:00:08Z</time></trkpt><trkpt lat="43.055304224638164" lon="11.60964047920992"><ele>368.0</ele><time>2026-04-25T09:00:09Z</time></trkpt><trkpt lat="43.05516779704537" lon="11.60949925136348"><ele>366.33333333333337</ele><time>2026-04-25T09:00:10Z</time></trkpt><trkpt lat="43.055013492967774" lon="11.609393932162106"><ele>364.6666666666667</ele><time>2026-04-25T09:00:10.999Z</time></trkpt><trkpt lat="43.05486574612173" lon="11.609267285888105"><ele>363.0</ele><time>2026-04-25T09:00:11.999Z</time></trkpt><trkpt lat="43.05472033171974" lon="11.609144394945044"><ele>363.0</ele><time>2026-04-25T09:00:12.999Z</time></trkpt><trkpt lat="43.0545839795944" lon="11.609026740042653"><ele>363.0</ele><time>2026-04-25T09:00:13.999Z</time></trkpt><trkpt lat="43.05445244080803" lon="11.60891492984187"><ele>363.0</ele><time>2026-04-25T09:00:14.999Z</time></trkpt><trkpt lat="43.05432665567121" lon="11.60881402754727"><ele>363.0</ele><time>2026-04-25T09:00:15.999Z</time></trkpt><trkpt lat="43.054229886353866" lon="11.608704280472086"><ele>363.0</ele><time>2026-04-25T09:00:16.999Z</time></trkpt><trkpt lat="43.054139246220075" lon="11.608627376007844"><ele>363.0</ele><time>2026-04-25T09:00:17.999Z</time></trkpt><trkpt lat="43.05406649590512" lon="11.6085660455246"><ele>363.0</ele><time>2026-04-25T09:00:18.999Z</time></trkpt><trkpt lat="43.05400861576953" lon="11.60851855036297"><ele>363.0</ele><time>2026-04-25T09:00:19.999Z</time></trkpt><trkpt lat="43.053944769858084" lon="11.608467605161929"><ele>363.2</ele><time>2026-04-25T09:00:21.999Z</time></trkpt><trkpt lat="43.05387740423332" lon="11.6084178476827"><ele>363.4</ele><time>2026-04-25T09:00:23.999Z</time></trkpt><trkpt lat="43.05376639687033" lon="11.608350574353327"><ele>363.59999999999997</ele><time>2026-04-25T09:00:25.999Z</time></trkpt><trkpt lat="43.053647848494485" lon="11.608305487609684"><ele>363.79999999999995</ele><time>2026-04-25T09:00:27.999Z</time></trkpt><trkpt lat="43.053566738170325" lon="11.608311559038496"><ele>364.0</ele><time>2026-04-25T09:00:29.999Z</time></trkpt><trkpt lat="43.053493431308" lon="11.608301266310427"><ele>364.0</ele><time>2026-04-25T09:01:11.998Z</time></trkpt><trkpt lat="43.053425514655835" lon="11.608295436662807"><ele>364.0</ele><time>2026-04-25T09:01:12.998Z</time></trkpt><trkpt lat="43.05334092368043" lon="11.608288975225818"><ele>364.0</ele><time>2026-04-25T09:01:13.998Z</time></trkpt><trkpt lat="43.053238354170624" lon="11.608315569786026"><ele>364.0</ele><time>2026-04-25T09:01:14.998Z</time></trkpt><trkpt lat="43.05312195509063" lon="11.608361545431848"><ele>364.0</ele><time>2026-04-25T09:01:15.998Z</time></trkpt><trkpt lat="43.05299361496177" lon="11.608423791468697"><ele>362.0</ele><time>2026-04-25T09:01:16.998Z</time></trkpt><trkpt lat="43.052850069978355" lon="11.608505278213988"><ele>360.0</ele><time>2026-04-25T09:01:17.998Z</time></trkpt><trkpt lat="43.05270377068501" lon="11.608596006879068"><ele>358.0</ele><time>2026-04-25T09:01:18.998Z</time></trkpt><trkpt lat="43.05254075201412" lon="11.608692487403815"><ele>357.0</ele><time>2026-04-25T09:01:19.998Z</time></trkpt><trkpt lat="43.05237433993519" lon="11.608796211061083"><ele>356.0</ele><time>2026-04-25T09:01:20.998Z</time></trkpt><trkpt lat="43.05219993500114" lon="11.608895829793395"><ele>355.0</ele><time>2026-04-25T09:01:22Z</time></trkpt><trkpt lat="43.052025981514625" lon="11.608994325654958"><ele>355.0</ele><time>2026-04-25T09:01:23Z</time></trkpt><trkpt lat="43.05184857021768" lon="11.609093865788434"><ele>355.0</ele><time>2026-04-25T09:01:24Z</time></trkpt><trkpt lat="43.051671015258016" lon="11.60919309480547"><ele>355.0</ele><time>2026-04-25T09:01:25Z</time></trkpt><trkpt lat="43.0514983229738" lon="11.609292380112187"><ele>357.0</ele><time>2026-04-25T09:01:26Z</time></trkpt><trkpt lat="43.051329962733504" lon="11.60939232190777"><ele>359.0</ele><time>2026-04-25T09:01:27Z</time></trkpt><trkpt lat="43.0511684340887" lon="11.609490068102856"><ele>361.0</ele><time>2026-04-25T09:01:28Z</time></trkpt><trkpt lat="43.05100423788242" lon="11.609606830363143"><ele>358.0</ele><time>2026-04-25T09:01:29Z</time></trkpt><trkpt lat="43.050841977954164" lon="11.609756689631379"><ele>355.0</ele><time>2026-04-25T09:01:30Z</time></trkpt><trkpt lat="43.05067666039869" lon="11.609924769522625"><ele>352.0</ele><time>2026-04-25T09:01:31Z</time></trkpt><trkpt lat="43.0505081171916" lon="11.61009447064648"><ele>352.0</ele><time>2026-04-25T09:01:32Z</time></trkpt><trkpt lat="43.05034151552637" lon="11.610252729905666"><ele>352.0</ele><time>2026-04-25T09:01:33Z</time></trkpt><trkpt lat="43.050184055719335" lon="11.610399881347458"><ele>352.0</ele><time>2026-04-25T09:01:34Z</time></trkpt><trkpt lat="43.0500299058593" lon="11.610532751164273"><ele>349.3333333333333</ele><time>2026-04-25T09:01:35Z</time></trkpt><trkpt lat="43.049873606034126" lon="11.610647103352353"><ele>346.6666666666667</ele><time>2026-04-25T09:01:36Z</time></trkpt><trkpt lat="43.04970806252513" lon="11.61073529409744"><ele>344.0</ele><time>2026-04-25T09:01:37Z</time></trkpt><trkpt lat="43.04953837472034" lon="11.610785832433333"><ele>344.0</ele><time>2026-04-25T09:01:38Z</time></trkpt><trkpt lat="43.04936353893959" lon="11.610820085336314"><ele>344.0</ele><time>2026-04-25T09:01:39Z</time></trkpt><trkpt lat="43.04918311318541" lon="11.61085314606276"><ele>344.0</ele><time>2026-04-25T09:01:40Z</time></trkpt><trkpt lat="43.04899541710384" lon="11.610893733168224"><ele>345.0</ele><time>2026-04-25T09:01:41Z</time></trkpt><trkpt lat="43.048820437836085" lon="11.610949593515093"><ele>346.0</ele><time>2026-04-25T09:01:42Z</time></trkpt><trkpt lat="43.04865921854734" lon="11.61102756945459"><ele>347.0</ele><time>2026-04-25T09:01:43Z</time></trkpt><trkpt lat="43.04851511716699" lon="11.611144253899297"><ele>347.33333333333337</ele><time>2026-04-25T09:01:44Z</time></trkpt><trkpt lat="43.04839063244722" lon="11.611285076227412"><ele>347.6666666666667</ele><time>2026-04-25T09:01:45Z</time></trkpt><trkpt lat="43.04828071859161" lon="11.611458179321845"><ele>348.0</ele><time>2026-04-25T09:01:46Z</time></trkpt><trkpt lat="43.04818686103818" lon="11.611657875353702"><ele>348.0</ele><time>2026-04-25T09:01:47Z</time></trkpt><trkpt lat="43.04811713313656" lon="11.611880516685764"><ele>348.0</ele><time>2026-04-25T09:01:48Z</time></trkpt><trkpt lat="43.04807794960237" lon="11.612102492224254"><ele>348.0</ele><time>2026-04-25T09:01:49Z</time></trkpt><trkpt lat="43.04806142460499" lon="11.612335908154718"><ele>344.3333333333333</ele><time>2026-04-25T09:01:49.999Z</time></trkpt><trkpt lat="43.048071449830005" lon="11.612594149603826"><ele>340.66666666666663</ele><time>2026-04-25T09:01:50.999Z</time></trkpt><trkpt lat="43.048109404461734" lon="11.612861185755161"><ele>337.0</ele><time>2026-04-25T09:01:51.999Z</time></trkpt><trkpt lat="43.0481835186827" lon="11.613145389932233"><ele>334.5</ele><time>2026-04-25T09:01:52.999Z</time></trkpt><trkpt lat="43.04828346518479" lon="11.613454564449775"><ele>332.0</ele><time>2026-04-25T09:01:53.999Z</time></trkpt><trkpt lat="43.048388843477895" lon="11.613784735419143"><ele>327.5</ele><time>2026-04-25T09:01:54.999Z</time></trkpt><trkpt lat="43.04849731922008" lon="11.614126676637426"><ele>323.0</ele><time>2026-04-25T09:01:55.999Z</time></trkpt><trkpt lat="43.04861034370657" lon="11.614477639185411"><ele>321.5</ele><time>2026-04-25T09:01:56.999Z</time></trkpt><trkpt lat="43.04871499343336" lon="11.614802066687357"><ele>320.0</ele><time>2026-04-25T09:01:57.999Z</time></trkpt><trkpt lat="43.04880989096227" lon="11.615112265920844"><ele>319.5</ele><time>2026-04-25T09:01:58.999Z</time></trkpt><trkpt lat="43.04890225359213" lon="11.615409708755248"><ele>319.0</ele><time>2026-04-25T09:01:59.999Z</time></trkpt><trkpt lat="43.04899194753747" lon="11.615695497277402"><ele>319.0</ele><time>2026-04-25T09:02:00.999Z</time></trkpt><trkpt lat="43.04906463407113" lon="11.615992069541218"><ele>319.0</ele><time>2026-04-25T09:02:01.999Z</time></trkpt><trkpt lat="43.049110095618246" lon="11.61631583639316"><ele>315.5</ele><time>2026-04-25T09:02:02.999Z</time></trkpt><trkpt lat="43.04913795121453" lon="11.616662631494044"><ele>312.0</ele><time>2026-04-25T09:02:03.999Z</time></trkpt><trkpt lat="43.04916563359563" lon="11.617039496638073"><ele>311.0</ele><time>2026-04-25T09:02:04.999Z</time></trkpt><trkpt lat="43.04919938396012" lon="11.61743002859167"><ele>310.0</ele><time>2026-04-25T09:02:05.999Z</time></trkpt><trkpt lat="43.049231086316524" lon="11.617815287915644"><ele>308.0</ele><time>2026-04-25T09:02:06.999Z</time></trkpt><trkpt lat="43.0492638955207" lon="11.61819337511781"><ele>306.0</ele><time>2026-04-25T09:02:07.999Z</time></trkpt><trkpt lat="43.04929516808261" lon="11.618554568082885"><ele>304.5</ele><time>2026-04-25T09:02:08.999Z</time></trkpt><trkpt lat="43.04932621239776" lon="11.618911140014168"><ele>303.0</ele><time>2026-04-25T09:02:09.999Z</time></trkpt><trkpt lat="43.04936016274492" lon="11.619266699215508"><ele>302.0</ele><time>2026-04-25T09:02:10.999Z</time></trkpt><trkpt lat="43.04939439882487" lon="11.619621296570836"><ele>301.0</ele><time>2026-04-25T09:02:11.999Z</time></trkpt><trkpt lat="43.049425665144945" lon="11.619971497395056"><ele>301.0</ele><time>2026-04-25T09:02:12.999Z</time></trkpt><trkpt lat="43.04945413847123" lon="11.620302493686717"><ele>301.0</ele><time>2026-04-25T09:02:13.999Z</time></trkpt><trkpt lat="43.049481107295115" lon="11.62062145541772"><ele>301.0</ele><time>2026-04-25T09:02:14.999Z</time></trkpt><trkpt lat="43.04949840025146" lon="11.62093287305883"><ele>301.0</ele><time>2026-04-25T09:02:15.999Z</time></trkpt><trkpt lat="43.04949346928261" lon="11.621250228038654"><ele>299.5</ele><time>2026-04-25T09:02:16.999Z</time></trkpt><trkpt lat="43.04947386014249" lon="11.621562003987345"><ele>298.0</ele><time>2026-04-25T09:02:17.999Z</time></trkpt><trkpt lat="43.04943951446941" lon="11.621875384705682"><ele>296.0</ele><time>2026-04-25T09:02:18.999Z</time></trkpt><trkpt lat="43.04938418826862" lon="11.622185709972868"><ele>294.0</ele><time>2026-04-25T09:02:19.999Z</time></trkpt><trkpt lat="43.04931259233428" lon="11.622494384535136"><ele>294.0</ele><time>2026-04-25T09:02:20.999Z</time></trkpt><trkpt lat="43.04922695322998" lon="11.622803917293329"><ele>294.0</ele><time>2026-04-25T09:02:21.999Z</time></trkpt><trkpt lat="43.049121194623105" lon="11.623117694414434"><ele>293.5</ele><time>2026-04-25T09:02:22.999Z</time></trkpt><trkpt lat="43.04899720797672" lon="11.623428753674993"><ele>293.0</ele><time>2026-04-25T09:02:23.999Z</time></trkpt><trkpt lat="43.04885811782839" lon="11.623741019297428"><ele>293.0</ele><time>2026-04-25T09:02:24.999Z</time></trkpt><trkpt lat="43.04871235109738" lon="11.624034240625818"><ele>293.0</ele><time>2026-04-25T09:02:25.999Z</time></trkpt><trkpt lat="43.048576927733635" lon="11.624309632902923"><ele>290.6666666666667</ele><time>2026-04-25T09:02:26.998Z</time></trkpt><trkpt lat="43.0484489913279" lon="11.624571866457044"><ele>288.3333333333333</ele><time>2026-04-25T09:02:27.998Z</time></trkpt><trkpt lat="43.04833753040715" lon="11.624800190463043"><ele>286.0</ele><time>2026-04-25T09:02:28.998Z</time></trkpt><trkpt lat="43.048241882664776" lon="11.624993921086093"><ele>285.3333333333333</ele><time>2026-04-25T09:02:29.998Z</time></trkpt><trkpt lat="43.04814695353906" lon="11.625167283241039"><ele>284.6666666666667</ele><time>2026-04-25T09:02:30.998Z</time></trkpt><trkpt lat="43.04804868943685" lon="11.625313951650842"><ele>284.0</ele><time>2026-04-25T09:02:31.998Z</time></trkpt><trkpt lat="43.04792451034767" lon="11.62543077750943"><ele>282.33333333333337</ele><time>2026-04-25T09:02:32.998Z</time></trkpt><trkpt lat="43.047775916857624" lon="11.625495034329077"><ele>280.6666666666667</ele><time>2026-04-25T09:02:33.998Z</time></trkpt><trkpt lat="43.04760429095751" lon="11.625510346347614"><ele>279.0</ele><time>2026-04-25T09:02:34.998Z</time></trkpt><trkpt lat="43.04741077723791" lon="11.625490936931842"><ele>278.0</ele><time>2026-04-25T09:02:35.998Z</time></trkpt><trkpt lat="43.04719461153462" lon="11.625482568435187"><ele>277.0</ele><time>2026-04-25T09:02:36.998Z</time></trkpt><trkpt lat="43.04696115731885" lon="11.625475910742534"><ele>277.0</ele><time>2026-04-25T09:02:37.998Z</time></trkpt><trkpt lat="43.046734739763366" lon="11.625462883113707"><ele>277.0</ele><time>2026-04-25T09:02:38.998Z</time></trkpt><trkpt lat="43.04652543330613" lon="11.625434887208117"><ele>277.0</ele><time>2026-04-25T09:02:39.998Z</time></trkpt><trkpt lat="43.04633002707611" lon="11.625375025764376"><ele>277.3333333333333</ele><time>2026-04-25T09:02:40.998Z</time></trkpt><trkpt lat="43.04613092999239" lon="11.625277935810137"><ele>277.6666666666667</ele><time>2026-04-25T09:02:41.998Z</time></trkpt><trkpt lat="43.04593734332266" lon="11.6251689278653"><ele>278.0</ele><time>2026-04-25T09:02:42.998Z</time></trkpt><trkpt lat="43.04574661409463" lon="11.625075297552808"><ele>278.0</ele><time>2026-04-25T09:02:43.998Z</time></trkpt><trkpt lat="43.04554608950281" lon="11.625022260240529"><ele>278.0</ele><time>2026-04-25T09:02:44.998Z</time></trkpt><trkpt lat="43.04533174639273" lon="11.62500895306913"><ele>278.0</ele><time>2026-04-25T09:02:45.998Z</time></trkpt><trkpt lat="43.04509759582296" lon="11.625022418901533"><ele>278.5</ele><time>2026-04-25T09:02:46.998Z</time></trkpt><trkpt lat="43.04485694248694" lon="11.62502904093235"><ele>279.0</ele><time>2026-04-25T09:02:47.998Z</time></trkpt><trkpt lat="43.04461948874292" lon="11.625039809981258"><ele>279.0</ele><time>2026-04-25T09:02:48.998Z</time></trkpt><trkpt lat="43.044387053469464" lon="11.625071734268285"><ele>279.0</ele><time>2026-04-25T09:02:49.998Z</time></trkpt><trkpt lat="43.0441553117479" lon="11.625140964723416"><ele>279.0</ele><time>2026-04-25T09:02:50.998Z</time></trkpt><trkpt lat="43.04392878294777" lon="11.625239593412632"><ele>279.0</ele><time>2026-04-25T09:02:51.998Z</time></trkpt><trkpt lat="43.04370963977501" lon="11.625356061269692"><ele>277.3333333333333</ele><time>2026-04-25T09:02:52.998Z</time></trkpt><trkpt lat="43.04350365389925" lon="11.625467377593807"><ele>275.66666666666663</ele><time>2026-04-25T09:02:53.998Z</time></trkpt><trkpt lat="43.04330585934242" lon="11.625567236380757"><ele>274.0</ele><time>2026-04-25T09:02:54.998Z</time></trkpt><trkpt lat="43.04310219469985" lon="11.625688493401077"><ele>274.0</ele><time>2026-04-25T09:02:55.998Z</time></trkpt><trkpt lat="43.042878955166934" lon="11.62580942999405"><ele>274.0</ele><time>2026-04-25T09:02:56.998Z</time></trkpt><trkpt lat="43.04264670924204" lon="11.625915811064017"><ele>275.0</ele><time>2026-04-25T09:02:57.998Z</time></trkpt><trkpt lat="43.042420346797044" lon="11.626035931384108"><ele>276.0</ele><time>2026-04-25T09:02:58.998Z</time></trkpt><trkpt lat="43.04219414671637" lon="11.626157102623472"><ele>273.0</ele><time>2026-04-25T09:02:59.998Z</time></trkpt><trkpt lat="43.04197144055163" lon="11.626271353774657"><ele>270.0</ele><time>2026-04-25T09:03:00.998Z</time></trkpt><trkpt lat="43.041763199178725" lon="11.626380923596848"><ele>271.0</ele><time>2026-04-25T09:03:01.998Z</time></trkpt><trkpt lat="43.04155645182384" lon="11.626483196322873"><ele>272.0</ele><time>2026-04-25T09:03:02.998Z</time></trkpt><trkpt lat="43.041337988111394" lon="11.626567070557588"><ele>273.0</ele><time>2026-04-25T09:03:03.998Z</time></trkpt><trkpt lat="43.04110786891697" lon="11.626626647538695"><ele>273.0</ele><time>2026-04-25T09:03:04.998Z</time></trkpt><trkpt lat="43.040872428900016" lon="11.62666934688421"><ele>273.0</ele><time>2026-04-25T09:03:05.998Z</time></trkpt><trkpt lat="43.04064622396761" lon="11.626724255514855"><ele>272.3333333333333</ele><time>2026-04-25T09:03:06.998Z</time></trkpt><trkpt lat="43.040436072603974" lon="11.62679795255714"><ele>271.66666666666663</ele><time>2026-04-25T09:03:07.998Z</time></trkpt><trkpt lat="43.04021063010453" lon="11.626848723968271"><ele>271.0</ele><time>2026-04-25T09:03:08.998Z</time></trkpt><trkpt lat="43.03996835630612" lon="11.626859077964491"><ele>272.0</ele><time>2026-04-25T09:03:09.998Z</time></trkpt><trkpt lat="43.03971179142896" lon="11.626852339844207"><ele>273.0</ele><time>2026-04-25T09:03:10.998Z</time></trkpt><trkpt lat="43.03945961490844" lon="11.626849727096715"><ele>273.0</ele><time>2026-04-25T09:03:11.998Z</time></trkpt><trkpt lat="43.039222929500006" lon="11.626849099211046"><ele>273.0</ele><time>2026-04-25T09:03:12.998Z</time></trkpt><trkpt lat="43.03899680911074" lon="11.626852193731523"><ele>273.0</ele><time>2026-04-25T09:03:13.998Z</time></trkpt><trkpt lat="43.038766105194455" lon="11.626866185388051"><ele>273.0</ele><time>2026-04-25T09:03:14.998Z</time></trkpt><trkpt lat="43.03852215904891" lon="11.62689801438633"><ele>272.0</ele><time>2026-04-25T09:03:15.998Z</time></trkpt><trkpt lat="43.0382667839564" lon="11.626939949851327"><ele>271.0</ele><time>2026-04-25T09:03:16.998Z</time></trkpt><trkpt lat="43.03801492675379" lon="11.626982338558697"><ele>268.0</ele><time>2026-04-25T09:03:17.997Z</time></trkpt><trkpt lat="43.03776997575492" lon="11.627024877562034"><ele>265.0</ele><time>2026-04-25T09:03:18.997Z</time></trkpt><trkpt lat="43.037528532138744" lon="11.627069954883268"><ele>265.5</ele><time>2026-04-25T09:03:19.997Z</time></trkpt><trkpt lat="43.03728894779744" lon="11.627113948814694"><ele>266.0</ele><time>2026-04-25T09:03:20.997Z</time></trkpt><trkpt lat="43.03704645533205" lon="11.627156907164041"><ele>266.0</ele><time>2026-04-25T09:03:21.997Z</time></trkpt><trkpt lat="43.03680499038346" lon="11.627195251829109"><ele>266.0</ele><time>2026-04-25T09:03:22.997Z</time></trkpt><trkpt lat="43.036563525573186" lon="11.627235444625994"><ele>268.5</ele><time>2026-04-25T09:03:23.997Z</time></trkpt><trkpt lat="43.03632095022898" lon="11.627275707344511"><ele>271.0</ele><time>2026-04-25T09:03:24.997Z</time></trkpt><trkpt lat="43.036081682187486" lon="11.627316918746033"><ele>271.0</ele><time>2026-04-25T09:03:25.997Z</time></trkpt><trkpt lat="43.03584442453252" lon="11.627356149448465"><ele>271.0</ele><time>2026-04-25T09:03:26.997Z</time></trkpt><trkpt lat="43.03561110437262" lon="11.627396711620673"><ele>270.0</ele><time>2026-04-25T09:03:28Z</time></trkpt><trkpt lat="43.03537502921435" lon="11.62743518117945"><ele>269.0</ele><time>2026-04-25T09:03:29Z</time></trkpt><trkpt lat="43.035140021366125" lon="11.627474707522687"><ele>268.33333333333337</ele><time>2026-04-25T09:03:30Z</time></trkpt><trkpt lat="43.03491950756372" lon="11.627514113796526"><ele>267.6666666666667</ele><time>2026-04-25T09:03:31Z</time></trkpt><trkpt lat="43.0347143129247" lon="11.627557034897954"><ele>267.0</ele><time>2026-04-25T09:03:32Z</time></trkpt><trkpt lat="43.0345287550347" lon="11.627594093221973"><ele>267.0</ele><time>2026-04-25T09:03:33Z</time></trkpt><trkpt lat="43.034356490128765" lon="11.627624892400208"><ele>267.0</ele><time>2026-04-25T09:03:34Z</time></trkpt><trkpt lat="43.03417692009648" lon="11.627633352088877"><ele>267.0</ele><time>2026-04-25T09:03:35Z</time></trkpt><trkpt lat="43.0339834733807" lon="11.62759249269547"><ele>264.0</ele><time>2026-04-25T09:03:36Z</time></trkpt><trkpt lat="43.033771596872306" lon="11.627518793551921"><ele>261.0</ele><time>2026-04-25T09:03:37Z</time></trkpt><trkpt lat="43.03353229867088" lon="11.62744012446696"><ele>259.0</ele><time>2026-04-25T09:03:38Z</time></trkpt><trkpt lat="43.03328729479002" lon="11.627361615066881"><ele>257.0</ele><time>2026-04-25T09:03:39Z</time></trkpt><trkpt lat="43.03304604014288" lon="11.627286268715816"><ele>257.0</ele><time>2026-04-25T09:03:40Z</time></trkpt><trkpt lat="43.03280485453264" lon="11.627211479846935"><ele>257.0</ele><time>2026-04-25T09:03:41Z</time></trkpt><trkpt lat="43.03256413326713" lon="11.627133520111501"><ele>257.0</ele><time>2026-04-25T09:03:42Z</time></trkpt><trkpt lat="43.03232426415868" lon="11.62705243698023"><ele>257.0</ele><time>2026-04-25T09:03:43Z</time></trkpt><trkpt lat="43.032085692042145" lon="11.626976467252895"><ele>259.5</ele><time>2026-04-25T09:03:44Z</time></trkpt><trkpt lat="43.03184911935375" lon="11.626902120386035"><ele>262.0</ele><time>2026-04-25T09:03:45Z</time></trkpt><trkpt lat="43.031617504713665" lon="11.626831011093802"><ele>263.0</ele><time>2026-04-25T09:03:46Z</time></trkpt><trkpt lat="43.03139268708875" lon="11.626757406185432"><ele>264.0</ele><time>2026-04-25T09:03:47Z</time></trkpt><trkpt lat="43.031169604800624" lon="11.626682021273457"><ele>264.0</ele><time>2026-04-25T09:03:48Z</time></trkpt><trkpt lat="43.03094398293099" lon="11.626611740278616"><ele>264.0</ele><time>2026-04-25T09:03:48.999Z</time></trkpt><trkpt lat="43.03072442374543" lon="11.626546287928006"><ele>262.3333333333333</ele><time>2026-04-25T09:03:49.999Z</time></trkpt><trkpt lat="43.03051264572281" lon="11.626496211845236"><ele>260.66666666666663</ele><time>2026-04-25T09:03:50.999Z</time></trkpt><trkpt lat="43.03029660378926" lon="11.626460449546551"><ele>259.0</ele><time>2026-04-25T09:03:51.999Z</time></trkpt><trkpt lat="43.030073398788005" lon="11.626400897964258"><ele>257.5</ele><time>2026-04-25T09:03:52.999Z</time></trkpt><trkpt lat="43.029852262810316" lon="11.626278885807952"><ele>256.0</ele><time>2026-04-25T09:03:53.999Z</time></trkpt><trkpt lat="43.02964866841013" lon="11.626141434888417"><ele>257.3333333333333</ele><time>2026-04-25T09:03:54.999Z</time></trkpt><trkpt lat="43.02944894291179" lon="11.626042357757504"><ele>258.6666666666667</ele><time>2026-04-25T09:03:55.999Z</time></trkpt><trkpt lat="43.02925148301156" lon="11.625954756557908"><ele>260.0</ele><time>2026-04-25T09:03:56.999Z</time></trkpt><trkpt lat="43.02907058048235" lon="11.625894434140692"><ele>260.0</ele><time>2026-04-25T09:03:57.999Z</time></trkpt><trkpt lat="43.028910534412134" lon="11.625818034473708"><ele>260.0</ele><time>2026-04-25T09:03:58.999Z</time></trkpt><trkpt lat="43.0287770652632" lon="11.625691185676203"><ele>260.0</ele><time>2026-04-25T09:03:59.999Z</time></trkpt><trkpt lat="43.02867179331333" lon="11.62555282561502"><ele>260.0</ele><time>2026-04-25T09:04:00.999Z</time></trkpt><trkpt lat="43.02857686945012" lon="11.625407807810461"><ele>260.0</ele><time>2026-04-25T09:04:01.999Z</time></trkpt><trkpt lat="43.02847638398626" lon="11.625320997315084"><ele>260.0</ele><time>2026-04-25T09:04:02.999Z</time></trkpt><trkpt lat="43.02838759433347" lon="11.625261242479052"><ele>260.0</ele><time>2026-04-25T09:04:03.999Z</time></trkpt><trkpt lat="43.02828970295282" lon="11.625263605665456"><ele>260.75</ele><time>2026-04-25T09:04:04.999Z</time></trkpt><trkpt lat="43.02818313130774" lon="11.625316213307388"><ele>261.5</ele><time>2026-04-25T09:04:05.999Z</time></trkpt><trkpt lat="43.02806832141292" lon="11.625423298663176"><ele>262.25</ele><time>2026-04-25T09:04:06.999Z</time></trkpt><trkpt lat="43.02795870613885" lon="11.62555663844459"><ele>263.0</ele><time>2026-04-25T09:04:07.999Z</time></trkpt><trkpt lat="43.02785559431563" lon="11.625683153924129"><ele>263.0</ele><time>2026-04-25T09:04:08.999Z</time></trkpt><trkpt lat="43.02775985733538" lon="11.625793607025843"><ele>263.0</ele><time>2026-04-25T09:04:09.999Z</time></trkpt><trkpt lat="43.02766989912586" lon="11.625894759508029"><ele>263.0</ele><time>2026-04-25T09:04:10.999Z</time></trkpt><trkpt lat="43.02759847210876" lon="11.625994602298592"><ele>263.0</ele><time>2026-04-25T09:04:11.999Z</time></trkpt><trkpt lat="43.027557160340066" lon="11.626109930262029"><ele>263.0</ele><time>2026-04-25T09:04:12.999Z</time></trkpt><trkpt lat="43.02754952289837" lon="11.626245980041535"><ele>264.6</ele><time>2026-04-25T09:04:13.999Z</time></trkpt><trkpt lat="43.027569311038526" lon="11.626389312810444"><ele>266.20000000000005</ele><time>2026-04-25T09:04:14.999Z</time></trkpt><trkpt lat="43.027599168108004" lon="11.626536654998691"><ele>267.8</ele><time>2026-04-25T09:04:15.999Z</time></trkpt><trkpt lat="43.02761471236295" lon="11.626689109102086"><ele>269.40000000000003</ele><time>2026-04-25T09:04:16.999Z</time></trkpt><trkpt lat="43.02759911516316" lon="11.626849809181431"><ele>271.0</ele><time>2026-04-25T09:04:17.999Z</time></trkpt><trkpt lat="43.02755184554569" lon="11.627000292451251"><ele>271.0</ele><time>2026-04-25T09:04:18.999Z</time></trkpt><trkpt lat="43.027495997058644" lon="11.627141212645412"><ele>271.0</ele><time>2026-04-25T09:04:19.999Z</time></trkpt><trkpt lat="43.02743930745207" lon="11.627276061547441"><ele>271.0</ele><time>2026-04-25T09:04:20.999Z</time></trkpt><trkpt lat="43.02738035354961" lon="11.62741062282083"><ele>271.0</ele><time>2026-04-25T09:04:21.999Z</time></trkpt><trkpt lat="43.02731096701691" lon="11.62752656643823"><ele>272.6</ele><time>2026-04-25T09:04:22.999Z</time></trkpt><trkpt lat="43.027231104284176" lon="11.627614939970192"><ele>274.20000000000005</ele><time>2026-04-25T09:04:23.999Z</time></trkpt><trkpt lat="43.02713350150876" lon="11.627669961441944"><ele>275.79999999999995</ele><time>2026-04-25T09:04:24.999Z</time></trkpt><trkpt lat="43.02702751274032" lon="11.627707446507515"><ele>277.4</ele><time>2026-04-25T09:04:25.999Z</time></trkpt><trkpt lat="43.02689866471401" lon="11.627730740632131"><ele>279.0</ele><time>2026-04-25T09:04:26.999Z</time></trkpt><trkpt lat="43.02676033141511" lon="11.62775117001168"><ele>279.75</ele><time>2026-04-25T09:04:27.999Z</time></trkpt><trkpt lat="43.0266324703923" lon="11.627771660929756"><ele>280.5</ele><time>2026-04-25T09:04:28.999Z</time></trkpt><trkpt lat="43.02650863668331" lon="11.627790057586186"><ele>281.25</ele><time>2026-04-25T09:04:29.999Z</time></trkpt><trkpt lat="43.02639266719053" lon="11.627807614287182"><ele>282.0</ele><time>2026-04-25T09:04:30.999Z</time></trkpt><trkpt lat="43.02628087151498" lon="11.627825121508112"><ele>281.5</ele><time>2026-04-25T09:04:31.999Z</time></trkpt><trkpt lat="43.026176516400454" lon="11.627839929328506"><ele>281.0</ele><time>2026-04-25T09:04:32.999Z</time></trkpt><trkpt lat="43.026092676138035" lon="11.62785299266941"><ele>280.5</ele><time>2026-04-25T09:04:33.999Z</time></trkpt><trkpt lat="43.02602608615074" lon="11.62786482334563"><ele>280.0</ele><time>2026-04-25T09:04:34.999Z</time></trkpt><trkpt lat="43.02590577680921" lon="11.627891457864598"><ele>279.5</ele><time>2026-04-25T09:04:36.999Z</time></trkpt><trkpt lat="43.02583856974404" lon="11.627912192088829"><ele>279.0</ele><time>2026-04-25T09:04:37.998Z</time></trkpt><trkpt lat="43.02576334125848" lon="11.627965641372766"><ele>279.0</ele><time>2026-04-25T09:04:38.998Z</time></trkpt><trkpt lat="43.025685407401504" lon="11.628052013045442"><ele>279.0</ele><time>2026-04-25T09:04:39.998Z</time></trkpt><trkpt lat="43.02560695075627" lon="11.62817544486915"><ele>279.0</ele><time>2026-04-25T09:04:40.998Z</time></trkpt><trkpt lat="43.02552703503794" lon="11.62833429953067"><ele>279.0</ele><time>2026-04-25T09:04:41.998Z</time></trkpt><trkpt lat="43.025447230711485" lon="11.628505702963412"><ele>276.3333333333333</ele><time>2026-04-25T09:04:42.998Z</time></trkpt><trkpt lat="43.025349918976346" lon="11.628703186478052"><ele>273.66666666666663</ele><time>2026-04-25T09:04:43.998Z</time></trkpt><trkpt lat="43.025238402651624" lon="11.628916559859704"><ele>271.0</ele><time>2026-04-25T09:04:44.998Z</time></trkpt><trkpt lat="43.025119589361175" lon="11.62915136419566"><ele>271.0</ele><time>2026-04-25T09:04:45.998Z</time></trkpt><trkpt lat="43.02500447002377" lon="11.62938437745998"><ele>271.0</ele><time>2026-04-25T09:04:46.998Z</time></trkpt><trkpt lat="43.02489350680736" lon="11.62959402841404"><ele>271.0</ele><time>2026-04-25T09:04:47.998Z</time></trkpt><trkpt lat="43.02479192686724" lon="11.629793691126688"><ele>269.0</ele><time>2026-04-25T09:04:48.998Z</time></trkpt><trkpt lat="43.024714731121726" lon="11.62999045371422"><ele>267.0</ele><time>2026-04-25T09:04:49.998Z</time></trkpt><trkpt lat="43.02465664309717" lon="11.63020263839561"><ele>265.0</ele><time>2026-04-25T09:04:50.998Z</time></trkpt><trkpt lat="43.02462410039369" lon="11.63044243870665"><ele>264.0</ele><time>2026-04-25T09:04:51.998Z</time></trkpt><trkpt lat="43.02461973828904" lon="11.630677578831419"><ele>263.0</ele><time>2026-04-25T09:04:52.998Z</time></trkpt><trkpt lat="43.02461888148851" lon="11.63087944126089"><ele>262.0</ele><time>2026-04-25T09:04:53.998Z</time></trkpt><trkpt lat="43.02459087686498" lon="11.631067648285876"><ele>262.5</ele><time>2026-04-25T09:04:54.998Z</time></trkpt><trkpt lat="43.02451637366573" lon="11.631243186299416"><ele>263.0</ele><time>2026-04-25T09:04:55.998Z</time></trkpt><trkpt lat="43.024405899371246" lon="11.631368002661013"><ele>263.5</ele><time>2026-04-25T09:04:56.998Z</time></trkpt><trkpt lat="43.024269432380926" lon="11.631473516347468"><ele>264.0</ele><time>2026-04-25T09:04:57.998Z</time></trkpt><trkpt lat="43.024118178033085" lon="11.63160773902869"><ele>264.6666666666667</ele><time>2026-04-25T09:04:58.998Z</time></trkpt><trkpt lat="43.02395130439935" lon="11.631763398999663"><ele>265.33333333333337</ele><time>2026-04-25T09:04:59.998Z</time></trkpt><trkpt lat="43.023774165188065" lon="11.631921127712314"><ele>266.0</ele><time>2026-04-25T09:05:00.998Z</time></trkpt><trkpt lat="43.02359022149503" lon="11.632092147298716"><ele>266.6666666666667</ele><time>2026-04-25T09:05:01.998Z</time></trkpt><trkpt lat="43.023420371712376" lon="11.632247502755334"><ele>267.3333333333333</ele><time>2026-04-25T09:05:02.998Z</time></trkpt><trkpt lat="43.02325678735594" lon="11.632374740524932"><ele>268.0</ele><time>2026-04-25T09:05:03.998Z</time></trkpt><trkpt lat="43.02309257963171" lon="11.632457536909682"><ele>268.25</ele><time>2026-04-25T09:05:04.998Z</time></trkpt><trkpt lat="43.022934035226704" lon="11.632495154566806"><ele>268.5</ele><time>2026-04-25T09:05:05.998Z</time></trkpt><trkpt lat="43.02279294887793" lon="11.632518757198453"><ele>268.75</ele><time>2026-04-25T09:05:06.998Z</time></trkpt><trkpt lat="43.02266288636518" lon="11.632581145205283"><ele>269.0</ele><time>2026-04-25T09:05:07.998Z</time></trkpt><trkpt lat="43.02254527592401" lon="11.632701988995652"><ele>271.0</ele><time>2026-04-25T09:05:08.998Z</time></trkpt><trkpt lat="43.02244193759746" lon="11.632861773767377"><ele>273.0</ele><time>2026-04-25T09:05:09.998Z</time></trkpt><trkpt lat="43.022354655414894" lon="11.633051131326104"><ele>275.0</ele><time>2026-04-25T09:05:10.998Z</time></trkpt><trkpt lat="43.022293111761805" lon="11.633256638297267"><ele>275.0</ele><time>2026-04-25T09:05:11.998Z</time></trkpt><trkpt lat="43.022250398727685" lon="11.633490500492995"><ele>275.0</ele><time>2026-04-25T09:05:12.998Z</time></trkpt><trkpt lat="43.0222200326863" lon="11.633740840811951"><ele>275.0</ele><time>2026-04-25T09:05:13.998Z</time></trkpt><trkpt lat="43.02218656079573" lon="11.633975717011577"><ele>276.33333333333337</ele><time>2026-04-25T09:05:14.998Z</time></trkpt><trkpt lat="43.02214931003815" lon="11.63420168271526"><ele>277.6666666666667</ele><time>2026-04-25T09:05:15.998Z</time></trkpt><trkpt lat="43.02211474203804" lon="11.634428751543458"><ele>279.0</ele><time>2026-04-25T09:05:16.998Z</time></trkpt><trkpt lat="43.02208413839851" lon="11.634654540076752"><ele>279.75</ele><time>2026-04-25T09:05:17.998Z</time></trkpt><trkpt lat="43.02205169013511" lon="11.63487602052801"><ele>280.5</ele><time>2026-04-25T09:05:18.998Z</time></trkpt><trkpt lat="43.02202351622902" lon="11.635078893580854"><ele>281.25</ele><time>2026-04-25T09:05:19.998Z</time></trkpt><trkpt lat="43.021998397665236" lon="11.635257819330596"><ele>282.0</ele><time>2026-04-25T09:05:20.998Z</time></trkpt><trkpt lat="43.02197547123254" lon="11.63541902739734"><ele>282.3333333333333</ele><time>2026-04-25T09:05:21.998Z</time></trkpt><trkpt lat="43.021954730541374" lon="11.635557476878514"><ele>282.6666666666667</ele><time>2026-04-25T09:05:22.998Z</time></trkpt><trkpt lat="43.021934355675945" lon="11.635674623864606"><ele>283.0</ele><time>2026-04-25T09:05:23.998Z</time></trkpt><trkpt lat="43.02191453991809" lon="11.63577239470406"><ele>283.33333333333337</ele><time>2026-04-25T09:05:24.998Z</time></trkpt><trkpt lat="43.02190052710357" lon="11.635859135231161"><ele>283.6666666666667</ele><time>2026-04-25T09:05:25.998Z</time></trkpt><trkpt lat="43.02187835156266" lon="11.636009559945746"><ele>284.0</ele><time>2026-04-25T09:05:27.997Z</time></trkpt><trkpt lat="43.02185453367871" lon="11.636132060675145"><ele>284.59999999999997</ele><time>2026-04-25T09:05:29.997Z</time></trkpt><trkpt lat="43.02183227404762" lon="11.636260888338938"><ele>285.2</ele><time>2026-04-25T09:05:31.997Z</time></trkpt><trkpt lat="43.02181498000499" lon="11.636424335391933"><ele>285.79999999999995</ele><time>2026-04-25T09:05:34Z</time></trkpt><trkpt lat="43.02179240365983" lon="11.636560098465887"><ele>286.4</ele><time>2026-04-25T09:05:36Z</time></trkpt><trkpt lat="43.02177558680377" lon="11.636665563081436"><ele>287.0</ele><time>2026-04-25T09:05:38Z</time></trkpt><trkpt lat="43.02178599941607" lon="11.636801068932456"><ele>287.0</ele><time>2026-04-25T09:05:42Z</time></trkpt><trkpt lat="43.02198980800299" lon="11.63689299625193"><ele>287.0</ele><time>2026-04-25T09:11:30.998Z</time></trkpt><trkpt lat="43.02192783000312" lon="11.636811630312426"><ele>287.0</ele><time>2026-04-25T09:15:01.999Z</time></trkpt><trkpt lat="43.02187831917586" lon="11.636740958614226"><ele>287.0</ele><time>2026-04-25T09:15:05.999Z</time></trkpt><trkpt lat="43.021771772116274" lon="11.636865736878455"><ele>286.83333333333337</ele><time>2026-04-25T09:17:18.998Z</time></trkpt><trkpt lat="43.021757491957445" lon="11.636972440828893"><ele>286.6666666666667</ele><time>2026-04-25T09:17:19.998Z</time></trkpt><trkpt lat="43.0217437463371" lon="11.637083266201326"><ele>286.5</ele><time>2026-04-25T09:17:20.998Z</time></trkpt><trkpt lat="43.02172708930062" lon="11.637202970642774"><ele>286.3333333333333</ele><time>2026-04-25T09:17:21.998Z</time></trkpt><trkpt lat="43.0217057822718" lon="11.637333517911667"><ele>286.16666666666663</ele><time>2026-04-25T09:17:22.998Z</time></trkpt><trkpt lat="43.021681789517146" lon="11.637465102959053"><ele>286.0</ele><time>2026-04-25T09:17:23.998Z</time></trkpt><trkpt lat="43.02165613927996" lon="11.637594641320819"><ele>286.40000000000003</ele><time>2026-04-25T09:17:24.998Z</time></trkpt><trkpt lat="43.02163177417541" lon="11.637734881248893"><ele>286.8</ele><time>2026-04-25T09:17:25.998Z</time></trkpt><trkpt lat="43.02160966352872" lon="11.637883419350516"><ele>287.20000000000005</ele><time>2026-04-25T09:17:26.998Z</time></trkpt><trkpt lat="43.021588681875926" lon="11.638037743545498"><ele>287.6</ele><time>2026-04-25T09:17:27.998Z</time></trkpt><trkpt lat="43.02156595668344" lon="11.638196836388948"><ele>288.0</ele><time>2026-04-25T09:17:28.998Z</time></trkpt><trkpt lat="43.02153549005921" lon="11.63836727961951"><ele>288.0</ele><time>2026-04-25T09:17:29.998Z</time></trkpt><trkpt lat="43.02150367138512" lon="11.638549038762314"><ele>288.0</ele><time>2026-04-25T09:17:30.998Z</time></trkpt><trkpt lat="43.0214754082434" lon="11.638728415329295"><ele>288.0</ele><time>2026-04-25T09:17:31.998Z</time></trkpt><trkpt lat="43.02145150363021" lon="11.638910719619465"><ele>288.0</ele><time>2026-04-25T09:17:32.998Z</time></trkpt><trkpt lat="43.0214243278683" lon="11.639091459288737"><ele>287.25</ele><time>2026-04-25T09:17:33.998Z</time></trkpt><trkpt lat="43.02139071206369" lon="11.639272922506915"><ele>286.5</ele><time>2026-04-25T09:17:34.998Z</time></trkpt><trkpt lat="43.02135452273188" lon="11.639452568919436"><ele>285.75</ele><time>2026-04-25T09:17:35.998Z</time></trkpt><trkpt lat="43.0213145895416" lon="11.639639425991055"><ele>285.0</ele><time>2026-04-25T09:17:36.998Z</time></trkpt><trkpt lat="43.02126804573617" lon="11.63983107172268"><ele>284.6666666666667</ele><time>2026-04-25T09:17:37.998Z</time></trkpt><trkpt lat="43.02120698576396" lon="11.640028150981808"><ele>284.33333333333337</ele><time>2026-04-25T09:17:38.998Z</time></trkpt><trkpt lat="43.021125320958056" lon="11.640228772348372"><ele>284.0</ele><time>2026-04-25T09:17:39.998Z</time></trkpt><trkpt lat="43.02102237742983" lon="11.640424772824284"><ele>283.0</ele><time>2026-04-25T09:17:40.998Z</time></trkpt><trkpt lat="43.020906435910774" lon="11.640612142053373"><ele>282.0</ele><time>2026-04-25T09:17:41.998Z</time></trkpt><trkpt lat="43.02078786667371" lon="11.640800408986252"><ele>281.0</ele><time>2026-04-25T09:17:42.998Z</time></trkpt><trkpt lat="43.02066255330168" lon="11.640993210155411"><ele>278.33333333333337</ele><time>2026-04-25T09:17:43.998Z</time></trkpt><trkpt lat="43.02054115201274" lon="11.6411931743005"><ele>275.6666666666667</ele><time>2026-04-25T09:17:44.998Z</time></trkpt><trkpt lat="43.02042498355631" lon="11.641380946193765"><ele>273.0</ele><time>2026-04-25T09:17:45.998Z</time></trkpt><trkpt lat="43.02031333157197" lon="11.64156251018884"><ele>273.0</ele><time>2026-04-25T09:17:46.998Z</time></trkpt><trkpt lat="43.02020484653317" lon="11.641735663983885"><ele>273.0</ele><time>2026-04-25T09:17:47.998Z</time></trkpt><trkpt lat="43.02010073279174" lon="11.641899636105304"><ele>273.0</ele><time>2026-04-25T09:17:48.998Z</time></trkpt><trkpt lat="43.02001008766657" lon="11.642047286137311"><ele>272.5</ele><time>2026-04-25T09:17:49.998Z</time></trkpt><trkpt lat="43.01993046142937" lon="11.642180172425187"><ele>272.0</ele><time>2026-04-25T09:17:50.998Z</time></trkpt><trkpt lat="43.01986019653028" lon="11.642316677279249"><ele>271.5</ele><time>2026-04-25T09:17:51.998Z</time></trkpt><trkpt lat="43.019811345268046" lon="11.642476617896785"><ele>271.0</ele><time>2026-04-25T09:17:52.998Z</time></trkpt><trkpt lat="43.01978974891519" lon="11.642671259318996"><ele>270.3333333333333</ele><time>2026-04-25T09:17:53.997Z</time></trkpt><trkpt lat="43.01979367138237" lon="11.642895949313695"><ele>269.6666666666667</ele><time>2026-04-25T09:17:54.997Z</time></trkpt><trkpt lat="43.0198125599258" lon="11.643150301981441"><ele>269.0</ele><time>2026-04-25T09:17:55.997Z</time></trkpt><trkpt lat="43.019829876045186" lon="11.643413353668905"><ele>268.6666666666667</ele><time>2026-04-25T09:17:56.997Z</time></trkpt><trkpt lat="43.019849044382276" lon="11.643691616366965"><ele>268.3333333333333</ele><time>2026-04-25T09:17:57.997Z</time></trkpt><trkpt lat="43.019874734652674" lon="11.643989903048777"><ele>268.0</ele><time>2026-04-25T09:17:58.997Z</time></trkpt><trkpt lat="43.01991267820096" lon="11.644300587398064"><ele>268.0</ele><time>2026-04-25T09:17:59.997Z</time></trkpt><trkpt lat="43.01996099931274" lon="11.644630468277862"><ele>268.0</ele><time>2026-04-25T09:18:00.997Z</time></trkpt><trkpt lat="43.020006117878786" lon="11.644958100865695"><ele>268.0</ele><time>2026-04-25T09:18:01.997Z</time></trkpt><trkpt lat="43.020052029066626" lon="11.645285455055644"><ele>268.0</ele><time>2026-04-25T09:18:02.997Z</time></trkpt><trkpt lat="43.0201007729454" lon="11.645613989750684"><ele>268.0</ele><time>2026-04-25T09:18:03.997Z</time></trkpt><trkpt lat="43.02014536209943" lon="11.64594963664262"><ele>268.0</ele><time>2026-04-25T09:18:04.997Z</time></trkpt><trkpt lat="43.02019292203898" lon="11.646289321374798"><ele>270.0</ele><time>2026-04-25T09:18:05.997Z</time></trkpt><trkpt lat="43.020243581547476" lon="11.646622572850378"><ele>272.0</ele><time>2026-04-25T09:18:06.997Z</time></trkpt><trkpt lat="43.02029195370471" lon="11.646949451948071"><ele>274.0</ele><time>2026-04-25T09:18:07.997Z</time></trkpt><trkpt lat="43.020336807997964" lon="11.647264609561935"><ele>276.0</ele><time>2026-04-25T09:18:08.999Z</time></trkpt><trkpt lat="43.020378993800875" lon="11.647554224879052"><ele>276.6666666666667</ele><time>2026-04-25T09:18:09.999Z</time></trkpt><trkpt lat="43.02042069317597" lon="11.647838780783557"><ele>277.33333333333337</ele><time>2026-04-25T09:18:10.999Z</time></trkpt><trkpt lat="43.02046046835206" lon="11.64810610879183"><ele>278.0</ele><time>2026-04-25T09:18:11.999Z</time></trkpt><trkpt lat="43.020493577568104" lon="11.648345646456464"><ele>278.0</ele><time>2026-04-25T09:18:12.999Z</time></trkpt><trkpt lat="43.020521404301995" lon="11.648570616194593"><ele>278.0</ele><time>2026-04-25T09:18:13.999Z</time></trkpt><trkpt lat="43.0205428868817" lon="11.648785114512433"><ele>278.0</ele><time>2026-04-25T09:18:14.999Z</time></trkpt><trkpt lat="43.02055843912881" lon="11.648995577925447"><ele>277.6666666666667</ele><time>2026-04-25T09:18:15.999Z</time></trkpt><trkpt lat="43.020558197825764" lon="11.649205727064087"><ele>277.3333333333333</ele><time>2026-04-25T09:18:16.999Z</time></trkpt><trkpt lat="43.02053410498013" lon="11.64942305355167"><ele>277.0</ele><time>2026-04-25T09:18:17.999Z</time></trkpt><trkpt lat="43.020495408064775" lon="11.64964819856477"><ele>277.66666666666663</ele><time>2026-04-25T09:18:18.999Z</time></trkpt><trkpt lat="43.020441950315316" lon="11.64987226403409"><ele>278.3333333333333</ele><time>2026-04-25T09:18:19.999Z</time></trkpt><trkpt lat="43.02036156334721" lon="11.650076360616351"><ele>279.0</ele><time>2026-04-25T09:18:20.999Z</time></trkpt><trkpt lat="43.02024328091837" lon="11.650248830017398"><ele>280.0</ele><time>2026-04-25T09:18:21.999Z</time></trkpt><trkpt lat="43.020097750824426" lon="11.650416879519316"><ele>281.0</ele><time>2026-04-25T09:18:22.999Z</time></trkpt><trkpt lat="43.019930547232654" lon="11.650582432135964"><ele>282.0</ele><time>2026-04-25T09:18:23.999Z</time></trkpt><trkpt lat="43.01975595740878" lon="11.650754181722206"><ele>283.3333333333333</ele><time>2026-04-25T09:18:24.999Z</time></trkpt><trkpt lat="43.019599861026954" lon="11.650910849959176"><ele>284.66666666666663</ele><time>2026-04-25T09:18:25.999Z</time></trkpt><trkpt lat="43.019474567151974" lon="11.651069120154549"><ele>286.0</ele><time>2026-04-25T09:18:26.999Z</time></trkpt><trkpt lat="43.019356991640116" lon="11.651263453843594"><ele>286.3333333333333</ele><time>2026-04-25T09:18:27.999Z</time></trkpt><trkpt lat="43.019245999545255" lon="11.651493054360255"><ele>286.6666666666667</ele><time>2026-04-25T09:18:28.999Z</time></trkpt><trkpt lat="43.01913852585085" lon="11.65174858114542"><ele>287.0</ele><time>2026-04-25T09:18:29.999Z</time></trkpt><trkpt lat="43.01902723411484" lon="11.652012380313632"><ele>287.6666666666667</ele><time>2026-04-25T09:18:30.999Z</time></trkpt><trkpt lat="43.01892203469265" lon="11.65227499577316"><ele>288.3333333333333</ele><time>2026-04-25T09:18:31.999Z</time></trkpt><trkpt lat="43.01882001146606" lon="11.652538975591565"><ele>289.0</ele><time>2026-04-25T09:18:32.999Z</time></trkpt><trkpt lat="43.018712056479814" lon="11.652799427634319"><ele>289.3333333333333</ele><time>2026-04-25T09:18:33.999Z</time></trkpt><trkpt lat="43.01860597857636" lon="11.65306246929022"><ele>289.6666666666667</ele><time>2026-04-25T09:18:34.999Z</time></trkpt><trkpt lat="43.01850194271679" lon="11.65333390804706"><ele>290.0</ele><time>2026-04-25T09:18:35.999Z</time></trkpt><trkpt lat="43.018392039375144" lon="11.653609888418233"><ele>290.0</ele><time>2026-04-25T09:18:36.999Z</time></trkpt><trkpt lat="43.01827317009449" lon="11.653885789588495"><ele>290.0</ele><time>2026-04-25T09:18:37.999Z</time></trkpt><trkpt lat="43.01814118274075" lon="11.654162850396913"><ele>290.0</ele><time>2026-04-25T09:18:38.999Z</time></trkpt><trkpt lat="43.01798864372674" lon="11.654428379398231"><ele>290.0</ele><time>2026-04-25T09:18:39.999Z</time></trkpt><trkpt lat="43.01783306548371" lon="11.654696268445528"><ele>291.0</ele><time>2026-04-25T09:18:40.999Z</time></trkpt><trkpt lat="43.01767883643706" lon="11.654966252308514"><ele>292.0</ele><time>2026-04-25T09:18:41.999Z</time></trkpt><trkpt lat="43.017526342768164" lon="11.655236912516811"><ele>294.5</ele><time>2026-04-25T09:18:42.999Z</time></trkpt><trkpt lat="43.017376495915904" lon="11.655506785451797"><ele>297.0</ele><time>2026-04-25T09:18:43.999Z</time></trkpt><trkpt lat="43.017222527438555" lon="11.655770563039953"><ele>297.0</ele><time>2026-04-25T09:18:44.999Z</time></trkpt><trkpt lat="43.01705728656711" lon="11.656019981032841"><ele>297.0</ele><time>2026-04-25T09:18:45.999Z</time></trkpt><trkpt lat="43.016890370105564" lon="11.656251910461775"><ele>297.3333333333333</ele><time>2026-04-25T09:18:46.999Z</time></trkpt><trkpt lat="43.01672876316067" lon="11.656451238659963"><ele>297.66666666666663</ele><time>2026-04-25T09:18:47.999Z</time></trkpt><trkpt lat="43.01656832177135" lon="11.656634323897249"><ele>298.0</ele><time>2026-04-25T09:18:48.999Z</time></trkpt><trkpt lat="43.01640850883989" lon="11.656826114936564"><ele>299.0</ele><time>2026-04-25T09:18:49.999Z</time></trkpt><trkpt lat="43.01625235988945" lon="11.657038400751892"><ele>300.0</ele><time>2026-04-25T09:18:50.999Z</time></trkpt><trkpt lat="43.0161036494704" lon="11.65727665917474"><ele>301.0</ele><time>2026-04-25T09:18:51.999Z</time></trkpt><trkpt lat="43.01596265688419" lon="11.657539219357188"><ele>300.5</ele><time>2026-04-25T09:18:52.999Z</time></trkpt><trkpt lat="43.01582701399494" lon="11.657816970030227"><ele>300.0</ele><time>2026-04-25T09:18:53.999Z</time></trkpt><trkpt lat="43.01569899080604" lon="11.65809754883796"><ele>304.0</ele><time>2026-04-25T09:18:54.999Z</time></trkpt><trkpt lat="43.01557301289222" lon="11.65837631900123"><ele>308.0</ele><time>2026-04-25T09:18:55.999Z</time></trkpt><trkpt lat="43.01544821989802" lon="11.658654126480444"><ele>309.0</ele><time>2026-04-25T09:18:56.999Z</time></trkpt><trkpt lat="43.01533134139089" lon="11.658932526253034"><ele>310.0</ele><time>2026-04-25T09:18:57.999Z</time></trkpt><trkpt lat="43.015225077472735" lon="11.659199963509469"><ele>310.0</ele><time>2026-04-25T09:18:58.999Z</time></trkpt><trkpt lat="43.01512519881597" lon="11.659441846389806"><ele>310.0</ele><time>2026-04-25T09:18:59.999Z</time></trkpt><trkpt lat="43.015023994371255" lon="11.65966415973065"><ele>310.0</ele><time>2026-04-25T09:19:00.999Z</time></trkpt><trkpt lat="43.01491955054102" lon="11.659862228906857"><ele>310.0</ele><time>2026-04-25T09:19:01.999Z</time></trkpt><trkpt lat="43.01481071230088" lon="11.660042725104235"><ele>310.0</ele><time>2026-04-25T09:19:02.999Z</time></trkpt><trkpt lat="43.014691241366926" lon="11.660222613583828"><ele>310.0</ele><time>2026-04-25T09:19:03.999Z</time></trkpt><trkpt lat="43.01455840369104" lon="11.660409842264265"><ele>310.0</ele><time>2026-04-25T09:19:04.999Z</time></trkpt><trkpt lat="43.01441829750439" lon="11.660605244217464"><ele>310.0</ele><time>2026-04-25T09:19:05.999Z</time></trkpt><trkpt lat="43.0142757646139" lon="11.660795222910092"><ele>310.0</ele><time>2026-04-25T09:19:06.999Z</time></trkpt><trkpt lat="43.01412451443735" lon="11.660969623836971"><ele>308.3333333333333</ele><time>2026-04-25T09:19:07.999Z</time></trkpt><trkpt lat="43.0139688294384" lon="11.661134442477307"><ele>306.6666666666667</ele><time>2026-04-25T09:19:08.999Z</time></trkpt><trkpt lat="43.01381250292142" lon="11.66130243124294"><ele>305.0</ele><time>2026-04-25T09:19:09.999Z</time></trkpt><trkpt lat="43.01365363213204" lon="11.66147462670189"><ele>305.0</ele><time>2026-04-25T09:19:10.999Z</time></trkpt><trkpt lat="43.013491919977774" lon="11.661643317753818"><ele>305.0</ele><time>2026-04-25T09:19:11.999Z</time></trkpt><trkpt lat="43.01332899627299" lon="11.6618048799988"><ele>305.0</ele><time>2026-04-25T09:19:12.999Z</time></trkpt><trkpt lat="43.01316340039665" lon="11.661957200273557"><ele>304.6666666666667</ele><time>2026-04-25T09:19:13.999Z</time></trkpt><trkpt lat="43.012996889705825" lon="11.662110111685115"><ele>304.3333333333333</ele><time>2026-04-25T09:19:14.999Z</time></trkpt><trkpt lat="43.01284170135982" lon="11.662282000927002"><ele>304.0</ele><time>2026-04-25T09:19:15.999Z</time></trkpt><trkpt lat="43.01271383929507" lon="11.662479870070104"><ele>304.0</ele><time>2026-04-25T09:19:16.999Z</time></trkpt><trkpt lat="43.012590547887896" lon="11.662695781251683"><ele>304.0</ele><time>2026-04-25T09:19:17.999Z</time></trkpt><trkpt lat="43.01245494487979" lon="11.662907745878197"><ele>304.0</ele><time>2026-04-25T09:19:18.999Z</time></trkpt><trkpt lat="43.01231523530963" lon="11.66311420632483"><ele>305.3333333333333</ele><time>2026-04-25T09:19:19.999Z</time></trkpt><trkpt lat="43.01217385446022" lon="11.663315855423894"><ele>306.6666666666667</ele><time>2026-04-25T09:19:20.998Z</time></trkpt><trkpt lat="43.012028669037335" lon="11.663510981085738"><ele>308.0</ele><time>2026-04-25T09:19:21.998Z</time></trkpt><trkpt lat="43.01187752787389" lon="11.663702592819563"><ele>308.0</ele><time>2026-04-25T09:19:22.998Z</time></trkpt><trkpt lat="43.01172953725891" lon="11.663900072541031"><ele>308.0</ele><time>2026-04-25T09:19:23.998Z</time></trkpt><trkpt lat="43.01158628522157" lon="11.664108977470507"><ele>308.0</ele><time>2026-04-25T09:19:24.998Z</time></trkpt><trkpt lat="43.01144412267901" lon="11.664321668851828"><ele>308.0</ele><time>2026-04-25T09:19:25.998Z</time></trkpt><trkpt lat="43.011298723320074" lon="11.664536092725871"><ele>308.0</ele><time>2026-04-25T09:19:26.998Z</time></trkpt><trkpt lat="43.011151488378886" lon="11.664757292626694"><ele>308.0</ele><time>2026-04-25T09:19:27.998Z</time></trkpt><trkpt lat="43.01100336791803" lon="11.664981713228519"><ele>308.0</ele><time>2026-04-25T09:19:28.998Z</time></trkpt><trkpt lat="43.01085586272383" lon="11.665204577106826"><ele>308.0</ele><time>2026-04-25T09:19:29.998Z</time></trkpt><trkpt lat="43.010709499947254" lon="11.665422821550065"><ele>308.0</ele><time>2026-04-25T09:19:30.998Z</time></trkpt><trkpt lat="43.01056044295897" lon="11.665642418477287"><ele>307.6666666666667</ele><time>2026-04-25T09:19:31.998Z</time></trkpt><trkpt lat="43.01041398804307" lon="11.665866945053235"><ele>307.3333333333333</ele><time>2026-04-25T09:19:32.998Z</time></trkpt><trkpt lat="43.01026953019083" lon="11.666087251681013"><ele>307.0</ele><time>2026-04-25T09:19:33.998Z</time></trkpt><trkpt lat="43.010113729260695" lon="11.666329861144915"><ele>307.5</ele><time>2026-04-25T09:19:34.998Z</time></trkpt><trkpt lat="43.00994807279658" lon="11.666582205342765"><ele>308.0</ele><time>2026-04-25T09:19:35.998Z</time></trkpt><trkpt lat="43.009767264626156" lon="11.666821079941359"><ele>307.5</ele><time>2026-04-25T09:19:36.998Z</time></trkpt><trkpt lat="43.009567526802904" lon="11.66706533403862"><ele>307.0</ele><time>2026-04-25T09:19:37.998Z</time></trkpt><trkpt lat="43.00936338267299" lon="11.667326611726706"><ele>307.0</ele><time>2026-04-25T09:19:38.998Z</time></trkpt><trkpt lat="43.00916755967063" lon="11.667594092884343"><ele>307.0</ele><time>2026-04-25T09:19:39.998Z</time></trkpt><trkpt lat="43.00896749851015" lon="11.66784318973009"><ele>309.5</ele><time>2026-04-25T09:19:40.998Z</time></trkpt><trkpt lat="43.00877741538233" lon="11.668075338389816"><ele>312.0</ele><time>2026-04-25T09:19:41.998Z</time></trkpt><trkpt lat="43.00859816736779" lon="11.66830252166259"><ele>312.0</ele><time>2026-04-25T09:19:42.998Z</time></trkpt><trkpt lat="43.00843136204035" lon="11.668504090096555"><ele>312.0</ele><time>2026-04-25T09:19:43.998Z</time></trkpt><trkpt lat="43.00828746639157" lon="11.668679591202709"><ele>312.0</ele><time>2026-04-25T09:19:44.998Z</time></trkpt><trkpt lat="43.00816020909133" lon="11.668838184382864"><ele>316.0</ele><time>2026-04-25T09:19:45.998Z</time></trkpt><trkpt lat="43.008050224381606" lon="11.6689820246915"><ele>320.0</ele><time>2026-04-25T09:19:46.998Z</time></trkpt><trkpt lat="43.007959634285285" lon="11.669140477830657"><ele>324.0</ele><time>2026-04-25T09:19:47.998Z</time></trkpt><trkpt lat="43.007891332192976" lon="11.669322299661575"><ele>328.0</ele><time>2026-04-25T09:19:48.998Z</time></trkpt><trkpt lat="43.00784164321269" lon="11.669520857521093"><ele>328.25</ele><time>2026-04-25T09:19:49.998Z</time></trkpt><trkpt lat="43.007795705692246" lon="11.669718207761692"><ele>328.5</ele><time>2026-04-25T09:19:50.998Z</time></trkpt><trkpt lat="43.00775106647988" lon="11.669908071088386"><ele>328.75</ele><time>2026-04-25T09:19:51.998Z</time></trkpt><trkpt lat="43.00769767845018" lon="11.670090700373077"><ele>329.0</ele><time>2026-04-25T09:19:52.998Z</time></trkpt><trkpt lat="43.007628461559285" lon="11.670274475416484"><ele>328.33333333333337</ele><time>2026-04-25T09:19:53.998Z</time></trkpt><trkpt lat="43.007547563143575" lon="11.670458832243446"><ele>327.6666666666667</ele><time>2026-04-25T09:19:54.998Z</time></trkpt><trkpt lat="43.00745213983205" lon="11.67063015323584"><ele>327.0</ele><time>2026-04-25T09:19:55.998Z</time></trkpt><trkpt lat="43.00733136195933" lon="11.670798221756636"><ele>326.0</ele><time>2026-04-25T09:19:56.998Z</time></trkpt><trkpt lat="43.00719615606494" lon="11.670963640248074"><ele>325.0</ele><time>2026-04-25T09:19:57.998Z</time></trkpt><trkpt lat="43.00705378902811" lon="11.671131081868749"><ele>324.0</ele><time>2026-04-25T09:19:58.998Z</time></trkpt><trkpt lat="43.00690999262168" lon="11.671295279075391"><ele>323.0</ele><time>2026-04-25T09:19:59.998Z</time></trkpt><trkpt lat="43.006767819696506" lon="11.671456976289061"><ele>322.0</ele><time>2026-04-25T09:20:00.998Z</time></trkpt><trkpt lat="43.006627445417976" lon="11.671614738696436"><ele>321.0</ele><time>2026-04-25T09:20:01.998Z</time></trkpt><trkpt lat="43.00648076558424" lon="11.671770077748054"><ele>319.6666666666667</ele><time>2026-04-25T09:20:02.998Z</time></trkpt><trkpt lat="43.00632593800367" lon="11.67191991692645"><ele>318.33333333333337</ele><time>2026-04-25T09:20:03.998Z</time></trkpt><trkpt lat="43.006164832172814" lon="11.672061650202597"><ele>317.0</ele><time>2026-04-25T09:20:04.998Z</time></trkpt><trkpt lat="43.00600324356093" lon="11.672206487547342"><ele>316.0</ele><time>2026-04-25T09:20:05.998Z</time></trkpt><trkpt lat="43.00584007518695" lon="11.672363436020284"><ele>315.0</ele><time>2026-04-25T09:20:06.998Z</time></trkpt><trkpt lat="43.00567589545729" lon="11.672539791016046"><ele>314.0</ele><time>2026-04-25T09:20:07.998Z</time></trkpt><trkpt lat="43.00551854232876" lon="11.672721700230985"><ele>315.0</ele><time>2026-04-25T09:20:08.998Z</time></trkpt><trkpt lat="43.0053764454297" lon="11.672901864573246"><ele>316.0</ele><time>2026-04-25T09:20:09.998Z</time></trkpt><trkpt lat="43.00525134952321" lon="11.673082694860712"><ele>317.0</ele><time>2026-04-25T09:20:10.998Z</time></trkpt><trkpt lat="43.005136407912325" lon="11.673265627288043"><ele>317.0</ele><time>2026-04-25T09:20:11.998Z</time></trkpt><trkpt lat="43.0050264411564" lon="11.673449863518364"><ele>317.0</ele><time>2026-04-25T09:20:12.998Z</time></trkpt><trkpt lat="43.00491531135382" lon="11.67362996862332"><ele>317.0</ele><time>2026-04-25T09:20:13.998Z</time></trkpt><trkpt lat="43.00479846767307" lon="11.673794835500766"><ele>316.6666666666667</ele><time>2026-04-25T09:20:15Z</time></trkpt><trkpt lat="43.00467596182254" lon="11.67394665189581"><ele>316.3333333333333</ele><time>2026-04-25T09:20:16Z</time></trkpt><trkpt lat="43.00455347221239" lon="11.674089899897497"><ele>316.0</ele><time>2026-04-25T09:20:17Z</time></trkpt><trkpt lat="43.004432383127764" lon="11.674244533712569"><ele>316.0</ele><time>2026-04-25T09:20:18Z</time></trkpt><trkpt lat="43.00431674520563" lon="11.674423873115954"><ele>316.0</ele><time>2026-04-25T09:20:19Z</time></trkpt><trkpt lat="43.00421035120064" lon="11.67462128388019"><ele>316.0</ele><time>2026-04-25T09:20:20Z</time></trkpt><trkpt lat="43.00411466731135" lon="11.67482540385478"><ele>314.66666666666663</ele><time>2026-04-25T09:20:21Z</time></trkpt><trkpt lat="43.00403942014058" lon="11.675051744279834"><ele>313.3333333333333</ele><time>2026-04-25T09:20:22Z</time></trkpt><trkpt lat="43.003982860134705" lon="11.67529837832196"><ele>312.0</ele><time>2026-04-25T09:20:23Z</time></trkpt><trkpt lat="43.00393401875087" lon="11.675558809373193"><ele>312.0</ele><time>2026-04-25T09:20:24Z</time></trkpt><trkpt lat="43.003885204654075" lon="11.675815835067713"><ele>312.0</ele><time>2026-04-25T09:20:25Z</time></trkpt><trkpt lat="43.003831051559956" lon="11.676066487828496"><ele>312.0</ele><time>2026-04-25T09:20:26Z</time></trkpt><trkpt lat="43.00377744351889" lon="11.676318443796719"><ele>312.0</ele><time>2026-04-25T09:20:27Z</time></trkpt><trkpt lat="43.00371940969646" lon="11.676565413211677"><ele>312.0</ele><time>2026-04-25T09:20:28Z</time></trkpt><trkpt lat="43.00365247311158" lon="11.676803199893067"><ele>312.0</ele><time>2026-04-25T09:20:29Z</time></trkpt><trkpt lat="43.00358780829192" lon="11.677043982898194"><ele>311.3333333333333</ele><time>2026-04-25T09:20:30Z</time></trkpt><trkpt lat="43.003525511325115" lon="11.677286428023871"><ele>310.66666666666663</ele><time>2026-04-25T09:20:31Z</time></trkpt><trkpt lat="43.00345549454326" lon="11.677528231676524"><ele>310.0</ele><time>2026-04-25T09:20:32Z</time></trkpt><trkpt lat="43.00337731013208" lon="11.677765719911397"><ele>309.66666666666663</ele><time>2026-04-25T09:20:33Z</time></trkpt><trkpt lat="43.003292141199445" lon="11.6780005801873"><ele>309.3333333333333</ele><time>2026-04-25T09:20:34Z</time></trkpt><trkpt lat="43.00319924687499" lon="11.678234839660488"><ele>309.0</ele><time>2026-04-25T09:20:35Z</time></trkpt><trkpt lat="43.00310457124164" lon="11.678466733492304"><ele>308.6666666666667</ele><time>2026-04-25T09:20:36Z</time></trkpt><trkpt lat="43.00300673055467" lon="11.67869671639807"><ele>308.33333333333337</ele><time>2026-04-25T09:20:37Z</time></trkpt><trkpt lat="43.00290159096257" lon="11.678924430532227"><ele>308.0</ele><time>2026-04-25T09:20:38Z</time></trkpt><trkpt lat="43.00279122720614" lon="11.679150583082071"><ele>308.0</ele><time>2026-04-25T09:20:39Z</time></trkpt><trkpt lat="43.00267804710382" lon="11.679374682855824"><ele>308.0</ele><time>2026-04-25T09:20:40Z</time></trkpt><trkpt lat="43.002566319293464" lon="11.679601119335352"><ele>308.0</ele><time>2026-04-25T09:20:41Z</time></trkpt><trkpt lat="43.00245594710784" lon="11.679837780542632"><ele>308.0</ele><time>2026-04-25T09:20:42Z</time></trkpt><trkpt lat="43.00234592604809" lon="11.680085274952686"><ele>308.0</ele><time>2026-04-25T09:20:43Z</time></trkpt><trkpt lat="43.00224739820947" lon="11.680321795393056"><ele>308.0</ele><time>2026-04-25T09:20:44Z</time></trkpt><trkpt lat="43.002154978478266" lon="11.680555696236251"><ele>308.0</ele><time>2026-04-25T09:20:45Z</time></trkpt><trkpt lat="43.00206471598574" lon="11.680790432001896"><ele>308.0</ele><time>2026-04-25T09:20:46Z</time></trkpt><trkpt lat="43.00197500121885" lon="11.681017863888568"><ele>308.0</ele><time>2026-04-25T09:20:46.999Z</time></trkpt><trkpt lat="43.00188894072117" lon="11.681232288943823"><ele>308.33333333333337</ele><time>2026-04-25T09:20:47.999Z</time></trkpt><trkpt lat="43.00180955941693" lon="11.681429613128811"><ele>308.6666666666667</ele><time>2026-04-25T09:20:48.999Z</time></trkpt><trkpt lat="43.00172959109557" lon="11.68161176998007"><ele>309.0</ele><time>2026-04-25T09:20:49.999Z</time></trkpt><trkpt lat="43.00164016737183" lon="11.681781252812128"><ele>311.25</ele><time>2026-04-25T09:20:50.999Z</time></trkpt><trkpt lat="43.00153837831409" lon="11.6819354396142"><ele>313.5</ele><time>2026-04-25T09:20:51.999Z</time></trkpt><trkpt lat="43.001432373602626" lon="11.682074422246945"><ele>315.75</ele><time>2026-04-25T09:20:52.999Z</time></trkpt><trkpt lat="43.001319579704436" lon="11.682200485760914"><ele>318.0</ele><time>2026-04-25T09:20:53.999Z</time></trkpt><trkpt lat="43.00120698785921" lon="11.68231833635836"><ele>318.0</ele><time>2026-04-25T09:20:54.999Z</time></trkpt><trkpt lat="43.001094218197395" lon="11.682425145322574"><ele>318.0</ele><time>2026-04-25T09:20:55.999Z</time></trkpt><trkpt lat="43.000980535514586" lon="11.682526830531426"><ele>318.0</ele><time>2026-04-25T09:20:56.999Z</time></trkpt><trkpt lat="43.00086828378291" lon="11.682627322759702"><ele>318.0</ele><time>2026-04-25T09:20:57.999Z</time></trkpt><trkpt lat="43.000765052327075" lon="11.682721555750282"><ele>318.75</ele><time>2026-04-25T09:20:58.999Z</time></trkpt><trkpt lat="43.00066834837198" lon="11.68280716091759"><ele>319.5</ele><time>2026-04-25T09:20:59.999Z</time></trkpt><trkpt lat="43.00056906264687" lon="11.68288778459888"><ele>320.25</ele><time>2026-04-25T09:21:00.999Z</time></trkpt><trkpt lat="43.00047102059761" lon="11.682973552206043"><ele>321.0</ele><time>2026-04-25T09:21:01.999Z</time></trkpt><trkpt lat="43.00037261449608" lon="11.683066431154456"><ele>321.0</ele><time>2026-04-25T09:21:02.999Z</time></trkpt><trkpt lat="43.000273116877686" lon="11.683158305927705"><ele>321.0</ele><time>2026-04-25T09:21:03.999Z</time></trkpt><trkpt lat="43.00017257100229" lon="11.683251194565251"><ele>321.0</ele><time>2026-04-25T09:21:04.999Z</time></trkpt><trkpt lat="43.00006728389714" lon="11.683345662783905"><ele>321.0</ele><time>2026-04-25T09:21:05.999Z</time></trkpt><trkpt lat="42.999958771374295" lon="11.683439975448835"><ele>321.0</ele><time>2026-04-25T09:21:06.999Z</time></trkpt><trkpt lat="42.999845970334135" lon="11.683522488218848"><ele>321.0</ele><time>2026-04-25T09:21:07.999Z</time></trkpt><trkpt lat="42.9997277489995" lon="11.68358675366998"><ele>321.0</ele><time>2026-04-25T09:21:08.999Z</time></trkpt><trkpt lat="42.99959673127615" lon="11.683622099993359"><ele>321.0</ele><time>2026-04-25T09:21:09.999Z</time></trkpt><trkpt lat="42.99945724667466" lon="11.683626176871655"><ele>319.5</ele><time>2026-04-25T09:21:10.999Z</time></trkpt><trkpt lat="42.99931360632534" lon="11.683615847598048"><ele>318.0</ele><time>2026-04-25T09:21:11.999Z</time></trkpt><trkpt lat="42.999168704576185" lon="11.68361076642678"><ele>316.5</ele><time>2026-04-25T09:21:12.999Z</time></trkpt><trkpt lat="42.99901493248933" lon="11.683613797052708"><ele>315.0</ele><time>2026-04-25T09:21:13.999Z</time></trkpt><trkpt lat="42.998859331172014" lon="11.683609154839095"><ele>314.3333333333333</ele><time>2026-04-25T09:21:14.999Z</time></trkpt><trkpt lat="42.99869753203961" lon="11.683603299333477"><ele>313.66666666666663</ele><time>2026-04-25T09:21:15.999Z</time></trkpt><trkpt lat="42.998525858325486" lon="11.683600797184468"><ele>313.0</ele><time>2026-04-25T09:21:16.999Z</time></trkpt><trkpt lat="42.998352026583184" lon="11.683598239222416"><ele>314.3333333333333</ele><time>2026-04-25T09:21:17.999Z</time></trkpt><trkpt lat="42.9981793791864" lon="11.683590724849308"><ele>315.6666666666667</ele><time>2026-04-25T09:21:18.999Z</time></trkpt><trkpt lat="42.99800732880394" lon="11.68357800375799"><ele>317.0</ele><time>2026-04-25T09:21:19.999Z</time></trkpt><trkpt lat="42.99783563881416" lon="11.683565837123698"><ele>317.0</ele><time>2026-04-25T09:21:20.999Z</time></trkpt><trkpt lat="42.9976704040883" lon="11.683552654196019"><ele>317.0</ele><time>2026-04-25T09:21:21.999Z</time></trkpt><trkpt lat="42.99750996070337" lon="11.683534283184942"><ele>317.0</ele><time>2026-04-25T09:21:22.999Z</time></trkpt><trkpt lat="42.99735658793525" lon="11.68351090000297"><ele>315.25</ele><time>2026-04-25T09:21:23.999Z</time></trkpt><trkpt lat="42.99720816105538" lon="11.683491521181896"><ele>313.5</ele><time>2026-04-25T09:21:24.999Z</time></trkpt><trkpt lat="42.997065333419314" lon="11.683482875026277"><ele>311.75</ele><time>2026-04-25T09:21:25.999Z</time></trkpt><trkpt lat="42.99693592857092" lon="11.683497971965169"><ele>310.0</ele><time>2026-04-25T09:21:26.999Z</time></trkpt><trkpt lat="42.99681767351589" lon="11.68353973618657"><ele>309.25</ele><time>2026-04-25T09:21:27.999Z</time></trkpt><trkpt lat="42.99670744801045" lon="11.683604174017754"><ele>308.5</ele><time>2026-04-25T09:21:28.999Z</time></trkpt><trkpt lat="42.99660343333491" lon="11.683703133398522"><ele>307.75</ele><time>2026-04-25T09:21:29.999Z</time></trkpt><trkpt lat="42.996519086789185" lon="11.683839593816684"><ele>307.0</ele><time>2026-04-25T09:21:30.999Z</time></trkpt><trkpt lat="42.99645629301657" lon="11.683998352711711"><ele>307.0</ele><time>2026-04-25T09:21:31.999Z</time></trkpt><trkpt lat="42.99639466065939" lon="11.684151662302614"><ele>307.0</ele><time>2026-04-25T09:21:32.999Z</time></trkpt><trkpt lat="42.99631348924786" lon="11.684292353756028"><ele>307.0</ele><time>2026-04-25T09:21:33.999Z</time></trkpt><trkpt lat="42.996208122993245" lon="11.68441614704711"><ele>307.0</ele><time>2026-04-25T09:21:34.999Z</time></trkpt><trkpt lat="42.9960814759858" lon="11.684529718982025"><ele>306.3333333333333</ele><time>2026-04-25T09:21:35.999Z</time></trkpt><trkpt lat="42.995943773134414" lon="11.684638702630679"><ele>305.6666666666667</ele><time>2026-04-25T09:21:36.999Z</time></trkpt><trkpt lat="42.99579996536256" lon="11.684749524651526"><ele>305.0</ele><time>2026-04-25T09:21:37.999Z</time></trkpt><trkpt lat="42.995647705868336" lon="11.684865922650502"><ele>305.0</ele><time>2026-04-25T09:21:38.999Z</time></trkpt><trkpt lat="42.99548590358747" lon="11.684991882331119"><ele>305.0</ele><time>2026-04-25T09:21:39.999Z</time></trkpt><trkpt lat="42.995312584198885" lon="11.68512327524016"><ele>305.0</ele><time>2026-04-25T09:21:40.999Z</time></trkpt><trkpt lat="42.99513431019617" lon="11.685264360775315"><ele>304.6666666666667</ele><time>2026-04-25T09:21:41.999Z</time></trkpt><trkpt lat="42.99495445973851" lon="11.68539565540876"><ele>304.3333333333333</ele><time>2026-04-25T09:21:42.999Z</time></trkpt><trkpt lat="42.99477733653039" lon="11.685522747631504"><ele>304.0</ele><time>2026-04-25T09:21:43.999Z</time></trkpt><trkpt lat="42.99460761674352" lon="11.68565158783225"><ele>304.0</ele><time>2026-04-25T09:21:44.998Z</time></trkpt><trkpt lat="42.99443459704994" lon="11.685785442471293"><ele>304.0</ele><time>2026-04-25T09:21:45.998Z</time></trkpt><trkpt lat="42.994259809654416" lon="11.685920635678501"><ele>304.0</ele><time>2026-04-25T09:21:46.998Z</time></trkpt><trkpt lat="42.99408433454307" lon="11.68605433070246"><ele>304.3333333333333</ele><time>2026-04-25T09:21:47.998Z</time></trkpt><trkpt lat="42.9939120991444" lon="11.686184563827"><ele>304.6666666666667</ele><time>2026-04-25T09:21:48.998Z</time></trkpt><trkpt lat="42.993746657792215" lon="11.686309845665374"><ele>305.0</ele><time>2026-04-25T09:21:49.998Z</time></trkpt><trkpt lat="42.993580923160266" lon="11.686431248040474"><ele>305.0</ele><time>2026-04-25T09:21:50.998Z</time></trkpt><trkpt lat="42.99340611609679" lon="11.686522833826073"><ele>305.0</ele><time>2026-04-25T09:21:51.998Z</time></trkpt><trkpt lat="42.9932207961976" lon="11.686582709755694"><ele>305.0</ele><time>2026-04-25T09:21:52.998Z</time></trkpt><trkpt lat="42.993034293949265" lon="11.686624799658183"><ele>306.0</ele><time>2026-04-25T09:21:53.998Z</time></trkpt><trkpt lat="42.992848873966345" lon="11.686664382042174"><ele>307.0</ele><time>2026-04-25T09:21:54.998Z</time></trkpt><trkpt lat="42.99266295412514" lon="11.68671396245754"><ele>308.0</ele><time>2026-04-25T09:21:55.998Z</time></trkpt><trkpt lat="42.99247444635837" lon="11.686759521474013"><ele>309.0</ele><time>2026-04-25T09:21:56.998Z</time></trkpt><trkpt lat="42.99228901193012" lon="11.68680025812743"><ele>310.0</ele><time>2026-04-25T09:21:57.998Z</time></trkpt><trkpt lat="42.992111340279266" lon="11.68684335200435"><ele>311.0</ele><time>2026-04-25T09:21:58.998Z</time></trkpt><trkpt lat="42.991942867906545" lon="11.686884735153845"><ele>311.0</ele><time>2026-04-25T09:21:59.998Z</time></trkpt><trkpt lat="42.99177875807651" lon="11.68692445089642"><ele>311.0</ele><time>2026-04-25T09:22:00.998Z</time></trkpt><trkpt lat="42.99161955944782" lon="11.686963494204734"><ele>311.0</ele><time>2026-04-25T09:22:01.998Z</time></trkpt><trkpt lat="42.99146935660257" lon="11.686998981326271"><ele>309.75</ele><time>2026-04-25T09:22:02.998Z</time></trkpt><trkpt lat="42.99133060855849" lon="11.687028108100206"><ele>308.5</ele><time>2026-04-25T09:22:03.998Z</time></trkpt><trkpt lat="42.991199102190336" lon="11.68705731943217"><ele>307.25</ele><time>2026-04-25T09:22:04.998Z</time></trkpt><trkpt lat="42.991079416015936" lon="11.687093899180796"><ele>306.0</ele><time>2026-04-25T09:22:05.998Z</time></trkpt><trkpt lat="42.990970014384985" lon="11.68715476347196"><ele>306.0</ele><time>2026-04-25T09:22:06.998Z</time></trkpt><trkpt lat="42.990869250462275" lon="11.68724970955062"><ele>306.0</ele><time>2026-04-25T09:22:07.998Z</time></trkpt><trkpt lat="42.99079018664337" lon="11.687375689077522"><ele>306.0</ele><time>2026-04-25T09:22:08.998Z</time></trkpt><trkpt lat="42.99073439046421" lon="11.687514569282579"><ele>306.0</ele><time>2026-04-25T09:22:09.998Z</time></trkpt><trkpt lat="42.990698955171425" lon="11.687669992438025"><ele>306.25</ele><time>2026-04-25T09:22:10.998Z</time></trkpt><trkpt lat="42.99068463652183" lon="11.687832793831607"><ele>306.5</ele><time>2026-04-25T09:22:11.998Z</time></trkpt><trkpt lat="42.99068272156818" lon="11.687992966580444"><ele>306.75</ele><time>2026-04-25T09:22:12.998Z</time></trkpt><trkpt lat="42.990679414876496" lon="11.68814456650137"><ele>307.0</ele><time>2026-04-25T09:22:13.998Z</time></trkpt><trkpt lat="42.99067328726209" lon="11.68829214191273"><ele>307.0</ele><time>2026-04-25T09:22:14.998Z</time></trkpt><trkpt lat="42.99066928324549" lon="11.688432219789215"><ele>307.0</ele><time>2026-04-25T09:22:15.998Z</time></trkpt><trkpt lat="42.990665942235275" lon="11.688562351115236"><ele>307.0</ele><time>2026-04-25T09:22:16.998Z</time></trkpt><trkpt lat="42.99064986348951" lon="11.688691078125743"><ele>307.0</ele><time>2026-04-25T09:22:17.998Z</time></trkpt><trkpt lat="42.990606860834816" lon="11.68882198720341"><ele>307.0</ele><time>2026-04-25T09:22:18.998Z</time></trkpt><trkpt lat="42.99054045116538" lon="11.688956193447181"><ele>307.25</ele><time>2026-04-25T09:22:19.998Z</time></trkpt><trkpt lat="42.99045767906552" lon="11.689093636247271"><ele>307.5</ele><time>2026-04-25T09:22:21Z</time></trkpt><trkpt lat="42.990357433686825" lon="11.689225498327518"><ele>307.75</ele><time>2026-04-25T09:22:22Z</time></trkpt><trkpt lat="42.990248412597204" lon="11.689374335707576"><ele>308.0</ele><time>2026-04-25T09:22:23Z</time></trkpt><trkpt lat="42.9901303131914" lon="11.689552130880204"><ele>308.6666666666667</ele><time>2026-04-25T09:22:24Z</time></trkpt><trkpt lat="42.98999714833212" lon="11.689745544510606"><ele>309.3333333333333</ele><time>2026-04-25T09:22:25Z</time></trkpt><trkpt lat="42.989840168382884" lon="11.689953859092395"><ele>310.0</ele><time>2026-04-25T09:22:26Z</time></trkpt><trkpt lat="42.989671751207474" lon="11.690191114203362"><ele>312.0</ele><time>2026-04-25T09:22:27Z</time></trkpt><trkpt lat="42.98948788772836" lon="11.690450328911576"><ele>314.0</ele><time>2026-04-25T09:22:28Z</time></trkpt><trkpt lat="42.98929983010868" lon="11.69073397769098"><ele>313.5</ele><time>2026-04-25T09:22:29Z</time></trkpt><trkpt lat="42.98909338840922" lon="11.690994790831608"><ele>313.0</ele><time>2026-04-25T09:22:30Z</time></trkpt><trkpt lat="42.98888775752472" lon="11.691283996248625"><ele>315.5</ele><time>2026-04-25T09:22:31Z</time></trkpt><trkpt lat="42.9886909092601" lon="11.691579736651383"><ele>318.0</ele><time>2026-04-25T09:22:32Z</time></trkpt><trkpt lat="42.988493279453586" lon="11.69186406054029"><ele>317.5</ele><time>2026-04-25T09:22:33Z</time></trkpt><trkpt lat="42.98829536913045" lon="11.692138687388296"><ele>317.0</ele><time>2026-04-25T09:22:34Z</time></trkpt><trkpt lat="42.98810266335682" lon="11.692407338166559"><ele>317.0</ele><time>2026-04-25T09:22:35Z</time></trkpt><trkpt lat="42.98791646216187" lon="11.692672310950977"><ele>317.0</ele><time>2026-04-25T09:22:36Z</time></trkpt><trkpt lat="42.987734801254824" lon="11.692931179281352"><ele>317.5</ele><time>2026-04-25T09:22:37Z</time></trkpt><trkpt lat="42.98755573392498" lon="11.693185581735232"><ele>318.0</ele><time>2026-04-25T09:22:38Z</time></trkpt><trkpt lat="42.98737863822558" lon="11.693437457781938"><ele>321.0</ele><time>2026-04-25T09:22:39Z</time></trkpt><trkpt lat="42.98720246460753" lon="11.6936862151554"><ele>324.0</ele><time>2026-04-25T09:22:40Z</time></trkpt><trkpt lat="42.987027019534764" lon="11.693930686687452"><ele>324.0</ele><time>2026-04-25T09:22:41Z</time></trkpt><trkpt lat="42.98685361850425" lon="11.694171743215321"><ele>324.0</ele><time>2026-04-25T09:22:42Z</time></trkpt><trkpt lat="42.98668202887182" lon="11.694413096398034"><ele>323.0</ele><time>2026-04-25T09:22:43Z</time></trkpt><trkpt lat="42.98651156948021" lon="11.694652391898957"><ele>322.0</ele><time>2026-04-25T09:22:44Z</time></trkpt><trkpt lat="42.98634075210115" lon="11.694886811131003"><ele>322.0</ele><time>2026-04-25T09:22:45Z</time></trkpt><trkpt lat="42.986168686639985" lon="11.695118522846064"><ele>322.0</ele><time>2026-04-25T09:22:46Z</time></trkpt><trkpt lat="42.985995209367566" lon="11.695355361604058"><ele>321.0</ele><time>2026-04-25T09:22:47Z</time></trkpt><trkpt lat="42.98581924741815" lon="11.695597741070706"><ele>320.0</ele><time>2026-04-25T09:22:48Z</time></trkpt><trkpt lat="42.98564332061039" lon="11.69584783996246"><ele>320.5</ele><time>2026-04-25T09:22:49Z</time></trkpt><trkpt lat="42.98546861069727" lon="11.696105267075888"><ele>321.0</ele><time>2026-04-25T09:22:50Z</time></trkpt><trkpt lat="42.985297330063034" lon="11.69636890443081"><ele>321.0</ele><time>2026-04-25T09:22:51Z</time></trkpt><trkpt lat="42.985131195946046" lon="11.696639485538538"><ele>321.0</ele><time>2026-04-25T09:22:52Z</time></trkpt><trkpt lat="42.98496670935635" lon="11.696912356776814"><ele>320.5</ele><time>2026-04-25T09:22:53Z</time></trkpt><trkpt lat="42.98480161350386" lon="11.697188545821982"><ele>320.0</ele><time>2026-04-25T09:22:54Z</time></trkpt><trkpt lat="42.984636524015905" lon="11.697472909121236"><ele>323.5</ele><time>2026-04-25T09:22:55Z</time></trkpt><trkpt lat="42.984474146976666" lon="11.697762817506135"><ele>327.0</ele><time>2026-04-25T09:22:56Z</time></trkpt><trkpt lat="42.984317022824726" lon="11.698057737143573"><ele>326.5</ele><time>2026-04-25T09:22:57Z</time></trkpt><trkpt lat="42.98416283037463" lon="11.698359367581249"><ele>326.0</ele><time>2026-04-25T09:22:58Z</time></trkpt><trkpt lat="42.98401301977669" lon="11.698670890695576"><ele>329.0</ele><time>2026-04-25T09:22:59Z</time></trkpt><trkpt lat="42.983865939452336" lon="11.698992846805178"><ele>332.0</ele><time>2026-04-25T09:23:00Z</time></trkpt><trkpt lat="42.98371927105862" lon="11.69932207571162"><ele>336.5</ele><time>2026-04-25T09:23:01Z</time></trkpt><trkpt lat="42.98357366387814" lon="11.699654858967417"><ele>341.0</ele><time>2026-04-25T09:23:02Z</time></trkpt><trkpt lat="42.983434293247306" lon="11.699990398580285"><ele>338.0</ele><time>2026-04-25T09:23:03Z</time></trkpt><trkpt lat="42.9833005424762" lon="11.700326509386477"><ele>335.0</ele><time>2026-04-25T09:23:04Z</time></trkpt><trkpt lat="42.98317172985407" lon="11.700663547414056"><ele>335.0</ele><time>2026-04-25T09:23:05Z</time></trkpt><trkpt lat="42.983045950869034" lon="11.70100576333705"><ele>335.0</ele><time>2026-04-25T09:23:06Z</time></trkpt><trkpt lat="42.98292437524965" lon="11.701346477636273"><ele>336.5</ele><time>2026-04-25T09:23:06.999Z</time></trkpt><trkpt lat="42.98280873841774" lon="11.701680463526591"><ele>338.0</ele><time>2026-04-25T09:23:07.999Z</time></trkpt><trkpt lat="42.98269993560975" lon="11.701988977870773"><ele>340.0</ele><time>2026-04-25T09:23:08.999Z</time></trkpt><trkpt lat="42.98259245237938" lon="11.702285639121078"><ele>342.0</ele><time>2026-04-25T09:23:09.999Z</time></trkpt><trkpt lat="42.98248328784878" lon="11.702575850840068"><ele>345.5</ele><time>2026-04-25T09:23:10.999Z</time></trkpt><trkpt lat="42.982364501396866" lon="11.702859904880077"><ele>349.0</ele><time>2026-04-25T09:23:11.999Z</time></trkpt><trkpt lat="42.98223169774765" lon="11.703141455180903"><ele>349.0</ele><time>2026-04-25T09:23:12.999Z</time></trkpt><trkpt lat="42.98208613683143" lon="11.703419399877768"><ele>349.0</ele><time>2026-04-25T09:23:13.999Z</time></trkpt><trkpt lat="42.98193126441794" lon="11.703692562380366"><ele>347.5</ele><time>2026-04-25T09:23:14.999Z</time></trkpt><trkpt lat="42.98176690048895" lon="11.70395534282949"><ele>346.0</ele><time>2026-04-25T09:23:15.999Z</time></trkpt><trkpt lat="42.98159296810216" lon="11.704207433793805"><ele>347.5</ele><time>2026-04-25T09:23:16.999Z</time></trkpt><trkpt lat="42.981407592045905" lon="11.704448672147867"><ele>349.0</ele><time>2026-04-25T09:23:17.999Z</time></trkpt><trkpt lat="42.981215321784894" lon="11.70467913717167"><ele>349.0</ele><time>2026-04-25T09:23:18.999Z</time></trkpt><trkpt lat="42.981017476395756" lon="11.704902775347975"><ele>349.0</ele><time>2026-04-25T09:23:19.999Z</time></trkpt><trkpt lat="42.98081285015162" lon="11.705116077365451"><ele>352.0</ele><time>2026-04-25T09:23:20.999Z</time></trkpt><trkpt lat="42.9805977995638" lon="11.705318037136859"><ele>355.0</ele><time>2026-04-25T09:23:21.999Z</time></trkpt><trkpt lat="42.98037112064747" lon="11.705505194956833"><ele>355.0</ele><time>2026-04-25T09:23:22.999Z</time></trkpt><trkpt lat="42.98013337483858" lon="11.705675334366752"><ele>355.0</ele><time>2026-04-25T09:23:23.999Z</time></trkpt><trkpt lat="42.979886020745646" lon="11.705829956849213"><ele>355.0</ele><time>2026-04-25T09:23:24.999Z</time></trkpt><trkpt lat="42.97962922661989" lon="11.705967576330789"><ele>355.0</ele><time>2026-04-25T09:23:25.999Z</time></trkpt><trkpt lat="42.97936490386177" lon="11.706088544107606"><ele>353.5</ele><time>2026-04-25T09:23:26.999Z</time></trkpt><trkpt lat="42.9790939168596" lon="11.706189655927144"><ele>352.0</ele><time>2026-04-25T09:23:27.999Z</time></trkpt><trkpt lat="42.9788196972792" lon="11.706275567737048"><ele>352.0</ele><time>2026-04-25T09:23:28.999Z</time></trkpt><trkpt lat="42.97854186747017" lon="11.70634410380673"><ele>352.0</ele><time>2026-04-25T09:23:29.999Z</time></trkpt><trkpt lat="42.978261516722576" lon="11.706395804838996"><ele>351.0</ele><time>2026-04-25T09:23:30.999Z</time></trkpt><trkpt lat="42.977977694156515" lon="11.706415731713708"><ele>350.0</ele><time>2026-04-25T09:23:31.999Z</time></trkpt><trkpt lat="42.97769340793158" lon="11.706413579201202"><ele>351.0</ele><time>2026-04-25T09:23:32.999Z</time></trkpt><trkpt lat="42.97740916165108" lon="11.706403069870609"><ele>352.0</ele><time>2026-04-25T09:23:33.999Z</time></trkpt><trkpt lat="42.9771249068691" lon="11.706388660528052"><ele>352.0</ele><time>2026-04-25T09:23:34.999Z</time></trkpt><trkpt lat="42.976838169976254" lon="11.706362459226032"><ele>352.0</ele><time>2026-04-25T09:23:35.999Z</time></trkpt><trkpt lat="42.97654768112802" lon="11.706327887346445"><ele>352.0</ele><time>2026-04-25T09:23:36.999Z</time></trkpt><trkpt lat="42.97625438584607" lon="11.70629487061932"><ele>352.0</ele><time>2026-04-25T09:23:37.999Z</time></trkpt><trkpt lat="42.97595687293879" lon="11.70626704706372"><ele>352.5</ele><time>2026-04-25T09:23:38.999Z</time></trkpt><trkpt lat="42.975658657905825" lon="11.706242094460974"><ele>353.0</ele><time>2026-04-25T09:23:39.999Z</time></trkpt><trkpt lat="42.97535826890428" lon="11.706216172286492"><ele>353.0</ele><time>2026-04-25T09:23:40.999Z</time></trkpt><trkpt lat="42.975055427169714" lon="11.706186727156876"><ele>353.0</ele><time>2026-04-25T09:23:41.999Z</time></trkpt><trkpt lat="42.97475173928633" lon="11.706156129881428"><ele>353.0</ele><time>2026-04-25T09:23:42.999Z</time></trkpt><trkpt lat="42.97444752518714" lon="11.706124980662457"><ele>353.0</ele><time>2026-04-25T09:23:43.999Z</time></trkpt><trkpt lat="42.97414293026903" lon="11.706091593328143"><ele>358.0</ele><time>2026-04-25T09:23:44.999Z</time></trkpt><trkpt lat="42.97383610152757" lon="11.706058989275576"><ele>363.0</ele><time>2026-04-25T09:23:45.999Z</time></trkpt><trkpt lat="42.973527438222" lon="11.706027657827674"><ele>362.5</ele><time>2026-04-25T09:23:46.999Z</time></trkpt><trkpt lat="42.97321801644683" lon="11.705997095202257"><ele>362.0</ele><time>2026-04-25T09:23:47.999Z</time></trkpt><trkpt lat="42.97290840043239" lon="11.705966067675627"><ele>362.0</ele><time>2026-04-25T09:23:48.999Z</time></trkpt><trkpt lat="42.97259882460102" lon="11.705936358659299"><ele>362.0</ele><time>2026-04-25T09:23:49.999Z</time></trkpt><trkpt lat="42.972288720242126" lon="11.705908047735894"><ele>362.0</ele><time>2026-04-25T09:23:50.999Z</time></trkpt><trkpt lat="42.97197894453301" lon="11.705880627186493"><ele>362.0</ele><time>2026-04-25T09:23:51.999Z</time></trkpt><trkpt lat="42.97166936260578" lon="11.70585325304352"><ele>361.0</ele><time>2026-04-25T09:23:52.999Z</time></trkpt><trkpt lat="42.9713598753276" lon="11.705818889262517"><ele>360.0</ele><time>2026-04-25T09:23:53.999Z</time></trkpt><trkpt lat="42.971050209748974" lon="11.705783928756786"><ele>361.5</ele><time>2026-04-25T09:23:54.999Z</time></trkpt><trkpt lat="42.97074223544671" lon="11.705752144622416"><ele>363.0</ele><time>2026-04-25T09:23:55.999Z</time></trkpt><trkpt lat="42.97043512012786" lon="11.705726871996472"><ele>363.0</ele><time>2026-04-25T09:23:56.999Z</time></trkpt><trkpt lat="42.97012890227576" lon="11.705704855143457"><ele>363.0</ele><time>2026-04-25T09:23:57.999Z</time></trkpt><trkpt lat="42.969824896925026" lon="11.705685271109962"><ele>363.5</ele><time>2026-04-25T09:23:58.999Z</time></trkpt><trkpt lat="42.9695213583727" lon="11.705674169526436"><ele>364.0</ele><time>2026-04-25T09:23:59.999Z</time></trkpt><trkpt lat="42.96921735509096" lon="11.705672164842248"><ele>364.5</ele><time>2026-04-25T09:24:00.999Z</time></trkpt><trkpt lat="42.96891323767776" lon="11.705677638149611"><ele>365.0</ele><time>2026-04-25T09:24:01.999Z</time></trkpt><trkpt lat="42.9686100649486" lon="11.70568508254618"><ele>365.5</ele><time>2026-04-25T09:24:02.998Z</time></trkpt><trkpt lat="42.968306826661255" lon="11.705694058990684"><ele>366.0</ele><time>2026-04-25T09:24:03.998Z</time></trkpt><trkpt lat="42.96800294818946" lon="11.705706047258557"><ele>366.0</ele><time>2026-04-25T09:24:04.998Z</time></trkpt><trkpt lat="42.9677004194303" lon="11.705717208859534"><ele>366.0</ele><time>2026-04-25T09:24:05.998Z</time></trkpt><trkpt lat="42.9674006102273" lon="11.705728504094179"><ele>367.5</ele><time>2026-04-25T09:24:06.998Z</time></trkpt><trkpt lat="42.967102500043374" lon="11.705741984245769"><ele>369.0</ele><time>2026-04-25T09:24:07.998Z</time></trkpt><trkpt lat="42.96680407859171" lon="11.705752451690133"><ele>369.0</ele><time>2026-04-25T09:24:08.998Z</time></trkpt><trkpt lat="42.966502116293626" lon="11.705763230949085"><ele>369.0</ele><time>2026-04-25T09:24:09.998Z</time></trkpt><trkpt lat="42.96619559188938" lon="11.705776205807496"><ele>369.0</ele><time>2026-04-25T09:24:10.998Z</time></trkpt><trkpt lat="42.965887574529845" lon="11.705793658856111"><ele>369.0</ele><time>2026-04-25T09:24:11.998Z</time></trkpt><trkpt lat="42.965576502155145" lon="11.705810803178872"><ele>370.5</ele><time>2026-04-25T09:24:12.998Z</time></trkpt><trkpt lat="42.9652644657137" lon="11.705829200981462"><ele>372.0</ele><time>2026-04-25T09:24:13.998Z</time></trkpt><trkpt lat="42.964950511008944" lon="11.70583969467674"><ele>372.0</ele><time>2026-04-25T09:24:14.998Z</time></trkpt><trkpt lat="42.964637658242765" lon="11.705849256063212"><ele>372.0</ele><time>2026-04-25T09:24:15.998Z</time></trkpt><trkpt lat="42.96432698244427" lon="11.705859776201924"><ele>371.5</ele><time>2026-04-25T09:24:16.998Z</time></trkpt><trkpt lat="42.96401721835258" lon="11.705869993786418"><ele>371.0</ele><time>2026-04-25T09:24:17.998Z</time></trkpt><trkpt lat="42.96370845622887" lon="11.705883571406313"><ele>371.0</ele><time>2026-04-25T09:24:18.998Z</time></trkpt><trkpt lat="42.96339950442038" lon="11.705893561958538"><ele>371.0</ele><time>2026-04-25T09:24:19.998Z</time></trkpt><trkpt lat="42.96309358578133" lon="11.705897051663248"><ele>372.5</ele><time>2026-04-25T09:24:20.998Z</time></trkpt><trkpt lat="42.96278985854325" lon="11.705894257723333"><ele>374.0</ele><time>2026-04-25T09:24:21.998Z</time></trkpt><trkpt lat="42.962486600815545" lon="11.705900109340146"><ele>375.0</ele><time>2026-04-25T09:24:22.998Z</time></trkpt><trkpt lat="42.96218215739011" lon="11.705914206293754"><ele>376.0</ele><time>2026-04-25T09:24:23.998Z</time></trkpt><trkpt lat="42.96187744250969" lon="11.705933462766843"><ele>378.0</ele><time>2026-04-25T09:24:24.998Z</time></trkpt><trkpt lat="42.961574050802646" lon="11.705954198409733"><ele>380.0</ele><time>2026-04-25T09:24:25.998Z</time></trkpt><trkpt lat="42.96126942676014" lon="11.705976537296069"><ele>380.0</ele><time>2026-04-25T09:24:27Z</time></trkpt><trkpt lat="42.960966276146586" lon="11.7060028406022"><ele>380.0</ele><time>2026-04-25T09:24:28Z</time></trkpt><trkpt lat="42.96066448198144" lon="11.706033949905697"><ele>380.0</ele><time>2026-04-25T09:24:29Z</time></trkpt><trkpt lat="42.960365011484484" lon="11.706068762919884"><ele>380.0</ele><time>2026-04-25T09:24:30Z</time></trkpt><trkpt lat="42.96007027894568" lon="11.706108936017296"><ele>378.0</ele><time>2026-04-25T09:24:31Z</time></trkpt><trkpt lat="42.95978284811835" lon="11.706151241848326"><ele>376.0</ele><time>2026-04-25T09:24:32Z</time></trkpt><trkpt lat="42.95950393428456" lon="11.706191613383991"><ele>376.0</ele><time>2026-04-25T09:24:33Z</time></trkpt><trkpt lat="42.959229810318305" lon="11.7062297380789"><ele>376.0</ele><time>2026-04-25T09:24:34Z</time></trkpt><trkpt lat="42.95895950569339" lon="11.706269247022124"><ele>376.5</ele><time>2026-04-25T09:24:35Z</time></trkpt><trkpt lat="42.958695548880314" lon="11.70631470049354"><ele>377.0</ele><time>2026-04-25T09:24:36Z</time></trkpt><trkpt lat="42.95843537188869" lon="11.706365893177395"><ele>379.0</ele><time>2026-04-25T09:24:37Z</time></trkpt><trkpt lat="42.95817741993528" lon="11.706417036473452"><ele>381.0</ele><time>2026-04-25T09:24:38Z</time></trkpt><trkpt lat="42.95792091267801" lon="11.706464183461607"><ele>381.0</ele><time>2026-04-25T09:24:39Z</time></trkpt><trkpt lat="42.95766341520539" lon="11.706511227854612"><ele>381.0</ele><time>2026-04-25T09:24:40Z</time></trkpt><trkpt lat="42.957401199225686" lon="11.70657391515492"><ele>382.5</ele><time>2026-04-25T09:24:41Z</time></trkpt><trkpt lat="42.95712734812976" lon="11.706616190338389"><ele>384.0</ele><time>2026-04-25T09:24:42Z</time></trkpt><trkpt lat="42.956845455454825" lon="11.706665443112012"><ele>385.5</ele><time>2026-04-25T09:24:43Z</time></trkpt><trkpt lat="42.95655701961741" lon="11.706715839091624"><ele>387.0</ele><time>2026-04-25T09:24:44Z</time></trkpt><trkpt lat="42.95626485530478" lon="11.70677285350367"><ele>387.0</ele><time>2026-04-25T09:24:45Z</time></trkpt><trkpt lat="42.95596866768593" lon="11.706807337953801"><ele>387.0</ele><time>2026-04-25T09:24:46Z</time></trkpt><trkpt lat="42.955674906439725" lon="11.706857756987008"><ele>384.0</ele><time>2026-04-25T09:24:47Z</time></trkpt><trkpt lat="42.95538001158649" lon="11.706914946474502"><ele>381.0</ele><time>2026-04-25T09:24:48Z</time></trkpt><trkpt lat="42.95508577626315" lon="11.706963267358022"><ele>382.0</ele><time>2026-04-25T09:24:49Z</time></trkpt><trkpt lat="42.95479162758314" lon="11.707005532969573"><ele>383.0</ele><time>2026-04-25T09:24:50Z</time></trkpt><trkpt lat="42.95449900581967" lon="11.707057731724486"><ele>383.0</ele><time>2026-04-25T09:24:51Z</time></trkpt><trkpt lat="42.9542089061886" lon="11.707114201773695"><ele>383.0</ele><time>2026-04-25T09:24:52Z</time></trkpt><trkpt lat="42.95391970602834" lon="11.707168837124552"><ele>384.0</ele><time>2026-04-25T09:24:53Z</time></trkpt><trkpt lat="42.95363179562319" lon="11.707218877074258"><ele>385.0</ele><time>2026-04-25T09:24:54Z</time></trkpt><trkpt lat="42.953345037944906" lon="11.707269324965353"><ele>386.5</ele><time>2026-04-25T09:24:55Z</time></trkpt><trkpt lat="42.95306094321484" lon="11.70731477933635"><ele>388.0</ele><time>2026-04-25T09:24:56Z</time></trkpt><trkpt lat="42.95277775345072" lon="11.707359313089766"><ele>391.0</ele><time>2026-04-25T09:24:57Z</time></trkpt><trkpt lat="42.9524954131939" lon="11.707412655823134"><ele>394.0</ele><time>2026-04-25T09:24:58Z</time></trkpt><trkpt lat="42.95221445547563" lon="11.707461128072904"><ele>394.0</ele><time>2026-04-25T09:24:59Z</time></trkpt><trkpt lat="42.95193447891078" lon="11.707505468892"><ele>394.0</ele><time>2026-04-25T09:25:00Z</time></trkpt><trkpt lat="42.95165604918727" lon="11.707550153961602"><ele>396.5</ele><time>2026-04-25T09:25:01Z</time></trkpt><trkpt lat="42.951377813101494" lon="11.707596333590299"><ele>399.0</ele><time>2026-04-25T09:25:02Z</time></trkpt><trkpt lat="42.95109893225751" lon="11.707646059804024"><ele>397.0</ele><time>2026-04-25T09:25:03Z</time></trkpt><trkpt lat="42.9508242211572" lon="11.707696395744238"><ele>395.0</ele><time>2026-04-25T09:25:04Z</time></trkpt><trkpt lat="42.950550532271734" lon="11.707745538862527"><ele>395.0</ele><time>2026-04-25T09:25:05Z</time></trkpt><trkpt lat="42.950277064886365" lon="11.707795995985142"><ele>395.0</ele><time>2026-04-25T09:25:06Z</time></trkpt><trkpt lat="42.950003017737615" lon="11.707850458088496"><ele>395.0</ele><time>2026-04-25T09:25:07Z</time></trkpt><trkpt lat="42.94972967266736" lon="11.707916613897288"><ele>395.0</ele><time>2026-04-25T09:25:08Z</time></trkpt><trkpt lat="42.94945534068766" lon="11.707997066000623"><ele>396.0</ele><time>2026-04-25T09:25:09Z</time></trkpt><trkpt lat="42.94917991871534" lon="11.708092996676989"><ele>397.0</ele><time>2026-04-25T09:25:10Z</time></trkpt><trkpt lat="42.948905814272926" lon="11.708210061806373"><ele>397.0</ele><time>2026-04-25T09:25:11Z</time></trkpt><trkpt lat="42.94863318632525" lon="11.708341110869231"><ele>397.0</ele><time>2026-04-25T09:25:12Z</time></trkpt><trkpt lat="42.948359537839266" lon="11.70847965141968"><ele>396.0</ele><time>2026-04-25T09:25:13Z</time></trkpt><trkpt lat="42.948083373422996" lon="11.708615889097041"><ele>395.0</ele><time>2026-04-25T09:25:14Z</time></trkpt><trkpt lat="42.94780759576489" lon="11.70875178195905"><ele>396.5</ele><time>2026-04-25T09:25:15Z</time></trkpt><trkpt lat="42.94753679151894" lon="11.708895603256037"><ele>398.0</ele><time>2026-04-25T09:25:16Z</time></trkpt><trkpt lat="42.947266648157544" lon="11.709037569634864"><ele>398.0</ele><time>2026-04-25T09:25:17Z</time></trkpt><trkpt lat="42.9470010046104" lon="11.709171176715554"><ele>398.0</ele><time>2026-04-25T09:25:18Z</time></trkpt><trkpt lat="42.946752620934895" lon="11.709295911715124"><ele>398.0</ele><time>2026-04-25T09:25:19Z</time></trkpt><trkpt lat="42.94650918443716" lon="11.70941839958996"><ele>398.0</ele><time>2026-04-25T09:25:20Z</time></trkpt><trkpt lat="42.94627133391728" lon="11.709541947384137"><ele>398.0</ele><time>2026-04-25T09:25:21Z</time></trkpt><trkpt lat="42.946040014261214" lon="11.709663443034916"><ele>398.0</ele><time>2026-04-25T09:25:22Z</time></trkpt><trkpt lat="42.94581127455132" lon="11.709778259377991"><ele>399.0</ele><time>2026-04-25T09:25:22.999Z</time></trkpt><trkpt lat="42.94558521483362" lon="11.709886880124285"><ele>400.0</ele><time>2026-04-25T09:25:23.999Z</time></trkpt><trkpt lat="42.945361674624905" lon="11.709993064736562"><ele>400.0</ele><time>2026-04-25T09:25:24.999Z</time></trkpt><trkpt lat="42.94513509581409" lon="11.710089342799389"><ele>400.0</ele><time>2026-04-25T09:25:25.999Z</time></trkpt><trkpt lat="42.94490263208376" lon="11.710168676799166"><ele>400.0</ele><time>2026-04-25T09:25:26.999Z</time></trkpt><trkpt lat="42.9446667392397" lon="11.710235783409676"><ele>400.0</ele><time>2026-04-25T09:25:27.999Z</time></trkpt><trkpt lat="42.94442645996663" lon="11.7102908570926"><ele>401.5</ele><time>2026-04-25T09:25:28.999Z</time></trkpt><trkpt lat="42.944181690678214" lon="11.710332990259763"><ele>403.0</ele><time>2026-04-25T09:25:29.999Z</time></trkpt><trkpt lat="42.94393514408284" lon="11.710365476451166"><ele>403.0</ele><time>2026-04-25T09:25:30.999Z</time></trkpt><trkpt lat="42.943690721567144" lon="11.710400177269277"><ele>403.0</ele><time>2026-04-25T09:25:31.999Z</time></trkpt><trkpt lat="42.94344728244749" lon="11.710442528569082"><ele>404.0</ele><time>2026-04-25T09:25:32.999Z</time></trkpt><trkpt lat="42.94320395469765" lon="11.710483813777289"><ele>405.0</ele><time>2026-04-25T09:25:33.999Z</time></trkpt><trkpt lat="42.94296036378763" lon="11.710521494865702"><ele>405.0</ele><time>2026-04-25T09:25:34.999Z</time></trkpt><trkpt lat="42.94271823446682" lon="11.710564040811464"><ele>405.0</ele><time>2026-04-25T09:25:35.999Z</time></trkpt><trkpt lat="42.942477728904706" lon="11.710606879139151"><ele>405.0</ele><time>2026-04-25T09:25:36.999Z</time></trkpt><trkpt lat="42.94224035826802" lon="11.710647692602858"><ele>405.0</ele><time>2026-04-25T09:25:37.999Z</time></trkpt><trkpt lat="42.94201659989982" lon="11.710682102975127"><ele>405.0</ele><time>2026-04-25T09:25:38.999Z</time></trkpt><trkpt lat="42.941792723099624" lon="11.710717180491704"><ele>405.0</ele><time>2026-04-25T09:25:39.999Z</time></trkpt><trkpt lat="42.94156822749074" lon="11.710759498900156"><ele>408.0</ele><time>2026-04-25T09:25:40.999Z</time></trkpt><trkpt lat="42.94134168789601" lon="11.71081173473992"><ele>411.0</ele><time>2026-04-25T09:25:41.999Z</time></trkpt><trkpt lat="42.94111195731899" lon="11.710874932339784"><ele>411.0</ele><time>2026-04-25T09:25:42.999Z</time></trkpt><trkpt lat="42.9408842602551" lon="11.710946343050901"><ele>411.0</ele><time>2026-04-25T09:25:43.999Z</time></trkpt><trkpt lat="42.940664089479824" lon="11.711027877734102"><ele>410.66666666666663</ele><time>2026-04-25T09:25:44.999Z</time></trkpt><trkpt lat="42.94045265205589" lon="11.711122941820063"><ele>410.3333333333333</ele><time>2026-04-25T09:25:45.999Z</time></trkpt><trkpt lat="42.94024908845744" lon="11.711223654495978"><ele>410.0</ele><time>2026-04-25T09:25:46.999Z</time></trkpt><trkpt lat="42.94004660003385" lon="11.711322435702504"><ele>412.0</ele><time>2026-04-25T09:25:47.999Z</time></trkpt><trkpt lat="42.939841377884555" lon="11.711424712835095"><ele>414.0</ele><time>2026-04-25T09:25:48.999Z</time></trkpt><trkpt lat="42.939634418233226" lon="11.711533459478625"><ele>416.0</ele><time>2026-04-25T09:25:49.999Z</time></trkpt><trkpt lat="42.93942392761621" lon="11.711639444026593"><ele>420.0</ele><time>2026-04-25T09:25:50.999Z</time></trkpt><trkpt lat="42.93921334257918" lon="11.711743116295471"><ele>424.0</ele><time>2026-04-25T09:25:51.999Z</time></trkpt><trkpt lat="42.93899929954677" lon="11.711851493094454"><ele>420.0</ele><time>2026-04-25T09:25:52.999Z</time></trkpt><trkpt lat="42.93878086214313" lon="11.711957125968315"><ele>416.0</ele><time>2026-04-25T09:25:53.999Z</time></trkpt><trkpt lat="42.93856064460853" lon="11.712058286851992"><ele>418.0</ele><time>2026-04-25T09:25:54.999Z</time></trkpt><trkpt lat="42.93834051465287" lon="11.71216168537374"><ele>420.0</ele><time>2026-04-25T09:25:55.999Z</time></trkpt><trkpt lat="42.938120882734765" lon="11.712272897666487"><ele>420.0</ele><time>2026-04-25T09:25:56.999Z</time></trkpt><trkpt lat="42.93789797630286" lon="11.712385557146598"><ele>420.0</ele><time>2026-04-25T09:25:57.999Z</time></trkpt><trkpt lat="42.93767203078043" lon="11.712498780691408"><ele>420.0</ele><time>2026-04-25T09:25:58.999Z</time></trkpt><trkpt lat="42.937449567870125" lon="11.71261316294898"><ele>420.0</ele><time>2026-04-25T09:25:59.999Z</time></trkpt><trkpt lat="42.937228326695916" lon="11.712727206318032"><ele>421.5</ele><time>2026-04-25T09:26:00.999Z</time></trkpt><trkpt lat="42.93700826635505" lon="11.71283950525114"><ele>423.0</ele><time>2026-04-25T09:26:01.999Z</time></trkpt><trkpt lat="42.936789460469335" lon="11.712951256605002"><ele>426.0</ele><time>2026-04-25T09:26:02.999Z</time></trkpt><trkpt lat="42.93657132134404" lon="11.71306143002459"><ele>429.0</ele><time>2026-04-25T09:26:03.999Z</time></trkpt><trkpt lat="42.936354402312155" lon="11.713168982553766"><ele>429.0</ele><time>2026-04-25T09:26:04.999Z</time></trkpt><trkpt lat="42.93613460064365" lon="11.713272742260024"><ele>429.0</ele><time>2026-04-25T09:26:05.999Z</time></trkpt><trkpt lat="42.93591372833933" lon="11.713371638256218"><ele>430.0</ele><time>2026-04-25T09:26:06.999Z</time></trkpt><trkpt lat="42.93569349564185" lon="11.713463536000981"><ele>431.0</ele><time>2026-04-25T09:26:07.999Z</time></trkpt><trkpt lat="42.93547349460547" lon="11.713550837514097"><ele>436.0</ele><time>2026-04-25T09:26:08.999Z</time></trkpt><trkpt lat="42.93525224144326" lon="11.71363592743673"><ele>441.0</ele><time>2026-04-25T09:26:09.999Z</time></trkpt><trkpt lat="42.93503013175499" lon="11.713717224342565"><ele>441.5</ele><time>2026-04-25T09:26:10.999Z</time></trkpt><trkpt lat="42.93480771710317" lon="11.713792690995565"><ele>442.0</ele><time>2026-04-25T09:26:11.999Z</time></trkpt><trkpt lat="42.93458339168746" lon="11.713864231579727"><ele>442.0</ele><time>2026-04-25T09:26:12.999Z</time></trkpt><trkpt lat="42.93435606604203" lon="11.71393106789393"><ele>442.0</ele><time>2026-04-25T09:26:13.999Z</time></trkpt><trkpt lat="42.934124334718064" lon="11.713996286040711"><ele>439.5</ele><time>2026-04-25T09:26:14.999Z</time></trkpt><trkpt lat="42.93389069087913" lon="11.714063833997065"><ele>437.0</ele><time>2026-04-25T09:26:15.999Z</time></trkpt><trkpt lat="42.93365632454363" lon="11.714125438582279"><ele>437.0</ele><time>2026-04-25T09:26:16.999Z</time></trkpt><trkpt lat="42.93342380509218" lon="11.714180720485473"><ele>437.0</ele><time>2026-04-25T09:26:17.999Z</time></trkpt><trkpt lat="42.93319222918184" lon="11.714224579939511"><ele>434.5</ele><time>2026-04-25T09:26:18.998Z</time></trkpt><trkpt lat="42.9329623982659" lon="11.714265341616768"><ele>432.0</ele><time>2026-04-25T09:26:19.998Z</time></trkpt><trkpt lat="42.93273160387767" lon="11.714308048483888"><ele>432.0</ele><time>2026-04-25T09:26:20.998Z</time></trkpt><trkpt lat="42.93250298959539" lon="11.714355984169137"><ele>432.0</ele><time>2026-04-25T09:26:21.998Z</time></trkpt><trkpt lat="42.932274486577946" lon="11.714406377790397"><ele>432.0</ele><time>2026-04-25T09:26:22.998Z</time></trkpt><trkpt lat="42.93204121988251" lon="11.714457234746702"><ele>432.0</ele><time>2026-04-25T09:26:23.998Z</time></trkpt><trkpt lat="42.93180827218144" lon="11.714509560810331"><ele>434.5</ele><time>2026-04-25T09:26:24.998Z</time></trkpt><trkpt lat="42.93157700945541" lon="11.714559223304521"><ele>437.0</ele><time>2026-04-25T09:26:25.998Z</time></trkpt><trkpt lat="42.93134772469498" lon="11.714616390798568"><ele>437.0</ele><time>2026-04-25T09:26:26.998Z</time></trkpt><trkpt lat="42.93112245400761" lon="11.714699288791401"><ele>437.0</ele><time>2026-04-25T09:26:27.998Z</time></trkpt><trkpt lat="42.93090361418676" lon="11.714816794949607"><ele>440.5</ele><time>2026-04-25T09:26:28.998Z</time></trkpt><trkpt lat="42.93069868651596" lon="11.714966540474704"><ele>444.0</ele><time>2026-04-25T09:26:29.998Z</time></trkpt><trkpt lat="42.93050826629056" lon="11.715147653325475"><ele>442.66666666666663</ele><time>2026-04-25T09:26:30.998Z</time></trkpt><trkpt lat="42.93033405793604" lon="11.715348875363178"><ele>441.3333333333333</ele><time>2026-04-25T09:26:31.998Z</time></trkpt><trkpt lat="42.93017864289807" lon="11.71555816298841"><ele>440.0</ele><time>2026-04-25T09:26:33Z</time></trkpt><trkpt lat="42.930033840344265" lon="11.715759399132027"><ele>441.3333333333333</ele><time>2026-04-25T09:26:34Z</time></trkpt><trkpt lat="42.929882413435585" lon="11.715956059385604"><ele>442.66666666666663</ele><time>2026-04-25T09:26:35Z</time></trkpt><trkpt lat="42.92972627639925" lon="11.716141221065785"><ele>444.0</ele><time>2026-04-25T09:26:36Z</time></trkpt><trkpt lat="42.929555533366894" lon="11.716318942582312"><ele>444.0</ele><time>2026-04-25T09:26:37Z</time></trkpt><trkpt lat="42.9293666465013" lon="11.716469840981684"><ele>444.0</ele><time>2026-04-25T09:26:38Z</time></trkpt><trkpt lat="42.92916302403359" lon="11.716593779437757"><ele>444.0</ele><time>2026-04-25T09:26:39Z</time></trkpt><trkpt lat="42.9289465531355" lon="11.716677707333222"><ele>449.5</ele><time>2026-04-25T09:26:40Z</time></trkpt><trkpt lat="42.928720976975484" lon="11.716732414831622"><ele>455.0</ele><time>2026-04-25T09:26:41Z</time></trkpt><trkpt lat="42.92849317309185" lon="11.716756816400427"><ele>458.0</ele><time>2026-04-25T09:26:42Z</time></trkpt><trkpt lat="42.92826512398928" lon="11.716774576316467"><ele>461.0</ele><time>2026-04-25T09:26:43Z</time></trkpt><trkpt lat="42.928037568404015" lon="11.716782663591713"><ele>461.0</ele><time>2026-04-25T09:26:44Z</time></trkpt><trkpt lat="42.927813579810106" lon="11.716786873110935"><ele>461.0</ele><time>2026-04-25T09:26:45Z</time></trkpt><trkpt lat="42.927591000229405" lon="11.716799172491603"><ele>461.0</ele><time>2026-04-25T09:26:46Z</time></trkpt><trkpt lat="42.92736761491411" lon="11.716824141440005"><ele>463.0</ele><time>2026-04-25T09:26:47Z</time></trkpt><trkpt lat="42.92714048000401" lon="11.716863070804639"><ele>465.0</ele><time>2026-04-25T09:26:48Z</time></trkpt><trkpt lat="42.92691717237121" lon="11.716922391347426"><ele>464.0</ele><time>2026-04-25T09:26:49Z</time></trkpt><trkpt lat="42.92669731834472" lon="11.717001185653332"><ele>463.0</ele><time>2026-04-25T09:26:50Z</time></trkpt><trkpt lat="42.92647740951047" lon="11.71709868404512"><ele>463.0</ele><time>2026-04-25T09:26:51Z</time></trkpt><trkpt lat="42.92626545991599" lon="11.717215234649439"><ele>463.0</ele><time>2026-04-25T09:26:52Z</time></trkpt><trkpt lat="42.92606246076833" lon="11.717347091550181"><ele>465.0</ele><time>2026-04-25T09:26:53Z</time></trkpt><trkpt lat="42.92586129929777" lon="11.71747800670393"><ele>467.0</ele><time>2026-04-25T09:26:54Z</time></trkpt><trkpt lat="42.92565981926749" lon="11.717601229345863"><ele>469.0</ele><time>2026-04-25T09:26:55Z</time></trkpt><trkpt lat="42.925460030170434" lon="11.717725194489498"><ele>468.6666666666667</ele><time>2026-04-25T09:26:56Z</time></trkpt><trkpt lat="42.92526295347942" lon="11.717853835087494"><ele>468.33333333333337</ele><time>2026-04-25T09:26:57Z</time></trkpt><trkpt lat="42.92506946255555" lon="11.717983415191345"><ele>468.0</ele><time>2026-04-25T09:26:58Z</time></trkpt><trkpt lat="42.92487840747525" lon="11.718111995412215"><ele>468.0</ele><time>2026-04-25T09:26:59Z</time></trkpt><trkpt lat="42.924687264825046" lon="11.718235733780029"><ele>468.0</ele><time>2026-04-25T09:27:00Z</time></trkpt><trkpt lat="42.92449288083413" lon="11.718353655096143"><ele>468.0</ele><time>2026-04-25T09:27:01Z</time></trkpt><trkpt lat="42.92429074853131" lon="11.718462078114877"><ele>467.66666666666663</ele><time>2026-04-25T09:27:02Z</time></trkpt><trkpt lat="42.924081835396365" lon="11.7185566524897"><ele>467.3333333333333</ele><time>2026-04-25T09:27:03Z</time></trkpt><trkpt lat="42.92386487870077" lon="11.718629543595892"><ele>467.0</ele><time>2026-04-25T09:27:04Z</time></trkpt><trkpt lat="42.92364296294415" lon="11.718667817649479"><ele>467.0</ele><time>2026-04-25T09:27:05Z</time></trkpt><trkpt lat="42.923417445940196" lon="11.718686901993117"><ele>467.0</ele><time>2026-04-25T09:27:06Z</time></trkpt><trkpt lat="42.92318541124041" lon="11.718685048278665"><ele>468.5</ele><time>2026-04-25T09:27:07Z</time></trkpt><trkpt lat="42.92294869860301" lon="11.71866030624212"><ele>470.0</ele><time>2026-04-25T09:27:08Z</time></trkpt><trkpt lat="42.922706354153355" lon="11.71861947096542"><ele>472.0</ele><time>2026-04-25T09:27:09Z</time></trkpt><trkpt lat="42.92246917474099" lon="11.718576380923242"><ele>474.0</ele><time>2026-04-25T09:27:10Z</time></trkpt><trkpt lat="42.922236780907355" lon="11.718537072377012"><ele>478.66666666666663</ele><time>2026-04-25T09:27:11Z</time></trkpt><trkpt lat="42.922012671585385" lon="11.718505808270303"><ele>483.3333333333333</ele><time>2026-04-25T09:27:12Z</time></trkpt><trkpt lat="42.92179413457942" lon="11.71847665698518"><ele>488.0</ele><time>2026-04-25T09:27:13Z</time></trkpt><trkpt lat="42.92157651936639" lon="11.71844668863581"><ele>488.0</ele><time>2026-04-25T09:27:14Z</time></trkpt><trkpt lat="42.92135634338654" lon="11.718423441876247"><ele>488.0</ele><time>2026-04-25T09:27:15Z</time></trkpt><trkpt lat="42.921132142376344" lon="11.718424398718419"><ele>488.0</ele><time>2026-04-25T09:27:16Z</time></trkpt><trkpt lat="42.92090579273887" lon="11.718456297551752"><ele>486.0</ele><time>2026-04-25T09:27:17Z</time></trkpt><trkpt lat="42.920682946852494" lon="11.718531038359774"><ele>484.0</ele><time>2026-04-25T09:27:18Z</time></trkpt><trkpt lat="42.92047236166312" lon="11.71864804147362"><ele>484.0</ele><time>2026-04-25T09:27:19Z</time></trkpt><trkpt lat="42.92026132956462" lon="11.718790843005985"><ele>484.0</ele><time>2026-04-25T09:27:20Z</time></trkpt><trkpt lat="42.920055042044936" lon="11.718954261454495"><ele>488.0</ele><time>2026-04-25T09:27:21Z</time></trkpt><trkpt lat="42.91985358460762" lon="11.719115776560429"><ele>492.0</ele><time>2026-04-25T09:27:22Z</time></trkpt><trkpt lat="42.919649558137934" lon="11.719261513558765"><ele>492.0</ele><time>2026-04-25T09:27:23Z</time></trkpt><trkpt lat="42.91943630561794" lon="11.719378635751873"><ele>492.0</ele><time>2026-04-25T09:27:24Z</time></trkpt><trkpt lat="42.9192109291686" lon="11.71946802587745"><ele>490.0</ele><time>2026-04-25T09:27:25Z</time></trkpt><trkpt lat="42.91897345751441" lon="11.719524607904452"><ele>488.0</ele><time>2026-04-25T09:27:26Z</time></trkpt><trkpt lat="42.91872841718894" lon="11.719549042721031"><ele>488.0</ele><time>2026-04-25T09:27:27Z</time></trkpt><trkpt lat="42.918482788265756" lon="11.71955598602914"><ele>488.0</ele><time>2026-04-25T09:27:28Z</time></trkpt><trkpt lat="42.91823780723517" lon="11.719568431282378"><ele>491.0</ele><time>2026-04-25T09:27:29Z</time></trkpt><trkpt lat="42.917991601195425" lon="11.719583028995627"><ele>494.0</ele><time>2026-04-25T09:27:30Z</time></trkpt><trkpt lat="42.91774489045858" lon="11.719594019036775"><ele>495.0</ele><time>2026-04-25T09:27:31Z</time></trkpt><trkpt lat="42.91750115935078" lon="11.719605618246398"><ele>496.0</ele><time>2026-04-25T09:27:32Z</time></trkpt><trkpt lat="42.917258919251836" lon="11.719619873559536"><ele>496.0</ele><time>2026-04-25T09:27:33Z</time></trkpt><trkpt lat="42.917017040228906" lon="11.719635679673816"><ele>496.0</ele><time>2026-04-25T09:27:34Z</time></trkpt><trkpt lat="42.91677608334706" lon="11.719648459740593"><ele>498.5</ele><time>2026-04-25T09:27:35Z</time></trkpt><trkpt lat="42.916539457530554" lon="11.719659145272853"><ele>501.0</ele><time>2026-04-25T09:27:36Z</time></trkpt><trkpt lat="42.916307206793896" lon="11.71967357412172"><ele>501.0</ele><time>2026-04-25T09:27:37Z</time></trkpt><trkpt lat="42.91607576738766" lon="11.719689175961676"><ele>501.0</ele><time>2026-04-25T09:27:37.999Z</time></trkpt><trkpt lat="42.91583938110897" lon="11.719702885512396"><ele>503.0</ele><time>2026-04-25T09:27:38.999Z</time></trkpt><trkpt lat="42.91559793759573" lon="11.719699348939438"><ele>505.0</ele><time>2026-04-25T09:27:39.999Z</time></trkpt><trkpt lat="42.91535766565365" lon="11.71966740735682"><ele>505.0</ele><time>2026-04-25T09:27:40.999Z</time></trkpt><trkpt lat="42.915123130970294" lon="11.719601567919069"><ele>505.0</ele><time>2026-04-25T09:27:41.999Z</time></trkpt><trkpt lat="42.91489567834679" lon="11.719539288010608"><ele>506.33333333333337</ele><time>2026-04-25T09:27:42.999Z</time></trkpt><trkpt lat="42.91467574741869" lon="11.719498379127973"><ele>507.66666666666663</ele><time>2026-04-25T09:27:43.999Z</time></trkpt><trkpt lat="42.9144574903273" lon="11.719474525369545"><ele>509.0</ele><time>2026-04-25T09:27:44.999Z</time></trkpt><trkpt lat="42.91424024724853" lon="11.719471614934006"><ele>509.3333333333333</ele><time>2026-04-25T09:27:45.999Z</time></trkpt><trkpt lat="42.914021157532765" lon="11.719493026124887"><ele>509.66666666666663</ele><time>2026-04-25T09:27:46.999Z</time></trkpt><trkpt lat="42.91380377570935" lon="11.719544241746851"><ele>510.0</ele><time>2026-04-25T09:27:47.999Z</time></trkpt><trkpt lat="42.91359118519622" lon="11.719632478151716"><ele>514.0</ele><time>2026-04-25T09:27:48.999Z</time></trkpt><trkpt lat="42.913382577368694" lon="11.719750806652053"><ele>518.0</ele><time>2026-04-25T09:27:49.999Z</time></trkpt><trkpt lat="42.91317674192344" lon="11.719898654759806"><ele>518.0</ele><time>2026-04-25T09:27:50.999Z</time></trkpt><trkpt lat="42.912977046251235" lon="11.720078551328477"><ele>518.0</ele><time>2026-04-25T09:27:51.999Z</time></trkpt><trkpt lat="42.91278585633692" lon="11.72028233511151"><ele>520.0</ele><time>2026-04-25T09:27:52.999Z</time></trkpt><trkpt lat="42.9126108082096" lon="11.720502379284031"><ele>522.0</ele><time>2026-04-25T09:27:53.999Z</time></trkpt><trkpt lat="42.91244849387452" lon="11.720722307519452"><ele>524.3333333333334</ele><time>2026-04-25T09:27:54.999Z</time></trkpt><trkpt lat="42.91229385940817" lon="11.720926602294742"><ele>526.6666666666667</ele><time>2026-04-25T09:27:55.999Z</time></trkpt><trkpt lat="42.91214681394126" lon="11.72111224545092"><ele>529.0</ele><time>2026-04-25T09:27:56.999Z</time></trkpt><trkpt lat="42.91201560396791" lon="11.721278043694404"><ele>529.0</ele><time>2026-04-25T09:27:57.999Z</time></trkpt><trkpt lat="42.91189849248553" lon="11.721428721528001"><ele>529.0</ele><time>2026-04-25T09:27:58.999Z</time></trkpt><trkpt lat="42.91179821718971" lon="11.721560695767232"><ele>529.0</ele><time>2026-04-25T09:27:59.999Z</time></trkpt><trkpt lat="42.91171043579386" lon="11.72167719493963"><ele>529.0</ele><time>2026-04-25T09:28:00.999Z</time></trkpt><trkpt lat="42.91162905733812" lon="11.721784783643272"><ele>530.8333333333334</ele><time>2026-04-25T09:28:01.999Z</time></trkpt><trkpt lat="42.91155734146869" lon="11.721879517401787"><ele>532.6666666666667</ele><time>2026-04-25T09:28:02.999Z</time></trkpt><trkpt lat="42.911498520251996" lon="11.721956754618676"><ele>534.5</ele><time>2026-04-25T09:28:03.999Z</time></trkpt><trkpt lat="42.91144934617196" lon="11.722024664882843"><ele>536.3333333333334</ele><time>2026-04-25T09:28:04.999Z</time></trkpt><trkpt lat="42.91138050411763" lon="11.722117142391305"><ele>538.1666666666666</ele><time>2026-04-25T09:28:06.999Z</time></trkpt><trkpt lat="42.911326896739084" lon="11.722185915125037"><ele>540.0</ele><time>2026-04-25T09:28:09.999Z</time></trkpt><trkpt lat="42.911268357408176" lon="11.72225878812781"><ele>540.0</ele><time>2026-04-25T09:32:21.998Z</time></trkpt><trkpt lat="42.91119308436058" lon="11.722357083696268"><ele>540.0</ele><time>2026-04-25T09:32:23.998Z</time></trkpt><trkpt lat="42.9111440477372" lon="11.722421542612313"><ele>540.0</ele><time>2026-04-25T09:32:24.998Z</time></trkpt><trkpt lat="42.91112924851473" lon="11.722577487871131"><ele>540.0</ele><time>2026-04-25T09:32:25.998Z</time></trkpt><trkpt lat="42.91105982975504" lon="11.722667583174793"><ele>540.0</ele><time>2026-04-25T09:32:26.998Z</time></trkpt><trkpt lat="42.910995520368814" lon="11.722746498660664"><ele>541.2</ele><time>2026-04-25T09:32:27.998Z</time></trkpt><trkpt lat="42.91092775256048" lon="11.722829651089699"><ele>542.4</ele><time>2026-04-25T09:32:28.998Z</time></trkpt><trkpt lat="42.910861380415284" lon="11.722918028407667"><ele>543.6</ele><time>2026-04-25T09:32:29.998Z</time></trkpt><trkpt lat="42.910794939578224" lon="11.72300965702392"><ele>544.8</ele><time>2026-04-25T09:32:30.998Z</time></trkpt><trkpt lat="42.91072293502971" lon="11.72310482365923"><ele>546.0</ele><time>2026-04-25T09:32:31.998Z</time></trkpt><trkpt lat="42.910596871329915" lon="11.72313090655401"><ele>546.0</ele><time>2026-04-25T09:32:32.998Z</time></trkpt><trkpt lat="42.910516975485685" lon="11.723234316895809"><ele>546.0</ele><time>2026-04-25T09:32:33.998Z</time></trkpt><trkpt lat="42.910433448437146" lon="11.723339848865972"><ele>546.0</ele><time>2026-04-25T09:32:34.998Z</time></trkpt><trkpt lat="42.9103461741765" lon="11.723445439909302"><ele>546.0</ele><time>2026-04-25T09:32:35.998Z</time></trkpt><trkpt lat="42.91025331446003" lon="11.723550614852375"><ele>549.5</ele><time>2026-04-25T09:32:36.998Z</time></trkpt><trkpt lat="42.91015744366811" lon="11.723653971064564"><ele>553.0</ele><time>2026-04-25T09:32:37.998Z</time></trkpt><trkpt lat="42.910053941814816" lon="11.723762276207601"><ele>556.5</ele><time>2026-04-25T09:32:38.998Z</time></trkpt><trkpt lat="42.90994421981844" lon="11.723874106215728"><ele>560.0</ele><time>2026-04-25T09:32:39.998Z</time></trkpt><trkpt lat="42.90983179573641" lon="11.72398668284254"><ele>560.5</ele><time>2026-04-25T09:32:40.998Z</time></trkpt><trkpt lat="42.909717911873706" lon="11.72409344447138"><ele>561.0</ele><time>2026-04-25T09:32:41.998Z</time></trkpt><trkpt lat="42.90959219432732" lon="11.724206134810848"><ele>561.5</ele><time>2026-04-25T09:32:43.066Z</time></trkpt><trkpt lat="42.90947279132764" lon="11.724308248085059"><ele>562.0</ele><time>2026-04-25T09:32:44.052Z</time></trkpt><trkpt lat="42.90934864718839" lon="11.724410031379156"><ele>567.6666666666667</ele><time>2026-04-25T09:32:45.045Z</time></trkpt><trkpt lat="42.90922356526662" lon="11.724505596909703"><ele>573.3333333333334</ele><time>2026-04-25T09:32:46.041Z</time></trkpt><trkpt lat="42.90908853339688" lon="11.724603861130323"><ele>579.0</ele><time>2026-04-25T09:32:47.04Z</time></trkpt><trkpt lat="42.90734305575334" lon="11.725821122370457"><ele>606.0</ele><time>2026-04-25T09:32:51.398Z</time></trkpt><trkpt lat="42.90694049738369" lon="11.72609484226568"><ele>596.0</ele><time>2026-04-25T09:32:52.398Z</time></trkpt><trkpt lat="42.90653819607922" lon="11.726369492441147"><ele>596.0</ele><time>2026-04-25T09:32:53.398Z</time></trkpt><trkpt lat="42.90613504886797" lon="11.726641596482192"><ele>582.0</ele><time>2026-04-25T09:32:54.398Z</time></trkpt><trkpt lat="42.905731855505614" lon="11.726911849600624"><ele>568.0</ele><time>2026-04-25T09:32:55.397Z</time></trkpt><trkpt lat="42.90532482889241" lon="11.727174808493697"><ele>561.0</ele><time>2026-04-25T09:32:56.398Z</time></trkpt><trkpt lat="42.90490455345277" lon="11.727391862954226"><ele>554.0</ele><time>2026-04-25T09:32:57.398Z</time></trkpt><trkpt lat="42.90446712420335" lon="11.727534737458535"><ele>538.0</ele><time>2026-04-25T09:32:58.398Z</time></trkpt><trkpt lat="42.904019935971" lon="11.727600156877113"><ele>538.0</ele><time>2026-04-25T09:32:59.398Z</time></trkpt><trkpt lat="42.90357017143511" lon="11.72759120133067"><ele>538.0</ele><time>2026-04-25T09:33:00.398Z</time></trkpt><trkpt lat="42.9034876" lon="11.7275827"><ele>538.0</ele><time>2026-04-25T09:33:01.398Z</time></trkpt><trkpt lat="42.9032344513548" lon="11.727595201210539"><ele>538.0</ele><time>2026-04-25T09:33:20.997Z</time></trkpt><trkpt lat="42.90306880963586" lon="11.727560499384856"><ele>534.0</ele><time>2026-04-25T09:33:21.997Z</time></trkpt><trkpt lat="42.902873468525854" lon="11.727413934511802"><ele>530.0</ele><time>2026-04-25T09:33:22.997Z</time></trkpt><trkpt lat="42.90272209193542" lon="11.727330249416855"><ele>526.0</ele><time>2026-04-25T09:33:23.997Z</time></trkpt><trkpt lat="42.902538055405934" lon="11.727254841903186"><ele>519.6666666666667</ele><time>2026-04-25T09:33:24.997Z</time></trkpt><trkpt lat="42.90235349296915" lon="11.727187135019278"><ele>513.3333333333334</ele><time>2026-04-25T09:33:25.997Z</time></trkpt><trkpt lat="42.902169166953435" lon="11.727116586662635"><ele>507.0</ele><time>2026-04-25T09:33:27Z</time></trkpt><trkpt lat="42.90198123952174" lon="11.727046940954521"><ele>507.0</ele><time>2026-04-25T09:33:28Z</time></trkpt><trkpt lat="42.901790383104604" lon="11.726974238576087"><ele>507.0</ele><time>2026-04-25T09:33:29Z</time></trkpt><trkpt lat="42.90160127024381" lon="11.726901788088425"><ele>507.0</ele><time>2026-04-25T09:33:30Z</time></trkpt><trkpt lat="42.90141133382884" lon="11.72683334898954"><ele>508.0</ele><time>2026-04-25T09:33:31Z</time></trkpt><trkpt lat="42.901219791962674" lon="11.726773215023616"><ele>509.0</ele><time>2026-04-25T09:33:32Z</time></trkpt><trkpt lat="42.90102478845762" lon="11.726733212214816"><ele>510.0</ele><time>2026-04-25T09:33:33Z</time></trkpt><trkpt lat="42.900822947154694" lon="11.726724466221812"><ele>510.0</ele><time>2026-04-25T09:33:34Z</time></trkpt><trkpt lat="42.90061591102393" lon="11.726743019618006"><ele>510.0</ele><time>2026-04-25T09:33:35Z</time></trkpt><trkpt lat="42.90040499544754" lon="11.726790162938531"><ele>510.0</ele><time>2026-04-25T09:33:36Z</time></trkpt><trkpt lat="42.900195851769816" lon="11.72687020627927"><ele>505.33333333333337</ele><time>2026-04-25T09:33:37Z</time></trkpt><trkpt lat="42.89998711815314" lon="11.726970891750758"><ele>500.6666666666667</ele><time>2026-04-25T09:33:38Z</time></trkpt><trkpt lat="42.89978343801522" lon="11.727077607495481"><ele>496.0</ele><time>2026-04-25T09:33:39Z</time></trkpt><trkpt lat="42.899581357411805" lon="11.727186547255457"><ele>496.0</ele><time>2026-04-25T09:33:40Z</time></trkpt><trkpt lat="42.899381832300165" lon="11.727292932319678"><ele>496.0</ele><time>2026-04-25T09:33:41Z</time></trkpt><trkpt lat="42.89918127447171" lon="11.72739757463123"><ele>496.0</ele><time>2026-04-25T09:33:42Z</time></trkpt><trkpt lat="42.8989774720453" lon="11.727507817776612"><ele>496.33333333333337</ele><time>2026-04-25T09:33:43Z</time></trkpt><trkpt lat="42.89877233114439" lon="11.727616204683446"><ele>496.66666666666663</ele><time>2026-04-25T09:33:44Z</time></trkpt><trkpt lat="42.89855654958234" lon="11.727701398272076"><ele>497.0</ele><time>2026-04-25T09:33:45Z</time></trkpt><trkpt lat="42.89833398035175" lon="11.72775183546783"><ele>498.0</ele><time>2026-04-25T09:33:46Z</time></trkpt><trkpt lat="42.898106266719665" lon="11.727770332870389"><ele>499.0</ele><time>2026-04-25T09:33:47Z</time></trkpt><trkpt lat="42.89788601394152" lon="11.727744854873114"><ele>500.0</ele><time>2026-04-25T09:33:48Z</time></trkpt><trkpt lat="42.897673909827205" lon="11.727683564095372"><ele>497.3333333333333</ele><time>2026-04-25T09:33:49Z</time></trkpt><trkpt lat="42.89746517238755" lon="11.727592480858977"><ele>494.66666666666663</ele><time>2026-04-25T09:33:50Z</time></trkpt><trkpt lat="42.89725967746543" lon="11.72746675566948"><ele>492.0</ele><time>2026-04-25T09:33:51Z</time></trkpt><trkpt lat="42.8970588296315" lon="11.727316137329517"><ele>492.0</ele><time>2026-04-25T09:33:52Z</time></trkpt><trkpt lat="42.89686146827706" lon="11.727149243956896"><ele>492.0</ele><time>2026-04-25T09:33:53Z</time></trkpt><trkpt lat="42.89666624788687" lon="11.7269752319908"><ele>490.5</ele><time>2026-04-25T09:33:54Z</time></trkpt><trkpt lat="42.89647358722953" lon="11.72680061804985"><ele>489.0</ele><time>2026-04-25T09:33:55Z</time></trkpt><trkpt lat="42.89628103571088" lon="11.72662958522093"><ele>489.0</ele><time>2026-04-25T09:33:56Z</time></trkpt><trkpt lat="42.89608627433269" lon="11.72646772447386"><ele>489.0</ele><time>2026-04-25T09:33:57Z</time></trkpt><trkpt lat="42.89588521595187" lon="11.726314981878641"><ele>488.5</ele><time>2026-04-25T09:33:58Z</time></trkpt><trkpt lat="42.895677145277794" lon="11.72617611251829"><ele>488.0</ele><time>2026-04-25T09:33:59Z</time></trkpt><trkpt lat="42.89546575791585" lon="11.726047387487958"><ele>488.0</ele><time>2026-04-25T09:33:59.999Z</time></trkpt><trkpt lat="42.895256830788824" lon="11.725905366698047"><ele>488.0</ele><time>2026-04-25T09:34:00.999Z</time></trkpt><trkpt lat="42.89505273106694" lon="11.725743831441177"><ele>480.5</ele><time>2026-04-25T09:34:01.999Z</time></trkpt><trkpt lat="42.89485745518827" lon="11.725560613342063"><ele>473.0</ele><time>2026-04-25T09:34:02.999Z</time></trkpt><trkpt lat="42.89467126104764" lon="11.72535862453403"><ele>480.0</ele><time>2026-04-25T09:34:03.999Z</time></trkpt><trkpt lat="42.89448935690156" lon="11.725156474652804"><ele>487.0</ele><time>2026-04-25T09:34:04.999Z</time></trkpt><trkpt lat="42.89430343808181" lon="11.724964697914988"><ele>477.5</ele><time>2026-04-25T09:34:05.999Z</time></trkpt><trkpt lat="42.894111257311074" lon="11.724782813260559"><ele>468.0</ele><time>2026-04-25T09:34:06.999Z</time></trkpt><trkpt lat="42.89391065445803" lon="11.724614724984033"><ele>468.0</ele><time>2026-04-25T09:34:07.999Z</time></trkpt><trkpt lat="42.893702947349" lon="11.724469668368478"><ele>468.0</ele><time>2026-04-25T09:34:08.999Z</time></trkpt><trkpt lat="42.89348282851765" lon="11.724359691347878"><ele>468.0</ele><time>2026-04-25T09:34:09.999Z</time></trkpt><trkpt lat="42.89326182857996" lon="11.724265969466904"><ele>468.0</ele><time>2026-04-25T09:34:10.999Z</time></trkpt><trkpt lat="42.89304658737156" lon="11.724186035279525"><ele>468.0</ele><time>2026-04-25T09:34:11.999Z</time></trkpt><trkpt lat="42.892835704771805" lon="11.72411356734922"><ele>468.0</ele><time>2026-04-25T09:34:12.999Z</time></trkpt><trkpt lat="42.89262877851223" lon="11.724039088808"><ele>468.0</ele><time>2026-04-25T09:34:13.999Z</time></trkpt><trkpt lat="42.892429594007574" lon="11.723953732930966"><ele>464.0</ele><time>2026-04-25T09:34:14.999Z</time></trkpt><trkpt lat="42.89222843234371" lon="11.723852870478337"><ele>460.0</ele><time>2026-04-25T09:34:15.999Z</time></trkpt><trkpt lat="42.89202967101096" lon="11.723727681013735"><ele>456.0</ele><time>2026-04-25T09:34:16.999Z</time></trkpt><trkpt lat="42.89183752852115" lon="11.72357791654621"><ele>454.5</ele><time>2026-04-25T09:34:17.999Z</time></trkpt><trkpt lat="42.89165207696312" lon="11.723402181748048"><ele>453.0</ele><time>2026-04-25T09:34:18.999Z</time></trkpt><trkpt lat="42.89147341384246" lon="11.723210310600589"><ele>453.0</ele><time>2026-04-25T09:34:19.999Z</time></trkpt><trkpt lat="42.89130649554915" lon="11.722995218804337"><ele>453.0</ele><time>2026-04-25T09:34:20.999Z</time></trkpt><trkpt lat="42.891150470962614" lon="11.722762603559168"><ele>450.5</ele><time>2026-04-25T09:34:21.999Z</time></trkpt><trkpt lat="42.89100538076312" lon="11.722516118849459"><ele>448.0</ele><time>2026-04-25T09:34:22.999Z</time></trkpt><trkpt lat="42.89086454723287" lon="11.722260167732315"><ele>443.5</ele><time>2026-04-25T09:34:23.999Z</time></trkpt><trkpt lat="42.890724638253964" lon="11.722005176717502"><ele>439.0</ele><time>2026-04-25T09:34:24.999Z</time></trkpt><trkpt lat="42.89057931270521" lon="11.721762680742527"><ele>436.5</ele><time>2026-04-25T09:34:25.999Z</time></trkpt><trkpt lat="42.89042444427626" lon="11.721535324308268"><ele>434.0</ele><time>2026-04-25T09:34:26.999Z</time></trkpt><trkpt lat="42.89025529388277" lon="11.7213316677965"><ele>432.0</ele><time>2026-04-25T09:34:27.999Z</time></trkpt><trkpt lat="42.89007397185877" lon="11.721148190802777"><ele>430.0</ele><time>2026-04-25T09:34:28.999Z</time></trkpt><trkpt lat="42.88987642557505" lon="11.720983307968428"><ele>434.0</ele><time>2026-04-25T09:34:29.999Z</time></trkpt><trkpt lat="42.889671298651116" lon="11.720837002006558"><ele>438.0</ele><time>2026-04-25T09:34:30.999Z</time></trkpt><trkpt lat="42.8894572706934" lon="11.720724207089582"><ele>434.5</ele><time>2026-04-25T09:34:31.999Z</time></trkpt><trkpt lat="42.88923655658806" lon="11.720637666468548"><ele>431.0</ele><time>2026-04-25T09:34:32.999Z</time></trkpt><trkpt lat="42.8890116609368" lon="11.720578864875362"><ele>431.0</ele><time>2026-04-25T09:34:33.999Z</time></trkpt><trkpt lat="42.88878710342113" lon="11.72054945966536"><ele>431.0</ele><time>2026-04-25T09:34:34.999Z</time></trkpt><trkpt lat="42.888561896607555" lon="11.720547584473671"><ele>426.0</ele><time>2026-04-25T09:34:35.999Z</time></trkpt><trkpt lat="42.88833146566384" lon="11.720568588618198"><ele>421.0</ele><time>2026-04-25T09:34:36.999Z</time></trkpt><trkpt lat="42.888103856571306" lon="11.720613435853185"><ele>421.0</ele><time>2026-04-25T09:34:37.999Z</time></trkpt><trkpt lat="42.88788017016162" lon="11.720689761724028"><ele>421.0</ele><time>2026-04-25T09:34:38.999Z</time></trkpt><trkpt lat="42.8876618243104" lon="11.720796827858292"><ele>418.5</ele><time>2026-04-25T09:34:39.999Z</time></trkpt><trkpt lat="42.88745042453782" lon="11.72093489835652"><ele>416.0</ele><time>2026-04-25T09:34:40.999Z</time></trkpt><trkpt lat="42.887246083875176" lon="11.721099921508392"><ele>413.5</ele><time>2026-04-25T09:34:41.999Z</time></trkpt><trkpt lat="42.88705321687481" lon="11.721292241887024"><ele>411.0</ele><time>2026-04-25T09:34:42.999Z</time></trkpt><trkpt lat="42.886880241528964" lon="11.721507478150238"><ele>411.0</ele><time>2026-04-25T09:34:43.999Z</time></trkpt><trkpt lat="42.8867171569936" lon="11.721748279101005"><ele>411.0</ele><time>2026-04-25T09:34:44.999Z</time></trkpt><trkpt lat="42.88656596673636" lon="11.722010703753352"><ele>411.0</ele><time>2026-04-25T09:34:45.999Z</time></trkpt><trkpt lat="42.88643001549575" lon="11.722295805464215"><ele>411.0</ele><time>2026-04-25T09:34:46.999Z</time></trkpt><trkpt lat="42.886313397088664" lon="11.722599724202304"><ele>409.5</ele><time>2026-04-25T09:34:47.999Z</time></trkpt><trkpt lat="42.886210752810726" lon="11.722916312931012"><ele>408.0</ele><time>2026-04-25T09:34:48.999Z</time></trkpt><trkpt lat="42.886115026668136" lon="11.723233398481463"><ele>408.0</ele><time>2026-04-25T09:34:49.999Z</time></trkpt><trkpt lat="42.88601441545521" lon="11.723539019050811"><ele>408.0</ele><time>2026-04-25T09:34:50.999Z</time></trkpt><trkpt lat="42.88590318280365" lon="11.723830675808173"><ele>410.5</ele><time>2026-04-25T09:34:51.999Z</time></trkpt><trkpt lat="42.88577836741542" lon="11.724092173763466"><ele>413.0</ele><time>2026-04-25T09:34:52.998Z</time></trkpt><trkpt lat="42.88563955325007" lon="11.724345602883652"><ele>409.0</ele><time>2026-04-25T09:34:53.998Z</time></trkpt><trkpt lat="42.885482434569006" lon="11.72457804942928"><ele>405.0</ele><time>2026-04-25T09:34:54.998Z</time></trkpt><trkpt lat="42.88531177192887" lon="11.72479199726368"><ele>405.0</ele><time>2026-04-25T09:34:55.998Z</time></trkpt><trkpt lat="42.88513057732163" lon="11.724991234375553"><ele>405.0</ele><time>2026-04-25T09:34:56.998Z</time></trkpt><trkpt lat="42.884949282571775" lon="11.725187582426171"><ele>404.0</ele><time>2026-04-25T09:34:57.998Z</time></trkpt><trkpt lat="42.88476936776727" lon="11.725379307525213"><ele>403.0</ele><time>2026-04-25T09:34:58.998Z</time></trkpt><trkpt lat="42.88458959862648" lon="11.725561788739506"><ele>403.0</ele><time>2026-04-25T09:34:59.998Z</time></trkpt><trkpt lat="42.8844058237548" lon="11.725734105454984"><ele>403.0</ele><time>2026-04-25T09:35:00.998Z</time></trkpt><trkpt lat="42.88421521164483" lon="11.725890860273545"><ele>403.0</ele><time>2026-04-25T09:35:01.998Z</time></trkpt><trkpt lat="42.88401394090042" lon="11.726027487153768"><ele>403.0</ele><time>2026-04-25T09:35:02.998Z</time></trkpt><trkpt lat="42.88379819444307" lon="11.726139574196916"><ele>403.0</ele><time>2026-04-25T09:35:03.998Z</time></trkpt><trkpt lat="42.8835762488298" lon="11.726235291684254"><ele>403.5</ele><time>2026-04-25T09:35:04.998Z</time></trkpt><trkpt lat="42.88334999157395" lon="11.726328785209065"><ele>404.0</ele><time>2026-04-25T09:35:05.998Z</time></trkpt><trkpt lat="42.883121745994934" lon="11.726424706070256"><ele>404.0</ele><time>2026-04-25T09:35:06.998Z</time></trkpt><trkpt lat="42.88289352706475" lon="11.726526630710152"><ele>404.0</ele><time>2026-04-25T09:35:07.998Z</time></trkpt><trkpt lat="42.88266312757203" lon="11.726635226646806"><ele>405.0</ele><time>2026-04-25T09:35:08.998Z</time></trkpt><trkpt lat="42.882429516614266" lon="11.726741547557621"><ele>406.0</ele><time>2026-04-25T09:35:09.998Z</time></trkpt><trkpt lat="42.88219268695682" lon="11.726840239862762"><ele>402.0</ele><time>2026-04-25T09:35:10.998Z</time></trkpt><trkpt lat="42.88195587842949" lon="11.726935080581207"><ele>398.0</ele><time>2026-04-25T09:35:11.998Z</time></trkpt><trkpt lat="42.88171920207703" lon="11.727032029332756"><ele>398.0</ele><time>2026-04-25T09:35:12.998Z</time></trkpt><trkpt lat="42.881480653696094" lon="11.727132175444112"><ele>398.0</ele><time>2026-04-25T09:35:13.998Z</time></trkpt><trkpt lat="42.8812430105753" lon="11.727232758458511"><ele>398.0</ele><time>2026-04-25T09:35:14.998Z</time></trkpt><trkpt lat="42.88100692423439" lon="11.727330133395299"><ele>398.0</ele><time>2026-04-25T09:35:15.998Z</time></trkpt><trkpt lat="42.8807690453511" lon="11.72742872602508"><ele>398.0</ele><time>2026-04-25T09:35:16.998Z</time></trkpt><trkpt lat="42.88053000726575" lon="11.727532468886702"><ele>398.0</ele><time>2026-04-25T09:35:17.998Z</time></trkpt><trkpt lat="42.880290099193296" lon="11.727642506378073"><ele>393.5</ele><time>2026-04-25T09:35:18.998Z</time></trkpt><trkpt lat="42.88005124881682" lon="11.72776122950671"><ele>389.0</ele><time>2026-04-25T09:35:19.998Z</time></trkpt><trkpt lat="42.879814881592324" lon="11.727895452813435"><ele>389.0</ele><time>2026-04-25T09:35:20.998Z</time></trkpt><trkpt lat="42.87958107888768" lon="11.72803668837038"><ele>389.0</ele><time>2026-04-25T09:35:21.998Z</time></trkpt><trkpt lat="42.87934852970837" lon="11.72818420454124"><ele>390.0</ele><time>2026-04-25T09:35:22.998Z</time></trkpt><trkpt lat="42.87912002632469" lon="11.728340700666221"><ele>391.0</ele><time>2026-04-25T09:35:23.998Z</time></trkpt><trkpt lat="42.87889663380798" lon="11.72850594478977"><ele>386.5</ele><time>2026-04-25T09:35:24.998Z</time></trkpt><trkpt lat="42.87867538367633" lon="11.72868037799457"><ele>382.0</ele><time>2026-04-25T09:35:25.998Z</time></trkpt><trkpt lat="42.8784574278119" lon="11.728859803904509"><ele>384.0</ele><time>2026-04-25T09:35:26.998Z</time></trkpt><trkpt lat="42.87824371543365" lon="11.72904740832685"><ele>386.0</ele><time>2026-04-25T09:35:27.998Z</time></trkpt><trkpt lat="42.87803683578604" lon="11.729248813466317"><ele>386.0</ele><time>2026-04-25T09:35:28.998Z</time></trkpt><trkpt lat="42.87783215421059" lon="11.729456462117271"><ele>386.0</ele><time>2026-04-25T09:35:29.998Z</time></trkpt><trkpt lat="42.87762981909535" lon="11.729666614968451"><ele>387.5</ele><time>2026-04-25T09:35:30.998Z</time></trkpt><trkpt lat="42.87743001649434" lon="11.729877890874802"><ele>389.0</ele><time>2026-04-25T09:35:32Z</time></trkpt><trkpt lat="42.87722966129009" lon="11.73008573849745"><ele>388.0</ele><time>2026-04-25T09:35:33Z</time></trkpt><trkpt lat="42.877031828900684" lon="11.730295772793097"><ele>387.0</ele><time>2026-04-25T09:35:34Z</time></trkpt><trkpt lat="42.876835374657794" lon="11.730506842229993"><ele>387.5</ele><time>2026-04-25T09:35:35Z</time></trkpt><trkpt lat="42.87663791642046" lon="11.73071661703339"><ele>388.0</ele><time>2026-04-25T09:35:36Z</time></trkpt><trkpt lat="42.87644181286766" lon="11.730925288449985"><ele>385.0</ele><time>2026-04-25T09:35:37Z</time></trkpt><trkpt lat="42.876244646842984" lon="11.731136210190124"><ele>382.0</ele><time>2026-04-25T09:35:38Z</time></trkpt><trkpt lat="42.87604406895783" lon="11.73134727536538"><ele>382.5</ele><time>2026-04-25T09:35:39Z</time></trkpt><trkpt lat="42.875839952820854" lon="11.731560193917524"><ele>383.0</ele><time>2026-04-25T09:35:40Z</time></trkpt><trkpt lat="42.87563687122532" lon="11.73178010685426"><ele>381.5</ele><time>2026-04-25T09:35:41Z</time></trkpt><trkpt lat="42.875433078831094" lon="11.732004429498133"><ele>380.0</ele><time>2026-04-25T09:35:42Z</time></trkpt><trkpt lat="42.87522668071919" lon="11.732227118205923"><ele>378.5</ele><time>2026-04-25T09:35:43Z</time></trkpt><trkpt lat="42.875018646452105" lon="11.732442433889142"><ele>377.0</ele><time>2026-04-25T09:35:44Z</time></trkpt><trkpt lat="42.87481291739564" lon="11.732653377051474"><ele>377.0</ele><time>2026-04-25T09:35:45Z</time></trkpt><trkpt lat="42.87460993472658" lon="11.732867140730674"><ele>377.0</ele><time>2026-04-25T09:35:46Z</time></trkpt><trkpt lat="42.87440994544076" lon="11.733078565739445"><ele>378.0</ele><time>2026-04-25T09:35:47Z</time></trkpt><trkpt lat="42.874212802778125" lon="11.733289302067039"><ele>379.0</ele><time>2026-04-25T09:35:48Z</time></trkpt><trkpt lat="42.87402153136074" lon="11.733507618870647"><ele>377.5</ele><time>2026-04-25T09:35:49Z</time></trkpt><trkpt lat="42.87383843673712" lon="11.733737270078795"><ele>376.0</ele><time>2026-04-25T09:35:50Z</time></trkpt><trkpt lat="42.87366243919586" lon="11.733981801740763"><ele>376.0</ele><time>2026-04-25T09:35:51Z</time></trkpt><trkpt lat="42.87349187730165" lon="11.734234233355417"><ele>376.0</ele><time>2026-04-25T09:35:52Z</time></trkpt><trkpt lat="42.87332732087712" lon="11.734490521759092"><ele>373.0</ele><time>2026-04-25T09:35:53Z</time></trkpt><trkpt lat="42.87316830420569" lon="11.734752033412121"><ele>370.0</ele><time>2026-04-25T09:35:54Z</time></trkpt><trkpt lat="42.8730144031634" lon="11.735020551819675"><ele>369.5</ele><time>2026-04-25T09:35:55Z</time></trkpt><trkpt lat="42.87286448665936" lon="11.735294118585378"><ele>369.0</ele><time>2026-04-25T09:35:56Z</time></trkpt><trkpt lat="42.87272519483679" lon="11.735574474538542"><ele>369.5</ele><time>2026-04-25T09:35:57Z</time></trkpt><trkpt lat="42.87260260782928" lon="11.735853950618585"><ele>370.0</ele><time>2026-04-25T09:35:58Z</time></trkpt><trkpt lat="42.87249560531958" lon="11.736117781124785"><ele>369.3333333333333</ele><time>2026-04-25T09:35:59Z</time></trkpt><trkpt lat="42.87240114527807" lon="11.73636872755394"><ele>368.6666666666667</ele><time>2026-04-25T09:36:00Z</time></trkpt><trkpt lat="42.87231454877597" lon="11.736607666462636"><ele>368.0</ele><time>2026-04-25T09:36:01Z</time></trkpt><trkpt lat="42.8722343660569" lon="11.736840547809944"><ele>367.6666666666667</ele><time>2026-04-25T09:36:02Z</time></trkpt><trkpt lat="42.8721608556745" lon="11.73708927182306"><ele>367.3333333333333</ele><time>2026-04-25T09:36:03Z</time></trkpt><trkpt lat="42.872081610652224" lon="11.737344354733313"><ele>367.0</ele><time>2026-04-25T09:36:04Z</time></trkpt><trkpt lat="42.87198656034306" lon="11.737609407919198"><ele>367.0</ele><time>2026-04-25T09:36:05Z</time></trkpt><trkpt lat="42.87187883880066" lon="11.737858409396656"><ele>367.0</ele><time>2026-04-25T09:36:06Z</time></trkpt><trkpt lat="42.8717800616291" lon="11.738087090165823"><ele>367.0</ele><time>2026-04-25T09:36:07Z</time></trkpt><trkpt lat="42.871695374366425" lon="11.73831147155235"><ele>367.3333333333333</ele><time>2026-04-25T09:36:08Z</time></trkpt><trkpt lat="42.87161819975608" lon="11.738523371465716"><ele>367.6666666666667</ele><time>2026-04-25T09:36:09Z</time></trkpt><trkpt lat="42.871539168676655" lon="11.738720627877097"><ele>368.0</ele><time>2026-04-25T09:36:09.999Z</time></trkpt><trkpt lat="42.87144401456793" lon="11.738898271577204"><ele>368.33333333333337</ele><time>2026-04-25T09:36:10.999Z</time></trkpt><trkpt lat="42.87132514306501" lon="11.739065476242429"><ele>368.6666666666667</ele><time>2026-04-25T09:36:11.999Z</time></trkpt><trkpt lat="42.871191964738514" lon="11.739202362802683"><ele>369.0</ele><time>2026-04-25T09:36:12.999Z</time></trkpt><trkpt lat="42.87105322148562" lon="11.739304930050734"><ele>368.5</ele><time>2026-04-25T09:36:13.999Z</time></trkpt><trkpt lat="42.87091578304094" lon="11.73938012544775"><ele>368.0</ele><time>2026-04-25T09:36:14.999Z</time></trkpt><trkpt lat="42.87078220126952" lon="11.739441253773471"><ele>367.5</ele><time>2026-04-25T09:36:15.999Z</time></trkpt><trkpt lat="42.87065789505" lon="11.739514246665237"><ele>367.0</ele><time>2026-04-25T09:36:16.999Z</time></trkpt><trkpt lat="42.870547073362644" lon="11.739611476499238"><ele>366.25</ele><time>2026-04-25T09:36:17.999Z</time></trkpt><trkpt lat="42.870458208508786" lon="11.739740698891188"><ele>365.5</ele><time>2026-04-25T09:36:18.999Z</time></trkpt><trkpt lat="42.87039651473058" lon="11.739899217974651"><ele>364.75</ele><time>2026-04-25T09:36:19.999Z</time></trkpt><trkpt lat="42.87037014741769" lon="11.740070014822887"><ele>364.0</ele><time>2026-04-25T09:36:20.999Z</time></trkpt><trkpt lat="42.87038019153688" lon="11.740242111189216"><ele>363.75</ele><time>2026-04-25T09:36:21.999Z</time></trkpt><trkpt lat="42.870414430515694" lon="11.74041656811321"><ele>363.5</ele><time>2026-04-25T09:36:22.999Z</time></trkpt><trkpt lat="42.87045285919127" lon="11.74058382132268"><ele>363.25</ele><time>2026-04-25T09:36:23.999Z</time></trkpt><trkpt lat="42.87048756592424" lon="11.740734731286924"><ele>363.0</ele><time>2026-04-25T09:36:24.999Z</time></trkpt><trkpt lat="42.870513699251404" lon="11.740863165279139"><ele>363.0</ele><time>2026-04-25T09:36:25.999Z</time></trkpt><trkpt lat="42.8705281038285" lon="11.740973700629983"><ele>363.0</ele><time>2026-04-25T09:36:26.999Z</time></trkpt><trkpt lat="42.87052704592376" lon="11.741074874942743"><ele>363.0</ele><time>2026-04-25T09:36:27.999Z</time></trkpt><trkpt lat="42.87051291593184" lon="11.741161857027155"><ele>363.0</ele><time>2026-04-25T09:36:28.999Z</time></trkpt><trkpt lat="42.87043622634385" lon="11.741302308706304"><ele>363.0</ele><time>2026-04-25T09:36:30.999Z</time></trkpt><trkpt lat="42.87035700951978" lon="11.741362633230041"><ele>363.0</ele><time>2026-04-25T09:36:31.999Z</time></trkpt><trkpt lat="42.870286429843816" lon="11.741466126820391"><ele>362.6666666666667</ele><time>2026-04-25T09:36:32.999Z</time></trkpt><trkpt lat="42.870126806919586" lon="11.741483914877815"><ele>362.33333333333337</ele><time>2026-04-25T09:36:33.999Z</time></trkpt><trkpt lat="42.86998760329623" lon="11.741568125012737"><ele>362.0</ele><time>2026-04-25T09:36:34.999Z</time></trkpt><trkpt lat="42.869833986176815" lon="11.741669419241019"><ele>362.0</ele><time>2026-04-25T09:36:35.999Z</time></trkpt><trkpt lat="42.86966516914106" lon="11.741771126637593"><ele>362.0</ele><time>2026-04-25T09:36:36.999Z</time></trkpt><trkpt lat="42.86949368097547" lon="11.74186143132686"><ele>362.0</ele><time>2026-04-25T09:36:37.999Z</time></trkpt><trkpt lat="42.86932122116861" lon="11.741953713407566"><ele>363.33333333333337</ele><time>2026-04-25T09:36:38.999Z</time></trkpt><trkpt lat="42.869150181283" lon="11.742045483623937"><ele>364.6666666666667</ele><time>2026-04-25T09:36:39.999Z</time></trkpt><trkpt lat="42.868976367950374" lon="11.742136905881205"><ele>366.0</ele><time>2026-04-25T09:36:40.999Z</time></trkpt><trkpt lat="42.86879987223074" lon="11.742229497309863"><ele>366.0</ele><time>2026-04-25T09:36:41.999Z</time></trkpt><trkpt lat="42.86861826408623" lon="11.742324014793782"><ele>366.0</ele><time>2026-04-25T09:36:42.999Z</time></trkpt><trkpt lat="42.86843375777561" lon="11.742430085707339"><ele>366.0</ele><time>2026-04-25T09:36:43.999Z</time></trkpt><trkpt lat="42.8682456177465" lon="11.742558016145734"><ele>367.3333333333333</ele><time>2026-04-25T09:36:44.999Z</time></trkpt><trkpt lat="42.8680553432658" lon="11.742704990769434"><ele>368.66666666666663</ele><time>2026-04-25T09:36:45.999Z</time></trkpt><trkpt lat="42.86787412524292" lon="11.742862011438275"><ele>370.0</ele><time>2026-04-25T09:36:46.999Z</time></trkpt><trkpt lat="42.86769435743019" lon="11.743025770982984"><ele>367.0</ele><time>2026-04-25T09:36:47.999Z</time></trkpt><trkpt lat="42.867514508061106" lon="11.743183728257481"><ele>364.0</ele><time>2026-04-25T09:36:48.999Z</time></trkpt><trkpt lat="42.8673303085123" lon="11.74333873208783"><ele>361.0</ele><time>2026-04-25T09:36:49.999Z</time></trkpt><trkpt lat="42.86714720202478" lon="11.743496377304902"><ele>361.3333333333333</ele><time>2026-04-25T09:36:50.999Z</time></trkpt><trkpt lat="42.866963494528605" lon="11.743656904123556"><ele>361.6666666666667</ele><time>2026-04-25T09:36:51.999Z</time></trkpt><trkpt lat="42.866771404994" lon="11.743807843850423"><ele>362.0</ele><time>2026-04-25T09:36:52.999Z</time></trkpt><trkpt lat="42.86656982244691" lon="11.74394138294259"><ele>360.0</ele><time>2026-04-25T09:36:53.999Z</time></trkpt><trkpt lat="42.86635878797298" lon="11.744054289306789"><ele>358.0</ele><time>2026-04-25T09:36:54.999Z</time></trkpt><trkpt lat="42.86614486268795" lon="11.744141678597176"><ele>357.0</ele><time>2026-04-25T09:36:55.999Z</time></trkpt><trkpt lat="42.86592974526683" lon="11.744213837690515"><ele>356.0</ele><time>2026-04-25T09:36:56.999Z</time></trkpt><trkpt lat="42.865715636823495" lon="11.74429311264126"><ele>355.0</ele><time>2026-04-25T09:36:57.999Z</time></trkpt><trkpt lat="42.865502938084475" lon="11.744382584744047"><ele>355.3333333333333</ele><time>2026-04-25T09:36:58.999Z</time></trkpt><trkpt lat="42.86528916202713" lon="11.744472932845746"><ele>355.6666666666667</ele><time>2026-04-25T09:36:59.999Z</time></trkpt><trkpt lat="42.86507440480339" lon="11.744565809216954"><ele>356.0</ele><time>2026-04-25T09:37:00.999Z</time></trkpt><trkpt lat="42.86486036039238" lon="11.74466533563955"><ele>356.0</ele><time>2026-04-25T09:37:01.999Z</time></trkpt><trkpt lat="42.86465095233771" lon="11.744775156735749"><ele>356.0</ele><time>2026-04-25T09:37:02.998Z</time></trkpt><trkpt lat="42.86444539223734" lon="11.744890890987005"><ele>356.0</ele><time>2026-04-25T09:37:03.998Z</time></trkpt><trkpt lat="42.86423864445445" lon="11.74500199374474"><ele>355.33333333333337</ele><time>2026-04-25T09:37:04.998Z</time></trkpt><trkpt lat="42.86403060308884" lon="11.745104794471562"><ele>354.6666666666667</ele><time>2026-04-25T09:37:05.998Z</time></trkpt><trkpt lat="42.86382026119376" lon="11.745203135741994"><ele>354.0</ele><time>2026-04-25T09:37:06.998Z</time></trkpt><trkpt lat="42.863606514323834" lon="11.745291612027243"><ele>355.0</ele><time>2026-04-25T09:37:07.998Z</time></trkpt><trkpt lat="42.86338886503075" lon="11.745361336905612"><ele>356.0</ele><time>2026-04-25T09:37:08.998Z</time></trkpt><trkpt lat="42.863170095599195" lon="11.745419562816041"><ele>357.0</ele><time>2026-04-25T09:37:09.998Z</time></trkpt><trkpt lat="42.862951349961016" lon="11.74548399559636"><ele>357.0</ele><time>2026-04-25T09:37:10.998Z</time></trkpt><trkpt lat="42.86273165349621" lon="11.745556263666225"><ele>357.0</ele><time>2026-04-25T09:37:11.998Z</time></trkpt><trkpt lat="42.8625150090829" lon="11.745629014468278"><ele>357.0</ele><time>2026-04-25T09:37:12.998Z</time></trkpt><trkpt lat="42.86229806681486" lon="11.745700678010731"><ele>354.0</ele><time>2026-04-25T09:37:13.998Z</time></trkpt><trkpt lat="42.862079714301636" lon="11.74577951911959"><ele>351.0</ele><time>2026-04-25T09:37:14.998Z</time></trkpt><trkpt lat="42.86186167054114" lon="11.745878957563756"><ele>350.0</ele><time>2026-04-25T09:37:15.998Z</time></trkpt><trkpt lat="42.86164013391109" lon="11.746003712953538"><ele>349.0</ele><time>2026-04-25T09:37:16.998Z</time></trkpt><trkpt lat="42.86141654204787" lon="11.74614533890856"><ele>353.5</ele><time>2026-04-25T09:37:17.998Z</time></trkpt><trkpt lat="42.861194415868205" lon="11.746292577810316"><ele>358.0</ele><time>2026-04-25T09:37:18.998Z</time></trkpt><trkpt lat="42.86097417959527" lon="11.746442062991834"><ele>355.0</ele><time>2026-04-25T09:37:19.998Z</time></trkpt><trkpt lat="42.860757214248665" lon="11.746585877425673"><ele>352.0</ele><time>2026-04-25T09:37:20.998Z</time></trkpt><trkpt lat="42.86054261736904" lon="11.746723048408079"><ele>352.0</ele><time>2026-04-25T09:37:21.998Z</time></trkpt><trkpt lat="42.86032857851679" lon="11.74686125084951"><ele>352.0</ele><time>2026-04-25T09:37:22.998Z</time></trkpt><trkpt lat="42.86011409132217" lon="11.747012223887394"><ele>350.0</ele><time>2026-04-25T09:37:23.998Z</time></trkpt><trkpt lat="42.85990406126751" lon="11.747187610014981"><ele>348.0</ele><time>2026-04-25T09:37:24.998Z</time></trkpt><trkpt lat="42.85970300552792" lon="11.747390242156653"><ele>348.0</ele><time>2026-04-25T09:37:25.998Z</time></trkpt><trkpt lat="42.85949852384281" lon="11.747604735226473"><ele>348.0</ele><time>2026-04-25T09:37:26.998Z</time></trkpt><trkpt lat="42.859287604232314" lon="11.74781235733766"><ele>346.5</ele><time>2026-04-25T09:37:27.998Z</time></trkpt><trkpt lat="42.85907528229572" lon="11.748017124984269"><ele>345.0</ele><time>2026-04-25T09:37:28.998Z</time></trkpt><trkpt lat="42.858866742189534" lon="11.748220200280086"><ele>345.0</ele><time>2026-04-25T09:37:29.998Z</time></trkpt><trkpt lat="42.8586637584274" lon="11.748417342146498"><ele>345.0</ele><time>2026-04-25T09:37:30.998Z</time></trkpt><trkpt lat="42.85846677455967" lon="11.74861102533158"><ele>344.5</ele><time>2026-04-25T09:37:31.998Z</time></trkpt><trkpt lat="42.85827274528305" lon="11.748806887499509"><ele>344.0</ele><time>2026-04-25T09:37:32.998Z</time></trkpt><trkpt lat="42.858076136680154" lon="11.749001672305795"><ele>344.0</ele><time>2026-04-25T09:37:33.998Z</time></trkpt><trkpt lat="42.857872246291365" lon="11.749179587410207"><ele>344.0</ele><time>2026-04-25T09:37:34.998Z</time></trkpt><trkpt lat="42.85765898375547" lon="11.749330811497092"><ele>348.5</ele><time>2026-04-25T09:37:35.998Z</time></trkpt><trkpt lat="42.8574388316554" lon="11.749458191120441"><ele>353.0</ele><time>2026-04-25T09:37:36.998Z</time></trkpt><trkpt lat="42.857211339727336" lon="11.749562111768368"><ele>353.0</ele><time>2026-04-25T09:37:38Z</time></trkpt><trkpt lat="42.8569774278045" lon="11.749639818015968"><ele>353.0</ele><time>2026-04-25T09:37:39Z</time></trkpt><trkpt lat="42.85673909344856" lon="11.7497004568689"><ele>350.0</ele><time>2026-04-25T09:37:40Z</time></trkpt><trkpt lat="42.85650007610345" lon="11.749768001913392"><ele>347.0</ele><time>2026-04-25T09:37:41Z</time></trkpt><trkpt lat="42.85626210175231" lon="11.7498501087101"><ele>347.0</ele><time>2026-04-25T09:37:42Z</time></trkpt><trkpt lat="42.856021806529306" lon="11.749931640351393"><ele>347.0</ele><time>2026-04-25T09:37:43Z</time></trkpt><trkpt lat="42.85577944474503" lon="11.750009930297718"><ele>343.5</ele><time>2026-04-25T09:37:44Z</time></trkpt><trkpt lat="42.855537658507664" lon="11.750086956117592"><ele>340.0</ele><time>2026-04-25T09:37:45Z</time></trkpt><trkpt lat="42.85529560888339" lon="11.75016908690974"><ele>345.0</ele><time>2026-04-25T09:37:46Z</time></trkpt><trkpt lat="42.85505506965667" lon="11.750259128385496"><ele>350.0</ele><time>2026-04-25T09:37:47Z</time></trkpt><trkpt lat="42.85481714725544" lon="11.750360670476615"><ele>350.0</ele><time>2026-04-25T09:37:48Z</time></trkpt><trkpt lat="42.85458183808431" lon="11.750466085846343"><ele>350.0</ele><time>2026-04-25T09:37:49Z</time></trkpt><trkpt lat="42.85434670236656" lon="11.750566651484318"><ele>346.5</ele><time>2026-04-25T09:37:50Z</time></trkpt><trkpt lat="42.854113254626405" lon="11.750665982288696"><ele>343.0</ele><time>2026-04-25T09:37:51Z</time></trkpt><trkpt lat="42.853882844096496" lon="11.750765749960527"><ele>343.0</ele><time>2026-04-25T09:37:52Z</time></trkpt><trkpt lat="42.85365428543168" lon="11.750864031956072"><ele>343.0</ele><time>2026-04-25T09:37:53Z</time></trkpt><trkpt lat="42.853428355144395" lon="11.750961766587125"><ele>346.0</ele><time>2026-04-25T09:37:54Z</time></trkpt><trkpt lat="42.85320473743127" lon="11.751057604028418"><ele>349.0</ele><time>2026-04-25T09:37:55Z</time></trkpt><trkpt lat="42.852981278667734" lon="11.751153337286684"><ele>349.0</ele><time>2026-04-25T09:37:56Z</time></trkpt><trkpt lat="42.852757380479275" lon="11.751256250168932"><ele>349.0</ele><time>2026-04-25T09:37:57Z</time></trkpt><trkpt lat="42.85253598382939" lon="11.75137093277863"><ele>344.5</ele><time>2026-04-25T09:37:58Z</time></trkpt><trkpt lat="42.85231520710944" lon="11.751501636178958"><ele>340.0</ele><time>2026-04-25T09:37:59Z</time></trkpt><trkpt lat="42.85209728075705" lon="11.75164094809132"><ele>340.0</ele><time>2026-04-25T09:38:00Z</time></trkpt><trkpt lat="42.85187960291888" lon="11.751774377944367"><ele>340.0</ele><time>2026-04-25T09:38:01Z</time></trkpt><trkpt lat="42.85165864389572" lon="11.751903616623252"><ele>338.0</ele><time>2026-04-25T09:38:02Z</time></trkpt><trkpt lat="42.851436541539414" lon="11.752030824395757"><ele>336.0</ele><time>2026-04-25T09:38:03Z</time></trkpt><trkpt lat="42.851214133227565" lon="11.752159084995874"><ele>336.0</ele><time>2026-04-25T09:38:04Z</time></trkpt><trkpt lat="42.85098601623337" lon="11.752280720719352"><ele>336.0</ele><time>2026-04-25T09:38:05Z</time></trkpt><trkpt lat="42.850747889765444" lon="11.752387015168017"><ele>334.0</ele><time>2026-04-25T09:38:06Z</time></trkpt><trkpt lat="42.85049993730439" lon="11.752472417304755"><ele>332.0</ele><time>2026-04-25T09:38:07Z</time></trkpt><trkpt lat="42.85024837851985" lon="11.75254284359391"><ele>331.5</ele><time>2026-04-25T09:38:08Z</time></trkpt><trkpt lat="42.849997690660366" lon="11.752611225669435"><ele>331.0</ele><time>2026-04-25T09:38:09Z</time></trkpt><trkpt lat="42.84975041770009" lon="11.752686589623078"><ele>332.5</ele><time>2026-04-25T09:38:10Z</time></trkpt><trkpt lat="42.84950454472054" lon="11.75276883185023"><ele>334.0</ele><time>2026-04-25T09:38:11Z</time></trkpt><trkpt lat="42.84926123135688" lon="11.752849243675703"><ele>334.0</ele><time>2026-04-25T09:38:12Z</time></trkpt><trkpt lat="42.84901965108456" lon="11.75292517969112"><ele>334.0</ele><time>2026-04-25T09:38:13Z</time></trkpt><trkpt lat="42.84877901640348" lon="11.752996939751686"><ele>334.0</ele><time>2026-04-25T09:38:14Z</time></trkpt><trkpt lat="42.848539552613204" lon="11.753068282123314"><ele>334.0</ele><time>2026-04-25T09:38:15Z</time></trkpt><trkpt lat="42.8483003180768" lon="11.753137649301179"><ele>332.0</ele><time>2026-04-25T09:38:16Z</time></trkpt><trkpt lat="42.84806680865183" lon="11.753209585387282"><ele>330.0</ele><time>2026-04-25T09:38:17Z</time></trkpt><trkpt lat="42.847836353204826" lon="11.753283345830571"><ele>329.0</ele><time>2026-04-25T09:38:18Z</time></trkpt><trkpt lat="42.84760490748074" lon="11.753356453074444"><ele>328.0</ele><time>2026-04-25T09:38:19Z</time></trkpt><trkpt lat="42.847371277786664" lon="11.75342641697974"><ele>328.0</ele><time>2026-04-25T09:38:20Z</time></trkpt><trkpt lat="42.847136499999245" lon="11.75349577192686"><ele>328.0</ele><time>2026-04-25T09:38:21Z</time></trkpt><trkpt lat="42.84689839688551" lon="11.753566858223001"><ele>329.0</ele><time>2026-04-25T09:38:22Z</time></trkpt><trkpt lat="42.84665300520316" lon="11.75363179956328"><ele>330.0</ele><time>2026-04-25T09:38:23Z</time></trkpt><trkpt lat="42.84640075001332" lon="11.753673325855992"><ele>330.0</ele><time>2026-04-25T09:38:24Z</time></trkpt><trkpt lat="42.846145310067875" lon="11.753686604734083"><ele>330.0</ele><time>2026-04-25T09:38:25Z</time></trkpt><trkpt lat="42.84588672819061" lon="11.753690694153448"><ele>329.5</ele><time>2026-04-25T09:38:26Z</time></trkpt><trkpt lat="42.84562004146605" lon="11.753705909247087"><ele>329.0</ele><time>2026-04-25T09:38:27Z</time></trkpt><trkpt lat="42.84534365113062" lon="11.753737302718697"><ele>328.0</ele><time>2026-04-25T09:38:27.999Z</time></trkpt><trkpt lat="42.84505555230049" lon="11.753770036702674"><ele>327.0</ele><time>2026-04-25T09:38:28.999Z</time></trkpt><trkpt lat="42.84475763679686" lon="11.753787563390084"><ele>327.0</ele><time>2026-04-25T09:38:29.999Z</time></trkpt><trkpt lat="42.84445101224707" lon="11.753789003360856"><ele>327.0</ele><time>2026-04-25T09:38:30.999Z</time></trkpt><trkpt lat="42.84413661658828" lon="11.753784360683122"><ele>326.0</ele><time>2026-04-25T09:38:31.999Z</time></trkpt><trkpt lat="42.84381926152067" lon="11.753794245871678"><ele>325.0</ele><time>2026-04-25T09:38:32.999Z</time></trkpt><trkpt lat="42.843501200827966" lon="11.753813496670396"><ele>324.5</ele><time>2026-04-25T09:38:33.999Z</time></trkpt><trkpt lat="42.84319033200489" lon="11.75382955592643"><ele>324.0</ele><time>2026-04-25T09:38:34.999Z</time></trkpt><trkpt lat="42.842887775433105" lon="11.75384217589494"><ele>323.5</ele><time>2026-04-25T09:38:35.999Z</time></trkpt><trkpt lat="42.84259071400625" lon="11.753857620277568"><ele>323.0</ele><time>2026-04-25T09:38:36.999Z</time></trkpt><trkpt lat="42.842298408650365" lon="11.753873092882584"><ele>323.0</ele><time>2026-04-25T09:38:37.999Z</time></trkpt><trkpt lat="42.84200934287882" lon="11.753885398399406"><ele>323.0</ele><time>2026-04-25T09:38:38.999Z</time></trkpt><trkpt lat="42.841726095602795" lon="11.753893866437659"><ele>322.0</ele><time>2026-04-25T09:38:39.999Z</time></trkpt><trkpt lat="42.841449086828334" lon="11.753903832599995"><ele>321.0</ele><time>2026-04-25T09:38:40.999Z</time></trkpt><trkpt lat="42.84117940851916" lon="11.753918952934988"><ele>321.0</ele><time>2026-04-25T09:38:41.999Z</time></trkpt><trkpt lat="42.84091132229632" lon="11.753942495226761"><ele>321.0</ele><time>2026-04-25T09:38:42.999Z</time></trkpt><trkpt lat="42.84064520993685" lon="11.753986110765872"><ele>321.0</ele><time>2026-04-25T09:38:43.999Z</time></trkpt><trkpt lat="42.840381121157385" lon="11.75406422658291"><ele>321.0</ele><time>2026-04-25T09:38:44.999Z</time></trkpt><trkpt lat="42.84012025983048" lon="11.754170583094288"><ele>321.0</ele><time>2026-04-25T09:38:45.999Z</time></trkpt><trkpt lat="42.83985631198865" lon="11.754296434230607"><ele>321.0</ele><time>2026-04-25T09:38:46.999Z</time></trkpt><trkpt lat="42.83958730806856" lon="11.754429320008713"><ele>321.5</ele><time>2026-04-25T09:38:47.999Z</time></trkpt><trkpt lat="42.839326932550236" lon="11.754561882101711"><ele>322.0</ele><time>2026-04-25T09:38:48.999Z</time></trkpt><trkpt lat="42.839067191461126" lon="11.754694280022713"><ele>322.0</ele><time>2026-04-25T09:38:49.999Z</time></trkpt><trkpt lat="42.83880496719788" lon="11.754817680091598"><ele>322.0</ele><time>2026-04-25T09:38:50.999Z</time></trkpt><trkpt lat="42.838543829758066" lon="11.75494090071495"><ele>320.5</ele><time>2026-04-25T09:38:51.999Z</time></trkpt><trkpt lat="42.838285827351605" lon="11.75507274449203"><ele>319.0</ele><time>2026-04-25T09:38:52.999Z</time></trkpt><trkpt lat="42.83802893553564" lon="11.755199502897904"><ele>320.0</ele><time>2026-04-25T09:38:53.999Z</time></trkpt><trkpt lat="42.8377778899561" lon="11.755320925235562"><ele>321.0</ele><time>2026-04-25T09:38:54.999Z</time></trkpt><trkpt lat="42.8375337339764" lon="11.755440848372178"><ele>321.0</ele><time>2026-04-25T09:38:55.999Z</time></trkpt><trkpt lat="42.83730111780695" lon="11.755558430264392"><ele>321.0</ele><time>2026-04-25T09:38:56.999Z</time></trkpt><trkpt lat="42.83708265368288" lon="11.755667829739384"><ele>321.0</ele><time>2026-04-25T09:38:57.999Z</time></trkpt><trkpt lat="42.8368668498174" lon="11.755773107484277"><ele>321.0</ele><time>2026-04-25T09:38:58.999Z</time></trkpt><trkpt lat="42.836651849618455" lon="11.755874297282002"><ele>321.5</ele><time>2026-04-25T09:38:59.999Z</time></trkpt><trkpt lat="42.83643716992534" lon="11.755980243219037"><ele>322.0</ele><time>2026-04-25T09:39:00.999Z</time></trkpt><trkpt lat="42.83622104013164" lon="11.756091514296463"><ele>321.5</ele><time>2026-04-25T09:39:01.999Z</time></trkpt><trkpt lat="42.83600035622595" lon="11.756204251189242"><ele>321.0</ele><time>2026-04-25T09:39:02.999Z</time></trkpt><trkpt lat="42.83577520760037" lon="11.7563156796824"><ele>321.0</ele><time>2026-04-25T09:39:03.999Z</time></trkpt><trkpt lat="42.83554837845524" lon="11.756428046401846"><ele>321.0</ele><time>2026-04-25T09:39:04.999Z</time></trkpt><trkpt lat="42.835322209206176" lon="11.756536687929923"><ele>320.5</ele><time>2026-04-25T09:39:05.999Z</time></trkpt><trkpt lat="42.835100819997585" lon="11.756640659038924"><ele>320.0</ele><time>2026-04-25T09:39:06.999Z</time></trkpt><trkpt lat="42.834888178711566" lon="11.756746577592969"><ele>320.0</ele><time>2026-04-25T09:39:07.999Z</time></trkpt><trkpt lat="42.8346789689384" lon="11.756866280619192"><ele>320.0</ele><time>2026-04-25T09:39:08.999Z</time></trkpt><trkpt lat="42.83447350461251" lon="11.757012441131446"><ele>319.5</ele><time>2026-04-25T09:39:09.999Z</time></trkpt><trkpt lat="42.834270913993706" lon="11.757187241372034"><ele>319.0</ele><time>2026-04-25T09:39:10.999Z</time></trkpt><trkpt lat="42.8340635956403" lon="11.757379328111627"><ele>319.0</ele><time>2026-04-25T09:39:11.999Z</time></trkpt><trkpt lat="42.833847600931364" lon="11.75757965790169"><ele>319.0</ele><time>2026-04-25T09:39:12.999Z</time></trkpt><trkpt lat="42.83362892763781" lon="11.757777925631197"><ele>319.0</ele><time>2026-04-25T09:39:13.999Z</time></trkpt><trkpt lat="42.83341645859668" lon="11.757972526297896"><ele>319.0</ele><time>2026-04-25T09:39:14.999Z</time></trkpt><trkpt lat="42.83320054408549" lon="11.758169855054758"><ele>319.0</ele><time>2026-04-25T09:39:15.999Z</time></trkpt><trkpt lat="42.832983909949306" lon="11.75836874783119"><ele>319.0</ele><time>2026-04-25T09:39:16.999Z</time></trkpt><trkpt lat="42.832769349688995" lon="11.758565764539789"><ele>318.5</ele><time>2026-04-25T09:39:17.999Z</time></trkpt><trkpt lat="42.832556327149526" lon="11.758759839999351"><ele>318.0</ele><time>2026-04-25T09:39:18.999Z</time></trkpt><trkpt lat="42.83234582093193" lon="11.758953143048904"><ele>318.0</ele><time>2026-04-25T09:39:19.999Z</time></trkpt><trkpt lat="42.83213459370994" lon="11.759144403119905"><ele>318.0</ele><time>2026-04-25T09:39:20.999Z</time></trkpt><trkpt lat="42.8319204852869" lon="11.759332433938477"><ele>316.0</ele><time>2026-04-25T09:39:21.998Z</time></trkpt><trkpt lat="42.83170478969317" lon="11.75952442276915"><ele>314.0</ele><time>2026-04-25T09:39:22.998Z</time></trkpt><trkpt lat="42.83148686045331" lon="11.759725710838557"><ele>314.0</ele><time>2026-04-25T09:39:23.998Z</time></trkpt><trkpt lat="42.83126392820496" lon="11.759934060490204"><ele>314.0</ele><time>2026-04-25T09:39:24.998Z</time></trkpt><trkpt lat="42.8310344544697" lon="11.760150442391978"><ele>314.0</ele><time>2026-04-25T09:39:25.998Z</time></trkpt><trkpt lat="42.830798913980914" lon="11.760370850745348"><ele>314.0</ele><time>2026-04-25T09:39:26.998Z</time></trkpt><trkpt lat="42.83056313822192" lon="11.760590959332198"><ele>314.0</ele><time>2026-04-25T09:39:27.998Z</time></trkpt><trkpt lat="42.830325932137754" lon="11.760807607871229"><ele>314.0</ele><time>2026-04-25T09:39:28.998Z</time></trkpt><trkpt lat="42.830087921046186" lon="11.761021531183616"><ele>311.5</ele><time>2026-04-25T09:39:29.998Z</time></trkpt><trkpt lat="42.82985028947079" lon="11.761236157035286"><ele>309.0</ele><time>2026-04-25T09:39:30.998Z</time></trkpt><trkpt lat="42.829612599590355" lon="11.761449488863072"><ele>309.0</ele><time>2026-04-25T09:39:31.998Z</time></trkpt><trkpt lat="42.829376936710695" lon="11.761662157648583"><ele>309.0</ele><time>2026-04-25T09:39:32.998Z</time></trkpt><trkpt lat="42.8291449137041" lon="11.761873999236787"><ele>308.0</ele><time>2026-04-25T09:39:33.998Z</time></trkpt><trkpt lat="42.82891624612469" lon="11.76208335955022"><ele>307.0</ele><time>2026-04-25T09:39:34.998Z</time></trkpt><trkpt lat="42.828690179989806" lon="11.762288424371128"><ele>307.5</ele><time>2026-04-25T09:39:35.998Z</time></trkpt><trkpt lat="42.82846742557048" lon="11.76249231241779"><ele>308.0</ele><time>2026-04-25T09:39:36.998Z</time></trkpt><trkpt lat="42.82825087446307" lon="11.762699363399587"><ele>308.0</ele><time>2026-04-25T09:39:37.998Z</time></trkpt><trkpt lat="42.8280401400253" lon="11.762919773532282"><ele>308.0</ele><time>2026-04-25T09:39:38.998Z</time></trkpt><trkpt lat="42.82783205396584" lon="11.76315826519589"><ele>306.5</ele><time>2026-04-25T09:39:39.998Z</time></trkpt><trkpt lat="42.82762997932381" lon="11.76341508423394"><ele>305.0</ele><time>2026-04-25T09:39:40.998Z</time></trkpt><trkpt lat="42.82743222805612" lon="11.763674310029826"><ele>305.0</ele><time>2026-04-25T09:39:41.998Z</time></trkpt><trkpt lat="42.827233278163604" lon="11.763933321944352"><ele>305.0</ele><time>2026-04-25T09:39:42.998Z</time></trkpt><trkpt lat="42.82703254771967" lon="11.764192359829678"><ele>303.5</ele><time>2026-04-25T09:39:44Z</time></trkpt><trkpt lat="42.826834067226244" lon="11.764452574466784"><ele>302.0</ele><time>2026-04-25T09:39:45Z</time></trkpt><trkpt lat="42.82663658522762" lon="11.764717109748467"><ele>302.0</ele><time>2026-04-25T09:39:46Z</time></trkpt><trkpt lat="42.82643745454575" lon="11.764983220397342"><ele>302.0</ele><time>2026-04-25T09:39:47Z</time></trkpt><trkpt lat="42.826235395494045" lon="11.765249563411889"><ele>301.0</ele><time>2026-04-25T09:39:48Z</time></trkpt><trkpt lat="42.8260300926757" lon="11.76551429867429"><ele>300.0</ele><time>2026-04-25T09:39:49Z</time></trkpt><trkpt lat="42.82582233440713" lon="11.76577980069023"><ele>302.0</ele><time>2026-04-25T09:39:50Z</time></trkpt><trkpt lat="42.82561692815784" lon="11.7660453030764"><ele>304.0</ele><time>2026-04-25T09:39:51Z</time></trkpt><trkpt lat="42.82541277845482" lon="11.766313065933604"><ele>304.0</ele><time>2026-04-25T09:39:52Z</time></trkpt><trkpt lat="42.82520750324552" lon="11.766583545782831"><ele>304.0</ele><time>2026-04-25T09:39:53Z</time></trkpt><trkpt lat="42.82500303238198" lon="11.766853035830987"><ele>302.5</ele><time>2026-04-25T09:39:54Z</time></trkpt><trkpt lat="42.824801946783964" lon="11.767115817511591"><ele>301.0</ele><time>2026-04-25T09:39:55Z</time></trkpt><trkpt lat="42.82460678343317" lon="11.767376410386426"><ele>301.0</ele><time>2026-04-25T09:39:56Z</time></trkpt><trkpt lat="42.824424405703056" lon="11.7676462853841"><ele>301.0</ele><time>2026-04-25T09:39:57Z</time></trkpt><trkpt lat="42.82426271928876" lon="11.767934786117769"><ele>300.0</ele><time>2026-04-25T09:39:58Z</time></trkpt><trkpt lat="42.82412027424705" lon="11.768246503571415"><ele>299.0</ele><time>2026-04-25T09:39:59Z</time></trkpt><trkpt lat="42.82399308980337" lon="11.768577740709151"><ele>299.0</ele><time>2026-04-25T09:40:00Z</time></trkpt><trkpt lat="42.82388686287734" lon="11.76890425522416"><ele>299.0</ele><time>2026-04-25T09:40:01Z</time></trkpt><trkpt lat="42.82380491498211" lon="11.769220840301609"><ele>299.0</ele><time>2026-04-25T09:40:02Z</time></trkpt><trkpt lat="42.82373848404624" lon="11.769529307461756"><ele>299.0</ele><time>2026-04-25T09:40:03Z</time></trkpt><trkpt lat="42.82369319186144" lon="11.76982690001237"><ele>299.0</ele><time>2026-04-25T09:40:04Z</time></trkpt><trkpt lat="42.82366038575036" lon="11.770099831625517"><ele>299.0</ele><time>2026-04-25T09:40:05Z</time></trkpt><trkpt lat="42.82364572117315" lon="11.770381486572061"><ele>299.0</ele><time>2026-04-25T09:40:06Z</time></trkpt><trkpt lat="42.82364963989057" lon="11.770684358211586"><ele>298.0</ele><time>2026-04-25T09:40:07Z</time></trkpt><trkpt lat="42.82366675563404" lon="11.771001557979893"><ele>297.0</ele><time>2026-04-25T09:40:08Z</time></trkpt><trkpt lat="42.82369601258794" lon="11.771326754469086"><ele>297.0</ele><time>2026-04-25T09:40:09Z</time></trkpt><trkpt lat="42.823747409378136" lon="11.771654779184344"><ele>297.0</ele><time>2026-04-25T09:40:10Z</time></trkpt><trkpt lat="42.82382335480697" lon="11.771980692464552"><ele>296.5</ele><time>2026-04-25T09:40:11Z</time></trkpt><trkpt lat="42.823909210067455" lon="11.772305405516713"><ele>296.0</ele><time>2026-04-25T09:40:12Z</time></trkpt><trkpt lat="42.82400332970815" lon="11.772622506421117"><ele>296.0</ele><time>2026-04-25T09:40:13Z</time></trkpt><trkpt lat="42.82407260906159" lon="11.772947774820645"><ele>296.0</ele><time>2026-04-25T09:40:14Z</time></trkpt><trkpt lat="42.824194459678885" lon="11.773243895212273"><ele>295.5</ele><time>2026-04-25T09:40:15Z</time></trkpt><trkpt lat="42.82428660571321" lon="11.773551713192338"><ele>295.0</ele><time>2026-04-25T09:40:16Z</time></trkpt><trkpt lat="42.82438051509225" lon="11.77385351749591"><ele>297.0</ele><time>2026-04-25T09:40:17Z</time></trkpt><trkpt lat="42.824472706919686" lon="11.774147277160809"><ele>299.0</ele><time>2026-04-25T09:40:18Z</time></trkpt><trkpt lat="42.824558963973075" lon="11.774438083664231"><ele>299.0</ele><time>2026-04-25T09:40:19Z</time></trkpt><trkpt lat="42.82464645169991" lon="11.77472512985605"><ele>299.0</ele><time>2026-04-25T09:40:20Z</time></trkpt><trkpt lat="42.824735003298876" lon="11.775009387232602"><ele>298.33333333333337</ele><time>2026-04-25T09:40:21Z</time></trkpt><trkpt lat="42.82481905567757" lon="11.775289011329573"><ele>297.6666666666667</ele><time>2026-04-25T09:40:22Z</time></trkpt><trkpt lat="42.8248980145281" lon="11.77555554462711"><ele>297.0</ele><time>2026-04-25T09:40:23Z</time></trkpt><trkpt lat="42.82497779458927" lon="11.775818890151715"><ele>296.0</ele><time>2026-04-25T09:40:24Z</time></trkpt><trkpt lat="42.82505858755537" lon="11.776074315081269"><ele>295.0</ele><time>2026-04-25T09:40:25Z</time></trkpt><trkpt lat="42.82513376795811" lon="11.77631972260337"><ele>294.0</ele><time>2026-04-25T09:40:26Z</time></trkpt><trkpt lat="42.82520860571239" lon="11.776561188100953"><ele>294.6666666666667</ele><time>2026-04-25T09:40:27Z</time></trkpt><trkpt lat="42.82528364122994" lon="11.776799505018564"><ele>295.33333333333337</ele><time>2026-04-25T09:40:28Z</time></trkpt><trkpt lat="42.82535516849068" lon="11.777032662590818"><ele>296.0</ele><time>2026-04-25T09:40:29Z</time></trkpt><trkpt lat="42.82541415109884" lon="11.777253941816127"><ele>296.0</ele><time>2026-04-25T09:40:30Z</time></trkpt><trkpt lat="42.82544711388188" lon="11.777481082179907"><ele>296.0</ele><time>2026-04-25T09:40:31Z</time></trkpt><trkpt lat="42.825460874606456" lon="11.777722727682416"><ele>296.0</ele><time>2026-04-25T09:40:32Z</time></trkpt><trkpt lat="42.82545904134824" lon="11.777964028490288"><ele>295.33333333333337</ele><time>2026-04-25T09:40:33Z</time></trkpt><trkpt lat="42.82544066142008" lon="11.778201609753578"><ele>294.6666666666667</ele><time>2026-04-25T09:40:34Z</time></trkpt><trkpt lat="42.82541408180797" lon="11.77843661265524"><ele>294.0</ele><time>2026-04-25T09:40:35Z</time></trkpt><trkpt lat="42.82539119449095" lon="11.778668813573953"><ele>294.0</ele><time>2026-04-25T09:40:36Z</time></trkpt><trkpt lat="42.825370168516" lon="11.778896223663425"><ele>294.0</ele><time>2026-04-25T09:40:37Z</time></trkpt><trkpt lat="42.825349759122936" lon="11.779126575235917"><ele>294.0</ele><time>2026-04-25T09:40:37.999Z</time></trkpt><trkpt lat="42.82532334140285" lon="11.779356816358277"><ele>294.3333333333333</ele><time>2026-04-25T09:40:38.999Z</time></trkpt><trkpt lat="42.82529187061841" lon="11.77957447061112"><ele>294.66666666666663</ele><time>2026-04-25T09:40:39.999Z</time></trkpt><trkpt lat="42.82525469715683" lon="11.779784504369044"><ele>295.0</ele><time>2026-04-25T09:40:40.999Z</time></trkpt><trkpt lat="42.82520934851385" lon="11.779998318848373"><ele>295.0</ele><time>2026-04-25T09:40:41.999Z</time></trkpt><trkpt lat="42.82516931126382" lon="11.780210913417157"><ele>295.0</ele><time>2026-04-25T09:40:42.999Z</time></trkpt><trkpt lat="42.825143385166086" lon="11.78041781295481"><ele>295.0</ele><time>2026-04-25T09:40:43.999Z</time></trkpt><trkpt lat="42.82512890808034" lon="11.780613891007318"><ele>295.0</ele><time>2026-04-25T09:40:44.999Z</time></trkpt><trkpt lat="42.82512068626601" lon="11.780798071676857"><ele>295.0</ele><time>2026-04-25T09:40:45.999Z</time></trkpt><trkpt lat="42.825110620540656" lon="11.780974129748804"><ele>295.0</ele><time>2026-04-25T09:40:46.999Z</time></trkpt><trkpt lat="42.8250984801753" lon="11.781146453450184"><ele>295.0</ele><time>2026-04-25T09:40:47.999Z</time></trkpt><trkpt lat="42.82508218341394" lon="11.781326171719497"><ele>295.0</ele><time>2026-04-25T09:40:48.999Z</time></trkpt><trkpt lat="42.825067153004284" lon="11.781511940578087"><ele>295.0</ele><time>2026-04-25T09:40:49.999Z</time></trkpt><trkpt lat="42.82505276895569" lon="11.781703832917653"><ele>295.0</ele><time>2026-04-25T09:40:50.999Z</time></trkpt><trkpt lat="42.82502942259284" lon="11.781905526216226"><ele>295.0</ele><time>2026-04-25T09:40:51.999Z</time></trkpt><trkpt lat="42.82500295945523" lon="11.782117010972403"><ele>295.3333333333333</ele><time>2026-04-25T09:40:52.999Z</time></trkpt><trkpt lat="42.824974572138345" lon="11.782329914706574"><ele>295.6666666666667</ele><time>2026-04-25T09:40:53.999Z</time></trkpt><trkpt lat="42.82493642727122" lon="11.782542006933951"><ele>296.0</ele><time>2026-04-25T09:40:54.999Z</time></trkpt><trkpt lat="42.82489525988899" lon="11.782754497849833"><ele>297.6666666666667</ele><time>2026-04-25T09:40:55.999Z</time></trkpt><trkpt lat="42.82485935107138" lon="11.782974381317468"><ele>299.3333333333333</ele><time>2026-04-25T09:40:56.999Z</time></trkpt><trkpt lat="42.8248241885334" lon="11.783200883701925"><ele>301.0</ele><time>2026-04-25T09:40:57.999Z</time></trkpt><trkpt lat="42.82478552682042" lon="11.783424490938181"><ele>302.3333333333333</ele><time>2026-04-25T09:40:58.999Z</time></trkpt><trkpt lat="42.82474220932488" lon="11.783645541571378"><ele>303.6666666666667</ele><time>2026-04-25T09:40:59.999Z</time></trkpt><trkpt lat="42.82469989027813" lon="11.783868100616331"><ele>305.0</ele><time>2026-04-25T09:41:00.999Z</time></trkpt><trkpt lat="42.82465825688885" lon="11.784090788754142"><ele>305.0</ele><time>2026-04-25T09:41:01.999Z</time></trkpt><trkpt lat="42.824618496221554" lon="11.784316783115415"><ele>305.0</ele><time>2026-04-25T09:41:02.999Z</time></trkpt><trkpt lat="42.82458429632288" lon="11.784546306439944"><ele>305.0</ele><time>2026-04-25T09:41:03.999Z</time></trkpt><trkpt lat="42.824549758089695" lon="11.784781561427902"><ele>305.33333333333337</ele><time>2026-04-25T09:41:04.999Z</time></trkpt><trkpt lat="42.824508393204795" lon="11.785023868170883"><ele>305.6666666666667</ele><time>2026-04-25T09:41:05.999Z</time></trkpt><trkpt lat="42.82446637153826" lon="11.785267287981458"><ele>306.0</ele><time>2026-04-25T09:41:06.999Z</time></trkpt><trkpt lat="42.82442084461895" lon="11.785512291537671"><ele>305.3333333333333</ele><time>2026-04-25T09:41:07.999Z</time></trkpt><trkpt lat="42.82436571316384" lon="11.785752863978344"><ele>304.66666666666663</ele><time>2026-04-25T09:41:08.999Z</time></trkpt><trkpt lat="42.82429710942328" lon="11.785984962483617"><ele>304.0</ele><time>2026-04-25T09:41:09.999Z</time></trkpt><trkpt lat="42.82421693749364" lon="11.786211396234341"><ele>301.66666666666663</ele><time>2026-04-25T09:41:10.999Z</time></trkpt><trkpt lat="42.82412582071481" lon="11.78643411302581"><ele>299.3333333333333</ele><time>2026-04-25T09:41:11.999Z</time></trkpt><trkpt lat="42.82402919510963" lon="11.786652899854289"><ele>297.0</ele><time>2026-04-25T09:41:12.999Z</time></trkpt><trkpt lat="42.82392473184616" lon="11.786870523242497"><ele>297.0</ele><time>2026-04-25T09:41:13.999Z</time></trkpt><trkpt lat="42.82381009898576" lon="11.787081794073378"><ele>297.0</ele><time>2026-04-25T09:41:14.999Z</time></trkpt><trkpt lat="42.82369066048639" lon="11.78728227542884"><ele>297.0</ele><time>2026-04-25T09:41:15.999Z</time></trkpt><trkpt lat="42.82356761592922" lon="11.7874954448649"><ele>296.6666666666667</ele><time>2026-04-25T09:41:16.999Z</time></trkpt><trkpt lat="42.82345355232542" lon="11.78770822094846"><ele>296.33333333333337</ele><time>2026-04-25T09:41:17.999Z</time></trkpt><trkpt lat="42.82333983098505" lon="11.787916119447798"><ele>296.0</ele><time>2026-04-25T09:41:18.999Z</time></trkpt><trkpt lat="42.82322499480318" lon="11.788121571890333"><ele>296.0</ele><time>2026-04-25T09:41:19.999Z</time></trkpt><trkpt lat="42.823111757731816" lon="11.788324712983545"><ele>296.0</ele><time>2026-04-25T09:41:20.999Z</time></trkpt><trkpt lat="42.82300388752061" lon="11.788519219550588"><ele>296.0</ele><time>2026-04-25T09:41:21.999Z</time></trkpt><trkpt lat="42.82290338033684" lon="11.7886999893928"><ele>297.0</ele><time>2026-04-25T09:41:22.999Z</time></trkpt><trkpt lat="42.82281037938592" lon="11.788867404121778"><ele>298.0</ele><time>2026-04-25T09:41:23.999Z</time></trkpt><trkpt lat="42.822726320097" lon="11.78902356426136"><ele>299.0</ele><time>2026-04-25T09:41:24.999Z</time></trkpt><trkpt lat="42.822645731698195" lon="11.789168679126815"><ele>300.0</ele><time>2026-04-25T09:41:25.999Z</time></trkpt><trkpt lat="42.82256187253592" lon="11.789313726344849"><ele>298.6666666666667</ele><time>2026-04-25T09:41:26.999Z</time></trkpt><trkpt lat="42.82247176112536" lon="11.789467598691894"><ele>297.33333333333337</ele><time>2026-04-25T09:41:27.999Z</time></trkpt><trkpt lat="42.82238102541724" lon="11.789633515188045"><ele>296.0</ele><time>2026-04-25T09:41:28.999Z</time></trkpt><trkpt lat="42.82228303685721" lon="11.789813839622916"><ele>296.0</ele><time>2026-04-25T09:41:29.999Z</time></trkpt><trkpt lat="42.822181586212366" lon="11.789998286795713"><ele>296.0</ele><time>2026-04-25T09:41:30.999Z</time></trkpt><trkpt lat="42.82207809443764" lon="11.790185111624714"><ele>296.0</ele><time>2026-04-25T09:41:31.998Z</time></trkpt><trkpt lat="42.82197207360592" lon="11.790380521797251"><ele>295.6666666666667</ele><time>2026-04-25T09:41:32.998Z</time></trkpt><trkpt lat="42.8218608604674" lon="11.7905859571708"><ele>295.3333333333333</ele><time>2026-04-25T09:41:33.998Z</time></trkpt><trkpt lat="42.82174303138461" lon="11.790803031433773"><ele>295.0</ele><time>2026-04-25T09:41:34.998Z</time></trkpt><trkpt lat="42.821626589391435" lon="11.79101676785389"><ele>295.0</ele><time>2026-04-25T09:41:35.998Z</time></trkpt><trkpt lat="42.82150439127793" lon="11.791234343094992"><ele>295.0</ele><time>2026-04-25T09:41:36.998Z</time></trkpt><trkpt lat="42.821380995049" lon="11.791455850400784"><ele>295.0</ele><time>2026-04-25T09:41:37.998Z</time></trkpt><trkpt lat="42.82125958042143" lon="11.79168493085104"><ele>294.0</ele><time>2026-04-25T09:41:38.998Z</time></trkpt><trkpt lat="42.82113747076084" lon="11.791920670332589"><ele>293.0</ele><time>2026-04-25T09:41:39.998Z</time></trkpt><trkpt lat="42.82100921314417" lon="11.792160699095126"><ele>292.0</ele><time>2026-04-25T09:41:40.998Z</time></trkpt><trkpt lat="42.82087772415947" lon="11.792396216830417"><ele>292.0</ele><time>2026-04-25T09:41:41.998Z</time></trkpt><trkpt lat="42.820744313406294" lon="11.792628663022246"><ele>292.0</ele><time>2026-04-25T09:41:42.998Z</time></trkpt><trkpt lat="42.820610467945556" lon="11.792860466970135"><ele>292.0</ele><time>2026-04-25T09:41:43.998Z</time></trkpt><trkpt lat="42.82048481638595" lon="11.793095204097103"><ele>292.3333333333333</ele><time>2026-04-25T09:41:44.998Z</time></trkpt><trkpt lat="42.82036395008232" lon="11.793320203596219"><ele>292.6666666666667</ele><time>2026-04-25T09:41:45.998Z</time></trkpt><trkpt lat="42.82024771071505" lon="11.793530244150228"><ele>293.0</ele><time>2026-04-25T09:41:46.998Z</time></trkpt><trkpt lat="42.82013564215672" lon="11.793733951689038"><ele>293.0</ele><time>2026-04-25T09:41:47.998Z</time></trkpt><trkpt lat="42.82002889437997" lon="11.793930015422157"><ele>293.0</ele><time>2026-04-25T09:41:48.998Z</time></trkpt><trkpt lat="42.819924637098424" lon="11.794117381694814"><ele>293.0</ele><time>2026-04-25T09:41:50Z</time></trkpt><trkpt lat="42.819825010596226" lon="11.79429826639122"><ele>295.0</ele><time>2026-04-25T09:41:51Z</time></trkpt><trkpt lat="42.81972581417104" lon="11.794479610914566"><ele>297.0</ele><time>2026-04-25T09:41:52Z</time></trkpt><trkpt lat="42.81962364369259" lon="11.794665107565018"><ele>299.0</ele><time>2026-04-25T09:41:53Z</time></trkpt><trkpt lat="42.81951949589169" lon="11.794854301316608"><ele>299.0</ele><time>2026-04-25T09:41:54Z</time></trkpt><trkpt lat="42.81941401718583" lon="11.795046562513221"><ele>299.0</ele><time>2026-04-25T09:41:55Z</time></trkpt><trkpt lat="42.81930687487963" lon="11.795239224618145"><ele>299.0</ele><time>2026-04-25T09:41:56Z</time></trkpt><trkpt lat="42.8191997470668" lon="11.795425105766656"><ele>297.0</ele><time>2026-04-25T09:41:57Z</time></trkpt><trkpt lat="42.819091981864844" lon="11.795600420701085"><ele>295.0</ele><time>2026-04-25T09:41:58Z</time></trkpt><trkpt lat="42.81898231681976" lon="11.795761653996678"><ele>293.0</ele><time>2026-04-25T09:41:59Z</time></trkpt><trkpt lat="42.81887171077856" lon="11.795909373257714"><ele>295.6666666666667</ele><time>2026-04-25T09:42:00Z</time></trkpt><trkpt lat="42.818757778201906" lon="11.796050899046318"><ele>298.3333333333333</ele><time>2026-04-25T09:42:01Z</time></trkpt><trkpt lat="42.818638000231246" lon="11.796190584093114"><ele>301.0</ele><time>2026-04-25T09:42:02Z</time></trkpt><trkpt lat="42.81851367696928" lon="11.796328001765646"><ele>297.66666666666663</ele><time>2026-04-25T09:42:03Z</time></trkpt><trkpt lat="42.81838681289588" lon="11.796461498543733"><ele>294.3333333333333</ele><time>2026-04-25T09:42:04Z</time></trkpt><trkpt lat="42.81825451206367" lon="11.796584142764875"><ele>291.0</ele><time>2026-04-25T09:42:05Z</time></trkpt><trkpt lat="42.818117439125544" lon="11.796699746039325"><ele>291.0</ele><time>2026-04-25T09:42:06Z</time></trkpt><trkpt lat="42.817978872554555" lon="11.796810648241502"><ele>291.0</ele><time>2026-04-25T09:42:07Z</time></trkpt><trkpt lat="42.81784011406272" lon="11.796916779560316"><ele>291.0</ele><time>2026-04-25T09:42:08Z</time></trkpt><trkpt lat="42.81770604399791" lon="11.797007563680523"><ele>290.75</ele><time>2026-04-25T09:42:09Z</time></trkpt><trkpt lat="42.81757373087726" lon="11.79708489372874"><ele>290.5</ele><time>2026-04-25T09:42:10Z</time></trkpt><trkpt lat="42.81743704846025" lon="11.797167053477978"><ele>290.25</ele><time>2026-04-25T09:42:11Z</time></trkpt><trkpt lat="42.817294950586806" lon="11.797255337260891"><ele>290.0</ele><time>2026-04-25T09:42:12Z</time></trkpt><trkpt lat="42.81714572458241" lon="11.797342282429172"><ele>290.0</ele><time>2026-04-25T09:42:13Z</time></trkpt><trkpt lat="42.81699311771986" lon="11.79743543384341"><ele>290.0</ele><time>2026-04-25T09:42:14Z</time></trkpt><trkpt lat="42.816840300453435" lon="11.797533302629772"><ele>290.0</ele><time>2026-04-25T09:42:15Z</time></trkpt><trkpt lat="42.81668906557107" lon="11.79763054184208"><ele>290.33333333333337</ele><time>2026-04-25T09:42:16Z</time></trkpt><trkpt lat="42.816533600724426" lon="11.797724596631637"><ele>290.6666666666667</ele><time>2026-04-25T09:42:17Z</time></trkpt><trkpt lat="42.81638021107763" lon="11.797818260497252"><ele>291.0</ele><time>2026-04-25T09:42:18Z</time></trkpt><trkpt lat="42.81622358748839" lon="11.797913915682068"><ele>291.0</ele><time>2026-04-25T09:42:19Z</time></trkpt><trkpt lat="42.816072917028535" lon="11.798006211273472"><ele>291.0</ele><time>2026-04-25T09:42:20Z</time></trkpt><trkpt lat="42.815926279923076" lon="11.798096189767188"><ele>291.0</ele><time>2026-04-25T09:42:21Z</time></trkpt><trkpt lat="42.81577962309439" lon="11.798186871651625"><ele>289.6666666666667</ele><time>2026-04-25T09:42:22Z</time></trkpt><trkpt lat="42.81563125081276" lon="11.798275796008491"><ele>288.33333333333337</ele><time>2026-04-25T09:42:23Z</time></trkpt><trkpt lat="42.815487969333475" lon="11.798359290610012"><ele>287.0</ele><time>2026-04-25T09:42:24Z</time></trkpt><trkpt lat="42.8153477395233" lon="11.79844385989465"><ele>287.6666666666667</ele><time>2026-04-25T09:42:25Z</time></trkpt><trkpt lat="42.81521615574496" lon="11.798530494574178"><ele>288.3333333333333</ele><time>2026-04-25T09:42:26Z</time></trkpt><trkpt lat="42.815069837434784" lon="11.79861778272071"><ele>289.0</ele><time>2026-04-25T09:42:27Z</time></trkpt><trkpt lat="42.81491324022143" lon="11.798712154433526"><ele>289.0</ele><time>2026-04-25T09:42:28Z</time></trkpt><trkpt lat="42.8147340099911" lon="11.798804757545037"><ele>289.0</ele><time>2026-04-25T09:42:29Z</time></trkpt><trkpt lat="42.81454619224233" lon="11.798918408556512"><ele>289.0</ele><time>2026-04-25T09:42:30Z</time></trkpt><trkpt lat="42.81433804498392" lon="11.799044361188212"><ele>287.5</ele><time>2026-04-25T09:42:31Z</time></trkpt><trkpt lat="42.81411762335606" lon="11.799177741236468"><ele>286.0</ele><time>2026-04-25T09:42:32Z</time></trkpt><trkpt lat="42.81388042652383" lon="11.799321393183757"><ele>288.0</ele><time>2026-04-25T09:42:33Z</time></trkpt><trkpt lat="42.813633709330965" lon="11.79947139292472"><ele>290.0</ele><time>2026-04-25T09:42:34Z</time></trkpt><trkpt lat="42.81337398988723" lon="11.799629297841781"><ele>290.0</ele><time>2026-04-25T09:42:35Z</time></trkpt><trkpt lat="42.813102625554386" lon="11.799792908890002"><ele>290.0</ele><time>2026-04-25T09:42:36Z</time></trkpt><trkpt lat="42.81283692232448" lon="11.79995411562537"><ele>290.0</ele><time>2026-04-25T09:42:37Z</time></trkpt><trkpt lat="42.81258248297538" lon="11.800121643484905"><ele>290.0</ele><time>2026-04-25T09:42:38Z</time></trkpt><trkpt lat="42.81232567001607" lon="11.80026371369644"><ele>293.5</ele><time>2026-04-25T09:42:39Z</time></trkpt><trkpt lat="42.81207812165115" lon="11.80041652023469"><ele>297.0</ele><time>2026-04-25T09:42:40Z</time></trkpt><trkpt lat="42.81183617665955" lon="11.80056777720302"><ele>295.5</ele><time>2026-04-25T09:42:40.999Z</time></trkpt><trkpt lat="42.81159643803627" lon="11.800711391194927"><ele>294.0</ele><time>2026-04-25T09:42:41.999Z</time></trkpt><trkpt lat="42.8113626821717" lon="11.800849177645368"><ele>294.0</ele><time>2026-04-25T09:42:42.999Z</time></trkpt><trkpt lat="42.81113522050511" lon="11.800984553775546"><ele>294.0</ele><time>2026-04-25T09:42:43.999Z</time></trkpt><trkpt lat="42.81091285498101" lon="11.801120961883068"><ele>298.5</ele><time>2026-04-25T09:42:44.999Z</time></trkpt><trkpt lat="42.810691650565076" lon="11.801253266396499"><ele>303.0</ele><time>2026-04-25T09:42:45.999Z</time></trkpt><trkpt lat="42.81047263046102" lon="11.80138447201118"><ele>303.0</ele><time>2026-04-25T09:42:46.999Z</time></trkpt><trkpt lat="42.81025600541794" lon="11.801517089145129"><ele>303.0</ele><time>2026-04-25T09:42:47.999Z</time></trkpt><trkpt lat="42.8100411011211" lon="11.801649967504119"><ele>305.0</ele><time>2026-04-25T09:42:48.998Z</time></trkpt><trkpt lat="42.809826660895105" lon="11.80177841218886"><ele>307.0</ele><time>2026-04-25T09:42:49.998Z</time></trkpt><trkpt lat="42.8096133010584" lon="11.801906326479259"><ele>307.0</ele><time>2026-04-25T09:42:50.998Z</time></trkpt><trkpt lat="42.80939954909411" lon="11.802034498865265"><ele>307.0</ele><time>2026-04-25T09:42:51.998Z</time></trkpt><trkpt lat="42.80918507875912" lon="11.802167642717496"><ele>303.5</ele><time>2026-04-25T09:42:52.998Z</time></trkpt><trkpt lat="42.8089700602069" lon="11.802298449085983"><ele>300.0</ele><time>2026-04-25T09:42:53.998Z</time></trkpt><trkpt lat="42.808753842643156" lon="11.802426346423516"><ele>300.0</ele><time>2026-04-25T09:42:54.998Z</time></trkpt><trkpt lat="42.80853892204975" lon="11.802554241462241"><ele>300.0</ele><time>2026-04-25T09:42:55.998Z</time></trkpt><trkpt lat="42.80832484955146" lon="11.802686237345453"><ele>298.5</ele><time>2026-04-25T09:42:56.998Z</time></trkpt><trkpt lat="42.808112626294324" lon="11.802817860152361"><ele>297.0</ele><time>2026-04-25T09:42:57.998Z</time></trkpt><trkpt lat="42.807901798474624" lon="11.802946995857909"><ele>297.0</ele><time>2026-04-25T09:42:58.998Z</time></trkpt><trkpt lat="42.80769314961731" lon="11.803078018492627"><ele>297.0</ele><time>2026-04-25T09:42:59.998Z</time></trkpt><trkpt lat="42.807486789478716" lon="11.803208713511433"><ele>296.3333333333333</ele><time>2026-04-25T09:43:00.998Z</time></trkpt><trkpt lat="42.80728252995873" lon="11.803335029276198"><ele>295.66666666666663</ele><time>2026-04-25T09:43:01.998Z</time></trkpt><trkpt lat="42.80707729634901" lon="11.803454341916794"><ele>295.0</ele><time>2026-04-25T09:43:02.998Z</time></trkpt><trkpt lat="42.806873921911034" lon="11.803573253223252"><ele>294.66666666666663</ele><time>2026-04-25T09:43:03.998Z</time></trkpt><trkpt lat="42.806671833521975" lon="11.803689879561317"><ele>294.3333333333333</ele><time>2026-04-25T09:43:04.998Z</time></trkpt><trkpt lat="42.806470505499014" lon="11.803806352946893"><ele>294.0</ele><time>2026-04-25T09:43:05.998Z</time></trkpt><trkpt lat="42.8062714888343" lon="11.803925597480273"><ele>294.0</ele><time>2026-04-25T09:43:06.998Z</time></trkpt><trkpt lat="42.80607321332866" lon="11.8040465024865"><ele>294.0</ele><time>2026-04-25T09:43:07.998Z</time></trkpt><trkpt lat="42.8058777050784" lon="11.80416793350827"><ele>294.0</ele><time>2026-04-25T09:43:08.998Z</time></trkpt><trkpt lat="42.80568207386153" lon="11.80428463822226"><ele>293.6666666666667</ele><time>2026-04-25T09:43:09.998Z</time></trkpt><trkpt lat="42.80548725175064" lon="11.804400574330234"><ele>293.33333333333337</ele><time>2026-04-25T09:43:10.998Z</time></trkpt><trkpt lat="42.80529208081189" lon="11.804518151003705"><ele>293.0</ele><time>2026-04-25T09:43:11.998Z</time></trkpt><trkpt lat="42.805097405899716" lon="11.804637251734638"><ele>293.0</ele><time>2026-04-25T09:43:12.998Z</time></trkpt><trkpt lat="42.80490161835264" lon="11.804755097961834"><ele>293.0</ele><time>2026-04-25T09:43:13.998Z</time></trkpt><trkpt lat="42.80470509209835" lon="11.8048727874017"><ele>293.0</ele><time>2026-04-25T09:43:14.998Z</time></trkpt><trkpt lat="42.80450823164764" lon="11.804993781933272"><ele>292.0</ele><time>2026-04-25T09:43:15.998Z</time></trkpt><trkpt lat="42.80431325450218" lon="11.805116310513998"><ele>291.0</ele><time>2026-04-25T09:43:16.998Z</time></trkpt><trkpt lat="42.80411776814392" lon="11.805236439035719"><ele>290.0</ele><time>2026-04-25T09:43:17.998Z</time></trkpt><trkpt lat="42.80392220740229" lon="11.80535463138828"><ele>291.0</ele><time>2026-04-25T09:43:18.998Z</time></trkpt><trkpt lat="42.80372698559708" lon="11.805471176620939"><ele>292.0</ele><time>2026-04-25T09:43:19.998Z</time></trkpt><trkpt lat="42.80353266749872" lon="11.80558958316072"><ele>293.0</ele><time>2026-04-25T09:43:20.998Z</time></trkpt><trkpt lat="42.80333656140596" lon="11.80570569712535"><ele>293.0</ele><time>2026-04-25T09:43:21.998Z</time></trkpt><trkpt lat="42.80314199649643" lon="11.805825939988246"><ele>293.0</ele><time>2026-04-25T09:43:22.998Z</time></trkpt><trkpt lat="42.80294802797417" lon="11.805946542831046"><ele>293.0</ele><time>2026-04-25T09:43:23.998Z</time></trkpt><trkpt lat="42.80275377759171" lon="11.806065298981913"><ele>291.6666666666667</ele><time>2026-04-25T09:43:24.998Z</time></trkpt><trkpt lat="42.80255982548481" lon="11.806183328101884"><ele>290.3333333333333</ele><time>2026-04-25T09:43:25.998Z</time></trkpt><trkpt lat="42.802367047117976" lon="11.806306288417636"><ele>289.0</ele><time>2026-04-25T09:43:26.998Z</time></trkpt><trkpt lat="42.802173416483924" lon="11.80642766299251"><ele>289.0</ele><time>2026-04-25T09:43:27.998Z</time></trkpt><trkpt lat="42.80197765072053" lon="11.806538285156671"><ele>289.0</ele><time>2026-04-25T09:43:28.998Z</time></trkpt><trkpt lat="42.80178775848859" lon="11.806649201446927"><ele>289.0</ele><time>2026-04-25T09:43:29.998Z</time></trkpt><trkpt lat="42.80159918688036" lon="11.80677669884121"><ele>287.3333333333333</ele><time>2026-04-25T09:43:30.998Z</time></trkpt><trkpt lat="42.80141704765734" lon="11.806927883692882"><ele>285.6666666666667</ele><time>2026-04-25T09:43:31.998Z</time></trkpt><trkpt lat="42.8012429082945" lon="11.807106828895062"><ele>284.0</ele><time>2026-04-25T09:43:32.998Z</time></trkpt><trkpt lat="42.80107722176953" lon="11.80731199232945"><ele>280.5</ele><time>2026-04-25T09:43:33.998Z</time></trkpt><trkpt lat="42.80092385926861" lon="11.807538077982937"><ele>277.0</ele><time>2026-04-25T09:43:34.998Z</time></trkpt><trkpt lat="42.80078556131786" lon="11.807780689821191"><ele>276.3333333333333</ele><time>2026-04-25T09:43:35.998Z</time></trkpt><trkpt lat="42.80066634310473" lon="11.808037842315885"><ele>275.6666666666667</ele><time>2026-04-25T09:43:36.998Z</time></trkpt><trkpt lat="42.80056437486487" lon="11.808308338852475"><ele>275.0</ele><time>2026-04-25T09:43:37.998Z</time></trkpt><trkpt lat="42.800474203888975" lon="11.808579148965034"><ele>275.0</ele><time>2026-04-25T09:43:38.998Z</time></trkpt><trkpt lat="42.800390527900326" lon="11.80884095502693"><ele>275.0</ele><time>2026-04-25T09:43:39.998Z</time></trkpt><trkpt lat="42.800306134967634" lon="11.809097961585312"><ele>275.0</ele><time>2026-04-25T09:43:40.998Z</time></trkpt><trkpt lat="42.800220067417584" lon="11.809353959899136"><ele>275.33333333333337</ele><time>2026-04-25T09:43:41.998Z</time></trkpt><trkpt lat="42.80013486148408" lon="11.809608714102803"><ele>275.6666666666667</ele><time>2026-04-25T09:43:42.997Z</time></trkpt><trkpt lat="42.8000480404298" lon="11.80986178228939"><ele>276.0</ele><time>2026-04-25T09:43:43.997Z</time></trkpt><trkpt lat="42.799959872331165" lon="11.810114898491866"><ele>276.0</ele><time>2026-04-25T09:43:44.997Z</time></trkpt><trkpt lat="42.799873231916074" lon="11.81036946237029"><ele>276.0</ele><time>2026-04-25T09:43:45.997Z</time></trkpt><trkpt lat="42.79978719511955" lon="11.810627889821461"><ele>276.0</ele><time>2026-04-25T09:43:46.997Z</time></trkpt><trkpt lat="42.799701402972495" lon="11.810887138949772"><ele>276.0</ele><time>2026-04-25T09:43:47.997Z</time></trkpt><trkpt lat="42.799614831253" lon="11.811146130131082"><ele>276.0</ele><time>2026-04-25T09:43:48.997Z</time></trkpt><trkpt lat="42.799529821311125" lon="11.811402191718058"><ele>276.0</ele><time>2026-04-25T09:43:49.997Z</time></trkpt><trkpt lat="42.79944774639935" lon="11.811652522503374"><ele>280.3333333333333</ele><time>2026-04-25T09:43:50.997Z</time></trkpt><trkpt lat="42.79936726806858" lon="11.811889456965117"><ele>284.66666666666663</ele><time>2026-04-25T09:43:51.997Z</time></trkpt><trkpt lat="42.799279435647406" lon="11.812099056754095"><ele>289.0</ele><time>2026-04-25T09:43:52.997Z</time></trkpt><trkpt lat="42.79916549544822" lon="11.81227993523959"><ele>289.0</ele><time>2026-04-25T09:43:53.997Z</time></trkpt><trkpt lat="42.799031414233916" lon="11.81244741699123"><ele>289.0</ele><time>2026-04-25T09:43:54.997Z</time></trkpt><trkpt lat="42.79888943013784" lon="11.81259167510599"><ele>289.0</ele><time>2026-04-25T09:43:55.999Z</time></trkpt><trkpt lat="42.798745786814045" lon="11.812701215935736"><ele>289.66666666666663</ele><time>2026-04-25T09:43:56.999Z</time></trkpt><trkpt lat="42.79859722902171" lon="11.812818736881777"><ele>290.3333333333333</ele><time>2026-04-25T09:43:57.999Z</time></trkpt><trkpt lat="42.798448242454015" lon="11.812946477061244"><ele>291.0</ele><time>2026-04-25T09:43:58.999Z</time></trkpt><trkpt lat="42.798296514508706" lon="11.813071225858788"><ele>289.6666666666667</ele><time>2026-04-25T09:43:59.999Z</time></trkpt><trkpt lat="42.798152144737124" lon="11.813191300319431"><ele>288.33333333333337</ele><time>2026-04-25T09:44:00.999Z</time></trkpt><trkpt lat="42.79801915839962" lon="11.813304348428266"><ele>287.0</ele><time>2026-04-25T09:44:01.999Z</time></trkpt><trkpt lat="42.797888601200555" lon="11.813419482076984"><ele>287.0</ele><time>2026-04-25T09:44:02.999Z</time></trkpt><trkpt lat="42.797752354873886" lon="11.813538284589349"><ele>287.0</ele><time>2026-04-25T09:44:03.999Z</time></trkpt><trkpt lat="42.79760904250602" lon="11.813663496057965"><ele>287.0</ele><time>2026-04-25T09:44:04.999Z</time></trkpt><trkpt lat="42.79745472755006" lon="11.813795398090784"><ele>287.0</ele><time>2026-04-25T09:44:05.999Z</time></trkpt><trkpt lat="42.797295050478446" lon="11.813925775803275"><ele>287.0</ele><time>2026-04-25T09:44:06.999Z</time></trkpt><trkpt lat="42.79713842635664" lon="11.814055708284364"><ele>287.0</ele><time>2026-04-25T09:44:07.999Z</time></trkpt><trkpt lat="42.79698538539435" lon="11.814192824307682"><ele>287.0</ele><time>2026-04-25T09:44:08.999Z</time></trkpt><trkpt lat="42.79683017891635" lon="11.814330947006026"><ele>287.0</ele><time>2026-04-25T09:44:09.999Z</time></trkpt><trkpt lat="42.796678329821844" lon="11.814459694604036"><ele>287.0</ele><time>2026-04-25T09:44:10.999Z</time></trkpt><trkpt lat="42.79653187669005" lon="11.814586080046634"><ele>287.0</ele><time>2026-04-25T09:44:11.999Z</time></trkpt><trkpt lat="42.79638134499674" lon="11.814717506714704"><ele>287.0</ele><time>2026-04-25T09:44:12.999Z</time></trkpt><trkpt lat="42.796232592068606" lon="11.814849343654465"><ele>287.0</ele><time>2026-04-25T09:44:13.999Z</time></trkpt><trkpt lat="42.79609121267994" lon="11.81497077562921"><ele>286.6666666666667</ele><time>2026-04-25T09:44:14.999Z</time></trkpt><trkpt lat="42.795954277511264" lon="11.815088494511908"><ele>286.3333333333333</ele><time>2026-04-25T09:44:15.999Z</time></trkpt><trkpt lat="42.79582427236449" lon="11.815202708336018"><ele>286.0</ele><time>2026-04-25T09:44:16.999Z</time></trkpt><trkpt lat="42.79570072773646" lon="11.815320015326796"><ele>286.0</ele><time>2026-04-25T09:44:17.999Z</time></trkpt><trkpt lat="42.79558604066828" lon="11.815436397885618"><ele>286.0</ele><time>2026-04-25T09:44:18.999Z</time></trkpt><trkpt lat="42.79547959154424" lon="11.815545454261692"><ele>286.0</ele><time>2026-04-25T09:44:19.999Z</time></trkpt><trkpt lat="42.795370254106025" lon="11.815657513625004"><ele>286.0</ele><time>2026-04-25T09:44:20.999Z</time></trkpt><trkpt lat="42.79525477309647" lon="11.815786051834575"><ele>285.3333333333333</ele><time>2026-04-25T09:44:21.999Z</time></trkpt><trkpt lat="42.795133355326946" lon="11.815932035603675"><ele>284.6666666666667</ele><time>2026-04-25T09:44:22.999Z</time></trkpt><trkpt lat="42.79500361817722" lon="11.816091930206529"><ele>284.0</ele><time>2026-04-25T09:44:23.999Z</time></trkpt><trkpt lat="42.79486512576965" lon="11.816260636376807"><ele>284.0</ele><time>2026-04-25T09:44:24.999Z</time></trkpt><trkpt lat="42.79472639396744" lon="11.816441401483475"><ele>284.0</ele><time>2026-04-25T09:44:25.999Z</time></trkpt><trkpt lat="42.79458814590328" lon="11.816635283760949"><ele>284.0</ele><time>2026-04-25T09:44:26.999Z</time></trkpt><trkpt lat="42.79446045475914" lon="11.81682526553033"><ele>283.6666666666667</ele><time>2026-04-25T09:44:27.999Z</time></trkpt><trkpt lat="42.79433650017204" lon="11.81701966105646"><ele>283.3333333333333</ele><time>2026-04-25T09:44:28.999Z</time></trkpt><trkpt lat="42.79420953102299" lon="11.817219661340882"><ele>283.0</ele><time>2026-04-25T09:44:29.999Z</time></trkpt><trkpt lat="42.794083531703464" lon="11.817420960677609"><ele>283.0</ele><time>2026-04-25T09:44:30.999Z</time></trkpt><trkpt lat="42.79396094307018" lon="11.817625261621544"><ele>283.0</ele><time>2026-04-25T09:44:31.999Z</time></trkpt><trkpt lat="42.79383786678087" lon="11.817824271289426"><ele>283.0</ele><time>2026-04-25T09:44:32.999Z</time></trkpt><trkpt lat="42.79371853259159" lon="11.818011894818122"><ele>282.66666666666663</ele><time>2026-04-25T09:44:33.999Z</time></trkpt><trkpt lat="42.79360366512316" lon="11.818190865592886"><ele>282.3333333333333</ele><time>2026-04-25T09:44:34.999Z</time></trkpt><trkpt lat="42.79348586359857" lon="11.818365088771323"><ele>282.0</ele><time>2026-04-25T09:44:35.999Z</time></trkpt><trkpt lat="42.793365288129344" lon="11.818530971582117"><ele>283.6666666666667</ele><time>2026-04-25T09:44:36.999Z</time></trkpt><trkpt lat="42.79324373520029" lon="11.818682918368788"><ele>285.33333333333337</ele><time>2026-04-25T09:44:37.999Z</time></trkpt><trkpt lat="42.793122320565004" lon="11.81882049145104"><ele>287.0</ele><time>2026-04-25T09:44:38.999Z</time></trkpt><trkpt lat="42.792998208373106" lon="11.818950185039455"><ele>287.0</ele><time>2026-04-25T09:44:39.999Z</time></trkpt><trkpt lat="42.79287095767719" lon="11.819081817951442"><ele>287.0</ele><time>2026-04-25T09:44:40.999Z</time></trkpt><trkpt lat="42.792737976847036" lon="11.819217359472391"><ele>287.0</ele><time>2026-04-25T09:44:41.999Z</time></trkpt><trkpt lat="42.79260082062248" lon="11.819358270452428"><ele>285.6666666666667</ele><time>2026-04-25T09:44:42.999Z</time></trkpt><trkpt lat="42.792455970501486" lon="11.81950483480346"><ele>284.3333333333333</ele><time>2026-04-25T09:44:43.999Z</time></trkpt><trkpt lat="42.79231207182077" lon="11.819652035444497"><ele>283.0</ele><time>2026-04-25T09:44:44.999Z</time></trkpt><trkpt lat="42.792168924268225" lon="11.819797718916403"><ele>283.0</ele><time>2026-04-25T09:44:45.999Z</time></trkpt><trkpt lat="42.79202564929481" lon="11.819939849570689"><ele>283.0</ele><time>2026-04-25T09:44:46.999Z</time></trkpt><trkpt lat="42.79188477182009" lon="11.820081998582731"><ele>283.0</ele><time>2026-04-25T09:44:47.999Z</time></trkpt><trkpt lat="42.79174690710236" lon="11.820233849500905"><ele>281.3333333333333</ele><time>2026-04-25T09:44:48.999Z</time></trkpt><trkpt lat="42.791608619703716" lon="11.82037789975157"><ele>279.6666666666667</ele><time>2026-04-25T09:44:49.999Z</time></trkpt><trkpt lat="42.791472697100176" lon="11.820510875288823"><ele>278.0</ele><time>2026-04-25T09:44:50.999Z</time></trkpt><trkpt lat="42.79133605940562" lon="11.820642195358982"><ele>278.0</ele><time>2026-04-25T09:44:51.999Z</time></trkpt><trkpt lat="42.79120394821368" lon="11.82078631527873"><ele>278.0</ele><time>2026-04-25T09:44:52.999Z</time></trkpt><trkpt lat="42.79107303522222" lon="11.820938344655145"><ele>278.0</ele><time>2026-04-25T09:44:53.999Z</time></trkpt><trkpt lat="42.790944907485816" lon="11.821100191807423"><ele>276.0</ele><time>2026-04-25T09:44:54.999Z</time></trkpt><trkpt lat="42.79082129777514" lon="11.821270564233604"><ele>274.0</ele><time>2026-04-25T09:44:55.999Z</time></trkpt><trkpt lat="42.79069603060918" lon="11.82144366036235"><ele>272.0</ele><time>2026-04-25T09:44:56.999Z</time></trkpt><trkpt lat="42.79057187686345" lon="11.8216168408207"><ele>272.0</ele><time>2026-04-25T09:44:57.999Z</time></trkpt><trkpt lat="42.79044890219724" lon="11.821791683036247"><ele>272.0</ele><time>2026-04-25T09:44:58.999Z</time></trkpt><trkpt lat="42.79032726495896" lon="11.821970330912253"><ele>272.0</ele><time>2026-04-25T09:44:59.999Z</time></trkpt><trkpt lat="42.79020379561491" lon="11.822148575914907"><ele>272.33333333333337</ele><time>2026-04-25T09:45:00.999Z</time></trkpt><trkpt lat="42.790080706322755" lon="11.822324867839855"><ele>272.6666666666667</ele><time>2026-04-25T09:45:01.999Z</time></trkpt><trkpt lat="42.789956352383044" lon="11.822498514833061"><ele>273.0</ele><time>2026-04-25T09:45:02.999Z</time></trkpt><trkpt lat="42.78983207436847" lon="11.822671865359455"><ele>274.3333333333333</ele><time>2026-04-25T09:45:03.999Z</time></trkpt><trkpt lat="42.78970403178853" lon="11.82284140839642"><ele>275.66666666666663</ele><time>2026-04-25T09:45:04.999Z</time></trkpt><trkpt lat="42.78957353945964" lon="11.82300921379124"><ele>277.0</ele><time>2026-04-25T09:45:05.999Z</time></trkpt><trkpt lat="42.789441875783865" lon="11.823178441401446"><ele>275.3333333333333</ele><time>2026-04-25T09:45:06.999Z</time></trkpt><trkpt lat="42.78930513032522" lon="11.823341254502283"><ele>273.6666666666667</ele><time>2026-04-25T09:45:07.998Z</time></trkpt><trkpt lat="42.789171578475504" lon="11.823510120608804"><ele>272.0</ele><time>2026-04-25T09:45:08.998Z</time></trkpt><trkpt lat="42.78903969225063" lon="11.823683436733512"><ele>272.0</ele><time>2026-04-25T09:45:09.998Z</time></trkpt><trkpt lat="42.78890424534058" lon="11.823852941697673"><ele>272.0</ele><time>2026-04-25T09:45:10.998Z</time></trkpt><trkpt lat="42.78877064406076" lon="11.824024703166112"><ele>272.0</ele><time>2026-04-25T09:45:11.998Z</time></trkpt><trkpt lat="42.7886377736694" lon="11.824197339011363"><ele>272.33333333333337</ele><time>2026-04-25T09:45:12.998Z</time></trkpt><trkpt lat="42.7885021917288" lon="11.824367725506907"><ele>272.6666666666667</ele><time>2026-04-25T09:45:13.998Z</time></trkpt><trkpt lat="42.788368440438184" lon="11.824537064866929"><ele>273.0</ele><time>2026-04-25T09:45:14.998Z</time></trkpt><trkpt lat="42.788236596682495" lon="11.824704534825528"><ele>273.0</ele><time>2026-04-25T09:45:15.998Z</time></trkpt><trkpt lat="42.78810547636705" lon="11.824870335204855"><ele>273.0</ele><time>2026-04-25T09:45:16.998Z</time></trkpt><trkpt lat="42.787974551992235" lon="11.825035809877074"><ele>273.0</ele><time>2026-04-25T09:45:17.998Z</time></trkpt><trkpt lat="42.78784530688011" lon="11.825199288915758"><ele>273.3333333333333</ele><time>2026-04-25T09:45:18.998Z</time></trkpt><trkpt lat="42.787718182776196" lon="11.825362882351197"><ele>273.66666666666663</ele><time>2026-04-25T09:45:19.998Z</time></trkpt><trkpt lat="42.787590532018086" lon="11.82552910385588"><ele>274.0</ele><time>2026-04-25T09:45:20.998Z</time></trkpt><trkpt lat="42.78746113579363" lon="11.825701737854404"><ele>274.0</ele><time>2026-04-25T09:45:21.998Z</time></trkpt><trkpt lat="42.78733944524211" lon="11.825883212679614"><ele>274.0</ele><time>2026-04-25T09:45:22.998Z</time></trkpt><trkpt lat="42.78721912886052" lon="11.826069442080552"><ele>274.0</ele><time>2026-04-25T09:45:23.998Z</time></trkpt><trkpt lat="42.78710270746183" lon="11.826262430303286"><ele>274.66666666666663</ele><time>2026-04-25T09:45:24.998Z</time></trkpt><trkpt lat="42.78698629084171" lon="11.82645926748746"><ele>275.3333333333333</ele><time>2026-04-25T09:45:25.998Z</time></trkpt><trkpt lat="42.786872283063694" lon="11.826662223095152"><ele>276.0</ele><time>2026-04-25T09:45:26.998Z</time></trkpt><trkpt lat="42.78676513410516" lon="11.826867181022955"><ele>273.6666666666667</ele><time>2026-04-25T09:45:27.998Z</time></trkpt><trkpt lat="42.786663204279336" lon="11.827076212123812"><ele>271.33333333333337</ele><time>2026-04-25T09:45:28.998Z</time></trkpt><trkpt lat="42.78655850760264" lon="11.827284284211276"><ele>269.0</ele><time>2026-04-25T09:45:29.998Z</time></trkpt><trkpt lat="42.7864513854921" lon="11.827490927224739"><ele>270.6666666666667</ele><time>2026-04-25T09:45:30.998Z</time></trkpt><trkpt lat="42.78634201684953" lon="11.827695559312184"><ele>272.3333333333333</ele><time>2026-04-25T09:45:31.998Z</time></trkpt><trkpt lat="42.786230981394326" lon="11.827896485758465"><ele>274.0</ele><time>2026-04-25T09:45:32.998Z</time></trkpt><trkpt lat="42.786118464588704" lon="11.828097454589532"><ele>272.0</ele><time>2026-04-25T09:45:33.998Z</time></trkpt><trkpt lat="42.78600301104991" lon="11.828298369408309"><ele>270.0</ele><time>2026-04-25T09:45:34.998Z</time></trkpt><trkpt lat="42.785881429539295" lon="11.82849657498459"><ele>268.0</ele><time>2026-04-25T09:45:35.998Z</time></trkpt><trkpt lat="42.78575927165393" lon="11.828694740891162"><ele>267.3333333333333</ele><time>2026-04-25T09:45:36.998Z</time></trkpt><trkpt lat="42.785634903334376" lon="11.828893249066983"><ele>266.6666666666667</ele><time>2026-04-25T09:45:37.998Z</time></trkpt><trkpt lat="42.78550611242323" lon="11.829090108169511"><ele>266.0</ele><time>2026-04-25T09:45:38.998Z</time></trkpt><trkpt lat="42.78537961947304" lon="11.829290544642793"><ele>267.0</ele><time>2026-04-25T09:45:39.998Z</time></trkpt><trkpt lat="42.78525361824346" lon="11.829493484611909"><ele>268.0</ele><time>2026-04-25T09:45:40.998Z</time></trkpt><trkpt lat="42.78512636617718" lon="11.829697125363138"><ele>269.0</ele><time>2026-04-25T09:45:41.998Z</time></trkpt><trkpt lat="42.78499956325179" lon="11.829902081867429"><ele>269.33333333333337</ele><time>2026-04-25T09:45:42.998Z</time></trkpt><trkpt lat="42.78487327063193" lon="11.830104677149105"><ele>269.6666666666667</ele><time>2026-04-25T09:45:43.998Z</time></trkpt><trkpt lat="42.784745763673754" lon="11.830305084023477"><ele>270.0</ele><time>2026-04-25T09:45:44.998Z</time></trkpt><trkpt lat="42.784618470270125" lon="11.830500582329925"><ele>270.0</ele><time>2026-04-25T09:45:45.998Z</time></trkpt><trkpt lat="42.7844925349855" lon="11.830692069127755"><ele>270.0</ele><time>2026-04-25T09:45:46.998Z</time></trkpt><trkpt lat="42.784367539860085" lon="11.830882249896316"><ele>270.0</ele><time>2026-04-25T09:45:47.998Z</time></trkpt><trkpt lat="42.7842441356865" lon="11.831074244216413"><ele>269.3333333333333</ele><time>2026-04-25T09:45:48.998Z</time></trkpt><trkpt lat="42.784122972929154" lon="11.831267773308884"><ele>268.66666666666663</ele><time>2026-04-25T09:45:49.998Z</time></trkpt><trkpt lat="42.78399716286911" lon="11.831454007134633"><ele>268.0</ele><time>2026-04-25T09:45:50.998Z</time></trkpt><trkpt lat="42.78386264014189" lon="11.83162251335508"><ele>268.0</ele><time>2026-04-25T09:45:51.998Z</time></trkpt><trkpt lat="42.7837157259097" lon="11.83176881798765"><ele>268.0</ele><time>2026-04-25T09:45:52.998Z</time></trkpt><trkpt lat="42.78355691540803" lon="11.831886875362716"><ele>268.0</ele><time>2026-04-25T09:45:53.998Z</time></trkpt><trkpt lat="42.783389303814594" lon="11.831986242376344"><ele>269.0</ele><time>2026-04-25T09:45:54.998Z</time></trkpt><trkpt lat="42.78321605662949" lon="11.832076399682315"><ele>270.0</ele><time>2026-04-25T09:45:55.998Z</time></trkpt><trkpt lat="42.78303965249397" lon="11.832159102364066"><ele>271.0</ele><time>2026-04-25T09:45:56.998Z</time></trkpt><trkpt lat="42.782864457957366" lon="11.832239074226216"><ele>271.0</ele><time>2026-04-25T09:45:57.998Z</time></trkpt><trkpt lat="42.78270465979477" lon="11.832314738257447"><ele>271.0</ele><time>2026-04-25T09:45:58.998Z</time></trkpt><trkpt lat="42.78257269614357" lon="11.832380320945047"><ele>271.0</ele><time>2026-04-25T09:45:59.998Z</time></trkpt><trkpt lat="42.78246305958931" lon="11.832428972240612"><ele>271.0</ele><time>2026-04-25T09:46:01Z</time></trkpt><trkpt lat="42.78238020122792" lon="11.832459325210403"><ele>270.8</ele><time>2026-04-25T09:46:02Z</time></trkpt><trkpt lat="42.78228670151343" lon="11.832484768926598"><ele>270.6</ele><time>2026-04-25T09:46:04Z</time></trkpt><trkpt lat="42.78220998053245" lon="11.832490633911766"><ele>270.4</ele><time>2026-04-25T09:46:07Z</time></trkpt><trkpt lat="42.78215156530997" lon="11.83259249848737"><ele>270.2</ele><time>2026-04-25T09:56:53.999Z</time></trkpt><trkpt lat="42.78202960814206" lon="11.832702772854695"><ele>270.0</ele><time>2026-04-25T09:56:55.999Z</time></trkpt><trkpt lat="42.78195370644081" lon="11.832757282752477"><ele>270.0</ele><time>2026-04-25T09:56:56.999Z</time></trkpt><trkpt lat="42.78187417420452" lon="11.832820006020647"><ele>270.0</ele><time>2026-04-25T09:56:57.999Z</time></trkpt><trkpt lat="42.7817903474138" lon="11.832905898607438"><ele>270.0</ele><time>2026-04-25T09:56:58.999Z</time></trkpt><trkpt lat="42.78170173397545" lon="11.832999932124254"><ele>270.0</ele><time>2026-04-25T09:56:59.999Z</time></trkpt><trkpt lat="42.781607250140205" lon="11.833112373377329"><ele>270.0</ele><time>2026-04-25T09:57:00.999Z</time></trkpt><trkpt lat="42.78152092675947" lon="11.83324815086677"><ele>268.3333333333333</ele><time>2026-04-25T09:57:01.999Z</time></trkpt><trkpt lat="42.78143439377653" lon="11.833407791733533"><ele>266.66666666666663</ele><time>2026-04-25T09:57:02.999Z</time></trkpt><trkpt lat="42.78134993511116" lon="11.83359065273491"><ele>265.0</ele><time>2026-04-25T09:57:03.999Z</time></trkpt><trkpt lat="42.78126961925721" lon="11.83378138516913"><ele>265.0</ele><time>2026-04-25T09:57:04.999Z</time></trkpt><trkpt lat="42.78118270976088" lon="11.833985181288416"><ele>265.0</ele><time>2026-04-25T09:57:05.999Z</time></trkpt><trkpt lat="42.78109254122278" lon="11.83419434807638"><ele>265.0</ele><time>2026-04-25T09:57:06.999Z</time></trkpt><trkpt lat="42.780990665576454" lon="11.834418207476643"><ele>264.3333333333333</ele><time>2026-04-25T09:57:07.999Z</time></trkpt><trkpt lat="42.78088578099901" lon="11.834655680099374"><ele>263.6666666666667</ele><time>2026-04-25T09:57:08.999Z</time></trkpt><trkpt lat="42.78078055342022" lon="11.834882088726388"><ele>263.0</ele><time>2026-04-25T09:57:09.999Z</time></trkpt><trkpt lat="42.78067171922294" lon="11.835112637714658"><ele>264.0</ele><time>2026-04-25T09:57:10.999Z</time></trkpt><trkpt lat="42.78054814422118" lon="11.835331156202924"><ele>265.0</ele><time>2026-04-25T09:57:11.999Z</time></trkpt><trkpt lat="42.780422006393366" lon="11.835551371418493"><ele>266.0</ele><time>2026-04-25T09:57:12.999Z</time></trkpt><trkpt lat="42.78029427974046" lon="11.835775746193756"><ele>264.6666666666667</ele><time>2026-04-25T09:57:13.999Z</time></trkpt><trkpt lat="42.780162788339865" lon="11.83600136286216"><ele>263.3333333333333</ele><time>2026-04-25T09:57:14.999Z</time></trkpt><trkpt lat="42.78002495092916" lon="11.83622929763208"><ele>262.0</ele><time>2026-04-25T09:57:15.999Z</time></trkpt><trkpt lat="42.77988915281508" lon="11.836462455577319"><ele>262.0</ele><time>2026-04-25T09:57:16.999Z</time></trkpt><trkpt lat="42.77975156564571" lon="11.836703258365372"><ele>262.0</ele><time>2026-04-25T09:57:17.999Z</time></trkpt><trkpt lat="42.77961553398252" lon="11.836941474572628"><ele>262.0</ele><time>2026-04-25T09:57:18.999Z</time></trkpt><trkpt lat="42.77947420633873" lon="11.837184046894887"><ele>261.0</ele><time>2026-04-25T09:57:19.999Z</time></trkpt><trkpt lat="42.77933205996077" lon="11.837425973352705"><ele>260.0</ele><time>2026-04-25T09:57:20.999Z</time></trkpt><trkpt lat="42.779186072073934" lon="11.837671024807609"><ele>260.0</ele><time>2026-04-25T09:57:21.999Z</time></trkpt><trkpt lat="42.779040985133314" lon="11.837919900862852"><ele>260.0</ele><time>2026-04-25T09:57:22.999Z</time></trkpt><trkpt lat="42.778896108347624" lon="11.83817160346001"><ele>260.0</ele><time>2026-04-25T09:57:23.999Z</time></trkpt><trkpt lat="42.77874990048047" lon="11.83842105232375"><ele>260.0</ele><time>2026-04-25T09:57:24.999Z</time></trkpt><trkpt lat="42.77860560906783" lon="11.838665445644201"><ele>260.0</ele><time>2026-04-25T09:57:25.999Z</time></trkpt><trkpt lat="42.77846486330885" lon="11.838907451836036"><ele>260.0</ele><time>2026-04-25T09:57:26.999Z</time></trkpt><trkpt lat="42.778325681056884" lon="11.839147287830727"><ele>261.0</ele><time>2026-04-25T09:57:27.999Z</time></trkpt><trkpt lat="42.77818875808836" lon="11.8393843453704"><ele>262.0</ele><time>2026-04-25T09:57:28.999Z</time></trkpt><trkpt lat="42.778054923339965" lon="11.839617873158518"><ele>263.0</ele><time>2026-04-25T09:57:29.999Z</time></trkpt><trkpt lat="42.777924816340345" lon="11.839846598666954"><ele>263.0</ele><time>2026-04-25T09:57:30.999Z</time></trkpt><trkpt lat="42.77779925054167" lon="11.840075296005196"><ele>263.0</ele><time>2026-04-25T09:57:31.999Z</time></trkpt><trkpt lat="42.77768541393874" lon="11.840301327319638"><ele>263.0</ele><time>2026-04-25T09:57:32.999Z</time></trkpt><trkpt lat="42.777572799825975" lon="11.840525826414195"><ele>263.0</ele><time>2026-04-25T09:57:33.999Z</time></trkpt><trkpt lat="42.77746006758309" lon="11.840744677479384"><ele>263.0</ele><time>2026-04-25T09:57:34.999Z</time></trkpt><trkpt lat="42.777345299346536" lon="11.840951463658879"><ele>263.0</ele><time>2026-04-25T09:57:35.999Z</time></trkpt><trkpt lat="42.777239371412996" lon="11.841166250787984"><ele>264.0</ele><time>2026-04-25T09:57:36.999Z</time></trkpt><trkpt lat="42.777132148885066" lon="11.841384175831775"><ele>265.0</ele><time>2026-04-25T09:57:37.999Z</time></trkpt><trkpt lat="42.77700646909626" lon="11.841591172202014"><ele>266.0</ele><time>2026-04-25T09:57:38.999Z</time></trkpt><trkpt lat="42.7768936040662" lon="11.841811170470441"><ele>265.0</ele><time>2026-04-25T09:57:39.999Z</time></trkpt><trkpt lat="42.77677703443316" lon="11.842037435711108"><ele>264.0</ele><time>2026-04-25T09:57:40.999Z</time></trkpt><trkpt lat="42.77665492043067" lon="11.84227348478861"><ele>263.0</ele><time>2026-04-25T09:57:41.999Z</time></trkpt><trkpt lat="42.776530019602724" lon="11.842514920866229"><ele>263.33333333333337</ele><time>2026-04-25T09:57:42.999Z</time></trkpt><trkpt lat="42.776405897188184" lon="11.842754229238142"><ele>263.6666666666667</ele><time>2026-04-25T09:57:43.999Z</time></trkpt><trkpt lat="42.77628578691806" lon="11.842985267554612"><ele>264.0</ele><time>2026-04-25T09:57:44.999Z</time></trkpt><trkpt lat="42.776183138424564" lon="11.84321692609046"><ele>264.0</ele><time>2026-04-25T09:57:45.999Z</time></trkpt><trkpt lat="42.77607318704133" lon="11.843419775554205"><ele>264.0</ele><time>2026-04-25T09:57:46.999Z</time></trkpt><trkpt lat="42.77596705274834" lon="11.843622367374687"><ele>264.0</ele><time>2026-04-25T09:57:47.999Z</time></trkpt><trkpt lat="42.7758647606092" lon="11.84382702773931"><ele>263.6666666666667</ele><time>2026-04-25T09:57:48.999Z</time></trkpt><trkpt lat="42.77576412554435" lon="11.844033875528261"><ele>263.33333333333337</ele><time>2026-04-25T09:57:49.999Z</time></trkpt><trkpt lat="42.775669115984215" lon="11.844243292078652"><ele>263.0</ele><time>2026-04-25T09:57:50.999Z</time></trkpt><trkpt lat="42.7755812271307" lon="11.844463024175257"><ele>263.6666666666667</ele><time>2026-04-25T09:57:51.999Z</time></trkpt><trkpt lat="42.77550210645645" lon="11.844684719516016"><ele>264.3333333333333</ele><time>2026-04-25T09:57:52.999Z</time></trkpt><trkpt lat="42.775430040471775" lon="11.844911129859323"><ele>265.0</ele><time>2026-04-25T09:57:53.999Z</time></trkpt><trkpt lat="42.77535957765074" lon="11.845164415056338"><ele>265.0</ele><time>2026-04-25T09:57:54.999Z</time></trkpt><trkpt lat="42.77529922133385" lon="11.84544456976365"><ele>265.0</ele><time>2026-04-25T09:57:55.998Z</time></trkpt><trkpt lat="42.77521784130203" lon="11.845734434918334"><ele>265.0</ele><time>2026-04-25T09:57:56.998Z</time></trkpt><trkpt lat="42.77515562528876" lon="11.84604364495411"><ele>265.0</ele><time>2026-04-25T09:57:57.998Z</time></trkpt><trkpt lat="42.775097240274505" lon="11.846336068516813"><ele>265.0</ele><time>2026-04-25T09:57:58.998Z</time></trkpt><trkpt lat="42.77504440262629" lon="11.846599305818849"><ele>265.0</ele><time>2026-04-25T09:57:59.998Z</time></trkpt><trkpt lat="42.77499475135147" lon="11.846837689246858"><ele>265.66666666666663</ele><time>2026-04-25T09:58:00.998Z</time></trkpt><trkpt lat="42.77494431234845" lon="11.847061076708803"><ele>266.3333333333333</ele><time>2026-04-25T09:58:01.998Z</time></trkpt><trkpt lat="42.77489809367236" lon="11.847282637136612"><ele>267.0</ele><time>2026-04-25T09:58:02.998Z</time></trkpt><trkpt lat="42.77481967956603" lon="11.847488860028767"><ele>268.6666666666667</ele><time>2026-04-25T09:58:03.998Z</time></trkpt><trkpt lat="42.77473492846004" lon="11.847679021576528"><ele>270.33333333333337</ele><time>2026-04-25T09:58:04.998Z</time></trkpt><trkpt lat="42.774644687224615" lon="11.847857517505085"><ele>272.0</ele><time>2026-04-25T09:58:05.998Z</time></trkpt><trkpt lat="42.77454375584858" lon="11.848034554050498"><ele>272.0</ele><time>2026-04-25T09:58:06.998Z</time></trkpt><trkpt lat="42.77442945526507" lon="11.848210007234943"><ele>272.0</ele><time>2026-04-25T09:58:07.998Z</time></trkpt><trkpt lat="42.77431015251524" lon="11.848375231045281"><ele>272.0</ele><time>2026-04-25T09:58:08.998Z</time></trkpt><trkpt lat="42.77418344880151" lon="11.848545269776988"><ele>271.33333333333337</ele><time>2026-04-25T09:58:09.998Z</time></trkpt><trkpt lat="42.77405008348586" lon="11.848727442455264"><ele>270.6666666666667</ele><time>2026-04-25T09:58:10.998Z</time></trkpt><trkpt lat="42.77389838817674" lon="11.848914270673918"><ele>270.0</ele><time>2026-04-25T09:58:11.998Z</time></trkpt><trkpt lat="42.773743017892144" lon="11.84912790174666"><ele>271.0</ele><time>2026-04-25T09:58:12.998Z</time></trkpt><trkpt lat="42.77357882292251" lon="11.849353692218271"><ele>272.0</ele><time>2026-04-25T09:58:13.998Z</time></trkpt><trkpt lat="42.7734223604019" lon="11.849595591522348"><ele>269.5</ele><time>2026-04-25T09:58:14.998Z</time></trkpt><trkpt lat="42.773248833975906" lon="11.849803184540265"><ele>267.0</ele><time>2026-04-25T09:58:15.998Z</time></trkpt><trkpt lat="42.77307906807316" lon="11.850035364797275"><ele>269.5</ele><time>2026-04-25T09:58:16.998Z</time></trkpt><trkpt lat="42.7729116748712" lon="11.850279448147019"><ele>272.0</ele><time>2026-04-25T09:58:17.998Z</time></trkpt><trkpt lat="42.7727438624067" lon="11.850510960711778"><ele>270.0</ele><time>2026-04-25T09:58:18.998Z</time></trkpt><trkpt lat="42.77257774768668" lon="11.850733282885361"><ele>268.0</ele><time>2026-04-25T09:58:19.998Z</time></trkpt><trkpt lat="42.77241570133642" lon="11.850951416496608"><ele>269.66666666666663</ele><time>2026-04-25T09:58:20.998Z</time></trkpt><trkpt lat="42.772262846721155" lon="11.851159323230359"><ele>271.3333333333333</ele><time>2026-04-25T09:58:21.998Z</time></trkpt><trkpt lat="42.772113849949356" lon="11.851363697166686"><ele>273.0</ele><time>2026-04-25T09:58:22.998Z</time></trkpt><trkpt lat="42.77197129165325" lon="11.851556721263604"><ele>270.6666666666667</ele><time>2026-04-25T09:58:23.998Z</time></trkpt><trkpt lat="42.771835782368015" lon="11.851740831979361"><ele>268.33333333333337</ele><time>2026-04-25T09:58:24.998Z</time></trkpt><trkpt lat="42.77171428485228" lon="11.851925327351001"><ele>266.0</ele><time>2026-04-25T09:58:25.998Z</time></trkpt><trkpt lat="42.771616467215075" lon="11.852140210046528"><ele>266.0</ele><time>2026-04-25T09:58:26.998Z</time></trkpt><trkpt lat="42.771541031701744" lon="11.8523839483313"><ele>266.0</ele><time>2026-04-25T09:58:27.998Z</time></trkpt><trkpt lat="42.771485482428325" lon="11.85265277885074"><ele>266.0</ele><time>2026-04-25T09:58:28.998Z</time></trkpt><trkpt lat="42.771442416105224" lon="11.852941992387183"><ele>265.0</ele><time>2026-04-25T09:58:29.998Z</time></trkpt><trkpt lat="42.77140220712055" lon="11.853250101659173"><ele>264.0</ele><time>2026-04-25T09:58:30.998Z</time></trkpt><trkpt lat="42.771357480142136" lon="11.853564709421034"><ele>264.0</ele><time>2026-04-25T09:58:31.998Z</time></trkpt><trkpt lat="42.77131645888554" lon="11.85387009917598"><ele>264.0</ele><time>2026-04-25T09:58:32.998Z</time></trkpt><trkpt lat="42.771277581299735" lon="11.854151246010508"><ele>264.0</ele><time>2026-04-25T09:58:33.998Z</time></trkpt><trkpt lat="42.77124182535465" lon="11.85440671939428"><ele>264.3333333333333</ele><time>2026-04-25T09:58:34.998Z</time></trkpt><trkpt lat="42.77120118104064" lon="11.854639940891742"><ele>264.66666666666663</ele><time>2026-04-25T09:58:36Z</time></trkpt><trkpt lat="42.77113733688791" lon="11.85484817330799"><ele>265.0</ele><time>2026-04-25T09:58:37Z</time></trkpt><trkpt lat="42.77104488980292" lon="11.855035729436253"><ele>263.66666666666663</ele><time>2026-04-25T09:58:38Z</time></trkpt><trkpt lat="42.77091036848434" lon="11.855191355228209"><ele>262.3333333333333</ele><time>2026-04-25T09:58:39Z</time></trkpt><trkpt lat="42.77077156542813" lon="11.85535160750458"><ele>261.0</ele><time>2026-04-25T09:58:40Z</time></trkpt><trkpt lat="42.77058848647167" lon="11.85544555524248"><ele>261.0</ele><time>2026-04-25T09:58:41Z</time></trkpt><trkpt lat="42.77039725742924" lon="11.855511174257929"><ele>261.0</ele><time>2026-04-25T09:58:42Z</time></trkpt><trkpt lat="42.77018244545569" lon="11.8555509873497"><ele>261.0</ele><time>2026-04-25T09:58:43Z</time></trkpt><trkpt lat="42.76994834259561" lon="11.855595991761351"><ele>260.0</ele><time>2026-04-25T09:58:44Z</time></trkpt><trkpt lat="42.7697204543734" lon="11.855619768676455"><ele>259.0</ele><time>2026-04-25T09:58:45Z</time></trkpt><trkpt lat="42.76950027209825" lon="11.855664654394486"><ele>258.66666666666663</ele><time>2026-04-25T09:58:46Z</time></trkpt><trkpt lat="42.76928375212611" lon="11.855704703506545"><ele>258.3333333333333</ele><time>2026-04-25T09:58:47Z</time></trkpt><trkpt lat="42.7690710259715" lon="11.855733865590468"><ele>258.0</ele><time>2026-04-25T09:58:48Z</time></trkpt><trkpt lat="42.76885809298899" lon="11.855765069916515"><ele>258.0</ele><time>2026-04-25T09:58:49Z</time></trkpt><trkpt lat="42.76864751287522" lon="11.855799232371734"><ele>258.0</ele><time>2026-04-25T09:58:50Z</time></trkpt><trkpt lat="42.76843190247334" lon="11.855835520546428"><ele>258.0</ele><time>2026-04-25T09:58:51Z</time></trkpt><trkpt lat="42.76821704116213" lon="11.855870661359328"><ele>257.0</ele><time>2026-04-25T09:58:52Z</time></trkpt><trkpt lat="42.76800084488726" lon="11.855907844058937"><ele>256.0</ele><time>2026-04-25T09:58:53Z</time></trkpt><trkpt lat="42.76779069256783" lon="11.85594814519037"><ele>255.0</ele><time>2026-04-25T09:58:54Z</time></trkpt><trkpt lat="42.7675853017255" lon="11.855985027986529"><ele>254.33333333333331</ele><time>2026-04-25T09:58:55Z</time></trkpt><trkpt lat="42.76738521295654" lon="11.856015781538325"><ele>253.66666666666666</ele><time>2026-04-25T09:58:56Z</time></trkpt><trkpt lat="42.7671926393182" lon="11.856045197539261"><ele>253.0</ele><time>2026-04-25T09:58:57Z</time></trkpt><trkpt lat="42.76701410856569" lon="11.856075091795187"><ele>252.33333333333331</ele><time>2026-04-25T09:58:58Z</time></trkpt><trkpt lat="42.766848505659325" lon="11.856104285539324"><ele>251.66666666666669</ele><time>2026-04-25T09:58:59Z</time></trkpt><trkpt lat="42.76669929046599" lon="11.85612757577953"><ele>251.0</ele><time>2026-04-25T09:59:00Z</time></trkpt><trkpt lat="42.76655428029235" lon="11.856153225940872"><ele>251.0</ele><time>2026-04-25T09:59:01Z</time></trkpt><trkpt lat="42.76641721750541" lon="11.856175625286738"><ele>251.0</ele><time>2026-04-25T09:59:02Z</time></trkpt><trkpt lat="42.7662805076761" lon="11.856195915573467"><ele>251.0</ele><time>2026-04-25T09:59:03Z</time></trkpt><trkpt lat="42.76614964253573" lon="11.856213689563775"><ele>251.0</ele><time>2026-04-25T09:59:04Z</time></trkpt><trkpt lat="42.766007917638895" lon="11.856244627661528"><ele>249.66666666666669</ele><time>2026-04-25T09:59:05Z</time></trkpt><trkpt lat="42.76584084916598" lon="11.85625052533879"><ele>248.33333333333331</ele><time>2026-04-25T09:59:06Z</time></trkpt><trkpt lat="42.76565537173665" lon="11.85626457523568"><ele>247.0</ele><time>2026-04-25T09:59:07Z</time></trkpt><trkpt lat="42.76546429788632" lon="11.856271367185453"><ele>247.0</ele><time>2026-04-25T09:59:08Z</time></trkpt><trkpt lat="42.765277108501174" lon="11.856277491880594"><ele>247.0</ele><time>2026-04-25T09:59:08.999Z</time></trkpt><trkpt lat="42.765078868442096" lon="11.856277552719138"><ele>247.0</ele><time>2026-04-25T09:59:09.999Z</time></trkpt><trkpt lat="42.76487010953274" lon="11.856282180345913"><ele>247.0</ele><time>2026-04-25T09:59:10.999Z</time></trkpt><trkpt lat="42.76467521945529" lon="11.856280037932022"><ele>247.0</ele><time>2026-04-25T09:59:11.999Z</time></trkpt><trkpt lat="42.7645002578856" lon="11.856278365672233"><ele>247.0</ele><time>2026-04-25T09:59:12.999Z</time></trkpt><trkpt lat="42.76432835023583" lon="11.856274517792194"><ele>246.66666666666666</ele><time>2026-04-25T09:59:13.999Z</time></trkpt><trkpt lat="42.76414484271667" lon="11.856270345324095"><ele>246.33333333333331</ele><time>2026-04-25T09:59:14.999Z</time></trkpt><trkpt lat="42.76395215695018" lon="11.85626199049523"><ele>246.0</ele><time>2026-04-25T09:59:15.999Z</time></trkpt><trkpt lat="42.76375510984603" lon="11.85625667185624"><ele>246.0</ele><time>2026-04-25T09:59:16.999Z</time></trkpt><trkpt lat="42.76357045161864" lon="11.856253846024634"><ele>246.0</ele><time>2026-04-25T09:59:17.999Z</time></trkpt><trkpt lat="42.76339189996035" lon="11.856265763733504"><ele>246.0</ele><time>2026-04-25T09:59:18.999Z</time></trkpt><trkpt lat="42.76321069542175" lon="11.85630330395158"><ele>246.33333333333331</ele><time>2026-04-25T09:59:19.999Z</time></trkpt><trkpt lat="42.7630336440166" lon="11.856367782767101"><ele>246.66666666666666</ele><time>2026-04-25T09:59:20.999Z</time></trkpt><trkpt lat="42.762863932835444" lon="11.856456312746417"><ele>247.0</ele><time>2026-04-25T09:59:21.999Z</time></trkpt><trkpt lat="42.76271357999058" lon="11.856577604102798"><ele>247.33333333333331</ele><time>2026-04-25T09:59:22.999Z</time></trkpt><trkpt lat="42.76256628140901" lon="11.856696420871403"><ele>247.66666666666669</ele><time>2026-04-25T09:59:23.999Z</time></trkpt><trkpt lat="42.76243973355958" lon="11.856818655167958"><ele>248.0</ele><time>2026-04-25T09:59:24.999Z</time></trkpt><trkpt lat="42.76232558679172" lon="11.856947935269366"><ele>248.0</ele><time>2026-04-25T09:59:25.999Z</time></trkpt><trkpt lat="42.76221882632474" lon="11.85711654087701"><ele>248.0</ele><time>2026-04-25T09:59:26.999Z</time></trkpt><trkpt lat="42.762113476708095" lon="11.857316552853925"><ele>248.0</ele><time>2026-04-25T09:59:27.999Z</time></trkpt><trkpt lat="42.76201204992534" lon="11.857543290077821"><ele>247.66666666666669</ele><time>2026-04-25T09:59:28.999Z</time></trkpt><trkpt lat="42.76191130978724" lon="11.857790522690308"><ele>247.33333333333331</ele><time>2026-04-25T09:59:29.999Z</time></trkpt><trkpt lat="42.76181444018709" lon="11.85804462506098"><ele>247.0</ele><time>2026-04-25T09:59:30.999Z</time></trkpt><trkpt lat="42.76172418935274" lon="11.85830593757036"><ele>250.0</ele><time>2026-04-25T09:59:31.999Z</time></trkpt><trkpt lat="42.76164390397138" lon="11.858587200335219"><ele>253.0</ele><time>2026-04-25T09:59:32.999Z</time></trkpt><trkpt lat="42.761576489541085" lon="11.858884058823719"><ele>253.0</ele><time>2026-04-25T09:59:33.999Z</time></trkpt><trkpt lat="42.761518541745026" lon="11.859181945643828"><ele>253.0</ele><time>2026-04-25T09:59:34.999Z</time></trkpt><trkpt lat="42.76146278478257" lon="11.859499194237012"><ele>251.5</ele><time>2026-04-25T09:59:35.999Z</time></trkpt><trkpt lat="42.76140411286774" lon="11.859827119364601"><ele>250.0</ele><time>2026-04-25T09:59:36.999Z</time></trkpt><trkpt lat="42.76134243001665" lon="11.860148631803243"><ele>249.5</ele><time>2026-04-25T09:59:37.999Z</time></trkpt><trkpt lat="42.76128236312283" lon="11.860461018555053"><ele>249.0</ele><time>2026-04-25T09:59:38.999Z</time></trkpt><trkpt lat="42.76122087984007" lon="11.860777507288516"><ele>249.0</ele><time>2026-04-25T09:59:39.999Z</time></trkpt><trkpt lat="42.76115691305559" lon="11.861102650807375"><ele>249.0</ele><time>2026-04-25T09:59:40.999Z</time></trkpt><trkpt lat="42.76109386004075" lon="11.861424608391324"><ele>249.0</ele><time>2026-04-25T09:59:41.999Z</time></trkpt><trkpt lat="42.76103267477488" lon="11.861745383020512"><ele>249.0</ele><time>2026-04-25T09:59:42.999Z</time></trkpt><trkpt lat="42.76096976235811" lon="11.862055913569593"><ele>249.66666666666669</ele><time>2026-04-25T09:59:43.999Z</time></trkpt><trkpt lat="42.76091099953168" lon="11.862341082604392"><ele>250.33333333333334</ele><time>2026-04-25T09:59:44.999Z</time></trkpt><trkpt lat="42.76086082051937" lon="11.862604009462586"><ele>251.0</ele><time>2026-04-25T09:59:45.999Z</time></trkpt><trkpt lat="42.76080880522058" lon="11.862846675036941"><ele>251.0</ele><time>2026-04-25T09:59:46.999Z</time></trkpt><trkpt lat="42.76074551093619" lon="11.86306088934416"><ele>251.0</ele><time>2026-04-25T09:59:47.999Z</time></trkpt><trkpt lat="42.76065661599919" lon="11.863253903607658"><ele>251.0</ele><time>2026-04-25T09:59:48.999Z</time></trkpt><trkpt lat="42.76053734369657" lon="11.863422604462082"><ele>251.33333333333334</ele><time>2026-04-25T09:59:49.999Z</time></trkpt><trkpt lat="42.760388024531174" lon="11.863558111480824"><ele>251.66666666666669</ele><time>2026-04-25T09:59:50.999Z</time></trkpt><trkpt lat="42.76021393114624" lon="11.863663314783517"><ele>252.0</ele><time>2026-04-25T09:59:51.999Z</time></trkpt><trkpt lat="42.760017522425095" lon="11.863737629310931"><ele>252.0</ele><time>2026-04-25T09:59:52.999Z</time></trkpt><trkpt lat="42.75981228201416" lon="11.863826343337033"><ele>252.0</ele><time>2026-04-25T09:59:53.999Z</time></trkpt><trkpt lat="42.759601318351685" lon="11.86393656371856"><ele>252.0</ele><time>2026-04-25T09:59:54.999Z</time></trkpt><trkpt lat="42.759390998127195" lon="11.864042114584496"><ele>254.5</ele><time>2026-04-25T09:59:55.999Z</time></trkpt><trkpt lat="42.759174531870336" lon="11.864146561280883"><ele>257.0</ele><time>2026-04-25T09:59:56.999Z</time></trkpt><trkpt lat="42.75895889062512" lon="11.86424360826077"><ele>257.0</ele><time>2026-04-25T09:59:57.999Z</time></trkpt><trkpt lat="42.75875222120303" lon="11.864315754371669"><ele>257.0</ele><time>2026-04-25T09:59:58.999Z</time></trkpt><trkpt lat="42.75856337565301" lon="11.86436912691162"><ele>257.0</ele><time>2026-04-25T09:59:59.999Z</time></trkpt><trkpt lat="42.758392996255395" lon="11.864432571154843"><ele>257.0</ele><time>2026-04-25T10:00:00.999Z</time></trkpt><trkpt lat="42.75824333914432" lon="11.864519771986316"><ele>257.0</ele><time>2026-04-25T10:00:01.999Z</time></trkpt><trkpt lat="42.75811858855137" lon="11.86463379524847"><ele>257.0</ele><time>2026-04-25T10:00:02.999Z</time></trkpt><trkpt lat="42.758014743966946" lon="11.864790968857593"><ele>257.0</ele><time>2026-04-25T10:00:03.999Z</time></trkpt><trkpt lat="42.75792212290958" lon="11.864980231592112"><ele>257.0</ele><time>2026-04-25T10:00:04.999Z</time></trkpt><trkpt lat="42.757828064292674" lon="11.865182769062931"><ele>257.0</ele><time>2026-04-25T10:00:05.999Z</time></trkpt><trkpt lat="42.757717052254" lon="11.86535459321429"><ele>259.0</ele><time>2026-04-25T10:00:06.999Z</time></trkpt><trkpt lat="42.75759130382248" lon="11.865486654591482"><ele>261.0</ele><time>2026-04-25T10:00:07.999Z</time></trkpt><trkpt lat="42.75745595442076" lon="11.865570441754612"><ele>263.0</ele><time>2026-04-25T10:00:08.999Z</time></trkpt><trkpt lat="42.75729935058366" lon="11.865621147991662"><ele>263.0</ele><time>2026-04-25T10:00:09.999Z</time></trkpt><trkpt lat="42.75712683266447" lon="11.865644383124696"><ele>263.0</ele><time>2026-04-25T10:00:10.999Z</time></trkpt><trkpt lat="42.75694609388774" lon="11.865646788325844"><ele>263.0</ele><time>2026-04-25T10:00:11.999Z</time></trkpt><trkpt lat="42.75675434423693" lon="11.865631751608353"><ele>266.33333333333337</ele><time>2026-04-25T10:00:12.999Z</time></trkpt><trkpt lat="42.75655320104691" lon="11.865608641440975"><ele>269.6666666666667</ele><time>2026-04-25T10:00:13.999Z</time></trkpt><trkpt lat="42.75634424345289" lon="11.86559143786428"><ele>273.0</ele><time>2026-04-25T10:00:14.999Z</time></trkpt><trkpt lat="42.75612749383302" lon="11.865573749069704"><ele>274.6666666666667</ele><time>2026-04-25T10:00:15.999Z</time></trkpt><trkpt lat="42.7559140874455" lon="11.865554732743728"><ele>276.33333333333337</ele><time>2026-04-25T10:00:16.999Z</time></trkpt><trkpt lat="42.75570628741152" lon="11.865536738064208"><ele>278.0</ele><time>2026-04-25T10:00:17.999Z</time></trkpt><trkpt lat="42.75550512928657" lon="11.86552663541501"><ele>278.0</ele><time>2026-04-25T10:00:18.999Z</time></trkpt><trkpt lat="42.75530994795396" lon="11.865535376939018"><ele>278.0</ele><time>2026-04-25T10:00:19.999Z</time></trkpt><trkpt lat="42.75511835864158" lon="11.865557317202422"><ele>278.0</ele><time>2026-04-25T10:00:20.999Z</time></trkpt><trkpt lat="42.75491523203688" lon="11.865566591245214"><ele>281.33333333333337</ele><time>2026-04-25T10:00:21.999Z</time></trkpt><trkpt lat="42.75470249979084" lon="11.865554152634417"><ele>284.6666666666667</ele><time>2026-04-25T10:00:22.999Z</time></trkpt><trkpt lat="42.75449132984737" lon="11.865534610400285"><ele>288.0</ele><time>2026-04-25T10:00:23.999Z</time></trkpt><trkpt lat="42.75428410585895" lon="11.865519668103355"><ele>289.0</ele><time>2026-04-25T10:00:24.998Z</time></trkpt><trkpt lat="42.754083359022516" lon="11.865507790982775"><ele>290.0</ele><time>2026-04-25T10:00:25.998Z</time></trkpt><trkpt lat="42.75389159244533" lon="11.86549029638751"><ele>291.0</ele><time>2026-04-25T10:00:26.998Z</time></trkpt><trkpt lat="42.753703372238135" lon="11.865466454681686"><ele>290.6666666666667</ele><time>2026-04-25T10:00:27.998Z</time></trkpt><trkpt lat="42.75352308995907" lon="11.865441791526047"><ele>290.33333333333337</ele><time>2026-04-25T10:00:28.998Z</time></trkpt><trkpt lat="42.75335347758477" lon="11.865419082305458"><ele>290.0</ele><time>2026-04-25T10:00:29.998Z</time></trkpt><trkpt lat="42.75318047733649" lon="11.865380602435193"><ele>290.0</ele><time>2026-04-25T10:00:30.998Z</time></trkpt><trkpt lat="42.75301797544323" lon="11.865310915714804"><ele>290.0</ele><time>2026-04-25T10:00:31.998Z</time></trkpt><trkpt lat="42.75287482119139" lon="11.865210515731825"><ele>290.0</ele><time>2026-04-25T10:00:32.998Z</time></trkpt><trkpt lat="42.75274355971013" lon="11.865074575429812"><ele>293.33333333333337</ele><time>2026-04-25T10:00:33.998Z</time></trkpt><trkpt lat="42.75260414220384" lon="11.864942310660728"><ele>296.6666666666667</ele><time>2026-04-25T10:00:34.998Z</time></trkpt><trkpt lat="42.75246394641216" lon="11.864823487460315"><ele>300.0</ele><time>2026-04-25T10:00:35.998Z</time></trkpt><trkpt lat="42.7523289282717" lon="11.864717604766964"><ele>300.0</ele><time>2026-04-25T10:00:36.998Z</time></trkpt><trkpt lat="42.752182239849816" lon="11.864636912378137"><ele>300.0</ele><time>2026-04-25T10:00:37.998Z</time></trkpt><trkpt lat="42.75202529325159" lon="11.8645913764419"><ele>300.0</ele><time>2026-04-25T10:00:38.998Z</time></trkpt><trkpt lat="42.7518544338478" lon="11.864572956212948"><ele>299.6666666666667</ele><time>2026-04-25T10:00:39.998Z</time></trkpt><trkpt lat="42.751674046485526" lon="11.864588897969067"><ele>299.33333333333337</ele><time>2026-04-25T10:00:41Z</time></trkpt><trkpt lat="42.7514849557944" lon="11.86463995013421"><ele>299.0</ele><time>2026-04-25T10:00:42Z</time></trkpt><trkpt lat="42.75129272915468" lon="11.864693343326605"><ele>299.0</ele><time>2026-04-25T10:00:43Z</time></trkpt><trkpt lat="42.751101007824325" lon="11.864744224451712"><ele>299.0</ele><time>2026-04-25T10:00:44Z</time></trkpt><trkpt lat="42.750913956424895" lon="11.864786111718372"><ele>299.0</ele><time>2026-04-25T10:00:45Z</time></trkpt><trkpt lat="42.750733849639694" lon="11.864825095808945"><ele>301.6666666666667</ele><time>2026-04-25T10:00:46Z</time></trkpt><trkpt lat="42.750565469020266" lon="11.864863146427133"><ele>304.3333333333333</ele><time>2026-04-25T10:00:47Z</time></trkpt><trkpt lat="42.75041555286234" lon="11.864897185079071"><ele>307.0</ele><time>2026-04-25T10:00:48Z</time></trkpt><trkpt lat="42.75028856127061" lon="11.864917673796175"><ele>308.5</ele><time>2026-04-25T10:00:49Z</time></trkpt><trkpt lat="42.750181553104554" lon="11.864933605503907"><ele>310.0</ele><time>2026-04-25T10:00:50Z</time></trkpt><trkpt lat="42.750088243438995" lon="11.864954774161898"><ele>311.5</ele><time>2026-04-25T10:00:51Z</time></trkpt><trkpt lat="42.750014763309515" lon="11.864970005144617"><ele>313.0</ele><time>2026-04-25T10:00:52Z</time></trkpt><trkpt lat="42.74994555064828" lon="11.86498235556814"><ele>314.5</ele><time>2026-04-25T10:00:53Z</time></trkpt><trkpt lat="42.74987999015106" lon="11.86498478259688"><ele>316.0</ele><time>2026-04-25T10:00:54Z</time></trkpt><trkpt lat="42.74976796572863" lon="11.864910250901358"><ele>316.0</ele><time>2026-04-25T10:00:56Z</time></trkpt><trkpt lat="42.74972997590318" lon="11.864837057174604"><ele>316.0</ele><time>2026-04-25T10:00:57Z</time></trkpt><trkpt lat="42.74972396664258" lon="11.864683910507653"><ele>316.0</ele><time>2026-04-25T10:00:59Z</time></trkpt><trkpt lat="42.74976759672889" lon="11.864565952675775"><ele>316.0</ele><time>2026-04-25T10:01:01Z</time></trkpt><trkpt lat="42.749813022514594" lon="11.864486544806125"><ele>316.0</ele><time>2026-04-25T10:01:02Z</time></trkpt><trkpt lat="42.74988405661422" lon="11.86439626116455"><ele>316.0</ele><time>2026-04-25T10:01:03Z</time></trkpt><trkpt lat="42.74995708824733" lon="11.864322100900528"><ele>316.8</ele><time>2026-04-25T10:01:04Z</time></trkpt><trkpt lat="42.750041357982326" lon="11.864233826710034"><ele>317.6</ele><time>2026-04-25T10:01:05Z</time></trkpt><trkpt lat="42.75012646804536" lon="11.864137958846209"><ele>318.4</ele><time>2026-04-25T10:01:06Z</time></trkpt><trkpt lat="42.750215162471505" lon="11.864049658642111"><ele>319.2</ele><time>2026-04-25T10:01:07Z</time></trkpt><trkpt lat="42.750299106730274" lon="11.863971651054909"><ele>320.0</ele><time>2026-04-25T10:01:08Z</time></trkpt><trkpt lat="42.75038490281887" lon="11.863887711439016"><ele>320.0</ele><time>2026-04-25T10:01:09Z</time></trkpt><trkpt lat="42.75047516546578" lon="11.863800259244456"><ele>320.0</ele><time>2026-04-25T10:01:10Z</time></trkpt><trkpt lat="42.750569000304665" lon="11.863712395395154"><ele>320.0</ele><time>2026-04-25T10:01:11Z</time></trkpt><trkpt lat="42.75066340117406" lon="11.863621561265505"><ele>320.0</ele><time>2026-04-25T10:01:12Z</time></trkpt><trkpt lat="42.75075861271162" lon="11.863529770886396"><ele>321.8</ele><time>2026-04-25T10:01:13Z</time></trkpt><trkpt lat="42.75085604984725" lon="11.86343872635914"><ele>323.6</ele><time>2026-04-25T10:01:14Z</time></trkpt><trkpt lat="42.75095101142147" lon="11.863363523278364"><ele>325.4</ele><time>2026-04-25T10:01:15Z</time></trkpt><trkpt lat="42.75105435636675" lon="11.863313044307533"><ele>327.2</ele><time>2026-04-25T10:01:16Z</time></trkpt><trkpt lat="42.75115620245088" lon="11.86328934671642"><ele>329.0</ele><time>2026-04-25T10:01:17Z</time></trkpt><trkpt lat="42.75125756475533" lon="11.863306011103337"><ele>329.0</ele><time>2026-04-25T10:01:18Z</time></trkpt><trkpt lat="42.75135782304044" lon="11.863303702858707"><ele>329.0</ele><time>2026-04-25T10:01:19Z</time></trkpt><trkpt lat="42.75145329979702" lon="11.863301395569508"><ele>329.0</ele><time>2026-04-25T10:01:20Z</time></trkpt><trkpt lat="42.75154401753153" lon="11.863301395569676"><ele>329.0</ele><time>2026-04-25T10:01:21Z</time></trkpt><trkpt lat="42.75163640290196" lon="11.863301395569003"><ele>329.0</ele><time>2026-04-25T10:01:22Z</time></trkpt><trkpt lat="42.75172670974533" lon="11.863302330425078"><ele>329.0</ele><time>2026-04-25T10:01:23Z</time></trkpt><trkpt lat="42.75181516731637" lon="11.863303836323054"><ele>329.0</ele><time>2026-04-25T10:01:24Z</time></trkpt><trkpt lat="42.751904291614025" lon="11.863283052820409"><ele>329.0</ele><time>2026-04-25T10:01:25Z</time></trkpt><trkpt lat="42.751987885535115" lon="11.863275606279176"><ele>329.0</ele><time>2026-04-25T10:01:26Z</time></trkpt><trkpt lat="42.75206441060991" lon="11.863235259707075"><ele>329.0</ele><time>2026-04-25T10:01:27Z</time></trkpt><trkpt lat="42.75212411630369" lon="11.863170135542905"><ele>329.0</ele><time>2026-04-25T10:01:28Z</time></trkpt><trkpt lat="42.75216500902948" lon="11.863085194065706"><ele>329.1666666666667</ele><time>2026-04-25T10:01:29Z</time></trkpt><trkpt lat="42.75218116698341" lon="11.862978908968678"><ele>329.33333333333337</ele><time>2026-04-25T10:01:29.999Z</time></trkpt><trkpt lat="42.75217213120289" lon="11.862861315320723"><ele>329.5</ele><time>2026-04-25T10:01:30.999Z</time></trkpt><trkpt lat="42.75213542168331" lon="11.862753563283835"><ele>329.6666666666667</ele><time>2026-04-25T10:01:31.999Z</time></trkpt><trkpt lat="42.752072111537956" lon="11.86267527318923"><ele>329.8333333333333</ele><time>2026-04-25T10:01:32.999Z</time></trkpt><trkpt lat="42.751988468404065" lon="11.862628533516464"><ele>330.0</ele><time>2026-04-25T10:01:33.999Z</time></trkpt><trkpt lat="42.75188943819106" lon="11.862599911669381"><ele>332.6</ele><time>2026-04-25T10:01:34.999Z</time></trkpt><trkpt lat="42.75178490638317" lon="11.862563162336015"><ele>335.2</ele><time>2026-04-25T10:01:35.999Z</time></trkpt><trkpt lat="42.75167714426146" lon="11.862534116941006"><ele>337.79999999999995</ele><time>2026-04-25T10:01:36.999Z</time></trkpt><trkpt lat="42.75156782352075" lon="11.862514319774993"><ele>340.4</ele><time>2026-04-25T10:01:37.999Z</time></trkpt><trkpt lat="42.75145820776118" lon="11.862502180302808"><ele>343.0</ele><time>2026-04-25T10:01:38.999Z</time></trkpt><trkpt lat="42.751349112697916" lon="11.862487616062626"><ele>343.0</ele><time>2026-04-25T10:01:39.999Z</time></trkpt><trkpt lat="42.75124328479769" lon="11.862481887160683"><ele>343.0</ele><time>2026-04-25T10:01:40.999Z</time></trkpt><trkpt lat="42.751135903808375" lon="11.862483040360072"><ele>343.0</ele><time>2026-04-25T10:01:41.999Z</time></trkpt><trkpt lat="42.75102763443551" lon="11.862481302244804"><ele>343.0</ele><time>2026-04-25T10:01:42.999Z</time></trkpt><trkpt lat="42.75092112068278" lon="11.86247817395449"><ele>343.0</ele><time>2026-04-25T10:01:43.999Z</time></trkpt><trkpt lat="42.750814529408196" lon="11.862477760481267"><ele>345.5</ele><time>2026-04-25T10:01:44.999Z</time></trkpt><trkpt lat="42.75070608202714" lon="11.862476155915042"><ele>348.0</ele><time>2026-04-25T10:01:45.999Z</time></trkpt><trkpt lat="42.7505981019935" lon="11.86247223578203"><ele>350.5</ele><time>2026-04-25T10:01:46.999Z</time></trkpt><trkpt lat="42.750486833942055" lon="11.862474252745052"><ele>353.0</ele><time>2026-04-25T10:01:47.999Z</time></trkpt><trkpt lat="42.75035523220925" lon="11.86247134630701"><ele>356.33333333333337</ele><time>2026-04-25T10:01:48.999Z</time></trkpt><trkpt lat="42.75019244995884" lon="11.86248621009153"><ele>359.6666666666667</ele><time>2026-04-25T10:01:49.999Z</time></trkpt><trkpt lat="42.750001190089215" lon="11.862515668519832"><ele>363.0</ele><time>2026-04-25T10:01:50.999Z</time></trkpt><trkpt lat="42.749786950685554" lon="11.862575804821903"><ele>363.0</ele><time>2026-04-25T10:01:51.999Z</time></trkpt><trkpt lat="42.74955501355213" lon="11.862612649303651"><ele>363.0</ele><time>2026-04-25T10:01:52.999Z</time></trkpt><trkpt lat="42.749331833537724" lon="11.862657770721006"><ele>360.6666666666667</ele><time>2026-04-25T10:01:53.999Z</time></trkpt><trkpt lat="42.749108298771326" lon="11.862704836973533"><ele>358.33333333333337</ele><time>2026-04-25T10:01:54.999Z</time></trkpt><trkpt lat="42.748893357877364" lon="11.862739459623015"><ele>356.0</ele><time>2026-04-25T10:01:55.999Z</time></trkpt><trkpt lat="42.748684830985574" lon="11.862780327465433"><ele>355.6666666666667</ele><time>2026-04-25T10:01:56.999Z</time></trkpt><trkpt lat="42.74848397174915" lon="11.862825915947916"><ele>355.3333333333333</ele><time>2026-04-25T10:01:57.999Z</time></trkpt><trkpt lat="42.74828910777314" lon="11.862871272529834"><ele>355.0</ele><time>2026-04-25T10:01:58.999Z</time></trkpt><trkpt lat="42.748103232349024" lon="11.862911235225726"><ele>355.0</ele><time>2026-04-25T10:01:59.999Z</time></trkpt><trkpt lat="42.7479282115333" lon="11.862944709304937"><ele>355.0</ele><time>2026-04-25T10:02:00.999Z</time></trkpt><trkpt lat="42.747764877556904" lon="11.862978825864351"><ele>355.0</ele><time>2026-04-25T10:02:01.999Z</time></trkpt><trkpt lat="42.74760712024264" lon="11.863012772229403"><ele>357.66666666666663</ele><time>2026-04-25T10:02:02.999Z</time></trkpt><trkpt lat="42.74745426243457" lon="11.86304451385652"><ele>360.3333333333333</ele><time>2026-04-25T10:02:03.999Z</time></trkpt><trkpt lat="42.74730331833462" lon="11.863071945475507"><ele>363.0</ele><time>2026-04-25T10:02:04.999Z</time></trkpt><trkpt lat="42.74715567026157" lon="11.863103745869912"><ele>363.0</ele><time>2026-04-25T10:02:05.999Z</time></trkpt><trkpt lat="42.74700955960077" lon="11.863134787131562"><ele>363.0</ele><time>2026-04-25T10:02:06.999Z</time></trkpt><trkpt lat="42.74686899707265" lon="11.863157775610755"><ele>363.0</ele><time>2026-04-25T10:02:07.999Z</time></trkpt><trkpt lat="42.74672998628759" lon="11.863173349491658"><ele>363.0</ele><time>2026-04-25T10:02:08.999Z</time></trkpt><trkpt lat="42.7465887357627" lon="11.86318461627903"><ele>366.5</ele><time>2026-04-25T10:02:09.999Z</time></trkpt><trkpt lat="42.74644603823576" lon="11.863178614257407"><ele>370.0</ele><time>2026-04-25T10:02:10.999Z</time></trkpt><trkpt lat="42.74630330667615" lon="11.863155592010749"><ele>373.5</ele><time>2026-04-25T10:02:11.999Z</time></trkpt><trkpt lat="42.74615993607184" lon="11.863125424666451"><ele>377.0</ele><time>2026-04-25T10:02:12.999Z</time></trkpt><trkpt lat="42.746008731034316" lon="11.863100285946095"><ele>378.0</ele><time>2026-04-25T10:02:13.999Z</time></trkpt><trkpt lat="42.74585492541378" lon="11.86308868209402"><ele>379.0</ele><time>2026-04-25T10:02:14.999Z</time></trkpt><trkpt lat="42.74570205855014" lon="11.863091493917613"><ele>380.0</ele><time>2026-04-25T10:02:15.999Z</time></trkpt><trkpt lat="42.7455499397817" lon="11.863087031117022"><ele>380.0</ele><time>2026-04-25T10:02:16.999Z</time></trkpt><trkpt lat="42.74539537746092" lon="11.8630599341798"><ele>380.0</ele><time>2026-04-25T10:02:17.999Z</time></trkpt><trkpt lat="42.74523765018852" lon="11.863054874182671"><ele>380.0</ele><time>2026-04-25T10:02:18.999Z</time></trkpt><trkpt lat="42.74508131280019" lon="11.863067878645893"><ele>382.6666666666667</ele><time>2026-04-25T10:02:19.999Z</time></trkpt><trkpt lat="42.74492512762017" lon="11.863064201407699"><ele>385.33333333333337</ele><time>2026-04-25T10:02:20.999Z</time></trkpt><trkpt lat="42.7447689004935" lon="11.863036041253805"><ele>388.0</ele><time>2026-04-25T10:02:21.999Z</time></trkpt><trkpt lat="42.74461512618519" lon="11.86302970921047"><ele>388.0</ele><time>2026-04-25T10:02:22.999Z</time></trkpt><trkpt lat="42.744461391292575" lon="11.863023364384487"><ele>388.0</ele><time>2026-04-25T10:02:23.999Z</time></trkpt><trkpt lat="42.74431140713016" lon="11.86301725607027"><ele>388.0</ele><time>2026-04-25T10:02:24.999Z</time></trkpt><trkpt lat="42.74416778233768" lon="11.86301275309713"><ele>388.0</ele><time>2026-04-25T10:02:25.999Z</time></trkpt><trkpt lat="42.744038364031674" lon="11.863007726503032"><ele>389.25</ele><time>2026-04-25T10:02:26.999Z</time></trkpt><trkpt lat="42.74391328841464" lon="11.863005406434173"><ele>390.5</ele><time>2026-04-25T10:02:27.999Z</time></trkpt><trkpt lat="42.743789028825034" lon="11.863033903107631"><ele>391.75</ele><time>2026-04-25T10:02:28.999Z</time></trkpt><trkpt lat="42.743663388530855" lon="11.863082925446173"><ele>393.0</ele><time>2026-04-25T10:02:29.999Z</time></trkpt><trkpt lat="42.74353151419731" lon="11.863150900439226"><ele>393.0</ele><time>2026-04-25T10:02:30.999Z</time></trkpt><trkpt lat="42.74340849826402" lon="11.863284985176527"><ele>393.0</ele><time>2026-04-25T10:02:31.999Z</time></trkpt><trkpt lat="42.74327017070329" lon="11.86337214149432"><ele>393.0</ele><time>2026-04-25T10:02:32.999Z</time></trkpt><trkpt lat="42.7431319793175" lon="11.863460672366875"><ele>393.25</ele><time>2026-04-25T10:02:33.999Z</time></trkpt><trkpt lat="42.74299348769348" lon="11.863545179288137"><ele>393.5</ele><time>2026-04-25T10:02:34.999Z</time></trkpt><trkpt lat="42.74285415942735" lon="11.863621506565384"><ele>393.75</ele><time>2026-04-25T10:02:35.999Z</time></trkpt><trkpt lat="42.74272742230246" lon="11.863685312403174"><ele>394.0</ele><time>2026-04-25T10:02:36.999Z</time></trkpt><trkpt lat="42.74261442840621" lon="11.863747682738781"><ele>393.2</ele><time>2026-04-25T10:02:37.999Z</time></trkpt><trkpt lat="42.74251553372073" lon="11.863817944737853"><ele>392.4</ele><time>2026-04-25T10:02:38.999Z</time></trkpt><trkpt lat="42.742432371617184" lon="11.863903163358994"><ele>391.6</ele><time>2026-04-25T10:02:39.999Z</time></trkpt><trkpt lat="42.742396954123016" lon="11.864026908123416"><ele>390.8</ele><time>2026-04-25T10:02:40.999Z</time></trkpt><trkpt lat="42.742378239837116" lon="11.864164766197865"><ele>390.0</ele><time>2026-04-25T10:02:41.999Z</time></trkpt><trkpt lat="42.742382309685695" lon="11.864306043255722"><ele>390.0</ele><time>2026-04-25T10:02:42.999Z</time></trkpt><trkpt lat="42.74235547563359" lon="11.864435091689446"><ele>390.0</ele><time>2026-04-25T10:02:43.999Z</time></trkpt><trkpt lat="42.742343556405814" lon="11.864546598613938"><ele>390.0</ele><time>2026-04-25T10:02:44.998Z</time></trkpt><trkpt lat="42.74228448131805" lon="11.864624487718064"><ele>390.0</ele><time>2026-04-25T10:02:45.998Z</time></trkpt><trkpt lat="42.74220704323007" lon="11.864629201952566"><ele>390.0</ele><time>2026-04-25T10:02:47Z</time></trkpt><trkpt lat="42.74214196333374" lon="11.864615813281251"><ele>390.0</ele><time>2026-04-25T10:02:48Z</time></trkpt><trkpt lat="42.74205986031492" lon="11.864586713952962"><ele>390.0</ele><time>2026-04-25T10:02:49Z</time></trkpt><trkpt lat="42.74196650821039" lon="11.864559108799604"><ele>390.0</ele><time>2026-04-25T10:02:50Z</time></trkpt><trkpt lat="42.74188072370357" lon="11.864517236446757"><ele>390.0</ele><time>2026-04-25T10:02:51Z</time></trkpt><trkpt lat="42.74179895093932" lon="11.864485396684575"><ele>390.0</ele><time>2026-04-25T10:02:52Z</time></trkpt><trkpt lat="42.74172055026187" lon="11.86446521846137"><ele>390.0</ele><time>2026-04-25T10:02:53Z</time></trkpt><trkpt lat="42.741642730920645" lon="11.864460533137906"><ele>390.0</ele><time>2026-04-25T10:02:54Z</time></trkpt><trkpt lat="42.74155213034572" lon="11.864462759924104"><ele>389.8</ele><time>2026-04-25T10:02:55Z</time></trkpt><trkpt lat="42.741455719856575" lon="11.86451203813841"><ele>389.6</ele><time>2026-04-25T10:02:56Z</time></trkpt><trkpt lat="42.7413916705368" lon="11.864629101857863"><ele>389.4</ele><time>2026-04-25T10:02:57Z</time></trkpt><trkpt lat="42.74134090038125" lon="11.864738636655785"><ele>389.2</ele><time>2026-04-25T10:02:58Z</time></trkpt><trkpt lat="42.741295530944676" lon="11.864868213566604"><ele>389.0</ele><time>2026-04-25T10:02:59Z</time></trkpt><trkpt lat="42.74131646573372" lon="11.865044149498802"><ele>388.0</ele><time>2026-04-25T10:03:00Z</time></trkpt><trkpt lat="42.74133847239085" lon="11.865220920234341"><ele>387.0</ele><time>2026-04-25T10:03:01Z</time></trkpt><trkpt lat="42.741367275527615" lon="11.865387642854861"><ele>386.0</ele><time>2026-04-25T10:03:02Z</time></trkpt><trkpt lat="42.74140181546129" lon="11.865566484048454"><ele>385.0</ele><time>2026-04-25T10:03:03Z</time></trkpt><trkpt lat="42.74143910757349" lon="11.865754282062516"><ele>384.33333333333337</ele><time>2026-04-25T10:03:04Z</time></trkpt><trkpt lat="42.741479562596346" lon="11.865948575465087"><ele>383.6666666666667</ele><time>2026-04-25T10:03:05Z</time></trkpt><trkpt lat="42.74152184235885" lon="11.866146655832361"><ele>383.0</ele><time>2026-04-25T10:03:06Z</time></trkpt><trkpt lat="42.74156159680645" lon="11.866347400661942"><ele>383.0</ele><time>2026-04-25T10:03:07Z</time></trkpt><trkpt lat="42.74159847448602" lon="11.866537439384153"><ele>383.0</ele><time>2026-04-25T10:03:08Z</time></trkpt><trkpt lat="42.74161985622846" lon="11.866731565640576"><ele>383.0</ele><time>2026-04-25T10:03:09Z</time></trkpt><trkpt lat="42.74165741835058" lon="11.86692195546823"><ele>383.0</ele><time>2026-04-25T10:03:10Z</time></trkpt><trkpt lat="42.74169639168631" lon="11.867119498147693"><ele>383.33333333333337</ele><time>2026-04-25T10:03:11Z</time></trkpt><trkpt lat="42.74173665679736" lon="11.867319016992875"><ele>383.6666666666667</ele><time>2026-04-25T10:03:12Z</time></trkpt><trkpt lat="42.741778035218" lon="11.867522653072403"><ele>384.0</ele><time>2026-04-25T10:03:13Z</time></trkpt><trkpt lat="42.74182000694841" lon="11.867730060308798"><ele>384.33333333333337</ele><time>2026-04-25T10:03:14Z</time></trkpt><trkpt lat="42.74186125782498" lon="11.867939980090407"><ele>384.6666666666667</ele><time>2026-04-25T10:03:15Z</time></trkpt><trkpt lat="42.74192011865616" lon="11.868148251516429"><ele>385.0</ele><time>2026-04-25T10:03:16Z</time></trkpt><trkpt lat="42.74196643921795" lon="11.868368393948163"><ele>387.0</ele><time>2026-04-25T10:03:17Z</time></trkpt><trkpt lat="42.742032113603436" lon="11.868591523141175"><ele>389.0</ele><time>2026-04-25T10:03:18Z</time></trkpt><trkpt lat="42.742120286594286" lon="11.868811194317137"><ele>391.0</ele><time>2026-04-25T10:03:19Z</time></trkpt><trkpt lat="42.74222019720368" lon="11.869022528031364"><ele>391.0</ele><time>2026-04-25T10:03:20Z</time></trkpt><trkpt lat="42.74231828462902" lon="11.869226554806188"><ele>391.0</ele><time>2026-04-25T10:03:21Z</time></trkpt><trkpt lat="42.742409109880874" lon="11.869426543787354"><ele>391.0</ele><time>2026-04-25T10:03:22Z</time></trkpt><trkpt lat="42.74249226179069" lon="11.869623192980923"><ele>391.6666666666667</ele><time>2026-04-25T10:03:23Z</time></trkpt><trkpt lat="42.74253296641125" lon="11.869841904085296"><ele>392.33333333333337</ele><time>2026-04-25T10:03:24Z</time></trkpt><trkpt lat="42.74256884163348" lon="11.870053487817174"><ele>393.0</ele><time>2026-04-25T10:03:25Z</time></trkpt><trkpt lat="42.742593518535315" lon="11.87024860610308"><ele>392.0</ele><time>2026-04-25T10:03:26Z</time></trkpt><trkpt lat="42.7426014694699" lon="11.87043001525152"><ele>391.0</ele><time>2026-04-25T10:03:27Z</time></trkpt><trkpt lat="42.74258413420215" lon="11.870613328897901"><ele>390.0</ele><time>2026-04-25T10:03:28Z</time></trkpt><trkpt lat="42.74253261132194" lon="11.870791947959468"><ele>389.0</ele><time>2026-04-25T10:03:29Z</time></trkpt><trkpt lat="42.74246482863715" lon="11.870970956891526"><ele>388.25</ele><time>2026-04-25T10:03:30Z</time></trkpt><trkpt lat="42.74239739048461" lon="11.871133858378391"><ele>387.5</ele><time>2026-04-25T10:03:31Z</time></trkpt><trkpt lat="42.74233717557032" lon="11.87127758184862"><ele>386.75</ele><time>2026-04-25T10:03:32Z</time></trkpt><trkpt lat="42.742277349384594" lon="11.871413355749524"><ele>386.0</ele><time>2026-04-25T10:03:33Z</time></trkpt><trkpt lat="42.742227136174556" lon="11.871573689930555"><ele>386.0</ele><time>2026-04-25T10:03:34Z</time></trkpt><trkpt lat="42.74216775745297" lon="11.871741767279156"><ele>386.0</ele><time>2026-04-25T10:03:35Z</time></trkpt><trkpt lat="42.742125315732146" lon="11.87192975616444"><ele>386.0</ele><time>2026-04-25T10:03:36Z</time></trkpt><trkpt lat="42.742072646930374" lon="11.872124307604848"><ele>386.0</ele><time>2026-04-25T10:03:37Z</time></trkpt><trkpt lat="42.74203978208092" lon="11.87232855158316"><ele>387.3333333333333</ele><time>2026-04-25T10:03:38Z</time></trkpt><trkpt lat="42.742023735473616" lon="11.872537946362817"><ele>388.66666666666663</ele><time>2026-04-25T10:03:39Z</time></trkpt><trkpt lat="42.74199037165168" lon="11.872740410317459"><ele>390.0</ele><time>2026-04-25T10:03:40Z</time></trkpt><trkpt lat="42.74194468714004" lon="11.872943067615696"><ele>389.66666666666663</ele><time>2026-04-25T10:03:41Z</time></trkpt><trkpt lat="42.741909501551504" lon="11.873159477476582"><ele>389.3333333333333</ele><time>2026-04-25T10:03:42Z</time></trkpt><trkpt lat="42.74187276520888" lon="11.87339017099831"><ele>389.0</ele><time>2026-04-25T10:03:42.999Z</time></trkpt><trkpt lat="42.74185193968069" lon="11.87361482682693"><ele>390.0</ele><time>2026-04-25T10:03:43.999Z</time></trkpt><trkpt lat="42.74182217686368" lon="11.873809706210787"><ele>391.0</ele><time>2026-04-25T10:03:44.999Z</time></trkpt><trkpt lat="42.74179633663542" lon="11.873981708644205"><ele>392.0</ele><time>2026-04-25T10:03:45.999Z</time></trkpt><trkpt lat="42.74177405078328" lon="11.874124146137719"><ele>393.0</ele><time>2026-04-25T10:03:46.999Z</time></trkpt><trkpt lat="42.74173547872767" lon="11.87424718432962"><ele>395.25</ele><time>2026-04-25T10:03:47.999Z</time></trkpt><trkpt lat="42.74172795123893" lon="11.874390824683246"><ele>397.5</ele><time>2026-04-25T10:03:48.999Z</time></trkpt><trkpt lat="42.74168978181515" lon="11.87453123052542"><ele>399.75</ele><time>2026-04-25T10:03:49.999Z</time></trkpt><trkpt lat="42.741665433332095" lon="11.874681998892397"><ele>402.0</ele><time>2026-04-25T10:03:50.999Z</time></trkpt><trkpt lat="42.74163802599344" lon="11.874851708352553"><ele>402.0</ele><time>2026-04-25T10:03:51.999Z</time></trkpt><trkpt lat="42.7416253303305" lon="11.875039413413766"><ele>402.0</ele><time>2026-04-25T10:03:52.999Z</time></trkpt><trkpt lat="42.74158876342214" lon="11.875239266957612"><ele>402.0</ele><time>2026-04-25T10:03:53.999Z</time></trkpt><trkpt lat="42.74155274101459" lon="11.875448050545119"><ele>402.0</ele><time>2026-04-25T10:03:54.999Z</time></trkpt><trkpt lat="42.74151822404755" lon="11.87565661654806"><ele>402.66666666666663</ele><time>2026-04-25T10:03:55.999Z</time></trkpt><trkpt lat="42.741483234115655" lon="11.875866249185243"><ele>403.3333333333333</ele><time>2026-04-25T10:03:56.999Z</time></trkpt><trkpt lat="42.74144887101108" lon="11.876072889479255"><ele>404.0</ele><time>2026-04-25T10:03:57.999Z</time></trkpt><trkpt lat="42.74141609899795" lon="11.876280818860566"><ele>404.0</ele><time>2026-04-25T10:03:58.999Z</time></trkpt><trkpt lat="42.74138479296211" lon="11.876487407402642"><ele>404.0</ele><time>2026-04-25T10:03:59.999Z</time></trkpt><trkpt lat="42.741350873747024" lon="11.876695695411703"><ele>404.0</ele><time>2026-04-25T10:04:00.999Z</time></trkpt><trkpt lat="42.741315688495405" lon="11.876908661943146"><ele>405.0</ele><time>2026-04-25T10:04:01.999Z</time></trkpt><trkpt lat="42.7412802696601" lon="11.877128875829143"><ele>406.0</ele><time>2026-04-25T10:04:02.999Z</time></trkpt><trkpt lat="42.74124669361411" lon="11.877337455892329"><ele>407.0</ele><time>2026-04-25T10:04:03.999Z</time></trkpt><trkpt lat="42.741211982526515" lon="11.877542675522536"><ele>407.66666666666663</ele><time>2026-04-25T10:04:04.999Z</time></trkpt><trkpt lat="42.741176560636845" lon="11.877748550768185"><ele>408.33333333333337</ele><time>2026-04-25T10:04:05.999Z</time></trkpt><trkpt lat="42.74114433719075" lon="11.877957143073441"><ele>409.0</ele><time>2026-04-25T10:04:06.999Z</time></trkpt><trkpt lat="42.74110876662048" lon="11.878171634802607"><ele>409.0</ele><time>2026-04-25T10:04:07.999Z</time></trkpt><trkpt lat="42.74106876343364" lon="11.878394763662028"><ele>409.0</ele><time>2026-04-25T10:04:08.999Z</time></trkpt><trkpt lat="42.74102206271348" lon="11.878614094567492"><ele>409.0</ele><time>2026-04-25T10:04:09.999Z</time></trkpt><trkpt lat="42.74096627724307" lon="11.878835944326834"><ele>408.6666666666667</ele><time>2026-04-25T10:04:10.999Z</time></trkpt><trkpt lat="42.74089671238216" lon="11.87906454996874"><ele>408.33333333333337</ele><time>2026-04-25T10:04:11.999Z</time></trkpt><trkpt lat="42.74080753215641" lon="11.879294273943664"><ele>408.0</ele><time>2026-04-25T10:04:12.999Z</time></trkpt><trkpt lat="42.740702726380384" lon="11.879521485965146"><ele>408.0</ele><time>2026-04-25T10:04:13.999Z</time></trkpt><trkpt lat="42.74059209141883" lon="11.879750096876258"><ele>408.0</ele><time>2026-04-25T10:04:14.999Z</time></trkpt><trkpt lat="42.74047565713161" lon="11.879998914510411"><ele>408.0</ele><time>2026-04-25T10:04:15.999Z</time></trkpt><trkpt lat="42.740351862475364" lon="11.880259814471934"><ele>408.0</ele><time>2026-04-25T10:04:16.999Z</time></trkpt><trkpt lat="42.74022777013343" lon="11.880514067743505"><ele>408.0</ele><time>2026-04-25T10:04:17.999Z</time></trkpt><trkpt lat="42.74010592596415" lon="11.880765368608449"><ele>408.0</ele><time>2026-04-25T10:04:18.999Z</time></trkpt><trkpt lat="42.739983529695" lon="11.88101811285177"><ele>408.66666666666663</ele><time>2026-04-25T10:04:19.999Z</time></trkpt><trkpt lat="42.73986149126745" lon="11.88127243468283"><ele>409.3333333333333</ele><time>2026-04-25T10:04:20.999Z</time></trkpt><trkpt lat="42.7397371176469" lon="11.881529782774221"><ele>410.0</ele><time>2026-04-25T10:04:21.999Z</time></trkpt><trkpt lat="42.739606801875226" lon="11.881787983931092"><ele>412.5</ele><time>2026-04-25T10:04:22.999Z</time></trkpt><trkpt lat="42.739469344359776" lon="11.882039215778297"><ele>415.0</ele><time>2026-04-25T10:04:23.999Z</time></trkpt><trkpt lat="42.73931765550879" lon="11.882280605181688"><ele>415.5</ele><time>2026-04-25T10:04:24.999Z</time></trkpt><trkpt lat="42.73915543542564" lon="11.882510039646055"><ele>416.0</ele><time>2026-04-25T10:04:25.999Z</time></trkpt><trkpt lat="42.73897434534246" lon="11.882713737938687"><ele>421.0</ele><time>2026-04-25T10:04:26.999Z</time></trkpt><trkpt lat="42.73881262599692" lon="11.882938802869177"><ele>426.0</ele><time>2026-04-25T10:04:27.999Z</time></trkpt><trkpt lat="42.73864303460687" lon="11.883130522881729"><ele>425.66666666666663</ele><time>2026-04-25T10:04:28.999Z</time></trkpt><trkpt lat="42.7384848968231" lon="11.883304544356003"><ele>425.3333333333333</ele><time>2026-04-25T10:04:29.999Z</time></trkpt><trkpt lat="42.73833384084729" lon="11.88345262207559"><ele>425.0</ele><time>2026-04-25T10:04:30.999Z</time></trkpt><trkpt lat="42.73817974546242" lon="11.883568379526313"><ele>425.0</ele><time>2026-04-25T10:04:31.999Z</time></trkpt><trkpt lat="42.738011139355926" lon="11.883655501841478"><ele>425.0</ele><time>2026-04-25T10:04:32.999Z</time></trkpt><trkpt lat="42.73783127637223" lon="11.883699328984113"><ele>425.0</ele><time>2026-04-25T10:04:33.999Z</time></trkpt><trkpt lat="42.737642645024444" lon="11.883703509621848"><ele>425.0</ele><time>2026-04-25T10:04:34.999Z</time></trkpt><trkpt lat="42.737444835931086" lon="11.883690279591582"><ele>425.0</ele><time>2026-04-25T10:04:35.999Z</time></trkpt><trkpt lat="42.73724913714317" lon="11.883677994095423"><ele>425.0</ele><time>2026-04-25T10:04:36.999Z</time></trkpt><trkpt lat="42.73705813844186" lon="11.883669094613664"><ele>426.66666666666663</ele><time>2026-04-25T10:04:37.999Z</time></trkpt><trkpt lat="42.736876425331566" lon="11.883659445682893"><ele>428.33333333333337</ele><time>2026-04-25T10:04:38.999Z</time></trkpt><trkpt lat="42.73670476454135" lon="11.883647106474253"><ele>430.0</ele><time>2026-04-25T10:04:39.999Z</time></trkpt><trkpt lat="42.73654828202629" lon="11.883638825055517"><ele>430.0</ele><time>2026-04-25T10:04:40.999Z</time></trkpt><trkpt lat="42.73640342612465" lon="11.883632587780413"><ele>430.0</ele><time>2026-04-25T10:04:41.999Z</time></trkpt><trkpt lat="42.73626970213798" lon="11.883626979842665"><ele>430.0</ele><time>2026-04-25T10:04:42.999Z</time></trkpt><trkpt lat="42.73614586837897" lon="11.883623594074065"><ele>430.0</ele><time>2026-04-25T10:04:43.999Z</time></trkpt><trkpt lat="42.736027159153146" lon="11.88362016666528"><ele>430.75</ele><time>2026-04-25T10:04:44.999Z</time></trkpt><trkpt lat="42.73591461970173" lon="11.883617096564496"><ele>431.5</ele><time>2026-04-25T10:04:45.999Z</time></trkpt><trkpt lat="42.735796307947645" lon="11.883620010976458"><ele>432.25</ele><time>2026-04-25T10:04:46.999Z</time></trkpt><trkpt lat="42.73567468186158" lon="11.883638581027208"><ele>433.0</ele><time>2026-04-25T10:04:47.999Z</time></trkpt><trkpt lat="42.735549192882566" lon="11.883648008438385"><ele>433.0</ele><time>2026-04-25T10:04:48.999Z</time></trkpt><trkpt lat="42.73543035832823" lon="11.883711096458129"><ele>433.0</ele><time>2026-04-25T10:04:49.999Z</time></trkpt><trkpt lat="42.735309044622326" lon="11.883756239422544"><ele>433.0</ele><time>2026-04-25T10:04:50.999Z</time></trkpt><trkpt lat="42.73518473907842" lon="11.883783827909866"><ele>433.0</ele><time>2026-04-25T10:04:51.999Z</time></trkpt><trkpt lat="42.73506133576668" lon="11.883829310391377"><ele>432.75</ele><time>2026-04-25T10:04:53Z</time></trkpt><trkpt lat="42.734935202803605" lon="11.88387150012967"><ele>432.5</ele><time>2026-04-25T10:04:54Z</time></trkpt><trkpt lat="42.73480791558324" lon="11.883929750575097"><ele>432.25</ele><time>2026-04-25T10:04:55Z</time></trkpt><trkpt lat="42.73467078534396" lon="11.883966028747572"><ele>432.0</ele><time>2026-04-25T10:04:56Z</time></trkpt><trkpt lat="42.73453059820877" lon="11.884002323471226"><ele>432.0</ele><time>2026-04-25T10:04:57Z</time></trkpt><trkpt lat="42.73438323012171" lon="11.884039775544247"><ele>432.0</ele><time>2026-04-25T10:04:58Z</time></trkpt><trkpt lat="42.73423323705137" lon="11.884073090988872"><ele>432.0</ele><time>2026-04-25T10:04:59Z</time></trkpt><trkpt lat="42.73408457764775" lon="11.884093694001502"><ele>432.0</ele><time>2026-04-25T10:05:00Z</time></trkpt><trkpt lat="42.73393418278629" lon="11.884106694016973"><ele>432.0</ele><time>2026-04-25T10:05:01Z</time></trkpt><trkpt lat="42.733783139410086" lon="11.884119670211996"><ele>432.0</ele><time>2026-04-25T10:05:02Z</time></trkpt><trkpt lat="42.73363001108504" lon="11.884132411975825"><ele>432.66666666666663</ele><time>2026-04-25T10:05:03Z</time></trkpt><trkpt lat="42.73347397346372" lon="11.884145483533183"><ele>433.3333333333333</ele><time>2026-04-25T10:05:04Z</time></trkpt><trkpt lat="42.73331894736353" lon="11.884155617594153"><ele>434.0</ele><time>2026-04-25T10:05:05Z</time></trkpt><trkpt lat="42.73316495576025" lon="11.88416580532959"><ele>434.0</ele><time>2026-04-25T10:05:06Z</time></trkpt><trkpt lat="42.73301565655119" lon="11.884186548166145"><ele>434.0</ele><time>2026-04-25T10:05:07Z</time></trkpt><trkpt lat="42.732865366584015" lon="11.884211094780625"><ele>434.0</ele><time>2026-04-25T10:05:08Z</time></trkpt><trkpt lat="42.732718081525604" lon="11.884234456773454"><ele>434.5</ele><time>2026-04-25T10:05:09Z</time></trkpt><trkpt lat="42.73257011771828" lon="11.884257756657918"><ele>435.0</ele><time>2026-04-25T10:05:10Z</time></trkpt><trkpt lat="42.7324215532882" lon="11.884279175185615"><ele>435.5</ele><time>2026-04-25T10:05:11Z</time></trkpt><trkpt lat="42.73227433992977" lon="11.88430093981826"><ele>436.0</ele><time>2026-04-25T10:05:12Z</time></trkpt><trkpt lat="42.73213199792786" lon="11.884318606451009"><ele>434.75</ele><time>2026-04-25T10:05:13Z</time></trkpt><trkpt lat="42.731995960123115" lon="11.884331300401087"><ele>433.5</ele><time>2026-04-25T10:05:14Z</time></trkpt><trkpt lat="42.73186104652248" lon="11.884340092317004"><ele>432.25</ele><time>2026-04-25T10:05:15Z</time></trkpt><trkpt lat="42.73172233961177" lon="11.884346918233366"><ele>431.0</ele><time>2026-04-25T10:05:16Z</time></trkpt><trkpt lat="42.73158413374563" lon="11.884354937942161"><ele>431.0</ele><time>2026-04-25T10:05:17Z</time></trkpt><trkpt lat="42.731451657827456" lon="11.88436306034897"><ele>431.0</ele><time>2026-04-25T10:05:18Z</time></trkpt><trkpt lat="42.73131710656304" lon="11.884379373975872"><ele>431.0</ele><time>2026-04-25T10:05:19Z</time></trkpt><trkpt lat="42.73119404855454" lon="11.884407656714354"><ele>431.0</ele><time>2026-04-25T10:05:20Z</time></trkpt><trkpt lat="42.73107483923004" lon="11.884439311893878"><ele>431.5</ele><time>2026-04-25T10:05:21Z</time></trkpt><trkpt lat="42.73095283695474" lon="11.88447999366082"><ele>432.0</ele><time>2026-04-25T10:05:22Z</time></trkpt><trkpt lat="42.7308286169778" lon="11.88452305963941"><ele>432.5</ele><time>2026-04-25T10:05:23Z</time></trkpt><trkpt lat="42.73069515911646" lon="11.884564403740047"><ele>433.0</ele><time>2026-04-25T10:05:24Z</time></trkpt><trkpt lat="42.73055467399464" lon="11.88459942428054"><ele>433.0</ele><time>2026-04-25T10:05:25Z</time></trkpt><trkpt lat="42.730412521429045" lon="11.884625784175121"><ele>433.0</ele><time>2026-04-25T10:05:26Z</time></trkpt><trkpt lat="42.730273655310576" lon="11.88464665830768"><ele>433.0</ele><time>2026-04-25T10:05:27Z</time></trkpt><trkpt lat="42.73013599014669" lon="11.884662523145188"><ele>433.0</ele><time>2026-04-25T10:05:28Z</time></trkpt><trkpt lat="42.7299995949952" lon="11.88467422720365"><ele>433.5</ele><time>2026-04-25T10:05:29Z</time></trkpt><trkpt lat="42.729864679197135" lon="11.884693715232654"><ele>434.0</ele><time>2026-04-25T10:05:30Z</time></trkpt><trkpt lat="42.729727911627805" lon="11.884725517526544"><ele>434.5</ele><time>2026-04-25T10:05:31Z</time></trkpt><trkpt lat="42.72959309422264" lon="11.884773678583025"><ele>435.0</ele><time>2026-04-25T10:05:32Z</time></trkpt><trkpt lat="42.72946251149484" lon="11.884837742266484"><ele>435.0</ele><time>2026-04-25T10:05:33Z</time></trkpt><trkpt lat="42.729336170991225" lon="11.884914544146616"><ele>435.0</ele><time>2026-04-25T10:05:34Z</time></trkpt><trkpt lat="42.729213923928654" lon="11.885004885331185"><ele>435.0</ele><time>2026-04-25T10:05:35Z</time></trkpt><trkpt lat="42.72909425734053" lon="11.885109175168768"><ele>435.0</ele><time>2026-04-25T10:05:36Z</time></trkpt><trkpt lat="42.728976174582314" lon="11.88522603062479"><ele>434.66666666666663</ele><time>2026-04-25T10:05:37Z</time></trkpt><trkpt lat="42.72885736925391" lon="11.885360278382635"><ele>434.3333333333333</ele><time>2026-04-25T10:05:38Z</time></trkpt><trkpt lat="42.72873489357196" lon="11.885510649823559"><ele>434.0</ele><time>2026-04-25T10:05:39Z</time></trkpt><trkpt lat="42.728610487197074" lon="11.8856677186472"><ele>434.0</ele><time>2026-04-25T10:05:40Z</time></trkpt><trkpt lat="42.72847792459178" lon="11.885831888973545"><ele>434.0</ele><time>2026-04-25T10:05:41Z</time></trkpt><trkpt lat="42.72831983921771" lon="11.885994316742845"><ele>434.0</ele><time>2026-04-25T10:05:42Z</time></trkpt><trkpt lat="42.72816373274567" lon="11.886180553030304"><ele>434.0</ele><time>2026-04-25T10:05:43Z</time></trkpt><trkpt lat="42.72798834238523" lon="11.886391704123781"><ele>434.0</ele><time>2026-04-25T10:05:44Z</time></trkpt><trkpt lat="42.727813542489045" lon="11.886622877700828"><ele>435.5</ele><time>2026-04-25T10:05:45Z</time></trkpt><trkpt lat="42.72763366530092" lon="11.886831211354133"><ele>437.0</ele><time>2026-04-25T10:05:46Z</time></trkpt><trkpt lat="42.727453597608175" lon="11.887049621882802"><ele>437.0</ele><time>2026-04-25T10:05:47Z</time></trkpt><trkpt lat="42.727267416238355" lon="11.88727232296023"><ele>437.0</ele><time>2026-04-25T10:05:48Z</time></trkpt><trkpt lat="42.72708137509621" lon="11.887493468732224"><ele>439.0</ele><time>2026-04-25T10:05:49Z</time></trkpt><trkpt lat="42.726897714485176" lon="11.887713993521512"><ele>441.0</ele><time>2026-04-25T10:05:50Z</time></trkpt><trkpt lat="42.726721231955814" lon="11.887936375706511"><ele>441.0</ele><time>2026-04-25T10:05:51Z</time></trkpt><trkpt lat="42.72654997378612" lon="11.88815190179745"><ele>441.0</ele><time>2026-04-25T10:05:52Z</time></trkpt><trkpt lat="42.72638557585914" lon="11.888363021498316"><ele>441.5</ele><time>2026-04-25T10:05:53Z</time></trkpt><trkpt lat="42.72623096585711" lon="11.888583050683696"><ele>442.0</ele><time>2026-04-25T10:05:54Z</time></trkpt><trkpt lat="42.7260745000396" lon="11.888809506752533"><ele>442.0</ele><time>2026-04-25T10:05:55Z</time></trkpt><trkpt lat="42.72591705103323" lon="11.889034110607806"><ele>442.0</ele><time>2026-04-25T10:05:56Z</time></trkpt><trkpt lat="42.725761010013336" lon="11.889259429164092"><ele>442.0</ele><time>2026-04-25T10:05:57Z</time></trkpt><trkpt lat="42.72560552433378" lon="11.889485521001708"><ele>442.0</ele><time>2026-04-25T10:05:58Z</time></trkpt><trkpt lat="42.725447302525176" lon="11.889706353969192"><ele>442.0</ele><time>2026-04-25T10:05:59Z</time></trkpt><trkpt lat="42.7252813886193" lon="11.889916812347188"><ele>442.0</ele><time>2026-04-25T10:05:59.999Z</time></trkpt><trkpt lat="42.7251053392664" lon="11.890107224583165"><ele>442.0</ele><time>2026-04-25T10:06:00.999Z</time></trkpt><trkpt lat="42.72492535144465" lon="11.890287131579226"><ele>442.0</ele><time>2026-04-25T10:06:01.999Z</time></trkpt><trkpt lat="42.72474291073107" lon="11.890459902872921"><ele>442.0</ele><time>2026-04-25T10:06:02.999Z</time></trkpt><trkpt lat="42.72455274850329" lon="11.890620916767498"><ele>442.5</ele><time>2026-04-25T10:06:03.999Z</time></trkpt><trkpt lat="42.72435039947301" lon="11.890769384190614"><ele>443.0</ele><time>2026-04-25T10:06:04.999Z</time></trkpt><trkpt lat="42.72413590053711" lon="11.890908044705878"><ele>442.5</ele><time>2026-04-25T10:06:05.999Z</time></trkpt><trkpt lat="42.72390887973221" lon="11.891042288815092"><ele>442.0</ele><time>2026-04-25T10:06:06.999Z</time></trkpt><trkpt lat="42.72367396149939" lon="11.89118016218047"><ele>441.5</ele><time>2026-04-25T10:06:07.999Z</time></trkpt><trkpt lat="42.723435244486666" lon="11.89131683782775"><ele>441.0</ele><time>2026-04-25T10:06:08.999Z</time></trkpt><trkpt lat="42.72319626418107" lon="11.89144283865358"><ele>441.0</ele><time>2026-04-25T10:06:09.999Z</time></trkpt><trkpt lat="42.72296143389046" lon="11.891564194684836"><ele>441.0</ele><time>2026-04-25T10:06:10.999Z</time></trkpt><trkpt lat="42.72273738702493" lon="11.891680835591014"><ele>442.33333333333337</ele><time>2026-04-25T10:06:11.999Z</time></trkpt><trkpt lat="42.72252634210795" lon="11.89178995056035"><ele>443.6666666666667</ele><time>2026-04-25T10:06:12.999Z</time></trkpt><trkpt lat="42.72232359095754" lon="11.891892741687654"><ele>445.0</ele><time>2026-04-25T10:06:13.999Z</time></trkpt><trkpt lat="42.72212005350772" lon="11.89199490064248"><ele>445.0</ele><time>2026-04-25T10:06:14.999Z</time></trkpt><trkpt lat="42.72191478087798" lon="11.89209980778606"><ele>445.0</ele><time>2026-04-25T10:06:15.999Z</time></trkpt><trkpt lat="42.72170793102736" lon="11.892202567403102"><ele>445.0</ele><time>2026-04-25T10:06:16.999Z</time></trkpt><trkpt lat="42.721503566267316" lon="11.892306545701567"><ele>445.0</ele><time>2026-04-25T10:06:17.999Z</time></trkpt><trkpt lat="42.72130132143018" lon="11.89241139661112"><ele>445.0</ele><time>2026-04-25T10:06:18.999Z</time></trkpt><trkpt lat="42.721100474774175" lon="11.892517927043768"><ele>445.0</ele><time>2026-04-25T10:06:19.999Z</time></trkpt><trkpt lat="42.7209013976435" lon="11.892619428322293"><ele>446.33333333333337</ele><time>2026-04-25T10:06:20.999Z</time></trkpt><trkpt lat="42.72070571738186" lon="11.892719831490092"><ele>447.66666666666663</ele><time>2026-04-25T10:06:21.999Z</time></trkpt><trkpt lat="42.720512589655954" lon="11.892833789384497"><ele>449.0</ele><time>2026-04-25T10:06:22.999Z</time></trkpt><trkpt lat="42.72031627978557" lon="11.89297284749866"><ele>447.0</ele><time>2026-04-25T10:06:23.999Z</time></trkpt><trkpt lat="42.720111157106196" lon="11.89312854353549"><ele>445.0</ele><time>2026-04-25T10:06:24.999Z</time></trkpt><trkpt lat="42.719904082505145" lon="11.893279116034632"><ele>445.0</ele><time>2026-04-25T10:06:25.999Z</time></trkpt><trkpt lat="42.719700754999835" lon="11.893434110849595"><ele>445.0</ele><time>2026-04-25T10:06:26.999Z</time></trkpt><trkpt lat="42.71950047865452" lon="11.893592958082648"><ele>444.5</ele><time>2026-04-25T10:06:27.999Z</time></trkpt><trkpt lat="42.71929931551961" lon="11.893747061084465"><ele>444.0</ele><time>2026-04-25T10:06:28.999Z</time></trkpt><trkpt lat="42.71909553773775" lon="11.89389331880587"><ele>444.0</ele><time>2026-04-25T10:06:29.999Z</time></trkpt><trkpt lat="42.71888184486397" lon="11.894024365192786"><ele>444.0</ele><time>2026-04-25T10:06:30.999Z</time></trkpt><trkpt lat="42.718658205364235" lon="11.894133368651918"><ele>444.0</ele><time>2026-04-25T10:06:31.999Z</time></trkpt><trkpt lat="42.718428502488294" lon="11.894227933860737"><ele>444.0</ele><time>2026-04-25T10:06:32.999Z</time></trkpt><trkpt lat="42.71819629572135" lon="11.894316669177488"><ele>444.5</ele><time>2026-04-25T10:06:33.999Z</time></trkpt><trkpt lat="42.7179641926435" lon="11.894405938907978"><ele>445.0</ele><time>2026-04-25T10:06:34.999Z</time></trkpt><trkpt lat="42.717735568704256" lon="11.894496603287498"><ele>445.0</ele><time>2026-04-25T10:06:35.999Z</time></trkpt><trkpt lat="42.717510449453876" lon="11.894589658287893"><ele>445.0</ele><time>2026-04-25T10:06:36.999Z</time></trkpt><trkpt lat="42.717288561574485" lon="11.894683232982599"><ele>445.0</ele><time>2026-04-25T10:06:37.999Z</time></trkpt><trkpt lat="42.71707071271592" lon="11.894777253626044"><ele>445.0</ele><time>2026-04-25T10:06:38.999Z</time></trkpt><trkpt lat="42.71685391704421" lon="11.894868730608634"><ele>445.0</ele><time>2026-04-25T10:06:39.999Z</time></trkpt><trkpt lat="42.716636244234216" lon="11.894958513655803"><ele>445.0</ele><time>2026-04-25T10:06:40.999Z</time></trkpt><trkpt lat="42.71641783472521" lon="11.895048046272741"><ele>445.5</ele><time>2026-04-25T10:06:41.999Z</time></trkpt><trkpt lat="42.71619698738688" lon="11.895134672392508"><ele>446.0</ele><time>2026-04-25T10:06:42.999Z</time></trkpt><trkpt lat="42.715975689459995" lon="11.895218761564992"><ele>446.0</ele><time>2026-04-25T10:06:43.999Z</time></trkpt><trkpt lat="42.71575397840958" lon="11.895305854612062"><ele>446.0</ele><time>2026-04-25T10:06:44.999Z</time></trkpt><trkpt lat="42.71553056818362" lon="11.895400187259634"><ele>446.0</ele><time>2026-04-25T10:06:45.999Z</time></trkpt><trkpt lat="42.71530501165415" lon="11.89550741129677"><ele>446.0</ele><time>2026-04-25T10:06:46.999Z</time></trkpt><trkpt lat="42.71507590490295" lon="11.895628599550328"><ele>446.0</ele><time>2026-04-25T10:06:47.999Z</time></trkpt><trkpt lat="42.71484277575342" lon="11.895761255585438"><ele>446.0</ele><time>2026-04-25T10:06:48.999Z</time></trkpt><trkpt lat="42.71461492333976" lon="11.89589595601325"><ele>447.0</ele><time>2026-04-25T10:06:49.999Z</time></trkpt><trkpt lat="42.71439228992738" lon="11.896027421212837"><ele>448.0</ele><time>2026-04-25T10:06:50.999Z</time></trkpt><trkpt lat="42.71417007696281" lon="11.89615687436805"><ele>448.0</ele><time>2026-04-25T10:06:51.999Z</time></trkpt><trkpt lat="42.713948282950625" lon="11.89628323242056"><ele>448.0</ele><time>2026-04-25T10:06:52.999Z</time></trkpt><trkpt lat="42.71372709530888" lon="11.896410242434964"><ele>447.5</ele><time>2026-04-25T10:06:53.999Z</time></trkpt><trkpt lat="42.71350762899811" lon="11.896536940351371"><ele>447.0</ele><time>2026-04-25T10:06:54.999Z</time></trkpt><trkpt lat="42.71328798154181" lon="11.896661806124667"><ele>448.0</ele><time>2026-04-25T10:06:55.999Z</time></trkpt><trkpt lat="42.71306733853593" lon="11.896782587216704"><ele>449.0</ele><time>2026-04-25T10:06:56.999Z</time></trkpt><trkpt lat="42.71284613426083" lon="11.896900308637587"><ele>447.5</ele><time>2026-04-25T10:06:57.999Z</time></trkpt><trkpt lat="42.712626256755044" lon="11.897023486395366"><ele>446.0</ele><time>2026-04-25T10:06:59.001Z</time></trkpt><trkpt lat="42.71240751380025" lon="11.897147901871248"><ele>446.0</ele><time>2026-04-25T10:07:00.001Z</time></trkpt><trkpt lat="42.712187009121934" lon="11.897269025613042"><ele>446.0</ele><time>2026-04-25T10:07:01.001Z</time></trkpt><trkpt lat="42.71196543591879" lon="11.897388891528605"><ele>446.0</ele><time>2026-04-25T10:07:02.001Z</time></trkpt><trkpt lat="42.71174355849172" lon="11.89751029726391"><ele>446.0</ele><time>2026-04-25T10:07:03.001Z</time></trkpt><trkpt lat="42.7115202174397" lon="11.897631430909403"><ele>445.5</ele><time>2026-04-25T10:07:04.001Z</time></trkpt><trkpt lat="42.711295237572635" lon="11.897748895874619"><ele>445.0</ele><time>2026-04-25T10:07:05.001Z</time></trkpt><trkpt lat="42.71106634540088" lon="11.897857766918474"><ele>445.0</ele><time>2026-04-25T10:07:06.001Z</time></trkpt><trkpt lat="42.7108341979683" lon="11.897958568136842"><ele>445.0</ele><time>2026-04-25T10:07:07.001Z</time></trkpt><trkpt lat="42.71060095067741" lon="11.898057832819088"><ele>445.0</ele><time>2026-04-25T10:07:08.001Z</time></trkpt><trkpt lat="42.7103695511881" lon="11.898162159406436"><ele>445.0</ele><time>2026-04-25T10:07:09.001Z</time></trkpt><trkpt lat="42.710141258082324" lon="11.898276653044205"><ele>445.5</ele><time>2026-04-25T10:07:10.001Z</time></trkpt><trkpt lat="42.70991632650154" lon="11.898403982572153"><ele>446.0</ele><time>2026-04-25T10:07:11.001Z</time></trkpt><trkpt lat="42.709688640337596" lon="11.898538219666863"><ele>446.0</ele><time>2026-04-25T10:07:12.001Z</time></trkpt><trkpt lat="42.709461276682056" lon="11.898671790845786"><ele>446.0</ele><time>2026-04-25T10:07:13Z</time></trkpt><trkpt lat="42.709235971116016" lon="11.898805092462508"><ele>447.5</ele><time>2026-04-25T10:07:14Z</time></trkpt><trkpt lat="42.70901001950458" lon="11.898936946940715"><ele>449.0</ele><time>2026-04-25T10:07:15Z</time></trkpt><trkpt lat="42.708785027815736" lon="11.89906812377715"><ele>449.0</ele><time>2026-04-25T10:07:16Z</time></trkpt><trkpt lat="42.70856067815664" lon="11.89919729494425"><ele>449.0</ele><time>2026-04-25T10:07:17Z</time></trkpt><trkpt lat="42.70833792776473" lon="11.899327317793514"><ele>448.5</ele><time>2026-04-25T10:07:18Z</time></trkpt><trkpt lat="42.70811737367977" lon="11.899457802769478"><ele>448.0</ele><time>2026-04-25T10:07:19Z</time></trkpt><trkpt lat="42.70789942158455" lon="11.899583109087851"><ele>448.5</ele><time>2026-04-25T10:07:20Z</time></trkpt><trkpt lat="42.70768154064699" lon="11.899699600686379"><ele>449.0</ele><time>2026-04-25T10:07:21Z</time></trkpt><trkpt lat="42.7074611611561" lon="11.899802888914524"><ele>449.0</ele><time>2026-04-25T10:07:22Z</time></trkpt><trkpt lat="42.70723653539262" lon="11.899890446023438"><ele>449.0</ele><time>2026-04-25T10:07:23Z</time></trkpt><trkpt lat="42.70700941782681" lon="11.899964192364783"><ele>449.0</ele><time>2026-04-25T10:07:24Z</time></trkpt><trkpt lat="42.70677840458495" lon="11.900025319341076"><ele>449.0</ele><time>2026-04-25T10:07:25Z</time></trkpt><trkpt lat="42.7065467634608" lon="11.900077564817122"><ele>449.0</ele><time>2026-04-25T10:07:26Z</time></trkpt><trkpt lat="42.70631451389596" lon="11.900128860186754"><ele>449.0</ele><time>2026-04-25T10:07:27Z</time></trkpt><trkpt lat="42.70608213197525" lon="11.900184241366844"><ele>449.5</ele><time>2026-04-25T10:07:28Z</time></trkpt><trkpt lat="42.70584762355739" lon="11.900240473277115"><ele>450.0</ele><time>2026-04-25T10:07:29Z</time></trkpt><trkpt lat="42.70561395012844" lon="11.900290394680326"><ele>450.0</ele><time>2026-04-25T10:07:30Z</time></trkpt><trkpt lat="42.70538303497179" lon="11.900332980206395"><ele>450.0</ele><time>2026-04-25T10:07:31Z</time></trkpt><trkpt lat="42.705151545041076" lon="11.900378652356022"><ele>450.5</ele><time>2026-04-25T10:07:32Z</time></trkpt><trkpt lat="42.704921132498676" lon="11.900435737064063"><ele>451.0</ele><time>2026-04-25T10:07:33Z</time></trkpt><trkpt lat="42.704690124146566" lon="11.900510095544238"><ele>451.0</ele><time>2026-04-25T10:07:34Z</time></trkpt><trkpt lat="42.704460386869734" lon="11.900602516877012"><ele>451.0</ele><time>2026-04-25T10:07:35Z</time></trkpt><trkpt lat="42.704231295367194" lon="11.90070055880573"><ele>452.5</ele><time>2026-04-25T10:07:36Z</time></trkpt><trkpt lat="42.70400303760332" lon="11.90079955133018"><ele>454.0</ele><time>2026-04-25T10:07:37Z</time></trkpt><trkpt lat="42.703773376805565" lon="11.900881673317064"><ele>455.0</ele><time>2026-04-25T10:07:38Z</time></trkpt><trkpt lat="42.703548329232106" lon="11.900948274858791"><ele>456.0</ele><time>2026-04-25T10:07:39Z</time></trkpt><trkpt lat="42.7033211893129" lon="11.901000226317468"><ele>456.0</ele><time>2026-04-25T10:07:40Z</time></trkpt><trkpt lat="42.70309544876255" lon="11.901021702701183"><ele>456.0</ele><time>2026-04-25T10:07:41Z</time></trkpt><trkpt lat="42.70286787031434" lon="11.901019082988327"><ele>455.5</ele><time>2026-04-25T10:07:42Z</time></trkpt><trkpt lat="42.702641954453945" lon="11.901014776150769"><ele>455.0</ele><time>2026-04-25T10:07:43Z</time></trkpt><trkpt lat="42.702412325651146" lon="11.901017456479694"><ele>455.0</ele><time>2026-04-25T10:07:44Z</time></trkpt><trkpt lat="42.70218345740207" lon="11.901013699139726"><ele>455.0</ele><time>2026-04-25T10:07:45Z</time></trkpt><trkpt lat="42.70195592335174" lon="11.901010397803791"><ele>455.5</ele><time>2026-04-25T10:07:46Z</time></trkpt><trkpt lat="42.70172860511681" lon="11.90101364794255"><ele>456.0</ele><time>2026-04-25T10:07:47Z</time></trkpt><trkpt lat="42.70150292711709" lon="11.901029832154633"><ele>456.0</ele><time>2026-04-25T10:07:48Z</time></trkpt><trkpt lat="42.70128061420875" lon="11.90106514182405"><ele>456.0</ele><time>2026-04-25T10:07:49Z</time></trkpt><trkpt lat="42.70106008413455" lon="11.901113744025832"><ele>456.0</ele><time>2026-04-25T10:07:50Z</time></trkpt><trkpt lat="42.70083552006381" lon="11.901163468251129"><ele>456.0</ele><time>2026-04-25T10:07:51Z</time></trkpt><trkpt lat="42.70060520125839" lon="11.901214897913327"><ele>456.0</ele><time>2026-04-25T10:07:52Z</time></trkpt><trkpt lat="42.7003698085527" lon="11.901280830568417"><ele>456.5</ele><time>2026-04-25T10:07:53Z</time></trkpt><trkpt lat="42.700131174522845" lon="11.901357718774095"><ele>457.0</ele><time>2026-04-25T10:07:54Z</time></trkpt><trkpt lat="42.69989803771829" lon="11.901438256113837"><ele>457.0</ele><time>2026-04-25T10:07:55Z</time></trkpt><trkpt lat="42.69966975523362" lon="11.901523020648355"><ele>457.0</ele><time>2026-04-25T10:07:56Z</time></trkpt><trkpt lat="42.69945503875117" lon="11.901601703393526"><ele>457.6666666666667</ele><time>2026-04-25T10:07:57Z</time></trkpt><trkpt lat="42.6992413115088" lon="11.901667168884421"><ele>458.33333333333337</ele><time>2026-04-25T10:07:58Z</time></trkpt><trkpt lat="42.699022895790314" lon="11.901709066754131"><ele>459.0</ele><time>2026-04-25T10:07:59Z</time></trkpt><trkpt lat="42.69880032502371" lon="11.901733151538263"><ele>461.5</ele><time>2026-04-25T10:08:00Z</time></trkpt><trkpt lat="42.69857393050708" lon="11.901773255121613"><ele>464.0</ele><time>2026-04-25T10:08:01Z</time></trkpt><trkpt lat="42.69834759590297" lon="11.901846602127373"><ele>464.0</ele><time>2026-04-25T10:08:02Z</time></trkpt><trkpt lat="42.69811661728534" lon="11.90194374780161"><ele>464.0</ele><time>2026-04-25T10:08:03Z</time></trkpt><trkpt lat="42.697880264789035" lon="11.902050614655606"><ele>462.0</ele><time>2026-04-25T10:08:04Z</time></trkpt><trkpt lat="42.69764256771791" lon="11.902160805486654"><ele>460.0</ele><time>2026-04-25T10:08:05Z</time></trkpt><trkpt lat="42.69740501171272" lon="11.90226817917816"><ele>460.0</ele><time>2026-04-25T10:08:06Z</time></trkpt><trkpt lat="42.69717082869075" lon="11.902373591035596"><ele>460.0</ele><time>2026-04-25T10:08:07Z</time></trkpt><trkpt lat="42.69693699607205" lon="11.902476513626025"><ele>460.5</ele><time>2026-04-25T10:08:08Z</time></trkpt><trkpt lat="42.69669945961047" lon="11.90255519871598"><ele>461.0</ele><time>2026-04-25T10:08:09Z</time></trkpt><trkpt lat="42.696458105834154" lon="11.902599604151195"><ele>462.0</ele><time>2026-04-25T10:08:10Z</time></trkpt><trkpt lat="42.69621432886276" lon="11.902617799659348"><ele>463.0</ele><time>2026-04-25T10:08:11Z</time></trkpt><trkpt lat="42.69597064952968" lon="11.902610273702326"><ele>463.5</ele><time>2026-04-25T10:08:12Z</time></trkpt><trkpt lat="42.695727379390476" lon="11.902594190453394"><ele>464.0</ele><time>2026-04-25T10:08:13Z</time></trkpt><trkpt lat="42.69548494814469" lon="11.902596812893234"><ele>464.0</ele><time>2026-04-25T10:08:14Z</time></trkpt><trkpt lat="42.69524297777276" lon="11.902616849555985"><ele>464.0</ele><time>2026-04-25T10:08:15Z</time></trkpt><trkpt lat="42.695000944354696" lon="11.902642874156426"><ele>464.0</ele><time>2026-04-25T10:08:16Z</time></trkpt><trkpt lat="42.69475915773303" lon="11.902678918323424"><ele>464.0</ele><time>2026-04-25T10:08:17Z</time></trkpt><trkpt lat="42.69451726399139" lon="11.902729004406458"><ele>465.0</ele><time>2026-04-25T10:08:17.999Z</time></trkpt><trkpt lat="42.6942743268668" lon="11.902779327261166"><ele>466.0</ele><time>2026-04-25T10:08:18.999Z</time></trkpt><trkpt lat="42.6940302727087" lon="11.902824628833871"><ele>466.0</ele><time>2026-04-25T10:08:19.999Z</time></trkpt><trkpt lat="42.69378887397592" lon="11.902870253879026"><ele>466.0</ele><time>2026-04-25T10:08:20.999Z</time></trkpt><trkpt lat="42.69354853342234" lon="11.902918261690713"><ele>466.5</ele><time>2026-04-25T10:08:21.999Z</time></trkpt><trkpt lat="42.693311328556604" lon="11.902964965802976"><ele>467.0</ele><time>2026-04-25T10:08:22.999Z</time></trkpt><trkpt lat="42.693075741760154" lon="11.903010511669992"><ele>467.0</ele><time>2026-04-25T10:08:23.999Z</time></trkpt><trkpt lat="42.69284241723754" lon="11.903054221136706"><ele>467.0</ele><time>2026-04-25T10:08:24.999Z</time></trkpt><trkpt lat="42.69261280997721" lon="11.90309583759783"><ele>467.3333333333333</ele><time>2026-04-25T10:08:25.999Z</time></trkpt><trkpt lat="42.6923867093071" lon="11.903138023232739"><ele>467.66666666666663</ele><time>2026-04-25T10:08:26.999Z</time></trkpt><trkpt lat="42.69217381422367" lon="11.903177884621472"><ele>468.0</ele><time>2026-04-25T10:08:27.999Z</time></trkpt><trkpt lat="42.69197084346962" lon="11.903214371952231"><ele>469.33333333333337</ele><time>2026-04-25T10:08:28.999Z</time></trkpt><trkpt lat="42.69177827248783" lon="11.903250403884517"><ele>470.6666666666667</ele><time>2026-04-25T10:08:29.999Z</time></trkpt><trkpt lat="42.691596356088425" lon="11.903284050872745"><ele>472.0</ele><time>2026-04-25T10:08:30.999Z</time></trkpt><trkpt lat="42.69142260797392" lon="11.90332337926583"><ele>472.0</ele><time>2026-04-25T10:08:31.999Z</time></trkpt><trkpt lat="42.6912489217919" lon="11.903377127938995"><ele>472.0</ele><time>2026-04-25T10:08:32.999Z</time></trkpt><trkpt lat="42.69107170926609" lon="11.903447707659526"><ele>472.0</ele><time>2026-04-25T10:08:33.999Z</time></trkpt><trkpt lat="42.69088904416699" lon="11.903537871500916"><ele>471.6666666666667</ele><time>2026-04-25T10:08:34.999Z</time></trkpt><trkpt lat="42.6906986864139" lon="11.903644225423296"><ele>471.33333333333337</ele><time>2026-04-25T10:08:35.999Z</time></trkpt><trkpt lat="42.690507943279016" lon="11.903753267136333"><ele>471.0</ele><time>2026-04-25T10:08:36.999Z</time></trkpt><trkpt lat="42.690317870766165" lon="11.903857973086128"><ele>473.0</ele><time>2026-04-25T10:08:37.999Z</time></trkpt><trkpt lat="42.690128699085825" lon="11.903950479388163"><ele>475.0</ele><time>2026-04-25T10:08:38.999Z</time></trkpt><trkpt lat="42.68994271865529" lon="11.904026454263606"><ele>477.0</ele><time>2026-04-25T10:08:39.999Z</time></trkpt><trkpt lat="42.68975829488017" lon="11.904070047414908"><ele>477.0</ele><time>2026-04-25T10:08:40.999Z</time></trkpt><trkpt lat="42.68957619402934" lon="11.904073538477354"><ele>477.0</ele><time>2026-04-25T10:08:41.999Z</time></trkpt><trkpt lat="42.68940366551242" lon="11.904048718755007"><ele>477.0</ele><time>2026-04-25T10:08:42.999Z</time></trkpt><trkpt lat="42.68924041219652" lon="11.904034036655284"><ele>478.33333333333337</ele><time>2026-04-25T10:08:43.999Z</time></trkpt><trkpt lat="42.689078579743835" lon="11.904046083860797"><ele>479.6666666666667</ele><time>2026-04-25T10:08:44.999Z</time></trkpt><trkpt lat="42.688915037442555" lon="11.904093096424653"><ele>481.0</ele><time>2026-04-25T10:08:45.999Z</time></trkpt><trkpt lat="42.68875040416771" lon="11.904177367153077"><ele>483.0</ele><time>2026-04-25T10:08:46.999Z</time></trkpt><trkpt lat="42.688584838078114" lon="11.904292047541613"><ele>485.0</ele><time>2026-04-25T10:08:47.999Z</time></trkpt><trkpt lat="42.68841097416533" lon="11.904417657881726"><ele>487.0</ele><time>2026-04-25T10:08:48.999Z</time></trkpt><trkpt lat="42.688239786896425" lon="11.90454137085573"><ele>487.0</ele><time>2026-04-25T10:08:49.999Z</time></trkpt><trkpt lat="42.68806999466842" lon="11.904660125584046"><ele>487.0</ele><time>2026-04-25T10:08:50.999Z</time></trkpt><trkpt lat="42.68790318422883" lon="11.904783462983971"><ele>487.0</ele><time>2026-04-25T10:08:51.999Z</time></trkpt><trkpt lat="42.687738942003975" lon="11.904903157057698"><ele>487.0</ele><time>2026-04-25T10:08:52.999Z</time></trkpt><trkpt lat="42.687576054798434" lon="11.905018370152126"><ele>487.0</ele><time>2026-04-25T10:08:53.999Z</time></trkpt><trkpt lat="42.687417101609704" lon="11.905133375379926"><ele>487.0</ele><time>2026-04-25T10:08:54.999Z</time></trkpt><trkpt lat="42.6872621215017" lon="11.905246390329152"><ele>488.33333333333337</ele><time>2026-04-25T10:08:55.999Z</time></trkpt><trkpt lat="42.687113159703095" lon="11.90535300494912"><ele>489.66666666666663</ele><time>2026-04-25T10:08:56.999Z</time></trkpt><trkpt lat="42.686967692727734" lon="11.905455024965883"><ele>491.0</ele><time>2026-04-25T10:08:57.999Z</time></trkpt><trkpt lat="42.686825881840676" lon="11.905554468314065"><ele>491.75</ele><time>2026-04-25T10:08:58.999Z</time></trkpt><trkpt lat="42.686687345636464" lon="11.905651181415331"><ele>492.5</ele><time>2026-04-25T10:08:59.999Z</time></trkpt><trkpt lat="42.68655923750771" lon="11.905739916327516"><ele>493.25</ele><time>2026-04-25T10:09:00.999Z</time></trkpt><trkpt lat="42.68644701717342" lon="11.90581833068989"><ele>494.0</ele><time>2026-04-25T10:09:01.999Z</time></trkpt><trkpt lat="42.68634163073479" lon="11.905894316700198"><ele>494.2</ele><time>2026-04-25T10:09:02.999Z</time></trkpt><trkpt lat="42.68624710541338" lon="11.905962635829544"><ele>494.4</ele><time>2026-04-25T10:09:03.999Z</time></trkpt><trkpt lat="42.68615703067547" lon="11.906021260946316"><ele>494.6</ele><time>2026-04-25T10:09:05.001Z</time></trkpt><trkpt lat="42.68607437239455" lon="11.906081315311837"><ele>494.8</ele><time>2026-04-25T10:09:06.001Z</time></trkpt><trkpt lat="42.686005782855844" lon="11.906136102234608"><ele>495.0</ele><time>2026-04-25T10:09:07.001Z</time></trkpt><trkpt lat="42.685909849162044" lon="11.906206887003066"><ele>495.0</ele><time>2026-04-25T10:09:09.001Z</time></trkpt><trkpt lat="42.68583388561494" lon="11.906262235346178"><ele>495.0</ele><time>2026-04-25T10:09:11.001Z</time></trkpt><trkpt lat="42.68577026124415" lon="11.906312505634496"><ele>495.0</ele><time>2026-04-25T10:09:13.001Z</time></trkpt><trkpt lat="42.68568133001824" lon="11.906383682799477"><ele>495.0</ele><time>2026-04-25T10:09:15.001Z</time></trkpt><trkpt lat="42.68556599363321" lon="11.906453808846656"><ele>495.0</ele><time>2026-04-25T10:09:17.001Z</time></trkpt><trkpt lat="42.68550469381808" lon="11.906501872459684"><ele>495.0</ele><time>2026-04-25T10:09:18.001Z</time></trkpt><trkpt lat="42.685441521014866" lon="11.906547396070538"><ele>495.0</ele><time>2026-04-25T10:09:19.001Z</time></trkpt><trkpt lat="42.68537991167679" lon="11.906587105210539"><ele>495.0</ele><time>2026-04-25T10:09:20.001Z</time></trkpt><trkpt lat="42.6853171418265" lon="11.906625906101128"><ele>495.0</ele><time>2026-04-25T10:09:21.001Z</time></trkpt><trkpt lat="42.685248081830224" lon="11.906671723972611"><ele>495.0</ele><time>2026-04-25T10:09:22.001Z</time></trkpt><trkpt lat="42.68517437418355" lon="11.906728323512171"><ele>495.0</ele><time>2026-04-25T10:09:23.001Z</time></trkpt><trkpt lat="42.685093562180356" lon="11.906788326180736"><ele>494.8</ele><time>2026-04-25T10:09:24.001Z</time></trkpt><trkpt lat="42.685008293559534" lon="11.906847913159908"><ele>494.6</ele><time>2026-04-25T10:09:25.001Z</time></trkpt><trkpt lat="42.68492199698208" lon="11.906906412490772"><ele>494.4</ele><time>2026-04-25T10:09:26Z</time></trkpt><trkpt lat="42.68483529979216" lon="11.90696691359662"><ele>494.2</ele><time>2026-04-25T10:09:27Z</time></trkpt><trkpt lat="42.684743590838906" lon="11.90703151422253"><ele>494.0</ele><time>2026-04-25T10:09:28Z</time></trkpt><trkpt lat="42.684653520367384" lon="11.90709734291993"><ele>494.0</ele><time>2026-04-25T10:09:29Z</time></trkpt><trkpt lat="42.68455887739863" lon="11.907171083859353"><ele>494.0</ele><time>2026-04-25T10:09:30Z</time></trkpt><trkpt lat="42.68446414524876" lon="11.907256943661753"><ele>494.0</ele><time>2026-04-25T10:09:31Z</time></trkpt><trkpt lat="42.684370669945515" lon="11.907361586324745"><ele>494.0</ele><time>2026-04-25T10:09:32Z</time></trkpt><trkpt lat="42.684279882750346" lon="11.90748478528036"><ele>491.25</ele><time>2026-04-25T10:09:33Z</time></trkpt><trkpt lat="42.68420116888695" lon="11.90762628414837"><ele>488.5</ele><time>2026-04-25T10:09:34Z</time></trkpt><trkpt lat="42.68413418171241" lon="11.907787500965863"><ele>485.75</ele><time>2026-04-25T10:09:35Z</time></trkpt><trkpt lat="42.68408708212976" lon="11.907958348539228"><ele>483.0</ele><time>2026-04-25T10:09:36Z</time></trkpt><trkpt lat="42.68406132301148" lon="11.908139151376064"><ele>483.0</ele><time>2026-04-25T10:09:37Z</time></trkpt><trkpt lat="42.68405312398752" lon="11.908320785159647"><ele>483.0</ele><time>2026-04-25T10:09:38Z</time></trkpt><trkpt lat="42.68406731388046" lon="11.908501377381816"><ele>483.0</ele><time>2026-04-25T10:09:39Z</time></trkpt><trkpt lat="42.68410300253699" lon="11.908678085820133"><ele>483.0</ele><time>2026-04-25T10:09:40Z</time></trkpt><trkpt lat="42.68415579957871" lon="11.908852335021802"><ele>481.0</ele><time>2026-04-25T10:09:41Z</time></trkpt><trkpt lat="42.684211599135445" lon="11.909023303181804"><ele>479.0</ele><time>2026-04-25T10:09:42Z</time></trkpt><trkpt lat="42.68427224574812" lon="11.909189935643557"><ele>477.0</ele><time>2026-04-25T10:09:43Z</time></trkpt><trkpt lat="42.68432625660422" lon="11.909365191894604"><ele>475.0</ele><time>2026-04-25T10:09:44Z</time></trkpt><trkpt lat="42.684382340463685" lon="11.909540989657174"><ele>477.0</ele><time>2026-04-25T10:09:45Z</time></trkpt><trkpt lat="42.68443881004218" lon="11.909712712754361"><ele>479.0</ele><time>2026-04-25T10:09:46Z</time></trkpt><trkpt lat="42.684489836859676" lon="11.909895743025844"><ele>481.0</ele><time>2026-04-25T10:09:47Z</time></trkpt><trkpt lat="42.684535402021915" lon="11.910085673244728"><ele>483.0</ele><time>2026-04-25T10:09:48Z</time></trkpt><trkpt lat="42.68457582569688" lon="11.91029211145016"><ele>484.0</ele><time>2026-04-25T10:09:49Z</time></trkpt><trkpt lat="42.68460260382116" lon="11.910507664102504"><ele>485.0</ele><time>2026-04-25T10:09:50Z</time></trkpt><trkpt lat="42.68460901200811" lon="11.910720268945768"><ele>486.0</ele><time>2026-04-25T10:09:51Z</time></trkpt><trkpt lat="42.68460752191904" lon="11.910929801591585"><ele>486.0</ele><time>2026-04-25T10:09:52Z</time></trkpt><trkpt lat="42.684607479451394" lon="11.91113492525082"><ele>486.0</ele><time>2026-04-25T10:09:53Z</time></trkpt><trkpt lat="42.684606158878324" lon="11.911339160301157"><ele>486.0</ele><time>2026-04-25T10:09:54Z</time></trkpt><trkpt lat="42.684611623047836" lon="11.911540032836177"><ele>486.0</ele><time>2026-04-25T10:09:54.999Z</time></trkpt><trkpt lat="42.68459911645837" lon="11.911737357684432"><ele>485.25</ele><time>2026-04-25T10:09:55.999Z</time></trkpt><trkpt lat="42.68461770991471" lon="11.91193454155645"><ele>484.5</ele><time>2026-04-25T10:09:56.999Z</time></trkpt><trkpt lat="42.68464369507786" lon="11.912131283010696"><ele>483.75</ele><time>2026-04-25T10:09:57.999Z</time></trkpt><trkpt lat="42.684674623823646" lon="11.912323132642056"><ele>483.0</ele><time>2026-04-25T10:09:58.999Z</time></trkpt><trkpt lat="42.68470754270234" lon="11.912517636824955"><ele>481.33333333333337</ele><time>2026-04-25T10:09:59.999Z</time></trkpt><trkpt lat="42.68474086892302" lon="11.912714547821693"><ele>479.6666666666667</ele><time>2026-04-25T10:10:00.999Z</time></trkpt><trkpt lat="42.68477534633003" lon="11.912918365904607"><ele>478.0</ele><time>2026-04-25T10:10:01.999Z</time></trkpt><trkpt lat="42.68481010300231" lon="11.913124047409267"><ele>478.0</ele><time>2026-04-25T10:10:02.999Z</time></trkpt><trkpt lat="42.68484374780913" lon="11.913323149161894"><ele>478.0</ele><time>2026-04-25T10:10:03.999Z</time></trkpt><trkpt lat="42.68487528891137" lon="11.913509801707038"><ele>478.0</ele><time>2026-04-25T10:10:04.999Z</time></trkpt><trkpt lat="42.68490492776774" lon="11.913692799233337"><ele>478.0</ele><time>2026-04-25T10:10:05.999Z</time></trkpt><trkpt lat="42.68492622238643" lon="11.913873366483474"><ele>476.25</ele><time>2026-04-25T10:10:06.999Z</time></trkpt><trkpt lat="42.684933131432544" lon="11.914058088612324"><ele>474.5</ele><time>2026-04-25T10:10:07.999Z</time></trkpt><trkpt lat="42.68492544802914" lon="11.914243561895713"><ele>472.75</ele><time>2026-04-25T10:10:08.999Z</time></trkpt><trkpt lat="42.6849037952789" lon="11.914426645771004"><ele>471.0</ele><time>2026-04-25T10:10:09.999Z</time></trkpt><trkpt lat="42.68488149949985" lon="11.914619954345858"><ele>469.75</ele><time>2026-04-25T10:10:10.999Z</time></trkpt><trkpt lat="42.684825048292204" lon="11.91479807912299"><ele>468.5</ele><time>2026-04-25T10:10:11.999Z</time></trkpt><trkpt lat="42.684756403429695" lon="11.914972151125273"><ele>467.25</ele><time>2026-04-25T10:10:12.999Z</time></trkpt><trkpt lat="42.68466666050061" lon="11.915142478491182"><ele>466.0</ele><time>2026-04-25T10:10:13.999Z</time></trkpt><trkpt lat="42.68455751238661" lon="11.915311852633568"><ele>466.0</ele><time>2026-04-25T10:10:14.999Z</time></trkpt><trkpt lat="42.6844394045543" lon="11.915485005883612"><ele>466.0</ele><time>2026-04-25T10:10:15.999Z</time></trkpt><trkpt lat="42.68432785399546" lon="11.915656991254647"><ele>466.0</ele><time>2026-04-25T10:10:16.999Z</time></trkpt><trkpt lat="42.684215973911066" lon="11.915835930704745"><ele>460.33333333333337</ele><time>2026-04-25T10:10:17.999Z</time></trkpt><trkpt lat="42.68410618806363" lon="11.916013381337553"><ele>454.66666666666663</ele><time>2026-04-25T10:10:18.999Z</time></trkpt><trkpt lat="42.68398620636893" lon="11.916163836807595"><ele>449.0</ele><time>2026-04-25T10:10:19.999Z</time></trkpt><trkpt lat="42.683879890294214" lon="11.916316635759003"><ele>449.0</ele><time>2026-04-25T10:10:20.999Z</time></trkpt><trkpt lat="42.68377733002846" lon="11.916463211980647"><ele>449.0</ele><time>2026-04-25T10:10:21.999Z</time></trkpt><trkpt lat="42.68368731845827" lon="11.916618949977185"><ele>449.0</ele><time>2026-04-25T10:10:22.999Z</time></trkpt><trkpt lat="42.68358489948416" lon="11.91674632720761"><ele>449.0</ele><time>2026-04-25T10:10:23.999Z</time></trkpt><trkpt lat="42.683477829168524" lon="11.916853655794872"><ele>448.0</ele><time>2026-04-25T10:10:24.999Z</time></trkpt><trkpt lat="42.6833586366937" lon="11.916922782693758"><ele>447.0</ele><time>2026-04-25T10:10:25.999Z</time></trkpt><trkpt lat="42.683219876467184" lon="11.916945806626785"><ele>446.0</ele><time>2026-04-25T10:10:26.999Z</time></trkpt><trkpt lat="42.68307455525205" lon="11.916919463869132"><ele>445.0</ele><time>2026-04-25T10:10:27.999Z</time></trkpt><trkpt lat="42.68292215765889" lon="11.916861985515421"><ele>444.33333333333337</ele><time>2026-04-25T10:10:28.998Z</time></trkpt><trkpt lat="42.68276255644362" lon="11.91678465072091"><ele>443.66666666666663</ele><time>2026-04-25T10:10:29.998Z</time></trkpt><trkpt lat="42.68259878944852" lon="11.916692605621696"><ele>443.0</ele><time>2026-04-25T10:10:30.998Z</time></trkpt><trkpt lat="42.68243774274468" lon="11.916593115332079"><ele>443.0</ele><time>2026-04-25T10:10:31.998Z</time></trkpt><trkpt lat="42.68228199336866" lon="11.916490592101209"><ele>443.0</ele><time>2026-04-25T10:10:32.998Z</time></trkpt><trkpt lat="42.682125888453456" lon="11.91639396407469"><ele>443.0</ele><time>2026-04-25T10:10:33.998Z</time></trkpt><trkpt lat="42.6819701533041" lon="11.91630305107162"><ele>443.0</ele><time>2026-04-25T10:10:34.998Z</time></trkpt><trkpt lat="42.68180877404547" lon="11.916221012999516"><ele>443.0</ele><time>2026-04-25T10:10:35.998Z</time></trkpt><trkpt lat="42.68164263687082" lon="11.916160754176778"><ele>443.0</ele><time>2026-04-25T10:10:36.998Z</time></trkpt><trkpt lat="42.68147352810244" lon="11.916136934088943"><ele>443.0</ele><time>2026-04-25T10:10:37.998Z</time></trkpt><trkpt lat="42.681304943273666" lon="11.916148379185296"><ele>443.0</ele><time>2026-04-25T10:10:38.998Z</time></trkpt><trkpt lat="42.68113634031533" lon="11.916191830141699"><ele>443.0</ele><time>2026-04-25T10:10:39.998Z</time></trkpt><trkpt lat="42.68097330661402" lon="11.916269330306823"><ele>440.3333333333333</ele><time>2026-04-25T10:10:40.998Z</time></trkpt><trkpt lat="42.6808189922606" lon="11.916375148024997"><ele>437.66666666666663</ele><time>2026-04-25T10:10:41.998Z</time></trkpt><trkpt lat="42.680676151994746" lon="11.916505276735736"><ele>435.0</ele><time>2026-04-25T10:10:42.998Z</time></trkpt><trkpt lat="42.6805328862333" lon="11.916641989145344"><ele>435.33333333333337</ele><time>2026-04-25T10:10:43.998Z</time></trkpt><trkpt lat="42.68041513665319" lon="11.916810791722986"><ele>435.6666666666667</ele><time>2026-04-25T10:10:44.998Z</time></trkpt><trkpt lat="42.68031369198143" lon="11.917017554985582"><ele>436.0</ele><time>2026-04-25T10:10:45.998Z</time></trkpt><trkpt lat="42.68021798656262" lon="11.917220615314749"><ele>432.6666666666667</ele><time>2026-04-25T10:10:46.998Z</time></trkpt><trkpt lat="42.680118962718744" lon="11.917415541255117"><ele>429.33333333333337</ele><time>2026-04-25T10:10:47.998Z</time></trkpt><trkpt lat="42.680011969759065" lon="11.91759356483752"><ele>426.0</ele><time>2026-04-25T10:10:48.998Z</time></trkpt><trkpt lat="42.67989758902156" lon="11.917747778264731"><ele>426.0</ele><time>2026-04-25T10:10:49.998Z</time></trkpt><trkpt lat="42.679782063290475" lon="11.917877373608581"><ele>426.0</ele><time>2026-04-25T10:10:50.998Z</time></trkpt><trkpt lat="42.67966817034873" lon="11.9179931765646"><ele>426.0</ele><time>2026-04-25T10:10:51.998Z</time></trkpt><trkpt lat="42.67955076998357" lon="11.91809712375647"><ele>426.0</ele><time>2026-04-25T10:10:52.998Z</time></trkpt><trkpt lat="42.67942447340357" lon="11.918210392916507"><ele>422.0</ele><time>2026-04-25T10:10:53.998Z</time></trkpt><trkpt lat="42.679275138177026" lon="11.91828948969205"><ele>418.0</ele><time>2026-04-25T10:10:54.998Z</time></trkpt><trkpt lat="42.67912002227415" lon="11.918353730732894"><ele>414.0</ele><time>2026-04-25T10:10:55.998Z</time></trkpt><trkpt lat="42.67896106910586" lon="11.918399859930656"><ele>414.33333333333337</ele><time>2026-04-25T10:10:56.998Z</time></trkpt><trkpt lat="42.678800728000716" lon="11.918437100179935"><ele>414.6666666666667</ele><time>2026-04-25T10:10:57.998Z</time></trkpt><trkpt lat="42.67864126281537" lon="11.918468654185611"><ele>415.0</ele><time>2026-04-25T10:10:58.998Z</time></trkpt><trkpt lat="42.67847543247568" lon="11.91849310020379"><ele>412.33333333333337</ele><time>2026-04-25T10:10:59.998Z</time></trkpt><trkpt lat="42.67830021225359" lon="11.918502287951053"><ele>409.66666666666663</ele><time>2026-04-25T10:11:00.998Z</time></trkpt><trkpt lat="42.67812698201743" lon="11.918499899734249"><ele>407.0</ele><time>2026-04-25T10:11:01.998Z</time></trkpt><trkpt lat="42.67794751700223" lon="11.918500739781342"><ele>405.3333333333333</ele><time>2026-04-25T10:11:02.998Z</time></trkpt><trkpt lat="42.6777670714481" lon="11.918505847685065"><ele>403.66666666666663</ele><time>2026-04-25T10:11:03.998Z</time></trkpt><trkpt lat="42.67758799778913" lon="11.918513504557547"><ele>402.0</ele><time>2026-04-25T10:11:04.998Z</time></trkpt><trkpt lat="42.677407668956235" lon="11.91852388221559"><ele>402.0</ele><time>2026-04-25T10:11:05.998Z</time></trkpt><trkpt lat="42.67722739844654" lon="11.918531586295586"><ele>402.0</ele><time>2026-04-25T10:11:06.998Z</time></trkpt><trkpt lat="42.67704535939352" lon="11.918533505659136"><ele>402.0</ele><time>2026-04-25T10:11:07.998Z</time></trkpt><trkpt lat="42.67686239025101" lon="11.918533879921062"><ele>401.0</ele><time>2026-04-25T10:11:08.998Z</time></trkpt><trkpt lat="42.67667652765634" lon="11.918542383115481"><ele>400.0</ele><time>2026-04-25T10:11:10Z</time></trkpt><trkpt lat="42.676490111269516" lon="11.918551248428068"><ele>399.0</ele><time>2026-04-25T10:11:11Z</time></trkpt><trkpt lat="42.6763029991199" lon="11.918559959370873"><ele>399.0</ele><time>2026-04-25T10:11:12Z</time></trkpt><trkpt lat="42.67611490821363" lon="11.918566991153787"><ele>399.0</ele><time>2026-04-25T10:11:13Z</time></trkpt><trkpt lat="42.675926059720936" lon="11.918569969395929"><ele>399.0</ele><time>2026-04-25T10:11:14Z</time></trkpt><trkpt lat="42.675737138754954" lon="11.918570348946268"><ele>397.33333333333337</ele><time>2026-04-25T10:11:15Z</time></trkpt><trkpt lat="42.675551701939526" lon="11.91857320204857"><ele>395.6666666666667</ele><time>2026-04-25T10:11:16Z</time></trkpt><trkpt lat="42.67537679387516" lon="11.918580818883267"><ele>394.0</ele><time>2026-04-25T10:11:17Z</time></trkpt><trkpt lat="42.675210449978465" lon="11.918588475059027"><ele>392.33333333333337</ele><time>2026-04-25T10:11:18Z</time></trkpt><trkpt lat="42.67504948454944" lon="11.918596086589421"><ele>390.66666666666663</ele><time>2026-04-25T10:11:19Z</time></trkpt><trkpt lat="42.6748931776094" lon="11.918601208004903"><ele>389.0</ele><time>2026-04-25T10:11:20Z</time></trkpt><trkpt lat="42.674740059187975" lon="11.918605424315157"><ele>389.0</ele><time>2026-04-25T10:11:21Z</time></trkpt><trkpt lat="42.674581507547614" lon="11.91860493169456"><ele>389.0</ele><time>2026-04-25T10:11:22Z</time></trkpt><trkpt lat="42.674420046355046" lon="11.918607208276091"><ele>389.0</ele><time>2026-04-25T10:11:23Z</time></trkpt><trkpt lat="42.67425264171881" lon="11.918613041108719"><ele>387.3333333333333</ele><time>2026-04-25T10:11:24Z</time></trkpt><trkpt lat="42.674081928066954" lon="11.918622094159272"><ele>385.66666666666663</ele><time>2026-04-25T10:11:25Z</time></trkpt><trkpt lat="42.673912980654855" lon="11.9186309976245"><ele>384.0</ele><time>2026-04-25T10:11:26Z</time></trkpt><trkpt lat="42.67375391942674" lon="11.918634351249409"><ele>384.0</ele><time>2026-04-25T10:11:27Z</time></trkpt><trkpt lat="42.67361273360107" lon="11.918639034568967"><ele>384.0</ele><time>2026-04-25T10:11:28Z</time></trkpt><trkpt lat="42.673482519810584" lon="11.918642521788083"><ele>384.0</ele><time>2026-04-25T10:11:29Z</time></trkpt><trkpt lat="42.673358731643745" lon="11.918646923848897"><ele>384.0</ele><time>2026-04-25T10:11:30Z</time></trkpt><trkpt lat="42.673243092240035" lon="11.918650869931158"><ele>382.79999999999995</ele><time>2026-04-25T10:11:31Z</time></trkpt><trkpt lat="42.67313476949635" lon="11.918654114673366"><ele>381.59999999999997</ele><time>2026-04-25T10:11:32Z</time></trkpt><trkpt lat="42.67302825526074" lon="11.918652626380883"><ele>380.4</ele><time>2026-04-25T10:11:33Z</time></trkpt><trkpt lat="42.67291821451021" lon="11.918656279463855"><ele>379.2</ele><time>2026-04-25T10:11:34Z</time></trkpt><trkpt lat="42.672806304017776" lon="11.9186625248595"><ele>378.0</ele><time>2026-04-25T10:11:35Z</time></trkpt><trkpt lat="42.67269438091202" lon="11.918670110076668"><ele>377.4</ele><time>2026-04-25T10:11:35.999Z</time></trkpt><trkpt lat="42.67258373186765" lon="11.918671617232695"><ele>376.79999999999995</ele><time>2026-04-25T10:11:36.999Z</time></trkpt><trkpt lat="42.672476948768704" lon="11.9186730484323"><ele>376.2</ele><time>2026-04-25T10:11:37.999Z</time></trkpt><trkpt lat="42.672378690098384" lon="11.918675174007118"><ele>375.6</ele><time>2026-04-25T10:11:38.999Z</time></trkpt><trkpt lat="42.67229424925857" lon="11.918676369627038"><ele>375.0</ele><time>2026-04-25T10:11:39.999Z</time></trkpt><trkpt lat="42.67222052612925" lon="11.918676086587253"><ele>375.0</ele><time>2026-04-25T10:11:40.999Z</time></trkpt><trkpt lat="42.67214734020216" lon="11.918678178746267"><ele>375.0</ele><time>2026-04-25T10:11:41.999Z</time></trkpt><trkpt lat="42.67207486184599" lon="11.918680459710819"><ele>375.0</ele><time>2026-04-25T10:11:42.999Z</time></trkpt><trkpt lat="42.67199958860918" lon="11.918683084375738"><ele>375.0</ele><time>2026-04-25T10:11:43.999Z</time></trkpt><trkpt lat="42.671909617748994" lon="11.91868620791588"><ele>375.0</ele><time>2026-04-25T10:11:44.999Z</time></trkpt><trkpt lat="42.67179636026867" lon="11.918693392401162"><ele>375.0</ele><time>2026-04-25T10:11:45.999Z</time></trkpt><trkpt lat="42.67166063394938" lon="11.918691363126298"><ele>376.6666666666667</ele><time>2026-04-25T10:11:46.999Z</time></trkpt><trkpt lat="42.67150826421198" lon="11.918691553637881"><ele>378.33333333333337</ele><time>2026-04-25T10:11:47.999Z</time></trkpt><trkpt lat="42.67131420336132" lon="11.91869391121133"><ele>380.0</ele><time>2026-04-25T10:11:48.999Z</time></trkpt><trkpt lat="42.671094199365" lon="11.918671582785413"><ele>380.6666666666667</ele><time>2026-04-25T10:11:49.999Z</time></trkpt><trkpt lat="42.67088433300695" lon="11.918618108679574"><ele>381.3333333333333</ele><time>2026-04-25T10:11:50.999Z</time></trkpt><trkpt lat="42.67067641102447" lon="11.918541257906895"><ele>382.0</ele><time>2026-04-25T10:11:51.999Z</time></trkpt><trkpt lat="42.67047567192387" lon="11.918446837346838"><ele>380.3333333333333</ele><time>2026-04-25T10:11:52.999Z</time></trkpt><trkpt lat="42.670281598124575" lon="11.91832602184"><ele>378.6666666666667</ele><time>2026-04-25T10:11:53.999Z</time></trkpt><trkpt lat="42.67009915719719" lon="11.918182135325477"><ele>377.0</ele><time>2026-04-25T10:11:54.999Z</time></trkpt><trkpt lat="42.66993319441077" lon="11.918021426581673"><ele>377.0</ele><time>2026-04-25T10:11:55.999Z</time></trkpt><trkpt lat="42.66978315184951" lon="11.917852788298394"><ele>377.0</ele><time>2026-04-25T10:11:56.999Z</time></trkpt><trkpt lat="42.66965048518595" lon="11.917678288529556"><ele>377.0</ele><time>2026-04-25T10:11:57.999Z</time></trkpt><trkpt lat="42.669533713790145" lon="11.9174965136403"><ele>376.0</ele><time>2026-04-25T10:11:58.999Z</time></trkpt><trkpt lat="42.66943130955991" lon="11.917307086966613"><ele>375.0</ele><time>2026-04-25T10:11:59.999Z</time></trkpt><trkpt lat="42.66933668405027" lon="11.917109043541378"><ele>374.0</ele><time>2026-04-25T10:12:00.999Z</time></trkpt><trkpt lat="42.66925002589313" lon="11.916907573098001"><ele>373.6666666666667</ele><time>2026-04-25T10:12:01.999Z</time></trkpt><trkpt lat="42.6691787439424" lon="11.91670488030688"><ele>373.3333333333333</ele><time>2026-04-25T10:12:02.999Z</time></trkpt><trkpt lat="42.6691250515725" lon="11.916492652893652"><ele>373.0</ele><time>2026-04-25T10:12:03.999Z</time></trkpt><trkpt lat="42.66908123406451" lon="11.916279773842177"><ele>373.0</ele><time>2026-04-25T10:12:04.999Z</time></trkpt><trkpt lat="42.66904194440355" lon="11.916069669213602"><ele>373.0</ele><time>2026-04-25T10:12:05.999Z</time></trkpt><trkpt lat="42.668998589845884" lon="11.915868412613545"><ele>373.0</ele><time>2026-04-25T10:12:06.999Z</time></trkpt><trkpt lat="42.668958157809406" lon="11.915673154187486"><ele>373.0</ele><time>2026-04-25T10:12:07.999Z</time></trkpt><trkpt lat="42.668923725428435" lon="11.915470729804372"><ele>373.0</ele><time>2026-04-25T10:12:08.999Z</time></trkpt><trkpt lat="42.66890787640133" lon="11.915260042197714"><ele>373.0</ele><time>2026-04-25T10:12:09.999Z</time></trkpt><trkpt lat="42.66891534445471" lon="11.915043650075905"><ele>371.0</ele><time>2026-04-25T10:12:10.999Z</time></trkpt><trkpt lat="42.66893806891826" lon="11.91482096313121"><ele>369.0</ele><time>2026-04-25T10:12:11.999Z</time></trkpt><trkpt lat="42.668971748661356" lon="11.914592591836584"><ele>367.0</ele><time>2026-04-25T10:12:12.999Z</time></trkpt><trkpt lat="42.66901370855945" lon="11.914367231872005"><ele>366.3333333333333</ele><time>2026-04-25T10:12:13.999Z</time></trkpt><trkpt lat="42.669047456579925" lon="11.91415470558398"><ele>365.6666666666667</ele><time>2026-04-25T10:12:14.999Z</time></trkpt><trkpt lat="42.66907597600705" lon="11.913946945690126"><ele>365.0</ele><time>2026-04-25T10:12:15.999Z</time></trkpt><trkpt lat="42.669103844084404" lon="11.913739972207681"><ele>365.0</ele><time>2026-04-25T10:12:16.999Z</time></trkpt><trkpt lat="42.66912516308908" lon="11.913522452038265"><ele>365.0</ele><time>2026-04-25T10:12:17.999Z</time></trkpt><trkpt lat="42.66912524237672" lon="11.913290289907122"><ele>365.0</ele><time>2026-04-25T10:12:18.999Z</time></trkpt><trkpt lat="42.66910442823462" lon="11.913043167329398"><ele>363.6666666666667</ele><time>2026-04-25T10:12:19.999Z</time></trkpt><trkpt lat="42.669072528016095" lon="11.912793987417292"><ele>362.3333333333333</ele><time>2026-04-25T10:12:20.999Z</time></trkpt><trkpt lat="42.669043068402395" lon="11.9125589833581"><ele>361.0</ele><time>2026-04-25T10:12:21.999Z</time></trkpt><trkpt lat="42.669014046398125" lon="11.912329767413857"><ele>359.0</ele><time>2026-04-25T10:12:22.999Z</time></trkpt><trkpt lat="42.668972459928604" lon="11.912111018163968"><ele>357.0</ele><time>2026-04-25T10:12:23.999Z</time></trkpt><trkpt lat="42.66891081719807" lon="11.911890269807223"><ele>355.0</ele><time>2026-04-25T10:12:24.999Z</time></trkpt><trkpt lat="42.66882898451818" lon="11.911671933612944"><ele>352.3333333333333</ele><time>2026-04-25T10:12:25.999Z</time></trkpt><trkpt lat="42.66873838384008" lon="11.911456965217628"><ele>349.6666666666667</ele><time>2026-04-25T10:12:26.999Z</time></trkpt><trkpt lat="42.66864361463286" lon="11.911245123230959"><ele>347.0</ele><time>2026-04-25T10:12:27.999Z</time></trkpt><trkpt lat="42.668555923528864" lon="11.911028351840036"><ele>350.6666666666667</ele><time>2026-04-25T10:12:28.999Z</time></trkpt><trkpt lat="42.66848383006324" lon="11.910799516183841"><ele>354.3333333333333</ele><time>2026-04-25T10:12:29.999Z</time></trkpt><trkpt lat="42.66842705180469" lon="11.910567093878415"><ele>358.0</ele><time>2026-04-25T10:12:30.999Z</time></trkpt><trkpt lat="42.66839014390654" lon="11.910337376353565"><ele>358.0</ele><time>2026-04-25T10:12:31.999Z</time></trkpt><trkpt lat="42.66836913427978" lon="11.910113321902033"><ele>358.0</ele><time>2026-04-25T10:12:32.999Z</time></trkpt><trkpt lat="42.66835425972378" lon="11.909903497240515"><ele>358.0</ele><time>2026-04-25T10:12:33.999Z</time></trkpt><trkpt lat="42.668326168165976" lon="11.909705552255396"><ele>356.0</ele><time>2026-04-25T10:12:34.999Z</time></trkpt><trkpt lat="42.668277788081326" lon="11.909514738665742"><ele>354.0</ele><time>2026-04-25T10:12:35.999Z</time></trkpt><trkpt lat="42.66820169206306" lon="11.909332898791618"><ele>352.0</ele><time>2026-04-25T10:12:36.999Z</time></trkpt><trkpt lat="42.668104406852784" lon="11.909158790896761"><ele>351.66666666666663</ele><time>2026-04-25T10:12:37.999Z</time></trkpt><trkpt lat="42.667992383418984" lon="11.909009488094778"><ele>351.3333333333333</ele><time>2026-04-25T10:12:38.999Z</time></trkpt><trkpt lat="42.66786585954459" lon="11.908897970719183"><ele>351.0</ele><time>2026-04-25T10:12:39.999Z</time></trkpt><trkpt lat="42.66772304293918" lon="11.908823625916352"><ele>351.0</ele><time>2026-04-25T10:12:40.998Z</time></trkpt><trkpt lat="42.66756833963503" lon="11.908776774893957"><ele>351.0</ele><time>2026-04-25T10:12:41.998Z</time></trkpt><trkpt lat="42.66740118681135" lon="11.908750774753221"><ele>351.0</ele><time>2026-04-25T10:12:42.998Z</time></trkpt><trkpt lat="42.667228629320974" lon="11.908740804361459"><ele>351.0</ele><time>2026-04-25T10:12:43.998Z</time></trkpt><trkpt lat="42.667058495924714" lon="11.908737974423161"><ele>351.0</ele><time>2026-04-25T10:12:44.998Z</time></trkpt><trkpt lat="42.666887810930184" lon="11.908731600238799"><ele>351.0</ele><time>2026-04-25T10:12:45.998Z</time></trkpt><trkpt lat="42.66671895135145" lon="11.908721517952928"><ele>351.3333333333333</ele><time>2026-04-25T10:12:46.998Z</time></trkpt><trkpt lat="42.666549270430174" lon="11.908717406837606"><ele>351.66666666666663</ele><time>2026-04-25T10:12:47.998Z</time></trkpt><trkpt lat="42.66637769973756" lon="11.908717334868875"><ele>352.0</ele><time>2026-04-25T10:12:48.998Z</time></trkpt><trkpt lat="42.666206304998624" lon="11.908714166673159"><ele>351.66666666666663</ele><time>2026-04-25T10:12:49.998Z</time></trkpt><trkpt lat="42.66603332606416" lon="11.908707901589208"><ele>351.3333333333333</ele><time>2026-04-25T10:12:50.998Z</time></trkpt><trkpt lat="42.665860602458864" lon="11.908692937421042"><ele>351.0</ele><time>2026-04-25T10:12:51.998Z</time></trkpt><trkpt lat="42.66569281418178" lon="11.90865058074987"><ele>351.0</ele><time>2026-04-25T10:12:52.998Z</time></trkpt><trkpt lat="42.66553322230122" lon="11.908594644053357"><ele>351.0</ele><time>2026-04-25T10:12:53.998Z</time></trkpt><trkpt lat="42.66537828533377" lon="11.908547318683603"><ele>351.0</ele><time>2026-04-25T10:12:54.998Z</time></trkpt><trkpt lat="42.665228079065734" lon="11.908507350989593"><ele>349.3333333333333</ele><time>2026-04-25T10:12:55.998Z</time></trkpt><trkpt lat="42.66507829903321" lon="11.90847612711707"><ele>347.66666666666663</ele><time>2026-04-25T10:12:56.998Z</time></trkpt><trkpt lat="42.66491871731294" lon="11.908464614947379"><ele>346.0</ele><time>2026-04-25T10:12:57.998Z</time></trkpt><trkpt lat="42.66474753914833" lon="11.908479213122877"><ele>346.0</ele><time>2026-04-25T10:12:58.998Z</time></trkpt><trkpt lat="42.66456939367501" lon="11.908522543441089"><ele>346.0</ele><time>2026-04-25T10:12:59.998Z</time></trkpt><trkpt lat="42.66439068140735" lon="11.908585198012299"><ele>346.0</ele><time>2026-04-25T10:13:00.998Z</time></trkpt><trkpt lat="42.66421251321968" lon="11.908645447123423"><ele>342.3333333333333</ele><time>2026-04-25T10:13:01.998Z</time></trkpt><trkpt lat="42.66403681325167" lon="11.908699666169397"><ele>338.6666666666667</ele><time>2026-04-25T10:13:02.998Z</time></trkpt><trkpt lat="42.663862945407494" lon="11.908749207831264"><ele>335.0</ele><time>2026-04-25T10:13:03.998Z</time></trkpt><trkpt lat="42.6636960325744" lon="11.90880151795413"><ele>334.33333333333337</ele><time>2026-04-25T10:13:04.998Z</time></trkpt><trkpt lat="42.66353465427396" lon="11.90883860339624"><ele>333.6666666666667</ele><time>2026-04-25T10:13:05.998Z</time></trkpt><trkpt lat="42.66337521926119" lon="11.908839977874596"><ele>333.0</ele><time>2026-04-25T10:13:06.998Z</time></trkpt><trkpt lat="42.66321559760813" lon="11.908811763296207"><ele>333.0</ele><time>2026-04-25T10:13:07.998Z</time></trkpt><trkpt lat="42.663059492766536" lon="11.908770421638042"><ele>333.0</ele><time>2026-04-25T10:13:08.998Z</time></trkpt><trkpt lat="42.66290941088446" lon="11.908730474291568"><ele>333.0</ele><time>2026-04-25T10:13:09.998Z</time></trkpt><trkpt lat="42.66275680796991" lon="11.908693033741436"><ele>332.0</ele><time>2026-04-25T10:13:10.998Z</time></trkpt><trkpt lat="42.6625993219009" lon="11.908654674531526"><ele>331.0</ele><time>2026-04-25T10:13:11.998Z</time></trkpt><trkpt lat="42.662436227021566" lon="11.908620808750618"><ele>330.0</ele><time>2026-04-25T10:13:12.998Z</time></trkpt><trkpt lat="42.662268992547446" lon="11.90859693033522"><ele>330.0</ele><time>2026-04-25T10:13:13.998Z</time></trkpt><trkpt lat="42.66210437251583" lon="11.90856656867841"><ele>330.0</ele><time>2026-04-25T10:13:15Z</time></trkpt><trkpt lat="42.66195024956043" lon="11.908538705528704"><ele>330.0</ele><time>2026-04-25T10:13:16Z</time></trkpt><trkpt lat="42.661794055954516" lon="11.908517478977723"><ele>328.6666666666667</ele><time>2026-04-25T10:13:17Z</time></trkpt><trkpt lat="42.66163667935951" lon="11.908502838116823"><ele>327.33333333333337</ele><time>2026-04-25T10:13:18Z</time></trkpt><trkpt lat="42.66147441588562" lon="11.908505350889818"><ele>326.0</ele><time>2026-04-25T10:13:19Z</time></trkpt><trkpt lat="42.66130930352328" lon="11.90853752474993"><ele>326.0</ele><time>2026-04-25T10:13:20Z</time></trkpt><trkpt lat="42.66113492272438" lon="11.90859583144119"><ele>326.0</ele><time>2026-04-25T10:13:21Z</time></trkpt><trkpt lat="42.66094883706962" lon="11.90867421674963"><ele>326.0</ele><time>2026-04-25T10:13:22Z</time></trkpt><trkpt lat="42.66076539064484" lon="11.908754748056898"><ele>324.33333333333337</ele><time>2026-04-25T10:13:23Z</time></trkpt><trkpt lat="42.660587378613364" lon="11.908824706226646"><ele>322.6666666666667</ele><time>2026-04-25T10:13:24Z</time></trkpt><trkpt lat="42.66041095396238" lon="11.908896148647568"><ele>321.0</ele><time>2026-04-25T10:13:25Z</time></trkpt><trkpt lat="42.660242593830645" lon="11.908967998885602"><ele>318.6666666666667</ele><time>2026-04-25T10:13:26Z</time></trkpt><trkpt lat="42.66008302602112" lon="11.90903591182623"><ele>316.33333333333337</ele><time>2026-04-25T10:13:27Z</time></trkpt><trkpt lat="42.65992978544094" lon="11.909095439422943"><ele>314.0</ele><time>2026-04-25T10:13:28Z</time></trkpt><trkpt lat="42.659786038311516" lon="11.909158090711072"><ele>314.0</ele><time>2026-04-25T10:13:29Z</time></trkpt><trkpt lat="42.65966190037647" lon="11.90921441552856"><ele>314.0</ele><time>2026-04-25T10:13:30Z</time></trkpt><trkpt lat="42.65954453801777" lon="11.909263011397186"><ele>314.0</ele><time>2026-04-25T10:13:31Z</time></trkpt><trkpt lat="42.65943320402571" lon="11.90930850875654"><ele>314.0</ele><time>2026-04-25T10:13:32Z</time></trkpt><trkpt lat="42.65933099082478" lon="11.909355985084844"><ele>314.0</ele><time>2026-04-25T10:13:33Z</time></trkpt><trkpt lat="42.65924139578174" lon="11.909399810079703"><ele>314.0</ele><time>2026-04-25T10:13:34Z</time></trkpt><trkpt lat="42.65915178079007" lon="11.909438449265147"><ele>314.0</ele><time>2026-04-25T10:13:35Z</time></trkpt><trkpt lat="42.659051118470074" lon="11.90950177900242"><ele>314.0</ele><time>2026-04-25T10:13:36Z</time></trkpt><trkpt lat="42.65894940514362" lon="11.909610999732033"><ele>314.0</ele><time>2026-04-25T10:13:37Z</time></trkpt><trkpt lat="42.65884369309185" lon="11.909748951914004"><ele>314.0</ele><time>2026-04-25T10:13:38Z</time></trkpt><trkpt lat="42.65874665870266" lon="11.909907147729333"><ele>314.0</ele><time>2026-04-25T10:13:39Z</time></trkpt><trkpt lat="42.65865894326843" lon="11.910080473388252"><ele>314.0</ele><time>2026-04-25T10:13:40Z</time></trkpt><trkpt lat="42.65856819528044" lon="11.91025441204852"><ele>313.6666666666667</ele><time>2026-04-25T10:13:41Z</time></trkpt><trkpt lat="42.658463765350994" lon="11.910415552587207"><ele>313.3333333333333</ele><time>2026-04-25T10:13:42Z</time></trkpt><trkpt lat="42.65834216300982" lon="11.910571883859102"><ele>313.0</ele><time>2026-04-25T10:13:43Z</time></trkpt><trkpt lat="42.65822115642931" lon="11.910729820120633"><ele>313.0</ele><time>2026-04-25T10:13:44Z</time></trkpt><trkpt lat="42.65809896734917" lon="11.91090374996538"><ele>313.0</ele><time>2026-04-25T10:13:45Z</time></trkpt><trkpt lat="42.65799779117106" lon="11.911121574554867"><ele>313.0</ele><time>2026-04-25T10:13:46Z</time></trkpt><trkpt lat="42.65792576319836" lon="11.911349913745566"><ele>313.66666666666663</ele><time>2026-04-25T10:13:47Z</time></trkpt><trkpt lat="42.65784178226025" lon="11.911570672714358"><ele>314.3333333333333</ele><time>2026-04-25T10:13:48Z</time></trkpt><trkpt lat="42.65775777225107" lon="11.911792323523963"><ele>315.0</ele><time>2026-04-25T10:13:49Z</time></trkpt><trkpt lat="42.657673229433215" lon="11.912014778990851"><ele>315.0</ele><time>2026-04-25T10:13:49.999Z</time></trkpt><trkpt lat="42.65758587677874" lon="11.91223238769314"><ele>315.0</ele><time>2026-04-25T10:13:50.999Z</time></trkpt><trkpt lat="42.65747571654933" lon="11.91243369621146"><ele>315.0</ele><time>2026-04-25T10:13:51.999Z</time></trkpt><trkpt lat="42.657374169613085" lon="11.912643968570814"><ele>315.6666666666667</ele><time>2026-04-25T10:13:52.999Z</time></trkpt><trkpt lat="42.65727005919084" lon="11.912851454221213"><ele>316.33333333333337</ele><time>2026-04-25T10:13:53.999Z</time></trkpt><trkpt lat="42.657164759911296" lon="11.91306122526281"><ele>317.0</ele><time>2026-04-25T10:13:54.999Z</time></trkpt><trkpt lat="42.65706379231977" lon="11.913268596815742"><ele>316.6666666666667</ele><time>2026-04-25T10:13:55.999Z</time></trkpt><trkpt lat="42.65696490084483" lon="11.913474429429941"><ele>316.3333333333333</ele><time>2026-04-25T10:13:56.999Z</time></trkpt><trkpt lat="42.656865862985946" lon="11.913680974475442"><ele>316.0</ele><time>2026-04-25T10:13:57.999Z</time></trkpt><trkpt lat="42.6567687908974" lon="11.913886811837093"><ele>315.3333333333333</ele><time>2026-04-25T10:13:58.999Z</time></trkpt><trkpt lat="42.6566731454305" lon="11.914093984562342"><ele>314.6666666666667</ele><time>2026-04-25T10:13:59.999Z</time></trkpt><trkpt lat="42.656589285103074" lon="11.91431459391453"><ele>314.0</ele><time>2026-04-25T10:14:00.999Z</time></trkpt><trkpt lat="42.65649554665817" lon="11.914526866358926"><ele>314.0</ele><time>2026-04-25T10:14:01.999Z</time></trkpt><trkpt lat="42.656392338759595" lon="11.91473800360025"><ele>314.0</ele><time>2026-04-25T10:14:02.999Z</time></trkpt><trkpt lat="42.65630658428031" lon="11.914974353763208"><ele>314.0</ele><time>2026-04-25T10:14:03.999Z</time></trkpt><trkpt lat="42.65624559844691" lon="11.915222923334804"><ele>314.0</ele><time>2026-04-25T10:14:04.999Z</time></trkpt><trkpt lat="42.65615786645793" lon="11.91545387989919"><ele>314.0</ele><time>2026-04-25T10:14:05.999Z</time></trkpt><trkpt lat="42.65608725970559" lon="11.915692238566676"><ele>314.0</ele><time>2026-04-25T10:14:06.999Z</time></trkpt><trkpt lat="42.65601899103416" lon="11.915925734854605"><ele>312.6666666666667</ele><time>2026-04-25T10:14:07.999Z</time></trkpt><trkpt lat="42.65595354518415" lon="11.916158553595224"><ele>311.3333333333333</ele><time>2026-04-25T10:14:08.999Z</time></trkpt><trkpt lat="42.655892708769784" lon="11.916388403967344"><ele>310.0</ele><time>2026-04-25T10:14:09.999Z</time></trkpt><trkpt lat="42.655838047006576" lon="11.916605671000182"><ele>310.0</ele><time>2026-04-25T10:14:10.999Z</time></trkpt><trkpt lat="42.655786262570295" lon="11.91681382670455"><ele>310.0</ele><time>2026-04-25T10:14:11.999Z</time></trkpt><trkpt lat="42.65573923558861" lon="11.91701106504732"><ele>310.0</ele><time>2026-04-25T10:14:12.999Z</time></trkpt><trkpt lat="42.65569606954721" lon="11.917200184981507"><ele>310.0</ele><time>2026-04-25T10:14:13.999Z</time></trkpt><trkpt lat="42.6556577243114" lon="11.917381437101806"><ele>310.0</ele><time>2026-04-25T10:14:14.999Z</time></trkpt><trkpt lat="42.655620973773615" lon="11.91757343618139"><ele>310.0</ele><time>2026-04-25T10:14:15.999Z</time></trkpt><trkpt lat="42.655583793065865" lon="11.917778631654768"><ele>310.0</ele><time>2026-04-25T10:14:16.999Z</time></trkpt><trkpt lat="42.65554903563831" lon="11.917998196840902"><ele>310.0</ele><time>2026-04-25T10:14:17.999Z</time></trkpt><trkpt lat="42.655516382970504" lon="11.918224681997225"><ele>310.0</ele><time>2026-04-25T10:14:18.999Z</time></trkpt><trkpt lat="42.65549096537986" lon="11.918459340664175"><ele>310.0</ele><time>2026-04-25T10:14:19.999Z</time></trkpt><trkpt lat="42.65548568533821" lon="11.91871443794813"><ele>310.0</ele><time>2026-04-25T10:14:20.999Z</time></trkpt><trkpt lat="42.655500445350235" lon="11.91897978866308"><ele>310.0</ele><time>2026-04-25T10:14:21.999Z</time></trkpt><trkpt lat="42.65552020714327" lon="11.919236809825385"><ele>310.0</ele><time>2026-04-25T10:14:22.999Z</time></trkpt><trkpt lat="42.655542749644304" lon="11.919485959474917"><ele>309.66666666666663</ele><time>2026-04-25T10:14:23.999Z</time></trkpt><trkpt lat="42.65556955275788" lon="11.919737408011747"><ele>309.3333333333333</ele><time>2026-04-25T10:14:24.999Z</time></trkpt><trkpt lat="42.65560160453152" lon="11.919988269127895"><ele>309.0</ele><time>2026-04-25T10:14:25.999Z</time></trkpt><trkpt lat="42.65563666579219" lon="11.920236788189671"><ele>308.6666666666667</ele><time>2026-04-25T10:14:26.999Z</time></trkpt><trkpt lat="42.6556739078614" lon="11.92048043877643"><ele>308.33333333333337</ele><time>2026-04-25T10:14:27.999Z</time></trkpt><trkpt lat="42.65571229479257" lon="11.92072137528079"><ele>308.0</ele><time>2026-04-25T10:14:28.999Z</time></trkpt><trkpt lat="42.65575063972575" lon="11.920957701291156"><ele>308.6666666666667</ele><time>2026-04-25T10:14:29.999Z</time></trkpt><trkpt lat="42.655787947115726" lon="11.921187632780512"><ele>309.3333333333333</ele><time>2026-04-25T10:14:30.999Z</time></trkpt><trkpt lat="42.65582520705131" lon="11.921417271668606"><ele>310.0</ele><time>2026-04-25T10:14:31.999Z</time></trkpt><trkpt lat="42.655864606333544" lon="11.921650156576641"><ele>310.0</ele><time>2026-04-25T10:14:32.999Z</time></trkpt><trkpt lat="42.65591041904443" lon="11.921886646925364"><ele>310.0</ele><time>2026-04-25T10:14:33.999Z</time></trkpt><trkpt lat="42.6559619922893" lon="11.922126066679807"><ele>310.0</ele><time>2026-04-25T10:14:34.999Z</time></trkpt><trkpt lat="42.65601729264876" lon="11.922358357172703"><ele>309.66666666666663</ele><time>2026-04-25T10:14:35.999Z</time></trkpt><trkpt lat="42.65607025654289" lon="11.92258145906517"><ele>309.3333333333333</ele><time>2026-04-25T10:14:36.999Z</time></trkpt><trkpt lat="42.65612123044037" lon="11.922805375846382"><ele>309.0</ele><time>2026-04-25T10:14:37.999Z</time></trkpt><trkpt lat="42.65617197509664" lon="11.923030421376177"><ele>309.6666666666667</ele><time>2026-04-25T10:14:38.999Z</time></trkpt><trkpt lat="42.656217158609" lon="11.923253700770871"><ele>310.33333333333337</ele><time>2026-04-25T10:14:39.999Z</time></trkpt><trkpt lat="42.656248800226386" lon="11.923487045579941"><ele>311.0</ele><time>2026-04-25T10:14:40.999Z</time></trkpt><trkpt lat="42.65627018941135" lon="11.923732273165543"><ele>311.0</ele><time>2026-04-25T10:14:41.999Z</time></trkpt><trkpt lat="42.656281894277214" lon="11.923988201769081"><ele>311.0</ele><time>2026-04-25T10:14:42.999Z</time></trkpt><trkpt lat="42.656283911173745" lon="11.924245212435627"><ele>311.0</ele><time>2026-04-25T10:14:43.999Z</time></trkpt><trkpt lat="42.65627981921838" lon="11.924502853009637"><ele>311.0</ele><time>2026-04-25T10:14:44.999Z</time></trkpt><trkpt lat="42.65627498646177" lon="11.9247575729901"><ele>311.0</ele><time>2026-04-25T10:14:45.999Z</time></trkpt><trkpt lat="42.65627153424855" lon="11.925003275455417"><ele>311.0</ele><time>2026-04-25T10:14:46.999Z</time></trkpt><trkpt lat="42.6562704298893" lon="11.92525379174955"><ele>311.0</ele><time>2026-04-25T10:14:47.999Z</time></trkpt><trkpt lat="42.65627731685143" lon="11.925508871579412"><ele>311.0</ele><time>2026-04-25T10:14:48.999Z</time></trkpt><trkpt lat="42.65628684923763" lon="11.925763794899003"><ele>311.0</ele><time>2026-04-25T10:14:49.999Z</time></trkpt><trkpt lat="42.65629635305737" lon="11.926017954227714"><ele>311.0</ele><time>2026-04-25T10:14:50.999Z</time></trkpt><trkpt lat="42.65630627698163" lon="11.926271227436237"><ele>311.0</ele><time>2026-04-25T10:14:51.999Z</time></trkpt><trkpt lat="42.65631723810265" lon="11.926522906722068"><ele>311.0</ele><time>2026-04-25T10:14:52.999Z</time></trkpt><trkpt lat="42.656328066555645" lon="11.926771539820994"><ele>311.33333333333337</ele><time>2026-04-25T10:14:53.999Z</time></trkpt><trkpt lat="42.656341294141775" lon="11.92701807847805"><ele>311.6666666666667</ele><time>2026-04-25T10:14:54.999Z</time></trkpt><trkpt lat="42.6563546725104" lon="11.92726297406104"><ele>312.0</ele><time>2026-04-25T10:14:55.998Z</time></trkpt><trkpt lat="42.65637180272253" lon="11.92750477355753"><ele>311.6666666666667</ele><time>2026-04-25T10:14:56.998Z</time></trkpt><trkpt lat="42.65638932569975" lon="11.927744640614632"><ele>311.33333333333337</ele><time>2026-04-25T10:14:57.998Z</time></trkpt><trkpt lat="42.65640760116391" lon="11.927980902262552"><ele>311.0</ele><time>2026-04-25T10:14:58.998Z</time></trkpt><trkpt lat="42.65642734435803" lon="11.928218210539319"><ele>311.33333333333337</ele><time>2026-04-25T10:14:59.998Z</time></trkpt><trkpt lat="42.656450200749035" lon="11.928452558211061"><ele>311.6666666666667</ele><time>2026-04-25T10:15:00.998Z</time></trkpt><trkpt lat="42.65647325724155" lon="11.928691838374673"><ele>312.0</ele><time>2026-04-25T10:15:01.998Z</time></trkpt><trkpt lat="42.65649004264563" lon="11.92893061226763"><ele>312.0</ele><time>2026-04-25T10:15:02.998Z</time></trkpt><trkpt lat="42.656500173939094" lon="11.929173692255462"><ele>312.0</ele><time>2026-04-25T10:15:03.998Z</time></trkpt><trkpt lat="42.65650157292627" lon="11.92942083906731"><ele>312.0</ele><time>2026-04-25T10:15:04.998Z</time></trkpt><trkpt lat="42.656499871601596" lon="11.929668835456276"><ele>311.3333333333333</ele><time>2026-04-25T10:15:05.998Z</time></trkpt><trkpt lat="42.656496854030834" lon="11.929914774038066"><ele>310.66666666666663</ele><time>2026-04-25T10:15:06.998Z</time></trkpt><trkpt lat="42.656493263508544" lon="11.930159033561791"><ele>310.0</ele><time>2026-04-25T10:15:07.998Z</time></trkpt><trkpt lat="42.65649142403331" lon="11.930405378677493"><ele>310.0</ele><time>2026-04-25T10:15:08.998Z</time></trkpt><trkpt lat="42.656491283855566" lon="11.930649806931129"><ele>310.0</ele><time>2026-04-25T10:15:09.998Z</time></trkpt><trkpt lat="42.65649360528984" lon="11.930893285330226"><ele>310.0</ele><time>2026-04-25T10:15:10.998Z</time></trkpt><trkpt lat="42.65649986343754" lon="11.9311340880022"><ele>310.0</ele><time>2026-04-25T10:15:11.998Z</time></trkpt><trkpt lat="42.65651506811057" lon="11.931379881816081"><ele>310.0</ele><time>2026-04-25T10:15:12.998Z</time></trkpt><trkpt lat="42.65653560437087" lon="11.9316249745648"><ele>310.0</ele><time>2026-04-25T10:15:13.998Z</time></trkpt><trkpt lat="42.65655659440896" lon="11.931874244207922"><ele>310.66666666666663</ele><time>2026-04-25T10:15:14.998Z</time></trkpt><trkpt lat="42.65657803098293" lon="11.932128522328545"><ele>311.3333333333333</ele><time>2026-04-25T10:15:15.998Z</time></trkpt><trkpt lat="42.65659784379765" lon="11.932389734078951"><ele>312.0</ele><time>2026-04-25T10:15:16.998Z</time></trkpt><trkpt lat="42.65661212502907" lon="11.932660101967327"><ele>312.0</ele><time>2026-04-25T10:15:17.998Z</time></trkpt><trkpt lat="42.65661985086962" lon="11.932927619366877"><ele>312.0</ele><time>2026-04-25T10:15:18.998Z</time></trkpt><trkpt lat="42.65661985585861" lon="11.933183042158142"><ele>312.0</ele><time>2026-04-25T10:15:19.998Z</time></trkpt><trkpt lat="42.65661333957023" lon="11.933438745585537"><ele>311.6666666666667</ele><time>2026-04-25T10:15:21Z</time></trkpt><trkpt lat="42.65660367366456" lon="11.933682528279212"><ele>311.33333333333337</ele><time>2026-04-25T10:15:22Z</time></trkpt><trkpt lat="42.65659312356782" lon="11.933924554313604"><ele>311.0</ele><time>2026-04-25T10:15:23Z</time></trkpt><trkpt lat="42.65658070735741" lon="11.934167042242146"><ele>311.0</ele><time>2026-04-25T10:15:24Z</time></trkpt><trkpt lat="42.6566004096024" lon="11.934408763585857"><ele>311.0</ele><time>2026-04-25T10:15:25Z</time></trkpt><trkpt lat="42.65658916083991" lon="11.934644062913245"><ele>311.0</ele><time>2026-04-25T10:15:26Z</time></trkpt><trkpt lat="42.65657650561952" lon="11.9348800604118"><ele>311.33333333333337</ele><time>2026-04-25T10:15:27Z</time></trkpt><trkpt lat="42.65656161785423" lon="11.935118947068277"><ele>311.6666666666667</ele><time>2026-04-25T10:15:28Z</time></trkpt><trkpt lat="42.65650178083522" lon="11.935353057684633"><ele>312.0</ele><time>2026-04-25T10:15:29Z</time></trkpt><trkpt lat="42.65648477389144" lon="11.935586408531877"><ele>312.0</ele><time>2026-04-25T10:15:30Z</time></trkpt><trkpt lat="42.656465851642366" lon="11.935813475297437"><ele>312.0</ele><time>2026-04-25T10:15:31Z</time></trkpt><trkpt lat="42.656444586544296" lon="11.936024919816573"><ele>312.0</ele><time>2026-04-25T10:15:32Z</time></trkpt><trkpt lat="42.65641418541136" lon="11.936234379752127"><ele>311.6666666666667</ele><time>2026-04-25T10:15:33Z</time></trkpt><trkpt lat="42.6563657273928" lon="11.936447694451044"><ele>311.33333333333337</ele><time>2026-04-25T10:15:34Z</time></trkpt><trkpt lat="42.65630385863843" lon="11.936655493521616"><ele>311.0</ele><time>2026-04-25T10:15:35Z</time></trkpt><trkpt lat="42.65622851952288" lon="11.936866106469845"><ele>311.0</ele><time>2026-04-25T10:15:36Z</time></trkpt><trkpt lat="42.65614443492886" lon="11.937077298123842"><ele>311.0</ele><time>2026-04-25T10:15:37Z</time></trkpt><trkpt lat="42.65605311685143" lon="11.937298564957583"><ele>311.0</ele><time>2026-04-25T10:15:38Z</time></trkpt><trkpt lat="42.65596163145146" lon="11.93752023667302"><ele>310.33333333333337</ele><time>2026-04-25T10:15:39Z</time></trkpt><trkpt lat="42.65586817352885" lon="11.937746888687043"><ele>309.6666666666667</ele><time>2026-04-25T10:15:40Z</time></trkpt><trkpt lat="42.6557716229981" lon="11.937981441188073"><ele>309.0</ele><time>2026-04-25T10:15:41Z</time></trkpt><trkpt lat="42.655676050280064" lon="11.938213784585967"><ele>309.3333333333333</ele><time>2026-04-25T10:15:42Z</time></trkpt><trkpt lat="42.655598913994226" lon="11.938453717103021"><ele>309.66666666666663</ele><time>2026-04-25T10:15:43Z</time></trkpt><trkpt lat="42.655505410997414" lon="11.938681578223036"><ele>310.0</ele><time>2026-04-25T10:15:44Z</time></trkpt><trkpt lat="42.65541311245595" lon="11.938906900565744"><ele>310.0</ele><time>2026-04-25T10:15:45Z</time></trkpt><trkpt lat="42.655323912658545" lon="11.939126764949389"><ele>310.0</ele><time>2026-04-25T10:15:46Z</time></trkpt><trkpt lat="42.65523516502973" lon="11.939348013985127"><ele>310.0</ele><time>2026-04-25T10:15:47Z</time></trkpt><trkpt lat="42.65513207953941" lon="11.939558724183994"><ele>309.66666666666663</ele><time>2026-04-25T10:15:48Z</time></trkpt><trkpt lat="42.65504112958383" lon="11.939789206666754"><ele>309.3333333333333</ele><time>2026-04-25T10:15:49Z</time></trkpt><trkpt lat="42.654948534266104" lon="11.940023855981806"><ele>309.0</ele><time>2026-04-25T10:15:50Z</time></trkpt><trkpt lat="42.65485815502142" lon="11.940256031426708"><ele>308.3333333333333</ele><time>2026-04-25T10:15:51Z</time></trkpt><trkpt lat="42.65476999973562" lon="11.94048203193229"><ele>307.66666666666663</ele><time>2026-04-25T10:15:52Z</time></trkpt><trkpt lat="42.65468249900221" lon="11.940706354528688"><ele>307.0</ele><time>2026-04-25T10:15:53Z</time></trkpt><trkpt lat="42.65459584895635" lon="11.940929935310555"><ele>307.0</ele><time>2026-04-25T10:15:54Z</time></trkpt><trkpt lat="42.65451431681126" lon="11.94114181108445"><ele>307.0</ele><time>2026-04-25T10:15:55Z</time></trkpt><trkpt lat="42.65443252579085" lon="11.941354359365228"><ele>307.0</ele><time>2026-04-25T10:15:56Z</time></trkpt><trkpt lat="42.65435063585655" lon="11.941567164676986"><ele>306.3333333333333</ele><time>2026-04-25T10:15:57Z</time></trkpt><trkpt lat="42.654266955966435" lon="11.94178585385135"><ele>305.6666666666667</ele><time>2026-04-25T10:15:58Z</time></trkpt><trkpt lat="42.654184707898786" lon="11.942002288391972"><ele>305.0</ele><time>2026-04-25T10:15:59Z</time></trkpt><trkpt lat="42.65411976509772" lon="11.942221999434981"><ele>305.0</ele><time>2026-04-25T10:16:00Z</time></trkpt><trkpt lat="42.65404186310507" lon="11.942426359466852"><ele>305.0</ele><time>2026-04-25T10:16:01Z</time></trkpt><trkpt lat="42.65394825655467" lon="11.942622062051889"><ele>305.0</ele><time>2026-04-25T10:16:02Z</time></trkpt><trkpt lat="42.653882805674776" lon="11.942838708094936"><ele>305.6666666666667</ele><time>2026-04-25T10:16:03Z</time></trkpt><trkpt lat="42.65378761255552" lon="11.943032856415984"><ele>306.3333333333333</ele><time>2026-04-25T10:16:04Z</time></trkpt><trkpt lat="42.65370914069844" lon="11.943230343533735"><ele>307.0</ele><time>2026-04-25T10:16:04.999Z</time></trkpt><trkpt lat="42.65363445859725" lon="11.943418038874901"><ele>307.25</ele><time>2026-04-25T10:16:05.999Z</time></trkpt><trkpt lat="42.653565617210454" lon="11.94358769353512"><ele>307.5</ele><time>2026-04-25T10:16:06.999Z</time></trkpt><trkpt lat="42.6534981990441" lon="11.94375168254321"><ele>307.75</ele><time>2026-04-25T10:16:07.999Z</time></trkpt><trkpt lat="42.653431591850925" lon="11.943913609582495"><ele>308.0</ele><time>2026-04-25T10:16:08.999Z</time></trkpt><trkpt lat="42.65336507043876" lon="11.944075223375219"><ele>307.75</ele><time>2026-04-25T10:16:09.999Z</time></trkpt><trkpt lat="42.65329883797826" lon="11.944236135215743"><ele>307.5</ele><time>2026-04-25T10:16:10.999Z</time></trkpt><trkpt lat="42.65323371143523" lon="11.944393028380533"><ele>307.25</ele><time>2026-04-25T10:16:11.999Z</time></trkpt><trkpt lat="42.65316852364776" lon="11.944549436468998"><ele>307.0</ele><time>2026-04-25T10:16:12.999Z</time></trkpt><trkpt lat="42.65310597811832" lon="11.944699504795032"><ele>307.0</ele><time>2026-04-25T10:16:13.999Z</time></trkpt><trkpt lat="42.653044359465255" lon="11.944847350683112"><ele>307.0</ele><time>2026-04-25T10:16:14.999Z</time></trkpt><trkpt lat="42.65298181651441" lon="11.944998957159513"><ele>307.0</ele><time>2026-04-25T10:16:15.999Z</time></trkpt><trkpt lat="42.65291858843626" lon="11.945151855472885"><ele>307.0</ele><time>2026-04-25T10:16:16.999Z</time></trkpt><trkpt lat="42.65285466073411" lon="11.94530644799024"><ele>307.0</ele><time>2026-04-25T10:16:17.999Z</time></trkpt><trkpt lat="42.6527912856125" lon="11.945464075130396"><ele>307.0</ele><time>2026-04-25T10:16:18.999Z</time></trkpt><trkpt lat="42.65272666116929" lon="11.945623210597647"><ele>307.0</ele><time>2026-04-25T10:16:19.999Z</time></trkpt><trkpt lat="42.65266629579592" lon="11.94578803164132"><ele>307.0</ele><time>2026-04-25T10:16:20.999Z</time></trkpt><trkpt lat="42.65262187685174" lon="11.945965811633554"><ele>306.75</ele><time>2026-04-25T10:16:21.999Z</time></trkpt><trkpt lat="42.65259177112151" lon="11.94614240489929"><ele>306.5</ele><time>2026-04-25T10:16:22.999Z</time></trkpt><trkpt lat="42.652576982986005" lon="11.94632198211375"><ele>306.25</ele><time>2026-04-25T10:16:23.999Z</time></trkpt><trkpt lat="42.65256688872536" lon="11.946500208325975"><ele>306.0</ele><time>2026-04-25T10:16:24.999Z</time></trkpt><trkpt lat="42.6525578716184" lon="11.946678753099206"><ele>305.75</ele><time>2026-04-25T10:16:25.999Z</time></trkpt><trkpt lat="42.65254865707334" lon="11.946861207355889"><ele>305.5</ele><time>2026-04-25T10:16:26.999Z</time></trkpt><trkpt lat="42.652538703882016" lon="11.947049704413034"><ele>305.25</ele><time>2026-04-25T10:16:27.999Z</time></trkpt><trkpt lat="42.65252778147556" lon="11.94724754190571"><ele>305.0</ele><time>2026-04-25T10:16:28.999Z</time></trkpt><trkpt lat="42.652514703928574" lon="11.947455073086466"><ele>305.0</ele><time>2026-04-25T10:16:29.999Z</time></trkpt><trkpt lat="42.65250014167483" lon="11.947679177642868"><ele>305.0</ele><time>2026-04-25T10:16:30.999Z</time></trkpt><trkpt lat="42.65248502034318" lon="11.947907791627134"><ele>305.0</ele><time>2026-04-25T10:16:31.999Z</time></trkpt><trkpt lat="42.65246799759704" lon="11.948142938484054"><ele>305.33333333333337</ele><time>2026-04-25T10:16:32.999Z</time></trkpt><trkpt lat="42.65244966096739" lon="11.948378730267473"><ele>305.6666666666667</ele><time>2026-04-25T10:16:33.999Z</time></trkpt><trkpt lat="42.6524316734553" lon="11.948615215616256"><ele>306.0</ele><time>2026-04-25T10:16:34.999Z</time></trkpt><trkpt lat="42.652415462003574" lon="11.948849171018104"><ele>306.0</ele><time>2026-04-25T10:16:35.999Z</time></trkpt><trkpt lat="42.65239709843709" lon="11.949091105891668"><ele>306.0</ele><time>2026-04-25T10:16:36.999Z</time></trkpt><trkpt lat="42.65237721234351" lon="11.949349602012637"><ele>306.0</ele><time>2026-04-25T10:16:37.999Z</time></trkpt><trkpt lat="42.65235332533742" lon="11.949634255537209"><ele>306.0</ele><time>2026-04-25T10:16:38.999Z</time></trkpt><trkpt lat="42.652329728619904" lon="11.949915449551188"><ele>306.0</ele><time>2026-04-25T10:16:39.999Z</time></trkpt><trkpt lat="42.65230685895279" lon="11.950187979785902"><ele>306.0</ele><time>2026-04-25T10:16:40.999Z</time></trkpt><trkpt lat="42.652285601095436" lon="11.950441295673215"><ele>306.0</ele><time>2026-04-25T10:16:41.999Z</time></trkpt><trkpt lat="42.65226580176792" lon="11.950677229073442"><ele>306.0</ele><time>2026-04-25T10:16:42.999Z</time></trkpt><trkpt lat="42.65224629629252" lon="11.950913227201292"><ele>306.0</ele><time>2026-04-25T10:16:43.999Z</time></trkpt><trkpt lat="42.65222565902452" lon="11.95116244581839"><ele>306.0</ele><time>2026-04-25T10:16:44.999Z</time></trkpt><trkpt lat="42.65220291815525" lon="11.951427673496854"><ele>306.0</ele><time>2026-04-25T10:16:45.999Z</time></trkpt><trkpt lat="42.65217881624337" lon="11.951705102634941"><ele>306.0</ele><time>2026-04-25T10:16:46.999Z</time></trkpt><trkpt lat="42.652154849790904" lon="11.95198057671443"><ele>306.3333333333333</ele><time>2026-04-25T10:16:47.999Z</time></trkpt><trkpt lat="42.65213139607412" lon="11.952250157155186"><ele>306.66666666666663</ele><time>2026-04-25T10:16:48.999Z</time></trkpt><trkpt lat="42.65210765196399" lon="11.952508544396657"><ele>307.0</ele><time>2026-04-25T10:16:49.999Z</time></trkpt><trkpt lat="42.652082527900234" lon="11.952763702750856"><ele>307.0</ele><time>2026-04-25T10:16:50.999Z</time></trkpt><trkpt lat="42.65205423293355" lon="11.953006602158625"><ele>307.0</ele><time>2026-04-25T10:16:51.999Z</time></trkpt><trkpt lat="42.65202627221877" lon="11.953233852661775"><ele>307.0</ele><time>2026-04-25T10:16:52.999Z</time></trkpt><trkpt lat="42.65199799097063" lon="11.953451881236244"><ele>307.0</ele><time>2026-04-25T10:16:53.999Z</time></trkpt><trkpt lat="42.65196946999581" lon="11.953673520860363"><ele>307.0</ele><time>2026-04-25T10:16:54.999Z</time></trkpt><trkpt lat="42.65193953440003" lon="11.953898397887851"><ele>307.0</ele><time>2026-04-25T10:16:55.999Z</time></trkpt><trkpt lat="42.65191055149547" lon="11.954115226827692"><ele>307.0</ele><time>2026-04-25T10:16:56.999Z</time></trkpt><trkpt lat="42.651880818017524" lon="11.95433421550144"><ele>307.0</ele><time>2026-04-25T10:16:57.999Z</time></trkpt><trkpt lat="42.65185071131352" lon="11.954556497563946"><ele>307.0</ele><time>2026-04-25T10:16:58.999Z</time></trkpt><trkpt lat="42.65182232955136" lon="11.954774116616514"><ele>307.0</ele><time>2026-04-25T10:16:59.999Z</time></trkpt><trkpt lat="42.651794131423955" lon="11.954990327624968"><ele>307.0</ele><time>2026-04-25T10:17:00.999Z</time></trkpt><trkpt lat="42.65176517140902" lon="11.95520901888091"><ele>307.0</ele><time>2026-04-25T10:17:01.999Z</time></trkpt><trkpt lat="42.65173452544517" lon="11.955436275066354"><ele>307.3333333333333</ele><time>2026-04-25T10:17:02.999Z</time></trkpt><trkpt lat="42.65170377716375" lon="11.955664289977689"><ele>307.6666666666667</ele><time>2026-04-25T10:17:03.999Z</time></trkpt><trkpt lat="42.65167275733117" lon="11.955894318543113"><ele>308.0</ele><time>2026-04-25T10:17:04.999Z</time></trkpt><trkpt lat="42.651641136090284" lon="11.956128806954661"><ele>308.0</ele><time>2026-04-25T10:17:05.999Z</time></trkpt><trkpt lat="42.651609771483194" lon="11.956361392199282"><ele>308.0</ele><time>2026-04-25T10:17:06.999Z</time></trkpt><trkpt lat="42.65158080708864" lon="11.956576178472686"><ele>308.0</ele><time>2026-04-25T10:17:07.999Z</time></trkpt><trkpt lat="42.65155154166914" lon="11.95679319727213"><ele>307.6666666666667</ele><time>2026-04-25T10:17:08.999Z</time></trkpt><trkpt lat="42.651521768404116" lon="11.957009571087799"><ele>307.3333333333333</ele><time>2026-04-25T10:17:09.999Z</time></trkpt><trkpt lat="42.651492693428494" lon="11.957220733062568"><ele>307.0</ele><time>2026-04-25T10:17:10.998Z</time></trkpt><trkpt lat="42.65146405354204" lon="11.957428735255325"><ele>306.3333333333333</ele><time>2026-04-25T10:17:11.998Z</time></trkpt><trkpt lat="42.651435120051715" lon="11.957638869706969"><ele>305.6666666666667</ele><time>2026-04-25T10:17:12.998Z</time></trkpt><trkpt lat="42.651404933884024" lon="11.95785810196419"><ele>305.0</ele><time>2026-04-25T10:17:13.998Z</time></trkpt><trkpt lat="42.65137374246433" lon="11.958084635080514"><ele>305.0</ele><time>2026-04-25T10:17:14.998Z</time></trkpt><trkpt lat="42.651337265075455" lon="11.958349558351957"><ele>305.0</ele><time>2026-04-25T10:17:15.998Z</time></trkpt><trkpt lat="42.65129724462362" lon="11.958648368811994"><ele>305.0</ele><time>2026-04-25T10:17:16.998Z</time></trkpt><trkpt lat="42.65125541489831" lon="11.95896154221417"><ele>305.6666666666667</ele><time>2026-04-25T10:17:17.998Z</time></trkpt><trkpt lat="42.651214987104545" lon="11.959260265635452"><ele>306.3333333333333</ele><time>2026-04-25T10:17:18.998Z</time></trkpt><trkpt lat="42.65117439945448" lon="11.959557150880581"><ele>307.0</ele><time>2026-04-25T10:17:19.998Z</time></trkpt><trkpt lat="42.65115081140931" lon="11.959854993837151"><ele>306.66666666666663</ele><time>2026-04-25T10:17:20.998Z</time></trkpt><trkpt lat="42.65111394984332" lon="11.960140906977239"><ele>306.3333333333333</ele><time>2026-04-25T10:17:21.998Z</time></trkpt><trkpt lat="42.65107834928593" lon="11.960408338906822"><ele>306.0</ele><time>2026-04-25T10:17:22.998Z</time></trkpt><trkpt lat="42.65104506360177" lon="11.960667068058436"><ele>306.6666666666667</ele><time>2026-04-25T10:17:23.998Z</time></trkpt><trkpt lat="42.65101431711381" lon="11.960927557771388"><ele>307.33333333333337</ele><time>2026-04-25T10:17:24.998Z</time></trkpt><trkpt lat="42.65098837898218" lon="11.961185729279066"><ele>308.0</ele><time>2026-04-25T10:17:25.998Z</time></trkpt><trkpt lat="42.6509600999833" lon="11.961444283961868"><ele>308.0</ele><time>2026-04-25T10:17:27Z</time></trkpt><trkpt lat="42.650914462946034" lon="11.961695886587517"><ele>308.0</ele><time>2026-04-25T10:17:28Z</time></trkpt><trkpt lat="42.650884169310444" lon="11.961950771621003"><ele>308.0</ele><time>2026-04-25T10:17:29Z</time></trkpt><trkpt lat="42.6508533774005" lon="11.962205596434057"><ele>307.6666666666667</ele><time>2026-04-25T10:17:30Z</time></trkpt><trkpt lat="42.65083795415308" lon="11.962467939024037"><ele>307.3333333333333</ele><time>2026-04-25T10:17:31Z</time></trkpt><trkpt lat="42.65079054416193" lon="11.962725586028053"><ele>307.0</ele><time>2026-04-25T10:17:32Z</time></trkpt><trkpt lat="42.65075852394612" lon="11.962986763556799"><ele>307.0</ele><time>2026-04-25T10:17:33Z</time></trkpt><trkpt lat="42.65072542209718" lon="11.963247764769486"><ele>307.0</ele><time>2026-04-25T10:17:34Z</time></trkpt><trkpt lat="42.6506922595857" lon="11.963509244304294"><ele>307.0</ele><time>2026-04-25T10:17:35Z</time></trkpt><trkpt lat="42.65065926837051" lon="11.963769373182393"><ele>307.0</ele><time>2026-04-25T10:17:36Z</time></trkpt><trkpt lat="42.65062690636737" lon="11.964024540821896"><ele>307.0</ele><time>2026-04-25T10:17:37Z</time></trkpt><trkpt lat="42.65061035068422" lon="11.964280185055387"><ele>307.0</ele><time>2026-04-25T10:17:38Z</time></trkpt><trkpt lat="42.65057668006128" lon="11.9645290480354"><ele>307.0</ele><time>2026-04-25T10:17:39Z</time></trkpt><trkpt lat="42.65052768214171" lon="11.964775471487451"><ele>307.0</ele><time>2026-04-25T10:17:40Z</time></trkpt><trkpt lat="42.65050992433977" lon="11.965026341688157"><ele>307.0</ele><time>2026-04-25T10:17:41Z</time></trkpt><trkpt lat="42.65047379269344" lon="11.965271256050004"><ele>307.0</ele><time>2026-04-25T10:17:42Z</time></trkpt><trkpt lat="42.65043944241838" lon="11.965517945746674"><ele>307.0</ele><time>2026-04-25T10:17:43Z</time></trkpt><trkpt lat="42.65040188166086" lon="11.965763674301844"><ele>307.0</ele><time>2026-04-25T10:17:44Z</time></trkpt><trkpt lat="42.65036242803498" lon="11.966005731903167"><ele>307.0</ele><time>2026-04-25T10:17:45Z</time></trkpt><trkpt lat="42.65032791400878" lon="11.966248655330226"><ele>307.0</ele><time>2026-04-25T10:17:46Z</time></trkpt><trkpt lat="42.65029305640869" lon="11.96648988916294"><ele>307.0</ele><time>2026-04-25T10:17:47Z</time></trkpt><trkpt lat="42.65023734992681" lon="11.966727371069053"><ele>307.0</ele><time>2026-04-25T10:17:48Z</time></trkpt><trkpt lat="42.65019691075581" lon="11.966967509896962"><ele>307.0</ele><time>2026-04-25T10:17:49Z</time></trkpt><trkpt lat="42.65015481290257" lon="11.967207324183748"><ele>307.0</ele><time>2026-04-25T10:17:50Z</time></trkpt><trkpt lat="42.650109591501874" lon="11.967448732375242"><ele>307.0</ele><time>2026-04-25T10:17:51Z</time></trkpt><trkpt lat="42.65007917007145" lon="11.967694390431639"><ele>307.0</ele><time>2026-04-25T10:17:52Z</time></trkpt><trkpt lat="42.650017249219516" lon="11.967928499162491"><ele>307.0</ele><time>2026-04-25T10:17:53Z</time></trkpt><trkpt lat="42.649970606064684" lon="11.968170579827405"><ele>307.0</ele><time>2026-04-25T10:17:54Z</time></trkpt><trkpt lat="42.6499239190843" lon="11.968412888008688"><ele>307.0</ele><time>2026-04-25T10:17:55Z</time></trkpt><trkpt lat="42.64987277590279" lon="11.968648473625016"><ele>307.0</ele><time>2026-04-25T10:17:56Z</time></trkpt><trkpt lat="42.64981547825804" lon="11.968884421456824"><ele>307.0</ele><time>2026-04-25T10:17:57Z</time></trkpt><trkpt lat="42.649758137719296" lon="11.969120545994974"><ele>307.0</ele><time>2026-04-25T10:17:58Z</time></trkpt><trkpt lat="42.649700553792606" lon="11.969357672682227"><ele>307.0</ele><time>2026-04-25T10:17:59Z</time></trkpt><trkpt lat="42.64964330495939" lon="11.969593704836043"><ele>307.0</ele><time>2026-04-25T10:18:00Z</time></trkpt><trkpt lat="42.649585766691736" lon="11.969830957676585"><ele>307.0</ele><time>2026-04-25T10:18:01Z</time></trkpt><trkpt lat="42.64952781688096" lon="11.970069907297809"><ele>307.0</ele><time>2026-04-25T10:18:02Z</time></trkpt><trkpt lat="42.64947005341638" lon="11.970308088627691"><ele>307.0</ele><time>2026-04-25T10:18:03Z</time></trkpt><trkpt lat="42.64940975367948" lon="11.970544321904285"><ele>307.0</ele><time>2026-04-25T10:18:04Z</time></trkpt><trkpt lat="42.6493479193363" lon="11.97078230970126"><ele>307.0</ele><time>2026-04-25T10:18:05Z</time></trkpt><trkpt lat="42.64928639866723" lon="11.971019090327161"><ele>306.66666666666663</ele><time>2026-04-25T10:18:06Z</time></trkpt><trkpt lat="42.64922491592974" lon="11.971255724923198"><ele>306.3333333333333</ele><time>2026-04-25T10:18:07Z</time></trkpt><trkpt lat="42.64916308421526" lon="11.971493401624361"><ele>306.0</ele><time>2026-04-25T10:18:08Z</time></trkpt><trkpt lat="42.64910375799627" lon="11.97173249814374"><ele>306.0</ele><time>2026-04-25T10:18:09Z</time></trkpt><trkpt lat="42.64904479767773" lon="11.971972359400606"><ele>306.0</ele><time>2026-04-25T10:18:10Z</time></trkpt><trkpt lat="42.64898567087785" lon="11.972212143115499"><ele>306.0</ele><time>2026-04-25T10:18:11Z</time></trkpt><trkpt lat="42.64893218704072" lon="11.972457388897556"><ele>306.3333333333333</ele><time>2026-04-25T10:18:12Z</time></trkpt><trkpt lat="42.64888003056755" lon="11.972701693754058"><ele>306.66666666666663</ele><time>2026-04-25T10:18:13Z</time></trkpt><trkpt lat="42.648827721632166" lon="11.972946712789108"><ele>307.0</ele><time>2026-04-25T10:18:14Z</time></trkpt><trkpt lat="42.64877550121075" lon="11.973192263225336"><ele>307.3333333333333</ele><time>2026-04-25T10:18:15Z</time></trkpt><trkpt lat="42.648724863070626" lon="11.973436963192393"><ele>307.6666666666667</ele><time>2026-04-25T10:18:15.999Z</time></trkpt><trkpt lat="42.64867430597544" lon="11.973682891867755"><ele>308.0</ele><time>2026-04-25T10:18:16.999Z</time></trkpt><trkpt lat="42.64862337973926" lon="11.973928448915022"><ele>308.0</ele><time>2026-04-25T10:18:17.999Z</time></trkpt><trkpt lat="42.648572057224165" lon="11.974172277475343"><ele>308.0</ele><time>2026-04-25T10:18:18.999Z</time></trkpt><trkpt lat="42.64851755236409" lon="11.974417527470768"><ele>308.0</ele><time>2026-04-25T10:18:19.999Z</time></trkpt><trkpt lat="42.64847844435336" lon="11.97466744851647"><ele>308.0</ele><time>2026-04-25T10:18:20.999Z</time></trkpt><trkpt lat="42.64841984992462" lon="11.974911016232953"><ele>308.0</ele><time>2026-04-25T10:18:21.999Z</time></trkpt><trkpt lat="42.648360258078625" lon="11.97515148237291"><ele>308.0</ele><time>2026-04-25T10:18:22.999Z</time></trkpt><trkpt lat="42.64830393668222" lon="11.975392301600698"><ele>308.33333333333337</ele><time>2026-04-25T10:18:23.999Z</time></trkpt><trkpt lat="42.64824361433543" lon="11.975628787930695"><ele>308.6666666666667</ele><time>2026-04-25T10:18:24.999Z</time></trkpt><trkpt lat="42.64818301869661" lon="11.975864867488783"><ele>309.0</ele><time>2026-04-25T10:18:25.999Z</time></trkpt><trkpt lat="42.648125047075716" lon="11.976101319940813"><ele>309.6666666666667</ele><time>2026-04-25T10:18:26.999Z</time></trkpt><trkpt lat="42.64805066498252" lon="11.97632862104634"><ele>310.33333333333337</ele><time>2026-04-25T10:18:27.999Z</time></trkpt><trkpt lat="42.648007977215975" lon="11.976566536859291"><ele>311.0</ele><time>2026-04-25T10:18:28.999Z</time></trkpt><trkpt lat="42.647934508060324" lon="11.976790777337838"><ele>311.0</ele><time>2026-04-25T10:18:29.999Z</time></trkpt><trkpt lat="42.64787685230706" lon="11.97702017361058"><ele>311.0</ele><time>2026-04-25T10:18:30.999Z</time></trkpt><trkpt lat="42.64781956472659" lon="11.977244462690686"><ele>311.0</ele><time>2026-04-25T10:18:31.999Z</time></trkpt><trkpt lat="42.64776155146971" lon="11.97746893484365"><ele>311.6666666666667</ele><time>2026-04-25T10:18:32.999Z</time></trkpt><trkpt lat="42.64770376042044" lon="11.977692547179963"><ele>312.3333333333333</ele><time>2026-04-25T10:18:33.999Z</time></trkpt><trkpt lat="42.6476467313444" lon="11.977914280968411"><ele>313.0</ele><time>2026-04-25T10:18:34.999Z</time></trkpt><trkpt lat="42.64759054708439" lon="11.97813402924052"><ele>313.0</ele><time>2026-04-25T10:18:35.999Z</time></trkpt><trkpt lat="42.64753564256211" lon="11.978348772317775"><ele>313.0</ele><time>2026-04-25T10:18:36.999Z</time></trkpt><trkpt lat="42.64748151062032" lon="11.978560493595932"><ele>313.0</ele><time>2026-04-25T10:18:37.999Z</time></trkpt><trkpt lat="42.64742661044571" lon="11.978772593060166"><ele>313.3333333333333</ele><time>2026-04-25T10:18:38.999Z</time></trkpt><trkpt lat="42.64737353728871" lon="11.978980490807684"><ele>313.6666666666667</ele><time>2026-04-25T10:18:39.999Z</time></trkpt><trkpt lat="42.64732034211124" lon="11.979189435719936"><ele>314.0</ele><time>2026-04-25T10:18:40.999Z</time></trkpt><trkpt lat="42.647267457968006" lon="11.97939715896593"><ele>315.6666666666667</ele><time>2026-04-25T10:18:41.999Z</time></trkpt><trkpt lat="42.647229286756726" lon="11.979609556456301"><ele>317.3333333333333</ele><time>2026-04-25T10:18:42.999Z</time></trkpt><trkpt lat="42.647177040554595" lon="11.979809271600848"><ele>319.0</ele><time>2026-04-25T10:18:43.999Z</time></trkpt><trkpt lat="42.64712874225321" lon="11.980005861206221"><ele>319.66666666666663</ele><time>2026-04-25T10:18:44.999Z</time></trkpt><trkpt lat="42.64706337571426" lon="11.980194518263966"><ele>320.3333333333333</ele><time>2026-04-25T10:18:45.999Z</time></trkpt><trkpt lat="42.6470122813719" lon="11.980390597769842"><ele>321.0</ele><time>2026-04-25T10:18:46.999Z</time></trkpt><trkpt lat="42.64696196304867" lon="11.98058206558636"><ele>320.0</ele><time>2026-04-25T10:18:47.999Z</time></trkpt><trkpt lat="42.64691192093141" lon="11.980772925688198"><ele>319.0</ele><time>2026-04-25T10:18:48.999Z</time></trkpt><trkpt lat="42.64686466821503" lon="11.980953147014832"><ele>318.0</ele><time>2026-04-25T10:18:49.999Z</time></trkpt><trkpt lat="42.64681926720693" lon="11.981126307935858"><ele>317.0</ele><time>2026-04-25T10:18:50.999Z</time></trkpt><trkpt lat="42.64677700693016" lon="11.981289494417457"><ele>317.0</ele><time>2026-04-25T10:18:51.999Z</time></trkpt><trkpt lat="42.64673461184792" lon="11.981452691274264"><ele>317.0</ele><time>2026-04-25T10:18:52.999Z</time></trkpt><trkpt lat="42.64669119316424" lon="11.981616642757439"><ele>317.0</ele><time>2026-04-25T10:18:53.999Z</time></trkpt><trkpt lat="42.64666679212156" lon="11.981785924663667"><ele>317.0</ele><time>2026-04-25T10:18:54.999Z</time></trkpt><trkpt lat="42.64662250803216" lon="11.981948536308124"><ele>317.75</ele><time>2026-04-25T10:18:55.999Z</time></trkpt><trkpt lat="42.64657719535791" lon="11.982109294515075"><ele>318.5</ele><time>2026-04-25T10:18:56.999Z</time></trkpt><trkpt lat="42.64653012360487" lon="11.982269606009122"><ele>319.25</ele><time>2026-04-25T10:18:57.999Z</time></trkpt><trkpt lat="42.646466701864945" lon="11.982414916983343"><ele>320.0</ele><time>2026-04-25T10:18:58.999Z</time></trkpt><trkpt lat="42.64641319472208" lon="11.9825590081415"><ele>320.25</ele><time>2026-04-25T10:18:59.999Z</time></trkpt><trkpt lat="42.6463473094811" lon="11.982695720032266"><ele>320.5</ele><time>2026-04-25T10:19:00.999Z</time></trkpt><trkpt lat="42.64628796190872" lon="11.982843521466197"><ele>320.75</ele><time>2026-04-25T10:19:01.999Z</time></trkpt><trkpt lat="42.64620749332702" lon="11.982966091826695"><ele>321.0</ele><time>2026-04-25T10:19:02.999Z</time></trkpt><trkpt lat="42.646125094784026" lon="11.983081223908911"><ele>320.75</ele><time>2026-04-25T10:19:03.999Z</time></trkpt><trkpt lat="42.64604506347166" lon="11.983191941821158"><ele>320.5</ele><time>2026-04-25T10:19:04.999Z</time></trkpt><trkpt lat="42.6459521428801" lon="11.983287105699954"><ele>320.25</ele><time>2026-04-25T10:19:05.999Z</time></trkpt><trkpt lat="42.64588639827486" lon="11.983413155719422"><ele>320.0</ele><time>2026-04-25T10:19:06.999Z</time></trkpt><trkpt lat="42.64580753023161" lon="11.983521657313608"><ele>320.0</ele><time>2026-04-25T10:19:07.999Z</time></trkpt><trkpt lat="42.64573226241525" lon="11.983627326417876"><ele>320.0</ele><time>2026-04-25T10:19:08.999Z</time></trkpt><trkpt lat="42.64566011469058" lon="11.983730833305025"><ele>320.0</ele><time>2026-04-25T10:19:09.999Z</time></trkpt><trkpt lat="42.645593361789935" lon="11.98383149992589"><ele>320.0</ele><time>2026-04-25T10:19:10.999Z</time></trkpt><trkpt lat="42.645514591974916" lon="11.98391103016932"><ele>320.0</ele><time>2026-04-25T10:19:11.999Z</time></trkpt><trkpt lat="42.64545333588134" lon="11.983998134426198"><ele>320.0</ele><time>2026-04-25T10:19:12.999Z</time></trkpt><trkpt lat="42.64539538591657" lon="11.98408053733817"><ele>320.0</ele><time>2026-04-25T10:19:13.999Z</time></trkpt><trkpt lat="42.64534410998334" lon="11.98415345001884"><ele>320.0</ele><time>2026-04-25T10:19:14.999Z</time></trkpt><trkpt lat="42.64529812531844" lon="11.984218837482016"><ele>320.0</ele><time>2026-04-25T10:19:15.999Z</time></trkpt><trkpt lat="42.64523577785878" lon="11.984345197300938"><ele>320.0</ele><time>2026-04-25T10:19:17.999Z</time></trkpt><trkpt lat="42.64516661444075" lon="11.98444608150811"><ele>320.0</ele><time>2026-04-25T10:19:19.999Z</time></trkpt><trkpt lat="42.6451325530327" lon="11.984520072458713"><ele>319.57142857142856</ele><time>2026-04-25T10:19:20.998Z</time></trkpt><trkpt lat="42.645098983121166" lon="11.984594963463927"><ele>319.14285714285717</ele><time>2026-04-25T10:19:21.998Z</time></trkpt><trkpt lat="42.6450643686219" lon="11.98467938162249"><ele>318.7142857142857</ele><time>2026-04-25T10:19:22.998Z</time></trkpt><trkpt lat="42.64502561438537" lon="11.984768979484905"><ele>318.2857142857143</ele><time>2026-04-25T10:19:23.998Z</time></trkpt><trkpt lat="42.644981185244966" lon="11.984850649615645"><ele>317.85714285714283</ele><time>2026-04-25T10:19:24.998Z</time></trkpt><trkpt lat="42.644931233066245" lon="11.984929330532497"><ele>317.42857142857144</ele><time>2026-04-25T10:19:25.998Z</time></trkpt><trkpt lat="42.6448750616435" lon="11.98500318181651"><ele>317.0</ele><time>2026-04-25T10:19:26.998Z</time></trkpt><trkpt lat="42.644816541257555" lon="11.985072154449442"><ele>318.8</ele><time>2026-04-25T10:19:27.998Z</time></trkpt><trkpt lat="42.64475706702289" lon="11.985141031972793"><ele>320.6</ele><time>2026-04-25T10:19:28.998Z</time></trkpt><trkpt lat="42.64470239879413" lon="11.985206092646663"><ele>322.40000000000003</ele><time>2026-04-25T10:19:29.998Z</time></trkpt><trkpt lat="42.64465302730604" lon="11.985264849625926"><ele>324.2</ele><time>2026-04-25T10:19:30.998Z</time></trkpt><trkpt lat="42.644562890343835" lon="11.98537702062373"><ele>326.0</ele><time>2026-04-25T10:19:33Z</time></trkpt><trkpt lat="42.64448044112937" lon="11.985486002850083"><ele>324.8</ele><time>2026-04-25T10:19:35Z</time></trkpt><trkpt lat="42.64442017993846" lon="11.985582591593182"><ele>323.6</ele><time>2026-04-25T10:19:37Z</time></trkpt><trkpt lat="42.64438144185993" lon="11.985659395449266"><ele>322.4</ele><time>2026-04-25T10:19:39Z</time></trkpt><trkpt lat="42.644337859767646" lon="11.98576256637714"><ele>321.2</ele><time>2026-04-25T10:19:42Z</time></trkpt><trkpt lat="42.644311426683956" lon="11.985887429366104"><ele>320.0</ele><time>2026-04-25T10:19:45Z</time></trkpt><trkpt lat="42.64425845473086" lon="11.986022530500794"><ele>320.0</ele><time>2026-04-25T10:19:47Z</time></trkpt><trkpt lat="42.64423557664994" lon="11.986141084983036"><ele>320.0</ele><time>2026-04-25T10:19:49Z</time></trkpt><trkpt lat="42.64420152244359" lon="11.986242769126566"><ele>320.0</ele><time>2026-04-25T10:19:52Z</time></trkpt><trkpt lat="42.644161673737415" lon="11.98636946527211"><ele>320.0</ele><time>2026-04-25T10:19:55Z</time></trkpt><trkpt lat="42.644116000872536" lon="11.986441035285834"><ele>320.0</ele><time>2026-04-25T10:19:56Z</time></trkpt><trkpt lat="42.644055975282704" lon="11.98653055655883"><ele>320.0</ele><time>2026-04-25T10:19:57Z</time></trkpt><trkpt lat="42.643986243202285" lon="11.986604095378683"><ele>320.0</ele><time>2026-04-25T10:19:58Z</time></trkpt><trkpt lat="42.64392432752353" lon="11.986676190084552"><ele>320.0</ele><time>2026-04-25T10:19:59Z</time></trkpt><trkpt lat="42.64387104153003" lon="11.98673823655996"><ele>320.0</ele><time>2026-04-25T10:20:00Z</time></trkpt><trkpt lat="42.64379693233595" lon="11.986850434120395"><ele>320.0</ele><time>2026-04-25T10:20:02Z</time></trkpt><trkpt lat="42.64371698662341" lon="11.986934924599064"><ele>320.0</ele><time>2026-04-25T10:20:04Z</time></trkpt><trkpt lat="42.64361025330372" lon="11.987024958069382"><ele>319.6</ele><time>2026-04-25T10:20:06Z</time></trkpt><trkpt lat="42.6435429341536" lon="11.987096378715536"><ele>319.2</ele><time>2026-04-25T10:20:07Z</time></trkpt><trkpt lat="42.643464461089295" lon="11.987179319642857"><ele>318.8</ele><time>2026-04-25T10:20:08Z</time></trkpt><trkpt lat="42.6433842370707" lon="11.987264111170022"><ele>318.4</ele><time>2026-04-25T10:20:09Z</time></trkpt><trkpt lat="42.64329872852644" lon="11.987354488130471"><ele>318.0</ele><time>2026-04-25T10:20:10Z</time></trkpt><trkpt lat="42.643213599430794" lon="11.987444463997392"><ele>318.6</ele><time>2026-04-25T10:20:11Z</time></trkpt><trkpt lat="42.64313579700646" lon="11.987553443850194"><ele>319.20000000000005</ele><time>2026-04-25T10:20:12Z</time></trkpt><trkpt lat="42.64304798427657" lon="11.987645512235028"><ele>319.8</ele><time>2026-04-25T10:20:13Z</time></trkpt><trkpt lat="42.64296202363289" lon="11.987735516530044"><ele>320.40000000000003</ele><time>2026-04-25T10:20:14Z</time></trkpt><trkpt lat="42.642877581521034" lon="11.987822611415911"><ele>321.0</ele><time>2026-04-25T10:20:15Z</time></trkpt><trkpt lat="42.64279435311228" lon="11.987908008247862"><ele>319.8</ele><time>2026-04-25T10:20:16Z</time></trkpt><trkpt lat="42.64271439927283" lon="11.987993193222266"><ele>318.6</ele><time>2026-04-25T10:20:17Z</time></trkpt><trkpt lat="42.64263615518819" lon="11.988074721198682"><ele>317.4</ele><time>2026-04-25T10:20:18Z</time></trkpt><trkpt lat="42.642558138673664" lon="11.988154764522049"><ele>316.2</ele><time>2026-04-25T10:20:19Z</time></trkpt><trkpt lat="42.6424805020867" lon="11.98823567531359"><ele>315.0</ele><time>2026-04-25T10:20:20Z</time></trkpt><trkpt lat="42.642405302375856" lon="11.988318511175489"><ele>315.8</ele><time>2026-04-25T10:20:21Z</time></trkpt><trkpt lat="42.642329697067694" lon="11.98840121863325"><ele>316.6</ele><time>2026-04-25T10:20:22Z</time></trkpt><trkpt lat="42.64225421002283" lon="11.988481756067507"><ele>317.4</ele><time>2026-04-25T10:20:23Z</time></trkpt><trkpt lat="42.64218294488072" lon="11.988572976852634"><ele>318.2</ele><time>2026-04-25T10:20:24Z</time></trkpt><trkpt lat="42.642117329250176" lon="11.988677989461646"><ele>319.0</ele><time>2026-04-25T10:20:25Z</time></trkpt><trkpt lat="42.642038406970485" lon="11.988769221090415"><ele>319.0</ele><time>2026-04-25T10:20:26Z</time></trkpt><trkpt lat="42.64197800949797" lon="11.988870023465722"><ele>319.0</ele><time>2026-04-25T10:20:27Z</time></trkpt><trkpt lat="42.64192541537405" lon="11.988958776114094"><ele>319.0</ele><time>2026-04-25T10:20:28Z</time></trkpt><trkpt lat="42.641878142143725" lon="11.989040172545293"><ele>319.0</ele><time>2026-04-25T10:20:29Z</time></trkpt><trkpt lat="42.64183506033128" lon="11.9891151142766"><ele>319.0</ele><time>2026-04-25T10:20:30Z</time></trkpt><trkpt lat="42.641786707929136" lon="11.989199224561062"><ele>319.0</ele><time>2026-04-25T10:20:31Z</time></trkpt><trkpt lat="42.641731611032434" lon="11.989295067012893"><ele>319.2</ele><time>2026-04-25T10:20:32Z</time></trkpt><trkpt lat="42.64167151051434" lon="11.98940144802439"><ele>319.4</ele><time>2026-04-25T10:20:33Z</time></trkpt><trkpt lat="42.64160333029297" lon="11.989520213967822"><ele>319.6</ele><time>2026-04-25T10:20:34Z</time></trkpt><trkpt lat="42.6415463914845" lon="11.989656109222073"><ele>319.8</ele><time>2026-04-25T10:20:34.999Z</time></trkpt><trkpt lat="42.641474297895016" lon="11.989778971198694"><ele>320.0</ele><time>2026-04-25T10:20:35.999Z</time></trkpt><trkpt lat="42.64139872718618" lon="11.989909321188742"><ele>320.0</ele><time>2026-04-25T10:20:36.999Z</time></trkpt><trkpt lat="42.64131862624568" lon="11.990038961701236"><ele>320.0</ele><time>2026-04-25T10:20:37.999Z</time></trkpt><trkpt lat="42.641231000465446" lon="11.990165707584291"><ele>320.0</ele><time>2026-04-25T10:20:38.999Z</time></trkpt><trkpt lat="42.64113290402232" lon="11.990286638127145"><ele>320.0</ele><time>2026-04-25T10:20:39.999Z</time></trkpt><trkpt lat="42.64102372517801" lon="11.990399726547674"><ele>320.0</ele><time>2026-04-25T10:20:40.999Z</time></trkpt><trkpt lat="42.64090718634287" lon="11.990504383032627"><ele>320.0</ele><time>2026-04-25T10:20:41.999Z</time></trkpt><trkpt lat="42.64078514779546" lon="11.990605737039093"><ele>320.0</ele><time>2026-04-25T10:20:42.999Z</time></trkpt><trkpt lat="42.640661558258046" lon="11.990701545756773"><ele>320.0</ele><time>2026-04-25T10:20:43.999Z</time></trkpt><trkpt lat="42.640538348750496" lon="11.990797449819725"><ele>320.0</ele><time>2026-04-25T10:20:44.999Z</time></trkpt><trkpt lat="42.64041396759046" lon="11.990894859583086"><ele>320.0</ele><time>2026-04-25T10:20:45.999Z</time></trkpt><trkpt lat="42.64028770416264" lon="11.990992268963565"><ele>320.0</ele><time>2026-04-25T10:20:46.999Z</time></trkpt><trkpt lat="42.64016267148752" lon="11.991094812579982"><ele>320.0</ele><time>2026-04-25T10:20:47.999Z</time></trkpt><trkpt lat="42.64004188465751" lon="11.991200434310597"><ele>320.0</ele><time>2026-04-25T10:20:48.999Z</time></trkpt><trkpt lat="42.63991810416594" lon="11.991301699059097"><ele>320.0</ele><time>2026-04-25T10:20:49.999Z</time></trkpt><trkpt lat="42.639799008098905" lon="11.991401573393075"><ele>320.0</ele><time>2026-04-25T10:20:50.999Z</time></trkpt><trkpt lat="42.63968610768478" lon="11.991512268446439"><ele>320.0</ele><time>2026-04-25T10:20:51.999Z</time></trkpt><trkpt lat="42.63957439185144" lon="11.991624494641432"><ele>320.75</ele><time>2026-04-25T10:20:52.999Z</time></trkpt><trkpt lat="42.63946483195343" lon="11.991744114351198"><ele>321.5</ele><time>2026-04-25T10:20:53.999Z</time></trkpt><trkpt lat="42.63936002313503" lon="11.991878728015493"><ele>322.25</ele><time>2026-04-25T10:20:54.999Z</time></trkpt><trkpt lat="42.63925226506546" lon="11.992015985455136"><ele>323.0</ele><time>2026-04-25T10:20:55.999Z</time></trkpt><trkpt lat="42.63914009958761" lon="11.992154872509836"><ele>323.0</ele><time>2026-04-25T10:20:56.999Z</time></trkpt><trkpt lat="42.639027025698475" lon="11.992292289490074"><ele>323.0</ele><time>2026-04-25T10:20:57.999Z</time></trkpt><trkpt lat="42.63891510908967" lon="11.992434712211114"><ele>323.0</ele><time>2026-04-25T10:20:58.999Z</time></trkpt><trkpt lat="42.63880086011475" lon="11.992581203345248"><ele>321.6666666666667</ele><time>2026-04-25T10:20:59.999Z</time></trkpt><trkpt lat="42.638683151577865" lon="11.992726543645691"><ele>320.3333333333333</ele><time>2026-04-25T10:21:00.999Z</time></trkpt><trkpt lat="42.63855737739388" lon="11.992866223812323"><ele>319.0</ele><time>2026-04-25T10:21:01.999Z</time></trkpt><trkpt lat="42.63842283345668" lon="11.99299317028816"><ele>319.0</ele><time>2026-04-25T10:21:02.999Z</time></trkpt><trkpt lat="42.638283103961534" lon="11.993097791438135"><ele>319.0</ele><time>2026-04-25T10:21:03.999Z</time></trkpt><trkpt lat="42.63814236463673" lon="11.993201733273667"><ele>319.0</ele><time>2026-04-25T10:21:04.999Z</time></trkpt><trkpt lat="42.63800020701328" lon="11.993310778989526"><ele>318.3333333333333</ele><time>2026-04-25T10:21:05.999Z</time></trkpt><trkpt lat="42.637861308230434" lon="11.993428457986248"><ele>317.6666666666667</ele><time>2026-04-25T10:21:06.999Z</time></trkpt><trkpt lat="42.63772642126712" lon="11.99355182395917"><ele>317.0</ele><time>2026-04-25T10:21:07.999Z</time></trkpt><trkpt lat="42.637591120639804" lon="11.993674381071724"><ele>317.0</ele><time>2026-04-25T10:21:08.999Z</time></trkpt><trkpt lat="42.63745328437169" lon="11.993793548908979"><ele>317.0</ele><time>2026-04-25T10:21:09.999Z</time></trkpt><trkpt lat="42.63731860242543" lon="11.993919405785228"><ele>317.0</ele><time>2026-04-25T10:21:10.999Z</time></trkpt><trkpt lat="42.63718440408926" lon="11.99404299943652"><ele>317.0</ele><time>2026-04-25T10:21:11.999Z</time></trkpt><trkpt lat="42.63704840922496" lon="11.994164676930593"><ele>317.0</ele><time>2026-04-25T10:21:12.999Z</time></trkpt><trkpt lat="42.636910278529115" lon="11.994282789249194"><ele>317.0</ele><time>2026-04-25T10:21:13.999Z</time></trkpt><trkpt lat="42.63677036675358" lon="11.994398743996177"><ele>317.6666666666667</ele><time>2026-04-25T10:21:14.999Z</time></trkpt><trkpt lat="42.63662560955586" lon="11.994503864363832"><ele>318.3333333333333</ele><time>2026-04-25T10:21:15.999Z</time></trkpt><trkpt lat="42.63647325570573" lon="11.994589889523413"><ele>319.0</ele><time>2026-04-25T10:21:16.999Z</time></trkpt><trkpt lat="42.636315939545995" lon="11.994658211717852"><ele>319.0</ele><time>2026-04-25T10:21:17.999Z</time></trkpt><trkpt lat="42.63615372224318" lon="11.994718565913802"><ele>319.0</ele><time>2026-04-25T10:21:18.999Z</time></trkpt><trkpt lat="42.635990327838535" lon="11.994773060636343"><ele>319.0</ele><time>2026-04-25T10:21:19.999Z</time></trkpt><trkpt lat="42.63582697570094" lon="11.994826522066983"><ele>317.3333333333333</ele><time>2026-04-25T10:21:20.999Z</time></trkpt><trkpt lat="42.635665200015836" lon="11.99487845158013"><ele>315.6666666666667</ele><time>2026-04-25T10:21:21.999Z</time></trkpt><trkpt lat="42.63550173459513" lon="11.994926638487142"><ele>314.0</ele><time>2026-04-25T10:21:22.999Z</time></trkpt><trkpt lat="42.63533742100507" lon="11.994973995781393"><ele>316.33333333333337</ele><time>2026-04-25T10:21:23.999Z</time></trkpt><trkpt lat="42.63517496810825" lon="11.995023460966127"><ele>318.6666666666667</ele><time>2026-04-25T10:21:24.999Z</time></trkpt><trkpt lat="42.635014910820146" lon="11.995075569537772"><ele>321.0</ele><time>2026-04-25T10:21:25.999Z</time></trkpt><trkpt lat="42.634854026747" lon="11.995129130105132"><ele>321.0</ele><time>2026-04-25T10:21:26.999Z</time></trkpt><trkpt lat="42.634699132367096" lon="11.99519208532827"><ele>321.0</ele><time>2026-04-25T10:21:27.999Z</time></trkpt><trkpt lat="42.634550158363325" lon="11.995269442026972"><ele>321.0</ele><time>2026-04-25T10:21:28.999Z</time></trkpt><trkpt lat="42.634404283093176" lon="11.995366800003854"><ele>320.0</ele><time>2026-04-25T10:21:29.999Z</time></trkpt><trkpt lat="42.63426235080051" lon="11.995484234821424"><ele>319.0</ele><time>2026-04-25T10:21:30.999Z</time></trkpt><trkpt lat="42.63411610810807" lon="11.995606139673827"><ele>318.0</ele><time>2026-04-25T10:21:31.999Z</time></trkpt><trkpt lat="42.633969418323886" lon="11.995734177127083"><ele>322.0</ele><time>2026-04-25T10:21:32.999Z</time></trkpt><trkpt lat="42.63380893739503" lon="11.995848895147928"><ele>326.0</ele><time>2026-04-25T10:21:33.999Z</time></trkpt><trkpt lat="42.633665460552166" lon="11.99599944765027"><ele>330.0</ele><time>2026-04-25T10:21:34.999Z</time></trkpt><trkpt lat="42.6335172219568" lon="11.99613490770393"><ele>330.0</ele><time>2026-04-25T10:21:35.999Z</time></trkpt><trkpt lat="42.63337372140571" lon="11.996270237472517"><ele>330.0</ele><time>2026-04-25T10:21:36.999Z</time></trkpt><trkpt lat="42.63322763387125" lon="11.996404227121266"><ele>330.0</ele><time>2026-04-25T10:21:37.999Z</time></trkpt><trkpt lat="42.63308055443835" lon="11.996537158865054"><ele>330.0</ele><time>2026-04-25T10:21:39Z</time></trkpt><trkpt lat="42.632924971412876" lon="11.996665520941963"><ele>330.0</ele><time>2026-04-25T10:21:40Z</time></trkpt><trkpt lat="42.632759791625226" lon="11.996786591542214"><ele>330.0</ele><time>2026-04-25T10:21:41Z</time></trkpt><trkpt lat="42.632589718876275" lon="11.99690085260373"><ele>333.3333333333333</ele><time>2026-04-25T10:21:42Z</time></trkpt><trkpt lat="42.63241462861183" lon="11.997013719804333"><ele>336.66666666666663</ele><time>2026-04-25T10:21:43Z</time></trkpt><trkpt lat="42.632237024374206" lon="11.997124598970787"><ele>340.0</ele><time>2026-04-25T10:21:44Z</time></trkpt><trkpt lat="42.632058732165575" lon="11.997234200856072"><ele>344.0</ele><time>2026-04-25T10:21:45Z</time></trkpt><trkpt lat="42.63187874204193" lon="11.997343574573602"><ele>348.0</ele><time>2026-04-25T10:21:46Z</time></trkpt><trkpt lat="42.63169795978083" lon="11.997453237513744"><ele>352.0</ele><time>2026-04-25T10:21:47Z</time></trkpt><trkpt lat="42.63151784699139" lon="11.997562523383104"><ele>352.0</ele><time>2026-04-25T10:21:48Z</time></trkpt><trkpt lat="42.63133625295803" lon="11.997668894076115"><ele>352.0</ele><time>2026-04-25T10:21:49Z</time></trkpt><trkpt lat="42.63115295348759" lon="11.997772763176497"><ele>352.0</ele><time>2026-04-25T10:21:50Z</time></trkpt><trkpt lat="42.63096864837744" lon="11.99786810765793"><ele>347.66666666666663</ele><time>2026-04-25T10:21:51Z</time></trkpt><trkpt lat="42.630782662327086" lon="11.997953207134964"><ele>343.3333333333333</ele><time>2026-04-25T10:21:52Z</time></trkpt><trkpt lat="42.63059688087498" lon="11.998028878896493"><ele>339.0</ele><time>2026-04-25T10:21:53Z</time></trkpt><trkpt lat="42.63040706290573" lon="11.998101178690318"><ele>334.6666666666667</ele><time>2026-04-25T10:21:54Z</time></trkpt><trkpt lat="42.63021347485107" lon="11.998160949492014"><ele>330.33333333333337</ele><time>2026-04-25T10:21:55Z</time></trkpt><trkpt lat="42.630017935469034" lon="11.998212552758574"><ele>326.0</ele><time>2026-04-25T10:21:56Z</time></trkpt><trkpt lat="42.629822006864316" lon="11.998255648428835"><ele>326.0</ele><time>2026-04-25T10:21:57Z</time></trkpt><trkpt lat="42.62963031136657" lon="11.99827466413839"><ele>326.0</ele><time>2026-04-25T10:21:58Z</time></trkpt><trkpt lat="42.62942405927464" lon="11.998273888757776"><ele>326.0</ele><time>2026-04-25T10:21:59Z</time></trkpt><trkpt lat="42.629230019112526" lon="11.998291098982442"><ele>328.33333333333337</ele><time>2026-04-25T10:22:00Z</time></trkpt><trkpt lat="42.629034708069774" lon="11.998339008028411"><ele>330.6666666666667</ele><time>2026-04-25T10:22:01Z</time></trkpt><trkpt lat="42.628833409150765" lon="11.998398397430707"><ele>333.0</ele><time>2026-04-25T10:22:02Z</time></trkpt><trkpt lat="42.62862676979128" lon="11.998453219970903"><ele>333.0</ele><time>2026-04-25T10:22:03Z</time></trkpt><trkpt lat="42.62842623373105" lon="11.998517729974747"><ele>333.0</ele><time>2026-04-25T10:22:04Z</time></trkpt><trkpt lat="42.628225898242476" lon="11.998595586253371"><ele>333.0</ele><time>2026-04-25T10:22:05Z</time></trkpt><trkpt lat="42.62802993903135" lon="11.998682437783213"><ele>333.0</ele><time>2026-04-25T10:22:06Z</time></trkpt><trkpt lat="42.62783777888262" lon="11.99877707046865"><ele>333.0</ele><time>2026-04-25T10:22:07Z</time></trkpt><trkpt lat="42.627643663151005" lon="11.998863146692297"><ele>333.0</ele><time>2026-04-25T10:22:08Z</time></trkpt><trkpt lat="42.6274494872445" lon="11.998941120606448"><ele>331.0</ele><time>2026-04-25T10:22:09Z</time></trkpt><trkpt lat="42.627258214742014" lon="11.999019230307903"><ele>329.0</ele><time>2026-04-25T10:22:10Z</time></trkpt><trkpt lat="42.62706995499254" lon="11.999095208354"><ele>327.0</ele><time>2026-04-25T10:22:11Z</time></trkpt><trkpt lat="42.62688425043517" lon="11.99916403829481"><ele>335.6666666666667</ele><time>2026-04-25T10:22:12Z</time></trkpt><trkpt lat="42.626698642060305" lon="11.999222431529423"><ele>344.33333333333337</ele><time>2026-04-25T10:22:13Z</time></trkpt><trkpt lat="42.626509388148065" lon="11.99926310731565"><ele>353.0</ele><time>2026-04-25T10:22:14Z</time></trkpt><trkpt lat="42.62631621579298" lon="11.999285841131039"><ele>349.6666666666667</ele><time>2026-04-25T10:22:15Z</time></trkpt><trkpt lat="42.62612072605158" lon="11.999295314173226"><ele>346.3333333333333</ele><time>2026-04-25T10:22:16Z</time></trkpt><trkpt lat="42.62592494565332" lon="11.99930003371579"><ele>343.0</ele><time>2026-04-25T10:22:17Z</time></trkpt><trkpt lat="42.625728482500136" lon="11.999309370685731"><ele>343.0</ele><time>2026-04-25T10:22:18Z</time></trkpt><trkpt lat="42.62553336365845" lon="11.999323887198111"><ele>343.0</ele><time>2026-04-25T10:22:19Z</time></trkpt><trkpt lat="42.6253391062752" lon="11.999331287725544"><ele>343.0</ele><time>2026-04-25T10:22:20Z</time></trkpt><trkpt lat="42.62514644085954" lon="11.99933732044631"><ele>339.0</ele><time>2026-04-25T10:22:21Z</time></trkpt><trkpt lat="42.62495517459617" lon="11.999343923669239"><ele>335.0</ele><time>2026-04-25T10:22:22Z</time></trkpt><trkpt lat="42.62476415212778" lon="11.99934882854447"><ele>331.0</ele><time>2026-04-25T10:22:23Z</time></trkpt><trkpt lat="42.62457257393843" lon="11.99935242849006"><ele>329.0</ele><time>2026-04-25T10:22:24Z</time></trkpt><trkpt lat="42.62438055923299" lon="11.999356159970821"><ele>327.0</ele><time>2026-04-25T10:22:25Z</time></trkpt><trkpt lat="42.624188795863446" lon="11.999364695110696"><ele>325.0</ele><time>2026-04-25T10:22:26Z</time></trkpt><trkpt lat="42.62399583435236" lon="11.999368370127687"><ele>325.0</ele><time>2026-04-25T10:22:27Z</time></trkpt><trkpt lat="42.62380227600327" lon="11.999351430603689"><ele>325.0</ele><time>2026-04-25T10:22:28Z</time></trkpt><trkpt lat="42.62361154256864" lon="11.999309774961034"><ele>325.0</ele><time>2026-04-25T10:22:29Z</time></trkpt><trkpt lat="42.62342705133874" lon="11.999235505585654"><ele>323.0</ele><time>2026-04-25T10:22:30Z</time></trkpt><trkpt lat="42.623259559270636" lon="11.999120034144985"><ele>321.0</ele><time>2026-04-25T10:22:31Z</time></trkpt><trkpt lat="42.62311511150707" lon="11.99896935700744"><ele>319.0</ele><time>2026-04-25T10:22:32Z</time></trkpt><trkpt lat="42.62297963531917" lon="11.998813305892787"><ele>319.0</ele><time>2026-04-25T10:22:33Z</time></trkpt><trkpt lat="42.62286095921571" lon="11.9986610653194"><ele>319.0</ele><time>2026-04-25T10:22:34Z</time></trkpt><trkpt lat="42.62275743263753" lon="11.998513732736098"><ele>319.0</ele><time>2026-04-25T10:22:35Z</time></trkpt><trkpt lat="42.622642346311444" lon="11.998377058555626"><ele>318.3333333333333</ele><time>2026-04-25T10:22:36Z</time></trkpt><trkpt lat="42.6225020230081" lon="11.998276784013946"><ele>317.6666666666667</ele><time>2026-04-25T10:22:37Z</time></trkpt><trkpt lat="42.62234156226718" lon="11.998216595301727"><ele>317.0</ele><time>2026-04-25T10:22:38Z</time></trkpt><trkpt lat="42.622167300335725" lon="11.998185804213945"><ele>317.0</ele><time>2026-04-25T10:22:39Z</time></trkpt><trkpt lat="42.62198234254136" lon="11.998174476073741"><ele>317.0</ele><time>2026-04-25T10:22:40Z</time></trkpt><trkpt lat="42.621784250670316" lon="11.998161704583891"><ele>317.0</ele><time>2026-04-25T10:22:41Z</time></trkpt><trkpt lat="42.62157628255945" lon="11.998135353197958"><ele>317.33333333333337</ele><time>2026-04-25T10:22:42Z</time></trkpt><trkpt lat="42.62137200282839" lon="11.998113756566136"><ele>317.6666666666667</ele><time>2026-04-25T10:22:43Z</time></trkpt><trkpt lat="42.62117171517697" lon="11.998101441578328"><ele>318.0</ele><time>2026-04-25T10:22:44Z</time></trkpt><trkpt lat="42.62097147976404" lon="11.998086198140534"><ele>318.3333333333333</ele><time>2026-04-25T10:22:45Z</time></trkpt><trkpt lat="42.620774283495095" lon="11.99806371018765"><ele>318.66666666666663</ele><time>2026-04-25T10:22:46Z</time></trkpt><trkpt lat="42.62058057385538" lon="11.998048863380983"><ele>319.0</ele><time>2026-04-25T10:22:47Z</time></trkpt><trkpt lat="42.620401134694575" lon="11.998037209749103"><ele>320.3333333333333</ele><time>2026-04-25T10:22:48Z</time></trkpt><trkpt lat="42.62022940874585" lon="11.998016044344526"><ele>321.6666666666667</ele><time>2026-04-25T10:22:48.999Z</time></trkpt><trkpt lat="42.62005175824333" lon="11.99797107502568"><ele>323.0</ele><time>2026-04-25T10:22:49.999Z</time></trkpt><trkpt lat="42.61987087232831" lon="11.99788664139646"><ele>323.0</ele><time>2026-04-25T10:22:50.999Z</time></trkpt><trkpt lat="42.61969993528729" lon="11.99776471174241"><ele>323.0</ele><time>2026-04-25T10:22:51.999Z</time></trkpt><trkpt lat="42.61954337297425" lon="11.997611290062647"><ele>323.0</ele><time>2026-04-25T10:22:52.999Z</time></trkpt><trkpt lat="42.61938781341512" lon="11.997463818137982"><ele>320.6666666666667</ele><time>2026-04-25T10:22:53.999Z</time></trkpt><trkpt lat="42.61922062378602" lon="11.997334203261248"><ele>318.3333333333333</ele><time>2026-04-25T10:22:54.999Z</time></trkpt><trkpt lat="42.61904031956004" lon="11.997221763199347"><ele>316.0</ele><time>2026-04-25T10:22:55.999Z</time></trkpt><trkpt lat="42.618843881656154" lon="11.997138171093209"><ele>316.0</ele><time>2026-04-25T10:22:56.999Z</time></trkpt><trkpt lat="42.61863227347964" lon="11.99708184953115"><ele>316.0</ele><time>2026-04-25T10:22:57.999Z</time></trkpt><trkpt lat="42.61841233241439" lon="11.99702895415237"><ele>316.0</ele><time>2026-04-25T10:22:58.999Z</time></trkpt><trkpt lat="42.618197522970306" lon="11.99697288770707"><ele>316.0</ele><time>2026-04-25T10:22:59.999Z</time></trkpt><trkpt lat="42.61798874663544" lon="11.996917428064272"><ele>316.0</ele><time>2026-04-25T10:23:00.999Z</time></trkpt><trkpt lat="42.6177831100687" lon="11.996863198673594"><ele>316.0</ele><time>2026-04-25T10:23:01.999Z</time></trkpt><trkpt lat="42.61757959087561" lon="11.996804645576931"><ele>316.3333333333333</ele><time>2026-04-25T10:23:02.999Z</time></trkpt><trkpt lat="42.617377047414266" lon="11.996748551252587"><ele>316.6666666666667</ele><time>2026-04-25T10:23:03.999Z</time></trkpt><trkpt lat="42.6171838771113" lon="11.996699565645883"><ele>317.0</ele><time>2026-04-25T10:23:04.999Z</time></trkpt><trkpt lat="42.61699759019502" lon="11.996652080205203"><ele>315.6666666666667</ele><time>2026-04-25T10:23:05.999Z</time></trkpt><trkpt lat="42.61681749952082" lon="11.996594524302958"><ele>314.3333333333333</ele><time>2026-04-25T10:23:06.999Z</time></trkpt><trkpt lat="42.61663802061328" lon="11.996508423174355"><ele>313.0</ele><time>2026-04-25T10:23:07.999Z</time></trkpt><trkpt lat="42.61646559900327" lon="11.9963915325708"><ele>313.0</ele><time>2026-04-25T10:23:08.999Z</time></trkpt><trkpt lat="42.61629994587749" lon="11.99626747662882"><ele>313.0</ele><time>2026-04-25T10:23:09.999Z</time></trkpt><trkpt lat="42.616146995257225" lon="11.996147547561211"><ele>313.0</ele><time>2026-04-25T10:23:10.999Z</time></trkpt><trkpt lat="42.61601679374754" lon="11.996027253404808"><ele>312.5</ele><time>2026-04-25T10:23:11.999Z</time></trkpt><trkpt lat="42.61589788209343" lon="11.995919208568552"><ele>312.0</ele><time>2026-04-25T10:23:12.999Z</time></trkpt><trkpt lat="42.615778585717834" lon="11.995842467762845"><ele>311.5</ele><time>2026-04-25T10:23:13.999Z</time></trkpt><trkpt lat="42.615652493065554" lon="11.995807286110605"><ele>311.0</ele><time>2026-04-25T10:23:14.999Z</time></trkpt><trkpt lat="42.61552402562905" lon="11.995828202543578"><ele>312.0</ele><time>2026-04-25T10:23:15.999Z</time></trkpt><trkpt lat="42.61540110209548" lon="11.9959057987539"><ele>313.0</ele><time>2026-04-25T10:23:16.999Z</time></trkpt><trkpt lat="42.61528736157402" lon="11.996031338027862"><ele>314.0</ele><time>2026-04-25T10:23:17.999Z</time></trkpt><trkpt lat="42.61517264196457" lon="11.996186706878365"><ele>315.0</ele><time>2026-04-25T10:23:18.999Z</time></trkpt><trkpt lat="42.61503985655723" lon="11.996348785153511"><ele>315.0</ele><time>2026-04-25T10:23:19.999Z</time></trkpt><trkpt lat="42.61488607233744" lon="11.996508065481132"><ele>315.0</ele><time>2026-04-25T10:23:20.999Z</time></trkpt><trkpt lat="42.614724363015526" lon="11.996649146567474"><ele>315.0</ele><time>2026-04-25T10:23:21.999Z</time></trkpt><trkpt lat="42.61456063265049" lon="11.996775464766987"><ele>317.6666666666667</ele><time>2026-04-25T10:23:22.999Z</time></trkpt><trkpt lat="42.61438821934682" lon="11.996890636153255"><ele>320.33333333333337</ele><time>2026-04-25T10:23:23.999Z</time></trkpt><trkpt lat="42.61421081778613" lon="11.996997730972774"><ele>323.0</ele><time>2026-04-25T10:23:24.999Z</time></trkpt><trkpt lat="42.61403224462868" lon="11.997111292896612"><ele>323.0</ele><time>2026-04-25T10:23:25.999Z</time></trkpt><trkpt lat="42.61384963341928" lon="11.997220198908822"><ele>323.0</ele><time>2026-04-25T10:23:26.999Z</time></trkpt><trkpt lat="42.61365980466094" lon="11.9973102809001"><ele>323.0</ele><time>2026-04-25T10:23:27.999Z</time></trkpt><trkpt lat="42.61346300700332" lon="11.997384972172028"><ele>320.0</ele><time>2026-04-25T10:23:28.999Z</time></trkpt><trkpt lat="42.61325984819466" lon="11.997449604209834"><ele>317.0</ele><time>2026-04-25T10:23:29.999Z</time></trkpt><trkpt lat="42.61305376270753" lon="11.997499615133407"><ele>314.0</ele><time>2026-04-25T10:23:30.998Z</time></trkpt><trkpt lat="42.61284893633159" lon="11.997527333708343"><ele>314.0</ele><time>2026-04-25T10:23:31.998Z</time></trkpt><trkpt lat="42.61264004766234" lon="11.997531287353368"><ele>314.0</ele><time>2026-04-25T10:23:32.998Z</time></trkpt><trkpt lat="42.61242920158065" lon="11.997500897105693"><ele>314.0</ele><time>2026-04-25T10:23:33.998Z</time></trkpt><trkpt lat="42.61221674279487" lon="11.997432594558136"><ele>314.0</ele><time>2026-04-25T10:23:34.998Z</time></trkpt><trkpt lat="42.61200793684272" lon="11.997330350703212"><ele>314.0</ele><time>2026-04-25T10:23:35.998Z</time></trkpt><trkpt lat="42.61180739472408" lon="11.997214089850882"><ele>314.0</ele><time>2026-04-25T10:23:36.998Z</time></trkpt><trkpt lat="42.611613709793886" lon="11.997104999899058"><ele>317.0</ele><time>2026-04-25T10:23:37.998Z</time></trkpt><trkpt lat="42.61142989823869" lon="11.997008478463961"><ele>320.0</ele><time>2026-04-25T10:23:38.998Z</time></trkpt><trkpt lat="42.61125694013263" lon="11.996918158985418"><ele>323.0</ele><time>2026-04-25T10:23:39.998Z</time></trkpt><trkpt lat="42.611090141783755" lon="11.996836156471819"><ele>325.6666666666667</ele><time>2026-04-25T10:23:40.998Z</time></trkpt><trkpt lat="42.6109303194978" lon="11.996772904217405"><ele>328.3333333333333</ele><time>2026-04-25T10:23:41.998Z</time></trkpt><trkpt lat="42.610759277777646" lon="11.996741444376216"><ele>331.0</ele><time>2026-04-25T10:23:42.998Z</time></trkpt><trkpt lat="42.61057737689332" lon="11.996740088783094"><ele>331.0</ele><time>2026-04-25T10:23:43.998Z</time></trkpt><trkpt lat="42.610387281885586" lon="11.996754656653799"><ele>331.0</ele><time>2026-04-25T10:23:44.999Z</time></trkpt><trkpt lat="42.610189993480276" lon="11.996762749071804"><ele>331.0</ele><time>2026-04-25T10:23:45.999Z</time></trkpt><trkpt lat="42.60998937875013" lon="11.996764074848771"><ele>332.0</ele><time>2026-04-25T10:23:46.999Z</time></trkpt><trkpt lat="42.60978629439531" lon="11.996769938282773"><ele>333.0</ele><time>2026-04-25T10:23:47.999Z</time></trkpt><trkpt lat="42.60958175708643" lon="11.996781052832784"><ele>334.0</ele><time>2026-04-25T10:23:49Z</time></trkpt><trkpt lat="42.60937534976757" lon="11.996784272120767"><ele>329.66666666666663</ele><time>2026-04-25T10:23:49.999Z</time></trkpt><trkpt lat="42.60916588175957" lon="11.996771488930829"><ele>325.3333333333333</ele><time>2026-04-25T10:23:51Z</time></trkpt><trkpt lat="42.608956845527224" lon="11.99674812933217"><ele>321.0</ele><time>2026-04-25T10:23:52Z</time></trkpt><trkpt lat="42.60875054179638" lon="11.996723965648606"><ele>319.3333333333333</ele><time>2026-04-25T10:23:53Z</time></trkpt><trkpt lat="42.6085457351528" lon="11.996698815257522"><ele>317.66666666666663</ele><time>2026-04-25T10:23:54Z</time></trkpt><trkpt lat="42.60834439177639" lon="11.996676234864355"><ele>316.0</ele><time>2026-04-25T10:23:55Z</time></trkpt><trkpt lat="42.60814437267722" lon="11.996657244030496"><ele>314.66666666666663</ele><time>2026-04-25T10:23:56Z</time></trkpt><trkpt lat="42.60794995354311" lon="11.996640202334023"><ele>313.3333333333333</ele><time>2026-04-25T10:23:57Z</time></trkpt><trkpt lat="42.60776492262402" lon="11.996623595767687"><ele>312.0</ele><time>2026-04-25T10:23:58Z</time></trkpt><trkpt lat="42.607583954293716" lon="11.996610250625215"><ele>312.0</ele><time>2026-04-25T10:23:59Z</time></trkpt><trkpt lat="42.607401759448955" lon="11.996595931103482"><ele>312.0</ele><time>2026-04-25T10:24:00Z</time></trkpt><trkpt lat="42.60721917696991" lon="11.996579147377204"><ele>312.0</ele><time>2026-04-25T10:24:00.999Z</time></trkpt><trkpt lat="42.6070338093018" lon="11.996563222935759"><ele>312.0</ele><time>2026-04-25T10:24:01.999Z</time></trkpt><trkpt lat="42.60684405736449" lon="11.996551231965176"><ele>312.0</ele><time>2026-04-25T10:24:02.999Z</time></trkpt><trkpt lat="42.60665342816101" lon="11.996541886873272"><ele>312.0</ele><time>2026-04-25T10:24:03.999Z</time></trkpt><trkpt lat="42.606463712818" lon="11.996526353503096"><ele>312.0</ele><time>2026-04-25T10:24:04.999Z</time></trkpt><trkpt lat="42.60627534219479" lon="11.99650679121389"><ele>312.0</ele><time>2026-04-25T10:24:05.999Z</time></trkpt><trkpt lat="42.60608885690159" lon="11.996487505817624"><ele>312.0</ele><time>2026-04-25T10:24:06.999Z</time></trkpt><trkpt lat="42.605904458379186" lon="11.996468375415814"><ele>312.3333333333333</ele><time>2026-04-25T10:24:07.999Z</time></trkpt><trkpt lat="42.605724100829704" lon="11.996453970047023"><ele>312.66666666666663</ele><time>2026-04-25T10:24:08.999Z</time></trkpt><trkpt lat="42.60554536727083" lon="11.996435122646513"><ele>313.0</ele><time>2026-04-25T10:24:09.999Z</time></trkpt><trkpt lat="42.60536987600989" lon="11.996416589259445"><ele>314.0</ele><time>2026-04-25T10:24:10.999Z</time></trkpt><trkpt lat="42.60520096018508" lon="11.996398981792515"><ele>315.0</ele><time>2026-04-25T10:24:11.999Z</time></trkpt><trkpt lat="42.605046939312416" lon="11.996380575879254"><ele>316.0</ele><time>2026-04-25T10:24:12.999Z</time></trkpt><trkpt lat="42.604907510282594" lon="11.996371503498862"><ele>316.0</ele><time>2026-04-25T10:24:13.999Z</time></trkpt><trkpt lat="42.60478275984967" lon="11.996382368310643"><ele>316.0</ele><time>2026-04-25T10:24:14.999Z</time></trkpt><trkpt lat="42.604673556915536" lon="11.996413252910918"><ele>316.0</ele><time>2026-04-25T10:24:15.999Z</time></trkpt><trkpt lat="42.60457649478288" lon="11.99645417507489"><ele>316.0</ele><time>2026-04-25T10:24:16.999Z</time></trkpt><trkpt lat="42.604496605885544" lon="11.996507432999444"><ele>316.0</ele><time>2026-04-25T10:24:17.999Z</time></trkpt><trkpt lat="42.60443206116721" lon="11.996558682350999"><ele>315.66666666666663</ele><time>2026-04-25T10:24:18.999Z</time></trkpt><trkpt lat="42.60434339072928" lon="11.996633237856049"><ele>315.3333333333333</ele><time>2026-04-25T10:24:20.999Z</time></trkpt><trkpt lat="42.6042791581251" lon="11.996667428396396"><ele>315.0</ele><time>2026-04-25T10:24:23.999Z</time></trkpt><trkpt lat="42.60421906459661" lon="11.996756090631326"><ele>314.6666666666667</ele><time>2026-04-25T10:24:34.999Z</time></trkpt><trkpt lat="42.604162928475304" lon="11.996808182638247"><ele>314.33333333333337</ele><time>2026-04-25T10:24:35.999Z</time></trkpt><trkpt lat="42.60409648608814" lon="11.996866880696203"><ele>314.0</ele><time>2026-04-25T10:24:36.999Z</time></trkpt><trkpt lat="42.60402877786551" lon="11.996926237551413"><ele>314.8</ele><time>2026-04-25T10:24:37.999Z</time></trkpt><trkpt lat="42.6039564765221" lon="11.99699165138502"><ele>315.59999999999997</ele><time>2026-04-25T10:24:38.999Z</time></trkpt><trkpt lat="42.60388122656829" lon="11.997058010434996"><ele>316.4</ele><time>2026-04-25T10:24:39.999Z</time></trkpt><trkpt lat="42.60380242528067" lon="11.997123538017297"><ele>317.2</ele><time>2026-04-25T10:24:40.999Z</time></trkpt><trkpt lat="42.60372101166996" lon="11.997197459508602"><ele>318.0</ele><time>2026-04-25T10:24:41.999Z</time></trkpt><trkpt lat="42.60363536590682" lon="11.99727449909791"><ele>318.5</ele><time>2026-04-25T10:24:42.999Z</time></trkpt><trkpt lat="42.603543114867286" lon="11.997357403614267"><ele>319.0</ele><time>2026-04-25T10:24:43.999Z</time></trkpt><trkpt lat="42.60344347897162" lon="11.997450958828317"><ele>319.5</ele><time>2026-04-25T10:24:44.999Z</time></trkpt><trkpt lat="42.60334233829375" lon="11.997540448221873"><ele>320.0</ele><time>2026-04-25T10:24:45.999Z</time></trkpt><trkpt lat="42.60324208039102" lon="11.997632016765312"><ele>322.0</ele><time>2026-04-25T10:24:46.999Z</time></trkpt><trkpt lat="42.60313745918731" lon="11.99772225718766"><ele>324.0</ele><time>2026-04-25T10:24:47.999Z</time></trkpt><trkpt lat="42.60302845805646" lon="11.997805859824444"><ele>326.0</ele><time>2026-04-25T10:24:48.999Z</time></trkpt><trkpt lat="42.60292220409392" lon="11.997894118656996"><ele>328.0</ele><time>2026-04-25T10:24:49.999Z</time></trkpt><trkpt lat="42.60280935552205" lon="11.9979657860304"><ele>328.0</ele><time>2026-04-25T10:24:50.999Z</time></trkpt><trkpt lat="42.60268714258753" lon="11.998016240560808"><ele>328.0</ele><time>2026-04-25T10:24:51.999Z</time></trkpt><trkpt lat="42.60255910387423" lon="11.998044638091692"><ele>328.0</ele><time>2026-04-25T10:24:52.999Z</time></trkpt><trkpt lat="42.60243499347861" lon="11.998063173617206"><ele>328.0</ele><time>2026-04-25T10:24:53.999Z</time></trkpt><trkpt lat="42.602320252343475" lon="11.998082022084837"><ele>328.0</ele><time>2026-04-25T10:24:54.999Z</time></trkpt><trkpt lat="42.60222074457218" lon="11.998098279106678"><ele>328.0</ele><time>2026-04-25T10:24:55.999Z</time></trkpt><trkpt lat="42.60213692014768" lon="11.998111049340359"><ele>328.0</ele><time>2026-04-25T10:24:56.999Z</time></trkpt><trkpt lat="42.602069353256496" lon="11.998118354276102"><ele>328.0</ele><time>2026-04-25T10:24:57.999Z</time></trkpt><trkpt lat="42.601973999353184" lon="11.99811146240002"><ele>328.0</ele><time>2026-04-25T10:24:59.999Z</time></trkpt><trkpt lat="42.601912687512495" lon="11.998090091074534"><ele>328.0</ele><time>2026-04-25T10:25:02.999Z</time></trkpt><trkpt lat="42.60196313451919" lon="11.998174430117775"><ele>328.0</ele><time>2026-04-25T10:25:56Z</time></trkpt><trkpt lat="42.60208475316888" lon="11.998146714617366"><ele>328.0</ele><time>2026-04-25T10:25:58Z</time></trkpt><trkpt lat="42.60215700964141" lon="11.998133950429972"><ele>328.0</ele><time>2026-04-25T10:25:59Z</time></trkpt><trkpt lat="42.60224264540069" lon="11.998120123640629"><ele>328.0</ele><time>2026-04-25T10:26:00Z</time></trkpt><trkpt lat="42.60233671993883" lon="11.998105987280159"><ele>328.0</ele><time>2026-04-25T10:26:01Z</time></trkpt><trkpt lat="42.60243144253663" lon="11.998093572649411"><ele>328.0</ele><time>2026-04-25T10:26:02Z</time></trkpt><trkpt lat="42.60253493345464" lon="11.998075957195748"><ele>328.0</ele><time>2026-04-25T10:26:03Z</time></trkpt><trkpt lat="42.60264107947037" lon="11.998048123449035"><ele>328.0</ele><time>2026-04-25T10:26:04Z</time></trkpt><trkpt lat="42.60275580338089" lon="11.99801533361229"><ele>328.0</ele><time>2026-04-25T10:26:05Z</time></trkpt><trkpt lat="42.60287579645976" lon="11.997958352716413"><ele>328.75</ele><time>2026-04-25T10:26:06Z</time></trkpt><trkpt lat="42.6030060712566" lon="11.997863673010578"><ele>329.5</ele><time>2026-04-25T10:26:07Z</time></trkpt><trkpt lat="42.60313095113686" lon="11.997765987842017"><ele>330.25</ele><time>2026-04-25T10:26:08Z</time></trkpt><trkpt lat="42.60325280677591" lon="11.997656615059839"><ele>331.0</ele><time>2026-04-25T10:26:09Z</time></trkpt><trkpt lat="42.60337269431833" lon="11.997548623416627"><ele>328.25</ele><time>2026-04-25T10:26:10Z</time></trkpt><trkpt lat="42.603490821748196" lon="11.997442257573915"><ele>325.5</ele><time>2026-04-25T10:26:11Z</time></trkpt><trkpt lat="42.60360606999756" lon="11.99733851223429"><ele>322.75</ele><time>2026-04-25T10:26:12Z</time></trkpt><trkpt lat="42.60371866522612" lon="11.99723457954931"><ele>320.0</ele><time>2026-04-25T10:26:13Z</time></trkpt><trkpt lat="42.60382972548016" lon="11.997135922413394"><ele>319.5</ele><time>2026-04-25T10:26:14Z</time></trkpt><trkpt lat="42.60394519319033" lon="11.997035900408976"><ele>319.0</ele><time>2026-04-25T10:26:15Z</time></trkpt><trkpt lat="42.60406305747587" lon="11.996931995506774"><ele>318.5</ele><time>2026-04-25T10:26:16Z</time></trkpt><trkpt lat="42.60418258431943" lon="11.99682358784619"><ele>318.0</ele><time>2026-04-25T10:26:17Z</time></trkpt><trkpt lat="42.60430316715576" lon="11.996714763878684"><ele>317.5</ele><time>2026-04-25T10:26:18Z</time></trkpt><trkpt lat="42.60442572954026" lon="11.996608405382624"><ele>317.0</ele><time>2026-04-25T10:26:18.999Z</time></trkpt><trkpt lat="42.60454814505595" lon="11.996509867470236"><ele>316.5</ele><time>2026-04-25T10:26:19.999Z</time></trkpt><trkpt lat="42.60467906134688" lon="11.99643764211981"><ele>316.0</ele><time>2026-04-25T10:26:20.999Z</time></trkpt><trkpt lat="42.60483230557268" lon="11.996424587749276"><ele>316.0</ele><time>2026-04-25T10:26:21.999Z</time></trkpt><trkpt lat="42.604991827533944" lon="11.996432946789984"><ele>316.0</ele><time>2026-04-25T10:26:22.999Z</time></trkpt><trkpt lat="42.60516381487867" lon="11.996448232493202"><ele>316.0</ele><time>2026-04-25T10:26:23.999Z</time></trkpt><trkpt lat="42.605346671399225" lon="11.996467259084337"><ele>315.0</ele><time>2026-04-25T10:26:24.999Z</time></trkpt><trkpt lat="42.60553414814487" lon="11.996486377978693"><ele>314.0</ele><time>2026-04-25T10:26:25.999Z</time></trkpt><trkpt lat="42.605713242928665" lon="11.996503962081828"><ele>313.0</ele><time>2026-04-25T10:26:26.999Z</time></trkpt><trkpt lat="42.60589558476389" lon="11.996520106294987"><ele>313.0</ele><time>2026-04-25T10:26:27.999Z</time></trkpt><trkpt lat="42.60608673911651" lon="11.996536883140774"><ele>313.0</ele><time>2026-04-25T10:26:28.999Z</time></trkpt><trkpt lat="42.60628843654141" lon="11.996553480544161"><ele>313.0</ele><time>2026-04-25T10:26:29.999Z</time></trkpt><trkpt lat="42.60648780656933" lon="11.996569491631332"><ele>312.66666666666663</ele><time>2026-04-25T10:26:30.999Z</time></trkpt><trkpt lat="42.60668495779827" lon="11.996586201336852"><ele>312.3333333333333</ele><time>2026-04-25T10:26:31.999Z</time></trkpt><trkpt lat="42.606878873218406" lon="11.996603970491755"><ele>312.0</ele><time>2026-04-25T10:26:32.999Z</time></trkpt><trkpt lat="42.60706890096984" lon="11.99661859906149"><ele>312.0</ele><time>2026-04-25T10:26:33.999Z</time></trkpt><trkpt lat="42.607255049661035" lon="11.996630943473644"><ele>312.0</ele><time>2026-04-25T10:26:34.999Z</time></trkpt><trkpt lat="42.60743793965592" lon="11.99664714966954"><ele>312.0</ele><time>2026-04-25T10:26:35.999Z</time></trkpt><trkpt lat="42.60761882194631" lon="11.996662553644867"><ele>313.3333333333333</ele><time>2026-04-25T10:26:36.999Z</time></trkpt><trkpt lat="42.60779880813341" lon="11.996676798964144"><ele>314.66666666666663</ele><time>2026-04-25T10:26:37.999Z</time></trkpt><trkpt lat="42.6079774963762" lon="11.996694442615006"><ele>316.0</ele><time>2026-04-25T10:26:38.999Z</time></trkpt><trkpt lat="42.60815884006709" lon="11.996713262715613"><ele>316.0</ele><time>2026-04-25T10:26:39.999Z</time></trkpt><trkpt lat="42.60833939644131" lon="11.996733041299791"><ele>316.0</ele><time>2026-04-25T10:26:40.999Z</time></trkpt><trkpt lat="42.608521834208936" lon="11.996753312164891"><ele>316.0</ele><time>2026-04-25T10:26:41.999Z</time></trkpt><trkpt lat="42.60870382549729" lon="11.99677353341964"><ele>317.66666666666663</ele><time>2026-04-25T10:26:42.999Z</time></trkpt><trkpt lat="42.608886481698875" lon="11.996793828553539"><ele>319.3333333333333</ele><time>2026-04-25T10:26:43.999Z</time></trkpt><trkpt lat="42.60907158139875" lon="11.996811914033112"><ele>321.0</ele><time>2026-04-25T10:26:44.999Z</time></trkpt><trkpt lat="42.60925712241307" lon="11.996824938905506"><ele>321.0</ele><time>2026-04-25T10:26:45.999Z</time></trkpt><trkpt lat="42.60944673833871" lon="11.996829943671443"><ele>321.0</ele><time>2026-04-25T10:26:46.999Z</time></trkpt><trkpt lat="42.60964387452795" lon="11.996825155314454"><ele>321.0</ele><time>2026-04-25T10:26:47.999Z</time></trkpt><trkpt lat="42.60984504347683" lon="11.996795513145813"><ele>324.3333333333333</ele><time>2026-04-25T10:26:48.999Z</time></trkpt><trkpt lat="42.610046695741154" lon="11.996810034231387"><ele>327.66666666666663</ele><time>2026-04-25T10:26:49.999Z</time></trkpt><trkpt lat="42.61024471309373" lon="11.996802925321843"><ele>331.0</ele><time>2026-04-25T10:26:50.999Z</time></trkpt><trkpt lat="42.610433131892506" lon="11.996796823355819"><ele>331.0</ele><time>2026-04-25T10:26:51.999Z</time></trkpt><trkpt lat="42.61061110577641" lon="11.996791059662657"><ele>331.0</ele><time>2026-04-25T10:26:52.999Z</time></trkpt><trkpt lat="42.61078182353164" lon="11.996799327476703"><ele>331.0</ele><time>2026-04-25T10:26:53.999Z</time></trkpt><trkpt lat="42.61094904766163" lon="11.996838881662551"><ele>331.0</ele><time>2026-04-25T10:26:54.999Z</time></trkpt><trkpt lat="42.611116876908696" lon="11.996917264831856"><ele>331.0</ele><time>2026-04-25T10:26:55.999Z</time></trkpt><trkpt lat="42.611293628536366" lon="11.997008961142283"><ele>331.0</ele><time>2026-04-25T10:26:56.999Z</time></trkpt><trkpt lat="42.61148095458286" lon="11.997106351249691"><ele>328.3333333333333</ele><time>2026-04-25T10:26:57.999Z</time></trkpt><trkpt lat="42.61166900440581" lon="11.997205279510604"><ele>325.6666666666667</ele><time>2026-04-25T10:26:58.999Z</time></trkpt><trkpt lat="42.611854427099" lon="11.997302823793788"><ele>323.0</ele><time>2026-04-25T10:26:59.999Z</time></trkpt><trkpt lat="42.61203936154518" lon="11.997397127976619"><ele>320.0</ele><time>2026-04-25T10:27:00.999Z</time></trkpt><trkpt lat="42.612227263927366" lon="11.997482496202572"><ele>317.0</ele><time>2026-04-25T10:27:01.999Z</time></trkpt><trkpt lat="42.61242211315249" lon="11.997545152056839"><ele>314.0</ele><time>2026-04-25T10:27:02.999Z</time></trkpt><trkpt lat="42.612619254700284" lon="11.997555644405224"><ele>314.0</ele><time>2026-04-25T10:27:03.999Z</time></trkpt><trkpt lat="42.61281648565392" lon="11.99756224265948"><ele>314.0</ele><time>2026-04-25T10:27:04.999Z</time></trkpt><trkpt lat="42.613024747320274" lon="11.997540535198802"><ele>314.0</ele><time>2026-04-25T10:27:05.999Z</time></trkpt><trkpt lat="42.61323800740499" lon="11.99749767041056"><ele>314.0</ele><time>2026-04-25T10:27:06.999Z</time></trkpt><trkpt lat="42.6134438031965" lon="11.99743324103646"><ele>314.0</ele><time>2026-04-25T10:27:07.999Z</time></trkpt><trkpt lat="42.61365566138123" lon="11.997352325728638"><ele>314.0</ele><time>2026-04-25T10:27:08.999Z</time></trkpt><trkpt lat="42.613867643441225" lon="11.99725210676055"><ele>317.0</ele><time>2026-04-25T10:27:09.999Z</time></trkpt><trkpt lat="42.61407259928801" lon="11.997135153083654"><ele>320.0</ele><time>2026-04-25T10:27:10.999Z</time></trkpt><trkpt lat="42.61427246209836" lon="11.997011060793257"><ele>323.0</ele><time>2026-04-25T10:27:11.999Z</time></trkpt><trkpt lat="42.614468563442585" lon="11.996883398948306"><ele>325.33333333333337</ele><time>2026-04-25T10:27:12.999Z</time></trkpt><trkpt lat="42.61465834614889" lon="11.996750829632571"><ele>327.6666666666667</ele><time>2026-04-25T10:27:13.999Z</time></trkpt><trkpt lat="42.61483318459686" lon="11.996609366808762"><ele>330.0</ele><time>2026-04-25T10:27:14.999Z</time></trkpt><trkpt lat="42.614987355564196" lon="11.99645747737255"><ele>327.0</ele><time>2026-04-25T10:27:15.999Z</time></trkpt><trkpt lat="42.61512700512519" lon="11.996300280697403"><ele>324.0</ele><time>2026-04-25T10:27:16.999Z</time></trkpt><trkpt lat="42.615251055062636" lon="11.996148602946626"><ele>321.0</ele><time>2026-04-25T10:27:17.999Z</time></trkpt><trkpt lat="42.61535534584468" lon="11.996019363145162"><ele>321.0</ele><time>2026-04-25T10:27:18.999Z</time></trkpt><trkpt lat="42.61545570403139" lon="11.995921723078832"><ele>321.0</ele><time>2026-04-25T10:27:19.999Z</time></trkpt><trkpt lat="42.615565510568075" lon="11.995856930951685"><ele>321.0</ele><time>2026-04-25T10:27:20.999Z</time></trkpt><trkpt lat="42.61569164527546" lon="11.995852924759784"><ele>321.0</ele><time>2026-04-25T10:27:21.999Z</time></trkpt><trkpt lat="42.61581317203074" lon="11.99591924310327"><ele>321.0</ele><time>2026-04-25T10:27:22.998Z</time></trkpt><trkpt lat="42.615929213863694" lon="11.99602890920862"><ele>321.0</ele><time>2026-04-25T10:27:23.998Z</time></trkpt><trkpt lat="42.616065410198395" lon="11.996159836636707"><ele>321.0</ele><time>2026-04-25T10:27:24.998Z</time></trkpt><trkpt lat="42.61622789513186" lon="11.996286470924396"><ele>318.3333333333333</ele><time>2026-04-25T10:27:25.998Z</time></trkpt><trkpt lat="42.61640936030779" lon="11.99641436007249"><ele>315.66666666666663</ele><time>2026-04-25T10:27:26.998Z</time></trkpt><trkpt lat="42.616599850706486" lon="11.99654327104933"><ele>313.0</ele><time>2026-04-25T10:27:27.998Z</time></trkpt><trkpt lat="42.61680972636694" lon="11.996649011471654"><ele>315.0</ele><time>2026-04-25T10:27:28.998Z</time></trkpt><trkpt lat="42.61705086971948" lon="11.996701083119474"><ele>317.0</ele><time>2026-04-25T10:27:29.998Z</time></trkpt><trkpt lat="42.61730394130947" lon="11.996788933632295"><ele>317.0</ele><time>2026-04-25T10:27:30.998Z</time></trkpt><trkpt lat="42.617546676922714" lon="11.996853641970942"><ele>317.0</ele><time>2026-04-25T10:27:31.998Z</time></trkpt><trkpt lat="42.61778130026472" lon="11.996893506927128"><ele>316.6666666666667</ele><time>2026-04-25T10:27:32.998Z</time></trkpt><trkpt lat="42.61799776201025" lon="11.996974781413265"><ele>316.3333333333333</ele><time>2026-04-25T10:27:33.998Z</time></trkpt><trkpt lat="42.618209457974196" lon="11.99703190720346"><ele>316.0</ele><time>2026-04-25T10:27:34.998Z</time></trkpt><trkpt lat="42.618416378321875" lon="11.997088692648733"><ele>316.0</ele><time>2026-04-25T10:27:35.998Z</time></trkpt><trkpt lat="42.6186177662469" lon="11.997144646702525"><ele>316.0</ele><time>2026-04-25T10:27:36.998Z</time></trkpt><trkpt lat="42.618802376714434" lon="11.997196937982201"><ele>316.0</ele><time>2026-04-25T10:27:37.998Z</time></trkpt><trkpt lat="42.61898114378148" lon="11.99726328569204"><ele>316.0</ele><time>2026-04-25T10:27:38.998Z</time></trkpt><trkpt lat="42.61915766402142" lon="11.997365657562483"><ele>316.0</ele><time>2026-04-25T10:27:39.998Z</time></trkpt><trkpt lat="42.61932873672786" lon="11.997499726518297"><ele>316.0</ele><time>2026-04-25T10:27:40.998Z</time></trkpt><trkpt lat="42.61950009794516" lon="11.997648310080937"><ele>318.3333333333333</ele><time>2026-04-25T10:27:41.998Z</time></trkpt><trkpt lat="42.61966991844854" lon="11.997794112114885"><ele>320.6666666666667</ele><time>2026-04-25T10:27:42.998Z</time></trkpt><trkpt lat="42.61984413833548" lon="11.99792565813215"><ele>323.0</ele><time>2026-04-25T10:27:43.998Z</time></trkpt><trkpt lat="42.6200303747927" lon="11.9980218423987"><ele>323.0</ele><time>2026-04-25T10:27:44.998Z</time></trkpt><trkpt lat="42.620218768312135" lon="11.998049066887967"><ele>323.0</ele><time>2026-04-25T10:27:45.998Z</time></trkpt><trkpt lat="42.62040597531562" lon="11.99807180561302"><ele>323.0</ele><time>2026-04-25T10:27:46.998Z</time></trkpt><trkpt lat="42.620599411798196" lon="11.998107037940976"><ele>321.6666666666667</ele><time>2026-04-25T10:27:47.998Z</time></trkpt><trkpt lat="42.620807923678406" lon="11.998123723339646"><ele>320.3333333333333</ele><time>2026-04-25T10:27:48.998Z</time></trkpt><trkpt lat="42.62101435584081" lon="11.998141111095354"><ele>319.0</ele><time>2026-04-25T10:27:49.998Z</time></trkpt><trkpt lat="42.621220037755954" lon="11.998159209967238"><ele>318.66666666666663</ele><time>2026-04-25T10:27:50.998Z</time></trkpt><trkpt lat="42.6214216267587" lon="11.998177765995"><ele>318.3333333333333</ele><time>2026-04-25T10:27:51.998Z</time></trkpt><trkpt lat="42.621616777613" lon="11.998196923481371"><ele>318.0</ele><time>2026-04-25T10:27:52.998Z</time></trkpt><trkpt lat="42.62180023916505" lon="11.998215176405333"><ele>318.0</ele><time>2026-04-25T10:27:53.998Z</time></trkpt><trkpt lat="42.621976296306165" lon="11.998233016021352"><ele>318.0</ele><time>2026-04-25T10:27:54.998Z</time></trkpt><trkpt lat="42.62214005565887" lon="11.998251142866105"><ele>318.0</ele><time>2026-04-25T10:27:56Z</time></trkpt><trkpt lat="42.62230157748531" lon="11.998278725533318"><ele>317.6666666666667</ele><time>2026-04-25T10:27:57Z</time></trkpt><trkpt lat="42.62246143399078" lon="11.998332638004026"><ele>317.33333333333337</ele><time>2026-04-25T10:27:58Z</time></trkpt><trkpt lat="42.62260802383399" lon="11.998436522231934"><ele>317.0</ele><time>2026-04-25T10:27:59Z</time></trkpt><trkpt lat="42.62272907342145" lon="11.998586572531638"><ele>317.6666666666667</ele><time>2026-04-25T10:28:00Z</time></trkpt><trkpt lat="42.62285071242608" lon="11.998761446213003"><ele>318.3333333333333</ele><time>2026-04-25T10:28:01Z</time></trkpt><trkpt lat="42.622982862438505" lon="11.998929315081625"><ele>319.0</ele><time>2026-04-25T10:28:02Z</time></trkpt><trkpt lat="42.623126016238466" lon="11.999087228765353"><ele>321.3333333333333</ele><time>2026-04-25T10:28:03Z</time></trkpt><trkpt lat="42.62328164292107" lon="11.999207497967816"><ele>323.6666666666667</ele><time>2026-04-25T10:28:04Z</time></trkpt><trkpt lat="42.623435648455335" lon="11.99930372399595"><ele>326.0</ele><time>2026-04-25T10:28:05Z</time></trkpt><trkpt lat="42.623603094486384" lon="11.999348690963393"><ele>325.6666666666667</ele><time>2026-04-25T10:28:06Z</time></trkpt><trkpt lat="42.62378107719343" lon="11.999384335978082"><ele>325.3333333333333</ele><time>2026-04-25T10:28:07Z</time></trkpt><trkpt lat="42.62397641484995" lon="11.999399222383754"><ele>325.0</ele><time>2026-04-25T10:28:08Z</time></trkpt><trkpt lat="42.624188218871325" lon="11.999419831799248"><ele>325.0</ele><time>2026-04-25T10:28:09Z</time></trkpt><trkpt lat="42.62441406586046" lon="11.999413794550764"><ele>325.0</ele><time>2026-04-25T10:28:10Z</time></trkpt><trkpt lat="42.62463733022936" lon="11.99938459069354"><ele>327.0</ele><time>2026-04-25T10:28:11Z</time></trkpt><trkpt lat="42.62485791119374" lon="11.999373243147218"><ele>329.0</ele><time>2026-04-25T10:28:12Z</time></trkpt><trkpt lat="42.62507961174523" lon="11.999365047924346"><ele>331.0</ele><time>2026-04-25T10:28:13Z</time></trkpt><trkpt lat="42.6253003345776" lon="11.999361107085537"><ele>335.0</ele><time>2026-04-25T10:28:14Z</time></trkpt><trkpt lat="42.62552294855202" lon="11.999350683421051"><ele>339.0</ele><time>2026-04-25T10:28:15Z</time></trkpt><trkpt lat="42.625745063482384" lon="11.999343572277416"><ele>343.0</ele><time>2026-04-25T10:28:16Z</time></trkpt><trkpt lat="42.625967984402514" lon="11.999335599024391"><ele>346.3333333333333</ele><time>2026-04-25T10:28:17Z</time></trkpt><trkpt lat="42.62618852977281" lon="11.999326991893852"><ele>349.6666666666667</ele><time>2026-04-25T10:28:18Z</time></trkpt><trkpt lat="42.62640225526745" lon="11.999310672803102"><ele>353.0</ele><time>2026-04-25T10:28:19Z</time></trkpt><trkpt lat="42.62660286300985" lon="11.999279884704402"><ele>353.0</ele><time>2026-04-25T10:28:20Z</time></trkpt><trkpt lat="42.626805980109246" lon="11.999230669286883"><ele>353.0</ele><time>2026-04-25T10:28:21Z</time></trkpt><trkpt lat="42.62700739655466" lon="11.999156248911818"><ele>353.0</ele><time>2026-04-25T10:28:22Z</time></trkpt><trkpt lat="42.62720682317683" lon="11.999076412559411"><ele>344.33333333333337</ele><time>2026-04-25T10:28:23Z</time></trkpt><trkpt lat="42.627404021921016" lon="11.998997275107001"><ele>335.6666666666667</ele><time>2026-04-25T10:28:24Z</time></trkpt><trkpt lat="42.6275996851612" lon="11.998917659976618"><ele>327.0</ele><time>2026-04-25T10:28:25Z</time></trkpt><trkpt lat="42.62779421593312" lon="11.998840083062765"><ele>329.0</ele><time>2026-04-25T10:28:26Z</time></trkpt><trkpt lat="42.62798559385143" lon="11.998753792336352"><ele>331.0</ele><time>2026-04-25T10:28:27Z</time></trkpt><trkpt lat="42.62817430457762" lon="11.998657178306127"><ele>333.0</ele><time>2026-04-25T10:28:28Z</time></trkpt><trkpt lat="42.62836694378976" lon="11.998567265869097"><ele>333.0</ele><time>2026-04-25T10:28:29Z</time></trkpt><trkpt lat="42.62855994258945" lon="11.998496441385223"><ele>333.0</ele><time>2026-04-25T10:28:30Z</time></trkpt><trkpt lat="42.6287460157945" lon="11.998448958906717"><ele>333.0</ele><time>2026-04-25T10:28:31Z</time></trkpt><trkpt lat="42.628937518332634" lon="11.99840205201846"><ele>330.6666666666667</ele><time>2026-04-25T10:28:32Z</time></trkpt><trkpt lat="42.62913175024947" lon="11.99836034850948"><ele>328.33333333333337</ele><time>2026-04-25T10:28:33Z</time></trkpt><trkpt lat="42.629330909959165" lon="11.998330331474902"><ele>326.0</ele><time>2026-04-25T10:28:34Z</time></trkpt><trkpt lat="42.629532932517954" lon="11.998306390184895"><ele>326.0</ele><time>2026-04-25T10:28:35Z</time></trkpt><trkpt lat="42.629739984000246" lon="11.998292459992106"><ele>326.0</ele><time>2026-04-25T10:28:35.999Z</time></trkpt><trkpt lat="42.629950534613734" lon="11.998272004878698"><ele>326.0</ele><time>2026-04-25T10:28:36.999Z</time></trkpt><trkpt lat="42.630166331778156" lon="11.998220537105341"><ele>330.33333333333337</ele><time>2026-04-25T10:28:37.999Z</time></trkpt><trkpt lat="42.630382309436236" lon="11.998145023445808"><ele>334.6666666666667</ele><time>2026-04-25T10:28:38.999Z</time></trkpt><trkpt lat="42.63059652291163" lon="11.998061842624544"><ele>339.0</ele><time>2026-04-25T10:28:39.999Z</time></trkpt><trkpt lat="42.63080796734582" lon="11.997973650686227"><ele>339.0</ele><time>2026-04-25T10:28:40.999Z</time></trkpt><trkpt lat="42.63101194465705" lon="11.997879507205894"><ele>339.0</ele><time>2026-04-25T10:28:41.999Z</time></trkpt><trkpt lat="42.63119853818225" lon="11.997778322100814"><ele>339.0</ele><time>2026-04-25T10:28:42.999Z</time></trkpt><trkpt lat="42.63137212340095" lon="11.9976753153392"><ele>335.0</ele><time>2026-04-25T10:28:43.999Z</time></trkpt><trkpt lat="42.63153617288197" lon="11.997580680596833"><ele>331.0</ele><time>2026-04-25T10:28:44.999Z</time></trkpt><trkpt lat="42.631692086696745" lon="11.997489792243451"><ele>327.0</ele><time>2026-04-25T10:28:45.999Z</time></trkpt><trkpt lat="42.63184044762312" lon="11.9974001742882"><ele>331.3333333333333</ele><time>2026-04-25T10:28:46.999Z</time></trkpt><trkpt lat="42.63199206441435" lon="11.997308111377201"><ele>335.66666666666663</ele><time>2026-04-25T10:28:47.999Z</time></trkpt><trkpt lat="42.63214305589009" lon="11.997212446809945"><ele>340.0</ele><time>2026-04-25T10:28:48.999Z</time></trkpt><trkpt lat="42.63229441450984" lon="11.997114564717407"><ele>340.0</ele><time>2026-04-25T10:28:49.999Z</time></trkpt><trkpt lat="42.63244509022792" lon="11.997019833676577"><ele>340.0</ele><time>2026-04-25T10:28:50.999Z</time></trkpt><trkpt lat="42.63259590260455" lon="11.996925460777817"><ele>340.0</ele><time>2026-04-25T10:28:51.999Z</time></trkpt><trkpt lat="42.63274940961541" lon="11.99682745444003"><ele>343.3333333333333</ele><time>2026-04-25T10:28:52.999Z</time></trkpt><trkpt lat="42.632905569452696" lon="11.996710185204167"><ele>346.6666666666667</ele><time>2026-04-25T10:28:53.999Z</time></trkpt><trkpt lat="42.63306588994788" lon="11.996566232128302"><ele>350.0</ele><time>2026-04-25T10:28:54.999Z</time></trkpt><trkpt lat="42.63323629080583" lon="11.996406853089619"><ele>346.33333333333337</ele><time>2026-04-25T10:28:55.999Z</time></trkpt><trkpt lat="42.6334077675191" lon="11.99626084387642"><ele>342.6666666666667</ele><time>2026-04-25T10:28:56.999Z</time></trkpt><trkpt lat="42.63357336585786" lon="11.996126559758764"><ele>339.0</ele><time>2026-04-25T10:28:57.999Z</time></trkpt><trkpt lat="42.63373622499382" lon="11.99598952612508"><ele>339.0</ele><time>2026-04-25T10:28:58.999Z</time></trkpt><trkpt lat="42.63389491493409" lon="11.995846078571326"><ele>339.0</ele><time>2026-04-25T10:28:59.999Z</time></trkpt><trkpt lat="42.63405191289843" lon="11.995701343531355"><ele>339.0</ele><time>2026-04-25T10:29:00.999Z</time></trkpt><trkpt lat="42.63421154714105" lon="11.995561207397419"><ele>333.0</ele><time>2026-04-25T10:29:01.999Z</time></trkpt><trkpt lat="42.63436646136155" lon="11.995432349439383"><ele>327.0</ele><time>2026-04-25T10:29:02.999Z</time></trkpt><trkpt lat="42.634513053204905" lon="11.995323990537225"><ele>321.0</ele><time>2026-04-25T10:29:03.999Z</time></trkpt><trkpt lat="42.63467119922161" lon="11.995230448698322"><ele>321.0</ele><time>2026-04-25T10:29:04.999Z</time></trkpt><trkpt lat="42.63484923044797" lon="11.995153923749074"><ele>321.0</ele><time>2026-04-25T10:29:05.999Z</time></trkpt><trkpt lat="42.63503699654269" lon="11.995089683392184"><ele>321.0</ele><time>2026-04-25T10:29:06.999Z</time></trkpt><trkpt lat="42.63522343458647" lon="11.99503817023937"><ele>318.6666666666667</ele><time>2026-04-25T10:29:07.999Z</time></trkpt><trkpt lat="42.6354102496668" lon="11.994984208691795"><ele>316.33333333333337</ele><time>2026-04-25T10:29:08.999Z</time></trkpt><trkpt lat="42.6355967598125" lon="11.994929061890147"><ele>314.0</ele><time>2026-04-25T10:29:09.999Z</time></trkpt><trkpt lat="42.635781648471514" lon="11.994872528495616"><ele>314.0</ele><time>2026-04-25T10:29:10.999Z</time></trkpt><trkpt lat="42.635965824989974" lon="11.994815084655007"><ele>314.0</ele><time>2026-04-25T10:29:11.999Z</time></trkpt><trkpt lat="42.63614986874995" lon="11.994754092395882"><ele>314.0</ele><time>2026-04-25T10:29:12.999Z</time></trkpt><trkpt lat="42.63633520780071" lon="11.99468550049247"><ele>315.6666666666667</ele><time>2026-04-25T10:29:13.999Z</time></trkpt><trkpt lat="42.63652161347378" lon="11.994601480697394"><ele>317.3333333333333</ele><time>2026-04-25T10:29:14.999Z</time></trkpt><trkpt lat="42.63670994076046" lon="11.994490173547609"><ele>319.0</ele><time>2026-04-25T10:29:15.999Z</time></trkpt><trkpt lat="42.63688602784017" lon="11.994359437010667"><ele>318.3333333333333</ele><time>2026-04-25T10:29:16.999Z</time></trkpt><trkpt lat="42.637035463948635" lon="11.994220576106848"><ele>317.6666666666667</ele><time>2026-04-25T10:29:17.999Z</time></trkpt><trkpt lat="42.63717668267577" lon="11.994083747627172"><ele>317.0</ele><time>2026-04-25T10:29:18.999Z</time></trkpt><trkpt lat="42.63732410348001" lon="11.99395015127133"><ele>317.0</ele><time>2026-04-25T10:29:19.999Z</time></trkpt><trkpt lat="42.637475866590584" lon="11.993819185345261"><ele>317.0</ele><time>2026-04-25T10:29:20.999Z</time></trkpt><trkpt lat="42.63762746254705" lon="11.993685236915434"><ele>317.0</ele><time>2026-04-25T10:29:21.999Z</time></trkpt><trkpt lat="42.63778030981675" lon="11.993549494865436"><ele>317.6666666666667</ele><time>2026-04-25T10:29:22.999Z</time></trkpt><trkpt lat="42.63793210762706" lon="11.99341325168101"><ele>318.3333333333333</ele><time>2026-04-25T10:29:23.999Z</time></trkpt><trkpt lat="42.63808561026117" lon="11.993279580051553"><ele>319.0</ele><time>2026-04-25T10:29:24.999Z</time></trkpt><trkpt lat="42.638245952908385" lon="11.993159487670802"><ele>319.0</ele><time>2026-04-25T10:29:25.999Z</time></trkpt><trkpt lat="42.63840667066467" lon="11.993042299614794"><ele>319.0</ele><time>2026-04-25T10:29:26.999Z</time></trkpt><trkpt lat="42.63856212239518" lon="11.99290586025022"><ele>319.0</ele><time>2026-04-25T10:29:27.999Z</time></trkpt><trkpt lat="42.63870579378106" lon="11.992746113603456"><ele>320.3333333333333</ele><time>2026-04-25T10:29:28.999Z</time></trkpt><trkpt lat="42.63884079001073" lon="11.992573356749155"><ele>321.6666666666667</ele><time>2026-04-25T10:29:29.999Z</time></trkpt><trkpt lat="42.638973523899885" lon="11.992402299039112"><ele>323.0</ele><time>2026-04-25T10:29:30.999Z</time></trkpt><trkpt lat="42.63910616212825" lon="11.992237115562062"><ele>323.0</ele><time>2026-04-25T10:29:31.999Z</time></trkpt><trkpt lat="42.63923496246387" lon="11.992075885688509"><ele>323.0</ele><time>2026-04-25T10:29:32.999Z</time></trkpt><trkpt lat="42.639362555374205" lon="11.991919004297907"><ele>323.0</ele><time>2026-04-25T10:29:33.999Z</time></trkpt><trkpt lat="42.63948974190445" lon="11.991764914332318"><ele>322.0</ele><time>2026-04-25T10:29:34.999Z</time></trkpt><trkpt lat="42.639612438429225" lon="11.991623980131251"><ele>321.0</ele><time>2026-04-25T10:29:35.999Z</time></trkpt><trkpt lat="42.639739723768514" lon="11.991494066468892"><ele>320.0</ele><time>2026-04-25T10:29:36.999Z</time></trkpt><trkpt lat="42.63987229065132" lon="11.99137413946805"><ele>320.0</ele><time>2026-04-25T10:29:37.999Z</time></trkpt><trkpt lat="42.64000764918058" lon="11.991262350620604"><ele>320.0</ele><time>2026-04-25T10:29:38.999Z</time></trkpt><trkpt lat="42.64014071494734" lon="11.991151118498438"><ele>320.0</ele><time>2026-04-25T10:29:39.999Z</time></trkpt><trkpt lat="42.64027205594697" lon="11.991041980056556"><ele>320.0</ele><time>2026-04-25T10:29:40.999Z</time></trkpt><trkpt lat="42.64040431386225" lon="11.990937491300016"><ele>320.0</ele><time>2026-04-25T10:29:41.998Z</time></trkpt><trkpt lat="42.64053902638737" lon="11.990832976112237"><ele>320.0</ele><time>2026-04-25T10:29:42.998Z</time></trkpt><trkpt lat="42.64067351592789" lon="11.990727663470103"><ele>320.0</ele><time>2026-04-25T10:29:43.998Z</time></trkpt><trkpt lat="42.64080788814943" lon="11.990622030972908"><ele>320.0</ele><time>2026-04-25T10:29:44.998Z</time></trkpt><trkpt lat="42.64093799481684" lon="11.990515234545189"><ele>320.0</ele><time>2026-04-25T10:29:45.998Z</time></trkpt><trkpt lat="42.64106055161905" lon="11.990403497634693"><ele>320.0</ele><time>2026-04-25T10:29:46.998Z</time></trkpt><trkpt lat="42.64118418708135" lon="11.990274041276958"><ele>320.0</ele><time>2026-04-25T10:29:47.998Z</time></trkpt><trkpt lat="42.64129657642826" lon="11.99013133945257"><ele>320.0</ele><time>2026-04-25T10:29:48.998Z</time></trkpt><trkpt lat="42.641388796798104" lon="11.989985929247867"><ele>320.0</ele><time>2026-04-25T10:29:49.998Z</time></trkpt><trkpt lat="42.64146909797253" lon="11.98984828107871"><ele>320.0</ele><time>2026-04-25T10:29:50.998Z</time></trkpt><trkpt lat="42.64154817467428" lon="11.9897175534819"><ele>320.0</ele><time>2026-04-25T10:29:51.998Z</time></trkpt><trkpt lat="42.64162298477081" lon="11.989594605257915"><ele>320.0</ele><time>2026-04-25T10:29:52.998Z</time></trkpt><trkpt lat="42.6416924934005" lon="11.989478800666248"><ele>320.0</ele><time>2026-04-25T10:29:53.998Z</time></trkpt><trkpt lat="42.64176043119178" lon="11.989365331308804"><ele>320.0</ele><time>2026-04-25T10:29:54.998Z</time></trkpt><trkpt lat="42.641824137493344" lon="11.989258617274684"><ele>320.0</ele><time>2026-04-25T10:29:55.998Z</time></trkpt><trkpt lat="42.64188475328318" lon="11.989150292881082"><ele>320.0</ele><time>2026-04-25T10:29:56.998Z</time></trkpt><trkpt lat="42.64194448951177" lon="11.989043088692707"><ele>320.0</ele><time>2026-04-25T10:29:57.998Z</time></trkpt><trkpt lat="42.642003065960694" lon="11.988937286031772"><ele>319.83333333333337</ele><time>2026-04-25T10:29:58.998Z</time></trkpt><trkpt lat="42.64206109006969" lon="11.988836874233414"><ele>319.6666666666667</ele><time>2026-04-25T10:29:59.998Z</time></trkpt><trkpt lat="42.64211421864575" lon="11.988745576008654"><ele>319.5</ele><time>2026-04-25T10:30:01Z</time></trkpt><trkpt lat="42.642163888538235" lon="11.988661812700052"><ele>319.3333333333333</ele><time>2026-04-25T10:30:02Z</time></trkpt><trkpt lat="42.64223669863391" lon="11.988550340086988"><ele>319.16666666666663</ele><time>2026-04-25T10:30:04Z</time></trkpt><trkpt lat="42.642288248519804" lon="11.988478208938421"><ele>319.0</ele><time>2026-04-25T10:30:06Z</time></trkpt><trkpt lat="42.642200858341944" lon="11.988359833143686"><ele>319.0</ele><time>2026-04-25T10:30:09Z</time></trkpt><trkpt lat="42.64208991122598" lon="11.988394188528941"><ele>319.0</ele><time>2026-04-25T10:30:11Z</time></trkpt><trkpt lat="42.64203197434604" lon="11.988432939113412"><ele>319.0</ele><time>2026-04-25T10:30:12Z</time></trkpt><trkpt lat="42.641956614769455" lon="11.988539185686351"><ele>319.0</ele><time>2026-04-25T10:30:14Z</time></trkpt><trkpt lat="42.6419664721703" lon="11.988670328902442"><ele>319.0</ele><time>2026-04-25T10:30:16Z</time></trkpt><trkpt lat="42.64200775865533" lon="11.988788770149583"><ele>319.16666666666663</ele><time>2026-04-25T10:30:18Z</time></trkpt><trkpt lat="42.6419465187466" lon="11.988923165071045"><ele>319.3333333333333</ele><time>2026-04-25T10:30:21Z</time></trkpt><trkpt lat="42.64189787427326" lon="11.989005848960383"><ele>319.5</ele><time>2026-04-25T10:30:22Z</time></trkpt><trkpt lat="42.64185261363319" lon="11.989084580745695"><ele>319.6666666666667</ele><time>2026-04-25T10:30:23Z</time></trkpt><trkpt lat="42.64181067976065" lon="11.989157525843973"><ele>319.83333333333337</ele><time>2026-04-25T10:30:24Z</time></trkpt><trkpt lat="42.64172869800243" lon="11.989193188656902"><ele>320.0</ele><time>2026-04-25T10:30:26Z</time></trkpt><trkpt lat="42.64163773924035" lon="11.9890760777915"><ele>319.5</ele><time>2026-04-25T10:30:28Z</time></trkpt><trkpt lat="42.641588585134016" lon="11.989002267904375"><ele>319.0</ele><time>2026-04-25T10:30:29Z</time></trkpt><trkpt lat="42.64153627399355" lon="11.988915547841064"><ele>318.5</ele><time>2026-04-25T10:30:30Z</time></trkpt><trkpt lat="42.64147996570956" lon="11.988829066921603"><ele>318.0</ele><time>2026-04-25T10:30:31Z</time></trkpt><trkpt lat="42.641428270993366" lon="11.988757565255698"><ele>317.5</ele><time>2026-04-25T10:30:32Z</time></trkpt><trkpt lat="42.641350453033425" lon="11.988637206982595"><ele>317.0</ele><time>2026-04-25T10:30:34Z</time></trkpt><trkpt lat="42.641309350540446" lon="11.988568307862819"><ele>317.0</ele><time>2026-04-25T10:30:35Z</time></trkpt><trkpt lat="42.6412497040722" lon="11.988488790673028"><ele>317.0</ele><time>2026-04-25T10:30:36Z</time></trkpt><trkpt lat="42.6411790997093" lon="11.98838694998159"><ele>317.0</ele><time>2026-04-25T10:30:37Z</time></trkpt><trkpt lat="42.64111698194299" lon="11.98827583728417"><ele>317.0</ele><time>2026-04-25T10:30:38Z</time></trkpt><trkpt lat="42.641046253202965" lon="11.98815885929991"><ele>317.0</ele><time>2026-04-25T10:30:39Z</time></trkpt><trkpt lat="42.64097008259492" lon="11.988039754744333"><ele>316.0</ele><time>2026-04-25T10:30:40Z</time></trkpt><trkpt lat="42.64088993119005" lon="11.987916857719467"><ele>315.0</ele><time>2026-04-25T10:30:41Z</time></trkpt><trkpt lat="42.64080448928368" lon="11.987792318968381"><ele>314.0</ele><time>2026-04-25T10:30:42Z</time></trkpt><trkpt lat="42.64071604542915" lon="11.987661708837228"><ele>313.0</ele><time>2026-04-25T10:30:43Z</time></trkpt><trkpt lat="42.64062579260142" lon="11.987534739655514"><ele>312.75</ele><time>2026-04-25T10:30:44Z</time></trkpt><trkpt lat="42.640537831784705" lon="11.987412995431498"><ele>312.5</ele><time>2026-04-25T10:30:45Z</time></trkpt><trkpt lat="42.640455505909195" lon="11.98729888387469"><ele>312.25</ele><time>2026-04-25T10:30:46Z</time></trkpt><trkpt lat="42.64037418092392" lon="11.987196444346651"><ele>312.0</ele><time>2026-04-25T10:30:46.999Z</time></trkpt><trkpt lat="42.64029916794408" lon="11.987103302163652"><ele>311.8</ele><time>2026-04-25T10:30:47.999Z</time></trkpt><trkpt lat="42.640232135648695" lon="11.987019026007955"><ele>311.6</ele><time>2026-04-25T10:30:48.999Z</time></trkpt><trkpt lat="42.640174661587814" lon="11.98694526182832"><ele>311.40000000000003</ele><time>2026-04-25T10:30:49.999Z</time></trkpt><trkpt lat="42.64012733403094" lon="11.986883576765793"><ele>311.2</ele><time>2026-04-25T10:30:50.999Z</time></trkpt><trkpt lat="42.64005206020778" lon="11.986789662351864"><ele>311.0</ele><time>2026-04-25T10:30:52.999Z</time></trkpt><trkpt lat="42.63995310808782" lon="11.986672167288678"><ele>310.8</ele><time>2026-04-25T10:30:54.999Z</time></trkpt><trkpt lat="42.63988862004638" lon="11.986597014878079"><ele>310.6</ele><time>2026-04-25T10:30:55.999Z</time></trkpt><trkpt lat="42.639818898248215" lon="11.986513011406885"><ele>310.4</ele><time>2026-04-25T10:30:56.999Z</time></trkpt><trkpt lat="42.63974483412378" lon="11.986418768598659"><ele>310.2</ele><time>2026-04-25T10:30:57.999Z</time></trkpt><trkpt lat="42.63966327378376" lon="11.986322711814251"><ele>310.0</ele><time>2026-04-25T10:30:58.999Z</time></trkpt><trkpt lat="42.639578347906394" lon="11.986222396983463"><ele>310.0</ele><time>2026-04-25T10:30:59.999Z</time></trkpt><trkpt lat="42.63949794053145" lon="11.986121697547318"><ele>310.0</ele><time>2026-04-25T10:31:00.999Z</time></trkpt><trkpt lat="42.63941944113489" lon="11.986022786039184"><ele>310.0</ele><time>2026-04-25T10:31:01.999Z</time></trkpt><trkpt lat="42.639335382810465" lon="11.985921975563683"><ele>310.0</ele><time>2026-04-25T10:31:02.999Z</time></trkpt><trkpt lat="42.63924836835841" lon="11.985809768484991"><ele>310.0</ele><time>2026-04-25T10:31:03.999Z</time></trkpt><trkpt lat="42.63916436684387" lon="11.985694832345422"><ele>309.4</ele><time>2026-04-25T10:31:04.999Z</time></trkpt><trkpt lat="42.63909514117981" lon="11.985568515945586"><ele>308.8</ele><time>2026-04-25T10:31:05.999Z</time></trkpt><trkpt lat="42.63903467296385" lon="11.985438775038052"><ele>308.2</ele><time>2026-04-25T10:31:06.999Z</time></trkpt><trkpt lat="42.63898345729698" lon="11.985312916227283"><ele>307.6</ele><time>2026-04-25T10:31:07.999Z</time></trkpt><trkpt lat="42.63894564130385" lon="11.985194613295235"><ele>307.0</ele><time>2026-04-25T10:31:08.999Z</time></trkpt><trkpt lat="42.638902181372174" lon="11.985100296103644"><ele>306.8</ele><time>2026-04-25T10:31:09.999Z</time></trkpt><trkpt lat="42.63887602991172" lon="11.985009498842375"><ele>306.6</ele><time>2026-04-25T10:31:10.999Z</time></trkpt><trkpt lat="42.638837156000534" lon="11.984871595022405"><ele>306.40000000000003</ele><time>2026-04-25T10:31:12.999Z</time></trkpt><trkpt lat="42.63882486738699" lon="11.984778270221858"><ele>306.2</ele><time>2026-04-25T10:31:14.999Z</time></trkpt><trkpt lat="42.63876002363606" lon="11.984682202647056"><ele>306.0</ele><time>2026-04-25T10:31:23.999Z</time></trkpt><trkpt lat="42.6386530279161" lon="11.984688695764406"><ele>306.0</ele><time>2026-04-25T10:31:25.999Z</time></trkpt><trkpt lat="42.63853504557027" lon="11.984730071646846"><ele>306.0</ele><time>2026-04-25T10:31:27.999Z</time></trkpt><trkpt lat="42.63847238367081" lon="11.984751295905822"><ele>306.0</ele><time>2026-04-25T10:31:28.999Z</time></trkpt><trkpt lat="42.638348385590646" lon="11.984786262037135"><ele>306.0</ele><time>2026-04-25T10:31:30.999Z</time></trkpt><trkpt lat="42.638226264674735" lon="11.984796870832518"><ele>306.0</ele><time>2026-04-25T10:31:32.999Z</time></trkpt><trkpt lat="42.6380971678366" lon="11.984773488866535"><ele>306.0</ele><time>2026-04-25T10:31:34.999Z</time></trkpt><trkpt lat="42.6380274815622" lon="11.984746100615794"><ele>306.0</ele><time>2026-04-25T10:31:35.999Z</time></trkpt><trkpt lat="42.63796031202386" lon="11.984716281774219"><ele>306.0</ele><time>2026-04-25T10:31:36.999Z</time></trkpt><trkpt lat="42.63789162169044" lon="11.984686703560692"><ele>306.0</ele><time>2026-04-25T10:31:37.999Z</time></trkpt><trkpt lat="42.63782784128351" lon="11.984652340341151"><ele>306.0</ele><time>2026-04-25T10:31:38.999Z</time></trkpt><trkpt lat="42.63776555940926" lon="11.984620639680527"><ele>306.0</ele><time>2026-04-25T10:31:39.999Z</time></trkpt><trkpt lat="42.63770711778167" lon="11.984587929518753"><ele>306.0</ele><time>2026-04-25T10:31:40.999Z</time></trkpt><trkpt lat="42.63760630887594" lon="11.984506017461726"><ele>306.0</ele><time>2026-04-25T10:31:42.999Z</time></trkpt><trkpt lat="42.63750293618086" lon="11.984417423589134"><ele>306.0</ele><time>2026-04-25T10:31:44.999Z</time></trkpt><trkpt lat="42.63744708528641" lon="11.984374163266088"><ele>306.0</ele><time>2026-04-25T10:31:45.999Z</time></trkpt><trkpt lat="42.637343553056986" lon="11.984279945884191"><ele>306.0</ele><time>2026-04-25T10:31:47.999Z</time></trkpt><trkpt lat="42.63725238224054" lon="11.984183954400732"><ele>306.0</ele><time>2026-04-25T10:31:49.999Z</time></trkpt><trkpt lat="42.63716264875346" lon="11.98410039992653"><ele>305.8</ele><time>2026-04-25T10:31:51.998Z</time></trkpt><trkpt lat="42.63706036378669" lon="11.98403727207243"><ele>305.6</ele><time>2026-04-25T10:31:53.998Z</time></trkpt><trkpt lat="42.636942615894846" lon="11.983997726426246"><ele>305.4</ele><time>2026-04-25T10:31:55.998Z</time></trkpt><trkpt lat="42.6368279475448" lon="11.984005152368226"><ele>305.2</ele><time>2026-04-25T10:31:57.998Z</time></trkpt><trkpt lat="42.63676365075274" lon="11.984000631843797"><ele>305.0</ele><time>2026-04-25T10:31:58.998Z</time></trkpt><trkpt lat="42.63670530527386" lon="11.98404550185213"><ele>304.8571428571429</ele><time>2026-04-25T10:31:59.998Z</time></trkpt><trkpt lat="42.63665821093239" lon="11.984109892489265"><ele>304.71428571428567</ele><time>2026-04-25T10:32:00.998Z</time></trkpt><trkpt lat="42.6366136855607" lon="11.984182672258523"><ele>304.57142857142856</ele><time>2026-04-25T10:32:01.998Z</time></trkpt><trkpt lat="42.63657232189948" lon="11.98426416713136"><ele>304.42857142857144</ele><time>2026-04-25T10:32:02.998Z</time></trkpt><trkpt lat="42.636537960891545" lon="11.98435941975297"><ele>304.28571428571433</ele><time>2026-04-25T10:32:03.998Z</time></trkpt><trkpt lat="42.63650925769698" lon="11.984460728105804"><ele>304.1428571428571</ele><time>2026-04-25T10:32:04.998Z</time></trkpt><trkpt lat="42.636480122215914" lon="11.984562540424138"><ele>304.0</ele><time>2026-04-25T10:32:05.998Z</time></trkpt><trkpt lat="42.63645133652057" lon="11.984663130711409"><ele>304.2857142857143</ele><time>2026-04-25T10:32:07Z</time></trkpt><trkpt lat="42.63642292247497" lon="11.984762422141232"><ele>304.5714285714286</ele><time>2026-04-25T10:32:08Z</time></trkpt><trkpt lat="42.636395444034804" lon="11.984858445326832"><ele>304.8571428571429</ele><time>2026-04-25T10:32:09Z</time></trkpt><trkpt lat="42.636365343812614" lon="11.984950235167158"><ele>305.1428571428571</ele><time>2026-04-25T10:32:10Z</time></trkpt><trkpt lat="42.6363350326287" lon="11.985043630385666"><ele>305.42857142857144</ele><time>2026-04-25T10:32:11Z</time></trkpt><trkpt lat="42.63630577896099" lon="11.985132187985315"><ele>305.7142857142857</ele><time>2026-04-25T10:32:12Z</time></trkpt><trkpt lat="42.63627674728946" lon="11.985217781310622"><ele>306.0</ele><time>2026-04-25T10:32:13Z</time></trkpt><trkpt lat="42.63624829032834" lon="11.985301680278535"><ele>306.0</ele><time>2026-04-25T10:32:14Z</time></trkpt><trkpt lat="42.636220821352346" lon="11.985382761063605"><ele>306.0</ele><time>2026-04-25T10:32:15Z</time></trkpt><trkpt lat="42.63619260001407" lon="11.985462617456198"><ele>306.0</ele><time>2026-04-25T10:32:16Z</time></trkpt><trkpt lat="42.63616499645661" lon="11.985540724128809"><ele>306.0</ele><time>2026-04-25T10:32:17Z</time></trkpt><trkpt lat="42.63611172677583" lon="11.985677795205333"><ele>306.0</ele><time>2026-04-25T10:32:19Z</time></trkpt><trkpt lat="42.63607471130221" lon="11.985768004342471"><ele>306.0</ele><time>2026-04-25T10:32:21Z</time></trkpt><trkpt lat="42.63603352487734" lon="11.985867031830791"><ele>306.0</ele><time>2026-04-25T10:32:24Z</time></trkpt><trkpt lat="42.63599504233279" lon="11.985958915071928"><ele>306.0</ele><time>2026-04-25T10:32:27Z</time></trkpt><trkpt lat="42.636079895159476" lon="11.986073680980224"><ele>306.0</ele><time>2026-04-25T10:32:30Z</time></trkpt><trkpt lat="42.63613321103909" lon="11.986121772082265"><ele>306.0</ele><time>2026-04-25T10:32:33Z</time></trkpt><trkpt lat="42.636061506234945" lon="11.98604560582299"><ele>306.0</ele><time>2026-04-25T10:34:29Z</time></trkpt><trkpt lat="42.63604230843619" lon="11.985916374942056"><ele>306.0</ele><time>2026-04-25T10:34:33Z</time></trkpt><trkpt lat="42.63607977837576" lon="11.985824226716367"><ele>307.0</ele><time>2026-04-25T10:34:35Z</time></trkpt><trkpt lat="42.63601589300932" lon="11.985828809212041"><ele>307.0</ele><time>2026-04-25T10:39:46.999Z</time></trkpt><trkpt lat="42.635989678646034" lon="11.985916158952968"><ele>306.0</ele><time>2026-04-25T10:39:54.998Z</time></trkpt><trkpt lat="42.63602847828577" lon="11.985846258709007"><ele>306.0</ele><time>2026-04-25T10:40:18.998Z</time></trkpt><trkpt lat="42.63604972770543" lon="11.985760046149977"><ele>307.0</ele><time>2026-04-25T10:40:27.998Z</time></trkpt><trkpt lat="42.636021591382615" lon="11.985675410440985"><ele>307.0</ele><time>2026-04-25T10:41:16.999Z</time></trkpt></trkseg></trk></gpx>